<?xml version="1.0" encoding="UTF-8" standalone="no" ?>
<gpx xmlns="http://www.topografix.com/GPX/1/1" xmlns:xsi="http://www.w3.org/2001/XMLSchema-instance" xsi:schemaLocation="http://www.topografix.com/GPX/1/1 http://www.topografix.com/GPX/1/1/gpx.xsd" version="1.1" creator="VisuGPX - https://www.visugpx.com">
  <metadata>
    <name>Boucle par la cx du col du ban</name>
    <desc><![CDATA[Quelques passages technique à l'approche de la cx du col du ban ]]></desc>
  </metadata>
  <trk>
    <name><![CDATA[2023 07 07 Boucle par la cx du col du ban]]></name>
    <trkseg>
      <trkpt lat="45.83626" lon="4.71196">
        <ele>319.85211</ele>
        <time>2023-07-07T14:05:30.000Z</time>
      </trkpt>
      <trkpt lat="45.83628" lon="4.71194">
        <ele>321.52148</ele>
        <time>2023-07-07T14:05:57.000Z</time>
      </trkpt>
      <trkpt lat="45.83629" lon="4.71184">
        <ele>311.17245</ele>
        <time>2023-07-07T14:06:04.317Z</time>
      </trkpt>
      <trkpt lat="45.83632" lon="4.71187">
        <ele>308.83328</ele>
        <time>2023-07-07T14:06:05.323Z</time>
      </trkpt>
      <trkpt lat="45.83633" lon="4.71195">
        <ele>308.70343</ele>
        <time>2023-07-07T14:06:06.330Z</time>
      </trkpt>
      <trkpt lat="45.83628" lon="4.71194">
        <ele>311.59909</ele>
        <time>2023-07-07T14:06:08.000Z</time>
      </trkpt>
      <trkpt lat="45.83635" lon="4.71192">
        <ele>312.7739</ele>
        <time>2023-07-07T14:06:10.000Z</time>
      </trkpt>
      <trkpt lat="45.83638" lon="4.71193">
        <ele>313.07669</ele>
        <time>2023-07-07T14:06:11.000Z</time>
      </trkpt>
      <trkpt lat="45.8364" lon="4.71195">
        <ele>313.22083</ele>
        <time>2023-07-07T14:06:12.000Z</time>
      </trkpt>
      <trkpt lat="45.83643" lon="4.71197">
        <ele>313.2666</ele>
        <time>2023-07-07T14:06:13.000Z</time>
      </trkpt>
      <trkpt lat="45.83648" lon="4.71199">
        <ele>313.20313</ele>
        <time>2023-07-07T14:06:14.000Z</time>
      </trkpt>
      <trkpt lat="45.83652" lon="4.71201">
        <ele>313.11429</ele>
        <time>2023-07-07T14:06:15.000Z</time>
      </trkpt>
      <trkpt lat="45.83655" lon="4.71201">
        <ele>313.06876</ele>
        <time>2023-07-07T14:06:16.000Z</time>
      </trkpt>
      <trkpt lat="45.83659" lon="4.71202">
        <ele>313.05045</ele>
        <time>2023-07-07T14:06:17.000Z</time>
      </trkpt>
      <trkpt lat="45.83662" lon="4.71205">
        <ele>312.96039</ele>
        <time>2023-07-07T14:06:18.000Z</time>
      </trkpt>
      <trkpt lat="45.83665" lon="4.71208">
        <ele>312.63293</ele>
        <time>2023-07-07T14:06:20.000Z</time>
      </trkpt>
      <trkpt lat="45.83668" lon="4.7121">
        <ele>312.35135</ele>
        <time>2023-07-07T14:06:23.000Z</time>
      </trkpt>
      <trkpt lat="45.83671" lon="4.71213">
        <ele>312.07767</ele>
        <time>2023-07-07T14:06:25.000Z</time>
      </trkpt>
      <trkpt lat="45.83674" lon="4.71214">
        <ele>311.82883</ele>
        <time>2023-07-07T14:06:26.000Z</time>
      </trkpt>
      <trkpt lat="45.83677" lon="4.71216">
        <ele>311.61655</ele>
        <time>2023-07-07T14:06:27.000Z</time>
      </trkpt>
      <trkpt lat="45.83679" lon="4.71218">
        <ele>311.00775</ele>
        <time>2023-07-07T14:06:28.000Z</time>
      </trkpt>
      <trkpt lat="45.83681" lon="4.71222">
        <ele>310.19946</ele>
        <time>2023-07-07T14:06:29.000Z</time>
      </trkpt>
      <trkpt lat="45.83682" lon="4.71225">
        <ele>310.99155</ele>
        <time>2023-07-07T14:06:30.000Z</time>
      </trkpt>
      <trkpt lat="45.83682" lon="4.7123">
        <ele>311.34338</ele>
        <time>2023-07-07T14:06:31.000Z</time>
      </trkpt>
      <trkpt lat="45.8368" lon="4.71234">
        <ele>311.47333</ele>
        <time>2023-07-07T14:06:32.000Z</time>
      </trkpt>
      <trkpt lat="45.83679" lon="4.71238">
        <ele>310.7175</ele>
        <time>2023-07-07T14:06:33.000Z</time>
      </trkpt>
      <trkpt lat="45.83678" lon="4.71243">
        <ele>309.94183</ele>
        <time>2023-07-07T14:06:34.000Z</time>
      </trkpt>
      <trkpt lat="45.83677" lon="4.71247">
        <ele>309.40927</ele>
        <time>2023-07-07T14:06:35.000Z</time>
      </trkpt>
      <trkpt lat="45.83676" lon="4.71252">
        <ele>308.88684</ele>
        <time>2023-07-07T14:06:36.000Z</time>
      </trkpt>
      <trkpt lat="45.83675" lon="4.71258">
        <ele>308.39114</ele>
        <time>2023-07-07T14:06:37.000Z</time>
      </trkpt>
      <trkpt lat="45.83674" lon="4.71264">
        <ele>307.9342</ele>
        <time>2023-07-07T14:06:38.000Z</time>
      </trkpt>
      <trkpt lat="45.83673" lon="4.71269">
        <ele>307.49506</ele>
        <time>2023-07-07T14:06:39.000Z</time>
      </trkpt>
      <trkpt lat="45.83671" lon="4.71273">
        <ele>307.01648</ele>
        <time>2023-07-07T14:06:40.000Z</time>
      </trkpt>
      <trkpt lat="45.8367" lon="4.71278">
        <ele>306.66165</ele>
        <time>2023-07-07T14:06:41.000Z</time>
      </trkpt>
      <trkpt lat="45.83668" lon="4.71283">
        <ele>306.15167</ele>
        <time>2023-07-07T14:06:42.000Z</time>
      </trkpt>
      <trkpt lat="45.83667" lon="4.71287">
        <ele>305.97705</ele>
        <time>2023-07-07T14:06:43.000Z</time>
      </trkpt>
      <trkpt lat="45.83665" lon="4.71293">
        <ele>305.84174</ele>
        <time>2023-07-07T14:06:44.000Z</time>
      </trkpt>
      <trkpt lat="45.83664" lon="4.71298">
        <ele>305.78519</ele>
        <time>2023-07-07T14:06:45.000Z</time>
      </trkpt>
      <trkpt lat="45.83663" lon="4.71303">
        <ele>305.73203</ele>
        <time>2023-07-07T14:06:46.000Z</time>
      </trkpt>
      <trkpt lat="45.83661" lon="4.71309">
        <ele>305.36993</ele>
        <time>2023-07-07T14:06:47.000Z</time>
      </trkpt>
      <trkpt lat="45.8366" lon="4.71315">
        <ele>305.03394</ele>
        <time>2023-07-07T14:06:48.000Z</time>
      </trkpt>
      <trkpt lat="45.83659" lon="4.7132">
        <ele>304.68488</ele>
        <time>2023-07-07T14:06:49.000Z</time>
      </trkpt>
      <trkpt lat="45.83658" lon="4.71326">
        <ele>304.36264</ele>
        <time>2023-07-07T14:06:50.000Z</time>
      </trkpt>
      <trkpt lat="45.83656" lon="4.71332">
        <ele>303.9176</ele>
        <time>2023-07-07T14:06:51.000Z</time>
      </trkpt>
      <trkpt lat="45.83655" lon="4.71337">
        <ele>303.38397</ele>
        <time>2023-07-07T14:06:52.000Z</time>
      </trkpt>
      <trkpt lat="45.83654" lon="4.71343">
        <ele>302.85382</ele>
        <time>2023-07-07T14:06:53.000Z</time>
      </trkpt>
      <trkpt lat="45.83652" lon="4.71349">
        <ele>302.66327</ele>
        <time>2023-07-07T14:06:54.000Z</time>
      </trkpt>
      <trkpt lat="45.83651" lon="4.71354">
        <ele>302.46896</ele>
        <time>2023-07-07T14:06:55.000Z</time>
      </trkpt>
      <trkpt lat="45.8365" lon="4.7136">
        <ele>302.31903</ele>
        <time>2023-07-07T14:06:56.000Z</time>
      </trkpt>
      <trkpt lat="45.83649" lon="4.71366">
        <ele>302.15375</ele>
        <time>2023-07-07T14:06:57.000Z</time>
      </trkpt>
      <trkpt lat="45.83649" lon="4.71373">
        <ele>302.02509</ele>
        <time>2023-07-07T14:06:58.000Z</time>
      </trkpt>
      <trkpt lat="45.83648" lon="4.71379">
        <ele>301.91293</ele>
        <time>2023-07-07T14:06:59.000Z</time>
      </trkpt>
      <trkpt lat="45.83647" lon="4.71385">
        <ele>301.82275</ele>
        <time>2023-07-07T14:07:00.000Z</time>
      </trkpt>
      <trkpt lat="45.83646" lon="4.7139">
        <ele>301.71063</ele>
        <time>2023-07-07T14:07:01.000Z</time>
      </trkpt>
      <trkpt lat="45.83644" lon="4.71396">
        <ele>301.79626</ele>
        <time>2023-07-07T14:07:02.000Z</time>
      </trkpt>
      <trkpt lat="45.83642" lon="4.71402">
        <ele>301.7525</ele>
        <time>2023-07-07T14:07:03.000Z</time>
      </trkpt>
      <trkpt lat="45.83641" lon="4.71408">
        <ele>301.66217</ele>
        <time>2023-07-07T14:07:04.000Z</time>
      </trkpt>
      <trkpt lat="45.8364" lon="4.71414">
        <ele>301.52878</ele>
        <time>2023-07-07T14:07:05.000Z</time>
      </trkpt>
      <trkpt lat="45.83639" lon="4.7142">
        <ele>301.40668</ele>
        <time>2023-07-07T14:07:06.000Z</time>
      </trkpt>
      <trkpt lat="45.83637" lon="4.71426">
        <ele>301.59796</ele>
        <time>2023-07-07T14:07:07.000Z</time>
      </trkpt>
      <trkpt lat="45.83635" lon="4.71432">
        <ele>301.8577</ele>
        <time>2023-07-07T14:07:08.000Z</time>
      </trkpt>
      <trkpt lat="45.83634" lon="4.71438">
        <ele>302.1586</ele>
        <time>2023-07-07T14:07:09.000Z</time>
      </trkpt>
      <trkpt lat="45.83632" lon="4.71445">
        <ele>302.19662</ele>
        <time>2023-07-07T14:07:10.000Z</time>
      </trkpt>
      <trkpt lat="45.83631" lon="4.71451">
        <ele>302.29028</ele>
        <time>2023-07-07T14:07:11.000Z</time>
      </trkpt>
      <trkpt lat="45.83629" lon="4.71457">
        <ele>302.36829</ele>
        <time>2023-07-07T14:07:12.000Z</time>
      </trkpt>
      <trkpt lat="45.83627" lon="4.71463">
        <ele>302.42941</ele>
        <time>2023-07-07T14:07:13.000Z</time>
      </trkpt>
      <trkpt lat="45.83625" lon="4.71468">
        <ele>302.48566</ele>
        <time>2023-07-07T14:07:14.000Z</time>
      </trkpt>
      <trkpt lat="45.83623" lon="4.71472">
        <ele>302.51498</ele>
        <time>2023-07-07T14:07:15.000Z</time>
      </trkpt>
      <trkpt lat="45.83619" lon="4.71477">
        <ele>302.52286</ele>
        <time>2023-07-07T14:07:16.000Z</time>
      </trkpt>
      <trkpt lat="45.83616" lon="4.7148">
        <ele>302.55783</ele>
        <time>2023-07-07T14:07:17.000Z</time>
      </trkpt>
      <trkpt lat="45.83613" lon="4.71484">
        <ele>302.70285</ele>
        <time>2023-07-07T14:07:18.000Z</time>
      </trkpt>
      <trkpt lat="45.8361" lon="4.71486">
        <ele>302.82904</ele>
        <time>2023-07-07T14:07:19.000Z</time>
      </trkpt>
      <trkpt lat="45.83609" lon="4.71488">
        <ele>302.92865</ele>
        <time>2023-07-07T14:07:20.000Z</time>
      </trkpt>
      <trkpt lat="45.83606" lon="4.7149">
        <ele>302.64822</ele>
        <time>2023-07-07T14:07:22.000Z</time>
      </trkpt>
      <trkpt lat="45.83604" lon="4.71494">
        <ele>302.42636</ele>
        <time>2023-07-07T14:07:24.000Z</time>
      </trkpt>
      <trkpt lat="45.83605" lon="4.71499">
        <ele>302.21017</ele>
        <time>2023-07-07T14:07:25.000Z</time>
      </trkpt>
      <trkpt lat="45.83607" lon="4.71503">
        <ele>301.99277</ele>
        <time>2023-07-07T14:07:26.000Z</time>
      </trkpt>
      <trkpt lat="45.83609" lon="4.71508">
        <ele>301.78564</ele>
        <time>2023-07-07T14:07:27.000Z</time>
      </trkpt>
      <trkpt lat="45.83611" lon="4.71513">
        <ele>301.56091</ele>
        <time>2023-07-07T14:07:28.000Z</time>
      </trkpt>
      <trkpt lat="45.83613" lon="4.71518">
        <ele>301.31622</ele>
        <time>2023-07-07T14:07:29.000Z</time>
      </trkpt>
      <trkpt lat="45.83615" lon="4.71523">
        <ele>300.97922</ele>
        <time>2023-07-07T14:07:30.000Z</time>
      </trkpt>
      <trkpt lat="45.83617" lon="4.71529">
        <ele>300.63943</ele>
        <time>2023-07-07T14:07:31.000Z</time>
      </trkpt>
      <trkpt lat="45.83619" lon="4.71534">
        <ele>300.56744</ele>
        <time>2023-07-07T14:07:32.000Z</time>
      </trkpt>
      <trkpt lat="45.8362" lon="4.7154">
        <ele>300.41058</ele>
        <time>2023-07-07T14:07:33.000Z</time>
      </trkpt>
      <trkpt lat="45.8362" lon="4.71545">
        <ele>300.25333</ele>
        <time>2023-07-07T14:07:34.000Z</time>
      </trkpt>
      <trkpt lat="45.8362" lon="4.7155">
        <ele>300.06598</ele>
        <time>2023-07-07T14:07:35.000Z</time>
      </trkpt>
      <trkpt lat="45.8362" lon="4.71555">
        <ele>299.87314</ele>
        <time>2023-07-07T14:07:36.000Z</time>
      </trkpt>
      <trkpt lat="45.8362" lon="4.7156">
        <ele>299.68539</ele>
        <time>2023-07-07T14:07:37.000Z</time>
      </trkpt>
      <trkpt lat="45.83619" lon="4.71565">
        <ele>299.46625</ele>
        <time>2023-07-07T14:07:38.000Z</time>
      </trkpt>
      <trkpt lat="45.83619" lon="4.7157">
        <ele>299.20102</ele>
        <time>2023-07-07T14:07:39.000Z</time>
      </trkpt>
      <trkpt lat="45.83619" lon="4.71575">
        <ele>298.83591</ele>
        <time>2023-07-07T14:07:40.000Z</time>
      </trkpt>
      <trkpt lat="45.83619" lon="4.7158">
        <ele>298.49982</ele>
        <time>2023-07-07T14:07:41.000Z</time>
      </trkpt>
      <trkpt lat="45.83619" lon="4.71584">
        <ele>298.1669</ele>
        <time>2023-07-07T14:07:42.000Z</time>
      </trkpt>
      <trkpt lat="45.83619" lon="4.71587">
        <ele>298.06952</ele>
        <time>2023-07-07T14:07:43.000Z</time>
      </trkpt>
      <trkpt lat="45.8362" lon="4.7159">
        <ele>298.086</ele>
        <time>2023-07-07T14:07:44.000Z</time>
      </trkpt>
      <trkpt lat="45.83621" lon="4.71594">
        <ele>298.17462</ele>
        <time>2023-07-07T14:07:45.000Z</time>
      </trkpt>
      <trkpt lat="45.83622" lon="4.71598">
        <ele>298.27875</ele>
        <time>2023-07-07T14:07:46.000Z</time>
      </trkpt>
      <trkpt lat="45.83623" lon="4.71604">
        <ele>297.9606</ele>
        <time>2023-07-07T14:07:47.000Z</time>
      </trkpt>
      <trkpt lat="45.83624" lon="4.7161">
        <ele>297.69522</ele>
        <time>2023-07-07T14:07:48.000Z</time>
      </trkpt>
      <trkpt lat="45.83625" lon="4.71616">
        <ele>297.40485</ele>
        <time>2023-07-07T14:07:49.000Z</time>
      </trkpt>
      <trkpt lat="45.83626" lon="4.71622">
        <ele>297.09003</ele>
        <time>2023-07-07T14:07:50.000Z</time>
      </trkpt>
      <trkpt lat="45.83627" lon="4.71628">
        <ele>296.78256</ele>
        <time>2023-07-07T14:07:51.000Z</time>
      </trkpt>
      <trkpt lat="45.83629" lon="4.71633">
        <ele>296.4635</ele>
        <time>2023-07-07T14:07:52.000Z</time>
      </trkpt>
      <trkpt lat="45.83631" lon="4.71638">
        <ele>296.13501</ele>
        <time>2023-07-07T14:07:53.000Z</time>
      </trkpt>
      <trkpt lat="45.83634" lon="4.71642">
        <ele>295.75113</ele>
        <time>2023-07-07T14:07:54.000Z</time>
      </trkpt>
      <trkpt lat="45.83637" lon="4.71646">
        <ele>295.36996</ele>
        <time>2023-07-07T14:07:55.000Z</time>
      </trkpt>
      <trkpt lat="45.8364" lon="4.71649">
        <ele>294.98395</ele>
        <time>2023-07-07T14:07:56.000Z</time>
      </trkpt>
      <trkpt lat="45.83647" lon="4.71651">
        <ele>294.57574</ele>
        <time>2023-07-07T14:07:57.000Z</time>
      </trkpt>
      <trkpt lat="45.83651" lon="4.71654">
        <ele>294.17181</ele>
        <time>2023-07-07T14:07:58.000Z</time>
      </trkpt>
      <trkpt lat="45.83655" lon="4.71656">
        <ele>293.77472</ele>
        <time>2023-07-07T14:07:59.000Z</time>
      </trkpt>
      <trkpt lat="45.83661" lon="4.71656">
        <ele>293.32504</ele>
        <time>2023-07-07T14:08:00.000Z</time>
      </trkpt>
      <trkpt lat="45.83665" lon="4.71656">
        <ele>292.85306</ele>
        <time>2023-07-07T14:08:01.000Z</time>
      </trkpt>
      <trkpt lat="45.83671" lon="4.71655">
        <ele>292.38461</ele>
        <time>2023-07-07T14:08:02.000Z</time>
      </trkpt>
      <trkpt lat="45.83677" lon="4.71654">
        <ele>291.90115</ele>
        <time>2023-07-07T14:08:03.000Z</time>
      </trkpt>
      <trkpt lat="45.83683" lon="4.71651">
        <ele>291.20294</ele>
        <time>2023-07-07T14:08:04.000Z</time>
      </trkpt>
      <trkpt lat="45.83687" lon="4.71651">
        <ele>290.69434</ele>
        <time>2023-07-07T14:08:05.000Z</time>
      </trkpt>
      <trkpt lat="45.83692" lon="4.71651">
        <ele>290.16913</ele>
        <time>2023-07-07T14:08:06.000Z</time>
      </trkpt>
      <trkpt lat="45.83696" lon="4.71654">
        <ele>290.06952</ele>
        <time>2023-07-07T14:08:07.000Z</time>
      </trkpt>
      <trkpt lat="45.837" lon="4.71658">
        <ele>289.96686</ele>
        <time>2023-07-07T14:08:08.000Z</time>
      </trkpt>
      <trkpt lat="45.83704" lon="4.71664">
        <ele>289.92096</ele>
        <time>2023-07-07T14:08:09.000Z</time>
      </trkpt>
      <trkpt lat="45.83707" lon="4.7167">
        <ele>289.96725</ele>
        <time>2023-07-07T14:08:10.000Z</time>
      </trkpt>
      <trkpt lat="45.83711" lon="4.71679">
        <ele>289.47089</ele>
        <time>2023-07-07T14:08:11.000Z</time>
      </trkpt>
      <trkpt lat="45.83715" lon="4.71687">
        <ele>289.05011</ele>
        <time>2023-07-07T14:08:12.000Z</time>
      </trkpt>
      <trkpt lat="45.83718" lon="4.71693">
        <ele>288.80127</ele>
        <time>2023-07-07T14:08:13.000Z</time>
      </trkpt>
      <trkpt lat="45.83722" lon="4.71695">
        <ele>288.63455</ele>
        <time>2023-07-07T14:08:14.000Z</time>
      </trkpt>
      <trkpt lat="45.83726" lon="4.71694">
        <ele>288.10403</ele>
        <time>2023-07-07T14:08:15.000Z</time>
      </trkpt>
      <trkpt lat="45.8373" lon="4.71693">
        <ele>287.51456</ele>
        <time>2023-07-07T14:08:16.000Z</time>
      </trkpt>
      <trkpt lat="45.83735" lon="4.71692">
        <ele>286.9426</ele>
        <time>2023-07-07T14:08:17.000Z</time>
      </trkpt>
      <trkpt lat="45.83741" lon="4.71694">
        <ele>286.33893</ele>
        <time>2023-07-07T14:08:18.000Z</time>
      </trkpt>
      <trkpt lat="45.83745" lon="4.71695">
        <ele>285.81854</ele>
        <time>2023-07-07T14:08:19.000Z</time>
      </trkpt>
      <trkpt lat="45.83748" lon="4.71697">
        <ele>285.34811</ele>
        <time>2023-07-07T14:08:20.000Z</time>
      </trkpt>
      <trkpt lat="45.83751" lon="4.71697">
        <ele>284.8316</ele>
        <time>2023-07-07T14:08:21.000Z</time>
      </trkpt>
      <trkpt lat="45.83753" lon="4.71695">
        <ele>284.3013</ele>
        <time>2023-07-07T14:08:22.000Z</time>
      </trkpt>
      <trkpt lat="45.83756" lon="4.71696">
        <ele>283.87073</ele>
        <time>2023-07-07T14:08:23.000Z</time>
      </trkpt>
      <trkpt lat="45.83759" lon="4.71695">
        <ele>283.64404</ele>
        <time>2023-07-07T14:08:24.000Z</time>
      </trkpt>
      <trkpt lat="45.83762" lon="4.71696">
        <ele>283.1832</ele>
        <time>2023-07-07T14:08:25.000Z</time>
      </trkpt>
      <trkpt lat="45.83765" lon="4.71695">
        <ele>282.78842</ele>
        <time>2023-07-07T14:08:26.000Z</time>
      </trkpt>
      <trkpt lat="45.83768" lon="4.71695">
        <ele>282.02512</ele>
        <time>2023-07-07T14:08:27.000Z</time>
      </trkpt>
      <trkpt lat="45.83772" lon="4.71697">
        <ele>281.27386</ele>
        <time>2023-07-07T14:08:28.000Z</time>
      </trkpt>
      <trkpt lat="45.83776" lon="4.71698">
        <ele>280.47864</ele>
        <time>2023-07-07T14:08:29.000Z</time>
      </trkpt>
      <trkpt lat="45.8378" lon="4.71699">
        <ele>279.66443</ele>
        <time>2023-07-07T14:08:30.000Z</time>
      </trkpt>
      <trkpt lat="45.83783" lon="4.717">
        <ele>279.43353</ele>
        <time>2023-07-07T14:08:31.000Z</time>
      </trkpt>
      <trkpt lat="45.83786" lon="4.71701">
        <ele>279.0976</ele>
        <time>2023-07-07T14:08:32.000Z</time>
      </trkpt>
      <trkpt lat="45.83789" lon="4.71702">
        <ele>278.6525</ele>
        <time>2023-07-07T14:08:33.000Z</time>
      </trkpt>
      <trkpt lat="45.83792" lon="4.71702">
        <ele>278.23773</ele>
        <time>2023-07-07T14:08:34.000Z</time>
      </trkpt>
      <trkpt lat="45.83796" lon="4.71704">
        <ele>278.09973</ele>
        <time>2023-07-07T14:08:35.000Z</time>
      </trkpt>
      <trkpt lat="45.83799" lon="4.71705">
        <ele>278.01111</ele>
        <time>2023-07-07T14:08:36.000Z</time>
      </trkpt>
      <trkpt lat="45.83803" lon="4.71706">
        <ele>278.02515</ele>
        <time>2023-07-07T14:08:37.000Z</time>
      </trkpt>
      <trkpt lat="45.83806" lon="4.71707">
        <ele>278.10532</ele>
        <time>2023-07-07T14:08:38.000Z</time>
      </trkpt>
      <trkpt lat="45.83809" lon="4.71707">
        <ele>278.17084</ele>
        <time>2023-07-07T14:08:39.000Z</time>
      </trkpt>
      <trkpt lat="45.83812" lon="4.71708">
        <ele>278.258</ele>
        <time>2023-07-07T14:08:40.000Z</time>
      </trkpt>
      <trkpt lat="45.83816" lon="4.71709">
        <ele>278.49301</ele>
        <time>2023-07-07T14:08:41.000Z</time>
      </trkpt>
      <trkpt lat="45.8382" lon="4.7171">
        <ele>278.71494</ele>
        <time>2023-07-07T14:08:42.000Z</time>
      </trkpt>
      <trkpt lat="45.83823" lon="4.71711">
        <ele>278.85458</ele>
        <time>2023-07-07T14:08:43.000Z</time>
      </trkpt>
      <trkpt lat="45.83827" lon="4.71712">
        <ele>278.79733</ele>
        <time>2023-07-07T14:08:44.000Z</time>
      </trkpt>
      <trkpt lat="45.83831" lon="4.71714">
        <ele>278.80746</ele>
        <time>2023-07-07T14:08:45.000Z</time>
      </trkpt>
      <trkpt lat="45.83835" lon="4.71716">
        <ele>278.75079</ele>
        <time>2023-07-07T14:08:46.000Z</time>
      </trkpt>
      <trkpt lat="45.83839" lon="4.71717">
        <ele>279.06317</ele>
        <time>2023-07-07T14:08:47.000Z</time>
      </trkpt>
      <trkpt lat="45.83843" lon="4.71718">
        <ele>279.362</ele>
        <time>2023-07-07T14:08:48.000Z</time>
      </trkpt>
      <trkpt lat="45.83847" lon="4.71719">
        <ele>279.37589</ele>
        <time>2023-07-07T14:08:49.000Z</time>
      </trkpt>
      <trkpt lat="45.83851" lon="4.7172">
        <ele>279.4863</ele>
        <time>2023-07-07T14:08:50.000Z</time>
      </trkpt>
      <trkpt lat="45.83853" lon="4.71721">
        <ele>279.58997</ele>
        <time>2023-07-07T14:08:51.000Z</time>
      </trkpt>
      <trkpt lat="45.83856" lon="4.71722">
        <ele>280.84973</ele>
        <time>2023-07-07T14:08:52.000Z</time>
      </trkpt>
      <trkpt lat="45.8386" lon="4.71723">
        <ele>281.32538</ele>
        <time>2023-07-07T14:08:53.000Z</time>
      </trkpt>
      <trkpt lat="45.83864" lon="4.71724">
        <ele>281.76852</ele>
        <time>2023-07-07T14:08:54.000Z</time>
      </trkpt>
      <trkpt lat="45.83868" lon="4.71726">
        <ele>282.33725</ele>
        <time>2023-07-07T14:08:55.000Z</time>
      </trkpt>
      <trkpt lat="45.83872" lon="4.71727">
        <ele>282.94901</ele>
        <time>2023-07-07T14:08:56.000Z</time>
      </trkpt>
      <trkpt lat="45.83875" lon="4.71728">
        <ele>283.4729</ele>
        <time>2023-07-07T14:08:57.000Z</time>
      </trkpt>
      <trkpt lat="45.83878" lon="4.71729">
        <ele>284.0025</ele>
        <time>2023-07-07T14:08:58.000Z</time>
      </trkpt>
      <trkpt lat="45.83881" lon="4.7173">
        <ele>284.47723</ele>
        <time>2023-07-07T14:08:59.000Z</time>
      </trkpt>
      <trkpt lat="45.83883" lon="4.71732">
        <ele>284.95599</ele>
        <time>2023-07-07T14:09:00.000Z</time>
      </trkpt>
      <trkpt lat="45.83887" lon="4.71734">
        <ele>285.36749</ele>
        <time>2023-07-07T14:09:01.000Z</time>
      </trkpt>
      <trkpt lat="45.8389" lon="4.71736">
        <ele>285.81891</ele>
        <time>2023-07-07T14:09:02.000Z</time>
      </trkpt>
      <trkpt lat="45.83893" lon="4.71738">
        <ele>286.38541</ele>
        <time>2023-07-07T14:09:03.000Z</time>
      </trkpt>
      <trkpt lat="45.83896" lon="4.71739">
        <ele>286.9382</ele>
        <time>2023-07-07T14:09:04.000Z</time>
      </trkpt>
      <trkpt lat="45.83898" lon="4.71741">
        <ele>287.26755</ele>
        <time>2023-07-07T14:09:05.000Z</time>
      </trkpt>
      <trkpt lat="45.83902" lon="4.71742">
        <ele>287.54849</ele>
        <time>2023-07-07T14:09:06.000Z</time>
      </trkpt>
      <trkpt lat="45.83905" lon="4.71744">
        <ele>287.8175</ele>
        <time>2023-07-07T14:09:07.000Z</time>
      </trkpt>
      <trkpt lat="45.83908" lon="4.71745">
        <ele>288.09857</ele>
        <time>2023-07-07T14:09:08.000Z</time>
      </trkpt>
      <trkpt lat="45.8391" lon="4.71745">
        <ele>288.63782</ele>
        <time>2023-07-07T14:09:09.000Z</time>
      </trkpt>
      <trkpt lat="45.83913" lon="4.71746">
        <ele>288.98889</ele>
        <time>2023-07-07T14:09:10.000Z</time>
      </trkpt>
      <trkpt lat="45.83916" lon="4.71747">
        <ele>289.33051</ele>
        <time>2023-07-07T14:09:11.000Z</time>
      </trkpt>
      <trkpt lat="45.83919" lon="4.71749">
        <ele>288.53625</ele>
        <time>2023-07-07T14:09:12.000Z</time>
      </trkpt>
      <trkpt lat="45.83923" lon="4.7175">
        <ele>288.36359</ele>
        <time>2023-07-07T14:09:13.000Z</time>
      </trkpt>
      <trkpt lat="45.83926" lon="4.71752">
        <ele>288.17093</ele>
        <time>2023-07-07T14:09:14.000Z</time>
      </trkpt>
      <trkpt lat="45.8393" lon="4.71754">
        <ele>288.00354</ele>
        <time>2023-07-07T14:09:15.000Z</time>
      </trkpt>
      <trkpt lat="45.83934" lon="4.71757">
        <ele>287.85205</ele>
        <time>2023-07-07T14:09:16.000Z</time>
      </trkpt>
      <trkpt lat="45.83937" lon="4.71759">
        <ele>287.70612</ele>
        <time>2023-07-07T14:09:17.000Z</time>
      </trkpt>
      <trkpt lat="45.8394" lon="4.71762">
        <ele>287.5437</ele>
        <time>2023-07-07T14:09:18.000Z</time>
      </trkpt>
      <trkpt lat="45.83943" lon="4.71765">
        <ele>287.40836</ele>
        <time>2023-07-07T14:09:19.000Z</time>
      </trkpt>
      <trkpt lat="45.83945" lon="4.71769">
        <ele>287.21582</ele>
        <time>2023-07-07T14:09:20.000Z</time>
      </trkpt>
      <trkpt lat="45.83947" lon="4.71774">
        <ele>286.98965</ele>
        <time>2023-07-07T14:09:21.000Z</time>
      </trkpt>
      <trkpt lat="45.83948" lon="4.71779">
        <ele>286.78751</ele>
        <time>2023-07-07T14:09:22.000Z</time>
      </trkpt>
      <trkpt lat="45.83949" lon="4.71783">
        <ele>286.50934</ele>
        <time>2023-07-07T14:09:23.000Z</time>
      </trkpt>
      <trkpt lat="45.8395" lon="4.71787">
        <ele>286.28751</ele>
        <time>2023-07-07T14:09:24.000Z</time>
      </trkpt>
      <trkpt lat="45.83951" lon="4.71792">
        <ele>286.19376</ele>
        <time>2023-07-07T14:09:25.000Z</time>
      </trkpt>
      <trkpt lat="45.83951" lon="4.71796">
        <ele>286.16937</ele>
        <time>2023-07-07T14:09:26.000Z</time>
      </trkpt>
      <trkpt lat="45.83952" lon="4.71801">
        <ele>286.14432</ele>
        <time>2023-07-07T14:09:27.000Z</time>
      </trkpt>
      <trkpt lat="45.83953" lon="4.71807">
        <ele>286.07208</ele>
        <time>2023-07-07T14:09:28.000Z</time>
      </trkpt>
      <trkpt lat="45.83955" lon="4.71812">
        <ele>286.04321</ele>
        <time>2023-07-07T14:09:29.000Z</time>
      </trkpt>
      <trkpt lat="45.83958" lon="4.71818">
        <ele>286.05145</ele>
        <time>2023-07-07T14:09:30.000Z</time>
      </trkpt>
      <trkpt lat="45.8396" lon="4.71823">
        <ele>286.04718</ele>
        <time>2023-07-07T14:09:31.000Z</time>
      </trkpt>
      <trkpt lat="45.83964" lon="4.71827">
        <ele>286.06363</ele>
        <time>2023-07-07T14:09:32.000Z</time>
      </trkpt>
      <trkpt lat="45.83967" lon="4.7183">
        <ele>286.21768</ele>
        <time>2023-07-07T14:09:33.000Z</time>
      </trkpt>
      <trkpt lat="45.8397" lon="4.71834">
        <ele>286.40207</ele>
        <time>2023-07-07T14:09:34.000Z</time>
      </trkpt>
      <trkpt lat="45.83973" lon="4.71838">
        <ele>286.58093</ele>
        <time>2023-07-07T14:09:35.000Z</time>
      </trkpt>
      <trkpt lat="45.83975" lon="4.71842">
        <ele>286.73755</ele>
        <time>2023-07-07T14:09:36.000Z</time>
      </trkpt>
      <trkpt lat="45.83977" lon="4.71846">
        <ele>286.8902</ele>
        <time>2023-07-07T14:09:37.000Z</time>
      </trkpt>
      <trkpt lat="45.8398" lon="4.7185">
        <ele>287.05646</ele>
        <time>2023-07-07T14:09:38.000Z</time>
      </trkpt>
      <trkpt lat="45.83983" lon="4.71854">
        <ele>287.22839</ele>
        <time>2023-07-07T14:09:39.000Z</time>
      </trkpt>
      <trkpt lat="45.83985" lon="4.71858">
        <ele>287.41263</ele>
        <time>2023-07-07T14:09:40.000Z</time>
      </trkpt>
      <trkpt lat="45.83988" lon="4.71861">
        <ele>287.59564</ele>
        <time>2023-07-07T14:09:41.000Z</time>
      </trkpt>
      <trkpt lat="45.8399" lon="4.71865">
        <ele>287.76758</ele>
        <time>2023-07-07T14:09:42.000Z</time>
      </trkpt>
      <trkpt lat="45.83993" lon="4.71868">
        <ele>287.9317</ele>
        <time>2023-07-07T14:09:43.000Z</time>
      </trkpt>
      <trkpt lat="45.83996" lon="4.71872">
        <ele>288.11908</ele>
        <time>2023-07-07T14:09:44.000Z</time>
      </trkpt>
      <trkpt lat="45.83999" lon="4.71875">
        <ele>288.29999</ele>
        <time>2023-07-07T14:09:45.000Z</time>
      </trkpt>
      <trkpt lat="45.84001" lon="4.71879">
        <ele>288.46136</ele>
        <time>2023-07-07T14:09:46.000Z</time>
      </trkpt>
      <trkpt lat="45.84003" lon="4.71883">
        <ele>288.60834</ele>
        <time>2023-07-07T14:09:47.000Z</time>
      </trkpt>
      <trkpt lat="45.84005" lon="4.71886">
        <ele>288.74164</ele>
        <time>2023-07-07T14:09:48.000Z</time>
      </trkpt>
      <trkpt lat="45.84007" lon="4.7189">
        <ele>288.86517</ele>
        <time>2023-07-07T14:09:49.000Z</time>
      </trkpt>
      <trkpt lat="45.84008" lon="4.71894">
        <ele>288.99942</ele>
        <time>2023-07-07T14:09:50.000Z</time>
      </trkpt>
      <trkpt lat="45.84009" lon="4.71898">
        <ele>289.12012</ele>
        <time>2023-07-07T14:09:51.000Z</time>
      </trkpt>
      <trkpt lat="45.8401" lon="4.71904">
        <ele>289.23285</ele>
        <time>2023-07-07T14:09:52.000Z</time>
      </trkpt>
      <trkpt lat="45.8401" lon="4.71909">
        <ele>289.33533</ele>
        <time>2023-07-07T14:09:53.000Z</time>
      </trkpt>
      <trkpt lat="45.8401" lon="4.71915">
        <ele>289.39325</ele>
        <time>2023-07-07T14:09:54.000Z</time>
      </trkpt>
      <trkpt lat="45.84009" lon="4.71923">
        <ele>289.41034</ele>
        <time>2023-07-07T14:09:55.000Z</time>
      </trkpt>
      <trkpt lat="45.84009" lon="4.7193">
        <ele>289.79959</ele>
        <time>2023-07-07T14:09:56.000Z</time>
      </trkpt>
      <trkpt lat="45.84009" lon="4.71937">
        <ele>290.18423</ele>
        <time>2023-07-07T14:09:57.000Z</time>
      </trkpt>
      <trkpt lat="45.84009" lon="4.71947">
        <ele>290.10846</ele>
        <time>2023-07-07T14:09:58.000Z</time>
      </trkpt>
      <trkpt lat="45.84009" lon="4.71956">
        <ele>290.18707</ele>
        <time>2023-07-07T14:09:59.000Z</time>
      </trkpt>
      <trkpt lat="45.8401" lon="4.71965">
        <ele>290.23959</ele>
        <time>2023-07-07T14:10:00.000Z</time>
      </trkpt>
      <trkpt lat="45.84011" lon="4.71975">
        <ele>290.29004</ele>
        <time>2023-07-07T14:10:01.000Z</time>
      </trkpt>
      <trkpt lat="45.84011" lon="4.71984">
        <ele>290.32538</ele>
        <time>2023-07-07T14:10:02.000Z</time>
      </trkpt>
      <trkpt lat="45.84012" lon="4.71994">
        <ele>290.5965</ele>
        <time>2023-07-07T14:10:03.000Z</time>
      </trkpt>
      <trkpt lat="45.84012" lon="4.72005">
        <ele>291.00967</ele>
        <time>2023-07-07T14:10:04.000Z</time>
      </trkpt>
      <trkpt lat="45.84012" lon="4.72015">
        <ele>291.39481</ele>
        <time>2023-07-07T14:10:05.000Z</time>
      </trkpt>
      <trkpt lat="45.84013" lon="4.72024">
        <ele>291.233</ele>
        <time>2023-07-07T14:10:06.000Z</time>
      </trkpt>
      <trkpt lat="45.84014" lon="4.72035">
        <ele>291.16071</ele>
        <time>2023-07-07T14:10:07.000Z</time>
      </trkpt>
      <trkpt lat="45.84015" lon="4.72045">
        <ele>291.09512</ele>
        <time>2023-07-07T14:10:08.000Z</time>
      </trkpt>
      <trkpt lat="45.84016" lon="4.72055">
        <ele>291.04816</ele>
        <time>2023-07-07T14:10:09.000Z</time>
      </trkpt>
      <trkpt lat="45.84017" lon="4.72065">
        <ele>290.99179</ele>
        <time>2023-07-07T14:10:10.000Z</time>
      </trkpt>
      <trkpt lat="45.84018" lon="4.72075">
        <ele>290.94058</ele>
        <time>2023-07-07T14:10:11.000Z</time>
      </trkpt>
      <trkpt lat="45.84019" lon="4.72083">
        <ele>290.90057</ele>
        <time>2023-07-07T14:10:12.000Z</time>
      </trkpt>
      <trkpt lat="45.8402" lon="4.72092">
        <ele>290.89362</ele>
        <time>2023-07-07T14:10:13.000Z</time>
      </trkpt>
      <trkpt lat="45.8402" lon="4.72102">
        <ele>290.89368</ele>
        <time>2023-07-07T14:10:14.000Z</time>
      </trkpt>
      <trkpt lat="45.8402" lon="4.7211">
        <ele>290.3797</ele>
        <time>2023-07-07T14:10:15.000Z</time>
      </trkpt>
      <trkpt lat="45.84021" lon="4.72118">
        <ele>289.70874</ele>
        <time>2023-07-07T14:10:16.000Z</time>
      </trkpt>
      <trkpt lat="45.84021" lon="4.72125">
        <ele>289.04514</ele>
        <time>2023-07-07T14:10:17.000Z</time>
      </trkpt>
      <trkpt lat="45.84021" lon="4.72133">
        <ele>288.51593</ele>
        <time>2023-07-07T14:10:18.000Z</time>
      </trkpt>
      <trkpt lat="45.84021" lon="4.72139">
        <ele>287.58743</ele>
        <time>2023-07-07T14:10:19.000Z</time>
      </trkpt>
      <trkpt lat="45.84022" lon="4.72146">
        <ele>286.68988</ele>
        <time>2023-07-07T14:10:20.000Z</time>
      </trkpt>
      <trkpt lat="45.84021" lon="4.72151">
        <ele>285.7789</ele>
        <time>2023-07-07T14:10:21.000Z</time>
      </trkpt>
      <trkpt lat="45.8402" lon="4.72157">
        <ele>284.86728</ele>
        <time>2023-07-07T14:10:22.000Z</time>
      </trkpt>
      <trkpt lat="45.84018" lon="4.7216">
        <ele>283.71844</ele>
        <time>2023-07-07T14:10:23.000Z</time>
      </trkpt>
      <trkpt lat="45.84015" lon="4.72163">
        <ele>282.39029</ele>
        <time>2023-07-07T14:10:24.000Z</time>
      </trkpt>
      <trkpt lat="45.84011" lon="4.72165">
        <ele>281.07062</ele>
        <time>2023-07-07T14:10:25.000Z</time>
      </trkpt>
      <trkpt lat="45.84008" lon="4.72167">
        <ele>280.28598</ele>
        <time>2023-07-07T14:10:26.000Z</time>
      </trkpt>
      <trkpt lat="45.84004" lon="4.72169">
        <ele>279.42068</ele>
        <time>2023-07-07T14:10:27.000Z</time>
      </trkpt>
      <trkpt lat="45.84" lon="4.72168">
        <ele>278.54059</ele>
        <time>2023-07-07T14:10:28.000Z</time>
      </trkpt>
      <trkpt lat="45.83996" lon="4.72167">
        <ele>277.63541</ele>
        <time>2023-07-07T14:10:29.000Z</time>
      </trkpt>
      <trkpt lat="45.83991" lon="4.72166">
        <ele>276.72723</ele>
        <time>2023-07-07T14:10:30.000Z</time>
      </trkpt>
      <trkpt lat="45.83987" lon="4.72165">
        <ele>275.82657</ele>
        <time>2023-07-07T14:10:31.000Z</time>
      </trkpt>
      <trkpt lat="45.83983" lon="4.72163">
        <ele>274.90588</ele>
        <time>2023-07-07T14:10:32.000Z</time>
      </trkpt>
      <trkpt lat="45.83979" lon="4.72162">
        <ele>274.00345</ele>
        <time>2023-07-07T14:10:33.000Z</time>
      </trkpt>
      <trkpt lat="45.83974" lon="4.72161">
        <ele>273.09418</ele>
        <time>2023-07-07T14:10:34.000Z</time>
      </trkpt>
      <trkpt lat="45.83969" lon="4.72161">
        <ele>272.75034</ele>
        <time>2023-07-07T14:10:35.000Z</time>
      </trkpt>
      <trkpt lat="45.83965" lon="4.72162">
        <ele>272.16406</ele>
        <time>2023-07-07T14:10:36.000Z</time>
      </trkpt>
      <trkpt lat="45.83961" lon="4.72161">
        <ele>271.56442</ele>
        <time>2023-07-07T14:10:37.000Z</time>
      </trkpt>
      <trkpt lat="45.83956" lon="4.7216">
        <ele>271.31058</ele>
        <time>2023-07-07T14:10:38.000Z</time>
      </trkpt>
      <trkpt lat="45.83953" lon="4.72159">
        <ele>271.27206</ele>
        <time>2023-07-07T14:10:39.000Z</time>
      </trkpt>
      <trkpt lat="45.8395" lon="4.72159">
        <ele>272.04791</ele>
        <time>2023-07-07T14:10:40.000Z</time>
      </trkpt>
      <trkpt lat="45.83947" lon="4.7216">
        <ele>272.81631</ele>
        <time>2023-07-07T14:10:41.000Z</time>
      </trkpt>
      <trkpt lat="45.83945" lon="4.72163">
        <ele>273.58185</ele>
        <time>2023-07-07T14:10:42.000Z</time>
      </trkpt>
      <trkpt lat="45.83946" lon="4.72166">
        <ele>274.33685</ele>
        <time>2023-07-07T14:10:43.000Z</time>
      </trkpt>
      <trkpt lat="45.83946" lon="4.72169">
        <ele>275.12775</ele>
        <time>2023-07-07T14:10:44.000Z</time>
      </trkpt>
      <trkpt lat="45.83947" lon="4.72171">
        <ele>275.91797</ele>
        <time>2023-07-07T14:10:45.000Z</time>
      </trkpt>
      <trkpt lat="45.83948" lon="4.72176">
        <ele>276.72461</ele>
        <time>2023-07-07T14:10:46.000Z</time>
      </trkpt>
      <trkpt lat="45.8395" lon="4.72181">
        <ele>277.52484</ele>
        <time>2023-07-07T14:10:47.000Z</time>
      </trkpt>
      <trkpt lat="45.83951" lon="4.72185">
        <ele>278.34613</ele>
        <time>2023-07-07T14:10:48.000Z</time>
      </trkpt>
      <trkpt lat="45.83953" lon="4.72189">
        <ele>279.19196</ele>
        <time>2023-07-07T14:10:49.000Z</time>
      </trkpt>
      <trkpt lat="45.83955" lon="4.72194">
        <ele>280.04077</ele>
        <time>2023-07-07T14:10:50.000Z</time>
      </trkpt>
      <trkpt lat="45.83958" lon="4.72198">
        <ele>280.91003</ele>
        <time>2023-07-07T14:10:51.000Z</time>
      </trkpt>
      <trkpt lat="45.83961" lon="4.72202">
        <ele>281.789</ele>
        <time>2023-07-07T14:10:52.000Z</time>
      </trkpt>
      <trkpt lat="45.83963" lon="4.72207">
        <ele>283.06461</ele>
        <time>2023-07-07T14:10:53.000Z</time>
      </trkpt>
      <trkpt lat="45.83965" lon="4.72211">
        <ele>283.09216</ele>
        <time>2023-07-07T14:10:54.000Z</time>
      </trkpt>
      <trkpt lat="45.83968" lon="4.72216">
        <ele>283.10519</ele>
        <time>2023-07-07T14:10:55.000Z</time>
      </trkpt>
      <trkpt lat="45.8397" lon="4.72221">
        <ele>283.13428</ele>
        <time>2023-07-07T14:10:56.000Z</time>
      </trkpt>
      <trkpt lat="45.83972" lon="4.72226">
        <ele>283.17337</ele>
        <time>2023-07-07T14:10:57.000Z</time>
      </trkpt>
      <trkpt lat="45.83974" lon="4.72231">
        <ele>283.21228</ele>
        <time>2023-07-07T14:10:58.000Z</time>
      </trkpt>
      <trkpt lat="45.83977" lon="4.72236">
        <ele>284.10876</ele>
        <time>2023-07-07T14:10:59.000Z</time>
      </trkpt>
      <trkpt lat="45.83979" lon="4.72241">
        <ele>284.18524</ele>
        <time>2023-07-07T14:11:00.000Z</time>
      </trkpt>
      <trkpt lat="45.83982" lon="4.72246">
        <ele>284.25864</ele>
        <time>2023-07-07T14:11:01.000Z</time>
      </trkpt>
      <trkpt lat="45.83985" lon="4.7225">
        <ele>284.3353</ele>
        <time>2023-07-07T14:11:02.000Z</time>
      </trkpt>
      <trkpt lat="45.83988" lon="4.72256">
        <ele>284.40445</ele>
        <time>2023-07-07T14:11:03.000Z</time>
      </trkpt>
      <trkpt lat="45.8399" lon="4.72261">
        <ele>284.461</ele>
        <time>2023-07-07T14:11:04.000Z</time>
      </trkpt>
      <trkpt lat="45.83992" lon="4.72266">
        <ele>284.78619</ele>
        <time>2023-07-07T14:11:05.000Z</time>
      </trkpt>
      <trkpt lat="45.83995" lon="4.72272">
        <ele>285.29312</ele>
        <time>2023-07-07T14:11:06.000Z</time>
      </trkpt>
      <trkpt lat="45.83997" lon="4.72276">
        <ele>285.80576</ele>
        <time>2023-07-07T14:11:07.000Z</time>
      </trkpt>
      <trkpt lat="45.84" lon="4.72281">
        <ele>285.76547</ele>
        <time>2023-07-07T14:11:08.000Z</time>
      </trkpt>
      <trkpt lat="45.84002" lon="4.72286">
        <ele>285.80402</ele>
        <time>2023-07-07T14:11:09.000Z</time>
      </trkpt>
      <trkpt lat="45.84005" lon="4.72292">
        <ele>285.83133</ele>
        <time>2023-07-07T14:11:10.000Z</time>
      </trkpt>
      <trkpt lat="45.84008" lon="4.72297">
        <ele>285.78757</ele>
        <time>2023-07-07T14:11:11.000Z</time>
      </trkpt>
      <trkpt lat="45.8401" lon="4.72301">
        <ele>285.77524</ele>
        <time>2023-07-07T14:11:12.000Z</time>
      </trkpt>
      <trkpt lat="45.84012" lon="4.72306">
        <ele>285.30475</ele>
        <time>2023-07-07T14:11:13.000Z</time>
      </trkpt>
      <trkpt lat="45.84012" lon="4.72311">
        <ele>286.07816</ele>
        <time>2023-07-07T14:11:14.000Z</time>
      </trkpt>
      <trkpt lat="45.84009" lon="4.72316">
        <ele>286.78424</ele>
        <time>2023-07-07T14:11:15.000Z</time>
      </trkpt>
      <trkpt lat="45.84006" lon="4.72321">
        <ele>287.48245</ele>
        <time>2023-07-07T14:11:16.000Z</time>
      </trkpt>
      <trkpt lat="45.84003" lon="4.72325">
        <ele>288.17801</ele>
        <time>2023-07-07T14:11:17.000Z</time>
      </trkpt>
      <trkpt lat="45.83999" lon="4.7233">
        <ele>288.8382</ele>
        <time>2023-07-07T14:11:18.000Z</time>
      </trkpt>
      <trkpt lat="45.83996" lon="4.72335">
        <ele>288.66034</ele>
        <time>2023-07-07T14:11:19.000Z</time>
      </trkpt>
      <trkpt lat="45.83992" lon="4.72339">
        <ele>288.45026</ele>
        <time>2023-07-07T14:11:20.000Z</time>
      </trkpt>
      <trkpt lat="45.83987" lon="4.72343">
        <ele>288.25348</ele>
        <time>2023-07-07T14:11:21.000Z</time>
      </trkpt>
      <trkpt lat="45.83983" lon="4.72345">
        <ele>288.00647</ele>
        <time>2023-07-07T14:11:22.000Z</time>
      </trkpt>
      <trkpt lat="45.83979" lon="4.7235">
        <ele>287.77692</ele>
        <time>2023-07-07T14:11:23.000Z</time>
      </trkpt>
      <trkpt lat="45.83974" lon="4.72354">
        <ele>287.54288</ele>
        <time>2023-07-07T14:11:24.000Z</time>
      </trkpt>
      <trkpt lat="45.83969" lon="4.72356">
        <ele>287.35077</ele>
        <time>2023-07-07T14:11:25.000Z</time>
      </trkpt>
      <trkpt lat="45.83963" lon="4.7236">
        <ele>286.95416</ele>
        <time>2023-07-07T14:11:26.000Z</time>
      </trkpt>
      <trkpt lat="45.83958" lon="4.72364">
        <ele>286.54834</ele>
        <time>2023-07-07T14:11:27.000Z</time>
      </trkpt>
      <trkpt lat="45.83953" lon="4.72369">
        <ele>286.73792</ele>
        <time>2023-07-07T14:11:28.000Z</time>
      </trkpt>
      <trkpt lat="45.83949" lon="4.72374">
        <ele>286.84921</ele>
        <time>2023-07-07T14:11:29.000Z</time>
      </trkpt>
      <trkpt lat="45.83943" lon="4.72378">
        <ele>286.96637</ele>
        <time>2023-07-07T14:11:30.000Z</time>
      </trkpt>
      <trkpt lat="45.83938" lon="4.72383">
        <ele>287.12277</ele>
        <time>2023-07-07T14:11:31.000Z</time>
      </trkpt>
      <trkpt lat="45.8393" lon="4.72386">
        <ele>287.21893</ele>
        <time>2023-07-07T14:11:32.000Z</time>
      </trkpt>
      <trkpt lat="45.83923" lon="4.7239">
        <ele>287.33212</ele>
        <time>2023-07-07T14:11:33.000Z</time>
      </trkpt>
      <trkpt lat="45.83915" lon="4.72391">
        <ele>287.45929</ele>
        <time>2023-07-07T14:11:34.000Z</time>
      </trkpt>
      <trkpt lat="45.83907" lon="4.72395">
        <ele>287.60812</ele>
        <time>2023-07-07T14:11:35.000Z</time>
      </trkpt>
      <trkpt lat="45.839" lon="4.72399">
        <ele>287.95148</ele>
        <time>2023-07-07T14:11:36.000Z</time>
      </trkpt>
      <trkpt lat="45.83892" lon="4.72404">
        <ele>288.28311</ele>
        <time>2023-07-07T14:11:37.000Z</time>
      </trkpt>
      <trkpt lat="45.83884" lon="4.72409">
        <ele>287.99796</ele>
        <time>2023-07-07T14:11:38.000Z</time>
      </trkpt>
      <trkpt lat="45.83877" lon="4.72412">
        <ele>287.85654</ele>
        <time>2023-07-07T14:11:39.000Z</time>
      </trkpt>
      <trkpt lat="45.83869" lon="4.72413">
        <ele>287.69235</ele>
        <time>2023-07-07T14:11:40.000Z</time>
      </trkpt>
      <trkpt lat="45.83861" lon="4.72418">
        <ele>287.55707</ele>
        <time>2023-07-07T14:11:41.000Z</time>
      </trkpt>
      <trkpt lat="45.83854" lon="4.72425">
        <ele>287.47968</ele>
        <time>2023-07-07T14:11:42.000Z</time>
      </trkpt>
      <trkpt lat="45.83848" lon="4.72431">
        <ele>287.36554</ele>
        <time>2023-07-07T14:11:43.000Z</time>
      </trkpt>
      <trkpt lat="45.83843" lon="4.72438">
        <ele>287.26218</ele>
        <time>2023-07-07T14:11:44.000Z</time>
      </trkpt>
      <trkpt lat="45.8384" lon="4.72446">
        <ele>287.16867</ele>
        <time>2023-07-07T14:11:45.000Z</time>
      </trkpt>
      <trkpt lat="45.83838" lon="4.72456">
        <ele>287.08884</ele>
        <time>2023-07-07T14:11:46.000Z</time>
      </trkpt>
      <trkpt lat="45.83837" lon="4.72464">
        <ele>286.97275</ele>
        <time>2023-07-07T14:11:47.000Z</time>
      </trkpt>
      <trkpt lat="45.83836" lon="4.72472">
        <ele>286.79312</ele>
        <time>2023-07-07T14:11:48.000Z</time>
      </trkpt>
      <trkpt lat="45.83837" lon="4.72481">
        <ele>286.78195</ele>
        <time>2023-07-07T14:11:49.000Z</time>
      </trkpt>
      <trkpt lat="45.83837" lon="4.72488">
        <ele>286.789</ele>
        <time>2023-07-07T14:11:50.000Z</time>
      </trkpt>
      <trkpt lat="45.83838" lon="4.72498">
        <ele>286.12384</ele>
        <time>2023-07-07T14:11:51.000Z</time>
      </trkpt>
      <trkpt lat="45.8384" lon="4.72506">
        <ele>285.59186</ele>
        <time>2023-07-07T14:11:52.000Z</time>
      </trkpt>
      <trkpt lat="45.83841" lon="4.72514">
        <ele>284.57208</ele>
        <time>2023-07-07T14:11:53.000Z</time>
      </trkpt>
      <trkpt lat="45.83841" lon="4.72524">
        <ele>283.54126</ele>
        <time>2023-07-07T14:11:54.000Z</time>
      </trkpt>
      <trkpt lat="45.83841" lon="4.72532">
        <ele>282.53174</ele>
        <time>2023-07-07T14:11:55.000Z</time>
      </trkpt>
      <trkpt lat="45.83839" lon="4.72539">
        <ele>281.29071</ele>
        <time>2023-07-07T14:11:56.000Z</time>
      </trkpt>
      <trkpt lat="45.83838" lon="4.72545">
        <ele>280.07175</ele>
        <time>2023-07-07T14:11:57.000Z</time>
      </trkpt>
      <trkpt lat="45.83838" lon="4.72552">
        <ele>279.44815</ele>
        <time>2023-07-07T14:11:58.000Z</time>
      </trkpt>
      <trkpt lat="45.83837" lon="4.7256">
        <ele>278.68185</ele>
        <time>2023-07-07T14:11:59.000Z</time>
      </trkpt>
      <trkpt lat="45.83835" lon="4.72567">
        <ele>277.89764</ele>
        <time>2023-07-07T14:12:00.000Z</time>
      </trkpt>
      <trkpt lat="45.83833" lon="4.72574">
        <ele>277.07825</ele>
        <time>2023-07-07T14:12:01.000Z</time>
      </trkpt>
      <trkpt lat="45.83831" lon="4.72582">
        <ele>276.4379</ele>
        <time>2023-07-07T14:12:02.000Z</time>
      </trkpt>
      <trkpt lat="45.83829" lon="4.72588">
        <ele>275.85016</ele>
        <time>2023-07-07T14:12:03.000Z</time>
      </trkpt>
      <trkpt lat="45.83827" lon="4.72592">
        <ele>275.29205</ele>
        <time>2023-07-07T14:12:04.000Z</time>
      </trkpt>
      <trkpt lat="45.83825" lon="4.72597">
        <ele>274.63974</ele>
        <time>2023-07-07T14:12:05.000Z</time>
      </trkpt>
      <trkpt lat="45.83822" lon="4.72603">
        <ele>273.55438</ele>
        <time>2023-07-07T14:12:06.000Z</time>
      </trkpt>
      <trkpt lat="45.83818" lon="4.72606">
        <ele>272.72351</ele>
        <time>2023-07-07T14:12:07.000Z</time>
      </trkpt>
      <trkpt lat="45.83814" lon="4.7261">
        <ele>271.92871</ele>
        <time>2023-07-07T14:12:08.000Z</time>
      </trkpt>
      <trkpt lat="45.83809" lon="4.72612">
        <ele>270.73032</ele>
        <time>2023-07-07T14:12:09.000Z</time>
      </trkpt>
      <trkpt lat="45.83806" lon="4.72615">
        <ele>269.4682</ele>
        <time>2023-07-07T14:12:10.000Z</time>
      </trkpt>
      <trkpt lat="45.83802" lon="4.72617">
        <ele>268.86774</ele>
        <time>2023-07-07T14:12:11.000Z</time>
      </trkpt>
      <trkpt lat="45.83797" lon="4.72618">
        <ele>268.24063</ele>
        <time>2023-07-07T14:12:12.000Z</time>
      </trkpt>
      <trkpt lat="45.83794" lon="4.72616">
        <ele>268.12347</ele>
        <time>2023-07-07T14:12:13.000Z</time>
      </trkpt>
      <trkpt lat="45.8379" lon="4.72619">
        <ele>268.00009</ele>
        <time>2023-07-07T14:12:14.000Z</time>
      </trkpt>
      <trkpt lat="45.83785" lon="4.7262">
        <ele>267.87616</ele>
        <time>2023-07-07T14:12:15.000Z</time>
      </trkpt>
      <trkpt lat="45.83782" lon="4.72622">
        <ele>267.81744</ele>
        <time>2023-07-07T14:12:16.000Z</time>
      </trkpt>
      <trkpt lat="45.83778" lon="4.72622">
        <ele>267.79303</ele>
        <time>2023-07-07T14:12:17.000Z</time>
      </trkpt>
      <trkpt lat="45.83773" lon="4.72623">
        <ele>267.92236</ele>
        <time>2023-07-07T14:12:18.000Z</time>
      </trkpt>
      <trkpt lat="45.83769" lon="4.72625">
        <ele>268.03064</ele>
        <time>2023-07-07T14:12:19.000Z</time>
      </trkpt>
      <trkpt lat="45.83764" lon="4.72626">
        <ele>268.23059</ele>
        <time>2023-07-07T14:12:20.000Z</time>
      </trkpt>
      <trkpt lat="45.8376" lon="4.72628">
        <ele>268.54147</ele>
        <time>2023-07-07T14:12:21.000Z</time>
      </trkpt>
      <trkpt lat="45.83756" lon="4.72629">
        <ele>268.68094</ele>
        <time>2023-07-07T14:12:22.000Z</time>
      </trkpt>
      <trkpt lat="45.83752" lon="4.72631">
        <ele>268.80057</ele>
        <time>2023-07-07T14:12:23.000Z</time>
      </trkpt>
      <trkpt lat="45.83745" lon="4.72633">
        <ele>268.96228</ele>
        <time>2023-07-07T14:12:24.000Z</time>
      </trkpt>
      <trkpt lat="45.83741" lon="4.72634">
        <ele>268.87418</ele>
        <time>2023-07-07T14:12:25.000Z</time>
      </trkpt>
      <trkpt lat="45.83737" lon="4.72635">
        <ele>269.36539</ele>
        <time>2023-07-07T14:12:26.000Z</time>
      </trkpt>
      <trkpt lat="45.83733" lon="4.72638">
        <ele>269.69965</ele>
        <time>2023-07-07T14:12:27.000Z</time>
      </trkpt>
      <trkpt lat="45.83729" lon="4.72641">
        <ele>269.59497</ele>
        <time>2023-07-07T14:12:28.000Z</time>
      </trkpt>
      <trkpt lat="45.83725" lon="4.72642">
        <ele>269.8645</ele>
        <time>2023-07-07T14:12:29.000Z</time>
      </trkpt>
      <trkpt lat="45.83722" lon="4.72644">
        <ele>270.13965</ele>
        <time>2023-07-07T14:12:30.000Z</time>
      </trkpt>
      <trkpt lat="45.83719" lon="4.72646">
        <ele>270.47745</ele>
        <time>2023-07-07T14:12:31.000Z</time>
      </trkpt>
      <trkpt lat="45.83716" lon="4.72649">
        <ele>270.73581</ele>
        <time>2023-07-07T14:12:32.000Z</time>
      </trkpt>
      <trkpt lat="45.83712" lon="4.72649">
        <ele>270.94061</ele>
        <time>2023-07-07T14:12:33.000Z</time>
      </trkpt>
      <trkpt lat="45.83708" lon="4.7265">
        <ele>271.18417</ele>
        <time>2023-07-07T14:12:34.000Z</time>
      </trkpt>
      <trkpt lat="45.83705" lon="4.72651">
        <ele>271.46085</ele>
        <time>2023-07-07T14:12:35.000Z</time>
      </trkpt>
      <trkpt lat="45.83701" lon="4.72653">
        <ele>271.67819</ele>
        <time>2023-07-07T14:12:36.000Z</time>
      </trkpt>
      <trkpt lat="45.83697" lon="4.72654">
        <ele>271.7684</ele>
        <time>2023-07-07T14:12:37.000Z</time>
      </trkpt>
      <trkpt lat="45.83694" lon="4.72655">
        <ele>271.776</ele>
        <time>2023-07-07T14:12:38.000Z</time>
      </trkpt>
      <trkpt lat="45.83691" lon="4.72656">
        <ele>271.83661</ele>
        <time>2023-07-07T14:12:39.000Z</time>
      </trkpt>
      <trkpt lat="45.83687" lon="4.72657">
        <ele>271.82336</ele>
        <time>2023-07-07T14:12:40.000Z</time>
      </trkpt>
      <trkpt lat="45.83683" lon="4.72658">
        <ele>271.72559</ele>
        <time>2023-07-07T14:12:41.000Z</time>
      </trkpt>
      <trkpt lat="45.8368" lon="4.72658">
        <ele>271.73724</ele>
        <time>2023-07-07T14:12:42.000Z</time>
      </trkpt>
      <trkpt lat="45.83676" lon="4.72659">
        <ele>271.7728</ele>
        <time>2023-07-07T14:12:43.000Z</time>
      </trkpt>
      <trkpt lat="45.83673" lon="4.7266">
        <ele>271.74057</ele>
        <time>2023-07-07T14:12:44.000Z</time>
      </trkpt>
      <trkpt lat="45.8367" lon="4.72662">
        <ele>271.90231</ele>
        <time>2023-07-07T14:12:45.000Z</time>
      </trkpt>
      <trkpt lat="45.83666" lon="4.72663">
        <ele>271.59512</ele>
        <time>2023-07-07T14:12:46.000Z</time>
      </trkpt>
      <trkpt lat="45.83663" lon="4.72665">
        <ele>271.27536</ele>
        <time>2023-07-07T14:12:47.000Z</time>
      </trkpt>
      <trkpt lat="45.8366" lon="4.72666">
        <ele>271.3786</ele>
        <time>2023-07-07T14:12:48.000Z</time>
      </trkpt>
      <trkpt lat="45.83657" lon="4.72667">
        <ele>271.67932</ele>
        <time>2023-07-07T14:12:49.000Z</time>
      </trkpt>
      <trkpt lat="45.83654" lon="4.72669">
        <ele>272.03363</ele>
        <time>2023-07-07T14:12:50.000Z</time>
      </trkpt>
      <trkpt lat="45.83651" lon="4.7267">
        <ele>272.36429</ele>
        <time>2023-07-07T14:12:51.000Z</time>
      </trkpt>
      <trkpt lat="45.83649" lon="4.72672">
        <ele>272.7294</ele>
        <time>2023-07-07T14:12:52.000Z</time>
      </trkpt>
      <trkpt lat="45.83646" lon="4.72673">
        <ele>273.16025</ele>
        <time>2023-07-07T14:12:53.000Z</time>
      </trkpt>
      <trkpt lat="45.83643" lon="4.72674">
        <ele>273.7395</ele>
        <time>2023-07-07T14:12:54.000Z</time>
      </trkpt>
      <trkpt lat="45.8364" lon="4.72676">
        <ele>274.22519</ele>
        <time>2023-07-07T14:12:55.000Z</time>
      </trkpt>
      <trkpt lat="45.83637" lon="4.72678">
        <ele>274.71069</ele>
        <time>2023-07-07T14:12:56.000Z</time>
      </trkpt>
      <trkpt lat="45.83634" lon="4.72681">
        <ele>275.24307</ele>
        <time>2023-07-07T14:12:57.000Z</time>
      </trkpt>
      <trkpt lat="45.83631" lon="4.72684">
        <ele>275.8439</ele>
        <time>2023-07-07T14:12:58.000Z</time>
      </trkpt>
      <trkpt lat="45.83628" lon="4.72687">
        <ele>276.80508</ele>
        <time>2023-07-07T14:12:59.000Z</time>
      </trkpt>
      <trkpt lat="45.83626" lon="4.7269">
        <ele>278.13278</ele>
        <time>2023-07-07T14:13:00.000Z</time>
      </trkpt>
      <trkpt lat="45.83623" lon="4.72693">
        <ele>278.79065</ele>
        <time>2023-07-07T14:13:01.000Z</time>
      </trkpt>
      <trkpt lat="45.83621" lon="4.72696">
        <ele>279.51935</ele>
        <time>2023-07-07T14:13:02.000Z</time>
      </trkpt>
      <trkpt lat="45.83618" lon="4.72699">
        <ele>280.16357</ele>
        <time>2023-07-07T14:13:03.000Z</time>
      </trkpt>
      <trkpt lat="45.83616" lon="4.72701">
        <ele>280.0267</ele>
        <time>2023-07-07T14:13:04.000Z</time>
      </trkpt>
      <trkpt lat="45.83613" lon="4.72703">
        <ele>279.73856</ele>
        <time>2023-07-07T14:13:05.000Z</time>
      </trkpt>
      <trkpt lat="45.83609" lon="4.72705">
        <ele>279.82489</ele>
        <time>2023-07-07T14:13:06.000Z</time>
      </trkpt>
      <trkpt lat="45.83607" lon="4.72706">
        <ele>279.8743</ele>
        <time>2023-07-07T14:13:07.000Z</time>
      </trkpt>
      <trkpt lat="45.83604" lon="4.72707">
        <ele>279.89755</ele>
        <time>2023-07-07T14:13:08.000Z</time>
      </trkpt>
      <trkpt lat="45.83601" lon="4.72709">
        <ele>279.57092</ele>
        <time>2023-07-07T14:13:09.000Z</time>
      </trkpt>
      <trkpt lat="45.83599" lon="4.72711">
        <ele>279.24133</ele>
        <time>2023-07-07T14:13:10.000Z</time>
      </trkpt>
      <trkpt lat="45.83598" lon="4.72714">
        <ele>278.89157</ele>
        <time>2023-07-07T14:13:11.000Z</time>
      </trkpt>
      <trkpt lat="45.83596" lon="4.72716">
        <ele>278.60114</ele>
        <time>2023-07-07T14:13:12.000Z</time>
      </trkpt>
      <trkpt lat="45.83594" lon="4.72718">
        <ele>278.93356</ele>
        <time>2023-07-07T14:13:13.000Z</time>
      </trkpt>
      <trkpt lat="45.83591" lon="4.72719">
        <ele>279.07367</ele>
        <time>2023-07-07T14:13:14.000Z</time>
      </trkpt>
      <trkpt lat="45.83588" lon="4.72722">
        <ele>279.21686</ele>
        <time>2023-07-07T14:13:15.000Z</time>
      </trkpt>
      <trkpt lat="45.83585" lon="4.72725">
        <ele>279.31958</ele>
        <time>2023-07-07T14:13:16.000Z</time>
      </trkpt>
      <trkpt lat="45.83583" lon="4.72727">
        <ele>279.57172</ele>
        <time>2023-07-07T14:13:17.000Z</time>
      </trkpt>
      <trkpt lat="45.8358" lon="4.7273">
        <ele>279.67218</ele>
        <time>2023-07-07T14:13:18.000Z</time>
      </trkpt>
      <trkpt lat="45.83577" lon="4.72732">
        <ele>279.3627</ele>
        <time>2023-07-07T14:13:19.000Z</time>
      </trkpt>
      <trkpt lat="45.83573" lon="4.72734">
        <ele>278.70334</ele>
        <time>2023-07-07T14:13:20.000Z</time>
      </trkpt>
      <trkpt lat="45.83569" lon="4.72736">
        <ele>278.67584</ele>
        <time>2023-07-07T14:13:21.000Z</time>
      </trkpt>
      <trkpt lat="45.83565" lon="4.72737">
        <ele>278.55423</ele>
        <time>2023-07-07T14:13:22.000Z</time>
      </trkpt>
      <trkpt lat="45.83561" lon="4.72738">
        <ele>278.70355</ele>
        <time>2023-07-07T14:13:23.000Z</time>
      </trkpt>
      <trkpt lat="45.83557" lon="4.72739">
        <ele>279.53201</ele>
        <time>2023-07-07T14:13:24.000Z</time>
      </trkpt>
      <trkpt lat="45.83553" lon="4.72741">
        <ele>280.50806</ele>
        <time>2023-07-07T14:13:25.000Z</time>
      </trkpt>
      <trkpt lat="45.8355" lon="4.72742">
        <ele>280.98373</ele>
        <time>2023-07-07T14:13:26.000Z</time>
      </trkpt>
      <trkpt lat="45.83547" lon="4.72743">
        <ele>281.52844</ele>
        <time>2023-07-07T14:13:27.000Z</time>
      </trkpt>
      <trkpt lat="45.83543" lon="4.72744">
        <ele>282.09616</ele>
        <time>2023-07-07T14:13:28.000Z</time>
      </trkpt>
      <trkpt lat="45.83539" lon="4.72745">
        <ele>282.4429</ele>
        <time>2023-07-07T14:13:29.000Z</time>
      </trkpt>
      <trkpt lat="45.83535" lon="4.72746">
        <ele>282.86591</ele>
        <time>2023-07-07T14:13:30.000Z</time>
      </trkpt>
      <trkpt lat="45.83532" lon="4.72747">
        <ele>283.20233</ele>
        <time>2023-07-07T14:13:31.000Z</time>
      </trkpt>
      <trkpt lat="45.83528" lon="4.72748">
        <ele>283.45218</ele>
        <time>2023-07-07T14:13:32.000Z</time>
      </trkpt>
      <trkpt lat="45.83525" lon="4.72749">
        <ele>283.02435</ele>
        <time>2023-07-07T14:13:33.000Z</time>
      </trkpt>
      <trkpt lat="45.83521" lon="4.7275">
        <ele>282.63531</ele>
        <time>2023-07-07T14:13:34.000Z</time>
      </trkpt>
      <trkpt lat="45.83518" lon="4.72751">
        <ele>282.3558</ele>
        <time>2023-07-07T14:13:35.000Z</time>
      </trkpt>
      <trkpt lat="45.83514" lon="4.72752">
        <ele>282.11993</ele>
        <time>2023-07-07T14:13:36.000Z</time>
      </trkpt>
      <trkpt lat="45.8351" lon="4.72753">
        <ele>281.77499</ele>
        <time>2023-07-07T14:13:37.000Z</time>
      </trkpt>
      <trkpt lat="45.83507" lon="4.72755">
        <ele>281.43958</ele>
        <time>2023-07-07T14:13:38.000Z</time>
      </trkpt>
      <trkpt lat="45.83503" lon="4.72757">
        <ele>281.36517</ele>
        <time>2023-07-07T14:13:39.000Z</time>
      </trkpt>
      <trkpt lat="45.83499" lon="4.72758">
        <ele>281.15674</ele>
        <time>2023-07-07T14:13:40.000Z</time>
      </trkpt>
      <trkpt lat="45.83495" lon="4.72759">
        <ele>280.97549</ele>
        <time>2023-07-07T14:13:41.000Z</time>
      </trkpt>
      <trkpt lat="45.83491" lon="4.72761">
        <ele>280.66956</ele>
        <time>2023-07-07T14:13:42.000Z</time>
      </trkpt>
      <trkpt lat="45.83488" lon="4.72762">
        <ele>280.17963</ele>
        <time>2023-07-07T14:13:43.000Z</time>
      </trkpt>
      <trkpt lat="45.83484" lon="4.72764">
        <ele>279.74347</ele>
        <time>2023-07-07T14:13:44.000Z</time>
      </trkpt>
      <trkpt lat="45.8348" lon="4.72765">
        <ele>279.18469</ele>
        <time>2023-07-07T14:13:45.000Z</time>
      </trkpt>
      <trkpt lat="45.83476" lon="4.72765">
        <ele>279.13751</ele>
        <time>2023-07-07T14:13:46.000Z</time>
      </trkpt>
      <trkpt lat="45.83472" lon="4.72766">
        <ele>279.00616</ele>
        <time>2023-07-07T14:13:47.000Z</time>
      </trkpt>
      <trkpt lat="45.83469" lon="4.72767">
        <ele>278.88141</ele>
        <time>2023-07-07T14:13:48.000Z</time>
      </trkpt>
      <trkpt lat="45.83465" lon="4.72768">
        <ele>279.01489</ele>
        <time>2023-07-07T14:13:49.000Z</time>
      </trkpt>
      <trkpt lat="45.8346" lon="4.7277">
        <ele>279.06406</ele>
        <time>2023-07-07T14:13:50.000Z</time>
      </trkpt>
      <trkpt lat="45.83456" lon="4.72771">
        <ele>279.23358</ele>
        <time>2023-07-07T14:13:51.000Z</time>
      </trkpt>
      <trkpt lat="45.83452" lon="4.72772">
        <ele>279.3866</ele>
        <time>2023-07-07T14:13:52.000Z</time>
      </trkpt>
      <trkpt lat="45.83448" lon="4.72774">
        <ele>279.61752</ele>
        <time>2023-07-07T14:13:53.000Z</time>
      </trkpt>
      <trkpt lat="45.83443" lon="4.72775">
        <ele>279.88281</ele>
        <time>2023-07-07T14:13:54.000Z</time>
      </trkpt>
      <trkpt lat="45.8344" lon="4.72778">
        <ele>280.12479</ele>
        <time>2023-07-07T14:13:55.000Z</time>
      </trkpt>
      <trkpt lat="45.83437" lon="4.72781">
        <ele>280.48456</ele>
        <time>2023-07-07T14:13:56.000Z</time>
      </trkpt>
      <trkpt lat="45.83434" lon="4.72785">
        <ele>280.87076</ele>
        <time>2023-07-07T14:13:57.000Z</time>
      </trkpt>
      <trkpt lat="45.83433" lon="4.7279">
        <ele>281.35565</ele>
        <time>2023-07-07T14:13:58.000Z</time>
      </trkpt>
      <trkpt lat="45.83433" lon="4.72795">
        <ele>281.60449</ele>
        <time>2023-07-07T14:13:59.000Z</time>
      </trkpt>
      <trkpt lat="45.83434" lon="4.72802">
        <ele>282.03467</ele>
        <time>2023-07-07T14:14:00.000Z</time>
      </trkpt>
      <trkpt lat="45.83434" lon="4.72809">
        <ele>282.44775</ele>
        <time>2023-07-07T14:14:01.000Z</time>
      </trkpt>
      <trkpt lat="45.83435" lon="4.72815">
        <ele>282.93585</ele>
        <time>2023-07-07T14:14:02.000Z</time>
      </trkpt>
      <trkpt lat="45.83435" lon="4.7282">
        <ele>283.36365</ele>
        <time>2023-07-07T14:14:03.000Z</time>
      </trkpt>
      <trkpt lat="45.83435" lon="4.72824">
        <ele>283.83136</ele>
        <time>2023-07-07T14:14:04.000Z</time>
      </trkpt>
      <trkpt lat="45.83435" lon="4.72829">
        <ele>284.20444</ele>
        <time>2023-07-07T14:14:05.000Z</time>
      </trkpt>
      <trkpt lat="45.83434" lon="4.72834">
        <ele>284.47083</ele>
        <time>2023-07-07T14:14:06.000Z</time>
      </trkpt>
      <trkpt lat="45.83432" lon="4.72839">
        <ele>284.81412</ele>
        <time>2023-07-07T14:14:07.000Z</time>
      </trkpt>
      <trkpt lat="45.83429" lon="4.72844">
        <ele>285.17535</ele>
        <time>2023-07-07T14:14:08.000Z</time>
      </trkpt>
      <trkpt lat="45.83428" lon="4.72849">
        <ele>285.52554</ele>
        <time>2023-07-07T14:14:09.000Z</time>
      </trkpt>
      <trkpt lat="45.83426" lon="4.72853">
        <ele>285.93164</ele>
        <time>2023-07-07T14:14:10.000Z</time>
      </trkpt>
      <trkpt lat="45.83423" lon="4.72856">
        <ele>286.31909</ele>
        <time>2023-07-07T14:14:11.000Z</time>
      </trkpt>
      <trkpt lat="45.83421" lon="4.72859">
        <ele>286.68622</ele>
        <time>2023-07-07T14:14:12.000Z</time>
      </trkpt>
      <trkpt lat="45.83418" lon="4.72862">
        <ele>287.15979</ele>
        <time>2023-07-07T14:14:13.000Z</time>
      </trkpt>
      <trkpt lat="45.83415" lon="4.72865">
        <ele>287.64694</ele>
        <time>2023-07-07T14:14:14.000Z</time>
      </trkpt>
      <trkpt lat="45.83412" lon="4.72867">
        <ele>288.10785</ele>
        <time>2023-07-07T14:14:15.000Z</time>
      </trkpt>
      <trkpt lat="45.83408" lon="4.72868">
        <ele>288.06638</ele>
        <time>2023-07-07T14:14:16.000Z</time>
      </trkpt>
      <trkpt lat="45.83405" lon="4.7287">
        <ele>288.1322</ele>
        <time>2023-07-07T14:14:17.000Z</time>
      </trkpt>
      <trkpt lat="45.83402" lon="4.72872">
        <ele>288.17331</ele>
        <time>2023-07-07T14:14:18.000Z</time>
      </trkpt>
      <trkpt lat="45.83398" lon="4.72874">
        <ele>288.28726</ele>
        <time>2023-07-07T14:14:19.000Z</time>
      </trkpt>
      <trkpt lat="45.83395" lon="4.72875">
        <ele>288.36163</ele>
        <time>2023-07-07T14:14:20.000Z</time>
      </trkpt>
      <trkpt lat="45.83392" lon="4.72876">
        <ele>288.64899</ele>
        <time>2023-07-07T14:14:21.000Z</time>
      </trkpt>
      <trkpt lat="45.83388" lon="4.72876">
        <ele>289.12778</ele>
        <time>2023-07-07T14:14:22.000Z</time>
      </trkpt>
      <trkpt lat="45.83384" lon="4.72875">
        <ele>289.25641</ele>
        <time>2023-07-07T14:14:23.000Z</time>
      </trkpt>
      <trkpt lat="45.8338" lon="4.72874">
        <ele>289.51389</ele>
        <time>2023-07-07T14:14:24.000Z</time>
      </trkpt>
      <trkpt lat="45.83376" lon="4.72873">
        <ele>289.7977</ele>
        <time>2023-07-07T14:14:25.000Z</time>
      </trkpt>
      <trkpt lat="45.83372" lon="4.72872">
        <ele>290.55713</ele>
        <time>2023-07-07T14:14:26.000Z</time>
      </trkpt>
      <trkpt lat="45.83369" lon="4.72872">
        <ele>290.76822</ele>
        <time>2023-07-07T14:14:27.000Z</time>
      </trkpt>
      <trkpt lat="45.83366" lon="4.72873">
        <ele>290.99478</ele>
        <time>2023-07-07T14:14:28.000Z</time>
      </trkpt>
      <trkpt lat="45.83363" lon="4.72874">
        <ele>291.17908</ele>
        <time>2023-07-07T14:14:29.000Z</time>
      </trkpt>
      <trkpt lat="45.8336" lon="4.72874">
        <ele>291.32895</ele>
        <time>2023-07-07T14:14:30.000Z</time>
      </trkpt>
      <trkpt lat="45.83356" lon="4.72874">
        <ele>291.42981</ele>
        <time>2023-07-07T14:14:31.000Z</time>
      </trkpt>
      <trkpt lat="45.83352" lon="4.72874">
        <ele>291.49072</ele>
        <time>2023-07-07T14:14:32.000Z</time>
      </trkpt>
      <trkpt lat="45.83348" lon="4.72874">
        <ele>291.34756</ele>
        <time>2023-07-07T14:14:33.000Z</time>
      </trkpt>
      <trkpt lat="45.83344" lon="4.72874">
        <ele>291.24188</ele>
        <time>2023-07-07T14:14:34.000Z</time>
      </trkpt>
      <trkpt lat="45.8334" lon="4.72874">
        <ele>291.00287</ele>
        <time>2023-07-07T14:14:35.000Z</time>
      </trkpt>
      <trkpt lat="45.83337" lon="4.72874">
        <ele>291.24805</ele>
        <time>2023-07-07T14:14:36.000Z</time>
      </trkpt>
      <trkpt lat="45.83333" lon="4.72874">
        <ele>291.33978</ele>
        <time>2023-07-07T14:14:37.000Z</time>
      </trkpt>
      <trkpt lat="45.83331" lon="4.72874">
        <ele>291.34952</ele>
        <time>2023-07-07T14:14:38.000Z</time>
      </trkpt>
      <trkpt lat="45.83328" lon="4.72873">
        <ele>291.28241</ele>
        <time>2023-07-07T14:14:39.000Z</time>
      </trkpt>
      <trkpt lat="45.83326" lon="4.72873">
        <ele>291.26871</ele>
        <time>2023-07-07T14:14:40.000Z</time>
      </trkpt>
      <trkpt lat="45.83323" lon="4.72874">
        <ele>291.22012</ele>
        <time>2023-07-07T14:14:41.000Z</time>
      </trkpt>
      <trkpt lat="45.8332" lon="4.72875">
        <ele>290.96344</ele>
        <time>2023-07-07T14:14:42.000Z</time>
      </trkpt>
      <trkpt lat="45.83318" lon="4.72876">
        <ele>291.07687</ele>
        <time>2023-07-07T14:14:43.000Z</time>
      </trkpt>
      <trkpt lat="45.83316" lon="4.72877">
        <ele>290.66718</ele>
        <time>2023-07-07T14:14:44.000Z</time>
      </trkpt>
      <trkpt lat="45.83314" lon="4.72878">
        <ele>290.3197</ele>
        <time>2023-07-07T14:14:45.000Z</time>
      </trkpt>
      <trkpt lat="45.83312" lon="4.72879">
        <ele>289.57901</ele>
        <time>2023-07-07T14:14:46.000Z</time>
      </trkpt>
      <trkpt lat="45.8331" lon="4.72881">
        <ele>289.31149</ele>
        <time>2023-07-07T14:14:47.000Z</time>
      </trkpt>
      <trkpt lat="45.83307" lon="4.72882">
        <ele>288.98151</ele>
        <time>2023-07-07T14:14:48.000Z</time>
      </trkpt>
      <trkpt lat="45.83305" lon="4.72884">
        <ele>288.67917</ele>
        <time>2023-07-07T14:14:49.000Z</time>
      </trkpt>
      <trkpt lat="45.83304" lon="4.72886">
        <ele>288.47891</ele>
        <time>2023-07-07T14:14:50.000Z</time>
      </trkpt>
      <trkpt lat="45.83302" lon="4.72889">
        <ele>288.32272</ele>
        <time>2023-07-07T14:14:51.000Z</time>
      </trkpt>
      <trkpt lat="45.83301" lon="4.72892">
        <ele>288.57367</ele>
        <time>2023-07-07T14:14:52.000Z</time>
      </trkpt>
      <trkpt lat="45.83299" lon="4.72895">
        <ele>288.60031</ele>
        <time>2023-07-07T14:14:53.000Z</time>
      </trkpt>
      <trkpt lat="45.83298" lon="4.72898">
        <ele>288.56702</ele>
        <time>2023-07-07T14:14:54.000Z</time>
      </trkpt>
      <trkpt lat="45.83297" lon="4.72902">
        <ele>288.63388</ele>
        <time>2023-07-07T14:14:55.000Z</time>
      </trkpt>
      <trkpt lat="45.83296" lon="4.72906">
        <ele>288.63242</ele>
        <time>2023-07-07T14:14:56.000Z</time>
      </trkpt>
      <trkpt lat="45.83295" lon="4.7291">
        <ele>288.69586</ele>
        <time>2023-07-07T14:14:57.000Z</time>
      </trkpt>
      <trkpt lat="45.83294" lon="4.72913">
        <ele>288.82404</ele>
        <time>2023-07-07T14:14:58.000Z</time>
      </trkpt>
      <trkpt lat="45.83293" lon="4.72916">
        <ele>288.99628</ele>
        <time>2023-07-07T14:14:59.000Z</time>
      </trkpt>
      <trkpt lat="45.83291" lon="4.7292">
        <ele>289.1579</ele>
        <time>2023-07-07T14:15:00.000Z</time>
      </trkpt>
      <trkpt lat="45.8329" lon="4.72923">
        <ele>289.15933</ele>
        <time>2023-07-07T14:15:01.000Z</time>
      </trkpt>
      <trkpt lat="45.83289" lon="4.72926">
        <ele>289.15042</ele>
        <time>2023-07-07T14:15:02.000Z</time>
      </trkpt>
      <trkpt lat="45.83288" lon="4.72929">
        <ele>289.19574</ele>
        <time>2023-07-07T14:15:03.000Z</time>
      </trkpt>
      <trkpt lat="45.83286" lon="4.72933">
        <ele>289.63589</ele>
        <time>2023-07-07T14:15:04.000Z</time>
      </trkpt>
      <trkpt lat="45.83285" lon="4.72936">
        <ele>290.02911</ele>
        <time>2023-07-07T14:15:05.000Z</time>
      </trkpt>
      <trkpt lat="45.83284" lon="4.72939">
        <ele>290.39069</ele>
        <time>2023-07-07T14:15:06.000Z</time>
      </trkpt>
      <trkpt lat="45.83283" lon="4.72943">
        <ele>290.79752</ele>
        <time>2023-07-07T14:15:07.000Z</time>
      </trkpt>
      <trkpt lat="45.83282" lon="4.72946">
        <ele>291.27667</ele>
        <time>2023-07-07T14:15:08.000Z</time>
      </trkpt>
      <trkpt lat="45.83281" lon="4.72949">
        <ele>291.70129</ele>
        <time>2023-07-07T14:15:09.000Z</time>
      </trkpt>
      <trkpt lat="45.83279" lon="4.72952">
        <ele>292.00677</ele>
        <time>2023-07-07T14:15:10.000Z</time>
      </trkpt>
      <trkpt lat="45.83278" lon="4.72955">
        <ele>292.29663</ele>
        <time>2023-07-07T14:15:11.000Z</time>
      </trkpt>
      <trkpt lat="45.83276" lon="4.72959">
        <ele>292.27594</ele>
        <time>2023-07-07T14:15:12.000Z</time>
      </trkpt>
      <trkpt lat="45.83275" lon="4.72962">
        <ele>292.49005</ele>
        <time>2023-07-07T14:15:13.000Z</time>
      </trkpt>
      <trkpt lat="45.83274" lon="4.72964">
        <ele>292.71176</ele>
        <time>2023-07-07T14:15:14.000Z</time>
      </trkpt>
      <trkpt lat="45.83273" lon="4.72967">
        <ele>293.00269</ele>
        <time>2023-07-07T14:15:15.000Z</time>
      </trkpt>
      <trkpt lat="45.83271" lon="4.7297">
        <ele>292.97037</ele>
        <time>2023-07-07T14:15:16.000Z</time>
      </trkpt>
      <trkpt lat="45.8327" lon="4.72973">
        <ele>292.93411</ele>
        <time>2023-07-07T14:15:17.000Z</time>
      </trkpt>
      <trkpt lat="45.83269" lon="4.72975">
        <ele>292.78561</ele>
        <time>2023-07-07T14:15:18.000Z</time>
      </trkpt>
      <trkpt lat="45.83268" lon="4.72978">
        <ele>292.58798</ele>
        <time>2023-07-07T14:15:19.000Z</time>
      </trkpt>
      <trkpt lat="45.83267" lon="4.72982">
        <ele>292.37097</ele>
        <time>2023-07-07T14:15:20.000Z</time>
      </trkpt>
      <trkpt lat="45.83265" lon="4.72985">
        <ele>292.14493</ele>
        <time>2023-07-07T14:15:21.000Z</time>
      </trkpt>
      <trkpt lat="45.83264" lon="4.72988">
        <ele>291.89755</ele>
        <time>2023-07-07T14:15:22.000Z</time>
      </trkpt>
      <trkpt lat="45.83263" lon="4.7299">
        <ele>291.5589</ele>
        <time>2023-07-07T14:15:23.000Z</time>
      </trkpt>
      <trkpt lat="45.83262" lon="4.72993">
        <ele>291.24057</ele>
        <time>2023-07-07T14:15:24.000Z</time>
      </trkpt>
      <trkpt lat="45.83261" lon="4.72997">
        <ele>291.42038</ele>
        <time>2023-07-07T14:15:25.000Z</time>
      </trkpt>
      <trkpt lat="45.8326" lon="4.73">
        <ele>291.65363</ele>
        <time>2023-07-07T14:15:26.000Z</time>
      </trkpt>
      <trkpt lat="45.83258" lon="4.73004">
        <ele>291.86969</ele>
        <time>2023-07-07T14:15:27.000Z</time>
      </trkpt>
      <trkpt lat="45.83257" lon="4.73007">
        <ele>291.82697</ele>
        <time>2023-07-07T14:15:28.000Z</time>
      </trkpt>
      <trkpt lat="45.83256" lon="4.73011">
        <ele>291.87317</ele>
        <time>2023-07-07T14:15:29.000Z</time>
      </trkpt>
      <trkpt lat="45.83255" lon="4.73014">
        <ele>291.92548</ele>
        <time>2023-07-07T14:15:30.000Z</time>
      </trkpt>
      <trkpt lat="45.83253" lon="4.73018">
        <ele>291.95953</ele>
        <time>2023-07-07T14:15:31.000Z</time>
      </trkpt>
      <trkpt lat="45.83252" lon="4.73022">
        <ele>291.99707</ele>
        <time>2023-07-07T14:15:32.000Z</time>
      </trkpt>
      <trkpt lat="45.83251" lon="4.73026">
        <ele>292.03769</ele>
        <time>2023-07-07T14:15:33.000Z</time>
      </trkpt>
      <trkpt lat="45.83249" lon="4.7303">
        <ele>292.04694</ele>
        <time>2023-07-07T14:15:34.000Z</time>
      </trkpt>
      <trkpt lat="45.83248" lon="4.73034">
        <ele>292.01205</ele>
        <time>2023-07-07T14:15:35.000Z</time>
      </trkpt>
      <trkpt lat="45.83247" lon="4.73037">
        <ele>292.28934</ele>
        <time>2023-07-07T14:15:36.000Z</time>
      </trkpt>
      <trkpt lat="45.83246" lon="4.73041">
        <ele>292.52142</ele>
        <time>2023-07-07T14:15:37.000Z</time>
      </trkpt>
      <trkpt lat="45.83244" lon="4.73044">
        <ele>292.84198</ele>
        <time>2023-07-07T14:15:38.000Z</time>
      </trkpt>
      <trkpt lat="45.83242" lon="4.73048">
        <ele>293.18793</ele>
        <time>2023-07-07T14:15:39.000Z</time>
      </trkpt>
      <trkpt lat="45.83241" lon="4.73051">
        <ele>293.55029</ele>
        <time>2023-07-07T14:15:40.000Z</time>
      </trkpt>
      <trkpt lat="45.83239" lon="4.73054">
        <ele>293.93326</ele>
        <time>2023-07-07T14:15:41.000Z</time>
      </trkpt>
      <trkpt lat="45.83237" lon="4.73057">
        <ele>294.33087</ele>
        <time>2023-07-07T14:15:42.000Z</time>
      </trkpt>
      <trkpt lat="45.83236" lon="4.73059">
        <ele>294.7608</ele>
        <time>2023-07-07T14:15:43.000Z</time>
      </trkpt>
      <trkpt lat="45.83235" lon="4.73062">
        <ele>295.16962</ele>
        <time>2023-07-07T14:15:44.000Z</time>
      </trkpt>
      <trkpt lat="45.83233" lon="4.73065">
        <ele>295.46759</ele>
        <time>2023-07-07T14:15:45.000Z</time>
      </trkpt>
      <trkpt lat="45.83231" lon="4.73068">
        <ele>295.73193</ele>
        <time>2023-07-07T14:15:46.000Z</time>
      </trkpt>
      <trkpt lat="45.83229" lon="4.7307">
        <ele>295.96332</ele>
        <time>2023-07-07T14:15:47.000Z</time>
      </trkpt>
      <trkpt lat="45.83227" lon="4.73073">
        <ele>296.41595</ele>
        <time>2023-07-07T14:15:48.000Z</time>
      </trkpt>
      <trkpt lat="45.83225" lon="4.73075">
        <ele>296.94489</ele>
        <time>2023-07-07T14:15:49.000Z</time>
      </trkpt>
      <trkpt lat="45.83223" lon="4.73077">
        <ele>297.1756</ele>
        <time>2023-07-07T14:15:50.000Z</time>
      </trkpt>
      <trkpt lat="45.83221" lon="4.73079">
        <ele>297.46381</ele>
        <time>2023-07-07T14:15:51.000Z</time>
      </trkpt>
      <trkpt lat="45.8322" lon="4.73081">
        <ele>297.70453</ele>
        <time>2023-07-07T14:15:52.000Z</time>
      </trkpt>
      <trkpt lat="45.83218" lon="4.73082">
        <ele>298.00192</ele>
        <time>2023-07-07T14:15:53.000Z</time>
      </trkpt>
      <trkpt lat="45.83217" lon="4.73085">
        <ele>298.31305</ele>
        <time>2023-07-07T14:15:54.000Z</time>
      </trkpt>
      <trkpt lat="45.83216" lon="4.73087">
        <ele>298.79044</ele>
        <time>2023-07-07T14:15:55.000Z</time>
      </trkpt>
      <trkpt lat="45.83214" lon="4.7309">
        <ele>299.32162</ele>
        <time>2023-07-07T14:15:56.000Z</time>
      </trkpt>
      <trkpt lat="45.83212" lon="4.73092">
        <ele>299.88943</ele>
        <time>2023-07-07T14:15:57.000Z</time>
      </trkpt>
      <trkpt lat="45.8321" lon="4.73093">
        <ele>300.57983</ele>
        <time>2023-07-07T14:15:58.000Z</time>
      </trkpt>
      <trkpt lat="45.83209" lon="4.73096">
        <ele>300.86005</ele>
        <time>2023-07-07T14:15:59.000Z</time>
      </trkpt>
      <trkpt lat="45.83208" lon="4.73099">
        <ele>301.22726</ele>
        <time>2023-07-07T14:16:00.000Z</time>
      </trkpt>
      <trkpt lat="45.83208" lon="4.73102">
        <ele>301.57977</ele>
        <time>2023-07-07T14:16:01.000Z</time>
      </trkpt>
      <trkpt lat="45.83207" lon="4.73105">
        <ele>302.02765</ele>
        <time>2023-07-07T14:16:02.000Z</time>
      </trkpt>
      <trkpt lat="45.83208" lon="4.73108">
        <ele>302.40173</ele>
        <time>2023-07-07T14:16:03.000Z</time>
      </trkpt>
      <trkpt lat="45.83208" lon="4.73112">
        <ele>302.7514</ele>
        <time>2023-07-07T14:16:04.000Z</time>
      </trkpt>
      <trkpt lat="45.83208" lon="4.73117">
        <ele>302.75336</ele>
        <time>2023-07-07T14:16:05.000Z</time>
      </trkpt>
      <trkpt lat="45.83209" lon="4.73121">
        <ele>302.79288</ele>
        <time>2023-07-07T14:16:06.000Z</time>
      </trkpt>
      <trkpt lat="45.83209" lon="4.73125">
        <ele>302.7973</ele>
        <time>2023-07-07T14:16:07.000Z</time>
      </trkpt>
      <trkpt lat="45.83209" lon="4.7313">
        <ele>302.77649</ele>
        <time>2023-07-07T14:16:08.000Z</time>
      </trkpt>
      <trkpt lat="45.83209" lon="4.73134">
        <ele>302.59445</ele>
        <time>2023-07-07T14:16:09.000Z</time>
      </trkpt>
      <trkpt lat="45.83209" lon="4.73139">
        <ele>302.70444</ele>
        <time>2023-07-07T14:16:10.000Z</time>
      </trkpt>
      <trkpt lat="45.83209" lon="4.73143">
        <ele>302.92218</ele>
        <time>2023-07-07T14:16:11.000Z</time>
      </trkpt>
      <trkpt lat="45.83208" lon="4.73147">
        <ele>303.37759</ele>
        <time>2023-07-07T14:16:12.000Z</time>
      </trkpt>
      <trkpt lat="45.83207" lon="4.73151">
        <ele>303.50287</ele>
        <time>2023-07-07T14:16:13.000Z</time>
      </trkpt>
      <trkpt lat="45.83205" lon="4.73154">
        <ele>303.63412</ele>
        <time>2023-07-07T14:16:14.000Z</time>
      </trkpt>
      <trkpt lat="45.83204" lon="4.73157">
        <ele>303.61005</ele>
        <time>2023-07-07T14:16:15.000Z</time>
      </trkpt>
      <trkpt lat="45.83204" lon="4.7316">
        <ele>303.46481</ele>
        <time>2023-07-07T14:16:16.000Z</time>
      </trkpt>
      <trkpt lat="45.83203" lon="4.73163">
        <ele>303.25699</ele>
        <time>2023-07-07T14:16:17.000Z</time>
      </trkpt>
      <trkpt lat="45.83203" lon="4.73166">
        <ele>302.98761</ele>
        <time>2023-07-07T14:16:18.000Z</time>
      </trkpt>
      <trkpt lat="45.83201" lon="4.7317">
        <ele>303.06097</ele>
        <time>2023-07-07T14:16:19.000Z</time>
      </trkpt>
      <trkpt lat="45.832" lon="4.73173">
        <ele>303.07748</ele>
        <time>2023-07-07T14:16:20.000Z</time>
      </trkpt>
      <trkpt lat="45.83198" lon="4.73177">
        <ele>303.16467</ele>
        <time>2023-07-07T14:16:21.000Z</time>
      </trkpt>
      <trkpt lat="45.83196" lon="4.7318">
        <ele>303.16595</ele>
        <time>2023-07-07T14:16:22.000Z</time>
      </trkpt>
      <trkpt lat="45.83194" lon="4.73182">
        <ele>303.25833</ele>
        <time>2023-07-07T14:16:23.000Z</time>
      </trkpt>
      <trkpt lat="45.83192" lon="4.73185">
        <ele>303.36664</ele>
        <time>2023-07-07T14:16:24.000Z</time>
      </trkpt>
      <trkpt lat="45.83189" lon="4.73188">
        <ele>303.60672</ele>
        <time>2023-07-07T14:16:25.000Z</time>
      </trkpt>
      <trkpt lat="45.83187" lon="4.7319">
        <ele>303.75046</ele>
        <time>2023-07-07T14:16:26.000Z</time>
      </trkpt>
      <trkpt lat="45.83185" lon="4.73193">
        <ele>303.90897</ele>
        <time>2023-07-07T14:16:27.000Z</time>
      </trkpt>
      <trkpt lat="45.83183" lon="4.73196">
        <ele>304.14023</ele>
        <time>2023-07-07T14:16:28.000Z</time>
      </trkpt>
      <trkpt lat="45.8318" lon="4.73199">
        <ele>304.06821</ele>
        <time>2023-07-07T14:16:29.000Z</time>
      </trkpt>
      <trkpt lat="45.83178" lon="4.73202">
        <ele>304.02881</ele>
        <time>2023-07-07T14:16:30.000Z</time>
      </trkpt>
      <trkpt lat="45.83176" lon="4.73204">
        <ele>303.8609</ele>
        <time>2023-07-07T14:16:31.000Z</time>
      </trkpt>
      <trkpt lat="45.83174" lon="4.73206">
        <ele>303.45013</ele>
        <time>2023-07-07T14:16:32.000Z</time>
      </trkpt>
      <trkpt lat="45.83171" lon="4.73208">
        <ele>303.33951</ele>
        <time>2023-07-07T14:16:33.000Z</time>
      </trkpt>
      <trkpt lat="45.83169" lon="4.7321">
        <ele>303.24515</ele>
        <time>2023-07-07T14:16:34.000Z</time>
      </trkpt>
      <trkpt lat="45.83167" lon="4.73213">
        <ele>303.27338</ele>
        <time>2023-07-07T14:16:35.000Z</time>
      </trkpt>
      <trkpt lat="45.83164" lon="4.73215">
        <ele>303.44373</ele>
        <time>2023-07-07T14:16:36.000Z</time>
      </trkpt>
      <trkpt lat="45.83162" lon="4.73217">
        <ele>303.64923</ele>
        <time>2023-07-07T14:16:37.000Z</time>
      </trkpt>
      <trkpt lat="45.8316" lon="4.73219">
        <ele>303.52127</ele>
        <time>2023-07-07T14:16:38.000Z</time>
      </trkpt>
      <trkpt lat="45.83158" lon="4.7322">
        <ele>303.49207</ele>
        <time>2023-07-07T14:16:39.000Z</time>
      </trkpt>
      <trkpt lat="45.83156" lon="4.73222">
        <ele>303.43317</ele>
        <time>2023-07-07T14:16:40.000Z</time>
      </trkpt>
      <trkpt lat="45.83153" lon="4.73224">
        <ele>303.33633</ele>
        <time>2023-07-07T14:16:41.000Z</time>
      </trkpt>
      <trkpt lat="45.83151" lon="4.73226">
        <ele>303.24899</ele>
        <time>2023-07-07T14:16:42.000Z</time>
      </trkpt>
      <trkpt lat="45.83149" lon="4.73228">
        <ele>303.32782</ele>
        <time>2023-07-07T14:16:43.000Z</time>
      </trkpt>
      <trkpt lat="45.83147" lon="4.73231">
        <ele>303.51257</ele>
        <time>2023-07-07T14:16:44.000Z</time>
      </trkpt>
      <trkpt lat="45.83146" lon="4.73233">
        <ele>303.58286</ele>
        <time>2023-07-07T14:16:45.000Z</time>
      </trkpt>
      <trkpt lat="45.83144" lon="4.73235">
        <ele>303.47198</ele>
        <time>2023-07-07T14:16:46.000Z</time>
      </trkpt>
      <trkpt lat="45.83142" lon="4.73237">
        <ele>303.49966</ele>
        <time>2023-07-07T14:16:47.000Z</time>
      </trkpt>
      <trkpt lat="45.83141" lon="4.73239">
        <ele>303.48712</ele>
        <time>2023-07-07T14:16:48.000Z</time>
      </trkpt>
      <trkpt lat="45.83139" lon="4.73242">
        <ele>303.86414</ele>
        <time>2023-07-07T14:16:49.000Z</time>
      </trkpt>
      <trkpt lat="45.83136" lon="4.73244">
        <ele>304.2005</ele>
        <time>2023-07-07T14:16:50.000Z</time>
      </trkpt>
      <trkpt lat="45.83134" lon="4.73245">
        <ele>304.64026</ele>
        <time>2023-07-07T14:16:51.000Z</time>
      </trkpt>
      <trkpt lat="45.83133" lon="4.73247">
        <ele>305.12976</ele>
        <time>2023-07-07T14:16:52.000Z</time>
      </trkpt>
      <trkpt lat="45.83131" lon="4.73249">
        <ele>305.60635</ele>
        <time>2023-07-07T14:16:53.000Z</time>
      </trkpt>
      <trkpt lat="45.83128" lon="4.73251">
        <ele>306.10266</ele>
        <time>2023-07-07T14:16:54.000Z</time>
      </trkpt>
      <trkpt lat="45.83126" lon="4.73253">
        <ele>306.47522</ele>
        <time>2023-07-07T14:16:55.000Z</time>
      </trkpt>
      <trkpt lat="45.83125" lon="4.73255">
        <ele>306.56586</ele>
        <time>2023-07-07T14:16:56.000Z</time>
      </trkpt>
      <trkpt lat="45.83122" lon="4.73258">
        <ele>306.7724</ele>
        <time>2023-07-07T14:16:57.000Z</time>
      </trkpt>
      <trkpt lat="45.8312" lon="4.73261">
        <ele>307.2532</ele>
        <time>2023-07-07T14:16:58.000Z</time>
      </trkpt>
      <trkpt lat="45.83119" lon="4.73264">
        <ele>307.67679</ele>
        <time>2023-07-07T14:16:59.000Z</time>
      </trkpt>
      <trkpt lat="45.83117" lon="4.73267">
        <ele>308.0853</ele>
        <time>2023-07-07T14:17:00.000Z</time>
      </trkpt>
      <trkpt lat="45.83115" lon="4.73269">
        <ele>308.47598</ele>
        <time>2023-07-07T14:17:01.000Z</time>
      </trkpt>
      <trkpt lat="45.83113" lon="4.73272">
        <ele>308.8244</ele>
        <time>2023-07-07T14:17:02.000Z</time>
      </trkpt>
      <trkpt lat="45.83111" lon="4.73274">
        <ele>309.10904</ele>
        <time>2023-07-07T14:17:03.000Z</time>
      </trkpt>
      <trkpt lat="45.83108" lon="4.73276">
        <ele>309.32126</ele>
        <time>2023-07-07T14:17:04.000Z</time>
      </trkpt>
      <trkpt lat="45.83106" lon="4.73279">
        <ele>309.52881</ele>
        <time>2023-07-07T14:17:05.000Z</time>
      </trkpt>
      <trkpt lat="45.83104" lon="4.73281">
        <ele>309.76889</ele>
        <time>2023-07-07T14:17:06.000Z</time>
      </trkpt>
      <trkpt lat="45.83102" lon="4.73283">
        <ele>309.92169</ele>
        <time>2023-07-07T14:17:07.000Z</time>
      </trkpt>
      <trkpt lat="45.831" lon="4.73285">
        <ele>310.07016</ele>
        <time>2023-07-07T14:17:08.000Z</time>
      </trkpt>
      <trkpt lat="45.83099" lon="4.73287">
        <ele>310.15073</ele>
        <time>2023-07-07T14:17:09.000Z</time>
      </trkpt>
      <trkpt lat="45.83097" lon="4.73289">
        <ele>310.22565</ele>
        <time>2023-07-07T14:17:10.000Z</time>
      </trkpt>
      <trkpt lat="45.83095" lon="4.73291">
        <ele>310.1441</ele>
        <time>2023-07-07T14:17:11.000Z</time>
      </trkpt>
      <trkpt lat="45.83094" lon="4.73293">
        <ele>310.03366</ele>
        <time>2023-07-07T14:17:12.000Z</time>
      </trkpt>
      <trkpt lat="45.83091" lon="4.73295">
        <ele>309.93958</ele>
        <time>2023-07-07T14:17:13.000Z</time>
      </trkpt>
      <trkpt lat="45.83089" lon="4.73297">
        <ele>309.76227</ele>
        <time>2023-07-07T14:17:14.000Z</time>
      </trkpt>
      <trkpt lat="45.83087" lon="4.73299">
        <ele>309.60599</ele>
        <time>2023-07-07T14:17:15.000Z</time>
      </trkpt>
      <trkpt lat="45.83084" lon="4.73301">
        <ele>309.681</ele>
        <time>2023-07-07T14:17:16.000Z</time>
      </trkpt>
      <trkpt lat="45.83082" lon="4.73303">
        <ele>309.62875</ele>
        <time>2023-07-07T14:17:17.000Z</time>
      </trkpt>
      <trkpt lat="45.83079" lon="4.73305">
        <ele>309.57965</ele>
        <time>2023-07-07T14:17:18.000Z</time>
      </trkpt>
      <trkpt lat="45.83077" lon="4.73307">
        <ele>309.57486</ele>
        <time>2023-07-07T14:17:19.000Z</time>
      </trkpt>
      <trkpt lat="45.83075" lon="4.73309">
        <ele>309.62097</ele>
        <time>2023-07-07T14:17:20.000Z</time>
      </trkpt>
      <trkpt lat="45.83072" lon="4.73312">
        <ele>309.42609</ele>
        <time>2023-07-07T14:17:21.000Z</time>
      </trkpt>
      <trkpt lat="45.83069" lon="4.73315">
        <ele>309.30383</ele>
        <time>2023-07-07T14:17:22.000Z</time>
      </trkpt>
      <trkpt lat="45.83066" lon="4.73317">
        <ele>309.10678</ele>
        <time>2023-07-07T14:17:23.000Z</time>
      </trkpt>
      <trkpt lat="45.83063" lon="4.7332">
        <ele>308.92209</ele>
        <time>2023-07-07T14:17:24.000Z</time>
      </trkpt>
      <trkpt lat="45.8306" lon="4.73323">
        <ele>308.79581</ele>
        <time>2023-07-07T14:17:25.000Z</time>
      </trkpt>
      <trkpt lat="45.83057" lon="4.73326">
        <ele>308.85242</ele>
        <time>2023-07-07T14:17:26.000Z</time>
      </trkpt>
      <trkpt lat="45.83053" lon="4.7333">
        <ele>308.8873</ele>
        <time>2023-07-07T14:17:27.000Z</time>
      </trkpt>
      <trkpt lat="45.8305" lon="4.73333">
        <ele>308.93008</ele>
        <time>2023-07-07T14:17:28.000Z</time>
      </trkpt>
      <trkpt lat="45.83046" lon="4.73336">
        <ele>309.26285</ele>
        <time>2023-07-07T14:17:29.000Z</time>
      </trkpt>
      <trkpt lat="45.83043" lon="4.73339">
        <ele>309.47122</ele>
        <time>2023-07-07T14:17:30.000Z</time>
      </trkpt>
      <trkpt lat="45.83039" lon="4.73341">
        <ele>309.7486</ele>
        <time>2023-07-07T14:17:31.000Z</time>
      </trkpt>
      <trkpt lat="45.83036" lon="4.73344">
        <ele>310.04755</ele>
        <time>2023-07-07T14:17:32.000Z</time>
      </trkpt>
      <trkpt lat="45.83033" lon="4.73347">
        <ele>310.34683</ele>
        <time>2023-07-07T14:17:33.000Z</time>
      </trkpt>
      <trkpt lat="45.8303" lon="4.7335">
        <ele>310.67279</ele>
        <time>2023-07-07T14:17:34.000Z</time>
      </trkpt>
      <trkpt lat="45.83027" lon="4.73354">
        <ele>310.99469</ele>
        <time>2023-07-07T14:17:35.000Z</time>
      </trkpt>
      <trkpt lat="45.83024" lon="4.73357">
        <ele>311.2897</ele>
        <time>2023-07-07T14:17:36.000Z</time>
      </trkpt>
      <trkpt lat="45.83021" lon="4.7336">
        <ele>311.58154</ele>
        <time>2023-07-07T14:17:37.000Z</time>
      </trkpt>
      <trkpt lat="45.83017" lon="4.73363">
        <ele>311.86124</ele>
        <time>2023-07-07T14:17:38.000Z</time>
      </trkpt>
      <trkpt lat="45.83014" lon="4.73366">
        <ele>312.27338</ele>
        <time>2023-07-07T14:17:39.000Z</time>
      </trkpt>
      <trkpt lat="45.83011" lon="4.73369">
        <ele>312.40436</ele>
        <time>2023-07-07T14:17:40.000Z</time>
      </trkpt>
      <trkpt lat="45.83008" lon="4.73372">
        <ele>312.79462</ele>
        <time>2023-07-07T14:17:41.000Z</time>
      </trkpt>
      <trkpt lat="45.83005" lon="4.73375">
        <ele>313.13446</ele>
        <time>2023-07-07T14:17:42.000Z</time>
      </trkpt>
      <trkpt lat="45.83002" lon="4.73378">
        <ele>313.47226</ele>
        <time>2023-07-07T14:17:43.000Z</time>
      </trkpt>
      <trkpt lat="45.82998" lon="4.73381">
        <ele>313.77484</ele>
        <time>2023-07-07T14:17:44.000Z</time>
      </trkpt>
      <trkpt lat="45.82995" lon="4.73383">
        <ele>314.01093</ele>
        <time>2023-07-07T14:17:45.000Z</time>
      </trkpt>
      <trkpt lat="45.82992" lon="4.73386">
        <ele>314.25247</ele>
        <time>2023-07-07T14:17:46.000Z</time>
      </trkpt>
      <trkpt lat="45.82988" lon="4.73389">
        <ele>314.51315</ele>
        <time>2023-07-07T14:17:47.000Z</time>
      </trkpt>
      <trkpt lat="45.82985" lon="4.73391">
        <ele>314.73151</ele>
        <time>2023-07-07T14:17:48.000Z</time>
      </trkpt>
      <trkpt lat="45.82983" lon="4.73393">
        <ele>314.70746</ele>
        <time>2023-07-07T14:17:49.000Z</time>
      </trkpt>
      <trkpt lat="45.82981" lon="4.73395">
        <ele>314.85532</ele>
        <time>2023-07-07T14:17:50.000Z</time>
      </trkpt>
      <trkpt lat="45.82979" lon="4.73397">
        <ele>315.02289</ele>
        <time>2023-07-07T14:17:51.000Z</time>
      </trkpt>
      <trkpt lat="45.82979" lon="4.734">
        <ele>315.20715</ele>
        <time>2023-07-07T14:17:52.000Z</time>
      </trkpt>
      <trkpt lat="45.8298" lon="4.73403">
        <ele>315.26306</ele>
        <time>2023-07-07T14:17:53.000Z</time>
      </trkpt>
      <trkpt lat="45.82982" lon="4.73406">
        <ele>315.35052</ele>
        <time>2023-07-07T14:17:54.000Z</time>
      </trkpt>
      <trkpt lat="45.82985" lon="4.73408">
        <ele>315.42072</ele>
        <time>2023-07-07T14:17:55.000Z</time>
      </trkpt>
      <trkpt lat="45.82988" lon="4.7341">
        <ele>315.56409</ele>
        <time>2023-07-07T14:17:56.000Z</time>
      </trkpt>
      <trkpt lat="45.8299" lon="4.73413">
        <ele>315.76343</ele>
        <time>2023-07-07T14:17:57.000Z</time>
      </trkpt>
      <trkpt lat="45.82993" lon="4.73417">
        <ele>315.83926</ele>
        <time>2023-07-07T14:17:58.000Z</time>
      </trkpt>
      <trkpt lat="45.82994" lon="4.73422">
        <ele>315.77692</ele>
        <time>2023-07-07T14:17:59.000Z</time>
      </trkpt>
      <trkpt lat="45.82996" lon="4.73426">
        <ele>315.94501</ele>
        <time>2023-07-07T14:18:00.000Z</time>
      </trkpt>
      <trkpt lat="45.82997" lon="4.73431">
        <ele>316.08276</ele>
        <time>2023-07-07T14:18:01.000Z</time>
      </trkpt>
      <trkpt lat="45.82998" lon="4.73436">
        <ele>316.18585</ele>
        <time>2023-07-07T14:18:02.000Z</time>
      </trkpt>
      <trkpt lat="45.83" lon="4.73441">
        <ele>316.27777</ele>
        <time>2023-07-07T14:18:03.000Z</time>
      </trkpt>
      <trkpt lat="45.83002" lon="4.73445">
        <ele>316.36951</ele>
        <time>2023-07-07T14:18:04.000Z</time>
      </trkpt>
      <trkpt lat="45.83004" lon="4.7345">
        <ele>316.44867</ele>
        <time>2023-07-07T14:18:05.000Z</time>
      </trkpt>
      <trkpt lat="45.83006" lon="4.73454">
        <ele>316.49185</ele>
        <time>2023-07-07T14:18:06.000Z</time>
      </trkpt>
      <trkpt lat="45.83007" lon="4.73459">
        <ele>316.53</ele>
        <time>2023-07-07T14:18:07.000Z</time>
      </trkpt>
      <trkpt lat="45.83009" lon="4.73464">
        <ele>316.57498</ele>
        <time>2023-07-07T14:18:08.000Z</time>
      </trkpt>
      <trkpt lat="45.83011" lon="4.73469">
        <ele>316.59744</ele>
        <time>2023-07-07T14:18:09.000Z</time>
      </trkpt>
      <trkpt lat="45.83013" lon="4.73475">
        <ele>316.57452</ele>
        <time>2023-07-07T14:18:10.000Z</time>
      </trkpt>
      <trkpt lat="45.83014" lon="4.7348">
        <ele>316.51218</ele>
        <time>2023-07-07T14:18:11.000Z</time>
      </trkpt>
      <trkpt lat="45.83015" lon="4.73485">
        <ele>316.4111</ele>
        <time>2023-07-07T14:18:12.000Z</time>
      </trkpt>
      <trkpt lat="45.83016" lon="4.73491">
        <ele>316.44757</ele>
        <time>2023-07-07T14:18:13.000Z</time>
      </trkpt>
      <trkpt lat="45.83018" lon="4.73496">
        <ele>316.4823</ele>
        <time>2023-07-07T14:18:14.000Z</time>
      </trkpt>
      <trkpt lat="45.83019" lon="4.73502">
        <ele>316.56137</ele>
        <time>2023-07-07T14:18:15.000Z</time>
      </trkpt>
      <trkpt lat="45.83022" lon="4.73508">
        <ele>316.40604</ele>
        <time>2023-07-07T14:18:16.000Z</time>
      </trkpt>
      <trkpt lat="45.83024" lon="4.73514">
        <ele>316.2298</ele>
        <time>2023-07-07T14:18:17.000Z</time>
      </trkpt>
      <trkpt lat="45.83025" lon="4.7352">
        <ele>316.21338</ele>
        <time>2023-07-07T14:18:18.000Z</time>
      </trkpt>
      <trkpt lat="45.83027" lon="4.73527">
        <ele>316.14951</ele>
        <time>2023-07-07T14:18:19.000Z</time>
      </trkpt>
      <trkpt lat="45.83029" lon="4.73533">
        <ele>316.07159</ele>
        <time>2023-07-07T14:18:20.000Z</time>
      </trkpt>
      <trkpt lat="45.8303" lon="4.73539">
        <ele>316.00131</ele>
        <time>2023-07-07T14:18:21.000Z</time>
      </trkpt>
      <trkpt lat="45.83032" lon="4.73544">
        <ele>315.95438</ele>
        <time>2023-07-07T14:18:22.000Z</time>
      </trkpt>
      <trkpt lat="45.83033" lon="4.7355">
        <ele>315.90118</ele>
        <time>2023-07-07T14:18:23.000Z</time>
      </trkpt>
      <trkpt lat="45.83033" lon="4.73554">
        <ele>315.88818</ele>
        <time>2023-07-07T14:18:24.000Z</time>
      </trkpt>
      <trkpt lat="45.83031" lon="4.73558">
        <ele>315.92905</ele>
        <time>2023-07-07T14:18:25.000Z</time>
      </trkpt>
      <trkpt lat="45.8303" lon="4.73561">
        <ele>315.98444</ele>
        <time>2023-07-07T14:18:26.000Z</time>
      </trkpt>
      <trkpt lat="45.83028" lon="4.73564">
        <ele>316.01959</ele>
        <time>2023-07-07T14:18:27.000Z</time>
      </trkpt>
      <trkpt lat="45.83027" lon="4.73566">
        <ele>316.08136</ele>
        <time>2023-07-07T14:18:28.000Z</time>
      </trkpt>
      <trkpt lat="45.83024" lon="4.73568">
        <ele>316.01025</ele>
        <time>2023-07-07T14:18:29.000Z</time>
      </trkpt>
      <trkpt lat="45.83021" lon="4.73571">
        <ele>316.01593</ele>
        <time>2023-07-07T14:18:30.000Z</time>
      </trkpt>
      <trkpt lat="45.83018" lon="4.73572">
        <ele>315.9837</ele>
        <time>2023-07-07T14:18:31.000Z</time>
      </trkpt>
      <trkpt lat="45.83015" lon="4.73574">
        <ele>315.96765</ele>
        <time>2023-07-07T14:18:32.000Z</time>
      </trkpt>
      <trkpt lat="45.83012" lon="4.73576">
        <ele>315.93097</ele>
        <time>2023-07-07T14:18:33.000Z</time>
      </trkpt>
      <trkpt lat="45.83009" lon="4.73578">
        <ele>315.8797</ele>
        <time>2023-07-07T14:18:34.000Z</time>
      </trkpt>
      <trkpt lat="45.83006" lon="4.7358">
        <ele>315.79355</ele>
        <time>2023-07-07T14:18:35.000Z</time>
      </trkpt>
      <trkpt lat="45.83004" lon="4.73583">
        <ele>315.89398</ele>
        <time>2023-07-07T14:18:36.000Z</time>
      </trkpt>
      <trkpt lat="45.83001" lon="4.73585">
        <ele>315.98605</ele>
        <time>2023-07-07T14:18:37.000Z</time>
      </trkpt>
      <trkpt lat="45.82999" lon="4.73587">
        <ele>316.06598</ele>
        <time>2023-07-07T14:18:38.000Z</time>
      </trkpt>
      <trkpt lat="45.82996" lon="4.73589">
        <ele>316.1391</ele>
        <time>2023-07-07T14:18:39.000Z</time>
      </trkpt>
      <trkpt lat="45.82994" lon="4.73592">
        <ele>316.23318</ele>
        <time>2023-07-07T14:18:40.000Z</time>
      </trkpt>
      <trkpt lat="45.82992" lon="4.73594">
        <ele>316.31406</ele>
        <time>2023-07-07T14:18:41.000Z</time>
      </trkpt>
      <trkpt lat="45.82989" lon="4.73596">
        <ele>316.41351</ele>
        <time>2023-07-07T14:18:42.000Z</time>
      </trkpt>
      <trkpt lat="45.82987" lon="4.73598">
        <ele>316.52084</ele>
        <time>2023-07-07T14:18:43.000Z</time>
      </trkpt>
      <trkpt lat="45.82984" lon="4.73599">
        <ele>316.58905</ele>
        <time>2023-07-07T14:18:44.000Z</time>
      </trkpt>
      <trkpt lat="45.82981" lon="4.73599">
        <ele>316.5954</ele>
        <time>2023-07-07T14:18:45.000Z</time>
      </trkpt>
      <trkpt lat="45.82978" lon="4.736">
        <ele>316.64334</ele>
        <time>2023-07-07T14:18:46.000Z</time>
      </trkpt>
      <trkpt lat="45.82975" lon="4.736">
        <ele>316.70676</ele>
        <time>2023-07-07T14:18:47.000Z</time>
      </trkpt>
      <trkpt lat="45.82973" lon="4.73599">
        <ele>316.76254</ele>
        <time>2023-07-07T14:18:48.000Z</time>
      </trkpt>
      <trkpt lat="45.8297" lon="4.73598">
        <ele>316.95148</ele>
        <time>2023-07-07T14:18:49.000Z</time>
      </trkpt>
      <trkpt lat="45.82967" lon="4.73598">
        <ele>317.11401</ele>
        <time>2023-07-07T14:18:50.000Z</time>
      </trkpt>
      <trkpt lat="45.82964" lon="4.73597">
        <ele>317.30737</ele>
        <time>2023-07-07T14:18:51.000Z</time>
      </trkpt>
      <trkpt lat="45.82961" lon="4.73596">
        <ele>317.50739</ele>
        <time>2023-07-07T14:18:52.000Z</time>
      </trkpt>
      <trkpt lat="45.82958" lon="4.73595">
        <ele>317.74722</ele>
        <time>2023-07-07T14:18:53.000Z</time>
      </trkpt>
      <trkpt lat="45.82955" lon="4.73593">
        <ele>317.98892</ele>
        <time>2023-07-07T14:18:54.000Z</time>
      </trkpt>
      <trkpt lat="45.82952" lon="4.73592">
        <ele>318.23483</ele>
        <time>2023-07-07T14:18:55.000Z</time>
      </trkpt>
      <trkpt lat="45.82949" lon="4.73591">
        <ele>318.41498</ele>
        <time>2023-07-07T14:18:56.000Z</time>
      </trkpt>
      <trkpt lat="45.82946" lon="4.73591">
        <ele>318.59482</ele>
        <time>2023-07-07T14:18:57.000Z</time>
      </trkpt>
      <trkpt lat="45.82943" lon="4.7359">
        <ele>318.77335</ele>
        <time>2023-07-07T14:18:58.000Z</time>
      </trkpt>
      <trkpt lat="45.8294" lon="4.7359">
        <ele>318.97345</ele>
        <time>2023-07-07T14:18:59.000Z</time>
      </trkpt>
      <trkpt lat="45.82937" lon="4.73588">
        <ele>319.21609</ele>
        <time>2023-07-07T14:19:00.000Z</time>
      </trkpt>
      <trkpt lat="45.82933" lon="4.73586">
        <ele>319.49387</ele>
        <time>2023-07-07T14:19:01.000Z</time>
      </trkpt>
      <trkpt lat="45.8293" lon="4.73584">
        <ele>319.79025</ele>
        <time>2023-07-07T14:19:02.000Z</time>
      </trkpt>
      <trkpt lat="45.82926" lon="4.73583">
        <ele>320.10043</ele>
        <time>2023-07-07T14:19:03.000Z</time>
      </trkpt>
      <trkpt lat="45.82923" lon="4.73581">
        <ele>320.37183</ele>
        <time>2023-07-07T14:19:04.000Z</time>
      </trkpt>
      <trkpt lat="45.82921" lon="4.73579">
        <ele>320.66339</ele>
        <time>2023-07-07T14:19:05.000Z</time>
      </trkpt>
      <trkpt lat="45.82919" lon="4.73577">
        <ele>320.95404</ele>
        <time>2023-07-07T14:19:06.000Z</time>
      </trkpt>
      <trkpt lat="45.82917" lon="4.73575">
        <ele>321.23337</ele>
        <time>2023-07-07T14:19:07.000Z</time>
      </trkpt>
      <trkpt lat="45.82914" lon="4.73574">
        <ele>321.51675</ele>
        <time>2023-07-07T14:19:08.000Z</time>
      </trkpt>
      <trkpt lat="45.82911" lon="4.73573">
        <ele>321.80142</ele>
        <time>2023-07-07T14:19:09.000Z</time>
      </trkpt>
      <trkpt lat="45.82908" lon="4.73574">
        <ele>322.04834</ele>
        <time>2023-07-07T14:19:10.000Z</time>
      </trkpt>
      <trkpt lat="45.82906" lon="4.73576">
        <ele>322.31216</ele>
        <time>2023-07-07T14:19:11.000Z</time>
      </trkpt>
      <trkpt lat="45.82903" lon="4.73579">
        <ele>322.58878</ele>
        <time>2023-07-07T14:19:12.000Z</time>
      </trkpt>
      <trkpt lat="45.829" lon="4.73582">
        <ele>322.83075</ele>
        <time>2023-07-07T14:19:13.000Z</time>
      </trkpt>
      <trkpt lat="45.82898" lon="4.73585">
        <ele>323.02286</ele>
        <time>2023-07-07T14:19:14.000Z</time>
      </trkpt>
      <trkpt lat="45.82896" lon="4.73589">
        <ele>323.20773</ele>
        <time>2023-07-07T14:19:15.000Z</time>
      </trkpt>
      <trkpt lat="45.82893" lon="4.73592">
        <ele>323.45471</ele>
        <time>2023-07-07T14:19:16.000Z</time>
      </trkpt>
      <trkpt lat="45.82891" lon="4.73595">
        <ele>323.70038</ele>
        <time>2023-07-07T14:19:17.000Z</time>
      </trkpt>
      <trkpt lat="45.82888" lon="4.73598">
        <ele>323.95001</ele>
        <time>2023-07-07T14:19:18.000Z</time>
      </trkpt>
      <trkpt lat="45.82886" lon="4.73602">
        <ele>324.20016</ele>
        <time>2023-07-07T14:19:19.000Z</time>
      </trkpt>
      <trkpt lat="45.82883" lon="4.73605">
        <ele>324.39145</ele>
        <time>2023-07-07T14:19:20.000Z</time>
      </trkpt>
      <trkpt lat="45.82881" lon="4.73609">
        <ele>324.57486</ele>
        <time>2023-07-07T14:19:21.000Z</time>
      </trkpt>
      <trkpt lat="45.82879" lon="4.73612">
        <ele>324.73331</ele>
        <time>2023-07-07T14:19:22.000Z</time>
      </trkpt>
      <trkpt lat="45.82877" lon="4.73616">
        <ele>324.84726</ele>
        <time>2023-07-07T14:19:23.000Z</time>
      </trkpt>
      <trkpt lat="45.82874" lon="4.73619">
        <ele>324.99832</ele>
        <time>2023-07-07T14:19:24.000Z</time>
      </trkpt>
      <trkpt lat="45.82872" lon="4.73623">
        <ele>325.1312</ele>
        <time>2023-07-07T14:19:25.000Z</time>
      </trkpt>
      <trkpt lat="45.8287" lon="4.73626">
        <ele>325.23456</ele>
        <time>2023-07-07T14:19:26.000Z</time>
      </trkpt>
      <trkpt lat="45.82867" lon="4.73629">
        <ele>325.34821</ele>
        <time>2023-07-07T14:19:27.000Z</time>
      </trkpt>
      <trkpt lat="45.82865" lon="4.73632">
        <ele>325.44574</ele>
        <time>2023-07-07T14:19:28.000Z</time>
      </trkpt>
      <trkpt lat="45.82862" lon="4.73635">
        <ele>325.56482</ele>
        <time>2023-07-07T14:19:29.000Z</time>
      </trkpt>
      <trkpt lat="45.82859" lon="4.73638">
        <ele>325.69553</ele>
        <time>2023-07-07T14:19:30.000Z</time>
      </trkpt>
      <trkpt lat="45.82856" lon="4.73641">
        <ele>325.80499</ele>
        <time>2023-07-07T14:19:31.000Z</time>
      </trkpt>
      <trkpt lat="45.82854" lon="4.73643">
        <ele>325.89874</ele>
        <time>2023-07-07T14:19:32.000Z</time>
      </trkpt>
      <trkpt lat="45.82851" lon="4.73645">
        <ele>326.00296</ele>
        <time>2023-07-07T14:19:33.000Z</time>
      </trkpt>
      <trkpt lat="45.82848" lon="4.73648">
        <ele>326.1637</ele>
        <time>2023-07-07T14:19:34.000Z</time>
      </trkpt>
      <trkpt lat="45.82844" lon="4.7365">
        <ele>326.32205</ele>
        <time>2023-07-07T14:19:35.000Z</time>
      </trkpt>
      <trkpt lat="45.82842" lon="4.73653">
        <ele>326.47433</ele>
        <time>2023-07-07T14:19:36.000Z</time>
      </trkpt>
      <trkpt lat="45.82839" lon="4.73656">
        <ele>326.61383</ele>
        <time>2023-07-07T14:19:37.000Z</time>
      </trkpt>
      <trkpt lat="45.82837" lon="4.73658">
        <ele>326.73108</ele>
        <time>2023-07-07T14:19:38.000Z</time>
      </trkpt>
      <trkpt lat="45.82834" lon="4.73661">
        <ele>326.85211</ele>
        <time>2023-07-07T14:19:39.000Z</time>
      </trkpt>
      <trkpt lat="45.82831" lon="4.73663">
        <ele>326.96954</ele>
        <time>2023-07-07T14:19:40.000Z</time>
      </trkpt>
      <trkpt lat="45.82828" lon="4.73666">
        <ele>327.07608</ele>
        <time>2023-07-07T14:19:41.000Z</time>
      </trkpt>
      <trkpt lat="45.82826" lon="4.73668">
        <ele>327.207</ele>
        <time>2023-07-07T14:19:42.000Z</time>
      </trkpt>
      <trkpt lat="45.82823" lon="4.7367">
        <ele>327.34433</ele>
        <time>2023-07-07T14:19:43.000Z</time>
      </trkpt>
      <trkpt lat="45.82821" lon="4.73673">
        <ele>327.50082</ele>
        <time>2023-07-07T14:19:44.000Z</time>
      </trkpt>
      <trkpt lat="45.82819" lon="4.73676">
        <ele>327.65039</ele>
        <time>2023-07-07T14:19:45.000Z</time>
      </trkpt>
      <trkpt lat="45.82817" lon="4.73679">
        <ele>327.82404</ele>
        <time>2023-07-07T14:19:46.000Z</time>
      </trkpt>
      <trkpt lat="45.82816" lon="4.73683">
        <ele>327.99811</ele>
        <time>2023-07-07T14:19:47.000Z</time>
      </trkpt>
      <trkpt lat="45.82814" lon="4.73687">
        <ele>328.18829</ele>
        <time>2023-07-07T14:19:48.000Z</time>
      </trkpt>
      <trkpt lat="45.82814" lon="4.73691">
        <ele>328.35831</ele>
        <time>2023-07-07T14:19:49.000Z</time>
      </trkpt>
      <trkpt lat="45.82814" lon="4.73695">
        <ele>328.49857</ele>
        <time>2023-07-07T14:19:50.000Z</time>
      </trkpt>
      <trkpt lat="45.82814" lon="4.737">
        <ele>328.62729</ele>
        <time>2023-07-07T14:19:51.000Z</time>
      </trkpt>
      <trkpt lat="45.82814" lon="4.73704">
        <ele>328.75592</ele>
        <time>2023-07-07T14:19:52.000Z</time>
      </trkpt>
      <trkpt lat="45.82815" lon="4.73708">
        <ele>328.88187</ele>
        <time>2023-07-07T14:19:53.000Z</time>
      </trkpt>
      <trkpt lat="45.82816" lon="4.73711">
        <ele>328.9856</ele>
        <time>2023-07-07T14:19:54.000Z</time>
      </trkpt>
      <trkpt lat="45.82816" lon="4.73715">
        <ele>329.07193</ele>
        <time>2023-07-07T14:19:55.000Z</time>
      </trkpt>
      <trkpt lat="45.82815" lon="4.7372">
        <ele>329.14963</ele>
        <time>2023-07-07T14:19:56.000Z</time>
      </trkpt>
      <trkpt lat="45.82814" lon="4.73723">
        <ele>329.23077</ele>
        <time>2023-07-07T14:19:57.000Z</time>
      </trkpt>
      <trkpt lat="45.82811" lon="4.73726">
        <ele>329.30328</ele>
        <time>2023-07-07T14:19:58.000Z</time>
      </trkpt>
      <trkpt lat="45.82808" lon="4.73728">
        <ele>329.35641</ele>
        <time>2023-07-07T14:19:59.000Z</time>
      </trkpt>
      <trkpt lat="45.82804" lon="4.73727">
        <ele>329.40289</ele>
        <time>2023-07-07T14:20:00.000Z</time>
      </trkpt>
      <trkpt lat="45.82801" lon="4.73726">
        <ele>329.47064</ele>
        <time>2023-07-07T14:20:01.000Z</time>
      </trkpt>
      <trkpt lat="45.82797" lon="4.73724">
        <ele>329.50598</ele>
        <time>2023-07-07T14:20:02.000Z</time>
      </trkpt>
      <trkpt lat="45.82794" lon="4.73723">
        <ele>329.56726</ele>
        <time>2023-07-07T14:20:03.000Z</time>
      </trkpt>
      <trkpt lat="45.8279" lon="4.73722">
        <ele>329.61371</ele>
        <time>2023-07-07T14:20:04.000Z</time>
      </trkpt>
      <trkpt lat="45.82786" lon="4.73722">
        <ele>329.67673</ele>
        <time>2023-07-07T14:20:05.000Z</time>
      </trkpt>
      <trkpt lat="45.82783" lon="4.73721">
        <ele>329.70795</ele>
        <time>2023-07-07T14:20:06.000Z</time>
      </trkpt>
      <trkpt lat="45.82779" lon="4.7372">
        <ele>329.73102</ele>
        <time>2023-07-07T14:20:07.000Z</time>
      </trkpt>
      <trkpt lat="45.82776" lon="4.7372">
        <ele>329.75226</ele>
        <time>2023-07-07T14:20:08.000Z</time>
      </trkpt>
      <trkpt lat="45.82772" lon="4.73719">
        <ele>329.78552</ele>
        <time>2023-07-07T14:20:09.000Z</time>
      </trkpt>
      <trkpt lat="45.82768" lon="4.73719">
        <ele>329.84274</ele>
        <time>2023-07-07T14:20:10.000Z</time>
      </trkpt>
      <trkpt lat="45.82765" lon="4.73719">
        <ele>329.92111</ele>
        <time>2023-07-07T14:20:11.000Z</time>
      </trkpt>
      <trkpt lat="45.82761" lon="4.73718">
        <ele>329.99814</ele>
        <time>2023-07-07T14:20:12.000Z</time>
      </trkpt>
      <trkpt lat="45.82757" lon="4.73718">
        <ele>330.08075</ele>
        <time>2023-07-07T14:20:13.000Z</time>
      </trkpt>
      <trkpt lat="45.82753" lon="4.73718">
        <ele>330.17676</ele>
        <time>2023-07-07T14:20:14.000Z</time>
      </trkpt>
      <trkpt lat="45.82749" lon="4.73718">
        <ele>330.29541</ele>
        <time>2023-07-07T14:20:15.000Z</time>
      </trkpt>
      <trkpt lat="45.82745" lon="4.73719">
        <ele>330.43015</ele>
        <time>2023-07-07T14:20:16.000Z</time>
      </trkpt>
      <trkpt lat="45.82741" lon="4.73719">
        <ele>330.5611</ele>
        <time>2023-07-07T14:20:17.000Z</time>
      </trkpt>
      <trkpt lat="45.82737" lon="4.73719">
        <ele>330.73126</ele>
        <time>2023-07-07T14:20:18.000Z</time>
      </trkpt>
      <trkpt lat="45.82733" lon="4.73719">
        <ele>330.9216</ele>
        <time>2023-07-07T14:20:19.000Z</time>
      </trkpt>
      <trkpt lat="45.82728" lon="4.7372">
        <ele>331.13104</ele>
        <time>2023-07-07T14:20:20.000Z</time>
      </trkpt>
      <trkpt lat="45.82724" lon="4.7372">
        <ele>331.31729</ele>
        <time>2023-07-07T14:20:21.000Z</time>
      </trkpt>
      <trkpt lat="45.82719" lon="4.7372">
        <ele>331.51361</ele>
        <time>2023-07-07T14:20:22.000Z</time>
      </trkpt>
      <trkpt lat="45.82715" lon="4.7372">
        <ele>331.7002</ele>
        <time>2023-07-07T14:20:23.000Z</time>
      </trkpt>
      <trkpt lat="45.82711" lon="4.7372">
        <ele>331.89899</ele>
        <time>2023-07-07T14:20:24.000Z</time>
      </trkpt>
      <trkpt lat="45.82706" lon="4.7372">
        <ele>332.09366</ele>
        <time>2023-07-07T14:20:25.000Z</time>
      </trkpt>
      <trkpt lat="45.82702" lon="4.7372">
        <ele>332.30872</ele>
        <time>2023-07-07T14:20:26.000Z</time>
      </trkpt>
      <trkpt lat="45.82698" lon="4.73719">
        <ele>332.51517</ele>
        <time>2023-07-07T14:20:27.000Z</time>
      </trkpt>
      <trkpt lat="45.82693" lon="4.7372">
        <ele>332.74225</ele>
        <time>2023-07-07T14:20:28.000Z</time>
      </trkpt>
      <trkpt lat="45.82689" lon="4.7372">
        <ele>332.95047</ele>
        <time>2023-07-07T14:20:29.000Z</time>
      </trkpt>
      <trkpt lat="45.82685" lon="4.73719">
        <ele>333.15915</ele>
        <time>2023-07-07T14:20:30.000Z</time>
      </trkpt>
      <trkpt lat="45.82681" lon="4.73719">
        <ele>333.35513</ele>
        <time>2023-07-07T14:20:31.000Z</time>
      </trkpt>
      <trkpt lat="45.82677" lon="4.73719">
        <ele>333.55643</ele>
        <time>2023-07-07T14:20:32.000Z</time>
      </trkpt>
      <trkpt lat="45.82673" lon="4.73718">
        <ele>333.73138</ele>
        <time>2023-07-07T14:20:33.000Z</time>
      </trkpt>
      <trkpt lat="45.82669" lon="4.73718">
        <ele>333.89761</ele>
        <time>2023-07-07T14:20:34.000Z</time>
      </trkpt>
      <trkpt lat="45.82665" lon="4.73718">
        <ele>334.05963</ele>
        <time>2023-07-07T14:20:35.000Z</time>
      </trkpt>
      <trkpt lat="45.82661" lon="4.73718">
        <ele>334.21259</ele>
        <time>2023-07-07T14:20:36.000Z</time>
      </trkpt>
      <trkpt lat="45.82657" lon="4.73718">
        <ele>334.34814</ele>
        <time>2023-07-07T14:20:37.000Z</time>
      </trkpt>
      <trkpt lat="45.82653" lon="4.73717">
        <ele>334.39731</ele>
        <time>2023-07-07T14:20:38.000Z</time>
      </trkpt>
      <trkpt lat="45.82649" lon="4.73717">
        <ele>334.41986</ele>
        <time>2023-07-07T14:20:39.000Z</time>
      </trkpt>
      <trkpt lat="45.82645" lon="4.73717">
        <ele>334.43976</ele>
        <time>2023-07-07T14:20:40.000Z</time>
      </trkpt>
      <trkpt lat="45.82641" lon="4.73717">
        <ele>334.53812</ele>
        <time>2023-07-07T14:20:41.000Z</time>
      </trkpt>
      <trkpt lat="45.82637" lon="4.73717">
        <ele>334.58551</ele>
        <time>2023-07-07T14:20:42.000Z</time>
      </trkpt>
      <trkpt lat="45.82634" lon="4.73717">
        <ele>334.62848</ele>
        <time>2023-07-07T14:20:43.000Z</time>
      </trkpt>
      <trkpt lat="45.8263" lon="4.73717">
        <ele>334.64008</ele>
        <time>2023-07-07T14:20:44.000Z</time>
      </trkpt>
      <trkpt lat="45.82627" lon="4.73717">
        <ele>334.6431</ele>
        <time>2023-07-07T14:20:45.000Z</time>
      </trkpt>
      <trkpt lat="45.82624" lon="4.73717">
        <ele>334.6405</ele>
        <time>2023-07-07T14:20:46.000Z</time>
      </trkpt>
      <trkpt lat="45.82621" lon="4.73717">
        <ele>334.64151</ele>
        <time>2023-07-07T14:20:47.000Z</time>
      </trkpt>
      <trkpt lat="45.82617" lon="4.73717">
        <ele>334.62384</ele>
        <time>2023-07-07T14:20:48.000Z</time>
      </trkpt>
      <trkpt lat="45.82614" lon="4.73717">
        <ele>334.59265</ele>
        <time>2023-07-07T14:20:49.000Z</time>
      </trkpt>
      <trkpt lat="45.82609" lon="4.73717">
        <ele>334.53436</ele>
        <time>2023-07-07T14:20:50.000Z</time>
      </trkpt>
      <trkpt lat="45.82604" lon="4.73718">
        <ele>334.47522</ele>
        <time>2023-07-07T14:20:51.000Z</time>
      </trkpt>
      <trkpt lat="45.826" lon="4.73719">
        <ele>334.39423</ele>
        <time>2023-07-07T14:20:52.000Z</time>
      </trkpt>
      <trkpt lat="45.82595" lon="4.73721">
        <ele>334.31207</ele>
        <time>2023-07-07T14:20:53.000Z</time>
      </trkpt>
      <trkpt lat="45.82591" lon="4.73724">
        <ele>334.20023</ele>
        <time>2023-07-07T14:20:54.000Z</time>
      </trkpt>
      <trkpt lat="45.82586" lon="4.73728">
        <ele>334.07263</ele>
        <time>2023-07-07T14:20:55.000Z</time>
      </trkpt>
      <trkpt lat="45.82582" lon="4.73732">
        <ele>333.93771</ele>
        <time>2023-07-07T14:20:56.000Z</time>
      </trkpt>
      <trkpt lat="45.82581" lon="4.7374">
        <ele>333.83655</ele>
        <time>2023-07-07T14:20:57.000Z</time>
      </trkpt>
      <trkpt lat="45.82579" lon="4.73747">
        <ele>333.80783</ele>
        <time>2023-07-07T14:20:58.000Z</time>
      </trkpt>
      <trkpt lat="45.82578" lon="4.73753">
        <ele>333.78891</ele>
        <time>2023-07-07T14:20:59.000Z</time>
      </trkpt>
      <trkpt lat="45.82576" lon="4.73759">
        <ele>333.77646</ele>
        <time>2023-07-07T14:21:00.000Z</time>
      </trkpt>
      <trkpt lat="45.82574" lon="4.73765">
        <ele>333.67737</ele>
        <time>2023-07-07T14:21:01.000Z</time>
      </trkpt>
      <trkpt lat="45.82573" lon="4.73771">
        <ele>333.62274</ele>
        <time>2023-07-07T14:21:02.000Z</time>
      </trkpt>
      <trkpt lat="45.8257" lon="4.73775">
        <ele>333.56393</ele>
        <time>2023-07-07T14:21:03.000Z</time>
      </trkpt>
      <trkpt lat="45.82568" lon="4.73781">
        <ele>333.50757</ele>
        <time>2023-07-07T14:21:04.000Z</time>
      </trkpt>
      <trkpt lat="45.82565" lon="4.73788">
        <ele>333.44138</ele>
        <time>2023-07-07T14:21:05.000Z</time>
      </trkpt>
      <trkpt lat="45.82563" lon="4.73792">
        <ele>333.3736</ele>
        <time>2023-07-07T14:21:06.000Z</time>
      </trkpt>
      <trkpt lat="45.82558" lon="4.73795">
        <ele>333.34015</ele>
        <time>2023-07-07T14:21:07.000Z</time>
      </trkpt>
      <trkpt lat="45.82558" lon="4.73801">
        <ele>333.27664</ele>
        <time>2023-07-07T14:21:08.000Z</time>
      </trkpt>
      <trkpt lat="45.82557" lon="4.73809">
        <ele>333.22528</ele>
        <time>2023-07-07T14:21:09.000Z</time>
      </trkpt>
      <trkpt lat="45.82554" lon="4.73815">
        <ele>333.19476</ele>
        <time>2023-07-07T14:21:10.000Z</time>
      </trkpt>
      <trkpt lat="45.82552" lon="4.73822">
        <ele>333.17801</ele>
        <time>2023-07-07T14:21:11.000Z</time>
      </trkpt>
      <trkpt lat="45.82549" lon="4.73829">
        <ele>333.13214</ele>
        <time>2023-07-07T14:21:12.000Z</time>
      </trkpt>
      <trkpt lat="45.82548" lon="4.73834">
        <ele>333.10657</ele>
        <time>2023-07-07T14:21:13.000Z</time>
      </trkpt>
      <trkpt lat="45.82546" lon="4.7384">
        <ele>333.15829</ele>
        <time>2023-07-07T14:21:14.000Z</time>
      </trkpt>
      <trkpt lat="45.82544" lon="4.73846">
        <ele>333.22052</ele>
        <time>2023-07-07T14:21:15.000Z</time>
      </trkpt>
      <trkpt lat="45.82542" lon="4.73851">
        <ele>333.28656</ele>
        <time>2023-07-07T14:21:16.000Z</time>
      </trkpt>
      <trkpt lat="45.8254" lon="4.73857">
        <ele>333.32687</ele>
        <time>2023-07-07T14:21:17.000Z</time>
      </trkpt>
      <trkpt lat="45.82537" lon="4.73862">
        <ele>333.3501</ele>
        <time>2023-07-07T14:21:18.000Z</time>
      </trkpt>
      <trkpt lat="45.82535" lon="4.73868">
        <ele>333.38379</ele>
        <time>2023-07-07T14:21:19.000Z</time>
      </trkpt>
      <trkpt lat="45.82532" lon="4.73873">
        <ele>333.42325</ele>
        <time>2023-07-07T14:21:20.000Z</time>
      </trkpt>
      <trkpt lat="45.82531" lon="4.73879">
        <ele>333.47174</ele>
        <time>2023-07-07T14:21:21.000Z</time>
      </trkpt>
      <trkpt lat="45.82528" lon="4.73885">
        <ele>333.54285</ele>
        <time>2023-07-07T14:21:22.000Z</time>
      </trkpt>
      <trkpt lat="45.82526" lon="4.73891">
        <ele>333.61261</ele>
        <time>2023-07-07T14:21:23.000Z</time>
      </trkpt>
      <trkpt lat="45.82524" lon="4.73896">
        <ele>333.65106</ele>
        <time>2023-07-07T14:21:24.000Z</time>
      </trkpt>
      <trkpt lat="45.82523" lon="4.73902">
        <ele>333.67606</ele>
        <time>2023-07-07T14:21:25.000Z</time>
      </trkpt>
      <trkpt lat="45.8252" lon="4.73907">
        <ele>333.78802</ele>
        <time>2023-07-07T14:21:26.000Z</time>
      </trkpt>
      <trkpt lat="45.82518" lon="4.73912">
        <ele>333.84836</ele>
        <time>2023-07-07T14:21:27.000Z</time>
      </trkpt>
      <trkpt lat="45.82516" lon="4.73918">
        <ele>333.922</ele>
        <time>2023-07-07T14:21:28.000Z</time>
      </trkpt>
      <trkpt lat="45.82514" lon="4.73923">
        <ele>334.00714</ele>
        <time>2023-07-07T14:21:29.000Z</time>
      </trkpt>
      <trkpt lat="45.82511" lon="4.73926">
        <ele>334.09177</ele>
        <time>2023-07-07T14:21:30.000Z</time>
      </trkpt>
      <trkpt lat="45.82507" lon="4.73928">
        <ele>334.15009</ele>
        <time>2023-07-07T14:21:31.000Z</time>
      </trkpt>
      <trkpt lat="45.82503" lon="4.73924">
        <ele>334.21796</ele>
        <time>2023-07-07T14:21:32.000Z</time>
      </trkpt>
      <trkpt lat="45.825" lon="4.73919">
        <ele>334.2818</ele>
        <time>2023-07-07T14:21:33.000Z</time>
      </trkpt>
      <trkpt lat="45.825" lon="4.73912">
        <ele>334.26877</ele>
        <time>2023-07-07T14:21:34.000Z</time>
      </trkpt>
      <trkpt lat="45.82501" lon="4.73906">
        <ele>334.25803</ele>
        <time>2023-07-07T14:21:35.000Z</time>
      </trkpt>
      <trkpt lat="45.82504" lon="4.73899">
        <ele>334.23969</ele>
        <time>2023-07-07T14:21:36.000Z</time>
      </trkpt>
      <trkpt lat="45.82507" lon="4.73893">
        <ele>334.22552</ele>
        <time>2023-07-07T14:21:37.000Z</time>
      </trkpt>
      <trkpt lat="45.82511" lon="4.73889">
        <ele>334.23239</ele>
        <time>2023-07-07T14:21:38.000Z</time>
      </trkpt>
      <trkpt lat="45.82514" lon="4.73885">
        <ele>334.24609</ele>
        <time>2023-07-07T14:21:39.000Z</time>
      </trkpt>
      <trkpt lat="45.82518" lon="4.73881">
        <ele>334.25198</ele>
        <time>2023-07-07T14:21:40.000Z</time>
      </trkpt>
      <trkpt lat="45.82521" lon="4.73876">
        <ele>334.25552</ele>
        <time>2023-07-07T14:21:41.000Z</time>
      </trkpt>
      <trkpt lat="45.82523" lon="4.73871">
        <ele>334.24249</ele>
        <time>2023-07-07T14:21:42.000Z</time>
      </trkpt>
      <trkpt lat="45.82526" lon="4.73866">
        <ele>334.26917</ele>
        <time>2023-07-07T14:21:43.000Z</time>
      </trkpt>
      <trkpt lat="45.82529" lon="4.73861">
        <ele>334.33453</ele>
        <time>2023-07-07T14:21:44.000Z</time>
      </trkpt>
      <trkpt lat="45.82531" lon="4.73855">
        <ele>334.41949</ele>
        <time>2023-07-07T14:21:45.000Z</time>
      </trkpt>
      <trkpt lat="45.82532" lon="4.73849">
        <ele>334.41302</ele>
        <time>2023-07-07T14:21:46.000Z</time>
      </trkpt>
      <trkpt lat="45.82533" lon="4.73842">
        <ele>334.43561</ele>
        <time>2023-07-07T14:21:47.000Z</time>
      </trkpt>
      <trkpt lat="45.82534" lon="4.73835">
        <ele>334.45581</ele>
        <time>2023-07-07T14:21:48.000Z</time>
      </trkpt>
      <trkpt lat="45.82535" lon="4.73828">
        <ele>334.47614</ele>
        <time>2023-07-07T14:21:49.000Z</time>
      </trkpt>
      <trkpt lat="45.82535" lon="4.73821">
        <ele>334.49164</ele>
        <time>2023-07-07T14:21:50.000Z</time>
      </trkpt>
      <trkpt lat="45.82534" lon="4.73814">
        <ele>334.52515</ele>
        <time>2023-07-07T14:21:51.000Z</time>
      </trkpt>
      <trkpt lat="45.82532" lon="4.73808">
        <ele>334.58466</ele>
        <time>2023-07-07T14:21:52.000Z</time>
      </trkpt>
      <trkpt lat="45.8253" lon="4.73802">
        <ele>334.64838</ele>
        <time>2023-07-07T14:21:53.000Z</time>
      </trkpt>
      <trkpt lat="45.82527" lon="4.73796">
        <ele>334.72913</ele>
        <time>2023-07-07T14:21:54.000Z</time>
      </trkpt>
      <trkpt lat="45.82525" lon="4.7379">
        <ele>334.819</ele>
        <time>2023-07-07T14:21:55.000Z</time>
      </trkpt>
      <trkpt lat="45.82523" lon="4.73785">
        <ele>334.92361</ele>
        <time>2023-07-07T14:21:56.000Z</time>
      </trkpt>
      <trkpt lat="45.8252" lon="4.73779">
        <ele>335.0329</ele>
        <time>2023-07-07T14:21:57.000Z</time>
      </trkpt>
      <trkpt lat="45.82518" lon="4.73773">
        <ele>335.12656</ele>
        <time>2023-07-07T14:21:58.000Z</time>
      </trkpt>
      <trkpt lat="45.82515" lon="4.73768">
        <ele>335.20093</ele>
        <time>2023-07-07T14:21:59.000Z</time>
      </trkpt>
      <trkpt lat="45.82513" lon="4.73763">
        <ele>335.27261</ele>
        <time>2023-07-07T14:22:00.000Z</time>
      </trkpt>
      <trkpt lat="45.8251" lon="4.73758">
        <ele>335.35687</ele>
        <time>2023-07-07T14:22:01.000Z</time>
      </trkpt>
      <trkpt lat="45.82508" lon="4.73752">
        <ele>335.44476</ele>
        <time>2023-07-07T14:22:02.000Z</time>
      </trkpt>
      <trkpt lat="45.82505" lon="4.73747">
        <ele>335.50034</ele>
        <time>2023-07-07T14:22:03.000Z</time>
      </trkpt>
      <trkpt lat="45.82502" lon="4.73742">
        <ele>335.56912</ele>
        <time>2023-07-07T14:22:04.000Z</time>
      </trkpt>
      <trkpt lat="45.82499" lon="4.73738">
        <ele>335.65546</ele>
        <time>2023-07-07T14:22:05.000Z</time>
      </trkpt>
      <trkpt lat="45.82497" lon="4.73733">
        <ele>335.77292</ele>
        <time>2023-07-07T14:22:06.000Z</time>
      </trkpt>
      <trkpt lat="45.82494" lon="4.73728">
        <ele>335.88885</ele>
        <time>2023-07-07T14:22:07.000Z</time>
      </trkpt>
      <trkpt lat="45.82491" lon="4.73723">
        <ele>336.00922</ele>
        <time>2023-07-07T14:22:08.000Z</time>
      </trkpt>
      <trkpt lat="45.82488" lon="4.73719">
        <ele>336.13513</ele>
        <time>2023-07-07T14:22:09.000Z</time>
      </trkpt>
      <trkpt lat="45.82485" lon="4.73714">
        <ele>336.27713</ele>
        <time>2023-07-07T14:22:10.000Z</time>
      </trkpt>
      <trkpt lat="45.82482" lon="4.73709">
        <ele>336.41693</ele>
        <time>2023-07-07T14:22:11.000Z</time>
      </trkpt>
      <trkpt lat="45.82479" lon="4.73705">
        <ele>336.5816</ele>
        <time>2023-07-07T14:22:12.000Z</time>
      </trkpt>
      <trkpt lat="45.82476" lon="4.737">
        <ele>336.76935</ele>
        <time>2023-07-07T14:22:13.000Z</time>
      </trkpt>
      <trkpt lat="45.82474" lon="4.73696">
        <ele>336.94525</ele>
        <time>2023-07-07T14:22:14.000Z</time>
      </trkpt>
      <trkpt lat="45.82471" lon="4.73691">
        <ele>337.11734</ele>
        <time>2023-07-07T14:22:15.000Z</time>
      </trkpt>
      <trkpt lat="45.82468" lon="4.73686">
        <ele>337.30377</ele>
        <time>2023-07-07T14:22:16.000Z</time>
      </trkpt>
      <trkpt lat="45.82466" lon="4.73681">
        <ele>337.4696</ele>
        <time>2023-07-07T14:22:17.000Z</time>
      </trkpt>
      <trkpt lat="45.82463" lon="4.73676">
        <ele>337.66324</ele>
        <time>2023-07-07T14:22:18.000Z</time>
      </trkpt>
      <trkpt lat="45.8246" lon="4.73671">
        <ele>337.85156</ele>
        <time>2023-07-07T14:22:19.000Z</time>
      </trkpt>
      <trkpt lat="45.82458" lon="4.73666">
        <ele>338.05548</ele>
        <time>2023-07-07T14:22:20.000Z</time>
      </trkpt>
      <trkpt lat="45.82455" lon="4.73661">
        <ele>338.24268</ele>
        <time>2023-07-07T14:22:21.000Z</time>
      </trkpt>
      <trkpt lat="45.82453" lon="4.73656">
        <ele>338.42087</ele>
        <time>2023-07-07T14:22:22.000Z</time>
      </trkpt>
      <trkpt lat="45.8245" lon="4.73651">
        <ele>338.599</ele>
        <time>2023-07-07T14:22:23.000Z</time>
      </trkpt>
      <trkpt lat="45.82448" lon="4.73646">
        <ele>338.7966</ele>
        <time>2023-07-07T14:22:24.000Z</time>
      </trkpt>
      <trkpt lat="45.82446" lon="4.73641">
        <ele>338.97159</ele>
        <time>2023-07-07T14:22:25.000Z</time>
      </trkpt>
      <trkpt lat="45.82444" lon="4.73637">
        <ele>339.13443</ele>
        <time>2023-07-07T14:22:26.000Z</time>
      </trkpt>
      <trkpt lat="45.82441" lon="4.73632">
        <ele>339.28204</ele>
        <time>2023-07-07T14:22:27.000Z</time>
      </trkpt>
      <trkpt lat="45.82439" lon="4.73628">
        <ele>339.42743</ele>
        <time>2023-07-07T14:22:28.000Z</time>
      </trkpt>
      <trkpt lat="45.82438" lon="4.73623">
        <ele>339.52127</ele>
        <time>2023-07-07T14:22:29.000Z</time>
      </trkpt>
      <trkpt lat="45.82436" lon="4.73618">
        <ele>339.58771</ele>
        <time>2023-07-07T14:22:30.000Z</time>
      </trkpt>
      <trkpt lat="45.82435" lon="4.73613">
        <ele>339.61761</ele>
        <time>2023-07-07T14:22:31.000Z</time>
      </trkpt>
      <trkpt lat="45.82433" lon="4.73608">
        <ele>339.55176</ele>
        <time>2023-07-07T14:22:32.000Z</time>
      </trkpt>
      <trkpt lat="45.82431" lon="4.73604">
        <ele>339.45251</ele>
        <time>2023-07-07T14:22:33.000Z</time>
      </trkpt>
      <trkpt lat="45.82429" lon="4.736">
        <ele>339.37277</ele>
        <time>2023-07-07T14:22:34.000Z</time>
      </trkpt>
      <trkpt lat="45.82427" lon="4.73596">
        <ele>339.42273</ele>
        <time>2023-07-07T14:22:35.000Z</time>
      </trkpt>
      <trkpt lat="45.82425" lon="4.73592">
        <ele>339.43277</ele>
        <time>2023-07-07T14:22:36.000Z</time>
      </trkpt>
      <trkpt lat="45.82423" lon="4.73588">
        <ele>339.45761</ele>
        <time>2023-07-07T14:22:37.000Z</time>
      </trkpt>
      <trkpt lat="45.82421" lon="4.73583">
        <ele>339.45087</ele>
        <time>2023-07-07T14:22:38.000Z</time>
      </trkpt>
      <trkpt lat="45.82419" lon="4.73579">
        <ele>339.47351</ele>
        <time>2023-07-07T14:22:39.000Z</time>
      </trkpt>
      <trkpt lat="45.82417" lon="4.73575">
        <ele>339.47174</ele>
        <time>2023-07-07T14:22:40.000Z</time>
      </trkpt>
      <trkpt lat="45.82415" lon="4.73571">
        <ele>339.4696</ele>
        <time>2023-07-07T14:22:41.000Z</time>
      </trkpt>
      <trkpt lat="45.82413" lon="4.73567">
        <ele>339.41205</ele>
        <time>2023-07-07T14:22:42.000Z</time>
      </trkpt>
      <trkpt lat="45.82411" lon="4.73563">
        <ele>339.31055</ele>
        <time>2023-07-07T14:22:43.000Z</time>
      </trkpt>
      <trkpt lat="45.82409" lon="4.73559">
        <ele>339.32465</ele>
        <time>2023-07-07T14:22:44.000Z</time>
      </trkpt>
      <trkpt lat="45.82407" lon="4.73556">
        <ele>339.33066</ele>
        <time>2023-07-07T14:22:45.000Z</time>
      </trkpt>
      <trkpt lat="45.82406" lon="4.73552">
        <ele>339.34512</ele>
        <time>2023-07-07T14:22:46.000Z</time>
      </trkpt>
      <trkpt lat="45.82404" lon="4.73548">
        <ele>339.37473</ele>
        <time>2023-07-07T14:22:47.000Z</time>
      </trkpt>
      <trkpt lat="45.82402" lon="4.73544">
        <ele>339.42807</ele>
        <time>2023-07-07T14:22:48.000Z</time>
      </trkpt>
      <trkpt lat="45.824" lon="4.7354">
        <ele>339.49161</ele>
        <time>2023-07-07T14:22:49.000Z</time>
      </trkpt>
      <trkpt lat="45.82398" lon="4.73536">
        <ele>339.48846</ele>
        <time>2023-07-07T14:22:50.000Z</time>
      </trkpt>
      <trkpt lat="45.82397" lon="4.73533">
        <ele>339.47662</ele>
        <time>2023-07-07T14:22:51.000Z</time>
      </trkpt>
      <trkpt lat="45.82395" lon="4.73529">
        <ele>339.52011</ele>
        <time>2023-07-07T14:22:52.000Z</time>
      </trkpt>
      <trkpt lat="45.82393" lon="4.73525">
        <ele>339.72092</ele>
        <time>2023-07-07T14:22:53.000Z</time>
      </trkpt>
      <trkpt lat="45.82391" lon="4.73521">
        <ele>339.89716</ele>
        <time>2023-07-07T14:22:54.000Z</time>
      </trkpt>
      <trkpt lat="45.82389" lon="4.73517">
        <ele>339.92776</ele>
        <time>2023-07-07T14:22:55.000Z</time>
      </trkpt>
      <trkpt lat="45.82388" lon="4.73513">
        <ele>339.94815</ele>
        <time>2023-07-07T14:22:56.000Z</time>
      </trkpt>
      <trkpt lat="45.82386" lon="4.73508">
        <ele>339.98297</ele>
        <time>2023-07-07T14:22:57.000Z</time>
      </trkpt>
      <trkpt lat="45.82385" lon="4.73504">
        <ele>340.01505</ele>
        <time>2023-07-07T14:22:58.000Z</time>
      </trkpt>
      <trkpt lat="45.82383" lon="4.735">
        <ele>340.03186</ele>
        <time>2023-07-07T14:22:59.000Z</time>
      </trkpt>
      <trkpt lat="45.82381" lon="4.73496">
        <ele>340.04877</ele>
        <time>2023-07-07T14:23:00.000Z</time>
      </trkpt>
      <trkpt lat="45.82379" lon="4.73492">
        <ele>340.07916</ele>
        <time>2023-07-07T14:23:01.000Z</time>
      </trkpt>
      <trkpt lat="45.82377" lon="4.73488">
        <ele>340.17303</ele>
        <time>2023-07-07T14:23:02.000Z</time>
      </trkpt>
      <trkpt lat="45.82375" lon="4.73484">
        <ele>340.32748</ele>
        <time>2023-07-07T14:23:03.000Z</time>
      </trkpt>
      <trkpt lat="45.82373" lon="4.7348">
        <ele>340.35989</ele>
        <time>2023-07-07T14:23:04.000Z</time>
      </trkpt>
      <trkpt lat="45.82371" lon="4.73476">
        <ele>340.4104</ele>
        <time>2023-07-07T14:23:05.000Z</time>
      </trkpt>
      <trkpt lat="45.82369" lon="4.73472">
        <ele>340.44684</ele>
        <time>2023-07-07T14:23:06.000Z</time>
      </trkpt>
      <trkpt lat="45.82367" lon="4.73468">
        <ele>340.4686</ele>
        <time>2023-07-07T14:23:07.000Z</time>
      </trkpt>
      <trkpt lat="45.82365" lon="4.73463">
        <ele>340.50262</ele>
        <time>2023-07-07T14:23:08.000Z</time>
      </trkpt>
      <trkpt lat="45.82363" lon="4.73459">
        <ele>340.54669</ele>
        <time>2023-07-07T14:23:09.000Z</time>
      </trkpt>
      <trkpt lat="45.82361" lon="4.73455">
        <ele>340.66815</ele>
        <time>2023-07-07T14:23:10.000Z</time>
      </trkpt>
      <trkpt lat="45.82359" lon="4.73452">
        <ele>340.82013</ele>
        <time>2023-07-07T14:23:11.000Z</time>
      </trkpt>
      <trkpt lat="45.82358" lon="4.73448">
        <ele>341.01227</ele>
        <time>2023-07-07T14:23:12.000Z</time>
      </trkpt>
      <trkpt lat="45.82356" lon="4.73444">
        <ele>341.0463</ele>
        <time>2023-07-07T14:23:13.000Z</time>
      </trkpt>
      <trkpt lat="45.82354" lon="4.7344">
        <ele>341.08905</ele>
        <time>2023-07-07T14:23:14.000Z</time>
      </trkpt>
      <trkpt lat="45.82352" lon="4.73436">
        <ele>341.13226</ele>
        <time>2023-07-07T14:23:15.000Z</time>
      </trkpt>
      <trkpt lat="45.8235" lon="4.73432">
        <ele>341.19064</ele>
        <time>2023-07-07T14:23:16.000Z</time>
      </trkpt>
      <trkpt lat="45.82347" lon="4.73427">
        <ele>341.2283</ele>
        <time>2023-07-07T14:23:17.000Z</time>
      </trkpt>
      <trkpt lat="45.82345" lon="4.73423">
        <ele>341.22787</ele>
        <time>2023-07-07T14:23:18.000Z</time>
      </trkpt>
      <trkpt lat="45.82343" lon="4.73419">
        <ele>341.23071</ele>
        <time>2023-07-07T14:23:19.000Z</time>
      </trkpt>
      <trkpt lat="45.82341" lon="4.73415">
        <ele>341.27292</ele>
        <time>2023-07-07T14:23:20.000Z</time>
      </trkpt>
      <trkpt lat="45.82339" lon="4.73411">
        <ele>341.28589</ele>
        <time>2023-07-07T14:23:21.000Z</time>
      </trkpt>
      <trkpt lat="45.82336" lon="4.73407">
        <ele>341.28442</ele>
        <time>2023-07-07T14:23:22.000Z</time>
      </trkpt>
      <trkpt lat="45.82334" lon="4.73404">
        <ele>341.2561</ele>
        <time>2023-07-07T14:23:23.000Z</time>
      </trkpt>
      <trkpt lat="45.82332" lon="4.73399">
        <ele>341.20062</ele>
        <time>2023-07-07T14:23:24.000Z</time>
      </trkpt>
      <trkpt lat="45.8233" lon="4.73395">
        <ele>341.14252</ele>
        <time>2023-07-07T14:23:25.000Z</time>
      </trkpt>
      <trkpt lat="45.82328" lon="4.73391">
        <ele>341.09796</ele>
        <time>2023-07-07T14:23:26.000Z</time>
      </trkpt>
      <trkpt lat="45.82325" lon="4.73387">
        <ele>341.05298</ele>
        <time>2023-07-07T14:23:27.000Z</time>
      </trkpt>
      <trkpt lat="45.82323" lon="4.73384">
        <ele>340.97479</ele>
        <time>2023-07-07T14:23:28.000Z</time>
      </trkpt>
      <trkpt lat="45.82321" lon="4.7338">
        <ele>340.92859</ele>
        <time>2023-07-07T14:23:29.000Z</time>
      </trkpt>
      <trkpt lat="45.82318" lon="4.73376">
        <ele>340.88336</ele>
        <time>2023-07-07T14:23:30.000Z</time>
      </trkpt>
      <trkpt lat="45.82316" lon="4.73372">
        <ele>340.85956</ele>
        <time>2023-07-07T14:23:31.000Z</time>
      </trkpt>
      <trkpt lat="45.82315" lon="4.73367">
        <ele>340.80524</ele>
        <time>2023-07-07T14:23:32.000Z</time>
      </trkpt>
      <trkpt lat="45.82313" lon="4.73363">
        <ele>340.77866</ele>
        <time>2023-07-07T14:23:33.000Z</time>
      </trkpt>
      <trkpt lat="45.82311" lon="4.73359">
        <ele>340.7442</ele>
        <time>2023-07-07T14:23:34.000Z</time>
      </trkpt>
      <trkpt lat="45.8231" lon="4.73354">
        <ele>340.73752</ele>
        <time>2023-07-07T14:23:35.000Z</time>
      </trkpt>
      <trkpt lat="45.82308" lon="4.73349">
        <ele>340.75427</ele>
        <time>2023-07-07T14:23:36.000Z</time>
      </trkpt>
      <trkpt lat="45.82307" lon="4.73345">
        <ele>340.78546</ele>
        <time>2023-07-07T14:23:37.000Z</time>
      </trkpt>
      <trkpt lat="45.82306" lon="4.7334">
        <ele>340.86084</ele>
        <time>2023-07-07T14:23:38.000Z</time>
      </trkpt>
      <trkpt lat="45.82305" lon="4.73335">
        <ele>340.92712</ele>
        <time>2023-07-07T14:23:39.000Z</time>
      </trkpt>
      <trkpt lat="45.82304" lon="4.7333">
        <ele>340.96924</ele>
        <time>2023-07-07T14:23:40.000Z</time>
      </trkpt>
      <trkpt lat="45.82303" lon="4.73325">
        <ele>341.02142</ele>
        <time>2023-07-07T14:23:41.000Z</time>
      </trkpt>
      <trkpt lat="45.82302" lon="4.7332">
        <ele>341.07281</ele>
        <time>2023-07-07T14:23:42.000Z</time>
      </trkpt>
      <trkpt lat="45.823" lon="4.73316">
        <ele>341.14166</ele>
        <time>2023-07-07T14:23:43.000Z</time>
      </trkpt>
      <trkpt lat="45.82299" lon="4.73311">
        <ele>341.2139</ele>
        <time>2023-07-07T14:23:44.000Z</time>
      </trkpt>
      <trkpt lat="45.82298" lon="4.73306">
        <ele>341.29532</ele>
        <time>2023-07-07T14:23:45.000Z</time>
      </trkpt>
      <trkpt lat="45.82296" lon="4.73301">
        <ele>341.36499</ele>
        <time>2023-07-07T14:23:46.000Z</time>
      </trkpt>
      <trkpt lat="45.82295" lon="4.73296">
        <ele>341.43451</ele>
        <time>2023-07-07T14:23:47.000Z</time>
      </trkpt>
      <trkpt lat="45.82293" lon="4.73292">
        <ele>341.50519</ele>
        <time>2023-07-07T14:23:48.000Z</time>
      </trkpt>
      <trkpt lat="45.82291" lon="4.73287">
        <ele>341.52545</ele>
        <time>2023-07-07T14:23:49.000Z</time>
      </trkpt>
      <trkpt lat="45.8229" lon="4.73283">
        <ele>341.49271</ele>
        <time>2023-07-07T14:23:50.000Z</time>
      </trkpt>
      <trkpt lat="45.82289" lon="4.73278">
        <ele>341.42401</ele>
        <time>2023-07-07T14:23:51.000Z</time>
      </trkpt>
      <trkpt lat="45.82287" lon="4.73274">
        <ele>341.362</ele>
        <time>2023-07-07T14:23:52.000Z</time>
      </trkpt>
      <trkpt lat="45.82283" lon="4.73272">
        <ele>341.43469</ele>
        <time>2023-07-07T14:23:53.000Z</time>
      </trkpt>
      <trkpt lat="45.82279" lon="4.73272">
        <ele>341.48099</ele>
        <time>2023-07-07T14:23:54.000Z</time>
      </trkpt>
      <trkpt lat="45.82275" lon="4.73275">
        <ele>341.49033</ele>
        <time>2023-07-07T14:23:55.000Z</time>
      </trkpt>
      <trkpt lat="45.82272" lon="4.73278">
        <ele>341.45651</ele>
        <time>2023-07-07T14:23:56.000Z</time>
      </trkpt>
      <trkpt lat="45.82268" lon="4.73281">
        <ele>341.41345</ele>
        <time>2023-07-07T14:23:57.000Z</time>
      </trkpt>
      <trkpt lat="45.82263" lon="4.73286">
        <ele>341.34143</ele>
        <time>2023-07-07T14:23:58.000Z</time>
      </trkpt>
      <trkpt lat="45.8226" lon="4.73289">
        <ele>341.25864</ele>
        <time>2023-07-07T14:23:59.000Z</time>
      </trkpt>
      <trkpt lat="45.82255" lon="4.73291">
        <ele>341.16055</ele>
        <time>2023-07-07T14:24:00.000Z</time>
      </trkpt>
      <trkpt lat="45.82252" lon="4.73294">
        <ele>341.06915</ele>
        <time>2023-07-07T14:24:01.000Z</time>
      </trkpt>
      <trkpt lat="45.82247" lon="4.73294">
        <ele>340.94067</ele>
        <time>2023-07-07T14:24:02.000Z</time>
      </trkpt>
      <trkpt lat="45.82243" lon="4.73296">
        <ele>340.79611</ele>
        <time>2023-07-07T14:24:03.000Z</time>
      </trkpt>
      <trkpt lat="45.82239" lon="4.73298">
        <ele>340.64886</ele>
        <time>2023-07-07T14:24:04.000Z</time>
      </trkpt>
      <trkpt lat="45.82235" lon="4.733">
        <ele>340.48434</ele>
        <time>2023-07-07T14:24:05.000Z</time>
      </trkpt>
      <trkpt lat="45.8223" lon="4.73302">
        <ele>340.32782</ele>
        <time>2023-07-07T14:24:06.000Z</time>
      </trkpt>
      <trkpt lat="45.82226" lon="4.73304">
        <ele>340.16824</ele>
        <time>2023-07-07T14:24:07.000Z</time>
      </trkpt>
      <trkpt lat="45.82222" lon="4.73306">
        <ele>340.00378</ele>
        <time>2023-07-07T14:24:08.000Z</time>
      </trkpt>
      <trkpt lat="45.82217" lon="4.73308">
        <ele>339.85349</ele>
        <time>2023-07-07T14:24:09.000Z</time>
      </trkpt>
      <trkpt lat="45.82213" lon="4.73311">
        <ele>339.69882</ele>
        <time>2023-07-07T14:24:10.000Z</time>
      </trkpt>
      <trkpt lat="45.82208" lon="4.73313">
        <ele>339.52795</ele>
        <time>2023-07-07T14:24:11.000Z</time>
      </trkpt>
      <trkpt lat="45.82204" lon="4.73315">
        <ele>339.35645</ele>
        <time>2023-07-07T14:24:12.000Z</time>
      </trkpt>
      <trkpt lat="45.822" lon="4.73317">
        <ele>339.15692</ele>
        <time>2023-07-07T14:24:13.000Z</time>
      </trkpt>
      <trkpt lat="45.82196" lon="4.73319">
        <ele>338.9628</ele>
        <time>2023-07-07T14:24:14.000Z</time>
      </trkpt>
      <trkpt lat="45.82192" lon="4.7332">
        <ele>338.76715</ele>
        <time>2023-07-07T14:24:15.000Z</time>
      </trkpt>
      <trkpt lat="45.82188" lon="4.73322">
        <ele>338.60699</ele>
        <time>2023-07-07T14:24:16.000Z</time>
      </trkpt>
      <trkpt lat="45.82185" lon="4.73322">
        <ele>338.46991</ele>
        <time>2023-07-07T14:24:17.000Z</time>
      </trkpt>
      <trkpt lat="45.82182" lon="4.73323">
        <ele>338.29517</ele>
        <time>2023-07-07T14:24:18.000Z</time>
      </trkpt>
      <trkpt lat="45.82179" lon="4.73322">
        <ele>338.1246</ele>
        <time>2023-07-07T14:24:19.000Z</time>
      </trkpt>
      <trkpt lat="45.82176" lon="4.73319">
        <ele>337.95432</ele>
        <time>2023-07-07T14:24:20.000Z</time>
      </trkpt>
      <trkpt lat="45.82173" lon="4.73316">
        <ele>337.77802</ele>
        <time>2023-07-07T14:24:21.000Z</time>
      </trkpt>
      <trkpt lat="45.82172" lon="4.73312">
        <ele>337.63931</ele>
        <time>2023-07-07T14:24:22.000Z</time>
      </trkpt>
      <trkpt lat="45.8217" lon="4.73308">
        <ele>337.47787</ele>
        <time>2023-07-07T14:24:23.000Z</time>
      </trkpt>
      <trkpt lat="45.82169" lon="4.73305">
        <ele>337.43842</ele>
        <time>2023-07-07T14:24:24.000Z</time>
      </trkpt>
      <trkpt lat="45.82167" lon="4.73301">
        <ele>336.41635</ele>
        <time>2023-07-07T14:24:25.000Z</time>
      </trkpt>
      <trkpt lat="45.82165" lon="4.73297">
        <ele>335.37421</ele>
        <time>2023-07-07T14:24:26.000Z</time>
      </trkpt>
      <trkpt lat="45.82163" lon="4.73294">
        <ele>334.33661</ele>
        <time>2023-07-07T14:24:27.000Z</time>
      </trkpt>
      <trkpt lat="45.82161" lon="4.7329">
        <ele>333.2775</ele>
        <time>2023-07-07T14:24:28.000Z</time>
      </trkpt>
      <trkpt lat="45.82158" lon="4.73287">
        <ele>332.19324</ele>
        <time>2023-07-07T14:24:29.000Z</time>
      </trkpt>
      <trkpt lat="45.82153" lon="4.73287">
        <ele>331.1868</ele>
        <time>2023-07-07T14:24:30.000Z</time>
      </trkpt>
      <trkpt lat="45.82149" lon="4.73288">
        <ele>330.21017</ele>
        <time>2023-07-07T14:24:31.000Z</time>
      </trkpt>
      <trkpt lat="45.82144" lon="4.73289">
        <ele>330.11615</ele>
        <time>2023-07-07T14:24:32.000Z</time>
      </trkpt>
      <trkpt lat="45.82139" lon="4.73291">
        <ele>328.9968</ele>
        <time>2023-07-07T14:24:33.000Z</time>
      </trkpt>
      <trkpt lat="45.82134" lon="4.73293">
        <ele>327.88977</ele>
        <time>2023-07-07T14:24:34.000Z</time>
      </trkpt>
      <trkpt lat="45.8213" lon="4.73295">
        <ele>326.79095</ele>
        <time>2023-07-07T14:24:35.000Z</time>
      </trkpt>
      <trkpt lat="45.82124" lon="4.73296">
        <ele>325.66684</ele>
        <time>2023-07-07T14:24:36.000Z</time>
      </trkpt>
      <trkpt lat="45.82118" lon="4.73297">
        <ele>324.50534</ele>
        <time>2023-07-07T14:24:37.000Z</time>
      </trkpt>
      <trkpt lat="45.82112" lon="4.73298">
        <ele>323.06573</ele>
        <time>2023-07-07T14:24:38.000Z</time>
      </trkpt>
      <trkpt lat="45.82107" lon="4.73299">
        <ele>321.62167</ele>
        <time>2023-07-07T14:24:39.000Z</time>
      </trkpt>
      <trkpt lat="45.82101" lon="4.73301">
        <ele>320.18463</ele>
        <time>2023-07-07T14:24:40.000Z</time>
      </trkpt>
      <trkpt lat="45.82095" lon="4.73303">
        <ele>318.7413</ele>
        <time>2023-07-07T14:24:41.000Z</time>
      </trkpt>
      <trkpt lat="45.82089" lon="4.73306">
        <ele>317.29135</ele>
        <time>2023-07-07T14:24:42.000Z</time>
      </trkpt>
      <trkpt lat="45.82082" lon="4.7331">
        <ele>316.73868</ele>
        <time>2023-07-07T14:24:43.000Z</time>
      </trkpt>
      <trkpt lat="45.82076" lon="4.73313">
        <ele>316.04562</ele>
        <time>2023-07-07T14:24:44.000Z</time>
      </trkpt>
      <trkpt lat="45.82071" lon="4.73316">
        <ele>316.6369</ele>
        <time>2023-07-07T14:24:45.000Z</time>
      </trkpt>
      <trkpt lat="45.82065" lon="4.73319">
        <ele>317.33234</ele>
        <time>2023-07-07T14:24:46.000Z</time>
      </trkpt>
      <trkpt lat="45.82059" lon="4.73324">
        <ele>318.03214</ele>
        <time>2023-07-07T14:24:47.000Z</time>
      </trkpt>
      <trkpt lat="45.82054" lon="4.73328">
        <ele>318.76727</ele>
        <time>2023-07-07T14:24:48.000Z</time>
      </trkpt>
      <trkpt lat="45.82049" lon="4.73331">
        <ele>319.55423</ele>
        <time>2023-07-07T14:24:49.000Z</time>
      </trkpt>
      <trkpt lat="45.82043" lon="4.73333">
        <ele>320.30075</ele>
        <time>2023-07-07T14:24:50.000Z</time>
      </trkpt>
      <trkpt lat="45.82037" lon="4.73337">
        <ele>321.0481</ele>
        <time>2023-07-07T14:24:51.000Z</time>
      </trkpt>
      <trkpt lat="45.82033" lon="4.73342">
        <ele>320.92776</ele>
        <time>2023-07-07T14:24:52.000Z</time>
      </trkpt>
      <trkpt lat="45.82028" lon="4.73346">
        <ele>321.742</ele>
        <time>2023-07-07T14:24:53.000Z</time>
      </trkpt>
      <trkpt lat="45.82025" lon="4.73351">
        <ele>322.55313</ele>
        <time>2023-07-07T14:24:54.000Z</time>
      </trkpt>
      <trkpt lat="45.8202" lon="4.73359">
        <ele>323.3353</ele>
        <time>2023-07-07T14:24:55.000Z</time>
      </trkpt>
      <trkpt lat="45.82016" lon="4.73366">
        <ele>324.14777</ele>
        <time>2023-07-07T14:24:56.000Z</time>
      </trkpt>
      <trkpt lat="45.8201" lon="4.73368">
        <ele>324.96194</ele>
        <time>2023-07-07T14:24:57.000Z</time>
      </trkpt>
      <trkpt lat="45.82005" lon="4.73373">
        <ele>326.09134</ele>
        <time>2023-07-07T14:24:58.000Z</time>
      </trkpt>
      <trkpt lat="45.81999" lon="4.73375">
        <ele>327.21051</ele>
        <time>2023-07-07T14:24:59.000Z</time>
      </trkpt>
      <trkpt lat="45.81995" lon="4.73378">
        <ele>328.34149</ele>
        <time>2023-07-07T14:25:00.000Z</time>
      </trkpt>
      <trkpt lat="45.81989" lon="4.73381">
        <ele>329.41153</ele>
        <time>2023-07-07T14:25:01.000Z</time>
      </trkpt>
      <trkpt lat="45.81984" lon="4.73386">
        <ele>330.47125</ele>
        <time>2023-07-07T14:25:02.000Z</time>
      </trkpt>
      <trkpt lat="45.81979" lon="4.73389">
        <ele>330.69193</ele>
        <time>2023-07-07T14:25:03.000Z</time>
      </trkpt>
      <trkpt lat="45.81974" lon="4.73392">
        <ele>330.87811</ele>
        <time>2023-07-07T14:25:04.000Z</time>
      </trkpt>
      <trkpt lat="45.81968" lon="4.73396">
        <ele>330.76297</ele>
        <time>2023-07-07T14:25:05.000Z</time>
      </trkpt>
      <trkpt lat="45.81963" lon="4.734">
        <ele>330.51791</ele>
        <time>2023-07-07T14:25:06.000Z</time>
      </trkpt>
      <trkpt lat="45.81958" lon="4.73404">
        <ele>330.27246</ele>
        <time>2023-07-07T14:25:07.000Z</time>
      </trkpt>
      <trkpt lat="45.81954" lon="4.73407">
        <ele>330.02017</ele>
        <time>2023-07-07T14:25:08.000Z</time>
      </trkpt>
      <trkpt lat="45.8195" lon="4.7341">
        <ele>329.17847</ele>
        <time>2023-07-07T14:25:09.000Z</time>
      </trkpt>
      <trkpt lat="45.81946" lon="4.73415">
        <ele>328.42093</ele>
        <time>2023-07-07T14:25:10.000Z</time>
      </trkpt>
      <trkpt lat="45.81943" lon="4.73419">
        <ele>327.64175</ele>
        <time>2023-07-07T14:25:11.000Z</time>
      </trkpt>
      <trkpt lat="45.81941" lon="4.73424">
        <ele>326.59656</ele>
        <time>2023-07-07T14:25:12.000Z</time>
      </trkpt>
      <trkpt lat="45.81939" lon="4.73431">
        <ele>326.32919</ele>
        <time>2023-07-07T14:25:13.000Z</time>
      </trkpt>
      <trkpt lat="45.81938" lon="4.73437">
        <ele>326.06995</ele>
        <time>2023-07-07T14:25:14.000Z</time>
      </trkpt>
      <trkpt lat="45.81938" lon="4.73444">
        <ele>325.86182</ele>
        <time>2023-07-07T14:25:15.000Z</time>
      </trkpt>
      <trkpt lat="45.81936" lon="4.73451">
        <ele>325.6409</ele>
        <time>2023-07-07T14:25:16.000Z</time>
      </trkpt>
      <trkpt lat="45.81936" lon="4.73457">
        <ele>325.42114</ele>
        <time>2023-07-07T14:25:17.000Z</time>
      </trkpt>
      <trkpt lat="45.81935" lon="4.73462">
        <ele>325.23373</ele>
        <time>2023-07-07T14:25:18.000Z</time>
      </trkpt>
      <trkpt lat="45.81934" lon="4.73467">
        <ele>324.74994</ele>
        <time>2023-07-07T14:25:19.000Z</time>
      </trkpt>
      <trkpt lat="45.81933" lon="4.73473">
        <ele>324.23956</ele>
        <time>2023-07-07T14:25:20.000Z</time>
      </trkpt>
      <trkpt lat="45.81933" lon="4.7348">
        <ele>323.74063</ele>
        <time>2023-07-07T14:25:21.000Z</time>
      </trkpt>
      <trkpt lat="45.81931" lon="4.73487">
        <ele>323.23993</ele>
        <time>2023-07-07T14:25:22.000Z</time>
      </trkpt>
      <trkpt lat="45.8193" lon="4.73495">
        <ele>322.67697</ele>
        <time>2023-07-07T14:25:23.000Z</time>
      </trkpt>
      <trkpt lat="45.81928" lon="4.73502">
        <ele>322.58588</ele>
        <time>2023-07-07T14:25:24.000Z</time>
      </trkpt>
      <trkpt lat="45.81926" lon="4.73509">
        <ele>322.41324</ele>
        <time>2023-07-07T14:25:25.000Z</time>
      </trkpt>
      <trkpt lat="45.81925" lon="4.73518">
        <ele>322.25479</ele>
        <time>2023-07-07T14:25:26.000Z</time>
      </trkpt>
      <trkpt lat="45.81923" lon="4.73527">
        <ele>322.09943</ele>
        <time>2023-07-07T14:25:27.000Z</time>
      </trkpt>
      <trkpt lat="45.81924" lon="4.73536">
        <ele>321.91113</ele>
        <time>2023-07-07T14:25:28.000Z</time>
      </trkpt>
      <trkpt lat="45.81924" lon="4.73545">
        <ele>322.29694</ele>
        <time>2023-07-07T14:25:29.000Z</time>
      </trkpt>
      <trkpt lat="45.81924" lon="4.73555">
        <ele>322.60257</ele>
        <time>2023-07-07T14:25:30.000Z</time>
      </trkpt>
      <trkpt lat="45.81922" lon="4.73566">
        <ele>322.90274</ele>
        <time>2023-07-07T14:25:31.000Z</time>
      </trkpt>
      <trkpt lat="45.81921" lon="4.73577">
        <ele>323.44992</ele>
        <time>2023-07-07T14:25:32.000Z</time>
      </trkpt>
      <trkpt lat="45.81919" lon="4.7359">
        <ele>323.14468</ele>
        <time>2023-07-07T14:25:33.000Z</time>
      </trkpt>
      <trkpt lat="45.81918" lon="4.73607">
        <ele>322.82962</ele>
        <time>2023-07-07T14:25:34.000Z</time>
      </trkpt>
      <trkpt lat="45.81916" lon="4.73619">
        <ele>322.47507</ele>
        <time>2023-07-07T14:25:35.000Z</time>
      </trkpt>
      <trkpt lat="45.81915" lon="4.73631">
        <ele>322.12717</ele>
        <time>2023-07-07T14:25:36.000Z</time>
      </trkpt>
      <trkpt lat="45.81912" lon="4.73644">
        <ele>321.81052</ele>
        <time>2023-07-07T14:25:37.000Z</time>
      </trkpt>
      <trkpt lat="45.81908" lon="4.73653">
        <ele>321.49591</ele>
        <time>2023-07-07T14:25:38.000Z</time>
      </trkpt>
      <trkpt lat="45.81907" lon="4.73662">
        <ele>321.55026</ele>
        <time>2023-07-07T14:25:39.000Z</time>
      </trkpt>
      <trkpt lat="45.81904" lon="4.73669">
        <ele>321.56726</ele>
        <time>2023-07-07T14:25:40.000Z</time>
      </trkpt>
      <trkpt lat="45.81899" lon="4.73674">
        <ele>321.65265</ele>
        <time>2023-07-07T14:25:41.000Z</time>
      </trkpt>
      <trkpt lat="45.81897" lon="4.73677">
        <ele>321.73828</ele>
        <time>2023-07-07T14:25:42.000Z</time>
      </trkpt>
      <trkpt lat="45.81893" lon="4.7368">
        <ele>321.87192</ele>
        <time>2023-07-07T14:25:43.000Z</time>
      </trkpt>
      <trkpt lat="45.8189" lon="4.73683">
        <ele>321.70099</ele>
        <time>2023-07-07T14:25:44.000Z</time>
      </trkpt>
      <trkpt lat="45.81885" lon="4.73688">
        <ele>321.67816</ele>
        <time>2023-07-07T14:25:45.000Z</time>
      </trkpt>
      <trkpt lat="45.81881" lon="4.73693">
        <ele>321.72134</ele>
        <time>2023-07-07T14:25:46.000Z</time>
      </trkpt>
      <trkpt lat="45.81878" lon="4.73697">
        <ele>321.69498</ele>
        <time>2023-07-07T14:25:47.000Z</time>
      </trkpt>
      <trkpt lat="45.81875" lon="4.73701">
        <ele>321.50217</ele>
        <time>2023-07-07T14:25:48.000Z</time>
      </trkpt>
      <trkpt lat="45.81873" lon="4.73708">
        <ele>321.29694</ele>
        <time>2023-07-07T14:25:49.000Z</time>
      </trkpt>
      <trkpt lat="45.81871" lon="4.73714">
        <ele>321.13211</ele>
        <time>2023-07-07T14:25:50.000Z</time>
      </trkpt>
      <trkpt lat="45.81874" lon="4.73721">
        <ele>321.04034</ele>
        <time>2023-07-07T14:25:51.000Z</time>
      </trkpt>
      <trkpt lat="45.81873" lon="4.73728">
        <ele>321.00479</ele>
        <time>2023-07-07T14:25:52.000Z</time>
      </trkpt>
      <trkpt lat="45.81873" lon="4.73734">
        <ele>321.10419</ele>
        <time>2023-07-07T14:25:53.000Z</time>
      </trkpt>
      <trkpt lat="45.81875" lon="4.73741">
        <ele>321.2254</ele>
        <time>2023-07-07T14:25:54.000Z</time>
      </trkpt>
      <trkpt lat="45.81878" lon="4.73745">
        <ele>321.36783</ele>
        <time>2023-07-07T14:25:55.000Z</time>
      </trkpt>
      <trkpt lat="45.81879" lon="4.7375">
        <ele>321.52396</ele>
        <time>2023-07-07T14:25:56.000Z</time>
      </trkpt>
      <trkpt lat="45.81877" lon="4.73752">
        <ele>321.66083</ele>
        <time>2023-07-07T14:25:57.000Z</time>
      </trkpt>
      <trkpt lat="45.81879" lon="4.73757">
        <ele>321.85699</ele>
        <time>2023-07-07T14:25:58.000Z</time>
      </trkpt>
      <trkpt lat="45.81879" lon="4.73762">
        <ele>321.93176</ele>
        <time>2023-07-07T14:25:59.000Z</time>
      </trkpt>
      <trkpt lat="45.81882" lon="4.73767">
        <ele>322.03558</ele>
        <time>2023-07-07T14:26:00.000Z</time>
      </trkpt>
      <trkpt lat="45.81883" lon="4.73773">
        <ele>322.12366</ele>
        <time>2023-07-07T14:26:01.000Z</time>
      </trkpt>
      <trkpt lat="45.81884" lon="4.73777">
        <ele>322.23297</ele>
        <time>2023-07-07T14:26:02.000Z</time>
      </trkpt>
      <trkpt lat="45.81885" lon="4.73781">
        <ele>322.33499</ele>
        <time>2023-07-07T14:26:03.000Z</time>
      </trkpt>
      <trkpt lat="45.81886" lon="4.73786">
        <ele>322.32986</ele>
        <time>2023-07-07T14:26:04.000Z</time>
      </trkpt>
      <trkpt lat="45.81887" lon="4.73791">
        <ele>322.27301</ele>
        <time>2023-07-07T14:26:05.000Z</time>
      </trkpt>
      <trkpt lat="45.81887" lon="4.73795">
        <ele>322.19489</ele>
        <time>2023-07-07T14:26:06.000Z</time>
      </trkpt>
      <trkpt lat="45.81886" lon="4.73798">
        <ele>322.25809</ele>
        <time>2023-07-07T14:26:07.000Z</time>
      </trkpt>
      <trkpt lat="45.81883" lon="4.73801">
        <ele>322.35678</ele>
        <time>2023-07-07T14:26:08.000Z</time>
      </trkpt>
      <trkpt lat="45.81881" lon="4.73803">
        <ele>322.52328</ele>
        <time>2023-07-07T14:26:09.000Z</time>
      </trkpt>
      <trkpt lat="45.81878" lon="4.73804">
        <ele>322.6864</ele>
        <time>2023-07-07T14:26:10.000Z</time>
      </trkpt>
      <trkpt lat="45.81875" lon="4.73804">
        <ele>322.80527</ele>
        <time>2023-07-07T14:26:11.000Z</time>
      </trkpt>
      <trkpt lat="45.81872" lon="4.73805">
        <ele>322.92429</ele>
        <time>2023-07-07T14:26:12.000Z</time>
      </trkpt>
      <trkpt lat="45.81868" lon="4.73806">
        <ele>322.93063</ele>
        <time>2023-07-07T14:26:13.000Z</time>
      </trkpt>
      <trkpt lat="45.81865" lon="4.73808">
        <ele>322.94055</ele>
        <time>2023-07-07T14:26:14.000Z</time>
      </trkpt>
      <trkpt lat="45.81862" lon="4.7381">
        <ele>322.9332</ele>
        <time>2023-07-07T14:26:15.000Z</time>
      </trkpt>
      <trkpt lat="45.8186" lon="4.73812">
        <ele>322.93512</ele>
        <time>2023-07-07T14:26:16.000Z</time>
      </trkpt>
      <trkpt lat="45.81856" lon="4.73814">
        <ele>322.95172</ele>
        <time>2023-07-07T14:26:17.000Z</time>
      </trkpt>
      <trkpt lat="45.81853" lon="4.73815">
        <ele>322.25146</ele>
        <time>2023-07-07T14:26:18.000Z</time>
      </trkpt>
      <trkpt lat="45.81849" lon="4.73816">
        <ele>321.53555</ele>
        <time>2023-07-07T14:26:19.000Z</time>
      </trkpt>
      <trkpt lat="45.81845" lon="4.73817">
        <ele>320.75977</ele>
        <time>2023-07-07T14:26:20.000Z</time>
      </trkpt>
      <trkpt lat="45.81841" lon="4.73819">
        <ele>320.94226</ele>
        <time>2023-07-07T14:26:21.000Z</time>
      </trkpt>
      <trkpt lat="45.81838" lon="4.7382">
        <ele>321.16086</ele>
        <time>2023-07-07T14:26:22.000Z</time>
      </trkpt>
      <trkpt lat="45.81836" lon="4.73822">
        <ele>321.37909</ele>
        <time>2023-07-07T14:26:23.000Z</time>
      </trkpt>
      <trkpt lat="45.81832" lon="4.73823">
        <ele>321.59137</ele>
        <time>2023-07-07T14:26:24.000Z</time>
      </trkpt>
      <trkpt lat="45.81828" lon="4.73824">
        <ele>321.7099</ele>
        <time>2023-07-07T14:26:25.000Z</time>
      </trkpt>
      <trkpt lat="45.81825" lon="4.73825">
        <ele>321.80261</ele>
        <time>2023-07-07T14:26:26.000Z</time>
      </trkpt>
      <trkpt lat="45.81821" lon="4.73826">
        <ele>321.88864</ele>
        <time>2023-07-07T14:26:27.000Z</time>
      </trkpt>
      <trkpt lat="45.81817" lon="4.73827">
        <ele>322.09833</ele>
        <time>2023-07-07T14:26:28.000Z</time>
      </trkpt>
      <trkpt lat="45.81813" lon="4.73828">
        <ele>322.23392</ele>
        <time>2023-07-07T14:26:29.000Z</time>
      </trkpt>
      <trkpt lat="45.81807" lon="4.73831">
        <ele>322.31934</ele>
        <time>2023-07-07T14:26:30.000Z</time>
      </trkpt>
      <trkpt lat="45.81802" lon="4.73832">
        <ele>322.46002</ele>
        <time>2023-07-07T14:26:31.000Z</time>
      </trkpt>
      <trkpt lat="45.81798" lon="4.73833">
        <ele>322.50238</ele>
        <time>2023-07-07T14:26:32.000Z</time>
      </trkpt>
      <trkpt lat="45.81795" lon="4.73834">
        <ele>322.57233</ele>
        <time>2023-07-07T14:26:33.000Z</time>
      </trkpt>
      <trkpt lat="45.81793" lon="4.73835">
        <ele>322.57751</ele>
        <time>2023-07-07T14:26:34.000Z</time>
      </trkpt>
      <trkpt lat="45.81789" lon="4.73836">
        <ele>322.47043</ele>
        <time>2023-07-07T14:26:35.000Z</time>
      </trkpt>
      <trkpt lat="45.81786" lon="4.73837">
        <ele>322.32477</ele>
        <time>2023-07-07T14:26:36.000Z</time>
      </trkpt>
      <trkpt lat="45.81781" lon="4.73837">
        <ele>322.24014</ele>
        <time>2023-07-07T14:26:37.000Z</time>
      </trkpt>
      <trkpt lat="45.81777" lon="4.73837">
        <ele>322.76566</ele>
        <time>2023-07-07T14:26:38.000Z</time>
      </trkpt>
      <trkpt lat="45.81773" lon="4.73835">
        <ele>323.39032</ele>
        <time>2023-07-07T14:26:39.000Z</time>
      </trkpt>
      <trkpt lat="45.8177" lon="4.7383">
        <ele>324.09613</ele>
        <time>2023-07-07T14:26:40.000Z</time>
      </trkpt>
      <trkpt lat="45.81766" lon="4.73823">
        <ele>323.84927</ele>
        <time>2023-07-07T14:26:41.000Z</time>
      </trkpt>
      <trkpt lat="45.8176" lon="4.73813">
        <ele>323.61932</ele>
        <time>2023-07-07T14:26:42.000Z</time>
      </trkpt>
      <trkpt lat="45.81756" lon="4.73803">
        <ele>323.38519</ele>
        <time>2023-07-07T14:26:43.000Z</time>
      </trkpt>
      <trkpt lat="45.8175" lon="4.7379">
        <ele>323.12994</ele>
        <time>2023-07-07T14:26:44.000Z</time>
      </trkpt>
      <trkpt lat="45.81746" lon="4.73777">
        <ele>322.94211</ele>
        <time>2023-07-07T14:26:45.000Z</time>
      </trkpt>
      <trkpt lat="45.8174" lon="4.73761">
        <ele>322.80411</ele>
        <time>2023-07-07T14:26:46.000Z</time>
      </trkpt>
      <trkpt lat="45.81736" lon="4.73747">
        <ele>322.57471</ele>
        <time>2023-07-07T14:26:47.000Z</time>
      </trkpt>
      <trkpt lat="45.81732" lon="4.73733">
        <ele>322.17947</ele>
        <time>2023-07-07T14:26:48.000Z</time>
      </trkpt>
      <trkpt lat="45.8173" lon="4.73717">
        <ele>321.82425</ele>
        <time>2023-07-07T14:26:49.000Z</time>
      </trkpt>
      <trkpt lat="45.81728" lon="4.73705">
        <ele>321.52057</ele>
        <time>2023-07-07T14:26:50.000Z</time>
      </trkpt>
      <trkpt lat="45.81724" lon="4.73689">
        <ele>321.07889</ele>
        <time>2023-07-07T14:26:51.000Z</time>
      </trkpt>
      <trkpt lat="45.81719" lon="4.73678">
        <ele>320.68954</ele>
        <time>2023-07-07T14:26:52.000Z</time>
      </trkpt>
      <trkpt lat="45.81714" lon="4.73666">
        <ele>320.26071</ele>
        <time>2023-07-07T14:26:53.000Z</time>
      </trkpt>
      <trkpt lat="45.81708" lon="4.73655">
        <ele>319.88187</ele>
        <time>2023-07-07T14:26:54.000Z</time>
      </trkpt>
      <trkpt lat="45.81703" lon="4.73646">
        <ele>319.57312</ele>
        <time>2023-07-07T14:26:55.000Z</time>
      </trkpt>
      <trkpt lat="45.81698" lon="4.7364">
        <ele>319.28775</ele>
        <time>2023-07-07T14:26:56.000Z</time>
      </trkpt>
      <trkpt lat="45.81693" lon="4.73634">
        <ele>318.90259</ele>
        <time>2023-07-07T14:26:57.000Z</time>
      </trkpt>
      <trkpt lat="45.81689" lon="4.73628">
        <ele>318.5401</ele>
        <time>2023-07-07T14:26:58.000Z</time>
      </trkpt>
      <trkpt lat="45.81685" lon="4.73621">
        <ele>318.19034</ele>
        <time>2023-07-07T14:26:59.000Z</time>
      </trkpt>
      <trkpt lat="45.81681" lon="4.73618">
        <ele>317.82275</ele>
        <time>2023-07-07T14:27:00.000Z</time>
      </trkpt>
      <trkpt lat="45.81678" lon="4.73614">
        <ele>317.49963</ele>
        <time>2023-07-07T14:27:01.000Z</time>
      </trkpt>
      <trkpt lat="45.81675" lon="4.73611">
        <ele>317.11618</ele>
        <time>2023-07-07T14:27:02.000Z</time>
      </trkpt>
      <trkpt lat="45.81671" lon="4.73608">
        <ele>316.77078</ele>
        <time>2023-07-07T14:27:03.000Z</time>
      </trkpt>
      <trkpt lat="45.81668" lon="4.73605">
        <ele>316.48599</ele>
        <time>2023-07-07T14:27:04.000Z</time>
      </trkpt>
      <trkpt lat="45.81664" lon="4.73601">
        <ele>316.23676</ele>
        <time>2023-07-07T14:27:05.000Z</time>
      </trkpt>
      <trkpt lat="45.8166" lon="4.73596">
        <ele>315.98859</ele>
        <time>2023-07-07T14:27:06.000Z</time>
      </trkpt>
      <trkpt lat="45.81657" lon="4.73593">
        <ele>315.82523</ele>
        <time>2023-07-07T14:27:07.000Z</time>
      </trkpt>
      <trkpt lat="45.81654" lon="4.7359">
        <ele>315.86884</ele>
        <time>2023-07-07T14:27:08.000Z</time>
      </trkpt>
      <trkpt lat="45.81651" lon="4.73586">
        <ele>315.89093</ele>
        <time>2023-07-07T14:27:09.000Z</time>
      </trkpt>
      <trkpt lat="45.81648" lon="4.73583">
        <ele>315.72467</ele>
        <time>2023-07-07T14:27:10.000Z</time>
      </trkpt>
      <trkpt lat="45.81644" lon="4.7358">
        <ele>315.76108</ele>
        <time>2023-07-07T14:27:11.000Z</time>
      </trkpt>
      <trkpt lat="45.81641" lon="4.73576">
        <ele>315.77597</ele>
        <time>2023-07-07T14:27:12.000Z</time>
      </trkpt>
      <trkpt lat="45.81638" lon="4.73573">
        <ele>315.82379</ele>
        <time>2023-07-07T14:27:13.000Z</time>
      </trkpt>
      <trkpt lat="45.81634" lon="4.73569">
        <ele>315.87079</ele>
        <time>2023-07-07T14:27:14.000Z</time>
      </trkpt>
      <trkpt lat="45.81631" lon="4.73566">
        <ele>315.99969</ele>
        <time>2023-07-07T14:27:15.000Z</time>
      </trkpt>
      <trkpt lat="45.81627" lon="4.73563">
        <ele>316.14127</ele>
        <time>2023-07-07T14:27:16.000Z</time>
      </trkpt>
      <trkpt lat="45.81624" lon="4.7356">
        <ele>316.31818</ele>
        <time>2023-07-07T14:27:17.000Z</time>
      </trkpt>
      <trkpt lat="45.81621" lon="4.73556">
        <ele>316.54254</ele>
        <time>2023-07-07T14:27:18.000Z</time>
      </trkpt>
      <trkpt lat="45.81619" lon="4.73552">
        <ele>316.71509</ele>
        <time>2023-07-07T14:27:19.000Z</time>
      </trkpt>
      <trkpt lat="45.81616" lon="4.73549">
        <ele>316.91006</ele>
        <time>2023-07-07T14:27:20.000Z</time>
      </trkpt>
      <trkpt lat="45.81613" lon="4.73546">
        <ele>317.10208</ele>
        <time>2023-07-07T14:27:21.000Z</time>
      </trkpt>
      <trkpt lat="45.8161" lon="4.73543">
        <ele>317.33328</ele>
        <time>2023-07-07T14:27:22.000Z</time>
      </trkpt>
      <trkpt lat="45.81607" lon="4.73539">
        <ele>317.53516</ele>
        <time>2023-07-07T14:27:23.000Z</time>
      </trkpt>
      <trkpt lat="45.81604" lon="4.73535">
        <ele>317.69989</ele>
        <time>2023-07-07T14:27:24.000Z</time>
      </trkpt>
      <trkpt lat="45.81601" lon="4.73532">
        <ele>317.88461</ele>
        <time>2023-07-07T14:27:25.000Z</time>
      </trkpt>
      <trkpt lat="45.81598" lon="4.73528">
        <ele>318.03217</ele>
        <time>2023-07-07T14:27:26.000Z</time>
      </trkpt>
      <trkpt lat="45.81594" lon="4.73525">
        <ele>318.16138</ele>
        <time>2023-07-07T14:27:27.000Z</time>
      </trkpt>
      <trkpt lat="45.81591" lon="4.73522">
        <ele>318.30267</ele>
        <time>2023-07-07T14:27:28.000Z</time>
      </trkpt>
      <trkpt lat="45.81588" lon="4.73519">
        <ele>318.46393</ele>
        <time>2023-07-07T14:27:29.000Z</time>
      </trkpt>
      <trkpt lat="45.81585" lon="4.73517">
        <ele>318.83246</ele>
        <time>2023-07-07T14:27:30.000Z</time>
      </trkpt>
      <trkpt lat="45.81582" lon="4.73513">
        <ele>319.11636</ele>
        <time>2023-07-07T14:27:31.000Z</time>
      </trkpt>
      <trkpt lat="45.81579" lon="4.7351">
        <ele>319.45969</ele>
        <time>2023-07-07T14:27:32.000Z</time>
      </trkpt>
      <trkpt lat="45.81576" lon="4.73507">
        <ele>319.81201</ele>
        <time>2023-07-07T14:27:33.000Z</time>
      </trkpt>
      <trkpt lat="45.81574" lon="4.73504">
        <ele>320.19003</ele>
        <time>2023-07-07T14:27:34.000Z</time>
      </trkpt>
      <trkpt lat="45.81571" lon="4.73502">
        <ele>320.56546</ele>
        <time>2023-07-07T14:27:35.000Z</time>
      </trkpt>
      <trkpt lat="45.81569" lon="4.735">
        <ele>320.90076</ele>
        <time>2023-07-07T14:27:36.000Z</time>
      </trkpt>
      <trkpt lat="45.81567" lon="4.735">
        <ele>321.20169</ele>
        <time>2023-07-07T14:27:37.000Z</time>
      </trkpt>
      <trkpt lat="45.81565" lon="4.73503">
        <ele>321.47989</ele>
        <time>2023-07-07T14:27:39.000Z</time>
      </trkpt>
      <trkpt lat="45.81565" lon="4.73505">
        <ele>321.80551</ele>
        <time>2023-07-07T14:27:41.000Z</time>
      </trkpt>
      <trkpt lat="45.81565" lon="4.73508">
        <ele>322.23285</ele>
        <time>2023-07-07T14:28:40.000Z</time>
      </trkpt>
      <trkpt lat="45.81564" lon="4.7351">
        <ele>322.65216</ele>
        <time>2023-07-07T14:28:54.000Z</time>
      </trkpt>
      <trkpt lat="45.81564" lon="4.73515">
        <ele>322.94025</ele>
        <time>2023-07-07T14:29:19.000Z</time>
      </trkpt>
      <trkpt lat="45.81564" lon="4.73517">
        <ele>323.2077</ele>
        <time>2023-07-07T14:29:20.000Z</time>
      </trkpt>
      <trkpt lat="45.81563" lon="4.73521">
        <ele>323.52573</ele>
        <time>2023-07-07T14:29:21.000Z</time>
      </trkpt>
      <trkpt lat="45.81563" lon="4.73525">
        <ele>323.78894</ele>
        <time>2023-07-07T14:29:22.000Z</time>
      </trkpt>
      <trkpt lat="45.81562" lon="4.7353">
        <ele>323.96085</ele>
        <time>2023-07-07T14:29:23.000Z</time>
      </trkpt>
      <trkpt lat="45.8156" lon="4.73535">
        <ele>324.02432</ele>
        <time>2023-07-07T14:29:24.000Z</time>
      </trkpt>
      <trkpt lat="45.81559" lon="4.73538">
        <ele>324.13382</ele>
        <time>2023-07-07T14:29:25.000Z</time>
      </trkpt>
      <trkpt lat="45.81557" lon="4.73542">
        <ele>324.21234</ele>
        <time>2023-07-07T14:29:26.000Z</time>
      </trkpt>
      <trkpt lat="45.81555" lon="4.73547">
        <ele>324.2149</ele>
        <time>2023-07-07T14:29:27.000Z</time>
      </trkpt>
      <trkpt lat="45.81554" lon="4.73551">
        <ele>324.17416</ele>
        <time>2023-07-07T14:29:28.000Z</time>
      </trkpt>
      <trkpt lat="45.81552" lon="4.73556">
        <ele>324.05524</ele>
        <time>2023-07-07T14:29:29.000Z</time>
      </trkpt>
      <trkpt lat="45.8155" lon="4.73561">
        <ele>323.92639</ele>
        <time>2023-07-07T14:29:30.000Z</time>
      </trkpt>
      <trkpt lat="45.81549" lon="4.73567">
        <ele>323.74448</ele>
        <time>2023-07-07T14:29:31.000Z</time>
      </trkpt>
      <trkpt lat="45.81548" lon="4.73573">
        <ele>323.53964</ele>
        <time>2023-07-07T14:29:32.000Z</time>
      </trkpt>
      <trkpt lat="45.81546" lon="4.73579">
        <ele>323.36029</ele>
        <time>2023-07-07T14:29:33.000Z</time>
      </trkpt>
      <trkpt lat="45.81545" lon="4.73585">
        <ele>323.26483</ele>
        <time>2023-07-07T14:29:34.000Z</time>
      </trkpt>
      <trkpt lat="45.81543" lon="4.73593">
        <ele>323.1629</ele>
        <time>2023-07-07T14:29:35.000Z</time>
      </trkpt>
      <trkpt lat="45.81541" lon="4.73599">
        <ele>323.00046</ele>
        <time>2023-07-07T14:29:36.000Z</time>
      </trkpt>
      <trkpt lat="45.81539" lon="4.73606">
        <ele>322.5191</ele>
        <time>2023-07-07T14:29:37.000Z</time>
      </trkpt>
      <trkpt lat="45.81537" lon="4.73612">
        <ele>322.29779</ele>
        <time>2023-07-07T14:29:38.000Z</time>
      </trkpt>
      <trkpt lat="45.81534" lon="4.73618">
        <ele>322.07382</ele>
        <time>2023-07-07T14:29:39.000Z</time>
      </trkpt>
      <trkpt lat="45.81532" lon="4.73626">
        <ele>321.89096</ele>
        <time>2023-07-07T14:29:40.000Z</time>
      </trkpt>
      <trkpt lat="45.81531" lon="4.73632">
        <ele>321.50464</ele>
        <time>2023-07-07T14:29:41.000Z</time>
      </trkpt>
      <trkpt lat="45.81527" lon="4.7364">
        <ele>321.15607</ele>
        <time>2023-07-07T14:29:42.000Z</time>
      </trkpt>
      <trkpt lat="45.81525" lon="4.73648">
        <ele>320.90692</ele>
        <time>2023-07-07T14:29:43.000Z</time>
      </trkpt>
      <trkpt lat="45.81522" lon="4.73658">
        <ele>320.73694</ele>
        <time>2023-07-07T14:29:44.000Z</time>
      </trkpt>
      <trkpt lat="45.81519" lon="4.73666">
        <ele>320.53442</ele>
        <time>2023-07-07T14:29:45.000Z</time>
      </trkpt>
      <trkpt lat="45.81518" lon="4.73672">
        <ele>320.36652</ele>
        <time>2023-07-07T14:29:46.000Z</time>
      </trkpt>
      <trkpt lat="45.81516" lon="4.7368">
        <ele>320.21347</ele>
        <time>2023-07-07T14:29:47.000Z</time>
      </trkpt>
      <trkpt lat="45.81514" lon="4.73689">
        <ele>320.142</ele>
        <time>2023-07-07T14:29:48.000Z</time>
      </trkpt>
      <trkpt lat="45.8151" lon="4.73699">
        <ele>320.08856</ele>
        <time>2023-07-07T14:29:49.000Z</time>
      </trkpt>
      <trkpt lat="45.81507" lon="4.73709">
        <ele>319.87491</ele>
        <time>2023-07-07T14:29:50.000Z</time>
      </trkpt>
      <trkpt lat="45.81503" lon="4.73719">
        <ele>319.77301</ele>
        <time>2023-07-07T14:29:51.000Z</time>
      </trkpt>
      <trkpt lat="45.815" lon="4.7373">
        <ele>319.68466</ele>
        <time>2023-07-07T14:29:52.000Z</time>
      </trkpt>
      <trkpt lat="45.81495" lon="4.73741">
        <ele>319.55151</ele>
        <time>2023-07-07T14:29:53.000Z</time>
      </trkpt>
      <trkpt lat="45.8149" lon="4.73751">
        <ele>319.30371</ele>
        <time>2023-07-07T14:29:54.000Z</time>
      </trkpt>
      <trkpt lat="45.81486" lon="4.7376">
        <ele>319.04279</ele>
        <time>2023-07-07T14:29:55.000Z</time>
      </trkpt>
      <trkpt lat="45.81483" lon="4.73767">
        <ele>318.83136</ele>
        <time>2023-07-07T14:29:56.000Z</time>
      </trkpt>
      <trkpt lat="45.81482" lon="4.73776">
        <ele>318.82648</ele>
        <time>2023-07-07T14:29:57.000Z</time>
      </trkpt>
      <trkpt lat="45.8148" lon="4.73784">
        <ele>318.74103</ele>
        <time>2023-07-07T14:29:58.000Z</time>
      </trkpt>
      <trkpt lat="45.81483" lon="4.73791">
        <ele>318.71942</ele>
        <time>2023-07-07T14:29:59.000Z</time>
      </trkpt>
      <trkpt lat="45.81484" lon="4.73799">
        <ele>318.67703</ele>
        <time>2023-07-07T14:30:00.000Z</time>
      </trkpt>
      <trkpt lat="45.81485" lon="4.73806">
        <ele>318.80621</ele>
        <time>2023-07-07T14:30:01.000Z</time>
      </trkpt>
      <trkpt lat="45.81484" lon="4.73811">
        <ele>318.88864</ele>
        <time>2023-07-07T14:30:02.000Z</time>
      </trkpt>
      <trkpt lat="45.81487" lon="4.73818">
        <ele>319.01566</ele>
        <time>2023-07-07T14:30:03.000Z</time>
      </trkpt>
      <trkpt lat="45.81488" lon="4.73824">
        <ele>319.15088</ele>
        <time>2023-07-07T14:30:04.000Z</time>
      </trkpt>
      <trkpt lat="45.8149" lon="4.73829">
        <ele>319.30673</ele>
        <time>2023-07-07T14:30:05.000Z</time>
      </trkpt>
      <trkpt lat="45.8149" lon="4.73834">
        <ele>319.44244</ele>
        <time>2023-07-07T14:30:06.000Z</time>
      </trkpt>
      <trkpt lat="45.81491" lon="4.73841">
        <ele>319.59299</ele>
        <time>2023-07-07T14:30:07.000Z</time>
      </trkpt>
      <trkpt lat="45.81491" lon="4.73847">
        <ele>319.65903</ele>
        <time>2023-07-07T14:30:08.000Z</time>
      </trkpt>
      <trkpt lat="45.81492" lon="4.73854">
        <ele>319.62329</ele>
        <time>2023-07-07T14:30:09.000Z</time>
      </trkpt>
      <trkpt lat="45.81491" lon="4.7386">
        <ele>319.83942</ele>
        <time>2023-07-07T14:30:10.000Z</time>
      </trkpt>
      <trkpt lat="45.81491" lon="4.73866">
        <ele>319.69904</ele>
        <time>2023-07-07T14:30:11.000Z</time>
      </trkpt>
      <trkpt lat="45.81491" lon="4.73871">
        <ele>319.6355</ele>
        <time>2023-07-07T14:30:12.000Z</time>
      </trkpt>
      <trkpt lat="45.8149" lon="4.73877">
        <ele>319.56445</ele>
        <time>2023-07-07T14:30:13.000Z</time>
      </trkpt>
      <trkpt lat="45.81491" lon="4.73886">
        <ele>319.58832</ele>
        <time>2023-07-07T14:30:14.000Z</time>
      </trkpt>
      <trkpt lat="45.8149" lon="4.73893">
        <ele>319.65982</ele>
        <time>2023-07-07T14:30:15.000Z</time>
      </trkpt>
      <trkpt lat="45.81489" lon="4.73901">
        <ele>319.73267</ele>
        <time>2023-07-07T14:30:16.000Z</time>
      </trkpt>
      <trkpt lat="45.81488" lon="4.73909">
        <ele>319.82703</ele>
        <time>2023-07-07T14:30:17.000Z</time>
      </trkpt>
      <trkpt lat="45.81487" lon="4.73917">
        <ele>319.6474</ele>
        <time>2023-07-07T14:30:18.000Z</time>
      </trkpt>
      <trkpt lat="45.81487" lon="4.73925">
        <ele>319.48364</ele>
        <time>2023-07-07T14:30:19.000Z</time>
      </trkpt>
      <trkpt lat="45.81487" lon="4.73933">
        <ele>319.29092</ele>
        <time>2023-07-07T14:30:20.000Z</time>
      </trkpt>
      <trkpt lat="45.81486" lon="4.73942">
        <ele>319.14529</ele>
        <time>2023-07-07T14:30:21.000Z</time>
      </trkpt>
      <trkpt lat="45.81485" lon="4.73949">
        <ele>319.04633</ele>
        <time>2023-07-07T14:30:22.000Z</time>
      </trkpt>
      <trkpt lat="45.81485" lon="4.73952">
        <ele>318.86703</ele>
        <time>2023-07-07T14:30:23.000Z</time>
      </trkpt>
      <trkpt lat="45.81485" lon="4.7396">
        <ele>318.67056</ele>
        <time>2023-07-07T14:30:24.000Z</time>
      </trkpt>
      <trkpt lat="45.81482" lon="4.73966">
        <ele>318.4942</ele>
        <time>2023-07-07T14:30:25.000Z</time>
      </trkpt>
      <trkpt lat="45.8148" lon="4.73972">
        <ele>318.32684</ele>
        <time>2023-07-07T14:30:26.000Z</time>
      </trkpt>
      <trkpt lat="45.81475" lon="4.73978">
        <ele>318.09354</ele>
        <time>2023-07-07T14:30:27.000Z</time>
      </trkpt>
      <trkpt lat="45.81472" lon="4.73983">
        <ele>317.84427</ele>
        <time>2023-07-07T14:30:28.000Z</time>
      </trkpt>
      <trkpt lat="45.81467" lon="4.73988">
        <ele>317.74976</ele>
        <time>2023-07-07T14:30:29.000Z</time>
      </trkpt>
      <trkpt lat="45.81463" lon="4.73995">
        <ele>317.55948</ele>
        <time>2023-07-07T14:30:30.000Z</time>
      </trkpt>
      <trkpt lat="45.81457" lon="4.74002">
        <ele>317.63602</ele>
        <time>2023-07-07T14:30:31.000Z</time>
      </trkpt>
      <trkpt lat="45.81454" lon="4.74007">
        <ele>317.59332</ele>
        <time>2023-07-07T14:30:32.000Z</time>
      </trkpt>
      <trkpt lat="45.81449" lon="4.7401">
        <ele>317.65057</ele>
        <time>2023-07-07T14:30:33.000Z</time>
      </trkpt>
      <trkpt lat="45.81445" lon="4.74013">
        <ele>317.73102</ele>
        <time>2023-07-07T14:30:34.000Z</time>
      </trkpt>
      <trkpt lat="45.81442" lon="4.74012">
        <ele>317.76947</ele>
        <time>2023-07-07T14:30:35.000Z</time>
      </trkpt>
      <trkpt lat="45.81439" lon="4.74011">
        <ele>317.83643</ele>
        <time>2023-07-07T14:30:36.000Z</time>
      </trkpt>
      <trkpt lat="45.81438" lon="4.74009">
        <ele>317.8555</ele>
        <time>2023-07-07T14:30:37.000Z</time>
      </trkpt>
      <trkpt lat="45.81436" lon="4.74006">
        <ele>317.93945</ele>
        <time>2023-07-07T14:30:38.000Z</time>
      </trkpt>
      <trkpt lat="45.81434" lon="4.74002">
        <ele>318.01254</ele>
        <time>2023-07-07T14:30:39.000Z</time>
      </trkpt>
      <trkpt lat="45.81432" lon="4.73997">
        <ele>318.09619</ele>
        <time>2023-07-07T14:30:40.000Z</time>
      </trkpt>
      <trkpt lat="45.81431" lon="4.73991">
        <ele>318.08643</ele>
        <time>2023-07-07T14:30:41.000Z</time>
      </trkpt>
      <trkpt lat="45.8143" lon="4.73987">
        <ele>318.02725</ele>
        <time>2023-07-07T14:30:42.000Z</time>
      </trkpt>
      <trkpt lat="45.81429" lon="4.73985">
        <ele>317.93616</ele>
        <time>2023-07-07T14:30:43.000Z</time>
      </trkpt>
      <trkpt lat="45.81428" lon="4.73982">
        <ele>317.83731</ele>
        <time>2023-07-07T14:30:44.000Z</time>
      </trkpt>
      <trkpt lat="45.81426" lon="4.73978">
        <ele>317.68872</ele>
        <time>2023-07-07T14:30:45.000Z</time>
      </trkpt>
      <trkpt lat="45.81424" lon="4.73975">
        <ele>317.50983</ele>
        <time>2023-07-07T14:30:46.000Z</time>
      </trkpt>
      <trkpt lat="45.81423" lon="4.73971">
        <ele>317.37903</ele>
        <time>2023-07-07T14:30:47.000Z</time>
      </trkpt>
      <trkpt lat="45.81422" lon="4.73967">
        <ele>317.34879</ele>
        <time>2023-07-07T14:30:48.000Z</time>
      </trkpt>
      <trkpt lat="45.8142" lon="4.73962">
        <ele>317.31268</ele>
        <time>2023-07-07T14:30:49.000Z</time>
      </trkpt>
      <trkpt lat="45.81417" lon="4.73957">
        <ele>317.30743</ele>
        <time>2023-07-07T14:30:50.000Z</time>
      </trkpt>
      <trkpt lat="45.81414" lon="4.73951">
        <ele>317.39252</ele>
        <time>2023-07-07T14:30:51.000Z</time>
      </trkpt>
      <trkpt lat="45.81411" lon="4.73947">
        <ele>317.46317</ele>
        <time>2023-07-07T14:30:52.000Z</time>
      </trkpt>
      <trkpt lat="45.81409" lon="4.73943">
        <ele>317.48758</ele>
        <time>2023-07-07T14:30:53.000Z</time>
      </trkpt>
      <trkpt lat="45.81406" lon="4.73939">
        <ele>317.53128</ele>
        <time>2023-07-07T14:30:54.000Z</time>
      </trkpt>
      <trkpt lat="45.81403" lon="4.73935">
        <ele>317.5639</ele>
        <time>2023-07-07T14:30:55.000Z</time>
      </trkpt>
      <trkpt lat="45.81401" lon="4.73931">
        <ele>317.5661</ele>
        <time>2023-07-07T14:30:56.000Z</time>
      </trkpt>
      <trkpt lat="45.81398" lon="4.73927">
        <ele>317.67841</ele>
        <time>2023-07-07T14:30:57.000Z</time>
      </trkpt>
      <trkpt lat="45.81394" lon="4.73921">
        <ele>317.9541</ele>
        <time>2023-07-07T14:30:58.000Z</time>
      </trkpt>
      <trkpt lat="45.81391" lon="4.73916">
        <ele>318.02963</ele>
        <time>2023-07-07T14:30:59.000Z</time>
      </trkpt>
      <trkpt lat="45.81386" lon="4.7391">
        <ele>318.10577</ele>
        <time>2023-07-07T14:31:00.000Z</time>
      </trkpt>
      <trkpt lat="45.81382" lon="4.73904">
        <ele>318.17838</ele>
        <time>2023-07-07T14:31:01.000Z</time>
      </trkpt>
      <trkpt lat="45.81378" lon="4.73899">
        <ele>318.30182</ele>
        <time>2023-07-07T14:31:02.000Z</time>
      </trkpt>
      <trkpt lat="45.81376" lon="4.73894">
        <ele>318.49298</ele>
        <time>2023-07-07T14:31:03.000Z</time>
      </trkpt>
      <trkpt lat="45.81372" lon="4.73888">
        <ele>318.67688</ele>
        <time>2023-07-07T14:31:04.000Z</time>
      </trkpt>
      <trkpt lat="45.81368" lon="4.73883">
        <ele>318.83899</ele>
        <time>2023-07-07T14:31:05.000Z</time>
      </trkpt>
      <trkpt lat="45.81364" lon="4.73878">
        <ele>319.0473</ele>
        <time>2023-07-07T14:31:06.000Z</time>
      </trkpt>
      <trkpt lat="45.81361" lon="4.73872">
        <ele>319.28622</ele>
        <time>2023-07-07T14:31:07.000Z</time>
      </trkpt>
      <trkpt lat="45.81358" lon="4.73867">
        <ele>319.49097</ele>
        <time>2023-07-07T14:31:08.000Z</time>
      </trkpt>
      <trkpt lat="45.81355" lon="4.73862">
        <ele>319.66888</ele>
        <time>2023-07-07T14:31:09.000Z</time>
      </trkpt>
      <trkpt lat="45.81352" lon="4.73857">
        <ele>319.82986</ele>
        <time>2023-07-07T14:31:10.000Z</time>
      </trkpt>
      <trkpt lat="45.81349" lon="4.73852">
        <ele>319.92792</ele>
        <time>2023-07-07T14:31:11.000Z</time>
      </trkpt>
      <trkpt lat="45.81346" lon="4.73848">
        <ele>320.06909</ele>
        <time>2023-07-07T14:31:12.000Z</time>
      </trkpt>
      <trkpt lat="45.81342" lon="4.73843">
        <ele>320.23965</ele>
        <time>2023-07-07T14:31:13.000Z</time>
      </trkpt>
      <trkpt lat="45.81339" lon="4.73838">
        <ele>320.29398</ele>
        <time>2023-07-07T14:31:14.000Z</time>
      </trkpt>
      <trkpt lat="45.81336" lon="4.73835">
        <ele>320.43042</ele>
        <time>2023-07-07T14:31:15.000Z</time>
      </trkpt>
      <trkpt lat="45.81333" lon="4.73831">
        <ele>320.56607</ele>
        <time>2023-07-07T14:31:16.000Z</time>
      </trkpt>
      <trkpt lat="45.8133" lon="4.73825">
        <ele>320.66583</ele>
        <time>2023-07-07T14:31:17.000Z</time>
      </trkpt>
      <trkpt lat="45.81327" lon="4.73821">
        <ele>320.6369</ele>
        <time>2023-07-07T14:31:18.000Z</time>
      </trkpt>
      <trkpt lat="45.81325" lon="4.73817">
        <ele>320.80853</ele>
        <time>2023-07-07T14:31:19.000Z</time>
      </trkpt>
      <trkpt lat="45.81321" lon="4.73813">
        <ele>321.00702</ele>
        <time>2023-07-07T14:31:20.000Z</time>
      </trkpt>
      <trkpt lat="45.81319" lon="4.73807">
        <ele>321.17868</ele>
        <time>2023-07-07T14:31:21.000Z</time>
      </trkpt>
      <trkpt lat="45.81316" lon="4.73802">
        <ele>321.33414</ele>
        <time>2023-07-07T14:31:22.000Z</time>
      </trkpt>
      <trkpt lat="45.81312" lon="4.73798">
        <ele>321.47668</ele>
        <time>2023-07-07T14:31:23.000Z</time>
      </trkpt>
      <trkpt lat="45.81308" lon="4.73793">
        <ele>321.65988</ele>
        <time>2023-07-07T14:31:24.000Z</time>
      </trkpt>
      <trkpt lat="45.81306" lon="4.73787">
        <ele>321.84937</ele>
        <time>2023-07-07T14:31:25.000Z</time>
      </trkpt>
      <trkpt lat="45.81303" lon="4.73784">
        <ele>321.99817</ele>
        <time>2023-07-07T14:31:26.000Z</time>
      </trkpt>
      <trkpt lat="45.81299" lon="4.7378">
        <ele>322.16855</ele>
        <time>2023-07-07T14:31:27.000Z</time>
      </trkpt>
      <trkpt lat="45.81296" lon="4.73777">
        <ele>322.32346</ele>
        <time>2023-07-07T14:31:28.000Z</time>
      </trkpt>
      <trkpt lat="45.81293" lon="4.73774">
        <ele>322.4953</ele>
        <time>2023-07-07T14:31:29.000Z</time>
      </trkpt>
      <trkpt lat="45.81289" lon="4.7377">
        <ele>322.64569</ele>
        <time>2023-07-07T14:31:30.000Z</time>
      </trkpt>
      <trkpt lat="45.81285" lon="4.73767">
        <ele>322.81232</ele>
        <time>2023-07-07T14:31:31.000Z</time>
      </trkpt>
      <trkpt lat="45.81282" lon="4.73763">
        <ele>322.9744</ele>
        <time>2023-07-07T14:31:32.000Z</time>
      </trkpt>
      <trkpt lat="45.81279" lon="4.73759">
        <ele>323.12982</ele>
        <time>2023-07-07T14:31:33.000Z</time>
      </trkpt>
      <trkpt lat="45.81275" lon="4.73755">
        <ele>323.34238</ele>
        <time>2023-07-07T14:31:34.000Z</time>
      </trkpt>
      <trkpt lat="45.81272" lon="4.73751">
        <ele>323.5014</ele>
        <time>2023-07-07T14:31:35.000Z</time>
      </trkpt>
      <trkpt lat="45.81269" lon="4.73747">
        <ele>323.65045</ele>
        <time>2023-07-07T14:31:36.000Z</time>
      </trkpt>
      <trkpt lat="45.81266" lon="4.73743">
        <ele>323.78952</ele>
        <time>2023-07-07T14:31:37.000Z</time>
      </trkpt>
      <trkpt lat="45.81262" lon="4.73738">
        <ele>323.89487</ele>
        <time>2023-07-07T14:31:38.000Z</time>
      </trkpt>
      <trkpt lat="45.81258" lon="4.73734">
        <ele>324.05124</ele>
        <time>2023-07-07T14:31:39.000Z</time>
      </trkpt>
      <trkpt lat="45.81255" lon="4.7373">
        <ele>324.17477</ele>
        <time>2023-07-07T14:31:40.000Z</time>
      </trkpt>
      <trkpt lat="45.81252" lon="4.73726">
        <ele>324.31906</ele>
        <time>2023-07-07T14:31:41.000Z</time>
      </trkpt>
      <trkpt lat="45.81248" lon="4.73722">
        <ele>324.49393</ele>
        <time>2023-07-07T14:31:42.000Z</time>
      </trkpt>
      <trkpt lat="45.81244" lon="4.73719">
        <ele>324.67844</ele>
        <time>2023-07-07T14:31:43.000Z</time>
      </trkpt>
      <trkpt lat="45.81241" lon="4.73715">
        <ele>324.84048</ele>
        <time>2023-07-07T14:31:44.000Z</time>
      </trkpt>
      <trkpt lat="45.81236" lon="4.73712">
        <ele>325.01849</ele>
        <time>2023-07-07T14:31:45.000Z</time>
      </trkpt>
      <trkpt lat="45.81232" lon="4.7371">
        <ele>325.24982</ele>
        <time>2023-07-07T14:31:46.000Z</time>
      </trkpt>
      <trkpt lat="45.81228" lon="4.73707">
        <ele>325.44678</ele>
        <time>2023-07-07T14:31:47.000Z</time>
      </trkpt>
      <trkpt lat="45.81223" lon="4.73706">
        <ele>325.61893</ele>
        <time>2023-07-07T14:31:48.000Z</time>
      </trkpt>
      <trkpt lat="45.8122" lon="4.73706">
        <ele>325.78537</ele>
        <time>2023-07-07T14:31:49.000Z</time>
      </trkpt>
      <trkpt lat="45.81216" lon="4.73705">
        <ele>325.98358</ele>
        <time>2023-07-07T14:31:50.000Z</time>
      </trkpt>
      <trkpt lat="45.81212" lon="4.73704">
        <ele>326.16693</ele>
        <time>2023-07-07T14:31:51.000Z</time>
      </trkpt>
      <trkpt lat="45.81207" lon="4.73703">
        <ele>326.32205</ele>
        <time>2023-07-07T14:31:52.000Z</time>
      </trkpt>
      <trkpt lat="45.81203" lon="4.73702">
        <ele>326.44693</ele>
        <time>2023-07-07T14:31:53.000Z</time>
      </trkpt>
      <trkpt lat="45.81198" lon="4.73701">
        <ele>326.51874</ele>
        <time>2023-07-07T14:31:54.000Z</time>
      </trkpt>
      <trkpt lat="45.81193" lon="4.737">
        <ele>326.58344</ele>
        <time>2023-07-07T14:31:55.000Z</time>
      </trkpt>
      <trkpt lat="45.81189" lon="4.73699">
        <ele>326.67145</ele>
        <time>2023-07-07T14:31:56.000Z</time>
      </trkpt>
      <trkpt lat="45.81186" lon="4.73698">
        <ele>326.71872</ele>
        <time>2023-07-07T14:31:57.000Z</time>
      </trkpt>
      <trkpt lat="45.81182" lon="4.73697">
        <ele>326.78229</ele>
        <time>2023-07-07T14:31:58.000Z</time>
      </trkpt>
      <trkpt lat="45.81178" lon="4.73696">
        <ele>326.83417</ele>
        <time>2023-07-07T14:31:59.000Z</time>
      </trkpt>
      <trkpt lat="45.81175" lon="4.73696">
        <ele>326.89435</ele>
        <time>2023-07-07T14:32:00.000Z</time>
      </trkpt>
      <trkpt lat="45.81172" lon="4.73695">
        <ele>327.07294</ele>
        <time>2023-07-07T14:32:01.000Z</time>
      </trkpt>
      <trkpt lat="45.81168" lon="4.73695">
        <ele>327.2243</ele>
        <time>2023-07-07T14:32:02.000Z</time>
      </trkpt>
      <trkpt lat="45.81164" lon="4.73694">
        <ele>327.37228</ele>
        <time>2023-07-07T14:32:03.000Z</time>
      </trkpt>
      <trkpt lat="45.81161" lon="4.73694">
        <ele>327.38474</ele>
        <time>2023-07-07T14:32:04.000Z</time>
      </trkpt>
      <trkpt lat="45.81157" lon="4.73693">
        <ele>327.42447</ele>
        <time>2023-07-07T14:32:05.000Z</time>
      </trkpt>
      <trkpt lat="45.81154" lon="4.73692">
        <ele>327.45004</ele>
        <time>2023-07-07T14:32:06.000Z</time>
      </trkpt>
      <trkpt lat="45.81151" lon="4.73691">
        <ele>327.47946</ele>
        <time>2023-07-07T14:32:07.000Z</time>
      </trkpt>
      <trkpt lat="45.81148" lon="4.7369">
        <ele>327.52481</ele>
        <time>2023-07-07T14:32:08.000Z</time>
      </trkpt>
      <trkpt lat="45.81145" lon="4.73689">
        <ele>327.54825</ele>
        <time>2023-07-07T14:32:09.000Z</time>
      </trkpt>
      <trkpt lat="45.81141" lon="4.73688">
        <ele>327.5437</ele>
        <time>2023-07-07T14:32:10.000Z</time>
      </trkpt>
      <trkpt lat="45.81138" lon="4.73688">
        <ele>327.53085</ele>
        <time>2023-07-07T14:32:11.000Z</time>
      </trkpt>
      <trkpt lat="45.81134" lon="4.73686">
        <ele>327.54156</ele>
        <time>2023-07-07T14:32:12.000Z</time>
      </trkpt>
      <trkpt lat="45.81131" lon="4.73685">
        <ele>327.54007</ele>
        <time>2023-07-07T14:32:13.000Z</time>
      </trkpt>
      <trkpt lat="45.81126" lon="4.73683">
        <ele>327.57483</ele>
        <time>2023-07-07T14:32:14.000Z</time>
      </trkpt>
      <trkpt lat="45.81123" lon="4.73682">
        <ele>327.60934</ele>
        <time>2023-07-07T14:32:15.000Z</time>
      </trkpt>
      <trkpt lat="45.81118" lon="4.7368">
        <ele>327.61908</ele>
        <time>2023-07-07T14:32:16.000Z</time>
      </trkpt>
      <trkpt lat="45.81114" lon="4.73679">
        <ele>327.63904</ele>
        <time>2023-07-07T14:32:17.000Z</time>
      </trkpt>
      <trkpt lat="45.81109" lon="4.73678">
        <ele>327.6416</ele>
        <time>2023-07-07T14:32:18.000Z</time>
      </trkpt>
      <trkpt lat="45.81105" lon="4.73677">
        <ele>327.65143</ele>
        <time>2023-07-07T14:32:19.000Z</time>
      </trkpt>
      <trkpt lat="45.811" lon="4.73675">
        <ele>327.67212</ele>
        <time>2023-07-07T14:32:20.000Z</time>
      </trkpt>
      <trkpt lat="45.81095" lon="4.73674">
        <ele>327.60052</ele>
        <time>2023-07-07T14:32:21.000Z</time>
      </trkpt>
      <trkpt lat="45.81091" lon="4.73672">
        <ele>327.53018</ele>
        <time>2023-07-07T14:32:22.000Z</time>
      </trkpt>
      <trkpt lat="45.81086" lon="4.73671">
        <ele>327.44067</ele>
        <time>2023-07-07T14:32:23.000Z</time>
      </trkpt>
      <trkpt lat="45.81081" lon="4.7367">
        <ele>327.47711</ele>
        <time>2023-07-07T14:32:24.000Z</time>
      </trkpt>
      <trkpt lat="45.81076" lon="4.73669">
        <ele>327.45325</ele>
        <time>2023-07-07T14:32:25.000Z</time>
      </trkpt>
      <trkpt lat="45.8107" lon="4.73669">
        <ele>327.4057</ele>
        <time>2023-07-07T14:32:26.000Z</time>
      </trkpt>
      <trkpt lat="45.81066" lon="4.73668">
        <ele>327.36761</ele>
        <time>2023-07-07T14:32:27.000Z</time>
      </trkpt>
      <trkpt lat="45.8106" lon="4.73667">
        <ele>327.30905</ele>
        <time>2023-07-07T14:32:28.000Z</time>
      </trkpt>
      <trkpt lat="45.81055" lon="4.73666">
        <ele>327.25497</ele>
        <time>2023-07-07T14:32:29.000Z</time>
      </trkpt>
      <trkpt lat="45.8105" lon="4.73665">
        <ele>327.19736</ele>
        <time>2023-07-07T14:32:30.000Z</time>
      </trkpt>
      <trkpt lat="45.81045" lon="4.73663">
        <ele>327.14484</ele>
        <time>2023-07-07T14:32:31.000Z</time>
      </trkpt>
      <trkpt lat="45.81041" lon="4.73666">
        <ele>327.11948</ele>
        <time>2023-07-07T14:32:32.000Z</time>
      </trkpt>
      <trkpt lat="45.81036" lon="4.73669">
        <ele>327.09259</ele>
        <time>2023-07-07T14:32:33.000Z</time>
      </trkpt>
      <trkpt lat="45.81032" lon="4.73673">
        <ele>327.0256</ele>
        <time>2023-07-07T14:32:34.000Z</time>
      </trkpt>
      <trkpt lat="45.81029" lon="4.73678">
        <ele>326.94601</ele>
        <time>2023-07-07T14:32:35.000Z</time>
      </trkpt>
      <trkpt lat="45.81026" lon="4.73684">
        <ele>326.90372</ele>
        <time>2023-07-07T14:32:36.000Z</time>
      </trkpt>
      <trkpt lat="45.81023" lon="4.7369">
        <ele>326.86404</ele>
        <time>2023-07-07T14:32:37.000Z</time>
      </trkpt>
      <trkpt lat="45.8102" lon="4.73696">
        <ele>326.82318</ele>
        <time>2023-07-07T14:32:38.000Z</time>
      </trkpt>
      <trkpt lat="45.81016" lon="4.73702">
        <ele>326.73947</ele>
        <time>2023-07-07T14:32:39.000Z</time>
      </trkpt>
      <trkpt lat="45.81014" lon="4.73708">
        <ele>326.6539</ele>
        <time>2023-07-07T14:32:40.000Z</time>
      </trkpt>
      <trkpt lat="45.81011" lon="4.73713">
        <ele>326.62555</ele>
        <time>2023-07-07T14:32:41.000Z</time>
      </trkpt>
      <trkpt lat="45.81008" lon="4.73718">
        <ele>326.62128</ele>
        <time>2023-07-07T14:32:42.000Z</time>
      </trkpt>
      <trkpt lat="45.81005" lon="4.73723">
        <ele>326.64716</ele>
        <time>2023-07-07T14:32:43.000Z</time>
      </trkpt>
      <trkpt lat="45.81001" lon="4.73727">
        <ele>326.50763</ele>
        <time>2023-07-07T14:32:44.000Z</time>
      </trkpt>
      <trkpt lat="45.80997" lon="4.73728">
        <ele>326.41788</ele>
        <time>2023-07-07T14:32:45.000Z</time>
      </trkpt>
      <trkpt lat="45.80993" lon="4.73727">
        <ele>326.3432</ele>
        <time>2023-07-07T14:32:46.000Z</time>
      </trkpt>
      <trkpt lat="45.80991" lon="4.73724">
        <ele>326.2525</ele>
        <time>2023-07-07T14:32:47.000Z</time>
      </trkpt>
      <trkpt lat="45.8099" lon="4.73719">
        <ele>326.14484</ele>
        <time>2023-07-07T14:32:48.000Z</time>
      </trkpt>
      <trkpt lat="45.80989" lon="4.73714">
        <ele>326.05569</ele>
        <time>2023-07-07T14:32:49.000Z</time>
      </trkpt>
      <trkpt lat="45.80989" lon="4.73708">
        <ele>326</ele>
        <time>2023-07-07T14:32:50.000Z</time>
      </trkpt>
      <trkpt lat="45.80988" lon="4.73703">
        <ele>325.97089</ele>
        <time>2023-07-07T14:32:51.000Z</time>
      </trkpt>
      <trkpt lat="45.80988" lon="4.73699">
        <ele>325.97357</ele>
        <time>2023-07-07T14:32:52.000Z</time>
      </trkpt>
      <trkpt lat="45.80987" lon="4.73694">
        <ele>325.9866</ele>
        <time>2023-07-07T14:32:53.000Z</time>
      </trkpt>
      <trkpt lat="45.80987" lon="4.73689">
        <ele>326.02655</ele>
        <time>2023-07-07T14:32:54.000Z</time>
      </trkpt>
      <trkpt lat="45.80987" lon="4.73685">
        <ele>326.11438</ele>
        <time>2023-07-07T14:32:55.000Z</time>
      </trkpt>
      <trkpt lat="45.80986" lon="4.7368">
        <ele>326.17859</ele>
        <time>2023-07-07T14:32:56.000Z</time>
      </trkpt>
      <trkpt lat="45.80986" lon="4.73676">
        <ele>326.25763</ele>
        <time>2023-07-07T14:32:57.000Z</time>
      </trkpt>
      <trkpt lat="45.80985" lon="4.73671">
        <ele>326.34882</ele>
        <time>2023-07-07T14:32:58.000Z</time>
      </trkpt>
      <trkpt lat="45.80984" lon="4.73667">
        <ele>326.48895</ele>
        <time>2023-07-07T14:32:59.000Z</time>
      </trkpt>
      <trkpt lat="45.80984" lon="4.73663">
        <ele>326.67029</ele>
        <time>2023-07-07T14:33:00.000Z</time>
      </trkpt>
      <trkpt lat="45.80983" lon="4.7366">
        <ele>326.78192</ele>
        <time>2023-07-07T14:33:01.000Z</time>
      </trkpt>
      <trkpt lat="45.80982" lon="4.73656">
        <ele>326.83331</ele>
        <time>2023-07-07T14:33:02.000Z</time>
      </trkpt>
      <trkpt lat="45.80981" lon="4.73651">
        <ele>326.83856</ele>
        <time>2023-07-07T14:33:03.000Z</time>
      </trkpt>
      <trkpt lat="45.80981" lon="4.73647">
        <ele>327.01508</ele>
        <time>2023-07-07T14:33:04.000Z</time>
      </trkpt>
      <trkpt lat="45.8098" lon="4.73642">
        <ele>327.17328</ele>
        <time>2023-07-07T14:33:05.000Z</time>
      </trkpt>
      <trkpt lat="45.8098" lon="4.73637">
        <ele>327.35043</ele>
        <time>2023-07-07T14:33:06.000Z</time>
      </trkpt>
      <trkpt lat="45.80979" lon="4.73633">
        <ele>327.56253</ele>
        <time>2023-07-07T14:33:07.000Z</time>
      </trkpt>
      <trkpt lat="45.80979" lon="4.73628">
        <ele>327.81396</ele>
        <time>2023-07-07T14:33:08.000Z</time>
      </trkpt>
      <trkpt lat="45.80979" lon="4.73623">
        <ele>328.06839</ele>
        <time>2023-07-07T14:33:09.000Z</time>
      </trkpt>
      <trkpt lat="45.80978" lon="4.73619">
        <ele>328.31271</ele>
        <time>2023-07-07T14:33:10.000Z</time>
      </trkpt>
      <trkpt lat="45.80978" lon="4.73615">
        <ele>328.50012</ele>
        <time>2023-07-07T14:33:11.000Z</time>
      </trkpt>
      <trkpt lat="45.80978" lon="4.73611">
        <ele>328.64304</ele>
        <time>2023-07-07T14:33:12.000Z</time>
      </trkpt>
      <trkpt lat="45.80979" lon="4.73607">
        <ele>328.80075</ele>
        <time>2023-07-07T14:33:13.000Z</time>
      </trkpt>
      <trkpt lat="45.80979" lon="4.73603">
        <ele>328.98276</ele>
        <time>2023-07-07T14:33:14.000Z</time>
      </trkpt>
      <trkpt lat="45.8098" lon="4.73598">
        <ele>329.14191</ele>
        <time>2023-07-07T14:33:15.000Z</time>
      </trkpt>
      <trkpt lat="45.8098" lon="4.73594">
        <ele>329.31244</ele>
        <time>2023-07-07T14:33:16.000Z</time>
      </trkpt>
      <trkpt lat="45.8098" lon="4.73589">
        <ele>329.48074</ele>
        <time>2023-07-07T14:33:17.000Z</time>
      </trkpt>
      <trkpt lat="45.8098" lon="4.73584">
        <ele>329.62381</ele>
        <time>2023-07-07T14:33:18.000Z</time>
      </trkpt>
      <trkpt lat="45.80979" lon="4.7358">
        <ele>329.74969</ele>
        <time>2023-07-07T14:33:19.000Z</time>
      </trkpt>
      <trkpt lat="45.80978" lon="4.73575">
        <ele>329.82706</ele>
        <time>2023-07-07T14:33:20.000Z</time>
      </trkpt>
      <trkpt lat="45.80977" lon="4.73571">
        <ele>329.94672</ele>
        <time>2023-07-07T14:33:21.000Z</time>
      </trkpt>
      <trkpt lat="45.80976" lon="4.73566">
        <ele>330.091</ele>
        <time>2023-07-07T14:33:22.000Z</time>
      </trkpt>
      <trkpt lat="45.80976" lon="4.73561">
        <ele>330.26883</ele>
        <time>2023-07-07T14:33:23.000Z</time>
      </trkpt>
      <trkpt lat="45.80975" lon="4.73556">
        <ele>330.44147</ele>
        <time>2023-07-07T14:33:24.000Z</time>
      </trkpt>
      <trkpt lat="45.80974" lon="4.73552">
        <ele>330.60138</ele>
        <time>2023-07-07T14:33:25.000Z</time>
      </trkpt>
      <trkpt lat="45.80974" lon="4.73547">
        <ele>330.76202</ele>
        <time>2023-07-07T14:33:26.000Z</time>
      </trkpt>
      <trkpt lat="45.80973" lon="4.73543">
        <ele>330.88559</ele>
        <time>2023-07-07T14:33:27.000Z</time>
      </trkpt>
      <trkpt lat="45.80973" lon="4.73539">
        <ele>331.00763</ele>
        <time>2023-07-07T14:33:28.000Z</time>
      </trkpt>
      <trkpt lat="45.80972" lon="4.73535">
        <ele>331.11856</ele>
        <time>2023-07-07T14:33:29.000Z</time>
      </trkpt>
      <trkpt lat="45.80971" lon="4.7353">
        <ele>331.22455</ele>
        <time>2023-07-07T14:33:30.000Z</time>
      </trkpt>
      <trkpt lat="45.80971" lon="4.73526">
        <ele>331.37506</ele>
        <time>2023-07-07T14:33:31.000Z</time>
      </trkpt>
      <trkpt lat="45.8097" lon="4.73521">
        <ele>331.51962</ele>
        <time>2023-07-07T14:33:32.000Z</time>
      </trkpt>
      <trkpt lat="45.8097" lon="4.73517">
        <ele>331.65314</ele>
        <time>2023-07-07T14:33:33.000Z</time>
      </trkpt>
      <trkpt lat="45.80969" lon="4.73512">
        <ele>331.78662</ele>
        <time>2023-07-07T14:33:34.000Z</time>
      </trkpt>
      <trkpt lat="45.80969" lon="4.73508">
        <ele>331.90573</ele>
        <time>2023-07-07T14:33:35.000Z</time>
      </trkpt>
      <trkpt lat="45.80969" lon="4.73503">
        <ele>332.05997</ele>
        <time>2023-07-07T14:33:36.000Z</time>
      </trkpt>
      <trkpt lat="45.80968" lon="4.73498">
        <ele>332.21841</ele>
        <time>2023-07-07T14:33:37.000Z</time>
      </trkpt>
      <trkpt lat="45.80968" lon="4.73493">
        <ele>332.38757</ele>
        <time>2023-07-07T14:33:38.000Z</time>
      </trkpt>
      <trkpt lat="45.80968" lon="4.73488">
        <ele>332.5361</ele>
        <time>2023-07-07T14:33:39.000Z</time>
      </trkpt>
      <trkpt lat="45.80968" lon="4.73483">
        <ele>332.6524</ele>
        <time>2023-07-07T14:33:40.000Z</time>
      </trkpt>
      <trkpt lat="45.80967" lon="4.73478">
        <ele>332.7301</ele>
        <time>2023-07-07T14:33:41.000Z</time>
      </trkpt>
      <trkpt lat="45.80967" lon="4.73473">
        <ele>332.81573</ele>
        <time>2023-07-07T14:33:42.000Z</time>
      </trkpt>
      <trkpt lat="45.80967" lon="4.73468">
        <ele>332.8963</ele>
        <time>2023-07-07T14:33:43.000Z</time>
      </trkpt>
      <trkpt lat="45.80966" lon="4.73462">
        <ele>332.97064</ele>
        <time>2023-07-07T14:33:44.000Z</time>
      </trkpt>
      <trkpt lat="45.80965" lon="4.73456">
        <ele>333.02191</ele>
        <time>2023-07-07T14:33:45.000Z</time>
      </trkpt>
      <trkpt lat="45.80964" lon="4.73451">
        <ele>333.06686</ele>
        <time>2023-07-07T14:33:46.000Z</time>
      </trkpt>
      <trkpt lat="45.80963" lon="4.73445">
        <ele>333.1275</ele>
        <time>2023-07-07T14:33:47.000Z</time>
      </trkpt>
      <trkpt lat="45.80963" lon="4.7344">
        <ele>333.17764</ele>
        <time>2023-07-07T14:33:48.000Z</time>
      </trkpt>
      <trkpt lat="45.80962" lon="4.73434">
        <ele>333.21063</ele>
        <time>2023-07-07T14:33:49.000Z</time>
      </trkpt>
      <trkpt lat="45.80962" lon="4.73428">
        <ele>333.23105</ele>
        <time>2023-07-07T14:33:50.000Z</time>
      </trkpt>
      <trkpt lat="45.80961" lon="4.73422">
        <ele>333.22607</ele>
        <time>2023-07-07T14:33:51.000Z</time>
      </trkpt>
      <trkpt lat="45.80961" lon="4.73416">
        <ele>333.22208</ele>
        <time>2023-07-07T14:33:52.000Z</time>
      </trkpt>
      <trkpt lat="45.8096" lon="4.7341">
        <ele>333.23544</ele>
        <time>2023-07-07T14:33:53.000Z</time>
      </trkpt>
      <trkpt lat="45.8096" lon="4.73405">
        <ele>333.23541</ele>
        <time>2023-07-07T14:33:54.000Z</time>
      </trkpt>
      <trkpt lat="45.80959" lon="4.73399">
        <ele>333.23413</ele>
        <time>2023-07-07T14:33:55.000Z</time>
      </trkpt>
      <trkpt lat="45.80959" lon="4.73393">
        <ele>333.1745</ele>
        <time>2023-07-07T14:33:56.000Z</time>
      </trkpt>
      <trkpt lat="45.80958" lon="4.73387">
        <ele>333.08466</ele>
        <time>2023-07-07T14:33:57.000Z</time>
      </trkpt>
      <trkpt lat="45.80958" lon="4.7338">
        <ele>332.99677</ele>
        <time>2023-07-07T14:33:58.000Z</time>
      </trkpt>
      <trkpt lat="45.80957" lon="4.73373">
        <ele>332.91159</ele>
        <time>2023-07-07T14:33:59.000Z</time>
      </trkpt>
      <trkpt lat="45.80957" lon="4.73365">
        <ele>332.83374</ele>
        <time>2023-07-07T14:34:00.000Z</time>
      </trkpt>
      <trkpt lat="45.80955" lon="4.73358">
        <ele>332.77179</ele>
        <time>2023-07-07T14:34:01.000Z</time>
      </trkpt>
      <trkpt lat="45.80953" lon="4.73352">
        <ele>332.67377</ele>
        <time>2023-07-07T14:34:02.000Z</time>
      </trkpt>
      <trkpt lat="45.8095" lon="4.73344">
        <ele>332.55609</ele>
        <time>2023-07-07T14:34:03.000Z</time>
      </trkpt>
      <trkpt lat="45.80947" lon="4.73338">
        <ele>332.42697</ele>
        <time>2023-07-07T14:34:04.000Z</time>
      </trkpt>
      <trkpt lat="45.80943" lon="4.73333">
        <ele>332.31558</ele>
        <time>2023-07-07T14:34:05.000Z</time>
      </trkpt>
      <trkpt lat="45.80939" lon="4.73329">
        <ele>332.21259</ele>
        <time>2023-07-07T14:34:06.000Z</time>
      </trkpt>
      <trkpt lat="45.80935" lon="4.73324">
        <ele>332.08807</ele>
        <time>2023-07-07T14:34:07.000Z</time>
      </trkpt>
      <trkpt lat="45.80931" lon="4.7332">
        <ele>331.96896</ele>
        <time>2023-07-07T14:34:08.000Z</time>
      </trkpt>
      <trkpt lat="45.80927" lon="4.73316">
        <ele>331.79843</ele>
        <time>2023-07-07T14:34:09.000Z</time>
      </trkpt>
      <trkpt lat="45.80924" lon="4.73314">
        <ele>331.62067</ele>
        <time>2023-07-07T14:34:10.000Z</time>
      </trkpt>
      <trkpt lat="45.80921" lon="4.73309">
        <ele>331.40924</ele>
        <time>2023-07-07T14:34:11.000Z</time>
      </trkpt>
      <trkpt lat="45.80919" lon="4.73307">
        <ele>331.18701</ele>
        <time>2023-07-07T14:34:12.000Z</time>
      </trkpt>
      <trkpt lat="45.80917" lon="4.73305">
        <ele>330.96942</ele>
        <time>2023-07-07T14:34:13.000Z</time>
      </trkpt>
      <trkpt lat="45.80913" lon="4.73303">
        <ele>330.80634</ele>
        <time>2023-07-07T14:34:15.000Z</time>
      </trkpt>
      <trkpt lat="45.80911" lon="4.73302">
        <ele>330.63824</ele>
        <time>2023-07-07T14:34:16.000Z</time>
      </trkpt>
      <trkpt lat="45.80908" lon="4.73302">
        <ele>330.50003</ele>
        <time>2023-07-07T14:34:17.000Z</time>
      </trkpt>
      <trkpt lat="45.80905" lon="4.73302">
        <ele>330.38184</ele>
        <time>2023-07-07T14:34:18.000Z</time>
      </trkpt>
      <trkpt lat="45.80902" lon="4.73301">
        <ele>330.28143</ele>
        <time>2023-07-07T14:34:19.000Z</time>
      </trkpt>
      <trkpt lat="45.809" lon="4.73298">
        <ele>330.20163</ele>
        <time>2023-07-07T14:34:20.000Z</time>
      </trkpt>
      <trkpt lat="45.80897" lon="4.73295">
        <ele>330.14969</ele>
        <time>2023-07-07T14:34:21.000Z</time>
      </trkpt>
      <trkpt lat="45.80894" lon="4.73291">
        <ele>330.08405</ele>
        <time>2023-07-07T14:34:22.000Z</time>
      </trkpt>
      <trkpt lat="45.80891" lon="4.73287">
        <ele>330.04922</ele>
        <time>2023-07-07T14:34:23.000Z</time>
      </trkpt>
      <trkpt lat="45.80888" lon="4.73284">
        <ele>330.01041</ele>
        <time>2023-07-07T14:34:24.000Z</time>
      </trkpt>
      <trkpt lat="45.80884" lon="4.7328">
        <ele>329.99359</ele>
        <time>2023-07-07T14:34:25.000Z</time>
      </trkpt>
      <trkpt lat="45.8088" lon="4.73276">
        <ele>329.95587</ele>
        <time>2023-07-07T14:34:26.000Z</time>
      </trkpt>
      <trkpt lat="45.80876" lon="4.73271">
        <ele>329.88425</ele>
        <time>2023-07-07T14:34:27.000Z</time>
      </trkpt>
      <trkpt lat="45.80872" lon="4.73268">
        <ele>329.81979</ele>
        <time>2023-07-07T14:34:28.000Z</time>
      </trkpt>
      <trkpt lat="45.80867" lon="4.73264">
        <ele>329.73883</ele>
        <time>2023-07-07T14:34:29.000Z</time>
      </trkpt>
      <trkpt lat="45.80863" lon="4.7326">
        <ele>329.72137</ele>
        <time>2023-07-07T14:34:30.000Z</time>
      </trkpt>
      <trkpt lat="45.80861" lon="4.73257">
        <ele>329.71417</ele>
        <time>2023-07-07T14:34:31.000Z</time>
      </trkpt>
      <trkpt lat="45.80859" lon="4.73254">
        <ele>329.70264</ele>
        <time>2023-07-07T14:34:32.000Z</time>
      </trkpt>
      <trkpt lat="45.80857" lon="4.73251">
        <ele>329.68469</ele>
        <time>2023-07-07T14:34:33.000Z</time>
      </trkpt>
      <trkpt lat="45.80854" lon="4.73248">
        <ele>329.63235</ele>
        <time>2023-07-07T14:34:34.000Z</time>
      </trkpt>
      <trkpt lat="45.80851" lon="4.73246">
        <ele>329.50076</ele>
        <time>2023-07-07T14:34:35.000Z</time>
      </trkpt>
      <trkpt lat="45.80848" lon="4.73243">
        <ele>329.33127</ele>
        <time>2023-07-07T14:34:36.000Z</time>
      </trkpt>
      <trkpt lat="45.80844" lon="4.7324">
        <ele>329.1582</ele>
        <time>2023-07-07T14:34:37.000Z</time>
      </trkpt>
      <trkpt lat="45.8084" lon="4.73237">
        <ele>328.96249</ele>
        <time>2023-07-07T14:34:38.000Z</time>
      </trkpt>
      <trkpt lat="45.80836" lon="4.73233">
        <ele>328.74469</ele>
        <time>2023-07-07T14:34:39.000Z</time>
      </trkpt>
      <trkpt lat="45.80832" lon="4.73228">
        <ele>328.54175</ele>
        <time>2023-07-07T14:34:40.000Z</time>
      </trkpt>
      <trkpt lat="45.80827" lon="4.73224">
        <ele>328.32782</ele>
        <time>2023-07-07T14:34:41.000Z</time>
      </trkpt>
      <trkpt lat="45.80822" lon="4.73219">
        <ele>328.12625</ele>
        <time>2023-07-07T14:34:42.000Z</time>
      </trkpt>
      <trkpt lat="45.80818" lon="4.73214">
        <ele>327.75897</ele>
        <time>2023-07-07T14:34:43.000Z</time>
      </trkpt>
      <trkpt lat="45.80813" lon="4.73209">
        <ele>327.39606</ele>
        <time>2023-07-07T14:34:44.000Z</time>
      </trkpt>
      <trkpt lat="45.80809" lon="4.73204">
        <ele>327.01889</ele>
        <time>2023-07-07T14:34:45.000Z</time>
      </trkpt>
      <trkpt lat="45.80803" lon="4.73198">
        <ele>326.65582</ele>
        <time>2023-07-07T14:34:46.000Z</time>
      </trkpt>
      <trkpt lat="45.80797" lon="4.73193">
        <ele>326.28278</ele>
        <time>2023-07-07T14:34:47.000Z</time>
      </trkpt>
      <trkpt lat="45.80792" lon="4.73188">
        <ele>325.91101</ele>
        <time>2023-07-07T14:34:48.000Z</time>
      </trkpt>
      <trkpt lat="45.80786" lon="4.73182">
        <ele>325.56445</ele>
        <time>2023-07-07T14:34:49.000Z</time>
      </trkpt>
      <trkpt lat="45.80781" lon="4.73176">
        <ele>325.2001</ele>
        <time>2023-07-07T14:34:50.000Z</time>
      </trkpt>
      <trkpt lat="45.80775" lon="4.7317">
        <ele>324.81</ele>
        <time>2023-07-07T14:34:51.000Z</time>
      </trkpt>
      <trkpt lat="45.80769" lon="4.73164">
        <ele>324.48163</ele>
        <time>2023-07-07T14:34:52.000Z</time>
      </trkpt>
      <trkpt lat="45.80763" lon="4.73159">
        <ele>324.1752</ele>
        <time>2023-07-07T14:34:53.000Z</time>
      </trkpt>
      <trkpt lat="45.80758" lon="4.73153">
        <ele>323.89182</ele>
        <time>2023-07-07T14:34:54.000Z</time>
      </trkpt>
      <trkpt lat="45.80753" lon="4.73148">
        <ele>323.62491</ele>
        <time>2023-07-07T14:34:55.000Z</time>
      </trkpt>
      <trkpt lat="45.80748" lon="4.73142">
        <ele>323.31311</ele>
        <time>2023-07-07T14:34:56.000Z</time>
      </trkpt>
      <trkpt lat="45.80742" lon="4.73137">
        <ele>322.99518</ele>
        <time>2023-07-07T14:34:57.000Z</time>
      </trkpt>
      <trkpt lat="45.80737" lon="4.73132">
        <ele>322.68185</ele>
        <time>2023-07-07T14:34:58.000Z</time>
      </trkpt>
      <trkpt lat="45.80732" lon="4.73127">
        <ele>322.41302</ele>
        <time>2023-07-07T14:34:59.000Z</time>
      </trkpt>
      <trkpt lat="45.80728" lon="4.73122">
        <ele>322.12146</ele>
        <time>2023-07-07T14:35:00.000Z</time>
      </trkpt>
      <trkpt lat="45.80723" lon="4.73117">
        <ele>321.82791</ele>
        <time>2023-07-07T14:35:01.000Z</time>
      </trkpt>
      <trkpt lat="45.80718" lon="4.73112">
        <ele>321.55106</ele>
        <time>2023-07-07T14:35:02.000Z</time>
      </trkpt>
      <trkpt lat="45.80713" lon="4.73108">
        <ele>321.44238</ele>
        <time>2023-07-07T14:35:03.000Z</time>
      </trkpt>
      <trkpt lat="45.80708" lon="4.73103">
        <ele>321.31516</ele>
        <time>2023-07-07T14:35:04.000Z</time>
      </trkpt>
      <trkpt lat="45.80704" lon="4.73098">
        <ele>321.185</ele>
        <time>2023-07-07T14:35:05.000Z</time>
      </trkpt>
      <trkpt lat="45.807" lon="4.73094">
        <ele>321.05637</ele>
        <time>2023-07-07T14:35:06.000Z</time>
      </trkpt>
      <trkpt lat="45.80695" lon="4.73088">
        <ele>320.94733</ele>
        <time>2023-07-07T14:35:07.000Z</time>
      </trkpt>
      <trkpt lat="45.80691" lon="4.73082">
        <ele>320.84058</ele>
        <time>2023-07-07T14:35:08.000Z</time>
      </trkpt>
      <trkpt lat="45.80686" lon="4.73077">
        <ele>320.69266</ele>
        <time>2023-07-07T14:35:09.000Z</time>
      </trkpt>
      <trkpt lat="45.80681" lon="4.73072">
        <ele>320.55292</ele>
        <time>2023-07-07T14:35:10.000Z</time>
      </trkpt>
      <trkpt lat="45.80677" lon="4.73066">
        <ele>320.42477</ele>
        <time>2023-07-07T14:35:11.000Z</time>
      </trkpt>
      <trkpt lat="45.80672" lon="4.73059">
        <ele>320.27637</ele>
        <time>2023-07-07T14:35:12.000Z</time>
      </trkpt>
      <trkpt lat="45.80668" lon="4.73052">
        <ele>320.12549</ele>
        <time>2023-07-07T14:35:13.000Z</time>
      </trkpt>
      <trkpt lat="45.80663" lon="4.73045">
        <ele>319.86642</ele>
        <time>2023-07-07T14:35:14.000Z</time>
      </trkpt>
      <trkpt lat="45.80659" lon="4.73037">
        <ele>319.58038</ele>
        <time>2023-07-07T14:35:15.000Z</time>
      </trkpt>
      <trkpt lat="45.80655" lon="4.7303">
        <ele>319.38303</ele>
        <time>2023-07-07T14:35:16.000Z</time>
      </trkpt>
      <trkpt lat="45.80651" lon="4.73023">
        <ele>319.14465</ele>
        <time>2023-07-07T14:35:17.000Z</time>
      </trkpt>
      <trkpt lat="45.80648" lon="4.73015">
        <ele>318.90479</ele>
        <time>2023-07-07T14:35:18.000Z</time>
      </trkpt>
      <trkpt lat="45.80644" lon="4.73008">
        <ele>318.63443</ele>
        <time>2023-07-07T14:35:19.000Z</time>
      </trkpt>
      <trkpt lat="45.8064" lon="4.73001">
        <ele>318.33182</ele>
        <time>2023-07-07T14:35:20.000Z</time>
      </trkpt>
      <trkpt lat="45.80637" lon="4.72994">
        <ele>317.93289</ele>
        <time>2023-07-07T14:35:21.000Z</time>
      </trkpt>
      <trkpt lat="45.80633" lon="4.72988">
        <ele>317.52008</ele>
        <time>2023-07-07T14:35:22.000Z</time>
      </trkpt>
      <trkpt lat="45.8063" lon="4.72984">
        <ele>317.01947</ele>
        <time>2023-07-07T14:35:23.000Z</time>
      </trkpt>
      <trkpt lat="45.80627" lon="4.7298">
        <ele>316.5441</ele>
        <time>2023-07-07T14:35:24.000Z</time>
      </trkpt>
      <trkpt lat="45.80623" lon="4.72977">
        <ele>316.09131</ele>
        <time>2023-07-07T14:35:25.000Z</time>
      </trkpt>
      <trkpt lat="45.80619" lon="4.72974">
        <ele>315.61447</ele>
        <time>2023-07-07T14:35:26.000Z</time>
      </trkpt>
      <trkpt lat="45.80615" lon="4.72971">
        <ele>315.12793</ele>
        <time>2023-07-07T14:35:27.000Z</time>
      </trkpt>
      <trkpt lat="45.80612" lon="4.72967">
        <ele>314.63568</ele>
        <time>2023-07-07T14:35:28.000Z</time>
      </trkpt>
      <trkpt lat="45.80609" lon="4.72962">
        <ele>314.95624</ele>
        <time>2023-07-07T14:35:29.000Z</time>
      </trkpt>
      <trkpt lat="45.80605" lon="4.72958">
        <ele>315.42438</ele>
        <time>2023-07-07T14:35:30.000Z</time>
      </trkpt>
      <trkpt lat="45.80602" lon="4.72954">
        <ele>315.47879</ele>
        <time>2023-07-07T14:35:31.000Z</time>
      </trkpt>
      <trkpt lat="45.80598" lon="4.72951">
        <ele>315.60675</ele>
        <time>2023-07-07T14:35:32.000Z</time>
      </trkpt>
      <trkpt lat="45.80593" lon="4.7295">
        <ele>315.7543</ele>
        <time>2023-07-07T14:35:33.000Z</time>
      </trkpt>
      <trkpt lat="45.80589" lon="4.72951">
        <ele>316.00116</ele>
        <time>2023-07-07T14:35:34.000Z</time>
      </trkpt>
      <trkpt lat="45.80585" lon="4.72955">
        <ele>316.30136</ele>
        <time>2023-07-07T14:35:35.000Z</time>
      </trkpt>
      <trkpt lat="45.80583" lon="4.72958">
        <ele>316.59979</ele>
        <time>2023-07-07T14:35:36.000Z</time>
      </trkpt>
      <trkpt lat="45.80581" lon="4.72962">
        <ele>316.91718</ele>
        <time>2023-07-07T14:35:37.000Z</time>
      </trkpt>
      <trkpt lat="45.80579" lon="4.72966">
        <ele>317.25287</ele>
        <time>2023-07-07T14:35:38.000Z</time>
      </trkpt>
      <trkpt lat="45.80576" lon="4.72969">
        <ele>317.59418</ele>
        <time>2023-07-07T14:35:39.000Z</time>
      </trkpt>
      <trkpt lat="45.80574" lon="4.72972">
        <ele>317.97375</ele>
        <time>2023-07-07T14:35:40.000Z</time>
      </trkpt>
      <trkpt lat="45.80572" lon="4.72975">
        <ele>318.49161</ele>
        <time>2023-07-07T14:35:41.000Z</time>
      </trkpt>
      <trkpt lat="45.8057" lon="4.72978">
        <ele>319.03522</ele>
        <time>2023-07-07T14:35:42.000Z</time>
      </trkpt>
      <trkpt lat="45.80568" lon="4.72982">
        <ele>319.66736</ele>
        <time>2023-07-07T14:35:43.000Z</time>
      </trkpt>
      <trkpt lat="45.80565" lon="4.72986">
        <ele>320.50854</ele>
        <time>2023-07-07T14:35:44.000Z</time>
      </trkpt>
      <trkpt lat="45.80563" lon="4.72989">
        <ele>320.67767</ele>
        <time>2023-07-07T14:35:45.000Z</time>
      </trkpt>
      <trkpt lat="45.80561" lon="4.72993">
        <ele>320.87939</ele>
        <time>2023-07-07T14:35:46.000Z</time>
      </trkpt>
      <trkpt lat="45.80559" lon="4.72997">
        <ele>321.10095</ele>
        <time>2023-07-07T14:35:47.000Z</time>
      </trkpt>
      <trkpt lat="45.80558" lon="4.73">
        <ele>321.31747</ele>
        <time>2023-07-07T14:35:48.000Z</time>
      </trkpt>
      <trkpt lat="45.80555" lon="4.73004">
        <ele>320.71637</ele>
        <time>2023-07-07T14:35:49.000Z</time>
      </trkpt>
      <trkpt lat="45.80553" lon="4.73008">
        <ele>319.99933</ele>
        <time>2023-07-07T14:35:50.000Z</time>
      </trkpt>
      <trkpt lat="45.80551" lon="4.73012">
        <ele>319.6644</ele>
        <time>2023-07-07T14:35:51.000Z</time>
      </trkpt>
      <trkpt lat="45.80549" lon="4.73016">
        <ele>319.2713</ele>
        <time>2023-07-07T14:35:52.000Z</time>
      </trkpt>
      <trkpt lat="45.80547" lon="4.7302">
        <ele>318.87125</ele>
        <time>2023-07-07T14:35:53.000Z</time>
      </trkpt>
      <trkpt lat="45.80545" lon="4.73024">
        <ele>318.44568</ele>
        <time>2023-07-07T14:35:54.000Z</time>
      </trkpt>
      <trkpt lat="45.80543" lon="4.73028">
        <ele>317.99631</ele>
        <time>2023-07-07T14:35:55.000Z</time>
      </trkpt>
      <trkpt lat="45.80541" lon="4.73032">
        <ele>317.55557</ele>
        <time>2023-07-07T14:35:56.000Z</time>
      </trkpt>
      <trkpt lat="45.80539" lon="4.73037">
        <ele>317.13815</ele>
        <time>2023-07-07T14:35:57.000Z</time>
      </trkpt>
      <trkpt lat="45.80537" lon="4.73041">
        <ele>316.68909</ele>
        <time>2023-07-07T14:35:58.000Z</time>
      </trkpt>
      <trkpt lat="45.80535" lon="4.73044">
        <ele>316.24756</ele>
        <time>2023-07-07T14:35:59.000Z</time>
      </trkpt>
      <trkpt lat="45.80533" lon="4.73048">
        <ele>315.82623</ele>
        <time>2023-07-07T14:36:00.000Z</time>
      </trkpt>
      <trkpt lat="45.80531" lon="4.73052">
        <ele>315.37784</ele>
        <time>2023-07-07T14:36:01.000Z</time>
      </trkpt>
      <trkpt lat="45.80528" lon="4.73056">
        <ele>314.92697</ele>
        <time>2023-07-07T14:36:02.000Z</time>
      </trkpt>
      <trkpt lat="45.80526" lon="4.7306">
        <ele>314.41568</ele>
        <time>2023-07-07T14:36:03.000Z</time>
      </trkpt>
      <trkpt lat="45.80524" lon="4.73064">
        <ele>313.71402</ele>
        <time>2023-07-07T14:36:04.000Z</time>
      </trkpt>
      <trkpt lat="45.80521" lon="4.73068">
        <ele>313.60263</ele>
        <time>2023-07-07T14:36:05.000Z</time>
      </trkpt>
      <trkpt lat="45.80519" lon="4.73073">
        <ele>313.48608</ele>
        <time>2023-07-07T14:36:06.000Z</time>
      </trkpt>
      <trkpt lat="45.80517" lon="4.73077">
        <ele>313.34991</ele>
        <time>2023-07-07T14:36:07.000Z</time>
      </trkpt>
      <trkpt lat="45.80515" lon="4.73082">
        <ele>313.21259</ele>
        <time>2023-07-07T14:36:08.000Z</time>
      </trkpt>
      <trkpt lat="45.80513" lon="4.73086">
        <ele>313.11984</ele>
        <time>2023-07-07T14:36:09.000Z</time>
      </trkpt>
      <trkpt lat="45.80511" lon="4.7309">
        <ele>312.98676</ele>
        <time>2023-07-07T14:36:10.000Z</time>
      </trkpt>
      <trkpt lat="45.80508" lon="4.73094">
        <ele>312.89709</ele>
        <time>2023-07-07T14:36:11.000Z</time>
      </trkpt>
      <trkpt lat="45.80505" lon="4.73099">
        <ele>312.80133</ele>
        <time>2023-07-07T14:36:12.000Z</time>
      </trkpt>
      <trkpt lat="45.80503" lon="4.73104">
        <ele>312.68698</ele>
        <time>2023-07-07T14:36:13.000Z</time>
      </trkpt>
      <trkpt lat="45.805" lon="4.7311">
        <ele>312.60883</ele>
        <time>2023-07-07T14:36:14.000Z</time>
      </trkpt>
      <trkpt lat="45.80497" lon="4.73115">
        <ele>312.55112</ele>
        <time>2023-07-07T14:36:15.000Z</time>
      </trkpt>
      <trkpt lat="45.80492" lon="4.73119">
        <ele>312.45923</ele>
        <time>2023-07-07T14:36:16.000Z</time>
      </trkpt>
      <trkpt lat="45.80487" lon="4.73121">
        <ele>312.34265</ele>
        <time>2023-07-07T14:36:17.000Z</time>
      </trkpt>
      <trkpt lat="45.80483" lon="4.73124">
        <ele>312.27786</ele>
        <time>2023-07-07T14:36:18.000Z</time>
      </trkpt>
      <trkpt lat="45.80477" lon="4.73128">
        <ele>312.20691</ele>
        <time>2023-07-07T14:36:19.000Z</time>
      </trkpt>
      <trkpt lat="45.80472" lon="4.73133">
        <ele>312.08255</ele>
        <time>2023-07-07T14:36:20.000Z</time>
      </trkpt>
      <trkpt lat="45.80468" lon="4.73137">
        <ele>311.96625</ele>
        <time>2023-07-07T14:36:21.000Z</time>
      </trkpt>
      <trkpt lat="45.80463" lon="4.73141">
        <ele>311.78339</ele>
        <time>2023-07-07T14:36:22.000Z</time>
      </trkpt>
      <trkpt lat="45.80457" lon="4.73145">
        <ele>311.64496</ele>
        <time>2023-07-07T14:36:23.000Z</time>
      </trkpt>
      <trkpt lat="45.80452" lon="4.73151">
        <ele>311.46667</ele>
        <time>2023-07-07T14:36:24.000Z</time>
      </trkpt>
      <trkpt lat="45.80446" lon="4.73154">
        <ele>311.34497</ele>
        <time>2023-07-07T14:36:25.000Z</time>
      </trkpt>
      <trkpt lat="45.80439" lon="4.73157">
        <ele>311.16132</ele>
        <time>2023-07-07T14:36:26.000Z</time>
      </trkpt>
      <trkpt lat="45.80434" lon="4.73158">
        <ele>310.95792</ele>
        <time>2023-07-07T14:36:27.000Z</time>
      </trkpt>
      <trkpt lat="45.80428" lon="4.73163">
        <ele>310.81531</ele>
        <time>2023-07-07T14:36:28.000Z</time>
      </trkpt>
      <trkpt lat="45.80422" lon="4.73167">
        <ele>310.62686</ele>
        <time>2023-07-07T14:36:29.000Z</time>
      </trkpt>
      <trkpt lat="45.80415" lon="4.73172">
        <ele>310.43982</ele>
        <time>2023-07-07T14:36:30.000Z</time>
      </trkpt>
      <trkpt lat="45.80409" lon="4.73176">
        <ele>310.23312</ele>
        <time>2023-07-07T14:36:31.000Z</time>
      </trkpt>
      <trkpt lat="45.804" lon="4.7318">
        <ele>309.98587</ele>
        <time>2023-07-07T14:36:32.000Z</time>
      </trkpt>
      <trkpt lat="45.80392" lon="4.73184">
        <ele>309.74866</ele>
        <time>2023-07-07T14:36:33.000Z</time>
      </trkpt>
      <trkpt lat="45.80387" lon="4.73187">
        <ele>309.49753</ele>
        <time>2023-07-07T14:36:34.000Z</time>
      </trkpt>
      <trkpt lat="45.8038" lon="4.73192">
        <ele>309.19888</ele>
        <time>2023-07-07T14:36:35.000Z</time>
      </trkpt>
      <trkpt lat="45.80373" lon="4.73195">
        <ele>308.88788</ele>
        <time>2023-07-07T14:36:36.000Z</time>
      </trkpt>
      <trkpt lat="45.80368" lon="4.73198">
        <ele>308.55817</ele>
        <time>2023-07-07T14:36:37.000Z</time>
      </trkpt>
      <trkpt lat="45.80363" lon="4.73201">
        <ele>308.19708</ele>
        <time>2023-07-07T14:36:38.000Z</time>
      </trkpt>
      <trkpt lat="45.80359" lon="4.732">
        <ele>307.69324</ele>
        <time>2023-07-07T14:36:39.000Z</time>
      </trkpt>
      <trkpt lat="45.80355" lon="4.73202">
        <ele>307.17783</ele>
        <time>2023-07-07T14:36:40.000Z</time>
      </trkpt>
      <trkpt lat="45.80354" lon="4.73204">
        <ele>306.66486</ele>
        <time>2023-07-07T14:36:41.000Z</time>
      </trkpt>
      <trkpt lat="45.80352" lon="4.73211">
        <ele>306.29379</ele>
        <time>2023-07-07T14:36:42.000Z</time>
      </trkpt>
      <trkpt lat="45.8035" lon="4.73216">
        <ele>305.91974</ele>
        <time>2023-07-07T14:36:43.000Z</time>
      </trkpt>
      <trkpt lat="45.80349" lon="4.73223">
        <ele>305.55948</ele>
        <time>2023-07-07T14:36:44.000Z</time>
      </trkpt>
      <trkpt lat="45.80347" lon="4.73228">
        <ele>305.21719</ele>
        <time>2023-07-07T14:36:45.000Z</time>
      </trkpt>
      <trkpt lat="45.80345" lon="4.73234">
        <ele>304.94</ele>
        <time>2023-07-07T14:36:46.000Z</time>
      </trkpt>
      <trkpt lat="45.80343" lon="4.73237">
        <ele>304.69452</ele>
        <time>2023-07-07T14:36:47.000Z</time>
      </trkpt>
      <trkpt lat="45.8034" lon="4.73243">
        <ele>304.39752</ele>
        <time>2023-07-07T14:36:48.000Z</time>
      </trkpt>
      <trkpt lat="45.80337" lon="4.73247">
        <ele>303.99088</ele>
        <time>2023-07-07T14:36:49.000Z</time>
      </trkpt>
      <trkpt lat="45.80333" lon="4.73249">
        <ele>303.62677</ele>
        <time>2023-07-07T14:36:50.000Z</time>
      </trkpt>
      <trkpt lat="45.8033" lon="4.73251">
        <ele>303.27206</ele>
        <time>2023-07-07T14:36:51.000Z</time>
      </trkpt>
      <trkpt lat="45.80326" lon="4.73253">
        <ele>302.94623</ele>
        <time>2023-07-07T14:36:52.000Z</time>
      </trkpt>
      <trkpt lat="45.80322" lon="4.73253">
        <ele>302.64951</ele>
        <time>2023-07-07T14:36:53.000Z</time>
      </trkpt>
      <trkpt lat="45.80317" lon="4.73252">
        <ele>302.38193</ele>
        <time>2023-07-07T14:36:54.000Z</time>
      </trkpt>
      <trkpt lat="45.80313" lon="4.73251">
        <ele>302.13229</ele>
        <time>2023-07-07T14:36:55.000Z</time>
      </trkpt>
      <trkpt lat="45.80309" lon="4.7325">
        <ele>302.017</ele>
        <time>2023-07-07T14:36:56.000Z</time>
      </trkpt>
      <trkpt lat="45.80305" lon="4.73248">
        <ele>301.90387</ele>
        <time>2023-07-07T14:36:57.000Z</time>
      </trkpt>
      <trkpt lat="45.80301" lon="4.73247">
        <ele>301.79837</ele>
        <time>2023-07-07T14:36:58.000Z</time>
      </trkpt>
      <trkpt lat="45.80297" lon="4.73246">
        <ele>301.82886</ele>
        <time>2023-07-07T14:36:59.000Z</time>
      </trkpt>
      <trkpt lat="45.80293" lon="4.73245">
        <ele>301.9277</ele>
        <time>2023-07-07T14:37:00.000Z</time>
      </trkpt>
      <trkpt lat="45.80289" lon="4.73246">
        <ele>302.05801</ele>
        <time>2023-07-07T14:37:01.000Z</time>
      </trkpt>
      <trkpt lat="45.80285" lon="4.73246">
        <ele>302.10352</ele>
        <time>2023-07-07T14:37:02.000Z</time>
      </trkpt>
      <trkpt lat="45.80281" lon="4.73247">
        <ele>302.0769</ele>
        <time>2023-07-07T14:37:03.000Z</time>
      </trkpt>
      <trkpt lat="45.80278" lon="4.73247">
        <ele>302.10342</ele>
        <time>2023-07-07T14:37:04.000Z</time>
      </trkpt>
      <trkpt lat="45.80274" lon="4.73248">
        <ele>302.14496</ele>
        <time>2023-07-07T14:37:05.000Z</time>
      </trkpt>
      <trkpt lat="45.8027" lon="4.73248">
        <ele>302.13394</ele>
        <time>2023-07-07T14:37:06.000Z</time>
      </trkpt>
      <trkpt lat="45.80266" lon="4.73249">
        <ele>302.12198</ele>
        <time>2023-07-07T14:37:07.000Z</time>
      </trkpt>
      <trkpt lat="45.80262" lon="4.73249">
        <ele>302.16476</ele>
        <time>2023-07-07T14:37:08.000Z</time>
      </trkpt>
      <trkpt lat="45.80257" lon="4.73249">
        <ele>302.38092</ele>
        <time>2023-07-07T14:37:09.000Z</time>
      </trkpt>
      <trkpt lat="45.80253" lon="4.7325">
        <ele>302.61984</ele>
        <time>2023-07-07T14:37:10.000Z</time>
      </trkpt>
      <trkpt lat="45.80249" lon="4.7325">
        <ele>302.86975</ele>
        <time>2023-07-07T14:37:11.000Z</time>
      </trkpt>
      <trkpt lat="45.80244" lon="4.7325">
        <ele>303.14297</ele>
        <time>2023-07-07T14:37:12.000Z</time>
      </trkpt>
      <trkpt lat="45.8024" lon="4.73251">
        <ele>303.37781</ele>
        <time>2023-07-07T14:37:13.000Z</time>
      </trkpt>
      <trkpt lat="45.80235" lon="4.73252">
        <ele>303.58224</ele>
        <time>2023-07-07T14:37:14.000Z</time>
      </trkpt>
      <trkpt lat="45.80231" lon="4.73253">
        <ele>303.8468</ele>
        <time>2023-07-07T14:37:15.000Z</time>
      </trkpt>
      <trkpt lat="45.80226" lon="4.73253">
        <ele>304.01471</ele>
        <time>2023-07-07T14:37:16.000Z</time>
      </trkpt>
      <trkpt lat="45.80222" lon="4.73253">
        <ele>304.20206</ele>
        <time>2023-07-07T14:37:17.000Z</time>
      </trkpt>
      <trkpt lat="45.80218" lon="4.73254">
        <ele>304.28174</ele>
        <time>2023-07-07T14:37:18.000Z</time>
      </trkpt>
      <trkpt lat="45.80213" lon="4.73254">
        <ele>304.38226</ele>
        <time>2023-07-07T14:37:19.000Z</time>
      </trkpt>
      <trkpt lat="45.80209" lon="4.73254">
        <ele>304.45166</ele>
        <time>2023-07-07T14:37:20.000Z</time>
      </trkpt>
      <trkpt lat="45.80205" lon="4.73254">
        <ele>304.4682</ele>
        <time>2023-07-07T14:37:21.000Z</time>
      </trkpt>
      <trkpt lat="45.80201" lon="4.73255">
        <ele>304.46161</ele>
        <time>2023-07-07T14:37:22.000Z</time>
      </trkpt>
      <trkpt lat="45.80197" lon="4.73256">
        <ele>304.50995</ele>
        <time>2023-07-07T14:37:23.000Z</time>
      </trkpt>
      <trkpt lat="45.80192" lon="4.73255">
        <ele>304.53107</ele>
        <time>2023-07-07T14:37:24.000Z</time>
      </trkpt>
      <trkpt lat="45.80187" lon="4.73256">
        <ele>304.5618</ele>
        <time>2023-07-07T14:37:25.000Z</time>
      </trkpt>
      <trkpt lat="45.80182" lon="4.73256">
        <ele>304.64166</ele>
        <time>2023-07-07T14:37:26.000Z</time>
      </trkpt>
      <trkpt lat="45.80177" lon="4.73256">
        <ele>304.77063</ele>
        <time>2023-07-07T14:37:27.000Z</time>
      </trkpt>
      <trkpt lat="45.80172" lon="4.73257">
        <ele>304.71744</ele>
        <time>2023-07-07T14:37:28.000Z</time>
      </trkpt>
      <trkpt lat="45.80166" lon="4.73257">
        <ele>304.66901</ele>
        <time>2023-07-07T14:37:29.000Z</time>
      </trkpt>
      <trkpt lat="45.80161" lon="4.73257">
        <ele>304.5777</ele>
        <time>2023-07-07T14:37:30.000Z</time>
      </trkpt>
      <trkpt lat="45.80155" lon="4.73256">
        <ele>304.49548</ele>
        <time>2023-07-07T14:37:31.000Z</time>
      </trkpt>
      <trkpt lat="45.8015" lon="4.73255">
        <ele>304.4039</ele>
        <time>2023-07-07T14:37:32.000Z</time>
      </trkpt>
      <trkpt lat="45.80145" lon="4.73255">
        <ele>304.32407</ele>
        <time>2023-07-07T14:37:33.000Z</time>
      </trkpt>
      <trkpt lat="45.8014" lon="4.73255">
        <ele>304.24677</ele>
        <time>2023-07-07T14:37:34.000Z</time>
      </trkpt>
      <trkpt lat="45.80134" lon="4.73256">
        <ele>304.14624</ele>
        <time>2023-07-07T14:37:35.000Z</time>
      </trkpt>
      <trkpt lat="45.80129" lon="4.73256">
        <ele>304.07349</ele>
        <time>2023-07-07T14:37:36.000Z</time>
      </trkpt>
      <trkpt lat="45.80124" lon="4.73257">
        <ele>303.98154</ele>
        <time>2023-07-07T14:37:37.000Z</time>
      </trkpt>
      <trkpt lat="45.80119" lon="4.73258">
        <ele>303.97247</ele>
        <time>2023-07-07T14:37:38.000Z</time>
      </trkpt>
      <trkpt lat="45.80115" lon="4.73259">
        <ele>303.90411</ele>
        <time>2023-07-07T14:37:39.000Z</time>
      </trkpt>
      <trkpt lat="45.80108" lon="4.7326">
        <ele>303.84552</ele>
        <time>2023-07-07T14:37:40.000Z</time>
      </trkpt>
      <trkpt lat="45.80102" lon="4.73263">
        <ele>303.78192</ele>
        <time>2023-07-07T14:37:41.000Z</time>
      </trkpt>
      <trkpt lat="45.80096" lon="4.73265">
        <ele>303.70279</ele>
        <time>2023-07-07T14:37:42.000Z</time>
      </trkpt>
      <trkpt lat="45.80091" lon="4.73266">
        <ele>303.70706</ele>
        <time>2023-07-07T14:37:43.000Z</time>
      </trkpt>
      <trkpt lat="45.80086" lon="4.73268">
        <ele>303.70111</ele>
        <time>2023-07-07T14:37:44.000Z</time>
      </trkpt>
      <trkpt lat="45.80081" lon="4.7327">
        <ele>303.64841</ele>
        <time>2023-07-07T14:37:45.000Z</time>
      </trkpt>
      <trkpt lat="45.80076" lon="4.73271">
        <ele>303.59705</ele>
        <time>2023-07-07T14:37:46.000Z</time>
      </trkpt>
      <trkpt lat="45.80071" lon="4.73272">
        <ele>303.54361</ele>
        <time>2023-07-07T14:37:47.000Z</time>
      </trkpt>
      <trkpt lat="45.80067" lon="4.73273">
        <ele>303.48285</ele>
        <time>2023-07-07T14:37:48.000Z</time>
      </trkpt>
      <trkpt lat="45.80063" lon="4.73274">
        <ele>303.45917</ele>
        <time>2023-07-07T14:37:49.000Z</time>
      </trkpt>
      <trkpt lat="45.80058" lon="4.73275">
        <ele>303.44696</ele>
        <time>2023-07-07T14:37:50.000Z</time>
      </trkpt>
      <trkpt lat="45.80054" lon="4.73277">
        <ele>303.41492</ele>
        <time>2023-07-07T14:37:51.000Z</time>
      </trkpt>
      <trkpt lat="45.80049" lon="4.73278">
        <ele>303.38968</ele>
        <time>2023-07-07T14:37:52.000Z</time>
      </trkpt>
      <trkpt lat="45.80044" lon="4.73279">
        <ele>303.37216</ele>
        <time>2023-07-07T14:37:53.000Z</time>
      </trkpt>
      <trkpt lat="45.8004" lon="4.7328">
        <ele>303.37164</ele>
        <time>2023-07-07T14:37:54.000Z</time>
      </trkpt>
      <trkpt lat="45.80035" lon="4.73281">
        <ele>303.33759</ele>
        <time>2023-07-07T14:37:55.000Z</time>
      </trkpt>
      <trkpt lat="45.80029" lon="4.73282">
        <ele>303.22568</ele>
        <time>2023-07-07T14:37:56.000Z</time>
      </trkpt>
      <trkpt lat="45.80025" lon="4.73283">
        <ele>303.22079</ele>
        <time>2023-07-07T14:37:57.000Z</time>
      </trkpt>
      <trkpt lat="45.8002" lon="4.73284">
        <ele>303.25043</ele>
        <time>2023-07-07T14:37:58.000Z</time>
      </trkpt>
      <trkpt lat="45.80015" lon="4.73286">
        <ele>303.31461</ele>
        <time>2023-07-07T14:37:59.000Z</time>
      </trkpt>
      <trkpt lat="45.80011" lon="4.73287">
        <ele>303.39166</ele>
        <time>2023-07-07T14:38:00.000Z</time>
      </trkpt>
      <trkpt lat="45.80007" lon="4.73289">
        <ele>303.3902</ele>
        <time>2023-07-07T14:38:01.000Z</time>
      </trkpt>
      <trkpt lat="45.80001" lon="4.7329">
        <ele>303.44662</ele>
        <time>2023-07-07T14:38:02.000Z</time>
      </trkpt>
      <trkpt lat="45.79996" lon="4.7329">
        <ele>303.44931</ele>
        <time>2023-07-07T14:38:03.000Z</time>
      </trkpt>
      <trkpt lat="45.7999" lon="4.7329">
        <ele>303.43631</ele>
        <time>2023-07-07T14:38:04.000Z</time>
      </trkpt>
      <trkpt lat="45.79984" lon="4.73291">
        <ele>303.44232</ele>
        <time>2023-07-07T14:38:05.000Z</time>
      </trkpt>
      <trkpt lat="45.79979" lon="4.73292">
        <ele>303.45206</ele>
        <time>2023-07-07T14:38:06.000Z</time>
      </trkpt>
      <trkpt lat="45.79974" lon="4.73294">
        <ele>303.40649</ele>
        <time>2023-07-07T14:38:07.000Z</time>
      </trkpt>
      <trkpt lat="45.7997" lon="4.73298">
        <ele>303.51962</ele>
        <time>2023-07-07T14:38:08.000Z</time>
      </trkpt>
      <trkpt lat="45.79966" lon="4.73301">
        <ele>303.58789</ele>
        <time>2023-07-07T14:38:09.000Z</time>
      </trkpt>
      <trkpt lat="45.79963" lon="4.73306">
        <ele>303.61508</ele>
        <time>2023-07-07T14:38:10.000Z</time>
      </trkpt>
      <trkpt lat="45.7996" lon="4.73312">
        <ele>303.65097</ele>
        <time>2023-07-07T14:38:11.000Z</time>
      </trkpt>
      <trkpt lat="45.79959" lon="4.73317">
        <ele>303.64273</ele>
        <time>2023-07-07T14:38:12.000Z</time>
      </trkpt>
      <trkpt lat="45.79958" lon="4.73323">
        <ele>303.6218</ele>
        <time>2023-07-07T14:38:13.000Z</time>
      </trkpt>
      <trkpt lat="45.79958" lon="4.7333">
        <ele>303.56509</ele>
        <time>2023-07-07T14:38:14.000Z</time>
      </trkpt>
      <trkpt lat="45.79959" lon="4.73336">
        <ele>303.4993</ele>
        <time>2023-07-07T14:38:15.000Z</time>
      </trkpt>
      <trkpt lat="45.7996" lon="4.73343">
        <ele>303.49969</ele>
        <time>2023-07-07T14:38:16.000Z</time>
      </trkpt>
      <trkpt lat="45.79961" lon="4.73348">
        <ele>303.42108</ele>
        <time>2023-07-07T14:38:17.000Z</time>
      </trkpt>
      <trkpt lat="45.79961" lon="4.73354">
        <ele>303.33057</ele>
        <time>2023-07-07T14:38:18.000Z</time>
      </trkpt>
      <trkpt lat="45.79962" lon="4.7336">
        <ele>303.23315</ele>
        <time>2023-07-07T14:38:19.000Z</time>
      </trkpt>
      <trkpt lat="45.79963" lon="4.73366">
        <ele>303.12686</ele>
        <time>2023-07-07T14:38:20.000Z</time>
      </trkpt>
      <trkpt lat="45.79964" lon="4.73372">
        <ele>303.10107</ele>
        <time>2023-07-07T14:38:21.000Z</time>
      </trkpt>
      <trkpt lat="45.79964" lon="4.73378">
        <ele>303.04617</ele>
        <time>2023-07-07T14:38:22.000Z</time>
      </trkpt>
      <trkpt lat="45.79962" lon="4.73383">
        <ele>303.01807</ele>
        <time>2023-07-07T14:38:23.000Z</time>
      </trkpt>
      <trkpt lat="45.7996" lon="4.73387">
        <ele>302.84412</ele>
        <time>2023-07-07T14:38:24.000Z</time>
      </trkpt>
      <trkpt lat="45.79956" lon="4.73391">
        <ele>302.6904</ele>
        <time>2023-07-07T14:38:25.000Z</time>
      </trkpt>
      <trkpt lat="45.79952" lon="4.73395">
        <ele>302.45294</ele>
        <time>2023-07-07T14:38:26.000Z</time>
      </trkpt>
      <trkpt lat="45.79948" lon="4.734">
        <ele>302.22263</ele>
        <time>2023-07-07T14:38:27.000Z</time>
      </trkpt>
      <trkpt lat="45.79943" lon="4.73403">
        <ele>301.9642</ele>
        <time>2023-07-07T14:38:28.000Z</time>
      </trkpt>
      <trkpt lat="45.79939" lon="4.73406">
        <ele>301.6694</ele>
        <time>2023-07-07T14:38:29.000Z</time>
      </trkpt>
      <trkpt lat="45.79934" lon="4.73409">
        <ele>301.71228</ele>
        <time>2023-07-07T14:38:30.000Z</time>
      </trkpt>
      <trkpt lat="45.79929" lon="4.73411">
        <ele>301.69379</ele>
        <time>2023-07-07T14:38:31.000Z</time>
      </trkpt>
      <trkpt lat="45.79925" lon="4.73414">
        <ele>301.68198</ele>
        <time>2023-07-07T14:38:32.000Z</time>
      </trkpt>
      <trkpt lat="45.7992" lon="4.73417">
        <ele>301.66302</ele>
        <time>2023-07-07T14:38:33.000Z</time>
      </trkpt>
      <trkpt lat="45.79915" lon="4.73421">
        <ele>301.70657</ele>
        <time>2023-07-07T14:38:34.000Z</time>
      </trkpt>
      <trkpt lat="45.79908" lon="4.73424">
        <ele>301.81442</ele>
        <time>2023-07-07T14:38:35.000Z</time>
      </trkpt>
      <trkpt lat="45.79903" lon="4.73427">
        <ele>301.76288</ele>
        <time>2023-07-07T14:38:36.000Z</time>
      </trkpt>
      <trkpt lat="45.79897" lon="4.7343">
        <ele>301.72662</ele>
        <time>2023-07-07T14:38:37.000Z</time>
      </trkpt>
      <trkpt lat="45.79891" lon="4.73431">
        <ele>301.69751</ele>
        <time>2023-07-07T14:38:38.000Z</time>
      </trkpt>
      <trkpt lat="45.79886" lon="4.73429">
        <ele>301.62576</ele>
        <time>2023-07-07T14:38:39.000Z</time>
      </trkpt>
      <trkpt lat="45.7988" lon="4.73428">
        <ele>301.52209</ele>
        <time>2023-07-07T14:38:40.000Z</time>
      </trkpt>
      <trkpt lat="45.79874" lon="4.73427">
        <ele>301.50983</ele>
        <time>2023-07-07T14:38:41.000Z</time>
      </trkpt>
      <trkpt lat="45.79868" lon="4.73425">
        <ele>301.51407</ele>
        <time>2023-07-07T14:38:42.000Z</time>
      </trkpt>
      <trkpt lat="45.79862" lon="4.73422">
        <ele>301.57147</ele>
        <time>2023-07-07T14:38:43.000Z</time>
      </trkpt>
      <trkpt lat="45.79857" lon="4.73421">
        <ele>301.63193</ele>
        <time>2023-07-07T14:38:44.000Z</time>
      </trkpt>
      <trkpt lat="45.7985" lon="4.73419">
        <ele>301.6767</ele>
        <time>2023-07-07T14:38:45.000Z</time>
      </trkpt>
      <trkpt lat="45.79844" lon="4.73417">
        <ele>301.84396</ele>
        <time>2023-07-07T14:38:46.000Z</time>
      </trkpt>
      <trkpt lat="45.7984" lon="4.73415">
        <ele>301.9465</ele>
        <time>2023-07-07T14:38:47.000Z</time>
      </trkpt>
      <trkpt lat="45.79832" lon="4.73413">
        <ele>302.07236</ele>
        <time>2023-07-07T14:38:48.000Z</time>
      </trkpt>
      <trkpt lat="45.79827" lon="4.73412">
        <ele>302.18552</ele>
        <time>2023-07-07T14:38:49.000Z</time>
      </trkpt>
      <trkpt lat="45.79821" lon="4.7341">
        <ele>301.97528</ele>
        <time>2023-07-07T14:38:50.000Z</time>
      </trkpt>
      <trkpt lat="45.79815" lon="4.73408">
        <ele>301.82062</ele>
        <time>2023-07-07T14:38:51.000Z</time>
      </trkpt>
      <trkpt lat="45.7981" lon="4.73406">
        <ele>301.66345</ele>
        <time>2023-07-07T14:38:52.000Z</time>
      </trkpt>
      <trkpt lat="45.79805" lon="4.73404">
        <ele>301.51602</ele>
        <time>2023-07-07T14:38:53.000Z</time>
      </trkpt>
      <trkpt lat="45.79801" lon="4.73402">
        <ele>301.26697</ele>
        <time>2023-07-07T14:38:54.000Z</time>
      </trkpt>
      <trkpt lat="45.79796" lon="4.73402">
        <ele>300.99826</ele>
        <time>2023-07-07T14:38:55.000Z</time>
      </trkpt>
      <trkpt lat="45.79791" lon="4.73401">
        <ele>300.87799</ele>
        <time>2023-07-07T14:38:56.000Z</time>
      </trkpt>
      <trkpt lat="45.79787" lon="4.734">
        <ele>300.89581</ele>
        <time>2023-07-07T14:38:57.000Z</time>
      </trkpt>
      <trkpt lat="45.79782" lon="4.73399">
        <ele>300.92474</ele>
        <time>2023-07-07T14:38:58.000Z</time>
      </trkpt>
      <trkpt lat="45.79776" lon="4.73395">
        <ele>301.03699</ele>
        <time>2023-07-07T14:38:59.000Z</time>
      </trkpt>
      <trkpt lat="45.7977" lon="4.73394">
        <ele>301.1496</ele>
        <time>2023-07-07T14:39:00.000Z</time>
      </trkpt>
      <trkpt lat="45.79764" lon="4.73392">
        <ele>300.96918</ele>
        <time>2023-07-07T14:39:01.000Z</time>
      </trkpt>
      <trkpt lat="45.79758" lon="4.73393">
        <ele>300.79083</ele>
        <time>2023-07-07T14:39:02.000Z</time>
      </trkpt>
      <trkpt lat="45.79753" lon="4.73393">
        <ele>300.55627</ele>
        <time>2023-07-07T14:39:03.000Z</time>
      </trkpt>
      <trkpt lat="45.79748" lon="4.73395">
        <ele>300.47784</ele>
        <time>2023-07-07T14:39:04.000Z</time>
      </trkpt>
      <trkpt lat="45.79744" lon="4.73397">
        <ele>300.39459</ele>
        <time>2023-07-07T14:39:05.000Z</time>
      </trkpt>
      <trkpt lat="45.7974" lon="4.73401">
        <ele>300.26077</ele>
        <time>2023-07-07T14:39:06.000Z</time>
      </trkpt>
      <trkpt lat="45.79734" lon="4.73403">
        <ele>300.14691</ele>
        <time>2023-07-07T14:39:07.000Z</time>
      </trkpt>
      <trkpt lat="45.79729" lon="4.73403">
        <ele>299.95712</ele>
        <time>2023-07-07T14:39:08.000Z</time>
      </trkpt>
      <trkpt lat="45.79725" lon="4.73403">
        <ele>299.78568</ele>
        <time>2023-07-07T14:39:09.000Z</time>
      </trkpt>
      <trkpt lat="45.79721" lon="4.73405">
        <ele>299.61508</ele>
        <time>2023-07-07T14:39:10.000Z</time>
      </trkpt>
      <trkpt lat="45.79717" lon="4.73406">
        <ele>299.58157</ele>
        <time>2023-07-07T14:39:11.000Z</time>
      </trkpt>
      <trkpt lat="45.79712" lon="4.73408">
        <ele>299.58417</ele>
        <time>2023-07-07T14:39:12.000Z</time>
      </trkpt>
      <trkpt lat="45.79708" lon="4.7341">
        <ele>299.58865</ele>
        <time>2023-07-07T14:39:13.000Z</time>
      </trkpt>
      <trkpt lat="45.79703" lon="4.73411">
        <ele>299.64523</ele>
        <time>2023-07-07T14:39:14.000Z</time>
      </trkpt>
      <trkpt lat="45.79698" lon="4.73412">
        <ele>299.67856</ele>
        <time>2023-07-07T14:39:15.000Z</time>
      </trkpt>
      <trkpt lat="45.79692" lon="4.73414">
        <ele>299.48621</ele>
        <time>2023-07-07T14:39:16.000Z</time>
      </trkpt>
      <trkpt lat="45.79688" lon="4.73415">
        <ele>299.1087</ele>
        <time>2023-07-07T14:39:17.000Z</time>
      </trkpt>
      <trkpt lat="45.79684" lon="4.73419">
        <ele>298.74478</ele>
        <time>2023-07-07T14:39:18.000Z</time>
      </trkpt>
      <trkpt lat="45.79678" lon="4.7342">
        <ele>298.36325</ele>
        <time>2023-07-07T14:39:19.000Z</time>
      </trkpt>
      <trkpt lat="45.79673" lon="4.73421">
        <ele>297.94763</ele>
        <time>2023-07-07T14:39:20.000Z</time>
      </trkpt>
      <trkpt lat="45.79667" lon="4.73422">
        <ele>297.75412</ele>
        <time>2023-07-07T14:39:21.000Z</time>
      </trkpt>
      <trkpt lat="45.79661" lon="4.73424">
        <ele>297.55176</ele>
        <time>2023-07-07T14:39:22.000Z</time>
      </trkpt>
      <trkpt lat="45.79656" lon="4.73425">
        <ele>297.29568</ele>
        <time>2023-07-07T14:39:23.000Z</time>
      </trkpt>
      <trkpt lat="45.79651" lon="4.73427">
        <ele>297.01645</ele>
        <time>2023-07-07T14:39:24.000Z</time>
      </trkpt>
      <trkpt lat="45.79644" lon="4.73428">
        <ele>296.73221</ele>
        <time>2023-07-07T14:39:25.000Z</time>
      </trkpt>
      <trkpt lat="45.79638" lon="4.73429">
        <ele>296.4386</ele>
        <time>2023-07-07T14:39:26.000Z</time>
      </trkpt>
      <trkpt lat="45.79632" lon="4.7343">
        <ele>296.16263</ele>
        <time>2023-07-07T14:39:27.000Z</time>
      </trkpt>
      <trkpt lat="45.79625" lon="4.7343">
        <ele>295.93323</ele>
        <time>2023-07-07T14:39:28.000Z</time>
      </trkpt>
      <trkpt lat="45.79619" lon="4.73429">
        <ele>295.68051</ele>
        <time>2023-07-07T14:39:29.000Z</time>
      </trkpt>
      <trkpt lat="45.79613" lon="4.7343">
        <ele>295.46414</ele>
        <time>2023-07-07T14:39:30.000Z</time>
      </trkpt>
      <trkpt lat="45.79606" lon="4.73432">
        <ele>295.13806</ele>
        <time>2023-07-07T14:39:31.000Z</time>
      </trkpt>
      <trkpt lat="45.796" lon="4.73434">
        <ele>294.79736</ele>
        <time>2023-07-07T14:39:32.000Z</time>
      </trkpt>
      <trkpt lat="45.79594" lon="4.73436">
        <ele>294.45236</ele>
        <time>2023-07-07T14:39:33.000Z</time>
      </trkpt>
      <trkpt lat="45.79587" lon="4.73438">
        <ele>294.12082</ele>
        <time>2023-07-07T14:39:34.000Z</time>
      </trkpt>
      <trkpt lat="45.79581" lon="4.7344">
        <ele>293.77075</ele>
        <time>2023-07-07T14:39:35.000Z</time>
      </trkpt>
      <trkpt lat="45.79574" lon="4.73442">
        <ele>293.65289</ele>
        <time>2023-07-07T14:39:36.000Z</time>
      </trkpt>
      <trkpt lat="45.79566" lon="4.73445">
        <ele>293.52936</ele>
        <time>2023-07-07T14:39:37.000Z</time>
      </trkpt>
      <trkpt lat="45.79559" lon="4.73447">
        <ele>293.35352</ele>
        <time>2023-07-07T14:39:38.000Z</time>
      </trkpt>
      <trkpt lat="45.79552" lon="4.73448">
        <ele>293.09415</ele>
        <time>2023-07-07T14:39:39.000Z</time>
      </trkpt>
      <trkpt lat="45.79545" lon="4.7345">
        <ele>292.86584</ele>
        <time>2023-07-07T14:39:40.000Z</time>
      </trkpt>
      <trkpt lat="45.79538" lon="4.73452">
        <ele>292.59415</ele>
        <time>2023-07-07T14:39:41.000Z</time>
      </trkpt>
      <trkpt lat="45.7953" lon="4.73454">
        <ele>292.27295</ele>
        <time>2023-07-07T14:39:42.000Z</time>
      </trkpt>
      <trkpt lat="45.79523" lon="4.73456">
        <ele>292.01685</ele>
        <time>2023-07-07T14:39:43.000Z</time>
      </trkpt>
      <trkpt lat="45.79515" lon="4.7346">
        <ele>291.77054</ele>
        <time>2023-07-07T14:39:44.000Z</time>
      </trkpt>
      <trkpt lat="45.79508" lon="4.73465">
        <ele>291.495</ele>
        <time>2023-07-07T14:39:45.000Z</time>
      </trkpt>
      <trkpt lat="45.79501" lon="4.73469">
        <ele>291.45041</ele>
        <time>2023-07-07T14:39:46.000Z</time>
      </trkpt>
      <trkpt lat="45.79494" lon="4.73474">
        <ele>291.3725</ele>
        <time>2023-07-07T14:39:47.000Z</time>
      </trkpt>
      <trkpt lat="45.79488" lon="4.73479">
        <ele>291.29385</ele>
        <time>2023-07-07T14:39:48.000Z</time>
      </trkpt>
      <trkpt lat="45.79482" lon="4.73485">
        <ele>291.34079</ele>
        <time>2023-07-07T14:39:49.000Z</time>
      </trkpt>
      <trkpt lat="45.79475" lon="4.73489">
        <ele>290.98746</ele>
        <time>2023-07-07T14:39:50.000Z</time>
      </trkpt>
      <trkpt lat="45.79468" lon="4.73494">
        <ele>290.66711</ele>
        <time>2023-07-07T14:39:51.000Z</time>
      </trkpt>
      <trkpt lat="45.79462" lon="4.73499">
        <ele>290.33316</ele>
        <time>2023-07-07T14:39:52.000Z</time>
      </trkpt>
      <trkpt lat="45.79456" lon="4.73504">
        <ele>289.98706</ele>
        <time>2023-07-07T14:39:53.000Z</time>
      </trkpt>
      <trkpt lat="45.79449" lon="4.73508">
        <ele>289.64957</ele>
        <time>2023-07-07T14:39:54.000Z</time>
      </trkpt>
      <trkpt lat="45.79442" lon="4.73511">
        <ele>289.3349</ele>
        <time>2023-07-07T14:39:55.000Z</time>
      </trkpt>
      <trkpt lat="45.79435" lon="4.73513">
        <ele>289.02853</ele>
        <time>2023-07-07T14:39:56.000Z</time>
      </trkpt>
      <trkpt lat="45.79428" lon="4.73515">
        <ele>288.73544</ele>
        <time>2023-07-07T14:39:57.000Z</time>
      </trkpt>
      <trkpt lat="45.79421" lon="4.73516">
        <ele>288.41742</ele>
        <time>2023-07-07T14:39:58.000Z</time>
      </trkpt>
      <trkpt lat="45.79414" lon="4.73516">
        <ele>288.17795</ele>
        <time>2023-07-07T14:39:59.000Z</time>
      </trkpt>
      <trkpt lat="45.79407" lon="4.73515">
        <ele>287.96231</ele>
        <time>2023-07-07T14:40:00.000Z</time>
      </trkpt>
      <trkpt lat="45.794" lon="4.73512">
        <ele>287.77509</ele>
        <time>2023-07-07T14:40:01.000Z</time>
      </trkpt>
      <trkpt lat="45.79392" lon="4.7351">
        <ele>287.60556</ele>
        <time>2023-07-07T14:40:02.000Z</time>
      </trkpt>
      <trkpt lat="45.79386" lon="4.73508">
        <ele>287.38272</ele>
        <time>2023-07-07T14:40:03.000Z</time>
      </trkpt>
      <trkpt lat="45.7938" lon="4.73504">
        <ele>287.12994</ele>
        <time>2023-07-07T14:40:04.000Z</time>
      </trkpt>
      <trkpt lat="45.79373" lon="4.73501">
        <ele>286.94592</ele>
        <time>2023-07-07T14:40:05.000Z</time>
      </trkpt>
      <trkpt lat="45.79366" lon="4.73497">
        <ele>286.60941</ele>
        <time>2023-07-07T14:40:06.000Z</time>
      </trkpt>
      <trkpt lat="45.7936" lon="4.73493">
        <ele>286.32977</ele>
        <time>2023-07-07T14:40:07.000Z</time>
      </trkpt>
      <trkpt lat="45.79354" lon="4.73489">
        <ele>286.09955</ele>
        <time>2023-07-07T14:40:08.000Z</time>
      </trkpt>
      <trkpt lat="45.79346" lon="4.73485">
        <ele>285.78088</ele>
        <time>2023-07-07T14:40:09.000Z</time>
      </trkpt>
      <trkpt lat="45.79341" lon="4.7348">
        <ele>285.76288</ele>
        <time>2023-07-07T14:40:10.000Z</time>
      </trkpt>
      <trkpt lat="45.79334" lon="4.73476">
        <ele>285.74127</ele>
        <time>2023-07-07T14:40:11.000Z</time>
      </trkpt>
      <trkpt lat="45.79329" lon="4.7347">
        <ele>285.72955</ele>
        <time>2023-07-07T14:40:12.000Z</time>
      </trkpt>
      <trkpt lat="45.79322" lon="4.73467">
        <ele>285.71408</ele>
        <time>2023-07-07T14:40:13.000Z</time>
      </trkpt>
      <trkpt lat="45.79316" lon="4.73462">
        <ele>285.67307</ele>
        <time>2023-07-07T14:40:14.000Z</time>
      </trkpt>
      <trkpt lat="45.79308" lon="4.73459">
        <ele>285.61285</ele>
        <time>2023-07-07T14:40:15.000Z</time>
      </trkpt>
      <trkpt lat="45.79301" lon="4.73458">
        <ele>285.50079</ele>
        <time>2023-07-07T14:40:16.000Z</time>
      </trkpt>
      <trkpt lat="45.79294" lon="4.73456">
        <ele>285.39691</ele>
        <time>2023-07-07T14:40:17.000Z</time>
      </trkpt>
      <trkpt lat="45.79287" lon="4.73456">
        <ele>285.51474</ele>
        <time>2023-07-07T14:40:18.000Z</time>
      </trkpt>
      <trkpt lat="45.79281" lon="4.73454">
        <ele>285.57458</ele>
        <time>2023-07-07T14:40:19.000Z</time>
      </trkpt>
      <trkpt lat="45.79274" lon="4.73451">
        <ele>285.61002</ele>
        <time>2023-07-07T14:40:20.000Z</time>
      </trkpt>
      <trkpt lat="45.79266" lon="4.7345">
        <ele>285.63614</ele>
        <time>2023-07-07T14:40:21.000Z</time>
      </trkpt>
      <trkpt lat="45.79259" lon="4.73448">
        <ele>285.66782</ele>
        <time>2023-07-07T14:40:22.000Z</time>
      </trkpt>
      <trkpt lat="45.79253" lon="4.73445">
        <ele>285.73169</ele>
        <time>2023-07-07T14:40:23.000Z</time>
      </trkpt>
      <trkpt lat="45.79246" lon="4.73442">
        <ele>285.81708</ele>
        <time>2023-07-07T14:40:24.000Z</time>
      </trkpt>
      <trkpt lat="45.79239" lon="4.73439">
        <ele>285.86386</ele>
        <time>2023-07-07T14:40:25.000Z</time>
      </trkpt>
      <trkpt lat="45.79232" lon="4.73435">
        <ele>285.83081</ele>
        <time>2023-07-07T14:40:26.000Z</time>
      </trkpt>
      <trkpt lat="45.79225" lon="4.7343">
        <ele>285.90442</ele>
        <time>2023-07-07T14:40:27.000Z</time>
      </trkpt>
      <trkpt lat="45.79218" lon="4.73424">
        <ele>285.29028</ele>
        <time>2023-07-07T14:40:28.000Z</time>
      </trkpt>
      <trkpt lat="45.7921" lon="4.7342">
        <ele>284.31512</ele>
        <time>2023-07-07T14:40:29.000Z</time>
      </trkpt>
      <trkpt lat="45.79202" lon="4.73415">
        <ele>283.39389</ele>
        <time>2023-07-07T14:40:30.000Z</time>
      </trkpt>
      <trkpt lat="45.79193" lon="4.73412">
        <ele>282.39117</ele>
        <time>2023-07-07T14:40:31.000Z</time>
      </trkpt>
      <trkpt lat="45.79185" lon="4.73409">
        <ele>281.33698</ele>
        <time>2023-07-07T14:40:32.000Z</time>
      </trkpt>
      <trkpt lat="45.7918" lon="4.73405">
        <ele>280.20258</ele>
        <time>2023-07-07T14:40:33.000Z</time>
      </trkpt>
      <trkpt lat="45.79175" lon="4.73403">
        <ele>279.10126</ele>
        <time>2023-07-07T14:40:34.000Z</time>
      </trkpt>
      <trkpt lat="45.7917" lon="4.734">
        <ele>278.01276</ele>
        <time>2023-07-07T14:40:35.000Z</time>
      </trkpt>
      <trkpt lat="45.79165" lon="4.73398">
        <ele>276.98434</ele>
        <time>2023-07-07T14:40:36.000Z</time>
      </trkpt>
      <trkpt lat="45.79161" lon="4.73395">
        <ele>275.94876</ele>
        <time>2023-07-07T14:40:37.000Z</time>
      </trkpt>
      <trkpt lat="45.79157" lon="4.73393">
        <ele>274.75336</ele>
        <time>2023-07-07T14:40:38.000Z</time>
      </trkpt>
      <trkpt lat="45.79154" lon="4.73392">
        <ele>273.58002</ele>
        <time>2023-07-07T14:40:39.000Z</time>
      </trkpt>
      <trkpt lat="45.79151" lon="4.73391">
        <ele>272.42429</ele>
        <time>2023-07-07T14:40:41.000Z</time>
      </trkpt>
      <trkpt lat="45.7915" lon="4.73393">
        <ele>271.29474</ele>
        <time>2023-07-07T14:40:42.000Z</time>
      </trkpt>
      <trkpt lat="45.79148" lon="4.73397">
        <ele>270.23438</ele>
        <time>2023-07-07T14:40:44.000Z</time>
      </trkpt>
      <trkpt lat="45.79145" lon="4.73397">
        <ele>269.1507</ele>
        <time>2023-07-07T14:40:45.000Z</time>
      </trkpt>
      <trkpt lat="45.79142" lon="4.734">
        <ele>268.12335</ele>
        <time>2023-07-07T14:40:46.000Z</time>
      </trkpt>
      <trkpt lat="45.7914" lon="4.73401">
        <ele>267.07526</ele>
        <time>2023-07-07T14:40:47.000Z</time>
      </trkpt>
      <trkpt lat="45.79136" lon="4.73402">
        <ele>265.99979</ele>
        <time>2023-07-07T14:40:48.000Z</time>
      </trkpt>
      <trkpt lat="45.79133" lon="4.73402">
        <ele>264.82593</ele>
        <time>2023-07-07T14:40:49.000Z</time>
      </trkpt>
      <trkpt lat="45.79129" lon="4.73403">
        <ele>264.31906</ele>
        <time>2023-07-07T14:40:50.000Z</time>
      </trkpt>
      <trkpt lat="45.79125" lon="4.73403">
        <ele>264.17218</ele>
        <time>2023-07-07T14:40:51.000Z</time>
      </trkpt>
      <trkpt lat="45.79121" lon="4.73403">
        <ele>264.0517</ele>
        <time>2023-07-07T14:40:52.000Z</time>
      </trkpt>
      <trkpt lat="45.79115" lon="4.73402">
        <ele>263.96982</ele>
        <time>2023-07-07T14:40:53.000Z</time>
      </trkpt>
      <trkpt lat="45.79111" lon="4.734">
        <ele>263.91339</ele>
        <time>2023-07-07T14:40:54.000Z</time>
      </trkpt>
      <trkpt lat="45.79107" lon="4.734">
        <ele>263.96713</ele>
        <time>2023-07-07T14:40:55.000Z</time>
      </trkpt>
      <trkpt lat="45.79102" lon="4.73399">
        <ele>264.00262</ele>
        <time>2023-07-07T14:40:56.000Z</time>
      </trkpt>
      <trkpt lat="45.79098" lon="4.73399">
        <ele>264.00229</ele>
        <time>2023-07-07T14:40:57.000Z</time>
      </trkpt>
      <trkpt lat="45.79093" lon="4.73396">
        <ele>263.96362</ele>
        <time>2023-07-07T14:40:58.000Z</time>
      </trkpt>
      <trkpt lat="45.79087" lon="4.73397">
        <ele>263.95541</ele>
        <time>2023-07-07T14:40:59.000Z</time>
      </trkpt>
      <trkpt lat="45.79082" lon="4.73396">
        <ele>263.96826</ele>
        <time>2023-07-07T14:41:00.000Z</time>
      </trkpt>
      <trkpt lat="45.79076" lon="4.73394">
        <ele>263.99515</ele>
        <time>2023-07-07T14:41:01.000Z</time>
      </trkpt>
      <trkpt lat="45.79071" lon="4.73392">
        <ele>264.05237</ele>
        <time>2023-07-07T14:41:02.000Z</time>
      </trkpt>
      <trkpt lat="45.79065" lon="4.73389">
        <ele>264.08939</ele>
        <time>2023-07-07T14:41:03.000Z</time>
      </trkpt>
      <trkpt lat="45.79058" lon="4.73388">
        <ele>263.96613</ele>
        <time>2023-07-07T14:41:04.000Z</time>
      </trkpt>
      <trkpt lat="45.79051" lon="4.73386">
        <ele>263.83762</ele>
        <time>2023-07-07T14:41:05.000Z</time>
      </trkpt>
      <trkpt lat="45.79045" lon="4.73385">
        <ele>263.69037</ele>
        <time>2023-07-07T14:41:06.000Z</time>
      </trkpt>
      <trkpt lat="45.79039" lon="4.73383">
        <ele>263.61774</ele>
        <time>2023-07-07T14:41:07.000Z</time>
      </trkpt>
      <trkpt lat="45.79032" lon="4.73381">
        <ele>263.61646</ele>
        <time>2023-07-07T14:41:08.000Z</time>
      </trkpt>
      <trkpt lat="45.79027" lon="4.73377">
        <ele>263.54742</ele>
        <time>2023-07-07T14:41:09.000Z</time>
      </trkpt>
      <trkpt lat="45.79018" lon="4.73376">
        <ele>263.44205</ele>
        <time>2023-07-07T14:41:10.000Z</time>
      </trkpt>
      <trkpt lat="45.79012" lon="4.73376">
        <ele>263.31439</ele>
        <time>2023-07-07T14:41:11.000Z</time>
      </trkpt>
      <trkpt lat="45.79007" lon="4.73378">
        <ele>263.17224</ele>
        <time>2023-07-07T14:41:12.000Z</time>
      </trkpt>
      <trkpt lat="45.79003" lon="4.73378">
        <ele>262.97061</ele>
        <time>2023-07-07T14:41:13.000Z</time>
      </trkpt>
      <trkpt lat="45.78999" lon="4.73377">
        <ele>262.85767</ele>
        <time>2023-07-07T14:41:14.000Z</time>
      </trkpt>
      <trkpt lat="45.78994" lon="4.73374">
        <ele>262.75024</ele>
        <time>2023-07-07T14:41:15.000Z</time>
      </trkpt>
      <trkpt lat="45.7899" lon="4.7337">
        <ele>262.65775</ele>
        <time>2023-07-07T14:41:16.000Z</time>
      </trkpt>
      <trkpt lat="45.78986" lon="4.73367">
        <ele>262.57571</ele>
        <time>2023-07-07T14:41:17.000Z</time>
      </trkpt>
      <trkpt lat="45.78982" lon="4.73364">
        <ele>262.46063</ele>
        <time>2023-07-07T14:41:18.000Z</time>
      </trkpt>
      <trkpt lat="45.78979" lon="4.7336">
        <ele>262.30878</ele>
        <time>2023-07-07T14:41:19.000Z</time>
      </trkpt>
      <trkpt lat="45.78975" lon="4.73356">
        <ele>262.09818</ele>
        <time>2023-07-07T14:41:20.000Z</time>
      </trkpt>
      <trkpt lat="45.78971" lon="4.73353">
        <ele>261.91937</ele>
        <time>2023-07-07T14:41:21.000Z</time>
      </trkpt>
      <trkpt lat="45.78965" lon="4.73354">
        <ele>261.72717</ele>
        <time>2023-07-07T14:41:22.000Z</time>
      </trkpt>
      <trkpt lat="45.78962" lon="4.73353">
        <ele>261.56161</ele>
        <time>2023-07-07T14:41:23.000Z</time>
      </trkpt>
      <trkpt lat="45.78956" lon="4.7335">
        <ele>261.4899</ele>
        <time>2023-07-07T14:41:24.000Z</time>
      </trkpt>
      <trkpt lat="45.78951" lon="4.73348">
        <ele>261.45575</ele>
        <time>2023-07-07T14:41:25.000Z</time>
      </trkpt>
      <trkpt lat="45.78947" lon="4.73347">
        <ele>261.30576</ele>
        <time>2023-07-07T14:41:26.000Z</time>
      </trkpt>
      <trkpt lat="45.78942" lon="4.73345">
        <ele>261.14218</ele>
        <time>2023-07-07T14:41:27.000Z</time>
      </trkpt>
      <trkpt lat="45.78938" lon="4.73342">
        <ele>260.92801</ele>
        <time>2023-07-07T14:41:28.000Z</time>
      </trkpt>
      <trkpt lat="45.78933" lon="4.73341">
        <ele>260.7583</ele>
        <time>2023-07-07T14:41:29.000Z</time>
      </trkpt>
      <trkpt lat="45.78928" lon="4.73341">
        <ele>260.63336</ele>
        <time>2023-07-07T14:41:30.000Z</time>
      </trkpt>
      <trkpt lat="45.78923" lon="4.7334">
        <ele>260.53314</ele>
        <time>2023-07-07T14:41:31.000Z</time>
      </trkpt>
      <trkpt lat="45.78918" lon="4.7334">
        <ele>260.45026</ele>
        <time>2023-07-07T14:41:32.000Z</time>
      </trkpt>
      <trkpt lat="45.78913" lon="4.73338">
        <ele>260.42892</ele>
        <time>2023-07-07T14:41:33.000Z</time>
      </trkpt>
      <trkpt lat="45.78908" lon="4.73337">
        <ele>260.34827</ele>
        <time>2023-07-07T14:41:34.000Z</time>
      </trkpt>
      <trkpt lat="45.78904" lon="4.73335">
        <ele>260.24799</ele>
        <time>2023-07-07T14:41:35.000Z</time>
      </trkpt>
      <trkpt lat="45.78899" lon="4.73333">
        <ele>260.15131</ele>
        <time>2023-07-07T14:41:36.000Z</time>
      </trkpt>
      <trkpt lat="45.78895" lon="4.7333">
        <ele>260.06534</ele>
        <time>2023-07-07T14:41:37.000Z</time>
      </trkpt>
      <trkpt lat="45.7889" lon="4.73327">
        <ele>260.05228</ele>
        <time>2023-07-07T14:41:38.000Z</time>
      </trkpt>
      <trkpt lat="45.78886" lon="4.73323">
        <ele>260.04361</ele>
        <time>2023-07-07T14:41:39.000Z</time>
      </trkpt>
      <trkpt lat="45.78881" lon="4.7332">
        <ele>260.05197</ele>
        <time>2023-07-07T14:41:40.000Z</time>
      </trkpt>
      <trkpt lat="45.78876" lon="4.73316">
        <ele>260.03635</ele>
        <time>2023-07-07T14:41:41.000Z</time>
      </trkpt>
      <trkpt lat="45.78871" lon="4.73312">
        <ele>260.02469</ele>
        <time>2023-07-07T14:41:42.000Z</time>
      </trkpt>
      <trkpt lat="45.78866" lon="4.73308">
        <ele>260.01218</ele>
        <time>2023-07-07T14:41:43.000Z</time>
      </trkpt>
      <trkpt lat="45.7886" lon="4.73306">
        <ele>259.88599</ele>
        <time>2023-07-07T14:41:44.000Z</time>
      </trkpt>
      <trkpt lat="45.78854" lon="4.73302">
        <ele>259.68939</ele>
        <time>2023-07-07T14:41:45.000Z</time>
      </trkpt>
      <trkpt lat="45.78848" lon="4.73298">
        <ele>259.58536</ele>
        <time>2023-07-07T14:41:46.000Z</time>
      </trkpt>
      <trkpt lat="45.78843" lon="4.73293">
        <ele>259.40768</ele>
        <time>2023-07-07T14:41:47.000Z</time>
      </trkpt>
      <trkpt lat="45.78838" lon="4.73287">
        <ele>259.2348</ele>
        <time>2023-07-07T14:41:48.000Z</time>
      </trkpt>
      <trkpt lat="45.78831" lon="4.73284">
        <ele>259.08737</ele>
        <time>2023-07-07T14:41:49.000Z</time>
      </trkpt>
      <trkpt lat="45.78824" lon="4.73281">
        <ele>258.94058</ele>
        <time>2023-07-07T14:41:50.000Z</time>
      </trkpt>
      <trkpt lat="45.78817" lon="4.73278">
        <ele>258.74896</ele>
        <time>2023-07-07T14:41:51.000Z</time>
      </trkpt>
      <trkpt lat="45.78811" lon="4.73275">
        <ele>258.53253</ele>
        <time>2023-07-07T14:41:52.000Z</time>
      </trkpt>
      <trkpt lat="45.78802" lon="4.7327">
        <ele>258.27649</ele>
        <time>2023-07-07T14:41:53.000Z</time>
      </trkpt>
      <trkpt lat="45.78795" lon="4.73267">
        <ele>257.99957</ele>
        <time>2023-07-07T14:41:54.000Z</time>
      </trkpt>
      <trkpt lat="45.78788" lon="4.73265">
        <ele>257.71259</ele>
        <time>2023-07-07T14:41:55.000Z</time>
      </trkpt>
      <trkpt lat="45.78781" lon="4.73262">
        <ele>257.41354</ele>
        <time>2023-07-07T14:41:56.000Z</time>
      </trkpt>
      <trkpt lat="45.78773" lon="4.7326">
        <ele>257.125</ele>
        <time>2023-07-07T14:41:57.000Z</time>
      </trkpt>
      <trkpt lat="45.78765" lon="4.73259">
        <ele>256.80505</ele>
        <time>2023-07-07T14:41:58.000Z</time>
      </trkpt>
      <trkpt lat="45.78759" lon="4.73259">
        <ele>256.42767</ele>
        <time>2023-07-07T14:41:59.000Z</time>
      </trkpt>
      <trkpt lat="45.78751" lon="4.73258">
        <ele>256.02966</ele>
        <time>2023-07-07T14:42:00.000Z</time>
      </trkpt>
      <trkpt lat="45.78746" lon="4.73257">
        <ele>255.57849</ele>
        <time>2023-07-07T14:42:01.000Z</time>
      </trkpt>
      <trkpt lat="45.78738" lon="4.73257">
        <ele>255.12439</ele>
        <time>2023-07-07T14:42:02.000Z</time>
      </trkpt>
      <trkpt lat="45.78731" lon="4.73258">
        <ele>254.63411</ele>
        <time>2023-07-07T14:42:03.000Z</time>
      </trkpt>
      <trkpt lat="45.78726" lon="4.73259">
        <ele>254.24551</ele>
        <time>2023-07-07T14:42:04.000Z</time>
      </trkpt>
      <trkpt lat="45.7872" lon="4.73263">
        <ele>253.88582</ele>
        <time>2023-07-07T14:42:05.000Z</time>
      </trkpt>
      <trkpt lat="45.78715" lon="4.73266">
        <ele>253.53874</ele>
        <time>2023-07-07T14:42:06.000Z</time>
      </trkpt>
      <trkpt lat="45.7871" lon="4.73269">
        <ele>253.26205</ele>
        <time>2023-07-07T14:42:07.000Z</time>
      </trkpt>
      <trkpt lat="45.78706" lon="4.73269">
        <ele>252.93555</ele>
        <time>2023-07-07T14:42:08.000Z</time>
      </trkpt>
      <trkpt lat="45.78701" lon="4.7327">
        <ele>252.55014</ele>
        <time>2023-07-07T14:42:09.000Z</time>
      </trkpt>
      <trkpt lat="45.78697" lon="4.73273">
        <ele>252.15079</ele>
        <time>2023-07-07T14:42:10.000Z</time>
      </trkpt>
      <trkpt lat="45.78693" lon="4.73275">
        <ele>251.80014</ele>
        <time>2023-07-07T14:42:11.000Z</time>
      </trkpt>
      <trkpt lat="45.78687" lon="4.73277">
        <ele>251.43828</ele>
        <time>2023-07-07T14:42:12.000Z</time>
      </trkpt>
      <trkpt lat="45.78684" lon="4.73281">
        <ele>251.07707</ele>
        <time>2023-07-07T14:42:13.000Z</time>
      </trkpt>
      <trkpt lat="45.7868" lon="4.73286">
        <ele>250.75342</ele>
        <time>2023-07-07T14:42:14.000Z</time>
      </trkpt>
      <trkpt lat="45.78677" lon="4.7329">
        <ele>250.40596</ele>
        <time>2023-07-07T14:42:15.000Z</time>
      </trkpt>
      <trkpt lat="45.78674" lon="4.73294">
        <ele>250.03201</ele>
        <time>2023-07-07T14:42:16.000Z</time>
      </trkpt>
      <trkpt lat="45.78668" lon="4.73299">
        <ele>249.62334</ele>
        <time>2023-07-07T14:42:17.000Z</time>
      </trkpt>
      <trkpt lat="45.78664" lon="4.73304">
        <ele>249.25227</ele>
        <time>2023-07-07T14:42:18.000Z</time>
      </trkpt>
      <trkpt lat="45.78661" lon="4.73309">
        <ele>248.99568</ele>
        <time>2023-07-07T14:42:19.000Z</time>
      </trkpt>
      <trkpt lat="45.78658" lon="4.73315">
        <ele>248.75175</ele>
        <time>2023-07-07T14:42:20.000Z</time>
      </trkpt>
      <trkpt lat="45.78654" lon="4.7332">
        <ele>248.40047</ele>
        <time>2023-07-07T14:42:21.000Z</time>
      </trkpt>
      <trkpt lat="45.7865" lon="4.73326">
        <ele>248.03726</ele>
        <time>2023-07-07T14:42:22.000Z</time>
      </trkpt>
      <trkpt lat="45.78645" lon="4.73332">
        <ele>247.6772</ele>
        <time>2023-07-07T14:42:23.000Z</time>
      </trkpt>
      <trkpt lat="45.78641" lon="4.73338">
        <ele>247.32492</ele>
        <time>2023-07-07T14:42:24.000Z</time>
      </trkpt>
      <trkpt lat="45.78637" lon="4.73345">
        <ele>246.98141</ele>
        <time>2023-07-07T14:42:25.000Z</time>
      </trkpt>
      <trkpt lat="45.78632" lon="4.73352">
        <ele>246.60637</ele>
        <time>2023-07-07T14:42:26.000Z</time>
      </trkpt>
      <trkpt lat="45.78629" lon="4.73358">
        <ele>246.00264</ele>
        <time>2023-07-07T14:42:27.000Z</time>
      </trkpt>
      <trkpt lat="45.78624" lon="4.73365">
        <ele>245.39331</ele>
        <time>2023-07-07T14:42:28.000Z</time>
      </trkpt>
      <trkpt lat="45.7862" lon="4.73372">
        <ele>244.84799</ele>
        <time>2023-07-07T14:42:29.000Z</time>
      </trkpt>
      <trkpt lat="45.78615" lon="4.7338">
        <ele>244.27324</ele>
        <time>2023-07-07T14:42:30.000Z</time>
      </trkpt>
      <trkpt lat="45.7861" lon="4.73387">
        <ele>243.69568</ele>
        <time>2023-07-07T14:42:31.000Z</time>
      </trkpt>
      <trkpt lat="45.78606" lon="4.73396">
        <ele>243.08533</ele>
        <time>2023-07-07T14:42:32.000Z</time>
      </trkpt>
      <trkpt lat="45.786" lon="4.73403">
        <ele>242.52731</ele>
        <time>2023-07-07T14:42:33.000Z</time>
      </trkpt>
      <trkpt lat="45.78594" lon="4.73412">
        <ele>241.94926</ele>
        <time>2023-07-07T14:42:34.000Z</time>
      </trkpt>
      <trkpt lat="45.78588" lon="4.73419">
        <ele>241.4334</ele>
        <time>2023-07-07T14:42:35.000Z</time>
      </trkpt>
      <trkpt lat="45.78582" lon="4.73428">
        <ele>240.90488</ele>
        <time>2023-07-07T14:42:36.000Z</time>
      </trkpt>
      <trkpt lat="45.78577" lon="4.73437">
        <ele>240.4344</ele>
        <time>2023-07-07T14:42:37.000Z</time>
      </trkpt>
      <trkpt lat="45.7857" lon="4.73442">
        <ele>239.89529</ele>
        <time>2023-07-07T14:42:38.000Z</time>
      </trkpt>
      <trkpt lat="45.78562" lon="4.73443">
        <ele>239.2784</ele>
        <time>2023-07-07T14:42:39.000Z</time>
      </trkpt>
      <trkpt lat="45.78555" lon="4.73444">
        <ele>238.65317</ele>
        <time>2023-07-07T14:42:40.000Z</time>
      </trkpt>
      <trkpt lat="45.78548" lon="4.73436">
        <ele>238.16385</ele>
        <time>2023-07-07T14:42:41.000Z</time>
      </trkpt>
      <trkpt lat="45.78542" lon="4.73428">
        <ele>237.69002</ele>
        <time>2023-07-07T14:42:42.000Z</time>
      </trkpt>
      <trkpt lat="45.78536" lon="4.73421">
        <ele>237.24207</ele>
        <time>2023-07-07T14:42:43.000Z</time>
      </trkpt>
      <trkpt lat="45.78531" lon="4.73414">
        <ele>236.78972</ele>
        <time>2023-07-07T14:42:44.000Z</time>
      </trkpt>
      <trkpt lat="45.78526" lon="4.73406">
        <ele>236.33432</ele>
        <time>2023-07-07T14:42:45.000Z</time>
      </trkpt>
      <trkpt lat="45.7852" lon="4.73401">
        <ele>235.93784</ele>
        <time>2023-07-07T14:42:46.000Z</time>
      </trkpt>
      <trkpt lat="45.78515" lon="4.73395">
        <ele>235.74661</ele>
        <time>2023-07-07T14:42:47.000Z</time>
      </trkpt>
      <trkpt lat="45.78512" lon="4.7339">
        <ele>235.60367</ele>
        <time>2023-07-07T14:42:48.000Z</time>
      </trkpt>
      <trkpt lat="45.78509" lon="4.73385">
        <ele>235.45271</ele>
        <time>2023-07-07T14:42:49.000Z</time>
      </trkpt>
      <trkpt lat="45.78506" lon="4.7338">
        <ele>235.3616</ele>
        <time>2023-07-07T14:42:50.000Z</time>
      </trkpt>
      <trkpt lat="45.78503" lon="4.73376">
        <ele>235.28584</ele>
        <time>2023-07-07T14:42:51.000Z</time>
      </trkpt>
      <trkpt lat="45.78501" lon="4.73372">
        <ele>235.30115</ele>
        <time>2023-07-07T14:42:52.000Z</time>
      </trkpt>
      <trkpt lat="45.785" lon="4.73368">
        <ele>235.30746</ele>
        <time>2023-07-07T14:42:53.000Z</time>
      </trkpt>
      <trkpt lat="45.78497" lon="4.73364">
        <ele>235.32541</ele>
        <time>2023-07-07T14:42:54.000Z</time>
      </trkpt>
      <trkpt lat="45.78496" lon="4.7336">
        <ele>235.33218</ele>
        <time>2023-07-07T14:42:55.000Z</time>
      </trkpt>
      <trkpt lat="45.78493" lon="4.73359">
        <ele>235.36592</ele>
        <time>2023-07-07T14:42:56.000Z</time>
      </trkpt>
      <trkpt lat="45.78491" lon="4.73357">
        <ele>235.3643</ele>
        <time>2023-07-07T14:42:57.000Z</time>
      </trkpt>
      <trkpt lat="45.78489" lon="4.73358">
        <ele>235.43027</ele>
        <time>2023-07-07T14:42:58.000Z</time>
      </trkpt>
      <trkpt lat="45.78486" lon="4.7336">
        <ele>235.53543</ele>
        <time>2023-07-07T14:42:59.000Z</time>
      </trkpt>
      <trkpt lat="45.78484" lon="4.73364">
        <ele>235.67847</ele>
        <time>2023-07-07T14:43:00.000Z</time>
      </trkpt>
      <trkpt lat="45.78481" lon="4.73367">
        <ele>235.81314</ele>
        <time>2023-07-07T14:43:01.000Z</time>
      </trkpt>
      <trkpt lat="45.78479" lon="4.7337">
        <ele>235.89873</ele>
        <time>2023-07-07T14:43:02.000Z</time>
      </trkpt>
      <trkpt lat="45.78476" lon="4.73373">
        <ele>235.95084</ele>
        <time>2023-07-07T14:43:03.000Z</time>
      </trkpt>
      <trkpt lat="45.78473" lon="4.73376">
        <ele>236.00232</ele>
        <time>2023-07-07T14:43:04.000Z</time>
      </trkpt>
      <trkpt lat="45.7847" lon="4.73379">
        <ele>236.06323</ele>
        <time>2023-07-07T14:43:05.000Z</time>
      </trkpt>
      <trkpt lat="45.78468" lon="4.73381">
        <ele>236.11958</ele>
        <time>2023-07-07T14:43:06.000Z</time>
      </trkpt>
      <trkpt lat="45.78465" lon="4.73384">
        <ele>236.20923</ele>
        <time>2023-07-07T14:43:07.000Z</time>
      </trkpt>
      <trkpt lat="45.78463" lon="4.73387">
        <ele>236.32797</ele>
        <time>2023-07-07T14:43:08.000Z</time>
      </trkpt>
      <trkpt lat="45.7846" lon="4.73389">
        <ele>236.41899</ele>
        <time>2023-07-07T14:43:09.000Z</time>
      </trkpt>
      <trkpt lat="45.78458" lon="4.73391">
        <ele>236.45468</ele>
        <time>2023-07-07T14:43:10.000Z</time>
      </trkpt>
      <trkpt lat="45.78455" lon="4.73392">
        <ele>236.4189</ele>
        <time>2023-07-07T14:43:11.000Z</time>
      </trkpt>
      <trkpt lat="45.78453" lon="4.73394">
        <ele>236.3801</ele>
        <time>2023-07-07T14:43:12.000Z</time>
      </trkpt>
      <trkpt lat="45.78451" lon="4.73395">
        <ele>236.35881</ele>
        <time>2023-07-07T14:43:13.000Z</time>
      </trkpt>
      <trkpt lat="45.78449" lon="4.73397">
        <ele>236.3499</ele>
        <time>2023-07-07T14:43:14.000Z</time>
      </trkpt>
      <trkpt lat="45.78446" lon="4.73398">
        <ele>236.31625</ele>
        <time>2023-07-07T14:43:15.000Z</time>
      </trkpt>
      <trkpt lat="45.78444" lon="4.734">
        <ele>236.29404</ele>
        <time>2023-07-07T14:43:16.000Z</time>
      </trkpt>
      <trkpt lat="45.78441" lon="4.73402">
        <ele>236.29802</ele>
        <time>2023-07-07T14:43:17.000Z</time>
      </trkpt>
      <trkpt lat="45.78439" lon="4.73403">
        <ele>236.28122</ele>
        <time>2023-07-07T14:43:18.000Z</time>
      </trkpt>
      <trkpt lat="45.78437" lon="4.73405">
        <ele>236.27902</ele>
        <time>2023-07-07T14:43:19.000Z</time>
      </trkpt>
      <trkpt lat="45.78434" lon="4.73406">
        <ele>236.2249</ele>
        <time>2023-07-07T14:43:20.000Z</time>
      </trkpt>
      <trkpt lat="45.78432" lon="4.73408">
        <ele>236.18274</ele>
        <time>2023-07-07T14:43:21.000Z</time>
      </trkpt>
      <trkpt lat="45.7843" lon="4.73409">
        <ele>236.1832</ele>
        <time>2023-07-07T14:43:22.000Z</time>
      </trkpt>
      <trkpt lat="45.78427" lon="4.73411">
        <ele>236.2021</ele>
        <time>2023-07-07T14:43:23.000Z</time>
      </trkpt>
      <trkpt lat="45.78425" lon="4.73412">
        <ele>236.22617</ele>
        <time>2023-07-07T14:43:24.000Z</time>
      </trkpt>
      <trkpt lat="45.78422" lon="4.73414">
        <ele>236.24326</ele>
        <time>2023-07-07T14:43:25.000Z</time>
      </trkpt>
      <trkpt lat="45.7842" lon="4.73415">
        <ele>236.22847</ele>
        <time>2023-07-07T14:43:26.000Z</time>
      </trkpt>
      <trkpt lat="45.78418" lon="4.73416">
        <ele>236.16125</ele>
        <time>2023-07-07T14:43:27.000Z</time>
      </trkpt>
      <trkpt lat="45.78416" lon="4.73417">
        <ele>236.11382</ele>
        <time>2023-07-07T14:43:28.000Z</time>
      </trkpt>
      <trkpt lat="45.78413" lon="4.73417">
        <ele>236.13261</ele>
        <time>2023-07-07T14:43:30.000Z</time>
      </trkpt>
      <trkpt lat="45.78413" lon="4.73421">
        <ele>236.21243</ele>
        <time>2023-07-07T14:43:32.000Z</time>
      </trkpt>
      <trkpt lat="45.78415" lon="4.73422">
        <ele>236.31006</ele>
        <time>2023-07-07T14:43:33.000Z</time>
      </trkpt>
      <trkpt lat="45.78419" lon="4.7342">
        <ele>236.38924</ele>
        <time>2023-07-07T14:43:34.000Z</time>
      </trkpt>
      <trkpt lat="45.78422" lon="4.73418">
        <ele>236.44975</ele>
        <time>2023-07-07T14:43:35.000Z</time>
      </trkpt>
      <trkpt lat="45.78425" lon="4.73415">
        <ele>236.49231</ele>
        <time>2023-07-07T14:43:36.000Z</time>
      </trkpt>
      <trkpt lat="45.78428" lon="4.73413">
        <ele>236.57089</ele>
        <time>2023-07-07T14:43:37.000Z</time>
      </trkpt>
      <trkpt lat="45.78431" lon="4.7341">
        <ele>236.61731</ele>
        <time>2023-07-07T14:43:38.000Z</time>
      </trkpt>
      <trkpt lat="45.78435" lon="4.73407">
        <ele>236.65414</ele>
        <time>2023-07-07T14:43:39.000Z</time>
      </trkpt>
      <trkpt lat="45.78439" lon="4.73404">
        <ele>236.68082</ele>
        <time>2023-07-07T14:43:40.000Z</time>
      </trkpt>
      <trkpt lat="45.78443" lon="4.73402">
        <ele>236.71709</ele>
        <time>2023-07-07T14:43:41.000Z</time>
      </trkpt>
      <trkpt lat="45.78447" lon="4.73399">
        <ele>236.79709</ele>
        <time>2023-07-07T14:43:42.000Z</time>
      </trkpt>
      <trkpt lat="45.78452" lon="4.73395">
        <ele>236.86874</ele>
        <time>2023-07-07T14:43:43.000Z</time>
      </trkpt>
      <trkpt lat="45.78456" lon="4.73391">
        <ele>236.92276</ele>
        <time>2023-07-07T14:43:44.000Z</time>
      </trkpt>
      <trkpt lat="45.78461" lon="4.73387">
        <ele>236.99954</ele>
        <time>2023-07-07T14:43:45.000Z</time>
      </trkpt>
      <trkpt lat="45.78465" lon="4.73383">
        <ele>237.09091</ele>
        <time>2023-07-07T14:43:46.000Z</time>
      </trkpt>
      <trkpt lat="45.78469" lon="4.73379">
        <ele>237.22795</ele>
        <time>2023-07-07T14:43:47.000Z</time>
      </trkpt>
      <trkpt lat="45.78473" lon="4.73375">
        <ele>237.38538</ele>
        <time>2023-07-07T14:43:48.000Z</time>
      </trkpt>
      <trkpt lat="45.78477" lon="4.73372">
        <ele>237.53804</ele>
        <time>2023-07-07T14:43:49.000Z</time>
      </trkpt>
      <trkpt lat="45.78481" lon="4.7337">
        <ele>237.72339</ele>
        <time>2023-07-07T14:43:50.000Z</time>
      </trkpt>
      <trkpt lat="45.78484" lon="4.73367">
        <ele>237.83817</ele>
        <time>2023-07-07T14:43:51.000Z</time>
      </trkpt>
      <trkpt lat="45.78486" lon="4.73364">
        <ele>237.94699</ele>
        <time>2023-07-07T14:43:52.000Z</time>
      </trkpt>
      <trkpt lat="45.78488" lon="4.73361">
        <ele>238.11246</ele>
        <time>2023-07-07T14:43:53.000Z</time>
      </trkpt>
      <trkpt lat="45.7849" lon="4.73358">
        <ele>238.26065</ele>
        <time>2023-07-07T14:43:54.000Z</time>
      </trkpt>
      <trkpt lat="45.7849" lon="4.73355">
        <ele>238.40149</ele>
        <time>2023-07-07T14:43:55.000Z</time>
      </trkpt>
      <trkpt lat="45.78491" lon="4.73351">
        <ele>238.58467</ele>
        <time>2023-07-07T14:43:56.000Z</time>
      </trkpt>
      <trkpt lat="45.7849" lon="4.73346">
        <ele>238.7507</ele>
        <time>2023-07-07T14:43:57.000Z</time>
      </trkpt>
      <trkpt lat="45.7849" lon="4.73341">
        <ele>238.93921</ele>
        <time>2023-07-07T14:43:58.000Z</time>
      </trkpt>
      <trkpt lat="45.78489" lon="4.73335">
        <ele>239.12231</ele>
        <time>2023-07-07T14:43:59.000Z</time>
      </trkpt>
      <trkpt lat="45.78489" lon="4.7333">
        <ele>239.26297</ele>
        <time>2023-07-07T14:44:00.000Z</time>
      </trkpt>
      <trkpt lat="45.78489" lon="4.73326">
        <ele>239.36911</ele>
        <time>2023-07-07T14:44:01.000Z</time>
      </trkpt>
      <trkpt lat="45.78488" lon="4.73321">
        <ele>239.49063</ele>
        <time>2023-07-07T14:44:02.000Z</time>
      </trkpt>
      <trkpt lat="45.78487" lon="4.73317">
        <ele>239.64395</ele>
        <time>2023-07-07T14:44:03.000Z</time>
      </trkpt>
      <trkpt lat="45.78486" lon="4.73312">
        <ele>239.78415</ele>
        <time>2023-07-07T14:44:04.000Z</time>
      </trkpt>
      <trkpt lat="45.78484" lon="4.73308">
        <ele>239.91147</ele>
        <time>2023-07-07T14:44:05.000Z</time>
      </trkpt>
      <trkpt lat="45.78482" lon="4.73304">
        <ele>240.03154</ele>
        <time>2023-07-07T14:44:06.000Z</time>
      </trkpt>
      <trkpt lat="45.78481" lon="4.733">
        <ele>240.14664</ele>
        <time>2023-07-07T14:44:07.000Z</time>
      </trkpt>
      <trkpt lat="45.7848" lon="4.73296">
        <ele>240.25554</ele>
        <time>2023-07-07T14:44:08.000Z</time>
      </trkpt>
      <trkpt lat="45.78478" lon="4.73292">
        <ele>240.39539</ele>
        <time>2023-07-07T14:44:09.000Z</time>
      </trkpt>
      <trkpt lat="45.78476" lon="4.73288">
        <ele>240.50879</ele>
        <time>2023-07-07T14:44:10.000Z</time>
      </trkpt>
      <trkpt lat="45.78475" lon="4.73284">
        <ele>240.65862</ele>
        <time>2023-07-07T14:44:11.000Z</time>
      </trkpt>
      <trkpt lat="45.78474" lon="4.73281">
        <ele>240.77014</ele>
        <time>2023-07-07T14:44:12.000Z</time>
      </trkpt>
      <trkpt lat="45.78472" lon="4.73276">
        <ele>240.82878</ele>
        <time>2023-07-07T14:44:13.000Z</time>
      </trkpt>
      <trkpt lat="45.78471" lon="4.73272">
        <ele>240.9119</ele>
        <time>2023-07-07T14:44:14.000Z</time>
      </trkpt>
      <trkpt lat="45.7847" lon="4.73268">
        <ele>241.00371</ele>
        <time>2023-07-07T14:44:15.000Z</time>
      </trkpt>
      <trkpt lat="45.78468" lon="4.73264">
        <ele>241.05525</ele>
        <time>2023-07-07T14:44:16.000Z</time>
      </trkpt>
      <trkpt lat="45.78467" lon="4.7326">
        <ele>241.0955</ele>
        <time>2023-07-07T14:44:17.000Z</time>
      </trkpt>
      <trkpt lat="45.78466" lon="4.73256">
        <ele>241.13013</ele>
        <time>2023-07-07T14:44:18.000Z</time>
      </trkpt>
      <trkpt lat="45.78465" lon="4.73251">
        <ele>241.18216</ele>
        <time>2023-07-07T14:44:19.000Z</time>
      </trkpt>
      <trkpt lat="45.78463" lon="4.73247">
        <ele>241.25708</ele>
        <time>2023-07-07T14:44:20.000Z</time>
      </trkpt>
      <trkpt lat="45.78462" lon="4.73244">
        <ele>241.36467</ele>
        <time>2023-07-07T14:44:21.000Z</time>
      </trkpt>
      <trkpt lat="45.7846" lon="4.7324">
        <ele>241.47261</ele>
        <time>2023-07-07T14:44:22.000Z</time>
      </trkpt>
      <trkpt lat="45.78458" lon="4.73236">
        <ele>241.57663</ele>
        <time>2023-07-07T14:44:23.000Z</time>
      </trkpt>
      <trkpt lat="45.78457" lon="4.73232">
        <ele>241.71651</ele>
        <time>2023-07-07T14:44:24.000Z</time>
      </trkpt>
      <trkpt lat="45.78455" lon="4.73229">
        <ele>241.86392</ele>
        <time>2023-07-07T14:44:25.000Z</time>
      </trkpt>
      <trkpt lat="45.78453" lon="4.73225">
        <ele>242.02078</ele>
        <time>2023-07-07T14:44:26.000Z</time>
      </trkpt>
      <trkpt lat="45.78452" lon="4.73222">
        <ele>242.16843</ele>
        <time>2023-07-07T14:44:27.000Z</time>
      </trkpt>
      <trkpt lat="45.7845" lon="4.73218">
        <ele>242.26926</ele>
        <time>2023-07-07T14:44:28.000Z</time>
      </trkpt>
      <trkpt lat="45.78448" lon="4.73215">
        <ele>242.45667</ele>
        <time>2023-07-07T14:44:29.000Z</time>
      </trkpt>
      <trkpt lat="45.78447" lon="4.73211">
        <ele>242.61858</ele>
        <time>2023-07-07T14:44:30.000Z</time>
      </trkpt>
      <trkpt lat="45.78445" lon="4.73209">
        <ele>242.79402</ele>
        <time>2023-07-07T14:44:31.000Z</time>
      </trkpt>
      <trkpt lat="45.78443" lon="4.73206">
        <ele>242.97075</ele>
        <time>2023-07-07T14:44:32.000Z</time>
      </trkpt>
      <trkpt lat="45.78441" lon="4.73203">
        <ele>243.18697</ele>
        <time>2023-07-07T14:44:33.000Z</time>
      </trkpt>
      <trkpt lat="45.78439" lon="4.732">
        <ele>243.39026</ele>
        <time>2023-07-07T14:44:34.000Z</time>
      </trkpt>
      <trkpt lat="45.78437" lon="4.73197">
        <ele>243.59196</ele>
        <time>2023-07-07T14:44:35.000Z</time>
      </trkpt>
      <trkpt lat="45.78435" lon="4.73194">
        <ele>243.80698</ele>
        <time>2023-07-07T14:44:36.000Z</time>
      </trkpt>
      <trkpt lat="45.78432" lon="4.73191">
        <ele>244.02007</ele>
        <time>2023-07-07T14:44:37.000Z</time>
      </trkpt>
      <trkpt lat="45.7843" lon="4.73188">
        <ele>244.21883</ele>
        <time>2023-07-07T14:44:38.000Z</time>
      </trkpt>
      <trkpt lat="45.78428" lon="4.73185">
        <ele>244.405</ele>
        <time>2023-07-07T14:44:39.000Z</time>
      </trkpt>
      <trkpt lat="45.78426" lon="4.73182">
        <ele>244.61148</ele>
        <time>2023-07-07T14:44:40.000Z</time>
      </trkpt>
      <trkpt lat="45.78423" lon="4.73179">
        <ele>244.79874</ele>
        <time>2023-07-07T14:44:41.000Z</time>
      </trkpt>
      <trkpt lat="45.78421" lon="4.73176">
        <ele>244.91228</ele>
        <time>2023-07-07T14:44:42.000Z</time>
      </trkpt>
      <trkpt lat="45.78418" lon="4.73174">
        <ele>245.02153</ele>
        <time>2023-07-07T14:44:43.000Z</time>
      </trkpt>
      <trkpt lat="45.78416" lon="4.73171">
        <ele>245.11502</ele>
        <time>2023-07-07T14:44:44.000Z</time>
      </trkpt>
      <trkpt lat="45.78414" lon="4.73168">
        <ele>245.19719</ele>
        <time>2023-07-07T14:44:45.000Z</time>
      </trkpt>
      <trkpt lat="45.78412" lon="4.73165">
        <ele>245.31999</ele>
        <time>2023-07-07T14:44:46.000Z</time>
      </trkpt>
      <trkpt lat="45.78409" lon="4.73163">
        <ele>245.43445</ele>
        <time>2023-07-07T14:44:47.000Z</time>
      </trkpt>
      <trkpt lat="45.78407" lon="4.7316">
        <ele>245.56686</ele>
        <time>2023-07-07T14:44:48.000Z</time>
      </trkpt>
      <trkpt lat="45.78405" lon="4.73157">
        <ele>245.58862</ele>
        <time>2023-07-07T14:44:49.000Z</time>
      </trkpt>
      <trkpt lat="45.78403" lon="4.73153">
        <ele>245.63284</ele>
        <time>2023-07-07T14:44:50.000Z</time>
      </trkpt>
      <trkpt lat="45.784" lon="4.7315">
        <ele>245.64453</ele>
        <time>2023-07-07T14:44:51.000Z</time>
      </trkpt>
      <trkpt lat="45.78398" lon="4.73146">
        <ele>245.67024</ele>
        <time>2023-07-07T14:44:52.000Z</time>
      </trkpt>
      <trkpt lat="45.78396" lon="4.73142">
        <ele>245.67046</ele>
        <time>2023-07-07T14:44:53.000Z</time>
      </trkpt>
      <trkpt lat="45.78394" lon="4.73138">
        <ele>245.67143</ele>
        <time>2023-07-07T14:44:54.000Z</time>
      </trkpt>
      <trkpt lat="45.78393" lon="4.73134">
        <ele>245.68063</ele>
        <time>2023-07-07T14:44:55.000Z</time>
      </trkpt>
      <trkpt lat="45.78391" lon="4.73131">
        <ele>245.69121</ele>
        <time>2023-07-07T14:44:56.000Z</time>
      </trkpt>
      <trkpt lat="45.7839" lon="4.73127">
        <ele>245.70866</ele>
        <time>2023-07-07T14:44:57.000Z</time>
      </trkpt>
      <trkpt lat="45.78388" lon="4.73122">
        <ele>245.77432</ele>
        <time>2023-07-07T14:44:58.000Z</time>
      </trkpt>
      <trkpt lat="45.78387" lon="4.73119">
        <ele>245.86304</ele>
        <time>2023-07-07T14:44:59.000Z</time>
      </trkpt>
      <trkpt lat="45.78386" lon="4.73115">
        <ele>245.96555</ele>
        <time>2023-07-07T14:45:00.000Z</time>
      </trkpt>
      <trkpt lat="45.78385" lon="4.73111">
        <ele>246.04004</ele>
        <time>2023-07-07T14:45:01.000Z</time>
      </trkpt>
      <trkpt lat="45.78385" lon="4.73107">
        <ele>246.30954</ele>
        <time>2023-07-07T14:45:02.000Z</time>
      </trkpt>
      <trkpt lat="45.78386" lon="4.73104">
        <ele>246.56577</ele>
        <time>2023-07-07T14:45:03.000Z</time>
      </trkpt>
      <trkpt lat="45.78387" lon="4.731">
        <ele>246.8497</ele>
        <time>2023-07-07T14:45:04.000Z</time>
      </trkpt>
      <trkpt lat="45.78389" lon="4.73097">
        <ele>247.12643</ele>
        <time>2023-07-07T14:45:05.000Z</time>
      </trkpt>
      <trkpt lat="45.78391" lon="4.73096">
        <ele>247.39006</ele>
        <time>2023-07-07T14:45:06.000Z</time>
      </trkpt>
      <trkpt lat="45.78393" lon="4.73097">
        <ele>247.63773</ele>
        <time>2023-07-07T14:45:07.000Z</time>
      </trkpt>
      <trkpt lat="45.78395" lon="4.731">
        <ele>247.90613</ele>
        <time>2023-07-07T14:45:08.000Z</time>
      </trkpt>
      <trkpt lat="45.78397" lon="4.73104">
        <ele>248.19815</ele>
        <time>2023-07-07T14:45:09.000Z</time>
      </trkpt>
      <trkpt lat="45.78398" lon="4.73108">
        <ele>248.39432</ele>
        <time>2023-07-07T14:45:10.000Z</time>
      </trkpt>
      <trkpt lat="45.78399" lon="4.73111">
        <ele>248.52219</ele>
        <time>2023-07-07T14:45:11.000Z</time>
      </trkpt>
      <trkpt lat="45.784" lon="4.73115">
        <ele>248.80327</ele>
        <time>2023-07-07T14:45:12.000Z</time>
      </trkpt>
      <trkpt lat="45.78401" lon="4.73118">
        <ele>249.06404</ele>
        <time>2023-07-07T14:45:13.000Z</time>
      </trkpt>
      <trkpt lat="45.78402" lon="4.73122">
        <ele>249.33427</ele>
        <time>2023-07-07T14:45:14.000Z</time>
      </trkpt>
      <trkpt lat="45.78404" lon="4.73125">
        <ele>249.59261</ele>
        <time>2023-07-07T14:45:15.000Z</time>
      </trkpt>
      <trkpt lat="45.78406" lon="4.73128">
        <ele>249.83711</ele>
        <time>2023-07-07T14:45:16.000Z</time>
      </trkpt>
      <trkpt lat="45.78407" lon="4.73131">
        <ele>250.10161</ele>
        <time>2023-07-07T14:45:17.000Z</time>
      </trkpt>
      <trkpt lat="45.78409" lon="4.73135">
        <ele>250.32707</ele>
        <time>2023-07-07T14:45:18.000Z</time>
      </trkpt>
      <trkpt lat="45.78411" lon="4.73137">
        <ele>250.52376</ele>
        <time>2023-07-07T14:45:19.000Z</time>
      </trkpt>
      <trkpt lat="45.78412" lon="4.73139">
        <ele>250.71231</ele>
        <time>2023-07-07T14:45:20.000Z</time>
      </trkpt>
      <trkpt lat="45.78414" lon="4.73142">
        <ele>250.91946</ele>
        <time>2023-07-07T14:45:21.000Z</time>
      </trkpt>
      <trkpt lat="45.78416" lon="4.73144">
        <ele>250.979</ele>
        <time>2023-07-07T14:45:22.000Z</time>
      </trkpt>
      <trkpt lat="45.78418" lon="4.73146">
        <ele>251.07927</ele>
        <time>2023-07-07T14:45:23.000Z</time>
      </trkpt>
      <trkpt lat="45.78421" lon="4.73148">
        <ele>251.16487</ele>
        <time>2023-07-07T14:45:24.000Z</time>
      </trkpt>
      <trkpt lat="45.78423" lon="4.7315">
        <ele>251.27583</ele>
        <time>2023-07-07T14:45:25.000Z</time>
      </trkpt>
      <trkpt lat="45.78426" lon="4.73153">
        <ele>251.3671</ele>
        <time>2023-07-07T14:45:26.000Z</time>
      </trkpt>
      <trkpt lat="45.78428" lon="4.73155">
        <ele>251.37112</ele>
        <time>2023-07-07T14:45:27.000Z</time>
      </trkpt>
      <trkpt lat="45.78431" lon="4.73158">
        <ele>251.37289</ele>
        <time>2023-07-07T14:45:28.000Z</time>
      </trkpt>
      <trkpt lat="45.78433" lon="4.7316">
        <ele>251.37895</ele>
        <time>2023-07-07T14:45:29.000Z</time>
      </trkpt>
      <trkpt lat="45.78436" lon="4.73162">
        <ele>251.4491</ele>
        <time>2023-07-07T14:45:30.000Z</time>
      </trkpt>
      <trkpt lat="45.78439" lon="4.73163">
        <ele>251.55415</ele>
        <time>2023-07-07T14:45:31.000Z</time>
      </trkpt>
      <trkpt lat="45.78441" lon="4.73165">
        <ele>251.51663</ele>
        <time>2023-07-07T14:45:32.000Z</time>
      </trkpt>
      <trkpt lat="45.78444" lon="4.73166">
        <ele>251.41362</ele>
        <time>2023-07-07T14:45:33.000Z</time>
      </trkpt>
      <trkpt lat="45.78447" lon="4.73166">
        <ele>251.32251</ele>
        <time>2023-07-07T14:45:34.000Z</time>
      </trkpt>
      <trkpt lat="45.78449" lon="4.73167">
        <ele>251.49985</ele>
        <time>2023-07-07T14:45:35.000Z</time>
      </trkpt>
      <trkpt lat="45.78451" lon="4.73168">
        <ele>251.59854</ele>
        <time>2023-07-07T14:45:36.000Z</time>
      </trkpt>
      <trkpt lat="45.78454" lon="4.7317">
        <ele>251.68631</ele>
        <time>2023-07-07T14:45:37.000Z</time>
      </trkpt>
      <trkpt lat="45.78457" lon="4.73172">
        <ele>251.82214</ele>
        <time>2023-07-07T14:45:38.000Z</time>
      </trkpt>
      <trkpt lat="45.7846" lon="4.73173">
        <ele>251.98221</ele>
        <time>2023-07-07T14:45:39.000Z</time>
      </trkpt>
      <trkpt lat="45.78463" lon="4.73175">
        <ele>251.98489</ele>
        <time>2023-07-07T14:45:40.000Z</time>
      </trkpt>
      <trkpt lat="45.78467" lon="4.73177">
        <ele>251.86032</ele>
        <time>2023-07-07T14:45:41.000Z</time>
      </trkpt>
      <trkpt lat="45.7847" lon="4.73178">
        <ele>251.99008</ele>
        <time>2023-07-07T14:45:42.000Z</time>
      </trkpt>
      <trkpt lat="45.78473" lon="4.73179">
        <ele>252.12436</ele>
        <time>2023-07-07T14:45:43.000Z</time>
      </trkpt>
      <trkpt lat="45.78477" lon="4.7318">
        <ele>252.24521</ele>
        <time>2023-07-07T14:45:44.000Z</time>
      </trkpt>
      <trkpt lat="45.7848" lon="4.73181">
        <ele>252.37749</ele>
        <time>2023-07-07T14:45:45.000Z</time>
      </trkpt>
      <trkpt lat="45.78483" lon="4.73181">
        <ele>252.49178</ele>
        <time>2023-07-07T14:45:46.000Z</time>
      </trkpt>
      <trkpt lat="45.78487" lon="4.73182">
        <ele>252.77641</ele>
        <time>2023-07-07T14:45:47.000Z</time>
      </trkpt>
      <trkpt lat="45.7849" lon="4.73182">
        <ele>253.06009</ele>
        <time>2023-07-07T14:45:48.000Z</time>
      </trkpt>
      <trkpt lat="45.78493" lon="4.73182">
        <ele>253.28699</ele>
        <time>2023-07-07T14:45:49.000Z</time>
      </trkpt>
      <trkpt lat="45.78496" lon="4.73181">
        <ele>253.55908</ele>
        <time>2023-07-07T14:45:50.000Z</time>
      </trkpt>
      <trkpt lat="45.78499" lon="4.7318">
        <ele>253.84612</ele>
        <time>2023-07-07T14:45:51.000Z</time>
      </trkpt>
      <trkpt lat="45.78502" lon="4.73179">
        <ele>254.10197</ele>
        <time>2023-07-07T14:45:52.000Z</time>
      </trkpt>
      <trkpt lat="45.78505" lon="4.73179">
        <ele>254.47148</ele>
        <time>2023-07-07T14:45:53.000Z</time>
      </trkpt>
      <trkpt lat="45.78508" lon="4.73179">
        <ele>254.89114</ele>
        <time>2023-07-07T14:45:54.000Z</time>
      </trkpt>
      <trkpt lat="45.78511" lon="4.73178">
        <ele>255.05307</ele>
        <time>2023-07-07T14:45:55.000Z</time>
      </trkpt>
      <trkpt lat="45.78514" lon="4.73178">
        <ele>255.24088</ele>
        <time>2023-07-07T14:45:56.000Z</time>
      </trkpt>
      <trkpt lat="45.78517" lon="4.73177">
        <ele>255.38956</ele>
        <time>2023-07-07T14:45:57.000Z</time>
      </trkpt>
      <trkpt lat="45.78519" lon="4.73176">
        <ele>255.47525</ele>
        <time>2023-07-07T14:45:58.000Z</time>
      </trkpt>
      <trkpt lat="45.78522" lon="4.73175">
        <ele>255.57695</ele>
        <time>2023-07-07T14:45:59.000Z</time>
      </trkpt>
      <trkpt lat="45.78525" lon="4.73174">
        <ele>255.85501</ele>
        <time>2023-07-07T14:46:00.000Z</time>
      </trkpt>
      <trkpt lat="45.78527" lon="4.73173">
        <ele>256.2825</ele>
        <time>2023-07-07T14:46:01.000Z</time>
      </trkpt>
      <trkpt lat="45.7853" lon="4.73172">
        <ele>256.44012</ele>
        <time>2023-07-07T14:46:02.000Z</time>
      </trkpt>
      <trkpt lat="45.78533" lon="4.7317">
        <ele>256.60855</ele>
        <time>2023-07-07T14:46:03.000Z</time>
      </trkpt>
      <trkpt lat="45.78535" lon="4.73169">
        <ele>256.79733</ele>
        <time>2023-07-07T14:46:04.000Z</time>
      </trkpt>
      <trkpt lat="45.78538" lon="4.73167">
        <ele>256.94119</ele>
        <time>2023-07-07T14:46:05.000Z</time>
      </trkpt>
      <trkpt lat="45.78541" lon="4.73165">
        <ele>257.0834</ele>
        <time>2023-07-07T14:46:06.000Z</time>
      </trkpt>
      <trkpt lat="45.78543" lon="4.73164">
        <ele>257.13458</ele>
        <time>2023-07-07T14:46:07.000Z</time>
      </trkpt>
      <trkpt lat="45.78546" lon="4.73162">
        <ele>257.19086</ele>
        <time>2023-07-07T14:46:08.000Z</time>
      </trkpt>
      <trkpt lat="45.78549" lon="4.7316">
        <ele>257.25873</ele>
        <time>2023-07-07T14:46:09.000Z</time>
      </trkpt>
      <trkpt lat="45.78551" lon="4.73158">
        <ele>257.28732</ele>
        <time>2023-07-07T14:46:10.000Z</time>
      </trkpt>
      <trkpt lat="45.78554" lon="4.73156">
        <ele>257.36368</ele>
        <time>2023-07-07T14:46:11.000Z</time>
      </trkpt>
      <trkpt lat="45.78556" lon="4.73155">
        <ele>257.47684</ele>
        <time>2023-07-07T14:46:12.000Z</time>
      </trkpt>
      <trkpt lat="45.78559" lon="4.73153">
        <ele>257.55936</ele>
        <time>2023-07-07T14:46:13.000Z</time>
      </trkpt>
      <trkpt lat="45.78561" lon="4.73151">
        <ele>257.58536</ele>
        <time>2023-07-07T14:46:14.000Z</time>
      </trkpt>
      <trkpt lat="45.78563" lon="4.73149">
        <ele>257.60651</ele>
        <time>2023-07-07T14:46:15.000Z</time>
      </trkpt>
      <trkpt lat="45.78566" lon="4.73148">
        <ele>257.6705</ele>
        <time>2023-07-07T14:46:16.000Z</time>
      </trkpt>
      <trkpt lat="45.78568" lon="4.73146">
        <ele>257.74399</ele>
        <time>2023-07-07T14:46:17.000Z</time>
      </trkpt>
      <trkpt lat="45.7857" lon="4.73146">
        <ele>257.84616</ele>
        <time>2023-07-07T14:46:18.000Z</time>
      </trkpt>
      <trkpt lat="45.78572" lon="4.73149">
        <ele>257.9162</ele>
        <time>2023-07-07T14:46:19.000Z</time>
      </trkpt>
      <trkpt lat="45.78573" lon="4.73154">
        <ele>257.94135</ele>
        <time>2023-07-07T14:46:20.000Z</time>
      </trkpt>
      <trkpt lat="45.78572" lon="4.73159">
        <ele>257.9736</ele>
        <time>2023-07-07T14:46:21.000Z</time>
      </trkpt>
      <trkpt lat="45.78569" lon="4.73165">
        <ele>257.96655</ele>
        <time>2023-07-07T14:46:22.000Z</time>
      </trkpt>
      <trkpt lat="45.78564" lon="4.73172">
        <ele>257.91083</ele>
        <time>2023-07-07T14:46:23.000Z</time>
      </trkpt>
      <trkpt lat="45.78561" lon="4.7318">
        <ele>257.82483</ele>
        <time>2023-07-07T14:46:24.000Z</time>
      </trkpt>
      <trkpt lat="45.78559" lon="4.73189">
        <ele>257.72855</ele>
        <time>2023-07-07T14:46:25.000Z</time>
      </trkpt>
      <trkpt lat="45.78556" lon="4.73198">
        <ele>257.58868</ele>
        <time>2023-07-07T14:46:26.000Z</time>
      </trkpt>
      <trkpt lat="45.78553" lon="4.73207">
        <ele>257.45963</ele>
        <time>2023-07-07T14:46:27.000Z</time>
      </trkpt>
      <trkpt lat="45.78551" lon="4.73218">
        <ele>257.29068</ele>
        <time>2023-07-07T14:46:28.000Z</time>
      </trkpt>
      <trkpt lat="45.78548" lon="4.73228">
        <ele>257.10831</ele>
        <time>2023-07-07T14:46:29.000Z</time>
      </trkpt>
      <trkpt lat="45.78545" lon="4.73239">
        <ele>256.87177</ele>
        <time>2023-07-07T14:46:30.000Z</time>
      </trkpt>
      <trkpt lat="45.7854" lon="4.73249">
        <ele>256.57715</ele>
        <time>2023-07-07T14:46:31.000Z</time>
      </trkpt>
      <trkpt lat="45.78533" lon="4.73257">
        <ele>256.23715</ele>
        <time>2023-07-07T14:46:32.000Z</time>
      </trkpt>
      <trkpt lat="45.78525" lon="4.73262">
        <ele>255.9084</ele>
        <time>2023-07-07T14:46:33.000Z</time>
      </trkpt>
      <trkpt lat="45.78517" lon="4.73264">
        <ele>255.52292</ele>
        <time>2023-07-07T14:46:34.000Z</time>
      </trkpt>
      <trkpt lat="45.7851" lon="4.73262">
        <ele>255.08145</ele>
        <time>2023-07-07T14:46:35.000Z</time>
      </trkpt>
      <trkpt lat="45.78505" lon="4.73251">
        <ele>254.55864</ele>
        <time>2023-07-07T14:46:36.000Z</time>
      </trkpt>
      <trkpt lat="45.78502" lon="4.73239">
        <ele>253.97859</ele>
        <time>2023-07-07T14:46:37.000Z</time>
      </trkpt>
      <trkpt lat="45.78498" lon="4.73228">
        <ele>253.3624</ele>
        <time>2023-07-07T14:46:38.000Z</time>
      </trkpt>
      <trkpt lat="45.78493" lon="4.7322">
        <ele>252.8837</ele>
        <time>2023-07-07T14:46:39.000Z</time>
      </trkpt>
      <trkpt lat="45.78486" lon="4.73214">
        <ele>252.41052</ele>
        <time>2023-07-07T14:46:40.000Z</time>
      </trkpt>
      <trkpt lat="45.78478" lon="4.73212">
        <ele>251.88725</ele>
        <time>2023-07-07T14:46:41.000Z</time>
      </trkpt>
      <trkpt lat="45.78471" lon="4.73214">
        <ele>251.40549</ele>
        <time>2023-07-07T14:46:42.000Z</time>
      </trkpt>
      <trkpt lat="45.78465" lon="4.73217">
        <ele>250.92395</ele>
        <time>2023-07-07T14:46:43.000Z</time>
      </trkpt>
      <trkpt lat="45.78461" lon="4.73222">
        <ele>250.43961</ele>
        <time>2023-07-07T14:46:44.000Z</time>
      </trkpt>
      <trkpt lat="45.78457" lon="4.73224">
        <ele>249.97562</ele>
        <time>2023-07-07T14:46:45.000Z</time>
      </trkpt>
      <trkpt lat="45.78453" lon="4.73226">
        <ele>249.51541</ele>
        <time>2023-07-07T14:46:46.000Z</time>
      </trkpt>
      <trkpt lat="45.7845" lon="4.73225">
        <ele>249.05347</ele>
        <time>2023-07-07T14:46:47.000Z</time>
      </trkpt>
      <trkpt lat="45.78447" lon="4.73221">
        <ele>248.61752</ele>
        <time>2023-07-07T14:46:48.000Z</time>
      </trkpt>
      <trkpt lat="45.78445" lon="4.73218">
        <ele>248.21748</ele>
        <time>2023-07-07T14:46:49.000Z</time>
      </trkpt>
      <trkpt lat="45.78443" lon="4.73215">
        <ele>247.87509</ele>
        <time>2023-07-07T14:46:50.000Z</time>
      </trkpt>
      <trkpt lat="45.7844" lon="4.73212">
        <ele>247.58916</ele>
        <time>2023-07-07T14:46:51.000Z</time>
      </trkpt>
      <trkpt lat="45.78437" lon="4.73208">
        <ele>247.30237</ele>
        <time>2023-07-07T14:46:52.000Z</time>
      </trkpt>
      <trkpt lat="45.78435" lon="4.73204">
        <ele>246.99875</ele>
        <time>2023-07-07T14:46:53.000Z</time>
      </trkpt>
      <trkpt lat="45.78432" lon="4.732">
        <ele>246.65791</ele>
        <time>2023-07-07T14:46:54.000Z</time>
      </trkpt>
      <trkpt lat="45.78429" lon="4.73198">
        <ele>246.36075</ele>
        <time>2023-07-07T14:46:55.000Z</time>
      </trkpt>
      <trkpt lat="45.78426" lon="4.73194">
        <ele>246.15218</ele>
        <time>2023-07-07T14:46:56.000Z</time>
      </trkpt>
      <trkpt lat="45.78424" lon="4.73191">
        <ele>246.14609</ele>
        <time>2023-07-07T14:46:57.000Z</time>
      </trkpt>
      <trkpt lat="45.78421" lon="4.73188">
        <ele>246.15079</ele>
        <time>2023-07-07T14:46:58.000Z</time>
      </trkpt>
      <trkpt lat="45.78418" lon="4.73184">
        <ele>245.9996</ele>
        <time>2023-07-07T14:46:59.000Z</time>
      </trkpt>
      <trkpt lat="45.78416" lon="4.7318">
        <ele>245.87357</ele>
        <time>2023-07-07T14:47:00.000Z</time>
      </trkpt>
      <trkpt lat="45.78414" lon="4.73177">
        <ele>245.80974</ele>
        <time>2023-07-07T14:47:01.000Z</time>
      </trkpt>
      <trkpt lat="45.78411" lon="4.73173">
        <ele>245.78963</ele>
        <time>2023-07-07T14:47:02.000Z</time>
      </trkpt>
      <trkpt lat="45.78409" lon="4.7317">
        <ele>245.76807</ele>
        <time>2023-07-07T14:47:03.000Z</time>
      </trkpt>
      <trkpt lat="45.78407" lon="4.73167">
        <ele>245.74455</ele>
        <time>2023-07-07T14:47:04.000Z</time>
      </trkpt>
      <trkpt lat="45.78404" lon="4.73164">
        <ele>245.68393</ele>
        <time>2023-07-07T14:47:05.000Z</time>
      </trkpt>
      <trkpt lat="45.78402" lon="4.73161">
        <ele>245.6781</ele>
        <time>2023-07-07T14:47:06.000Z</time>
      </trkpt>
      <trkpt lat="45.784" lon="4.73157">
        <ele>245.6713</ele>
        <time>2023-07-07T14:47:07.000Z</time>
      </trkpt>
      <trkpt lat="45.78399" lon="4.73154">
        <ele>245.66904</ele>
        <time>2023-07-07T14:47:08.000Z</time>
      </trkpt>
      <trkpt lat="45.78397" lon="4.73151">
        <ele>245.6927</ele>
        <time>2023-07-07T14:47:09.000Z</time>
      </trkpt>
      <trkpt lat="45.78396" lon="4.73148">
        <ele>245.74365</ele>
        <time>2023-07-07T14:47:10.000Z</time>
      </trkpt>
      <trkpt lat="45.78394" lon="4.73145">
        <ele>245.78772</ele>
        <time>2023-07-07T14:47:11.000Z</time>
      </trkpt>
      <trkpt lat="45.78393" lon="4.73142">
        <ele>245.84677</ele>
        <time>2023-07-07T14:47:12.000Z</time>
      </trkpt>
      <trkpt lat="45.78391" lon="4.73139">
        <ele>245.9465</ele>
        <time>2023-07-07T14:47:13.000Z</time>
      </trkpt>
      <trkpt lat="45.7839" lon="4.73136">
        <ele>246.09612</ele>
        <time>2023-07-07T14:47:14.000Z</time>
      </trkpt>
      <trkpt lat="45.78389" lon="4.73133">
        <ele>246.27213</ele>
        <time>2023-07-07T14:47:15.000Z</time>
      </trkpt>
      <trkpt lat="45.78388" lon="4.7313">
        <ele>246.43762</ele>
        <time>2023-07-07T14:47:16.000Z</time>
      </trkpt>
      <trkpt lat="45.78386" lon="4.73127">
        <ele>246.41533</ele>
        <time>2023-07-07T14:47:17.000Z</time>
      </trkpt>
      <trkpt lat="45.78385" lon="4.73124">
        <ele>246.42729</ele>
        <time>2023-07-07T14:47:18.000Z</time>
      </trkpt>
      <trkpt lat="45.78384" lon="4.73121">
        <ele>246.46814</ele>
        <time>2023-07-07T14:47:19.000Z</time>
      </trkpt>
      <trkpt lat="45.78383" lon="4.73117">
        <ele>246.66797</ele>
        <time>2023-07-07T14:47:20.000Z</time>
      </trkpt>
      <trkpt lat="45.78382" lon="4.73114">
        <ele>246.8269</ele>
        <time>2023-07-07T14:47:21.000Z</time>
      </trkpt>
      <trkpt lat="45.78381" lon="4.73111">
        <ele>246.95403</ele>
        <time>2023-07-07T14:47:22.000Z</time>
      </trkpt>
      <trkpt lat="45.7838" lon="4.73107">
        <ele>247.12602</ele>
        <time>2023-07-07T14:47:23.000Z</time>
      </trkpt>
      <trkpt lat="45.7838" lon="4.73104">
        <ele>247.32791</ele>
        <time>2023-07-07T14:47:24.000Z</time>
      </trkpt>
      <trkpt lat="45.78379" lon="4.731">
        <ele>247.56787</ele>
        <time>2023-07-07T14:47:25.000Z</time>
      </trkpt>
      <trkpt lat="45.78378" lon="4.73096">
        <ele>247.81136</ele>
        <time>2023-07-07T14:47:26.000Z</time>
      </trkpt>
      <trkpt lat="45.78378" lon="4.73092">
        <ele>248.07954</ele>
        <time>2023-07-07T14:47:27.000Z</time>
      </trkpt>
      <trkpt lat="45.78377" lon="4.73089">
        <ele>248.35542</ele>
        <time>2023-07-07T14:47:28.000Z</time>
      </trkpt>
      <trkpt lat="45.78377" lon="4.73085">
        <ele>248.61292</ele>
        <time>2023-07-07T14:47:29.000Z</time>
      </trkpt>
      <trkpt lat="45.78376" lon="4.73081">
        <ele>248.83484</ele>
        <time>2023-07-07T14:47:30.000Z</time>
      </trkpt>
      <trkpt lat="45.78376" lon="4.73077">
        <ele>249.07341</ele>
        <time>2023-07-07T14:47:31.000Z</time>
      </trkpt>
      <trkpt lat="45.78375" lon="4.73073">
        <ele>249.30302</ele>
        <time>2023-07-07T14:47:32.000Z</time>
      </trkpt>
      <trkpt lat="45.78374" lon="4.7307">
        <ele>249.4993</ele>
        <time>2023-07-07T14:47:33.000Z</time>
      </trkpt>
      <trkpt lat="45.78374" lon="4.73067">
        <ele>249.75139</ele>
        <time>2023-07-07T14:47:34.000Z</time>
      </trkpt>
      <trkpt lat="45.78374" lon="4.73063">
        <ele>249.99753</ele>
        <time>2023-07-07T14:47:35.000Z</time>
      </trkpt>
      <trkpt lat="45.78373" lon="4.73059">
        <ele>250.25699</ele>
        <time>2023-07-07T14:47:36.000Z</time>
      </trkpt>
      <trkpt lat="45.78373" lon="4.73055">
        <ele>250.58003</ele>
        <time>2023-07-07T14:47:37.000Z</time>
      </trkpt>
      <trkpt lat="45.78373" lon="4.73051">
        <ele>250.89287</ele>
        <time>2023-07-07T14:47:38.000Z</time>
      </trkpt>
      <trkpt lat="45.78373" lon="4.73047">
        <ele>251.21561</ele>
        <time>2023-07-07T14:47:39.000Z</time>
      </trkpt>
      <trkpt lat="45.78373" lon="4.73043">
        <ele>251.35745</ele>
        <time>2023-07-07T14:47:40.000Z</time>
      </trkpt>
      <trkpt lat="45.78374" lon="4.73039">
        <ele>251.52817</ele>
        <time>2023-07-07T14:47:41.000Z</time>
      </trkpt>
      <trkpt lat="45.78374" lon="4.73035">
        <ele>251.73596</ele>
        <time>2023-07-07T14:47:42.000Z</time>
      </trkpt>
      <trkpt lat="45.78375" lon="4.73032">
        <ele>251.91231</ele>
        <time>2023-07-07T14:47:43.000Z</time>
      </trkpt>
      <trkpt lat="45.78375" lon="4.73029">
        <ele>252.02031</ele>
        <time>2023-07-07T14:47:44.000Z</time>
      </trkpt>
      <trkpt lat="45.78376" lon="4.73026">
        <ele>252.13094</ele>
        <time>2023-07-07T14:47:45.000Z</time>
      </trkpt>
      <trkpt lat="45.78376" lon="4.73023">
        <ele>252.28951</ele>
        <time>2023-07-07T14:47:46.000Z</time>
      </trkpt>
      <trkpt lat="45.78377" lon="4.73019">
        <ele>252.38016</ele>
        <time>2023-07-07T14:47:47.000Z</time>
      </trkpt>
      <trkpt lat="45.78377" lon="4.73015">
        <ele>252.50284</ele>
        <time>2023-07-07T14:47:48.000Z</time>
      </trkpt>
      <trkpt lat="45.78377" lon="4.73012">
        <ele>252.65076</ele>
        <time>2023-07-07T14:47:49.000Z</time>
      </trkpt>
      <trkpt lat="45.78377" lon="4.73009">
        <ele>252.71648</ele>
        <time>2023-07-07T14:47:50.000Z</time>
      </trkpt>
      <trkpt lat="45.78377" lon="4.73006">
        <ele>252.78207</ele>
        <time>2023-07-07T14:47:51.000Z</time>
      </trkpt>
      <trkpt lat="45.78378" lon="4.73003">
        <ele>252.84921</ele>
        <time>2023-07-07T14:47:52.000Z</time>
      </trkpt>
      <trkpt lat="45.78378" lon="4.73">
        <ele>252.92473</ele>
        <time>2023-07-07T14:47:53.000Z</time>
      </trkpt>
      <trkpt lat="45.78378" lon="4.72998">
        <ele>252.91895</ele>
        <time>2023-07-07T14:47:54.000Z</time>
      </trkpt>
      <trkpt lat="45.78378" lon="4.72993">
        <ele>252.96086</ele>
        <time>2023-07-07T14:47:56.000Z</time>
      </trkpt>
      <trkpt lat="45.78377" lon="4.7299">
        <ele>252.99825</ele>
        <time>2023-07-07T14:47:57.000Z</time>
      </trkpt>
      <trkpt lat="45.78376" lon="4.72987">
        <ele>253.0896</ele>
        <time>2023-07-07T14:47:58.000Z</time>
      </trkpt>
      <trkpt lat="45.78376" lon="4.72983">
        <ele>253.27652</ele>
        <time>2023-07-07T14:47:59.000Z</time>
      </trkpt>
      <trkpt lat="45.78375" lon="4.7298">
        <ele>253.42888</ele>
        <time>2023-07-07T14:48:00.000Z</time>
      </trkpt>
      <trkpt lat="45.78375" lon="4.72977">
        <ele>253.58658</ele>
        <time>2023-07-07T14:48:01.000Z</time>
      </trkpt>
      <trkpt lat="45.78375" lon="4.72974">
        <ele>253.67404</ele>
        <time>2023-07-07T14:48:02.000Z</time>
      </trkpt>
      <trkpt lat="45.78376" lon="4.7297">
        <ele>253.83733</ele>
        <time>2023-07-07T14:48:03.000Z</time>
      </trkpt>
      <trkpt lat="45.78376" lon="4.72966">
        <ele>254.08398</ele>
        <time>2023-07-07T14:48:04.000Z</time>
      </trkpt>
      <trkpt lat="45.78376" lon="4.72963">
        <ele>254.41183</ele>
        <time>2023-07-07T14:48:05.000Z</time>
      </trkpt>
      <trkpt lat="45.78376" lon="4.72961">
        <ele>254.75671</ele>
        <time>2023-07-07T14:48:06.000Z</time>
      </trkpt>
      <trkpt lat="45.78376" lon="4.72955">
        <ele>255.03067</ele>
        <time>2023-07-07T14:48:08.000Z</time>
      </trkpt>
      <trkpt lat="45.78376" lon="4.72951">
        <ele>255.379</ele>
        <time>2023-07-07T14:48:09.000Z</time>
      </trkpt>
      <trkpt lat="45.78377" lon="4.72948">
        <ele>255.7574</ele>
        <time>2023-07-07T14:48:10.000Z</time>
      </trkpt>
      <trkpt lat="45.78377" lon="4.72945">
        <ele>256.13977</ele>
        <time>2023-07-07T14:48:11.000Z</time>
      </trkpt>
      <trkpt lat="45.78377" lon="4.72941">
        <ele>256.53522</ele>
        <time>2023-07-07T14:48:12.000Z</time>
      </trkpt>
      <trkpt lat="45.78377" lon="4.72938">
        <ele>256.95456</ele>
        <time>2023-07-07T14:48:13.000Z</time>
      </trkpt>
      <trkpt lat="45.78377" lon="4.72935">
        <ele>257.41943</ele>
        <time>2023-07-07T14:48:14.000Z</time>
      </trkpt>
      <trkpt lat="45.78377" lon="4.72932">
        <ele>257.90961</ele>
        <time>2023-07-07T14:48:15.000Z</time>
      </trkpt>
      <trkpt lat="45.78377" lon="4.72928">
        <ele>258.51645</ele>
        <time>2023-07-07T14:48:16.000Z</time>
      </trkpt>
      <trkpt lat="45.78377" lon="4.72924">
        <ele>259.09061</ele>
        <time>2023-07-07T14:48:17.000Z</time>
      </trkpt>
      <trkpt lat="45.78377" lon="4.72921">
        <ele>259.68912</ele>
        <time>2023-07-07T14:48:18.000Z</time>
      </trkpt>
      <trkpt lat="45.78377" lon="4.72918">
        <ele>260.06738</ele>
        <time>2023-07-07T14:48:19.000Z</time>
      </trkpt>
      <trkpt lat="45.78376" lon="4.72916">
        <ele>260.30179</ele>
        <time>2023-07-07T14:48:24.000Z</time>
      </trkpt>
      <trkpt lat="45.78375" lon="4.72914">
        <ele>260.56842</ele>
        <time>2023-07-07T14:48:39.000Z</time>
      </trkpt>
      <trkpt lat="45.78372" lon="4.72918">
        <ele>260.88367</ele>
        <time>2023-07-07T14:48:42.000Z</time>
      </trkpt>
      <trkpt lat="45.78372" lon="4.72922">
        <ele>261.19952</ele>
        <time>2023-07-07T14:48:43.000Z</time>
      </trkpt>
      <trkpt lat="45.78372" lon="4.72926">
        <ele>261.34271</ele>
        <time>2023-07-07T14:48:44.000Z</time>
      </trkpt>
      <trkpt lat="45.78373" lon="4.72931">
        <ele>261.20477</ele>
        <time>2023-07-07T14:48:45.000Z</time>
      </trkpt>
      <trkpt lat="45.78373" lon="4.72936">
        <ele>260.98688</ele>
        <time>2023-07-07T14:48:46.000Z</time>
      </trkpt>
      <trkpt lat="45.78373" lon="4.72942">
        <ele>261.04352</ele>
        <time>2023-07-07T14:48:47.000Z</time>
      </trkpt>
      <trkpt lat="45.78373" lon="4.72947">
        <ele>261.10602</ele>
        <time>2023-07-07T14:48:48.000Z</time>
      </trkpt>
      <trkpt lat="45.78373" lon="4.72953">
        <ele>261.10132</ele>
        <time>2023-07-07T14:48:49.000Z</time>
      </trkpt>
      <trkpt lat="45.78374" lon="4.72961">
        <ele>261.05811</ele>
        <time>2023-07-07T14:48:50.000Z</time>
      </trkpt>
      <trkpt lat="45.78374" lon="4.72968">
        <ele>260.97461</ele>
        <time>2023-07-07T14:48:51.000Z</time>
      </trkpt>
      <trkpt lat="45.78375" lon="4.72974">
        <ele>260.90005</ele>
        <time>2023-07-07T14:48:52.000Z</time>
      </trkpt>
      <trkpt lat="45.78376" lon="4.72979">
        <ele>260.77109</ele>
        <time>2023-07-07T14:48:53.000Z</time>
      </trkpt>
      <trkpt lat="45.78374" lon="4.72984">
        <ele>260.58685</ele>
        <time>2023-07-07T14:48:54.000Z</time>
      </trkpt>
      <trkpt lat="45.78372" lon="4.72984">
        <ele>260.41846</ele>
        <time>2023-07-07T14:48:55.000Z</time>
      </trkpt>
      <trkpt lat="45.78372" lon="4.72979">
        <ele>260.03049</ele>
        <time>2023-07-07T14:48:57.000Z</time>
      </trkpt>
      <trkpt lat="45.78372" lon="4.72975">
        <ele>259.54318</ele>
        <time>2023-07-07T14:48:58.000Z</time>
      </trkpt>
      <trkpt lat="45.78373" lon="4.72971">
        <ele>259.05569</ele>
        <time>2023-07-07T14:48:59.000Z</time>
      </trkpt>
      <trkpt lat="45.78373" lon="4.72966">
        <ele>259.04623</ele>
        <time>2023-07-07T14:49:00.000Z</time>
      </trkpt>
      <trkpt lat="45.78372" lon="4.7296">
        <ele>259.01157</ele>
        <time>2023-07-07T14:49:01.000Z</time>
      </trkpt>
      <trkpt lat="45.7837" lon="4.72955">
        <ele>258.92609</ele>
        <time>2023-07-07T14:49:02.000Z</time>
      </trkpt>
      <trkpt lat="45.78368" lon="4.72951">
        <ele>258.78094</ele>
        <time>2023-07-07T14:49:03.000Z</time>
      </trkpt>
      <trkpt lat="45.78364" lon="4.72946">
        <ele>258.68484</ele>
        <time>2023-07-07T14:49:04.000Z</time>
      </trkpt>
      <trkpt lat="45.7836" lon="4.72944">
        <ele>258.55539</ele>
        <time>2023-07-07T14:49:05.000Z</time>
      </trkpt>
      <trkpt lat="45.78356" lon="4.72941">
        <ele>258.47055</ele>
        <time>2023-07-07T14:49:06.000Z</time>
      </trkpt>
      <trkpt lat="45.78351" lon="4.7294">
        <ele>258.27618</ele>
        <time>2023-07-07T14:49:07.000Z</time>
      </trkpt>
      <trkpt lat="45.78347" lon="4.72943">
        <ele>257.78345</ele>
        <time>2023-07-07T14:49:08.000Z</time>
      </trkpt>
      <trkpt lat="45.78344" lon="4.72945">
        <ele>257.31473</ele>
        <time>2023-07-07T14:49:09.000Z</time>
      </trkpt>
      <trkpt lat="45.7834" lon="4.72948">
        <ele>257.1283</ele>
        <time>2023-07-07T14:49:10.000Z</time>
      </trkpt>
      <trkpt lat="45.78338" lon="4.72952">
        <ele>256.7515</ele>
        <time>2023-07-07T14:49:11.000Z</time>
      </trkpt>
      <trkpt lat="45.7834" lon="4.72959">
        <ele>256.45456</ele>
        <time>2023-07-07T14:49:12.000Z</time>
      </trkpt>
      <trkpt lat="45.78339" lon="4.72966">
        <ele>256.12296</ele>
        <time>2023-07-07T14:49:13.000Z</time>
      </trkpt>
      <trkpt lat="45.78338" lon="4.72972">
        <ele>255.83664</ele>
        <time>2023-07-07T14:49:14.000Z</time>
      </trkpt>
      <trkpt lat="45.78338" lon="4.72978">
        <ele>255.63522</ele>
        <time>2023-07-07T14:49:15.000Z</time>
      </trkpt>
      <trkpt lat="45.78336" lon="4.72983">
        <ele>255.45386</ele>
        <time>2023-07-07T14:49:16.000Z</time>
      </trkpt>
      <trkpt lat="45.78334" lon="4.72989">
        <ele>255.45425</ele>
        <time>2023-07-07T14:49:17.000Z</time>
      </trkpt>
      <trkpt lat="45.78331" lon="4.72996">
        <ele>255.51196</ele>
        <time>2023-07-07T14:49:18.000Z</time>
      </trkpt>
      <trkpt lat="45.7833" lon="4.73001">
        <ele>255.54216</ele>
        <time>2023-07-07T14:49:19.000Z</time>
      </trkpt>
      <trkpt lat="45.78325" lon="4.73006">
        <ele>255.28471</ele>
        <time>2023-07-07T14:49:20.000Z</time>
      </trkpt>
      <trkpt lat="45.78322" lon="4.7301">
        <ele>255.07256</ele>
        <time>2023-07-07T14:49:21.000Z</time>
      </trkpt>
      <trkpt lat="45.78318" lon="4.73013">
        <ele>254.87012</ele>
        <time>2023-07-07T14:49:22.000Z</time>
      </trkpt>
      <trkpt lat="45.78314" lon="4.73017">
        <ele>254.61365</ele>
        <time>2023-07-07T14:49:23.000Z</time>
      </trkpt>
      <trkpt lat="45.78311" lon="4.73019">
        <ele>254.36372</ele>
        <time>2023-07-07T14:49:24.000Z</time>
      </trkpt>
      <trkpt lat="45.78308" lon="4.73022">
        <ele>254.27243</ele>
        <time>2023-07-07T14:49:25.000Z</time>
      </trkpt>
      <trkpt lat="45.78306" lon="4.73026">
        <ele>254.3772</ele>
        <time>2023-07-07T14:49:26.000Z</time>
      </trkpt>
      <trkpt lat="45.78304" lon="4.7303">
        <ele>254.64571</ele>
        <time>2023-07-07T14:49:27.000Z</time>
      </trkpt>
      <trkpt lat="45.78303" lon="4.73035">
        <ele>254.91562</ele>
        <time>2023-07-07T14:49:28.000Z</time>
      </trkpt>
      <trkpt lat="45.78304" lon="4.7304">
        <ele>255.12798</ele>
        <time>2023-07-07T14:49:29.000Z</time>
      </trkpt>
      <trkpt lat="45.78306" lon="4.73046">
        <ele>255.19588</ele>
        <time>2023-07-07T14:49:30.000Z</time>
      </trkpt>
      <trkpt lat="45.78307" lon="4.73051">
        <ele>255.509</ele>
        <time>2023-07-07T14:49:31.000Z</time>
      </trkpt>
      <trkpt lat="45.78308" lon="4.73056">
        <ele>255.66531</ele>
        <time>2023-07-07T14:49:32.000Z</time>
      </trkpt>
      <trkpt lat="45.78308" lon="4.73062">
        <ele>255.80203</ele>
        <time>2023-07-07T14:49:33.000Z</time>
      </trkpt>
      <trkpt lat="45.7831" lon="4.73068">
        <ele>255.7955</ele>
        <time>2023-07-07T14:49:34.000Z</time>
      </trkpt>
      <trkpt lat="45.78311" lon="4.73074">
        <ele>256.07043</ele>
        <time>2023-07-07T14:49:35.000Z</time>
      </trkpt>
      <trkpt lat="45.78311" lon="4.7308">
        <ele>256.25174</ele>
        <time>2023-07-07T14:49:36.000Z</time>
      </trkpt>
      <trkpt lat="45.78311" lon="4.73084">
        <ele>256.40656</ele>
        <time>2023-07-07T14:49:37.000Z</time>
      </trkpt>
      <trkpt lat="45.78311" lon="4.73089">
        <ele>256.58911</ele>
        <time>2023-07-07T14:49:38.000Z</time>
      </trkpt>
      <trkpt lat="45.78309" lon="4.73096">
        <ele>256.74323</ele>
        <time>2023-07-07T14:49:39.000Z</time>
      </trkpt>
      <trkpt lat="45.78309" lon="4.73102">
        <ele>256.87421</ele>
        <time>2023-07-07T14:49:40.000Z</time>
      </trkpt>
      <trkpt lat="45.78309" lon="4.73108">
        <ele>257.10876</ele>
        <time>2023-07-07T14:49:41.000Z</time>
      </trkpt>
      <trkpt lat="45.78309" lon="4.73113">
        <ele>257.36761</ele>
        <time>2023-07-07T14:49:42.000Z</time>
      </trkpt>
      <trkpt lat="45.78309" lon="4.73119">
        <ele>257.72745</ele>
        <time>2023-07-07T14:49:43.000Z</time>
      </trkpt>
      <trkpt lat="45.7831" lon="4.73125">
        <ele>258.08258</ele>
        <time>2023-07-07T14:49:44.000Z</time>
      </trkpt>
      <trkpt lat="45.78309" lon="4.7313">
        <ele>258.38824</ele>
        <time>2023-07-07T14:49:45.000Z</time>
      </trkpt>
      <trkpt lat="45.78309" lon="4.73135">
        <ele>258.64316</ele>
        <time>2023-07-07T14:49:46.000Z</time>
      </trkpt>
      <trkpt lat="45.78308" lon="4.7314">
        <ele>258.89435</ele>
        <time>2023-07-07T14:49:47.000Z</time>
      </trkpt>
      <trkpt lat="45.78308" lon="4.73145">
        <ele>259.1568</ele>
        <time>2023-07-07T14:49:48.000Z</time>
      </trkpt>
      <trkpt lat="45.78308" lon="4.73149">
        <ele>259.46759</ele>
        <time>2023-07-07T14:49:49.000Z</time>
      </trkpt>
      <trkpt lat="45.78307" lon="4.73154">
        <ele>259.70309</ele>
        <time>2023-07-07T14:49:50.000Z</time>
      </trkpt>
      <trkpt lat="45.78307" lon="4.73159">
        <ele>259.86298</ele>
        <time>2023-07-07T14:49:51.000Z</time>
      </trkpt>
      <trkpt lat="45.78306" lon="4.73164">
        <ele>260.12543</ele>
        <time>2023-07-07T14:49:52.000Z</time>
      </trkpt>
      <trkpt lat="45.78305" lon="4.73169">
        <ele>260.50381</ele>
        <time>2023-07-07T14:49:53.000Z</time>
      </trkpt>
      <trkpt lat="45.78304" lon="4.73174">
        <ele>260.83432</ele>
        <time>2023-07-07T14:49:54.000Z</time>
      </trkpt>
      <trkpt lat="45.78303" lon="4.73179">
        <ele>260.73367</ele>
        <time>2023-07-07T14:49:55.000Z</time>
      </trkpt>
      <trkpt lat="45.78301" lon="4.73183">
        <ele>260.61392</ele>
        <time>2023-07-07T14:49:56.000Z</time>
      </trkpt>
      <trkpt lat="45.78298" lon="4.73187">
        <ele>260.50299</ele>
        <time>2023-07-07T14:49:57.000Z</time>
      </trkpt>
      <trkpt lat="45.78295" lon="4.73191">
        <ele>260.67245</ele>
        <time>2023-07-07T14:49:58.000Z</time>
      </trkpt>
      <trkpt lat="45.78293" lon="4.73193">
        <ele>260.81415</ele>
        <time>2023-07-07T14:49:59.000Z</time>
      </trkpt>
      <trkpt lat="45.78291" lon="4.73196">
        <ele>260.86685</ele>
        <time>2023-07-07T14:50:00.000Z</time>
      </trkpt>
      <trkpt lat="45.7829" lon="4.73198">
        <ele>260.84128</ele>
        <time>2023-07-07T14:50:01.000Z</time>
      </trkpt>
      <trkpt lat="45.78287" lon="4.73202">
        <ele>260.80325</ele>
        <time>2023-07-07T14:50:02.000Z</time>
      </trkpt>
      <trkpt lat="45.78284" lon="4.73206">
        <ele>260.5517</ele>
        <time>2023-07-07T14:50:03.000Z</time>
      </trkpt>
      <trkpt lat="45.78282" lon="4.7321">
        <ele>260.25571</ele>
        <time>2023-07-07T14:50:04.000Z</time>
      </trkpt>
      <trkpt lat="45.7828" lon="4.73212">
        <ele>259.84201</ele>
        <time>2023-07-07T14:50:05.000Z</time>
      </trkpt>
      <trkpt lat="45.78277" lon="4.73216">
        <ele>259.27277</ele>
        <time>2023-07-07T14:50:06.000Z</time>
      </trkpt>
      <trkpt lat="45.78273" lon="4.7322">
        <ele>258.70767</ele>
        <time>2023-07-07T14:50:07.000Z</time>
      </trkpt>
      <trkpt lat="45.7827" lon="4.73224">
        <ele>258.17245</ele>
        <time>2023-07-07T14:50:08.000Z</time>
      </trkpt>
      <trkpt lat="45.78266" lon="4.73229">
        <ele>257.60699</ele>
        <time>2023-07-07T14:50:09.000Z</time>
      </trkpt>
      <trkpt lat="45.78258" lon="4.73236">
        <ele>257.32666</ele>
        <time>2023-07-07T14:50:10.000Z</time>
      </trkpt>
      <trkpt lat="45.78254" lon="4.73239">
        <ele>257.01175</ele>
        <time>2023-07-07T14:50:11.000Z</time>
      </trkpt>
      <trkpt lat="45.7825" lon="4.73244">
        <ele>256.74039</ele>
        <time>2023-07-07T14:50:12.000Z</time>
      </trkpt>
      <trkpt lat="45.78245" lon="4.73248">
        <ele>256.51495</ele>
        <time>2023-07-07T14:50:13.000Z</time>
      </trkpt>
      <trkpt lat="45.78241" lon="4.73253">
        <ele>256.54236</ele>
        <time>2023-07-07T14:50:14.000Z</time>
      </trkpt>
      <trkpt lat="45.78236" lon="4.73257">
        <ele>256.66989</ele>
        <time>2023-07-07T14:50:15.000Z</time>
      </trkpt>
      <trkpt lat="45.78233" lon="4.7326">
        <ele>256.84393</ele>
        <time>2023-07-07T14:50:16.000Z</time>
      </trkpt>
      <trkpt lat="45.7823" lon="4.73263">
        <ele>256.99213</ele>
        <time>2023-07-07T14:50:17.000Z</time>
      </trkpt>
      <trkpt lat="45.78225" lon="4.73266">
        <ele>256.84473</ele>
        <time>2023-07-07T14:50:18.000Z</time>
      </trkpt>
      <trkpt lat="45.78221" lon="4.73271">
        <ele>256.79938</ele>
        <time>2023-07-07T14:50:19.000Z</time>
      </trkpt>
      <trkpt lat="45.78216" lon="4.73273">
        <ele>256.80096</ele>
        <time>2023-07-07T14:50:20.000Z</time>
      </trkpt>
      <trkpt lat="45.78213" lon="4.73273">
        <ele>256.76443</ele>
        <time>2023-07-07T14:50:21.000Z</time>
      </trkpt>
      <trkpt lat="45.78208" lon="4.73276">
        <ele>256.76477</ele>
        <time>2023-07-07T14:50:22.000Z</time>
      </trkpt>
      <trkpt lat="45.78204" lon="4.73279">
        <ele>256.95197</ele>
        <time>2023-07-07T14:50:23.000Z</time>
      </trkpt>
      <trkpt lat="45.782" lon="4.73283">
        <ele>257.20755</ele>
        <time>2023-07-07T14:50:24.000Z</time>
      </trkpt>
      <trkpt lat="45.78196" lon="4.73286">
        <ele>257.56378</ele>
        <time>2023-07-07T14:50:25.000Z</time>
      </trkpt>
      <trkpt lat="45.78192" lon="4.73289">
        <ele>258.09079</ele>
        <time>2023-07-07T14:50:26.000Z</time>
      </trkpt>
      <trkpt lat="45.78187" lon="4.73291">
        <ele>258.5712</ele>
        <time>2023-07-07T14:50:27.000Z</time>
      </trkpt>
      <trkpt lat="45.78182" lon="4.73295">
        <ele>259.01746</ele>
        <time>2023-07-07T14:50:28.000Z</time>
      </trkpt>
      <trkpt lat="45.78177" lon="4.73298">
        <ele>259.50439</ele>
        <time>2023-07-07T14:50:29.000Z</time>
      </trkpt>
      <trkpt lat="45.78173" lon="4.733">
        <ele>259.68677</ele>
        <time>2023-07-07T14:50:30.000Z</time>
      </trkpt>
      <trkpt lat="45.78168" lon="4.73302">
        <ele>259.89667</ele>
        <time>2023-07-07T14:50:31.000Z</time>
      </trkpt>
      <trkpt lat="45.78165" lon="4.73306">
        <ele>260.06308</ele>
        <time>2023-07-07T14:50:32.000Z</time>
      </trkpt>
      <trkpt lat="45.78158" lon="4.73308">
        <ele>259.98688</ele>
        <time>2023-07-07T14:50:33.000Z</time>
      </trkpt>
      <trkpt lat="45.78155" lon="4.73309">
        <ele>259.71078</ele>
        <time>2023-07-07T14:50:34.000Z</time>
      </trkpt>
      <trkpt lat="45.7815" lon="4.73313">
        <ele>259.71527</ele>
        <time>2023-07-07T14:50:35.000Z</time>
      </trkpt>
      <trkpt lat="45.78146" lon="4.73316">
        <ele>259.68906</ele>
        <time>2023-07-07T14:50:36.000Z</time>
      </trkpt>
      <trkpt lat="45.78143" lon="4.73317">
        <ele>259.62482</ele>
        <time>2023-07-07T14:50:37.000Z</time>
      </trkpt>
      <trkpt lat="45.78138" lon="4.73319">
        <ele>259.54196</ele>
        <time>2023-07-07T14:50:38.000Z</time>
      </trkpt>
      <trkpt lat="45.78133" lon="4.73322">
        <ele>259.46182</ele>
        <time>2023-07-07T14:50:39.000Z</time>
      </trkpt>
      <trkpt lat="45.78129" lon="4.73325">
        <ele>259.38763</ele>
        <time>2023-07-07T14:50:40.000Z</time>
      </trkpt>
      <trkpt lat="45.78125" lon="4.73326">
        <ele>259.34882</ele>
        <time>2023-07-07T14:50:41.000Z</time>
      </trkpt>
      <trkpt lat="45.78121" lon="4.73327">
        <ele>259.11819</ele>
        <time>2023-07-07T14:50:42.000Z</time>
      </trkpt>
      <trkpt lat="45.78115" lon="4.73327">
        <ele>258.91574</ele>
        <time>2023-07-07T14:50:43.000Z</time>
      </trkpt>
      <trkpt lat="45.7811" lon="4.73327">
        <ele>258.59479</ele>
        <time>2023-07-07T14:50:44.000Z</time>
      </trkpt>
      <trkpt lat="45.78106" lon="4.73329">
        <ele>258.28802</ele>
        <time>2023-07-07T14:50:45.000Z</time>
      </trkpt>
      <trkpt lat="45.78101" lon="4.7333">
        <ele>258.27008</ele>
        <time>2023-07-07T14:50:46.000Z</time>
      </trkpt>
      <trkpt lat="45.78096" lon="4.73329">
        <ele>258.22577</ele>
        <time>2023-07-07T14:50:47.000Z</time>
      </trkpt>
      <trkpt lat="45.78092" lon="4.73329">
        <ele>258.16119</ele>
        <time>2023-07-07T14:50:48.000Z</time>
      </trkpt>
      <trkpt lat="45.78086" lon="4.73329">
        <ele>258.07584</ele>
        <time>2023-07-07T14:50:49.000Z</time>
      </trkpt>
      <trkpt lat="45.78082" lon="4.73329">
        <ele>257.95367</ele>
        <time>2023-07-07T14:50:50.000Z</time>
      </trkpt>
      <trkpt lat="45.78076" lon="4.73331">
        <ele>257.84995</ele>
        <time>2023-07-07T14:50:51.000Z</time>
      </trkpt>
      <trkpt lat="45.78072" lon="4.73334">
        <ele>257.75809</ele>
        <time>2023-07-07T14:50:52.000Z</time>
      </trkpt>
      <trkpt lat="45.78068" lon="4.73337">
        <ele>257.86761</ele>
        <time>2023-07-07T14:50:53.000Z</time>
      </trkpt>
      <trkpt lat="45.78064" lon="4.7334">
        <ele>258.06445</ele>
        <time>2023-07-07T14:50:54.000Z</time>
      </trkpt>
      <trkpt lat="45.7806" lon="4.73344">
        <ele>257.97763</ele>
        <time>2023-07-07T14:50:55.000Z</time>
      </trkpt>
      <trkpt lat="45.78056" lon="4.73348">
        <ele>257.93524</ele>
        <time>2023-07-07T14:50:56.000Z</time>
      </trkpt>
      <trkpt lat="45.78051" lon="4.73351">
        <ele>257.89056</ele>
        <time>2023-07-07T14:50:57.000Z</time>
      </trkpt>
      <trkpt lat="45.78048" lon="4.73354">
        <ele>257.86887</ele>
        <time>2023-07-07T14:50:58.000Z</time>
      </trkpt>
      <trkpt lat="45.78044" lon="4.73356">
        <ele>257.8002</ele>
        <time>2023-07-07T14:50:59.000Z</time>
      </trkpt>
      <trkpt lat="45.7804" lon="4.7336">
        <ele>257.7457</ele>
        <time>2023-07-07T14:51:00.000Z</time>
      </trkpt>
      <trkpt lat="45.78036" lon="4.73361">
        <ele>257.65311</ele>
        <time>2023-07-07T14:51:01.000Z</time>
      </trkpt>
      <trkpt lat="45.78032" lon="4.73365">
        <ele>257.75989</ele>
        <time>2023-07-07T14:51:02.000Z</time>
      </trkpt>
      <trkpt lat="45.78028" lon="4.73369">
        <ele>257.83899</ele>
        <time>2023-07-07T14:51:03.000Z</time>
      </trkpt>
      <trkpt lat="45.78024" lon="4.73372">
        <ele>258.00116</ele>
        <time>2023-07-07T14:51:04.000Z</time>
      </trkpt>
      <trkpt lat="45.78019" lon="4.73374">
        <ele>258.13153</ele>
        <time>2023-07-07T14:51:05.000Z</time>
      </trkpt>
      <trkpt lat="45.78014" lon="4.73377">
        <ele>257.96899</ele>
        <time>2023-07-07T14:51:06.000Z</time>
      </trkpt>
      <trkpt lat="45.78011" lon="4.73381">
        <ele>257.74854</ele>
        <time>2023-07-07T14:51:07.000Z</time>
      </trkpt>
      <trkpt lat="45.78007" lon="4.73384">
        <ele>257.45758</ele>
        <time>2023-07-07T14:51:08.000Z</time>
      </trkpt>
      <trkpt lat="45.78002" lon="4.73387">
        <ele>257.16736</ele>
        <time>2023-07-07T14:51:09.000Z</time>
      </trkpt>
      <trkpt lat="45.77997" lon="4.7339">
        <ele>257.14481</ele>
        <time>2023-07-07T14:51:10.000Z</time>
      </trkpt>
      <trkpt lat="45.77993" lon="4.73394">
        <ele>257.04279</ele>
        <time>2023-07-07T14:51:11.000Z</time>
      </trkpt>
      <trkpt lat="45.77989" lon="4.73397">
        <ele>256.92905</ele>
        <time>2023-07-07T14:51:12.000Z</time>
      </trkpt>
      <trkpt lat="45.77984" lon="4.734">
        <ele>256.80215</ele>
        <time>2023-07-07T14:51:13.000Z</time>
      </trkpt>
      <trkpt lat="45.7798" lon="4.73404">
        <ele>256.69879</ele>
        <time>2023-07-07T14:51:14.000Z</time>
      </trkpt>
      <trkpt lat="45.77976" lon="4.73406">
        <ele>256.55313</ele>
        <time>2023-07-07T14:51:15.000Z</time>
      </trkpt>
      <trkpt lat="45.77971" lon="4.73409">
        <ele>256.41077</ele>
        <time>2023-07-07T14:51:16.000Z</time>
      </trkpt>
      <trkpt lat="45.77967" lon="4.73414">
        <ele>256.31454</ele>
        <time>2023-07-07T14:51:17.000Z</time>
      </trkpt>
      <trkpt lat="45.77964" lon="4.73417">
        <ele>256.22778</ele>
        <time>2023-07-07T14:51:18.000Z</time>
      </trkpt>
      <trkpt lat="45.7796" lon="4.7342">
        <ele>256.16891</ele>
        <time>2023-07-07T14:51:19.000Z</time>
      </trkpt>
      <trkpt lat="45.77957" lon="4.73423">
        <ele>256.14502</ele>
        <time>2023-07-07T14:51:20.000Z</time>
      </trkpt>
      <trkpt lat="45.77952" lon="4.73425">
        <ele>256.11493</ele>
        <time>2023-07-07T14:51:21.000Z</time>
      </trkpt>
      <trkpt lat="45.77948" lon="4.73428">
        <ele>255.89609</ele>
        <time>2023-07-07T14:51:22.000Z</time>
      </trkpt>
      <trkpt lat="45.77944" lon="4.73432">
        <ele>255.63277</ele>
        <time>2023-07-07T14:51:23.000Z</time>
      </trkpt>
      <trkpt lat="45.7794" lon="4.73436">
        <ele>255.38484</ele>
        <time>2023-07-07T14:51:24.000Z</time>
      </trkpt>
      <trkpt lat="45.77936" lon="4.7344">
        <ele>255.38457</ele>
        <time>2023-07-07T14:51:25.000Z</time>
      </trkpt>
      <trkpt lat="45.77931" lon="4.73444">
        <ele>255.33223</ele>
        <time>2023-07-07T14:51:26.000Z</time>
      </trkpt>
      <trkpt lat="45.77928" lon="4.73447">
        <ele>255.42354</ele>
        <time>2023-07-07T14:51:27.000Z</time>
      </trkpt>
      <trkpt lat="45.77925" lon="4.73453">
        <ele>255.61435</ele>
        <time>2023-07-07T14:51:28.000Z</time>
      </trkpt>
      <trkpt lat="45.77922" lon="4.73459">
        <ele>255.79916</ele>
        <time>2023-07-07T14:51:29.000Z</time>
      </trkpt>
      <trkpt lat="45.77919" lon="4.73465">
        <ele>255.77254</ele>
        <time>2023-07-07T14:51:30.000Z</time>
      </trkpt>
      <trkpt lat="45.77918" lon="4.73472">
        <ele>255.79813</ele>
        <time>2023-07-07T14:51:31.000Z</time>
      </trkpt>
      <trkpt lat="45.77917" lon="4.73479">
        <ele>255.82393</ele>
        <time>2023-07-07T14:51:32.000Z</time>
      </trkpt>
      <trkpt lat="45.77917" lon="4.73486">
        <ele>255.85844</ele>
        <time>2023-07-07T14:51:33.000Z</time>
      </trkpt>
      <trkpt lat="45.77917" lon="4.73493">
        <ele>255.88628</ele>
        <time>2023-07-07T14:51:34.000Z</time>
      </trkpt>
      <trkpt lat="45.77917" lon="4.735">
        <ele>255.95932</ele>
        <time>2023-07-07T14:51:35.000Z</time>
      </trkpt>
      <trkpt lat="45.77917" lon="4.73506">
        <ele>256.03128</ele>
        <time>2023-07-07T14:51:36.000Z</time>
      </trkpt>
      <trkpt lat="45.77915" lon="4.73511">
        <ele>256.09506</ele>
        <time>2023-07-07T14:51:37.000Z</time>
      </trkpt>
      <trkpt lat="45.77912" lon="4.73517">
        <ele>256.13391</ele>
        <time>2023-07-07T14:51:38.000Z</time>
      </trkpt>
      <trkpt lat="45.7791" lon="4.73522">
        <ele>256.1745</ele>
        <time>2023-07-07T14:51:39.000Z</time>
      </trkpt>
      <trkpt lat="45.77907" lon="4.73526">
        <ele>256.20239</ele>
        <time>2023-07-07T14:51:40.000Z</time>
      </trkpt>
      <trkpt lat="45.77904" lon="4.73529">
        <ele>256.27264</ele>
        <time>2023-07-07T14:51:41.000Z</time>
      </trkpt>
      <trkpt lat="45.77901" lon="4.73534">
        <ele>256.50827</ele>
        <time>2023-07-07T14:51:42.000Z</time>
      </trkpt>
      <trkpt lat="45.77898" lon="4.73538">
        <ele>256.79965</ele>
        <time>2023-07-07T14:51:43.000Z</time>
      </trkpt>
      <trkpt lat="45.77896" lon="4.73542">
        <ele>257.08234</ele>
        <time>2023-07-07T14:51:44.000Z</time>
      </trkpt>
      <trkpt lat="45.77894" lon="4.73546">
        <ele>257.1246</ele>
        <time>2023-07-07T14:51:45.000Z</time>
      </trkpt>
      <trkpt lat="45.77891" lon="4.73551">
        <ele>257.2287</ele>
        <time>2023-07-07T14:51:46.000Z</time>
      </trkpt>
      <trkpt lat="45.77888" lon="4.73555">
        <ele>257.31958</ele>
        <time>2023-07-07T14:51:47.000Z</time>
      </trkpt>
      <trkpt lat="45.77885" lon="4.7356">
        <ele>257.39313</ele>
        <time>2023-07-07T14:51:48.000Z</time>
      </trkpt>
      <trkpt lat="45.77883" lon="4.73564">
        <ele>257.4845</ele>
        <time>2023-07-07T14:51:49.000Z</time>
      </trkpt>
      <trkpt lat="45.7788" lon="4.73568">
        <ele>257.54517</ele>
        <time>2023-07-07T14:51:50.000Z</time>
      </trkpt>
      <trkpt lat="45.77877" lon="4.73573">
        <ele>257.60849</ele>
        <time>2023-07-07T14:51:51.000Z</time>
      </trkpt>
      <trkpt lat="45.77874" lon="4.73577">
        <ele>259.10614</ele>
        <time>2023-07-07T14:51:52.000Z</time>
      </trkpt>
      <trkpt lat="45.77871" lon="4.73582">
        <ele>260.19293</ele>
        <time>2023-07-07T14:51:53.000Z</time>
      </trkpt>
      <trkpt lat="45.77868" lon="4.73586">
        <ele>261.25848</ele>
        <time>2023-07-07T14:51:54.000Z</time>
      </trkpt>
      <trkpt lat="45.77865" lon="4.73589">
        <ele>262.30621</ele>
        <time>2023-07-07T14:51:55.000Z</time>
      </trkpt>
      <trkpt lat="45.77862" lon="4.73593">
        <ele>263.33441</ele>
        <time>2023-07-07T14:51:56.000Z</time>
      </trkpt>
      <trkpt lat="45.77859" lon="4.73597">
        <ele>264.37335</ele>
        <time>2023-07-07T14:51:57.000Z</time>
      </trkpt>
      <trkpt lat="45.77856" lon="4.73601">
        <ele>265.41153</ele>
        <time>2023-07-07T14:51:58.000Z</time>
      </trkpt>
      <trkpt lat="45.77852" lon="4.73605">
        <ele>266.38638</ele>
        <time>2023-07-07T14:51:59.000Z</time>
      </trkpt>
      <trkpt lat="45.77849" lon="4.73609">
        <ele>267.39957</ele>
        <time>2023-07-07T14:52:00.000Z</time>
      </trkpt>
      <trkpt lat="45.77846" lon="4.73614">
        <ele>268.41525</ele>
        <time>2023-07-07T14:52:01.000Z</time>
      </trkpt>
      <trkpt lat="45.77843" lon="4.73619">
        <ele>268.36938</ele>
        <time>2023-07-07T14:52:02.000Z</time>
      </trkpt>
      <trkpt lat="45.77839" lon="4.73623">
        <ele>268.30234</ele>
        <time>2023-07-07T14:52:03.000Z</time>
      </trkpt>
      <trkpt lat="45.77835" lon="4.73627">
        <ele>268.25092</ele>
        <time>2023-07-07T14:52:04.000Z</time>
      </trkpt>
      <trkpt lat="45.77831" lon="4.7363">
        <ele>268.22784</ele>
        <time>2023-07-07T14:52:05.000Z</time>
      </trkpt>
      <trkpt lat="45.77827" lon="4.73634">
        <ele>268.18939</ele>
        <time>2023-07-07T14:52:06.000Z</time>
      </trkpt>
      <trkpt lat="45.77823" lon="4.73635">
        <ele>268.14975</ele>
        <time>2023-07-07T14:52:07.000Z</time>
      </trkpt>
      <trkpt lat="45.77818" lon="4.73637">
        <ele>268.11584</ele>
        <time>2023-07-07T14:52:08.000Z</time>
      </trkpt>
      <trkpt lat="45.77814" lon="4.7364">
        <ele>268.08383</ele>
        <time>2023-07-07T14:52:09.000Z</time>
      </trkpt>
      <trkpt lat="45.7781" lon="4.73642">
        <ele>268.06866</ele>
        <time>2023-07-07T14:52:10.000Z</time>
      </trkpt>
      <trkpt lat="45.77805" lon="4.73644">
        <ele>268.04092</ele>
        <time>2023-07-07T14:52:11.000Z</time>
      </trkpt>
      <trkpt lat="45.77801" lon="4.73646">
        <ele>266.56348</ele>
        <time>2023-07-07T14:52:12.000Z</time>
      </trkpt>
      <trkpt lat="45.77797" lon="4.73648">
        <ele>265.50546</ele>
        <time>2023-07-07T14:52:13.000Z</time>
      </trkpt>
      <trkpt lat="45.77793" lon="4.7365">
        <ele>264.45349</ele>
        <time>2023-07-07T14:52:14.000Z</time>
      </trkpt>
      <trkpt lat="45.77789" lon="4.73651">
        <ele>263.41068</ele>
        <time>2023-07-07T14:52:15.000Z</time>
      </trkpt>
      <trkpt lat="45.77784" lon="4.73651">
        <ele>262.19882</ele>
        <time>2023-07-07T14:52:16.000Z</time>
      </trkpt>
      <trkpt lat="45.77779" lon="4.73649">
        <ele>262.21201</ele>
        <time>2023-07-07T14:52:17.000Z</time>
      </trkpt>
      <trkpt lat="45.77776" lon="4.73646">
        <ele>262.22522</ele>
        <time>2023-07-07T14:52:18.000Z</time>
      </trkpt>
      <trkpt lat="45.77772" lon="4.73641">
        <ele>262.26373</ele>
        <time>2023-07-07T14:52:19.000Z</time>
      </trkpt>
      <trkpt lat="45.77769" lon="4.73636">
        <ele>262.25122</ele>
        <time>2023-07-07T14:52:20.000Z</time>
      </trkpt>
      <trkpt lat="45.77765" lon="4.73631">
        <ele>262.25122</ele>
        <time>2023-07-07T14:52:21.000Z</time>
      </trkpt>
      <trkpt lat="45.77762" lon="4.73627">
        <ele>263.31052</ele>
        <time>2023-07-07T14:52:22.000Z</time>
      </trkpt>
      <trkpt lat="45.77759" lon="4.73622">
        <ele>264.37903</ele>
        <time>2023-07-07T14:52:23.000Z</time>
      </trkpt>
      <trkpt lat="45.77755" lon="4.73618">
        <ele>265.3959</ele>
        <time>2023-07-07T14:52:24.000Z</time>
      </trkpt>
      <trkpt lat="45.77752" lon="4.73612">
        <ele>266.39871</ele>
        <time>2023-07-07T14:52:25.000Z</time>
      </trkpt>
      <trkpt lat="45.77749" lon="4.73608">
        <ele>267.40741</ele>
        <time>2023-07-07T14:52:26.000Z</time>
      </trkpt>
      <trkpt lat="45.77746" lon="4.73603">
        <ele>268.42133</ele>
        <time>2023-07-07T14:52:27.000Z</time>
      </trkpt>
      <trkpt lat="45.77742" lon="4.73598">
        <ele>269.44287</ele>
        <time>2023-07-07T14:52:28.000Z</time>
      </trkpt>
      <trkpt lat="45.77739" lon="4.73593">
        <ele>270.45819</ele>
        <time>2023-07-07T14:52:29.000Z</time>
      </trkpt>
      <trkpt lat="45.77735" lon="4.73589">
        <ele>271.50876</ele>
        <time>2023-07-07T14:52:30.000Z</time>
      </trkpt>
      <trkpt lat="45.77731" lon="4.73584">
        <ele>272.56442</ele>
        <time>2023-07-07T14:52:31.000Z</time>
      </trkpt>
      <trkpt lat="45.77728" lon="4.73578">
        <ele>273.57742</ele>
        <time>2023-07-07T14:52:32.000Z</time>
      </trkpt>
      <trkpt lat="45.77725" lon="4.73573">
        <ele>274.62994</ele>
        <time>2023-07-07T14:52:33.000Z</time>
      </trkpt>
      <trkpt lat="45.77722" lon="4.73569">
        <ele>275.69052</ele>
        <time>2023-07-07T14:52:34.000Z</time>
      </trkpt>
      <trkpt lat="45.77718" lon="4.73565">
        <ele>276.75018</ele>
        <time>2023-07-07T14:52:35.000Z</time>
      </trkpt>
      <trkpt lat="45.77715" lon="4.7356">
        <ele>277.97086</ele>
        <time>2023-07-07T14:52:36.000Z</time>
      </trkpt>
      <trkpt lat="45.77712" lon="4.73556">
        <ele>278.00385</ele>
        <time>2023-07-07T14:52:37.000Z</time>
      </trkpt>
      <trkpt lat="45.77709" lon="4.73552">
        <ele>278.04465</ele>
        <time>2023-07-07T14:52:38.000Z</time>
      </trkpt>
      <trkpt lat="45.77705" lon="4.73547">
        <ele>278.09012</ele>
        <time>2023-07-07T14:52:39.000Z</time>
      </trkpt>
      <trkpt lat="45.77702" lon="4.73542">
        <ele>278.14478</ele>
        <time>2023-07-07T14:52:40.000Z</time>
      </trkpt>
      <trkpt lat="45.77699" lon="4.73537">
        <ele>278.48315</ele>
        <time>2023-07-07T14:52:41.000Z</time>
      </trkpt>
      <trkpt lat="45.77695" lon="4.73532">
        <ele>278.8288</ele>
        <time>2023-07-07T14:52:42.000Z</time>
      </trkpt>
      <trkpt lat="45.77693" lon="4.73527">
        <ele>279.24017</ele>
        <time>2023-07-07T14:52:43.000Z</time>
      </trkpt>
      <trkpt lat="45.7769" lon="4.73519">
        <ele>279.30136</ele>
        <time>2023-07-07T14:52:44.000Z</time>
      </trkpt>
      <trkpt lat="45.77687" lon="4.73515">
        <ele>279.39807</ele>
        <time>2023-07-07T14:52:45.000Z</time>
      </trkpt>
      <trkpt lat="45.77684" lon="4.7351">
        <ele>279.43063</ele>
        <time>2023-07-07T14:52:46.000Z</time>
      </trkpt>
      <trkpt lat="45.7768" lon="4.73507">
        <ele>279.47662</ele>
        <time>2023-07-07T14:52:47.000Z</time>
      </trkpt>
      <trkpt lat="45.77677" lon="4.73501">
        <ele>279.50803</ele>
        <time>2023-07-07T14:52:48.000Z</time>
      </trkpt>
      <trkpt lat="45.77673" lon="4.73496">
        <ele>279.53998</ele>
        <time>2023-07-07T14:52:49.000Z</time>
      </trkpt>
      <trkpt lat="45.7767" lon="4.73491">
        <ele>279.53738</ele>
        <time>2023-07-07T14:52:50.000Z</time>
      </trkpt>
      <trkpt lat="45.77667" lon="4.73486">
        <ele>279.51309</ele>
        <time>2023-07-07T14:52:51.000Z</time>
      </trkpt>
      <trkpt lat="45.77664" lon="4.73481">
        <ele>279.54453</ele>
        <time>2023-07-07T14:52:52.000Z</time>
      </trkpt>
      <trkpt lat="45.7766" lon="4.73477">
        <ele>279.53281</ele>
        <time>2023-07-07T14:52:53.000Z</time>
      </trkpt>
      <trkpt lat="45.77657" lon="4.73472">
        <ele>279.478</ele>
        <time>2023-07-07T14:52:54.000Z</time>
      </trkpt>
      <trkpt lat="45.77653" lon="4.73467">
        <ele>279.45197</ele>
        <time>2023-07-07T14:52:55.000Z</time>
      </trkpt>
      <trkpt lat="45.7765" lon="4.73462">
        <ele>279.36752</ele>
        <time>2023-07-07T14:52:56.000Z</time>
      </trkpt>
      <trkpt lat="45.77646" lon="4.73458">
        <ele>279.30301</ele>
        <time>2023-07-07T14:52:57.000Z</time>
      </trkpt>
      <trkpt lat="45.77642" lon="4.73454">
        <ele>279.4162</ele>
        <time>2023-07-07T14:52:58.000Z</time>
      </trkpt>
      <trkpt lat="45.77639" lon="4.7345">
        <ele>279.54718</ele>
        <time>2023-07-07T14:52:59.000Z</time>
      </trkpt>
      <trkpt lat="45.77636" lon="4.73446">
        <ele>279.82413</ele>
        <time>2023-07-07T14:53:00.000Z</time>
      </trkpt>
      <trkpt lat="45.77632" lon="4.73442">
        <ele>279.37894</ele>
        <time>2023-07-07T14:53:01.000Z</time>
      </trkpt>
      <trkpt lat="45.7763" lon="4.73438">
        <ele>279.00092</ele>
        <time>2023-07-07T14:53:02.000Z</time>
      </trkpt>
      <trkpt lat="45.77627" lon="4.73434">
        <ele>278.55231</ele>
        <time>2023-07-07T14:53:03.000Z</time>
      </trkpt>
      <trkpt lat="45.77624" lon="4.73431">
        <ele>278.5061</ele>
        <time>2023-07-07T14:53:04.000Z</time>
      </trkpt>
      <trkpt lat="45.77621" lon="4.73427">
        <ele>278.43079</ele>
        <time>2023-07-07T14:53:05.000Z</time>
      </trkpt>
      <trkpt lat="45.77617" lon="4.73422">
        <ele>278.42218</ele>
        <time>2023-07-07T14:53:06.000Z</time>
      </trkpt>
      <trkpt lat="45.77615" lon="4.73419">
        <ele>278.40823</ele>
        <time>2023-07-07T14:53:07.000Z</time>
      </trkpt>
      <trkpt lat="45.77612" lon="4.73415">
        <ele>278.39041</ele>
        <time>2023-07-07T14:53:08.000Z</time>
      </trkpt>
      <trkpt lat="45.7761" lon="4.73412">
        <ele>278.36609</ele>
        <time>2023-07-07T14:53:09.000Z</time>
      </trkpt>
      <trkpt lat="45.77607" lon="4.7341">
        <ele>278.36191</ele>
        <time>2023-07-07T14:53:10.000Z</time>
      </trkpt>
      <trkpt lat="45.77604" lon="4.73408">
        <ele>278.35474</ele>
        <time>2023-07-07T14:53:11.000Z</time>
      </trkpt>
      <trkpt lat="45.77602" lon="4.73405">
        <ele>278.30386</ele>
        <time>2023-07-07T14:53:12.000Z</time>
      </trkpt>
      <trkpt lat="45.77599" lon="4.73402">
        <ele>278.2796</ele>
        <time>2023-07-07T14:53:13.000Z</time>
      </trkpt>
      <trkpt lat="45.77597" lon="4.73399">
        <ele>278.26926</ele>
        <time>2023-07-07T14:53:14.000Z</time>
      </trkpt>
      <trkpt lat="45.77596" lon="4.73395">
        <ele>278.24634</ele>
        <time>2023-07-07T14:53:15.000Z</time>
      </trkpt>
      <trkpt lat="45.77597" lon="4.7339">
        <ele>278.33701</ele>
        <time>2023-07-07T14:53:16.000Z</time>
      </trkpt>
      <trkpt lat="45.77598" lon="4.73385">
        <ele>278.39069</ele>
        <time>2023-07-07T14:53:17.000Z</time>
      </trkpt>
      <trkpt lat="45.776" lon="4.73381">
        <ele>278.25565</ele>
        <time>2023-07-07T14:53:18.000Z</time>
      </trkpt>
      <trkpt lat="45.77601" lon="4.73376">
        <ele>278.11728</ele>
        <time>2023-07-07T14:53:19.000Z</time>
      </trkpt>
      <trkpt lat="45.77601" lon="4.73371">
        <ele>277.84164</ele>
        <time>2023-07-07T14:53:20.000Z</time>
      </trkpt>
      <trkpt lat="45.77601" lon="4.73366">
        <ele>277.96558</ele>
        <time>2023-07-07T14:53:21.000Z</time>
      </trkpt>
      <trkpt lat="45.77601" lon="4.73359">
        <ele>277.98981</ele>
        <time>2023-07-07T14:53:22.000Z</time>
      </trkpt>
      <trkpt lat="45.776" lon="4.73353">
        <ele>278.01987</ele>
        <time>2023-07-07T14:53:23.000Z</time>
      </trkpt>
      <trkpt lat="45.77598" lon="4.73346">
        <ele>278.04568</ele>
        <time>2023-07-07T14:53:24.000Z</time>
      </trkpt>
      <trkpt lat="45.77597" lon="4.73338">
        <ele>278.06274</ele>
        <time>2023-07-07T14:53:25.000Z</time>
      </trkpt>
      <trkpt lat="45.77594" lon="4.73332">
        <ele>278.08221</ele>
        <time>2023-07-07T14:53:26.000Z</time>
      </trkpt>
      <trkpt lat="45.7759" lon="4.73326">
        <ele>278.08087</ele>
        <time>2023-07-07T14:53:27.000Z</time>
      </trkpt>
      <trkpt lat="45.77586" lon="4.7332">
        <ele>278.0896</ele>
        <time>2023-07-07T14:53:28.000Z</time>
      </trkpt>
      <trkpt lat="45.77581" lon="4.73313">
        <ele>278.06567</ele>
        <time>2023-07-07T14:53:29.000Z</time>
      </trkpt>
      <trkpt lat="45.77577" lon="4.73308">
        <ele>278.04166</ele>
        <time>2023-07-07T14:53:30.000Z</time>
      </trkpt>
      <trkpt lat="45.77571" lon="4.73303">
        <ele>278.04529</ele>
        <time>2023-07-07T14:53:31.000Z</time>
      </trkpt>
      <trkpt lat="45.77566" lon="4.73298">
        <ele>278.08698</ele>
        <time>2023-07-07T14:53:32.000Z</time>
      </trkpt>
      <trkpt lat="45.77561" lon="4.73292">
        <ele>278.07733</ele>
        <time>2023-07-07T14:53:33.000Z</time>
      </trkpt>
      <trkpt lat="45.77557" lon="4.73283">
        <ele>278.0661</ele>
        <time>2023-07-07T14:53:34.000Z</time>
      </trkpt>
      <trkpt lat="45.77554" lon="4.73273">
        <ele>278.00058</ele>
        <time>2023-07-07T14:53:35.000Z</time>
      </trkpt>
      <trkpt lat="45.77554" lon="4.73264">
        <ele>277.89496</ele>
        <time>2023-07-07T14:53:36.000Z</time>
      </trkpt>
      <trkpt lat="45.77554" lon="4.73253">
        <ele>277.98907</ele>
        <time>2023-07-07T14:53:37.000Z</time>
      </trkpt>
      <trkpt lat="45.77555" lon="4.73243">
        <ele>278.23126</ele>
        <time>2023-07-07T14:53:38.000Z</time>
      </trkpt>
      <trkpt lat="45.77556" lon="4.73232">
        <ele>278.43228</ele>
        <time>2023-07-07T14:53:39.000Z</time>
      </trkpt>
      <trkpt lat="45.77557" lon="4.73222">
        <ele>278.17291</ele>
        <time>2023-07-07T14:53:40.000Z</time>
      </trkpt>
      <trkpt lat="45.77558" lon="4.73211">
        <ele>278.00781</ele>
        <time>2023-07-07T14:53:41.000Z</time>
      </trkpt>
      <trkpt lat="45.77559" lon="4.732">
        <ele>277.82132</ele>
        <time>2023-07-07T14:53:42.000Z</time>
      </trkpt>
      <trkpt lat="45.77561" lon="4.73187">
        <ele>277.62161</ele>
        <time>2023-07-07T14:53:43.000Z</time>
      </trkpt>
      <trkpt lat="45.77563" lon="4.73177">
        <ele>277.42612</ele>
        <time>2023-07-07T14:53:44.000Z</time>
      </trkpt>
      <trkpt lat="45.77565" lon="4.73166">
        <ele>277.19836</ele>
        <time>2023-07-07T14:53:45.000Z</time>
      </trkpt>
      <trkpt lat="45.77566" lon="4.73156">
        <ele>276.98932</ele>
        <time>2023-07-07T14:53:46.000Z</time>
      </trkpt>
      <trkpt lat="45.77567" lon="4.73145">
        <ele>276.8168</ele>
        <time>2023-07-07T14:53:47.000Z</time>
      </trkpt>
      <trkpt lat="45.77571" lon="4.73135">
        <ele>276.74149</ele>
        <time>2023-07-07T14:53:48.000Z</time>
      </trkpt>
      <trkpt lat="45.77568" lon="4.73125">
        <ele>276.73419</ele>
        <time>2023-07-07T14:53:49.000Z</time>
      </trkpt>
      <trkpt lat="45.77564" lon="4.73115">
        <ele>276.69119</ele>
        <time>2023-07-07T14:53:50.000Z</time>
      </trkpt>
      <trkpt lat="45.77562" lon="4.73104">
        <ele>276.6087</ele>
        <time>2023-07-07T14:53:51.000Z</time>
      </trkpt>
      <trkpt lat="45.77555" lon="4.73101">
        <ele>276.49677</ele>
        <time>2023-07-07T14:53:52.000Z</time>
      </trkpt>
      <trkpt lat="45.77548" lon="4.73099">
        <ele>276.33606</ele>
        <time>2023-07-07T14:53:53.000Z</time>
      </trkpt>
      <trkpt lat="45.77541" lon="4.731">
        <ele>276.0705</ele>
        <time>2023-07-07T14:53:54.000Z</time>
      </trkpt>
      <trkpt lat="45.77536" lon="4.73102">
        <ele>275.81406</ele>
        <time>2023-07-07T14:53:55.000Z</time>
      </trkpt>
      <trkpt lat="45.77531" lon="4.73107">
        <ele>275.5791</ele>
        <time>2023-07-07T14:53:56.000Z</time>
      </trkpt>
      <trkpt lat="45.77527" lon="4.73112">
        <ele>275.10919</ele>
        <time>2023-07-07T14:53:57.000Z</time>
      </trkpt>
      <trkpt lat="45.77525" lon="4.73115">
        <ele>274.46817</ele>
        <time>2023-07-07T14:53:58.000Z</time>
      </trkpt>
      <trkpt lat="45.77521" lon="4.7312">
        <ele>273.91641</ele>
        <time>2023-07-07T14:53:59.000Z</time>
      </trkpt>
      <trkpt lat="45.77518" lon="4.73123">
        <ele>273.88989</ele>
        <time>2023-07-07T14:54:00.000Z</time>
      </trkpt>
      <trkpt lat="45.77514" lon="4.73127">
        <ele>273.98135</ele>
        <time>2023-07-07T14:54:01.000Z</time>
      </trkpt>
      <trkpt lat="45.77511" lon="4.73131">
        <ele>274.37982</ele>
        <time>2023-07-07T14:54:02.000Z</time>
      </trkpt>
      <trkpt lat="45.77508" lon="4.73135">
        <ele>274.38873</ele>
        <time>2023-07-07T14:54:03.000Z</time>
      </trkpt>
      <trkpt lat="45.77505" lon="4.73139">
        <ele>274.56265</ele>
        <time>2023-07-07T14:54:04.000Z</time>
      </trkpt>
      <trkpt lat="45.77501" lon="4.73144">
        <ele>274.6828</ele>
        <time>2023-07-07T14:54:05.000Z</time>
      </trkpt>
      <trkpt lat="45.77498" lon="4.73148">
        <ele>274.78128</ele>
        <time>2023-07-07T14:54:06.000Z</time>
      </trkpt>
      <trkpt lat="45.77496" lon="4.73153">
        <ele>274.90826</ele>
        <time>2023-07-07T14:54:07.000Z</time>
      </trkpt>
      <trkpt lat="45.77493" lon="4.73158">
        <ele>274.8808</ele>
        <time>2023-07-07T14:54:08.000Z</time>
      </trkpt>
      <trkpt lat="45.7749" lon="4.73161">
        <ele>274.84393</ele>
        <time>2023-07-07T14:54:09.000Z</time>
      </trkpt>
      <trkpt lat="45.77487" lon="4.73164">
        <ele>274.99725</ele>
        <time>2023-07-07T14:54:10.000Z</time>
      </trkpt>
      <trkpt lat="45.77484" lon="4.73169">
        <ele>275.4472</ele>
        <time>2023-07-07T14:54:11.000Z</time>
      </trkpt>
      <trkpt lat="45.7748" lon="4.73172">
        <ele>276.08832</ele>
        <time>2023-07-07T14:54:12.000Z</time>
      </trkpt>
      <trkpt lat="45.77477" lon="4.73177">
        <ele>276.29547</ele>
        <time>2023-07-07T14:54:13.000Z</time>
      </trkpt>
      <trkpt lat="45.77473" lon="4.73182">
        <ele>276.74786</ele>
        <time>2023-07-07T14:54:14.000Z</time>
      </trkpt>
      <trkpt lat="45.77472" lon="4.73185">
        <ele>277.22617</ele>
        <time>2023-07-07T14:54:15.000Z</time>
      </trkpt>
      <trkpt lat="45.77468" lon="4.73189">
        <ele>277.83319</ele>
        <time>2023-07-07T14:54:16.000Z</time>
      </trkpt>
      <trkpt lat="45.77465" lon="4.73192">
        <ele>278.43036</ele>
        <time>2023-07-07T14:54:17.000Z</time>
      </trkpt>
      <trkpt lat="45.77462" lon="4.73195">
        <ele>278.97906</ele>
        <time>2023-07-07T14:54:18.000Z</time>
      </trkpt>
      <trkpt lat="45.77459" lon="4.73199">
        <ele>279.43536</ele>
        <time>2023-07-07T14:54:19.000Z</time>
      </trkpt>
      <trkpt lat="45.77457" lon="4.73207">
        <ele>279.81317</ele>
        <time>2023-07-07T14:54:20.000Z</time>
      </trkpt>
      <trkpt lat="45.77452" lon="4.73212">
        <ele>279.966</ele>
        <time>2023-07-07T14:54:21.000Z</time>
      </trkpt>
      <trkpt lat="45.77446" lon="4.73216">
        <ele>279.83344</ele>
        <time>2023-07-07T14:54:22.000Z</time>
      </trkpt>
      <trkpt lat="45.77444" lon="4.73219">
        <ele>280.08807</ele>
        <time>2023-07-07T14:54:23.000Z</time>
      </trkpt>
      <trkpt lat="45.7744" lon="4.73223">
        <ele>280.04883</ele>
        <time>2023-07-07T14:54:24.000Z</time>
      </trkpt>
      <trkpt lat="45.77437" lon="4.73225">
        <ele>280.12192</ele>
        <time>2023-07-07T14:54:25.000Z</time>
      </trkpt>
      <trkpt lat="45.77434" lon="4.7323">
        <ele>280.19141</ele>
        <time>2023-07-07T14:54:26.000Z</time>
      </trkpt>
      <trkpt lat="45.7743" lon="4.73231">
        <ele>280.16037</ele>
        <time>2023-07-07T14:54:27.000Z</time>
      </trkpt>
      <trkpt lat="45.77426" lon="4.73233">
        <ele>280.1626</ele>
        <time>2023-07-07T14:54:28.000Z</time>
      </trkpt>
      <trkpt lat="45.77421" lon="4.73236">
        <ele>280.05469</ele>
        <time>2023-07-07T14:54:29.000Z</time>
      </trkpt>
      <trkpt lat="45.77418" lon="4.73237">
        <ele>279.81293</ele>
        <time>2023-07-07T14:54:30.000Z</time>
      </trkpt>
      <trkpt lat="45.77414" lon="4.73239">
        <ele>279.28967</ele>
        <time>2023-07-07T14:54:31.000Z</time>
      </trkpt>
      <trkpt lat="45.77411" lon="4.73241">
        <ele>278.70905</ele>
        <time>2023-07-07T14:54:32.000Z</time>
      </trkpt>
      <trkpt lat="45.77407" lon="4.73244">
        <ele>278.56512</ele>
        <time>2023-07-07T14:54:33.000Z</time>
      </trkpt>
      <trkpt lat="45.77404" lon="4.73246">
        <ele>278.2598</ele>
        <time>2023-07-07T14:54:34.000Z</time>
      </trkpt>
      <trkpt lat="45.77401" lon="4.73248">
        <ele>278.0029</ele>
        <time>2023-07-07T14:54:35.000Z</time>
      </trkpt>
      <trkpt lat="45.77398" lon="4.7325">
        <ele>277.61142</ele>
        <time>2023-07-07T14:54:36.000Z</time>
      </trkpt>
      <trkpt lat="45.77394" lon="4.73252">
        <ele>277.19086</ele>
        <time>2023-07-07T14:54:37.000Z</time>
      </trkpt>
      <trkpt lat="45.77391" lon="4.73253">
        <ele>276.85602</ele>
        <time>2023-07-07T14:54:38.000Z</time>
      </trkpt>
      <trkpt lat="45.77387" lon="4.73255">
        <ele>276.53616</ele>
        <time>2023-07-07T14:54:39.000Z</time>
      </trkpt>
      <trkpt lat="45.77383" lon="4.73256">
        <ele>276.24353</ele>
        <time>2023-07-07T14:54:40.000Z</time>
      </trkpt>
      <trkpt lat="45.7738" lon="4.73258">
        <ele>276.01193</ele>
        <time>2023-07-07T14:54:41.000Z</time>
      </trkpt>
      <trkpt lat="45.77377" lon="4.7326">
        <ele>275.81021</ele>
        <time>2023-07-07T14:54:42.000Z</time>
      </trkpt>
      <trkpt lat="45.77374" lon="4.73262">
        <ele>275.62762</ele>
        <time>2023-07-07T14:54:43.000Z</time>
      </trkpt>
      <trkpt lat="45.7737" lon="4.73264">
        <ele>275.56662</ele>
        <time>2023-07-07T14:54:44.000Z</time>
      </trkpt>
      <trkpt lat="45.77366" lon="4.73265">
        <ele>275.50153</ele>
        <time>2023-07-07T14:54:45.000Z</time>
      </trkpt>
      <trkpt lat="45.77363" lon="4.73266">
        <ele>275.46069</ele>
        <time>2023-07-07T14:54:46.000Z</time>
      </trkpt>
      <trkpt lat="45.77359" lon="4.73267">
        <ele>275.44681</ele>
        <time>2023-07-07T14:54:47.000Z</time>
      </trkpt>
      <trkpt lat="45.77355" lon="4.73267">
        <ele>275.48642</ele>
        <time>2023-07-07T14:54:48.000Z</time>
      </trkpt>
      <trkpt lat="45.77353" lon="4.73265">
        <ele>275.61343</ele>
        <time>2023-07-07T14:54:49.000Z</time>
      </trkpt>
      <trkpt lat="45.77351" lon="4.7326">
        <ele>275.69534</ele>
        <time>2023-07-07T14:54:50.000Z</time>
      </trkpt>
      <trkpt lat="45.77353" lon="4.73256">
        <ele>275.79315</ele>
        <time>2023-07-07T14:54:51.000Z</time>
      </trkpt>
      <trkpt lat="45.77355" lon="4.73252">
        <ele>276.05591</ele>
        <time>2023-07-07T14:54:52.000Z</time>
      </trkpt>
      <trkpt lat="45.77358" lon="4.73249">
        <ele>276.50079</ele>
        <time>2023-07-07T14:54:53.000Z</time>
      </trkpt>
      <trkpt lat="45.77361" lon="4.73246">
        <ele>277.03839</ele>
        <time>2023-07-07T14:54:54.000Z</time>
      </trkpt>
      <trkpt lat="45.77364" lon="4.73243">
        <ele>277.04446</ele>
        <time>2023-07-07T14:54:55.000Z</time>
      </trkpt>
      <trkpt lat="45.77368" lon="4.7324">
        <ele>277.07901</ele>
        <time>2023-07-07T14:54:56.000Z</time>
      </trkpt>
      <trkpt lat="45.77371" lon="4.73236">
        <ele>277.18134</ele>
        <time>2023-07-07T14:54:57.000Z</time>
      </trkpt>
      <trkpt lat="45.77373" lon="4.73232">
        <ele>277.28693</ele>
        <time>2023-07-07T14:54:58.000Z</time>
      </trkpt>
      <trkpt lat="45.77376" lon="4.73228">
        <ele>277.40408</ele>
        <time>2023-07-07T14:54:59.000Z</time>
      </trkpt>
      <trkpt lat="45.77378" lon="4.73224">
        <ele>277.50275</ele>
        <time>2023-07-07T14:55:00.000Z</time>
      </trkpt>
      <trkpt lat="45.77381" lon="4.7322">
        <ele>277.61215</ele>
        <time>2023-07-07T14:55:01.000Z</time>
      </trkpt>
      <trkpt lat="45.77383" lon="4.73215">
        <ele>277.69574</ele>
        <time>2023-07-07T14:55:02.000Z</time>
      </trkpt>
      <trkpt lat="45.77386" lon="4.73211">
        <ele>277.78436</ele>
        <time>2023-07-07T14:55:03.000Z</time>
      </trkpt>
      <trkpt lat="45.77388" lon="4.73206">
        <ele>277.875</ele>
        <time>2023-07-07T14:55:04.000Z</time>
      </trkpt>
      <trkpt lat="45.7739" lon="4.73202">
        <ele>277.96014</ele>
        <time>2023-07-07T14:55:05.000Z</time>
      </trkpt>
      <trkpt lat="45.77393" lon="4.73197">
        <ele>278.01709</ele>
        <time>2023-07-07T14:55:06.000Z</time>
      </trkpt>
      <trkpt lat="45.77395" lon="4.73193">
        <ele>278.10019</ele>
        <time>2023-07-07T14:55:07.000Z</time>
      </trkpt>
      <trkpt lat="45.77397" lon="4.73188">
        <ele>278.16785</ele>
        <time>2023-07-07T14:55:08.000Z</time>
      </trkpt>
      <trkpt lat="45.77399" lon="4.73183">
        <ele>278.23163</ele>
        <time>2023-07-07T14:55:09.000Z</time>
      </trkpt>
      <trkpt lat="45.77401" lon="4.73178">
        <ele>278.29559</ele>
        <time>2023-07-07T14:55:10.000Z</time>
      </trkpt>
      <trkpt lat="45.77404" lon="4.73173">
        <ele>278.36749</ele>
        <time>2023-07-07T14:55:11.000Z</time>
      </trkpt>
      <trkpt lat="45.77407" lon="4.73169">
        <ele>278.17413</ele>
        <time>2023-07-07T14:55:12.000Z</time>
      </trkpt>
      <trkpt lat="45.77409" lon="4.73164">
        <ele>277.88986</ele>
        <time>2023-07-07T14:55:13.000Z</time>
      </trkpt>
      <trkpt lat="45.77411" lon="4.73158">
        <ele>277.56107</ele>
        <time>2023-07-07T14:55:14.000Z</time>
      </trkpt>
      <trkpt lat="45.77413" lon="4.73152">
        <ele>277.70328</ele>
        <time>2023-07-07T14:55:15.000Z</time>
      </trkpt>
      <trkpt lat="45.77415" lon="4.73146">
        <ele>277.8031</ele>
        <time>2023-07-07T14:55:16.000Z</time>
      </trkpt>
      <trkpt lat="45.77418" lon="4.7314">
        <ele>277.89288</ele>
        <time>2023-07-07T14:55:17.000Z</time>
      </trkpt>
      <trkpt lat="45.7742" lon="4.73135">
        <ele>277.92133</ele>
        <time>2023-07-07T14:55:18.000Z</time>
      </trkpt>
      <trkpt lat="45.77423" lon="4.73128">
        <ele>277.96411</ele>
        <time>2023-07-07T14:55:19.000Z</time>
      </trkpt>
      <trkpt lat="45.77426" lon="4.73122">
        <ele>278.00946</ele>
        <time>2023-07-07T14:55:20.000Z</time>
      </trkpt>
      <trkpt lat="45.77429" lon="4.73116">
        <ele>278.03873</ele>
        <time>2023-07-07T14:55:21.000Z</time>
      </trkpt>
      <trkpt lat="45.77431" lon="4.7311">
        <ele>278.07224</ele>
        <time>2023-07-07T14:55:22.000Z</time>
      </trkpt>
      <trkpt lat="45.77433" lon="4.73105">
        <ele>278.11255</ele>
        <time>2023-07-07T14:55:23.000Z</time>
      </trkpt>
      <trkpt lat="45.77435" lon="4.73099">
        <ele>278.15314</ele>
        <time>2023-07-07T14:55:24.000Z</time>
      </trkpt>
      <trkpt lat="45.77437" lon="4.73093">
        <ele>278.18826</ele>
        <time>2023-07-07T14:55:25.000Z</time>
      </trkpt>
      <trkpt lat="45.77439" lon="4.73088">
        <ele>278.21161</ele>
        <time>2023-07-07T14:55:26.000Z</time>
      </trkpt>
      <trkpt lat="45.77441" lon="4.73083">
        <ele>278.39777</ele>
        <time>2023-07-07T14:55:27.000Z</time>
      </trkpt>
      <trkpt lat="45.77442" lon="4.73078">
        <ele>278.58423</ele>
        <time>2023-07-07T14:55:28.000Z</time>
      </trkpt>
      <trkpt lat="45.77445" lon="4.73073">
        <ele>278.91522</ele>
        <time>2023-07-07T14:55:29.000Z</time>
      </trkpt>
      <trkpt lat="45.77447" lon="4.73067">
        <ele>279.25873</ele>
        <time>2023-07-07T14:55:30.000Z</time>
      </trkpt>
      <trkpt lat="45.77449" lon="4.7306">
        <ele>279.19901</ele>
        <time>2023-07-07T14:55:31.000Z</time>
      </trkpt>
      <trkpt lat="45.7745" lon="4.73054">
        <ele>279.19907</ele>
        <time>2023-07-07T14:55:32.000Z</time>
      </trkpt>
      <trkpt lat="45.77451" lon="4.73049">
        <ele>279.19037</ele>
        <time>2023-07-07T14:55:33.000Z</time>
      </trkpt>
      <trkpt lat="45.77452" lon="4.73044">
        <ele>279.19388</ele>
        <time>2023-07-07T14:55:34.000Z</time>
      </trkpt>
      <trkpt lat="45.77454" lon="4.73038">
        <ele>279.21988</ele>
        <time>2023-07-07T14:55:35.000Z</time>
      </trkpt>
      <trkpt lat="45.77455" lon="4.73033">
        <ele>279.24698</ele>
        <time>2023-07-07T14:55:36.000Z</time>
      </trkpt>
      <trkpt lat="45.77456" lon="4.73028">
        <ele>279.30762</ele>
        <time>2023-07-07T14:55:37.000Z</time>
      </trkpt>
      <trkpt lat="45.77457" lon="4.73024">
        <ele>279.44775</ele>
        <time>2023-07-07T14:55:38.000Z</time>
      </trkpt>
      <trkpt lat="45.77459" lon="4.73019">
        <ele>279.6232</ele>
        <time>2023-07-07T14:55:39.000Z</time>
      </trkpt>
      <trkpt lat="45.7746" lon="4.73013">
        <ele>279.87076</ele>
        <time>2023-07-07T14:55:40.000Z</time>
      </trkpt>
      <trkpt lat="45.77461" lon="4.73009">
        <ele>280.12561</ele>
        <time>2023-07-07T14:55:41.000Z</time>
      </trkpt>
      <trkpt lat="45.77461" lon="4.73004">
        <ele>280.46283</ele>
        <time>2023-07-07T14:55:42.000Z</time>
      </trkpt>
      <trkpt lat="45.77461" lon="4.73">
        <ele>280.76599</ele>
        <time>2023-07-07T14:55:43.000Z</time>
      </trkpt>
      <trkpt lat="45.77461" lon="4.72995">
        <ele>281.05948</ele>
        <time>2023-07-07T14:55:44.000Z</time>
      </trkpt>
      <trkpt lat="45.77461" lon="4.72991">
        <ele>281.4007</ele>
        <time>2023-07-07T14:55:45.000Z</time>
      </trkpt>
      <trkpt lat="45.7746" lon="4.72986">
        <ele>281.76422</ele>
        <time>2023-07-07T14:55:46.000Z</time>
      </trkpt>
      <trkpt lat="45.7746" lon="4.7298">
        <ele>282.1463</ele>
        <time>2023-07-07T14:55:47.000Z</time>
      </trkpt>
      <trkpt lat="45.7746" lon="4.72975">
        <ele>282.7027</ele>
        <time>2023-07-07T14:55:48.000Z</time>
      </trkpt>
      <trkpt lat="45.7746" lon="4.7297">
        <ele>283.28745</ele>
        <time>2023-07-07T14:55:49.000Z</time>
      </trkpt>
      <trkpt lat="45.7746" lon="4.72965">
        <ele>283.36823</ele>
        <time>2023-07-07T14:55:50.000Z</time>
      </trkpt>
      <trkpt lat="45.77459" lon="4.7296">
        <ele>283.97748</ele>
        <time>2023-07-07T14:55:51.000Z</time>
      </trkpt>
      <trkpt lat="45.77458" lon="4.72955">
        <ele>284.52609</ele>
        <time>2023-07-07T14:55:52.000Z</time>
      </trkpt>
      <trkpt lat="45.77456" lon="4.7295">
        <ele>285.03937</ele>
        <time>2023-07-07T14:55:53.000Z</time>
      </trkpt>
      <trkpt lat="45.77454" lon="4.72945">
        <ele>285.50922</ele>
        <time>2023-07-07T14:55:54.000Z</time>
      </trkpt>
      <trkpt lat="45.77451" lon="4.72941">
        <ele>285.95444</ele>
        <time>2023-07-07T14:55:55.000Z</time>
      </trkpt>
      <trkpt lat="45.77449" lon="4.72937">
        <ele>286.43942</ele>
        <time>2023-07-07T14:55:56.000Z</time>
      </trkpt>
      <trkpt lat="45.77447" lon="4.72932">
        <ele>286.92758</ele>
        <time>2023-07-07T14:55:57.000Z</time>
      </trkpt>
      <trkpt lat="45.77446" lon="4.72927">
        <ele>287.3526</ele>
        <time>2023-07-07T14:55:58.000Z</time>
      </trkpt>
      <trkpt lat="45.77444" lon="4.72922">
        <ele>287.7818</ele>
        <time>2023-07-07T14:55:59.000Z</time>
      </trkpt>
      <trkpt lat="45.77443" lon="4.72917">
        <ele>287.92664</ele>
        <time>2023-07-07T14:56:00.000Z</time>
      </trkpt>
      <trkpt lat="45.77442" lon="4.72912">
        <ele>288.32935</ele>
        <time>2023-07-07T14:56:01.000Z</time>
      </trkpt>
      <trkpt lat="45.77442" lon="4.72906">
        <ele>288.5853</ele>
        <time>2023-07-07T14:56:02.000Z</time>
      </trkpt>
      <trkpt lat="45.77442" lon="4.72902">
        <ele>288.89279</ele>
        <time>2023-07-07T14:56:03.000Z</time>
      </trkpt>
      <trkpt lat="45.77443" lon="4.72897">
        <ele>289.198</ele>
        <time>2023-07-07T14:56:04.000Z</time>
      </trkpt>
      <trkpt lat="45.77443" lon="4.72891">
        <ele>289.51544</ele>
        <time>2023-07-07T14:56:05.000Z</time>
      </trkpt>
      <trkpt lat="45.77443" lon="4.72886">
        <ele>289.8685</ele>
        <time>2023-07-07T14:56:06.000Z</time>
      </trkpt>
      <trkpt lat="45.77442" lon="4.72878">
        <ele>290.00098</ele>
        <time>2023-07-07T14:56:07.000Z</time>
      </trkpt>
      <trkpt lat="45.77442" lon="4.72871">
        <ele>289.90884</ele>
        <time>2023-07-07T14:56:08.000Z</time>
      </trkpt>
      <trkpt lat="45.77441" lon="4.72865">
        <ele>289.63165</ele>
        <time>2023-07-07T14:56:09.000Z</time>
      </trkpt>
      <trkpt lat="45.7744" lon="4.72858">
        <ele>289.81158</ele>
        <time>2023-07-07T14:56:10.000Z</time>
      </trkpt>
      <trkpt lat="45.77439" lon="4.72852">
        <ele>289.86307</ele>
        <time>2023-07-07T14:56:11.000Z</time>
      </trkpt>
      <trkpt lat="45.77439" lon="4.72845">
        <ele>289.86469</ele>
        <time>2023-07-07T14:56:12.000Z</time>
      </trkpt>
      <trkpt lat="45.7744" lon="4.7284">
        <ele>289.8526</ele>
        <time>2023-07-07T14:56:13.000Z</time>
      </trkpt>
      <trkpt lat="45.77441" lon="4.72833">
        <ele>289.8642</ele>
        <time>2023-07-07T14:56:14.000Z</time>
      </trkpt>
      <trkpt lat="45.77443" lon="4.72828">
        <ele>289.88583</ele>
        <time>2023-07-07T14:56:15.000Z</time>
      </trkpt>
      <trkpt lat="45.77445" lon="4.72823">
        <ele>289.94156</ele>
        <time>2023-07-07T14:56:16.000Z</time>
      </trkpt>
      <trkpt lat="45.77447" lon="4.72816">
        <ele>289.65646</ele>
        <time>2023-07-07T14:56:17.000Z</time>
      </trkpt>
      <trkpt lat="45.7745" lon="4.72811">
        <ele>289.58124</ele>
        <time>2023-07-07T14:56:18.000Z</time>
      </trkpt>
      <trkpt lat="45.77451" lon="4.72806">
        <ele>289.59293</ele>
        <time>2023-07-07T14:56:19.000Z</time>
      </trkpt>
      <trkpt lat="45.77454" lon="4.72802">
        <ele>289.84949</ele>
        <time>2023-07-07T14:56:20.000Z</time>
      </trkpt>
      <trkpt lat="45.77456" lon="4.72798">
        <ele>289.93881</ele>
        <time>2023-07-07T14:56:21.000Z</time>
      </trkpt>
      <trkpt lat="45.77458" lon="4.72794">
        <ele>290.13812</ele>
        <time>2023-07-07T14:56:22.000Z</time>
      </trkpt>
      <trkpt lat="45.7746" lon="4.7279">
        <ele>290.3598</ele>
        <time>2023-07-07T14:56:23.000Z</time>
      </trkpt>
      <trkpt lat="45.77463" lon="4.72785">
        <ele>290.5253</ele>
        <time>2023-07-07T14:56:24.000Z</time>
      </trkpt>
      <trkpt lat="45.77465" lon="4.72781">
        <ele>290.62268</ele>
        <time>2023-07-07T14:56:25.000Z</time>
      </trkpt>
      <trkpt lat="45.77468" lon="4.72777">
        <ele>290.72583</ele>
        <time>2023-07-07T14:56:26.000Z</time>
      </trkpt>
      <trkpt lat="45.7747" lon="4.72772">
        <ele>290.90485</ele>
        <time>2023-07-07T14:56:27.000Z</time>
      </trkpt>
      <trkpt lat="45.77472" lon="4.72766">
        <ele>291.0871</ele>
        <time>2023-07-07T14:56:28.000Z</time>
      </trkpt>
      <trkpt lat="45.77474" lon="4.72761">
        <ele>291.28485</ele>
        <time>2023-07-07T14:56:29.000Z</time>
      </trkpt>
      <trkpt lat="45.77475" lon="4.72756">
        <ele>291.44177</ele>
        <time>2023-07-07T14:56:30.000Z</time>
      </trkpt>
      <trkpt lat="45.77477" lon="4.72751">
        <ele>291.54266</ele>
        <time>2023-07-07T14:56:31.000Z</time>
      </trkpt>
      <trkpt lat="45.77479" lon="4.72746">
        <ele>291.71002</ele>
        <time>2023-07-07T14:56:32.000Z</time>
      </trkpt>
      <trkpt lat="45.77482" lon="4.7274">
        <ele>292.15228</ele>
        <time>2023-07-07T14:56:33.000Z</time>
      </trkpt>
      <trkpt lat="45.77484" lon="4.72735">
        <ele>292.74219</ele>
        <time>2023-07-07T14:56:34.000Z</time>
      </trkpt>
      <trkpt lat="45.77486" lon="4.72731">
        <ele>293.31604</ele>
        <time>2023-07-07T14:56:35.000Z</time>
      </trkpt>
      <trkpt lat="45.77486" lon="4.72725">
        <ele>293.47931</ele>
        <time>2023-07-07T14:56:36.000Z</time>
      </trkpt>
      <trkpt lat="45.77487" lon="4.7272">
        <ele>293.99939</ele>
        <time>2023-07-07T14:56:37.000Z</time>
      </trkpt>
      <trkpt lat="45.77488" lon="4.72715">
        <ele>294.34445</ele>
        <time>2023-07-07T14:56:38.000Z</time>
      </trkpt>
      <trkpt lat="45.7749" lon="4.7271">
        <ele>294.561</ele>
        <time>2023-07-07T14:56:39.000Z</time>
      </trkpt>
      <trkpt lat="45.77492" lon="4.72705">
        <ele>294.65402</ele>
        <time>2023-07-07T14:56:40.000Z</time>
      </trkpt>
      <trkpt lat="45.77495" lon="4.727">
        <ele>294.6048</ele>
        <time>2023-07-07T14:56:41.000Z</time>
      </trkpt>
      <trkpt lat="45.77498" lon="4.72696">
        <ele>294.5863</ele>
        <time>2023-07-07T14:56:42.000Z</time>
      </trkpt>
      <trkpt lat="45.77501" lon="4.72691">
        <ele>294.45657</ele>
        <time>2023-07-07T14:56:43.000Z</time>
      </trkpt>
      <trkpt lat="45.77504" lon="4.72687">
        <ele>294.33646</ele>
        <time>2023-07-07T14:56:44.000Z</time>
      </trkpt>
      <trkpt lat="45.77507" lon="4.72682">
        <ele>294.41147</ele>
        <time>2023-07-07T14:56:45.000Z</time>
      </trkpt>
      <trkpt lat="45.77509" lon="4.72677">
        <ele>294.38846</ele>
        <time>2023-07-07T14:56:46.000Z</time>
      </trkpt>
      <trkpt lat="45.77512" lon="4.72673">
        <ele>294.34244</ele>
        <time>2023-07-07T14:56:47.000Z</time>
      </trkpt>
      <trkpt lat="45.77514" lon="4.72668">
        <ele>294.37378</ele>
        <time>2023-07-07T14:56:48.000Z</time>
      </trkpt>
      <trkpt lat="45.77516" lon="4.72663">
        <ele>294.51648</ele>
        <time>2023-07-07T14:56:49.000Z</time>
      </trkpt>
      <trkpt lat="45.77519" lon="4.72658">
        <ele>294.82327</ele>
        <time>2023-07-07T14:56:50.000Z</time>
      </trkpt>
      <trkpt lat="45.77521" lon="4.72653">
        <ele>295.2048</ele>
        <time>2023-07-07T14:56:51.000Z</time>
      </trkpt>
      <trkpt lat="45.77523" lon="4.72648">
        <ele>295.58319</ele>
        <time>2023-07-07T14:56:52.000Z</time>
      </trkpt>
      <trkpt lat="45.77525" lon="4.72643">
        <ele>295.80054</ele>
        <time>2023-07-07T14:56:53.000Z</time>
      </trkpt>
      <trkpt lat="45.77528" lon="4.72637">
        <ele>295.80939</ele>
        <time>2023-07-07T14:56:54.000Z</time>
      </trkpt>
      <trkpt lat="45.7753" lon="4.72632">
        <ele>295.31766</ele>
        <time>2023-07-07T14:56:55.000Z</time>
      </trkpt>
      <trkpt lat="45.77532" lon="4.72626">
        <ele>294.84753</ele>
        <time>2023-07-07T14:56:56.000Z</time>
      </trkpt>
      <trkpt lat="45.77532" lon="4.72614">
        <ele>294.26785</ele>
        <time>2023-07-07T14:56:57.000Z</time>
      </trkpt>
      <trkpt lat="45.77532" lon="4.72606">
        <ele>293.45996</ele>
        <time>2023-07-07T14:56:58.000Z</time>
      </trkpt>
      <trkpt lat="45.77531" lon="4.72601">
        <ele>292.53607</ele>
        <time>2023-07-07T14:56:59.000Z</time>
      </trkpt>
      <trkpt lat="45.77531" lon="4.72597">
        <ele>291.45023</ele>
        <time>2023-07-07T14:57:00.000Z</time>
      </trkpt>
      <trkpt lat="45.77528" lon="4.72592">
        <ele>290.44165</ele>
        <time>2023-07-07T14:57:01.000Z</time>
      </trkpt>
      <trkpt lat="45.77526" lon="4.72587">
        <ele>289.42688</ele>
        <time>2023-07-07T14:57:02.000Z</time>
      </trkpt>
      <trkpt lat="45.77525" lon="4.7258">
        <ele>288.46854</ele>
        <time>2023-07-07T14:57:03.000Z</time>
      </trkpt>
      <trkpt lat="45.77522" lon="4.72574">
        <ele>287.56033</ele>
        <time>2023-07-07T14:57:04.000Z</time>
      </trkpt>
      <trkpt lat="45.77522" lon="4.72569">
        <ele>286.46655</ele>
        <time>2023-07-07T14:57:05.000Z</time>
      </trkpt>
      <trkpt lat="45.7752" lon="4.72564">
        <ele>285.46649</ele>
        <time>2023-07-07T14:57:06.000Z</time>
      </trkpt>
      <trkpt lat="45.7752" lon="4.72557">
        <ele>284.4151</ele>
        <time>2023-07-07T14:57:07.000Z</time>
      </trkpt>
      <trkpt lat="45.77519" lon="4.72551">
        <ele>283.32547</ele>
        <time>2023-07-07T14:57:08.000Z</time>
      </trkpt>
      <trkpt lat="45.7752" lon="4.72547">
        <ele>282.12405</ele>
        <time>2023-07-07T14:57:09.000Z</time>
      </trkpt>
      <trkpt lat="45.77523" lon="4.72542">
        <ele>280.83643</ele>
        <time>2023-07-07T14:57:10.000Z</time>
      </trkpt>
      <trkpt lat="45.77524" lon="4.72539">
        <ele>279.58832</ele>
        <time>2023-07-07T14:57:11.000Z</time>
      </trkpt>
      <trkpt lat="45.77527" lon="4.72535">
        <ele>278.25018</ele>
        <time>2023-07-07T14:57:12.000Z</time>
      </trkpt>
      <trkpt lat="45.7753" lon="4.72531">
        <ele>276.86047</ele>
        <time>2023-07-07T14:57:13.000Z</time>
      </trkpt>
      <trkpt lat="45.77533" lon="4.72528">
        <ele>275.56152</ele>
        <time>2023-07-07T14:57:14.000Z</time>
      </trkpt>
      <trkpt lat="45.77537" lon="4.72524">
        <ele>274.78329</ele>
        <time>2023-07-07T14:57:15.000Z</time>
      </trkpt>
      <trkpt lat="45.7754" lon="4.72522">
        <ele>274.30896</ele>
        <time>2023-07-07T14:57:16.000Z</time>
      </trkpt>
      <trkpt lat="45.77547" lon="4.72517">
        <ele>273.89362</ele>
        <time>2023-07-07T14:57:17.000Z</time>
      </trkpt>
      <trkpt lat="45.7755" lon="4.72513">
        <ele>273.70679</ele>
        <time>2023-07-07T14:57:18.000Z</time>
      </trkpt>
      <trkpt lat="45.77552" lon="4.72508">
        <ele>273.64642</ele>
        <time>2023-07-07T14:57:19.000Z</time>
      </trkpt>
      <trkpt lat="45.77556" lon="4.72503">
        <ele>274.80185</ele>
        <time>2023-07-07T14:57:20.000Z</time>
      </trkpt>
      <trkpt lat="45.7756" lon="4.72498">
        <ele>275.92133</ele>
        <time>2023-07-07T14:57:21.000Z</time>
      </trkpt>
      <trkpt lat="45.77561" lon="4.72494">
        <ele>276.99979</ele>
        <time>2023-07-07T14:57:22.000Z</time>
      </trkpt>
      <trkpt lat="45.77565" lon="4.72487">
        <ele>278.09</ele>
        <time>2023-07-07T14:57:23.000Z</time>
      </trkpt>
      <trkpt lat="45.77565" lon="4.72482">
        <ele>279.22412</ele>
        <time>2023-07-07T14:57:24.000Z</time>
      </trkpt>
      <trkpt lat="45.77566" lon="4.72476">
        <ele>280.31964</ele>
        <time>2023-07-07T14:57:25.000Z</time>
      </trkpt>
      <trkpt lat="45.77568" lon="4.72471">
        <ele>281.32437</ele>
        <time>2023-07-07T14:57:26.000Z</time>
      </trkpt>
      <trkpt lat="45.77569" lon="4.72465">
        <ele>282.37604</ele>
        <time>2023-07-07T14:57:27.000Z</time>
      </trkpt>
      <trkpt lat="45.7757" lon="4.7246">
        <ele>283.48444</ele>
        <time>2023-07-07T14:57:28.000Z</time>
      </trkpt>
      <trkpt lat="45.77571" lon="4.72454">
        <ele>284.56403</ele>
        <time>2023-07-07T14:57:29.000Z</time>
      </trkpt>
      <trkpt lat="45.77572" lon="4.72448">
        <ele>285.5867</ele>
        <time>2023-07-07T14:57:30.000Z</time>
      </trkpt>
      <trkpt lat="45.77572" lon="4.72443">
        <ele>286.57016</ele>
        <time>2023-07-07T14:57:31.000Z</time>
      </trkpt>
      <trkpt lat="45.77573" lon="4.72436">
        <ele>287.60065</ele>
        <time>2023-07-07T14:57:32.000Z</time>
      </trkpt>
      <trkpt lat="45.77575" lon="4.7243">
        <ele>288.58173</ele>
        <time>2023-07-07T14:57:33.000Z</time>
      </trkpt>
      <trkpt lat="45.77576" lon="4.72424">
        <ele>289.53455</ele>
        <time>2023-07-07T14:57:34.000Z</time>
      </trkpt>
      <trkpt lat="45.77578" lon="4.72417">
        <ele>290.51093</ele>
        <time>2023-07-07T14:57:35.000Z</time>
      </trkpt>
      <trkpt lat="45.77579" lon="4.7241">
        <ele>291.44516</ele>
        <time>2023-07-07T14:57:36.000Z</time>
      </trkpt>
      <trkpt lat="45.7758" lon="4.72404">
        <ele>292.39215</ele>
        <time>2023-07-07T14:57:37.000Z</time>
      </trkpt>
      <trkpt lat="45.7758" lon="4.72398">
        <ele>293.32379</ele>
        <time>2023-07-07T14:57:38.000Z</time>
      </trkpt>
      <trkpt lat="45.77582" lon="4.72391">
        <ele>294.11383</ele>
        <time>2023-07-07T14:57:39.000Z</time>
      </trkpt>
      <trkpt lat="45.77584" lon="4.72385">
        <ele>293.9747</ele>
        <time>2023-07-07T14:57:40.000Z</time>
      </trkpt>
      <trkpt lat="45.77584" lon="4.72377">
        <ele>293.45227</ele>
        <time>2023-07-07T14:57:41.000Z</time>
      </trkpt>
      <trkpt lat="45.77583" lon="4.72369">
        <ele>292.93036</ele>
        <time>2023-07-07T14:57:42.000Z</time>
      </trkpt>
      <trkpt lat="45.77581" lon="4.72363">
        <ele>292.40057</ele>
        <time>2023-07-07T14:57:43.000Z</time>
      </trkpt>
      <trkpt lat="45.7758" lon="4.72356">
        <ele>291.86157</ele>
        <time>2023-07-07T14:57:44.000Z</time>
      </trkpt>
      <trkpt lat="45.77577" lon="4.72351">
        <ele>291.35324</ele>
        <time>2023-07-07T14:57:45.000Z</time>
      </trkpt>
      <trkpt lat="45.77576" lon="4.72344">
        <ele>290.84381</ele>
        <time>2023-07-07T14:57:46.000Z</time>
      </trkpt>
      <trkpt lat="45.77574" lon="4.72338">
        <ele>290.31241</ele>
        <time>2023-07-07T14:57:47.000Z</time>
      </trkpt>
      <trkpt lat="45.77572" lon="4.72332">
        <ele>289.74457</ele>
        <time>2023-07-07T14:57:48.000Z</time>
      </trkpt>
      <trkpt lat="45.77571" lon="4.72326">
        <ele>289.21796</ele>
        <time>2023-07-07T14:57:49.000Z</time>
      </trkpt>
      <trkpt lat="45.77571" lon="4.72318">
        <ele>288.73053</ele>
        <time>2023-07-07T14:57:50.000Z</time>
      </trkpt>
      <trkpt lat="45.77569" lon="4.7231">
        <ele>288.23111</ele>
        <time>2023-07-07T14:57:51.000Z</time>
      </trkpt>
      <trkpt lat="45.77569" lon="4.72304">
        <ele>287.75287</ele>
        <time>2023-07-07T14:57:52.000Z</time>
      </trkpt>
      <trkpt lat="45.77567" lon="4.72297">
        <ele>287.36884</ele>
        <time>2023-07-07T14:57:53.000Z</time>
      </trkpt>
      <trkpt lat="45.77568" lon="4.7229">
        <ele>286.98065</ele>
        <time>2023-07-07T14:57:54.000Z</time>
      </trkpt>
      <trkpt lat="45.7757" lon="4.72281">
        <ele>286.60907</ele>
        <time>2023-07-07T14:57:55.000Z</time>
      </trkpt>
      <trkpt lat="45.77572" lon="4.72273">
        <ele>286.23663</ele>
        <time>2023-07-07T14:57:56.000Z</time>
      </trkpt>
      <trkpt lat="45.77576" lon="4.72266">
        <ele>285.79596</ele>
        <time>2023-07-07T14:57:57.000Z</time>
      </trkpt>
      <trkpt lat="45.77576" lon="4.72256">
        <ele>285.36734</ele>
        <time>2023-07-07T14:57:58.000Z</time>
      </trkpt>
      <trkpt lat="45.77576" lon="4.7225">
        <ele>285.05328</ele>
        <time>2023-07-07T14:57:59.000Z</time>
      </trkpt>
      <trkpt lat="45.77578" lon="4.72244">
        <ele>284.68976</ele>
        <time>2023-07-07T14:58:00.000Z</time>
      </trkpt>
      <trkpt lat="45.77578" lon="4.7224">
        <ele>284.71817</ele>
        <time>2023-07-07T14:58:01.000Z</time>
      </trkpt>
      <trkpt lat="45.77579" lon="4.72234">
        <ele>284.70804</ele>
        <time>2023-07-07T14:58:02.000Z</time>
      </trkpt>
      <trkpt lat="45.77579" lon="4.72228">
        <ele>284.69031</ele>
        <time>2023-07-07T14:58:03.000Z</time>
      </trkpt>
      <trkpt lat="45.77581" lon="4.72222">
        <ele>284.61865</ele>
        <time>2023-07-07T14:58:04.000Z</time>
      </trkpt>
      <trkpt lat="45.77582" lon="4.72217">
        <ele>284.54599</ele>
        <time>2023-07-07T14:58:05.000Z</time>
      </trkpt>
      <trkpt lat="45.77582" lon="4.72212">
        <ele>284.48306</ele>
        <time>2023-07-07T14:58:06.000Z</time>
      </trkpt>
      <trkpt lat="45.77581" lon="4.72207">
        <ele>284.46619</ele>
        <time>2023-07-07T14:58:07.000Z</time>
      </trkpt>
      <trkpt lat="45.77581" lon="4.72203">
        <ele>284.4567</ele>
        <time>2023-07-07T14:58:08.000Z</time>
      </trkpt>
      <trkpt lat="45.77581" lon="4.72199">
        <ele>284.47214</ele>
        <time>2023-07-07T14:58:09.000Z</time>
      </trkpt>
      <trkpt lat="45.77579" lon="4.72193">
        <ele>284.50824</ele>
        <time>2023-07-07T14:58:10.000Z</time>
      </trkpt>
      <trkpt lat="45.77578" lon="4.72187">
        <ele>284.41772</ele>
        <time>2023-07-07T14:58:11.000Z</time>
      </trkpt>
      <trkpt lat="45.77577" lon="4.72181">
        <ele>284.32211</ele>
        <time>2023-07-07T14:58:12.000Z</time>
      </trkpt>
      <trkpt lat="45.77575" lon="4.72176">
        <ele>284.14017</ele>
        <time>2023-07-07T14:58:13.000Z</time>
      </trkpt>
      <trkpt lat="45.77574" lon="4.7217">
        <ele>283.97028</ele>
        <time>2023-07-07T14:58:14.000Z</time>
      </trkpt>
      <trkpt lat="45.77573" lon="4.72164">
        <ele>283.75854</ele>
        <time>2023-07-07T14:58:15.000Z</time>
      </trkpt>
      <trkpt lat="45.77571" lon="4.72156">
        <ele>283.60733</ele>
        <time>2023-07-07T14:58:16.000Z</time>
      </trkpt>
      <trkpt lat="45.77569" lon="4.72151">
        <ele>283.5412</ele>
        <time>2023-07-07T14:58:17.000Z</time>
      </trkpt>
      <trkpt lat="45.77567" lon="4.72147">
        <ele>283.50104</ele>
        <time>2023-07-07T14:58:18.000Z</time>
      </trkpt>
      <trkpt lat="45.77564" lon="4.72143">
        <ele>283.4805</ele>
        <time>2023-07-07T14:58:19.000Z</time>
      </trkpt>
      <trkpt lat="45.77562" lon="4.7214">
        <ele>283.4848</ele>
        <time>2023-07-07T14:58:20.000Z</time>
      </trkpt>
      <trkpt lat="45.77559" lon="4.72134">
        <ele>283.46356</ele>
        <time>2023-07-07T14:58:21.000Z</time>
      </trkpt>
      <trkpt lat="45.77556" lon="4.72129">
        <ele>283.40512</ele>
        <time>2023-07-07T14:58:22.000Z</time>
      </trkpt>
      <trkpt lat="45.77553" lon="4.72124">
        <ele>283.36139</ele>
        <time>2023-07-07T14:58:23.000Z</time>
      </trkpt>
      <trkpt lat="45.77549" lon="4.7212">
        <ele>283.33765</ele>
        <time>2023-07-07T14:58:24.000Z</time>
      </trkpt>
      <trkpt lat="45.77547" lon="4.72115">
        <ele>283.29773</ele>
        <time>2023-07-07T14:58:25.000Z</time>
      </trkpt>
      <trkpt lat="45.77543" lon="4.7211">
        <ele>283.32315</ele>
        <time>2023-07-07T14:58:26.000Z</time>
      </trkpt>
      <trkpt lat="45.77541" lon="4.72108">
        <ele>283.34644</ele>
        <time>2023-07-07T14:58:27.000Z</time>
      </trkpt>
      <trkpt lat="45.77536" lon="4.72106">
        <ele>283.35132</ele>
        <time>2023-07-07T14:58:28.000Z</time>
      </trkpt>
      <trkpt lat="45.77534" lon="4.72108">
        <ele>283.29703</ele>
        <time>2023-07-07T14:58:30.000Z</time>
      </trkpt>
      <trkpt lat="45.77532" lon="4.72106">
        <ele>283.35663</ele>
        <time>2023-07-07T14:58:31.000Z</time>
      </trkpt>
      <trkpt lat="45.7753" lon="4.72104">
        <ele>283.42374</ele>
        <time>2023-07-07T14:58:32.000Z</time>
      </trkpt>
      <trkpt lat="45.77529" lon="4.721">
        <ele>283.48935</ele>
        <time>2023-07-07T14:58:33.000Z</time>
      </trkpt>
      <trkpt lat="45.77525" lon="4.72098">
        <ele>283.58981</ele>
        <time>2023-07-07T14:58:34.000Z</time>
      </trkpt>
      <trkpt lat="45.77521" lon="4.72098">
        <ele>283.68182</ele>
        <time>2023-07-07T14:58:35.000Z</time>
      </trkpt>
      <trkpt lat="45.77518" lon="4.72096">
        <ele>283.82761</ele>
        <time>2023-07-07T14:58:36.000Z</time>
      </trkpt>
      <trkpt lat="45.77515" lon="4.72093">
        <ele>283.92813</ele>
        <time>2023-07-07T14:58:37.000Z</time>
      </trkpt>
      <trkpt lat="45.77511" lon="4.7209">
        <ele>283.96829</ele>
        <time>2023-07-07T14:58:38.000Z</time>
      </trkpt>
      <trkpt lat="45.77508" lon="4.72087">
        <ele>283.97891</ele>
        <time>2023-07-07T14:58:39.000Z</time>
      </trkpt>
      <trkpt lat="45.77505" lon="4.72084">
        <ele>283.94208</ele>
        <time>2023-07-07T14:58:40.000Z</time>
      </trkpt>
      <trkpt lat="45.77501" lon="4.72081">
        <ele>283.85553</ele>
        <time>2023-07-07T14:58:41.000Z</time>
      </trkpt>
      <trkpt lat="45.77498" lon="4.72075">
        <ele>283.78345</ele>
        <time>2023-07-07T14:58:42.000Z</time>
      </trkpt>
      <trkpt lat="45.77496" lon="4.72069">
        <ele>283.77411</ele>
        <time>2023-07-07T14:58:43.000Z</time>
      </trkpt>
      <trkpt lat="45.77495" lon="4.72063">
        <ele>283.76529</ele>
        <time>2023-07-07T14:58:44.000Z</time>
      </trkpt>
      <trkpt lat="45.77494" lon="4.72056">
        <ele>283.77112</ele>
        <time>2023-07-07T14:58:45.000Z</time>
      </trkpt>
      <trkpt lat="45.77493" lon="4.7205">
        <ele>283.78986</ele>
        <time>2023-07-07T14:58:46.000Z</time>
      </trkpt>
      <trkpt lat="45.77492" lon="4.72044">
        <ele>283.7923</ele>
        <time>2023-07-07T14:58:47.000Z</time>
      </trkpt>
      <trkpt lat="45.7749" lon="4.72038">
        <ele>283.73734</ele>
        <time>2023-07-07T14:58:48.000Z</time>
      </trkpt>
      <trkpt lat="45.77489" lon="4.72032">
        <ele>283.6723</ele>
        <time>2023-07-07T14:58:49.000Z</time>
      </trkpt>
      <trkpt lat="45.77488" lon="4.72026">
        <ele>283.6088</ele>
        <time>2023-07-07T14:58:50.000Z</time>
      </trkpt>
      <trkpt lat="45.77487" lon="4.7202">
        <ele>283.43732</ele>
        <time>2023-07-07T14:58:51.000Z</time>
      </trkpt>
      <trkpt lat="45.77486" lon="4.72013">
        <ele>283.42374</ele>
        <time>2023-07-07T14:58:52.000Z</time>
      </trkpt>
      <trkpt lat="45.77484" lon="4.72007">
        <ele>283.42072</ele>
        <time>2023-07-07T14:58:53.000Z</time>
      </trkpt>
      <trkpt lat="45.77482" lon="4.72001">
        <ele>283.43781</ele>
        <time>2023-07-07T14:58:54.000Z</time>
      </trkpt>
      <trkpt lat="45.77481" lon="4.71995">
        <ele>283.43253</ele>
        <time>2023-07-07T14:58:55.000Z</time>
      </trkpt>
      <trkpt lat="45.77479" lon="4.7199">
        <ele>283.36407</ele>
        <time>2023-07-07T14:58:56.000Z</time>
      </trkpt>
      <trkpt lat="45.77477" lon="4.71985">
        <ele>283.34644</ele>
        <time>2023-07-07T14:58:57.000Z</time>
      </trkpt>
      <trkpt lat="45.77475" lon="4.71981">
        <ele>283.40601</ele>
        <time>2023-07-07T14:58:58.000Z</time>
      </trkpt>
      <trkpt lat="45.77472" lon="4.71977">
        <ele>283.49203</ele>
        <time>2023-07-07T14:58:59.000Z</time>
      </trkpt>
      <trkpt lat="45.77469" lon="4.71973">
        <ele>283.66626</ele>
        <time>2023-07-07T14:59:00.000Z</time>
      </trkpt>
      <trkpt lat="45.77466" lon="4.7197">
        <ele>283.87259</ele>
        <time>2023-07-07T14:59:01.000Z</time>
      </trkpt>
      <trkpt lat="45.77464" lon="4.71966">
        <ele>284.08093</ele>
        <time>2023-07-07T14:59:02.000Z</time>
      </trkpt>
      <trkpt lat="45.77461" lon="4.71963">
        <ele>284.28159</ele>
        <time>2023-07-07T14:59:03.000Z</time>
      </trkpt>
      <trkpt lat="45.77458" lon="4.7196">
        <ele>284.46942</ele>
        <time>2023-07-07T14:59:04.000Z</time>
      </trkpt>
      <trkpt lat="45.77456" lon="4.71957">
        <ele>284.6474</ele>
        <time>2023-07-07T14:59:05.000Z</time>
      </trkpt>
      <trkpt lat="45.77453" lon="4.71954">
        <ele>284.80719</ele>
        <time>2023-07-07T14:59:06.000Z</time>
      </trkpt>
      <trkpt lat="45.7745" lon="4.7195">
        <ele>284.94946</ele>
        <time>2023-07-07T14:59:07.000Z</time>
      </trkpt>
      <trkpt lat="45.77448" lon="4.71946">
        <ele>285.06192</ele>
        <time>2023-07-07T14:59:08.000Z</time>
      </trkpt>
      <trkpt lat="45.77446" lon="4.71942">
        <ele>285.18732</ele>
        <time>2023-07-07T14:59:09.000Z</time>
      </trkpt>
      <trkpt lat="45.77443" lon="4.71937">
        <ele>285.32831</ele>
        <time>2023-07-07T14:59:10.000Z</time>
      </trkpt>
      <trkpt lat="45.77441" lon="4.71933">
        <ele>285.45728</ele>
        <time>2023-07-07T14:59:11.000Z</time>
      </trkpt>
      <trkpt lat="45.77439" lon="4.71928">
        <ele>285.54559</ele>
        <time>2023-07-07T14:59:12.000Z</time>
      </trkpt>
      <trkpt lat="45.77437" lon="4.71923">
        <ele>285.61102</ele>
        <time>2023-07-07T14:59:13.000Z</time>
      </trkpt>
      <trkpt lat="45.77435" lon="4.71918">
        <ele>285.68585</ele>
        <time>2023-07-07T14:59:14.000Z</time>
      </trkpt>
      <trkpt lat="45.77434" lon="4.71913">
        <ele>285.79111</ele>
        <time>2023-07-07T14:59:15.000Z</time>
      </trkpt>
      <trkpt lat="45.77432" lon="4.71908">
        <ele>285.91763</ele>
        <time>2023-07-07T14:59:16.000Z</time>
      </trkpt>
      <trkpt lat="45.77431" lon="4.71903">
        <ele>286.06909</ele>
        <time>2023-07-07T14:59:17.000Z</time>
      </trkpt>
      <trkpt lat="45.77429" lon="4.71897">
        <ele>286.19174</ele>
        <time>2023-07-07T14:59:18.000Z</time>
      </trkpt>
      <trkpt lat="45.77428" lon="4.71893">
        <ele>286.31116</ele>
        <time>2023-07-07T14:59:19.000Z</time>
      </trkpt>
      <trkpt lat="45.77426" lon="4.71888">
        <ele>286.36044</ele>
        <time>2023-07-07T14:59:20.000Z</time>
      </trkpt>
      <trkpt lat="45.77425" lon="4.71883">
        <ele>286.37433</ele>
        <time>2023-07-07T14:59:21.000Z</time>
      </trkpt>
      <trkpt lat="45.77423" lon="4.71878">
        <ele>286.37939</ele>
        <time>2023-07-07T14:59:22.000Z</time>
      </trkpt>
      <trkpt lat="45.77421" lon="4.71874">
        <ele>286.3681</ele>
        <time>2023-07-07T14:59:23.000Z</time>
      </trkpt>
      <trkpt lat="45.7742" lon="4.71869">
        <ele>286.34454</ele>
        <time>2023-07-07T14:59:24.000Z</time>
      </trkpt>
      <trkpt lat="45.7742" lon="4.71864">
        <ele>286.32837</ele>
        <time>2023-07-07T14:59:25.000Z</time>
      </trkpt>
      <trkpt lat="45.7742" lon="4.71859">
        <ele>286.35928</ele>
        <time>2023-07-07T14:59:26.000Z</time>
      </trkpt>
      <trkpt lat="45.77422" lon="4.71854">
        <ele>286.38672</ele>
        <time>2023-07-07T14:59:27.000Z</time>
      </trkpt>
      <trkpt lat="45.77424" lon="4.7185">
        <ele>286.4346</ele>
        <time>2023-07-07T14:59:28.000Z</time>
      </trkpt>
      <trkpt lat="45.77426" lon="4.71846">
        <ele>286.46454</ele>
        <time>2023-07-07T14:59:29.000Z</time>
      </trkpt>
      <trkpt lat="45.77429" lon="4.71841">
        <ele>286.52353</ele>
        <time>2023-07-07T14:59:30.000Z</time>
      </trkpt>
      <trkpt lat="45.77431" lon="4.71837">
        <ele>286.61078</ele>
        <time>2023-07-07T14:59:31.000Z</time>
      </trkpt>
      <trkpt lat="45.77434" lon="4.71832">
        <ele>286.71594</ele>
        <time>2023-07-07T14:59:32.000Z</time>
      </trkpt>
      <trkpt lat="45.77436" lon="4.71828">
        <ele>286.83563</ele>
        <time>2023-07-07T14:59:33.000Z</time>
      </trkpt>
      <trkpt lat="45.77438" lon="4.71825">
        <ele>286.91852</ele>
        <time>2023-07-07T14:59:34.000Z</time>
      </trkpt>
      <trkpt lat="45.7744" lon="4.71821">
        <ele>286.99979</ele>
        <time>2023-07-07T14:59:35.000Z</time>
      </trkpt>
      <trkpt lat="45.77442" lon="4.71816">
        <ele>287.04938</ele>
        <time>2023-07-07T14:59:36.000Z</time>
      </trkpt>
      <trkpt lat="45.77445" lon="4.71811">
        <ele>287.05499</ele>
        <time>2023-07-07T14:59:37.000Z</time>
      </trkpt>
      <trkpt lat="45.77447" lon="4.71807">
        <ele>287.07965</ele>
        <time>2023-07-07T14:59:38.000Z</time>
      </trkpt>
      <trkpt lat="45.77449" lon="4.71802">
        <ele>287.05801</ele>
        <time>2023-07-07T14:59:39.000Z</time>
      </trkpt>
      <trkpt lat="45.77451" lon="4.71796">
        <ele>287.04718</ele>
        <time>2023-07-07T14:59:40.000Z</time>
      </trkpt>
      <trkpt lat="45.77454" lon="4.7179">
        <ele>287.07013</ele>
        <time>2023-07-07T14:59:41.000Z</time>
      </trkpt>
      <trkpt lat="45.77457" lon="4.71786">
        <ele>287.06177</ele>
        <time>2023-07-07T14:59:42.000Z</time>
      </trkpt>
      <trkpt lat="45.7746" lon="4.71781">
        <ele>287.09418</ele>
        <time>2023-07-07T14:59:43.000Z</time>
      </trkpt>
      <trkpt lat="45.77463" lon="4.71775">
        <ele>287.14749</ele>
        <time>2023-07-07T14:59:44.000Z</time>
      </trkpt>
      <trkpt lat="45.77466" lon="4.7177">
        <ele>287.17099</ele>
        <time>2023-07-07T14:59:45.000Z</time>
      </trkpt>
      <trkpt lat="45.77471" lon="4.71767">
        <ele>287.07913</ele>
        <time>2023-07-07T14:59:46.000Z</time>
      </trkpt>
      <trkpt lat="45.77474" lon="4.71763">
        <ele>286.98694</ele>
        <time>2023-07-07T14:59:47.000Z</time>
      </trkpt>
      <trkpt lat="45.77478" lon="4.71759">
        <ele>286.90567</ele>
        <time>2023-07-07T14:59:48.000Z</time>
      </trkpt>
      <trkpt lat="45.77481" lon="4.71756">
        <ele>286.82959</ele>
        <time>2023-07-07T14:59:49.000Z</time>
      </trkpt>
      <trkpt lat="45.77485" lon="4.71752">
        <ele>286.69708</ele>
        <time>2023-07-07T14:59:50.000Z</time>
      </trkpt>
      <trkpt lat="45.77488" lon="4.71748">
        <ele>286.53387</ele>
        <time>2023-07-07T14:59:51.000Z</time>
      </trkpt>
      <trkpt lat="45.77492" lon="4.71744">
        <ele>286.33145</ele>
        <time>2023-07-07T14:59:52.000Z</time>
      </trkpt>
      <trkpt lat="45.77495" lon="4.71741">
        <ele>286.14877</ele>
        <time>2023-07-07T14:59:53.000Z</time>
      </trkpt>
      <trkpt lat="45.77499" lon="4.71737">
        <ele>285.99973</ele>
        <time>2023-07-07T14:59:54.000Z</time>
      </trkpt>
      <trkpt lat="45.77502" lon="4.71734">
        <ele>285.85251</ele>
        <time>2023-07-07T14:59:55.000Z</time>
      </trkpt>
      <trkpt lat="45.77505" lon="4.71731">
        <ele>285.71906</ele>
        <time>2023-07-07T14:59:56.000Z</time>
      </trkpt>
      <trkpt lat="45.77509" lon="4.71727">
        <ele>285.60379</ele>
        <time>2023-07-07T14:59:57.000Z</time>
      </trkpt>
      <trkpt lat="45.77512" lon="4.71724">
        <ele>285.45224</ele>
        <time>2023-07-07T14:59:58.000Z</time>
      </trkpt>
      <trkpt lat="45.77515" lon="4.7172">
        <ele>285.33408</ele>
        <time>2023-07-07T14:59:59.000Z</time>
      </trkpt>
      <trkpt lat="45.77518" lon="4.71716">
        <ele>285.26691</ele>
        <time>2023-07-07T15:00:00.000Z</time>
      </trkpt>
      <trkpt lat="45.77521" lon="4.71711">
        <ele>285.21271</ele>
        <time>2023-07-07T15:00:01.000Z</time>
      </trkpt>
      <trkpt lat="45.77523" lon="4.71706">
        <ele>285.21729</ele>
        <time>2023-07-07T15:00:02.000Z</time>
      </trkpt>
      <trkpt lat="45.77525" lon="4.71701">
        <ele>285.21609</ele>
        <time>2023-07-07T15:00:03.000Z</time>
      </trkpt>
      <trkpt lat="45.77526" lon="4.71696">
        <ele>285.19904</ele>
        <time>2023-07-07T15:00:04.000Z</time>
      </trkpt>
      <trkpt lat="45.77528" lon="4.71691">
        <ele>285.23187</ele>
        <time>2023-07-07T15:00:05.000Z</time>
      </trkpt>
      <trkpt lat="45.77528" lon="4.71686">
        <ele>285.39383</ele>
        <time>2023-07-07T15:00:06.000Z</time>
      </trkpt>
      <trkpt lat="45.77529" lon="4.71681">
        <ele>285.56381</ele>
        <time>2023-07-07T15:00:07.000Z</time>
      </trkpt>
      <trkpt lat="45.77531" lon="4.71676">
        <ele>285.73395</ele>
        <time>2023-07-07T15:00:08.000Z</time>
      </trkpt>
      <trkpt lat="45.77532" lon="4.71671">
        <ele>285.97531</ele>
        <time>2023-07-07T15:00:09.000Z</time>
      </trkpt>
      <trkpt lat="45.77533" lon="4.71666">
        <ele>286.2959</ele>
        <time>2023-07-07T15:00:10.000Z</time>
      </trkpt>
      <trkpt lat="45.77533" lon="4.7166">
        <ele>286.62799</ele>
        <time>2023-07-07T15:00:11.000Z</time>
      </trkpt>
      <trkpt lat="45.77533" lon="4.71655">
        <ele>286.96362</ele>
        <time>2023-07-07T15:00:12.000Z</time>
      </trkpt>
      <trkpt lat="45.77533" lon="4.71649">
        <ele>287.27844</ele>
        <time>2023-07-07T15:00:13.000Z</time>
      </trkpt>
      <trkpt lat="45.77532" lon="4.71643">
        <ele>287.53317</ele>
        <time>2023-07-07T15:00:14.000Z</time>
      </trkpt>
      <trkpt lat="45.77531" lon="4.71639">
        <ele>287.80368</ele>
        <time>2023-07-07T15:00:15.000Z</time>
      </trkpt>
      <trkpt lat="45.77529" lon="4.71634">
        <ele>288.04343</ele>
        <time>2023-07-07T15:00:16.000Z</time>
      </trkpt>
      <trkpt lat="45.77526" lon="4.71631">
        <ele>288.30179</ele>
        <time>2023-07-07T15:00:17.000Z</time>
      </trkpt>
      <trkpt lat="45.77522" lon="4.71628">
        <ele>288.58466</ele>
        <time>2023-07-07T15:00:18.000Z</time>
      </trkpt>
      <trkpt lat="45.77519" lon="4.71624">
        <ele>288.8765</ele>
        <time>2023-07-07T15:00:19.000Z</time>
      </trkpt>
      <trkpt lat="45.77517" lon="4.71621">
        <ele>289.1774</ele>
        <time>2023-07-07T15:00:20.000Z</time>
      </trkpt>
      <trkpt lat="45.77514" lon="4.71617">
        <ele>289.47971</ele>
        <time>2023-07-07T15:00:21.000Z</time>
      </trkpt>
      <trkpt lat="45.77511" lon="4.71613">
        <ele>289.71036</ele>
        <time>2023-07-07T15:00:22.000Z</time>
      </trkpt>
      <trkpt lat="45.77509" lon="4.7161">
        <ele>289.92993</ele>
        <time>2023-07-07T15:00:23.000Z</time>
      </trkpt>
      <trkpt lat="45.77506" lon="4.71606">
        <ele>290.18372</ele>
        <time>2023-07-07T15:00:24.000Z</time>
      </trkpt>
      <trkpt lat="45.77504" lon="4.71602">
        <ele>290.39432</ele>
        <time>2023-07-07T15:00:25.000Z</time>
      </trkpt>
      <trkpt lat="45.77501" lon="4.71599">
        <ele>290.65341</ele>
        <time>2023-07-07T15:00:26.000Z</time>
      </trkpt>
      <trkpt lat="45.77498" lon="4.71595">
        <ele>290.85645</ele>
        <time>2023-07-07T15:00:27.000Z</time>
      </trkpt>
      <trkpt lat="45.77496" lon="4.71592">
        <ele>291.06219</ele>
        <time>2023-07-07T15:00:28.000Z</time>
      </trkpt>
      <trkpt lat="45.77493" lon="4.71589">
        <ele>291.18088</ele>
        <time>2023-07-07T15:00:29.000Z</time>
      </trkpt>
      <trkpt lat="45.7749" lon="4.71586">
        <ele>291.02002</ele>
        <time>2023-07-07T15:00:30.000Z</time>
      </trkpt>
      <trkpt lat="45.77486" lon="4.71582">
        <ele>290.90079</ele>
        <time>2023-07-07T15:00:31.000Z</time>
      </trkpt>
      <trkpt lat="45.77483" lon="4.7158">
        <ele>290.81113</ele>
        <time>2023-07-07T15:00:32.000Z</time>
      </trkpt>
      <trkpt lat="45.7748" lon="4.71578">
        <ele>290.69937</ele>
        <time>2023-07-07T15:00:33.000Z</time>
      </trkpt>
      <trkpt lat="45.77477" lon="4.71576">
        <ele>290.5607</ele>
        <time>2023-07-07T15:00:34.000Z</time>
      </trkpt>
      <trkpt lat="45.77475" lon="4.71572">
        <ele>290.39337</ele>
        <time>2023-07-07T15:00:35.000Z</time>
      </trkpt>
      <trkpt lat="45.77472" lon="4.71568">
        <ele>290.22891</ele>
        <time>2023-07-07T15:00:36.000Z</time>
      </trkpt>
      <trkpt lat="45.77469" lon="4.71564">
        <ele>290.07733</ele>
        <time>2023-07-07T15:00:37.000Z</time>
      </trkpt>
      <trkpt lat="45.77466" lon="4.7156">
        <ele>289.86578</ele>
        <time>2023-07-07T15:00:38.000Z</time>
      </trkpt>
      <trkpt lat="45.77463" lon="4.71555">
        <ele>289.6286</ele>
        <time>2023-07-07T15:00:39.000Z</time>
      </trkpt>
      <trkpt lat="45.7746" lon="4.71551">
        <ele>289.41406</ele>
        <time>2023-07-07T15:00:40.000Z</time>
      </trkpt>
      <trkpt lat="45.77457" lon="4.71546">
        <ele>289.21503</ele>
        <time>2023-07-07T15:00:41.000Z</time>
      </trkpt>
      <trkpt lat="45.77454" lon="4.71541">
        <ele>288.95264</ele>
        <time>2023-07-07T15:00:42.000Z</time>
      </trkpt>
      <trkpt lat="45.77452" lon="4.71536">
        <ele>288.67206</ele>
        <time>2023-07-07T15:00:43.000Z</time>
      </trkpt>
      <trkpt lat="45.77449" lon="4.71532">
        <ele>288.7258</ele>
        <time>2023-07-07T15:00:44.000Z</time>
      </trkpt>
      <trkpt lat="45.77446" lon="4.71526">
        <ele>288.76071</ele>
        <time>2023-07-07T15:00:45.000Z</time>
      </trkpt>
      <trkpt lat="45.77443" lon="4.71521">
        <ele>288.70081</ele>
        <time>2023-07-07T15:00:46.000Z</time>
      </trkpt>
      <trkpt lat="45.7744" lon="4.71516">
        <ele>289.03265</ele>
        <time>2023-07-07T15:00:47.000Z</time>
      </trkpt>
      <trkpt lat="45.77437" lon="4.71511">
        <ele>289.46313</ele>
        <time>2023-07-07T15:00:48.000Z</time>
      </trkpt>
      <trkpt lat="45.77434" lon="4.71506">
        <ele>289.84784</ele>
        <time>2023-07-07T15:00:49.000Z</time>
      </trkpt>
      <trkpt lat="45.77429" lon="4.71499">
        <ele>290.4213</ele>
        <time>2023-07-07T15:00:50.000Z</time>
      </trkpt>
      <trkpt lat="45.77427" lon="4.71494">
        <ele>290.89197</ele>
        <time>2023-07-07T15:00:51.000Z</time>
      </trkpt>
      <trkpt lat="45.77424" lon="4.7149">
        <ele>291.41544</ele>
        <time>2023-07-07T15:00:52.000Z</time>
      </trkpt>
      <trkpt lat="45.77421" lon="4.71484">
        <ele>291.94516</ele>
        <time>2023-07-07T15:00:53.000Z</time>
      </trkpt>
      <trkpt lat="45.77419" lon="4.7148">
        <ele>292.52548</ele>
        <time>2023-07-07T15:00:54.000Z</time>
      </trkpt>
      <trkpt lat="45.77417" lon="4.71474">
        <ele>293.1582</ele>
        <time>2023-07-07T15:00:55.000Z</time>
      </trkpt>
      <trkpt lat="45.77414" lon="4.7147">
        <ele>293.85254</ele>
        <time>2023-07-07T15:00:56.000Z</time>
      </trkpt>
      <trkpt lat="45.7741" lon="4.71465">
        <ele>294.52643</ele>
        <time>2023-07-07T15:00:57.000Z</time>
      </trkpt>
      <trkpt lat="45.77408" lon="4.7146">
        <ele>295.23074</ele>
        <time>2023-07-07T15:00:58.000Z</time>
      </trkpt>
      <trkpt lat="45.77406" lon="4.71456">
        <ele>295.97763</ele>
        <time>2023-07-07T15:00:59.000Z</time>
      </trkpt>
      <trkpt lat="45.77402" lon="4.71451">
        <ele>296.66022</ele>
        <time>2023-07-07T15:01:00.000Z</time>
      </trkpt>
      <trkpt lat="45.77399" lon="4.71448">
        <ele>297.2919</ele>
        <time>2023-07-07T15:01:01.000Z</time>
      </trkpt>
      <trkpt lat="45.77396" lon="4.71445">
        <ele>298.01752</ele>
        <time>2023-07-07T15:01:02.000Z</time>
      </trkpt>
      <trkpt lat="45.77391" lon="4.71446">
        <ele>298.76923</ele>
        <time>2023-07-07T15:01:03.000Z</time>
      </trkpt>
      <trkpt lat="45.77388" lon="4.71448">
        <ele>299.12558</ele>
        <time>2023-07-07T15:01:04.000Z</time>
      </trkpt>
      <trkpt lat="45.77385" lon="4.71449">
        <ele>299.52435</ele>
        <time>2023-07-07T15:01:05.000Z</time>
      </trkpt>
      <trkpt lat="45.77381" lon="4.71446">
        <ele>299.91641</ele>
        <time>2023-07-07T15:01:06.000Z</time>
      </trkpt>
      <trkpt lat="45.77377" lon="4.71444">
        <ele>299.97061</ele>
        <time>2023-07-07T15:01:07.000Z</time>
      </trkpt>
      <trkpt lat="45.77375" lon="4.71442">
        <ele>299.93985</ele>
        <time>2023-07-07T15:01:08.000Z</time>
      </trkpt>
      <trkpt lat="45.77373" lon="4.71439">
        <ele>299.98175</ele>
        <time>2023-07-07T15:01:09.000Z</time>
      </trkpt>
      <trkpt lat="45.77371" lon="4.71435">
        <ele>300.03738</ele>
        <time>2023-07-07T15:01:10.000Z</time>
      </trkpt>
      <trkpt lat="45.77369" lon="4.71432">
        <ele>300.13721</ele>
        <time>2023-07-07T15:01:11.000Z</time>
      </trkpt>
      <trkpt lat="45.77366" lon="4.71427">
        <ele>300.17371</ele>
        <time>2023-07-07T15:01:12.000Z</time>
      </trkpt>
      <trkpt lat="45.77364" lon="4.71424">
        <ele>300.28885</ele>
        <time>2023-07-07T15:01:13.000Z</time>
      </trkpt>
      <trkpt lat="45.77362" lon="4.71421">
        <ele>300.4234</ele>
        <time>2023-07-07T15:01:14.000Z</time>
      </trkpt>
      <trkpt lat="45.7736" lon="4.71418">
        <ele>300.51385</ele>
        <time>2023-07-07T15:01:15.000Z</time>
      </trkpt>
      <trkpt lat="45.77357" lon="4.71415">
        <ele>300.58313</ele>
        <time>2023-07-07T15:01:16.000Z</time>
      </trkpt>
      <trkpt lat="45.77355" lon="4.71411">
        <ele>300.61072</ele>
        <time>2023-07-07T15:01:17.000Z</time>
      </trkpt>
      <trkpt lat="45.77354" lon="4.71408">
        <ele>300.5733</ele>
        <time>2023-07-07T15:01:18.000Z</time>
      </trkpt>
      <trkpt lat="45.77352" lon="4.71405">
        <ele>300.51617</ele>
        <time>2023-07-07T15:01:19.000Z</time>
      </trkpt>
      <trkpt lat="45.77349" lon="4.71402">
        <ele>300.4953</ele>
        <time>2023-07-07T15:01:20.000Z</time>
      </trkpt>
      <trkpt lat="45.77347" lon="4.714">
        <ele>300.47211</ele>
        <time>2023-07-07T15:01:21.000Z</time>
      </trkpt>
      <trkpt lat="45.77345" lon="4.71397">
        <ele>300.58435</ele>
        <time>2023-07-07T15:01:22.000Z</time>
      </trkpt>
      <trkpt lat="45.77342" lon="4.71395">
        <ele>300.44263</ele>
        <time>2023-07-07T15:01:23.000Z</time>
      </trkpt>
      <trkpt lat="45.7734" lon="4.71392">
        <ele>300.34161</ele>
        <time>2023-07-07T15:01:24.000Z</time>
      </trkpt>
      <trkpt lat="45.77339" lon="4.7139">
        <ele>300.24088</ele>
        <time>2023-07-07T15:01:25.000Z</time>
      </trkpt>
      <trkpt lat="45.77337" lon="4.71387">
        <ele>300.18851</ele>
        <time>2023-07-07T15:01:26.000Z</time>
      </trkpt>
      <trkpt lat="45.77335" lon="4.71384">
        <ele>300.13022</ele>
        <time>2023-07-07T15:01:27.000Z</time>
      </trkpt>
      <trkpt lat="45.77332" lon="4.71381">
        <ele>300.10617</ele>
        <time>2023-07-07T15:01:28.000Z</time>
      </trkpt>
      <trkpt lat="45.7733" lon="4.71378">
        <ele>300.0676</ele>
        <time>2023-07-07T15:01:29.000Z</time>
      </trkpt>
      <trkpt lat="45.77327" lon="4.71374">
        <ele>300.02563</ele>
        <time>2023-07-07T15:01:30.000Z</time>
      </trkpt>
      <trkpt lat="45.77325" lon="4.71371">
        <ele>300.0098</ele>
        <time>2023-07-07T15:01:31.000Z</time>
      </trkpt>
      <trkpt lat="45.77323" lon="4.71367">
        <ele>299.98633</ele>
        <time>2023-07-07T15:01:32.000Z</time>
      </trkpt>
      <trkpt lat="45.7732" lon="4.71364">
        <ele>299.91998</ele>
        <time>2023-07-07T15:01:33.000Z</time>
      </trkpt>
      <trkpt lat="45.77318" lon="4.71361">
        <ele>299.82294</ele>
        <time>2023-07-07T15:01:34.000Z</time>
      </trkpt>
      <trkpt lat="45.77316" lon="4.71358">
        <ele>299.75851</ele>
        <time>2023-07-07T15:01:35.000Z</time>
      </trkpt>
      <trkpt lat="45.77313" lon="4.71355">
        <ele>299.65823</ele>
        <time>2023-07-07T15:01:36.000Z</time>
      </trkpt>
      <trkpt lat="45.77311" lon="4.71351">
        <ele>299.61041</ele>
        <time>2023-07-07T15:01:37.000Z</time>
      </trkpt>
      <trkpt lat="45.77308" lon="4.71348">
        <ele>299.63446</ele>
        <time>2023-07-07T15:01:38.000Z</time>
      </trkpt>
      <trkpt lat="45.77306" lon="4.71345">
        <ele>299.61731</ele>
        <time>2023-07-07T15:01:39.000Z</time>
      </trkpt>
      <trkpt lat="45.77303" lon="4.71341">
        <ele>299.55963</ele>
        <time>2023-07-07T15:01:40.000Z</time>
      </trkpt>
      <trkpt lat="45.77301" lon="4.71337">
        <ele>299.40433</ele>
        <time>2023-07-07T15:01:41.000Z</time>
      </trkpt>
      <trkpt lat="45.773" lon="4.71334">
        <ele>299.14777</ele>
        <time>2023-07-07T15:01:42.000Z</time>
      </trkpt>
      <trkpt lat="45.77299" lon="4.7133">
        <ele>299.13208</ele>
        <time>2023-07-07T15:01:43.000Z</time>
      </trkpt>
      <trkpt lat="45.77298" lon="4.71326">
        <ele>299.117</ele>
        <time>2023-07-07T15:01:44.000Z</time>
      </trkpt>
      <trkpt lat="45.77298" lon="4.71322">
        <ele>299.11111</ele>
        <time>2023-07-07T15:01:45.000Z</time>
      </trkpt>
      <trkpt lat="45.77298" lon="4.71318">
        <ele>299.04019</ele>
        <time>2023-07-07T15:01:46.000Z</time>
      </trkpt>
      <trkpt lat="45.77299" lon="4.71315">
        <ele>299.00497</ele>
        <time>2023-07-07T15:01:47.000Z</time>
      </trkpt>
      <trkpt lat="45.773" lon="4.7131">
        <ele>298.94495</ele>
        <time>2023-07-07T15:01:48.000Z</time>
      </trkpt>
      <trkpt lat="45.773" lon="4.71306">
        <ele>298.88104</ele>
        <time>2023-07-07T15:01:49.000Z</time>
      </trkpt>
      <trkpt lat="45.773" lon="4.71302">
        <ele>298.84445</ele>
        <time>2023-07-07T15:01:50.000Z</time>
      </trkpt>
      <trkpt lat="45.773" lon="4.71297">
        <ele>298.79163</ele>
        <time>2023-07-07T15:01:51.000Z</time>
      </trkpt>
      <trkpt lat="45.77299" lon="4.71291">
        <ele>298.79791</ele>
        <time>2023-07-07T15:01:52.000Z</time>
      </trkpt>
      <trkpt lat="45.77299" lon="4.71286">
        <ele>298.79144</ele>
        <time>2023-07-07T15:01:53.000Z</time>
      </trkpt>
      <trkpt lat="45.77298" lon="4.71281">
        <ele>298.673</ele>
        <time>2023-07-07T15:01:54.000Z</time>
      </trkpt>
      <trkpt lat="45.77297" lon="4.71276">
        <ele>298.51993</ele>
        <time>2023-07-07T15:01:55.000Z</time>
      </trkpt>
      <trkpt lat="45.77296" lon="4.71273">
        <ele>298.42307</ele>
        <time>2023-07-07T15:01:56.000Z</time>
      </trkpt>
      <trkpt lat="45.77295" lon="4.71268">
        <ele>298.21368</ele>
        <time>2023-07-07T15:01:57.000Z</time>
      </trkpt>
      <trkpt lat="45.77294" lon="4.71262">
        <ele>298.00668</ele>
        <time>2023-07-07T15:01:58.000Z</time>
      </trkpt>
      <trkpt lat="45.77293" lon="4.71257">
        <ele>297.76749</ele>
        <time>2023-07-07T15:01:59.000Z</time>
      </trkpt>
      <trkpt lat="45.77293" lon="4.71252">
        <ele>297.48889</ele>
        <time>2023-07-07T15:02:00.000Z</time>
      </trkpt>
      <trkpt lat="45.77292" lon="4.71246">
        <ele>297.47784</ele>
        <time>2023-07-07T15:02:01.000Z</time>
      </trkpt>
      <trkpt lat="45.77292" lon="4.71241">
        <ele>297.43124</ele>
        <time>2023-07-07T15:02:02.000Z</time>
      </trkpt>
      <trkpt lat="45.77292" lon="4.71235">
        <ele>297.35693</ele>
        <time>2023-07-07T15:02:03.000Z</time>
      </trkpt>
      <trkpt lat="45.77292" lon="4.71229">
        <ele>297.27408</ele>
        <time>2023-07-07T15:02:04.000Z</time>
      </trkpt>
      <trkpt lat="45.77292" lon="4.71224">
        <ele>297.1767</ele>
        <time>2023-07-07T15:02:05.000Z</time>
      </trkpt>
      <trkpt lat="45.77292" lon="4.7122">
        <ele>297.11731</ele>
        <time>2023-07-07T15:02:06.000Z</time>
      </trkpt>
      <trkpt lat="45.77291" lon="4.71215">
        <ele>297.03336</ele>
        <time>2023-07-07T15:02:07.000Z</time>
      </trkpt>
      <trkpt lat="45.77291" lon="4.71209">
        <ele>296.90997</ele>
        <time>2023-07-07T15:02:08.000Z</time>
      </trkpt>
      <trkpt lat="45.77291" lon="4.71204">
        <ele>296.81818</ele>
        <time>2023-07-07T15:02:09.000Z</time>
      </trkpt>
      <trkpt lat="45.7729" lon="4.71199">
        <ele>296.77179</ele>
        <time>2023-07-07T15:02:10.000Z</time>
      </trkpt>
      <trkpt lat="45.7729" lon="4.71194">
        <ele>296.73053</ele>
        <time>2023-07-07T15:02:11.000Z</time>
      </trkpt>
      <trkpt lat="45.7729" lon="4.71188">
        <ele>296.59918</ele>
        <time>2023-07-07T15:02:12.000Z</time>
      </trkpt>
      <trkpt lat="45.7729" lon="4.71183">
        <ele>296.53244</ele>
        <time>2023-07-07T15:02:13.000Z</time>
      </trkpt>
      <trkpt lat="45.7729" lon="4.71179">
        <ele>296.58878</ele>
        <time>2023-07-07T15:02:14.000Z</time>
      </trkpt>
      <trkpt lat="45.7729" lon="4.71174">
        <ele>296.61386</ele>
        <time>2023-07-07T15:02:15.000Z</time>
      </trkpt>
      <trkpt lat="45.7729" lon="4.71169">
        <ele>296.64355</ele>
        <time>2023-07-07T15:02:16.000Z</time>
      </trkpt>
      <trkpt lat="45.7729" lon="4.71163">
        <ele>296.7222</ele>
        <time>2023-07-07T15:02:17.000Z</time>
      </trkpt>
      <trkpt lat="45.77291" lon="4.71159">
        <ele>296.80737</ele>
        <time>2023-07-07T15:02:18.000Z</time>
      </trkpt>
      <trkpt lat="45.77291" lon="4.71155">
        <ele>296.93866</ele>
        <time>2023-07-07T15:02:19.000Z</time>
      </trkpt>
      <trkpt lat="45.7729" lon="4.7115">
        <ele>297.01962</ele>
        <time>2023-07-07T15:02:20.000Z</time>
      </trkpt>
      <trkpt lat="45.7729" lon="4.71145">
        <ele>296.89532</ele>
        <time>2023-07-07T15:02:21.000Z</time>
      </trkpt>
      <trkpt lat="45.7729" lon="4.7114">
        <ele>296.98294</ele>
        <time>2023-07-07T15:02:22.000Z</time>
      </trkpt>
      <trkpt lat="45.7729" lon="4.71134">
        <ele>297.04062</ele>
        <time>2023-07-07T15:02:23.000Z</time>
      </trkpt>
      <trkpt lat="45.7729" lon="4.71129">
        <ele>297.07623</ele>
        <time>2023-07-07T15:02:24.000Z</time>
      </trkpt>
      <trkpt lat="45.7729" lon="4.71125">
        <ele>297.0481</ele>
        <time>2023-07-07T15:02:25.000Z</time>
      </trkpt>
      <trkpt lat="45.7729" lon="4.7112">
        <ele>297.01337</ele>
        <time>2023-07-07T15:02:26.000Z</time>
      </trkpt>
      <trkpt lat="45.7729" lon="4.71115">
        <ele>296.9791</ele>
        <time>2023-07-07T15:02:27.000Z</time>
      </trkpt>
      <trkpt lat="45.77289" lon="4.7111">
        <ele>296.97983</ele>
        <time>2023-07-07T15:02:28.000Z</time>
      </trkpt>
      <trkpt lat="45.77289" lon="4.71105">
        <ele>296.957</ele>
        <time>2023-07-07T15:02:29.000Z</time>
      </trkpt>
      <trkpt lat="45.77289" lon="4.711">
        <ele>296.8739</ele>
        <time>2023-07-07T15:02:30.000Z</time>
      </trkpt>
      <trkpt lat="45.77288" lon="4.71094">
        <ele>296.8125</ele>
        <time>2023-07-07T15:02:31.000Z</time>
      </trkpt>
      <trkpt lat="45.77288" lon="4.7109">
        <ele>296.80161</ele>
        <time>2023-07-07T15:02:32.000Z</time>
      </trkpt>
      <trkpt lat="45.77288" lon="4.71084">
        <ele>296.72943</ele>
        <time>2023-07-07T15:02:33.000Z</time>
      </trkpt>
      <trkpt lat="45.77288" lon="4.71079">
        <ele>296.62274</ele>
        <time>2023-07-07T15:02:34.000Z</time>
      </trkpt>
      <trkpt lat="45.77288" lon="4.71073">
        <ele>296.57501</ele>
        <time>2023-07-07T15:02:35.000Z</time>
      </trkpt>
      <trkpt lat="45.77288" lon="4.71068">
        <ele>296.46701</ele>
        <time>2023-07-07T15:02:36.000Z</time>
      </trkpt>
      <trkpt lat="45.77288" lon="4.71063">
        <ele>296.4487</ele>
        <time>2023-07-07T15:02:37.000Z</time>
      </trkpt>
      <trkpt lat="45.77288" lon="4.71058">
        <ele>296.40155</ele>
        <time>2023-07-07T15:02:38.000Z</time>
      </trkpt>
      <trkpt lat="45.77287" lon="4.71052">
        <ele>296.39816</ele>
        <time>2023-07-07T15:02:39.000Z</time>
      </trkpt>
      <trkpt lat="45.77287" lon="4.71046">
        <ele>296.48859</ele>
        <time>2023-07-07T15:02:40.000Z</time>
      </trkpt>
      <trkpt lat="45.77287" lon="4.7104">
        <ele>296.64859</ele>
        <time>2023-07-07T15:02:41.000Z</time>
      </trkpt>
      <trkpt lat="45.77287" lon="4.71034">
        <ele>296.62674</ele>
        <time>2023-07-07T15:02:42.000Z</time>
      </trkpt>
      <trkpt lat="45.77287" lon="4.71029">
        <ele>296.5452</ele>
        <time>2023-07-07T15:02:43.000Z</time>
      </trkpt>
      <trkpt lat="45.77288" lon="4.71023">
        <ele>296.36777</ele>
        <time>2023-07-07T15:02:44.000Z</time>
      </trkpt>
      <trkpt lat="45.77288" lon="4.71017">
        <ele>296.34222</ele>
        <time>2023-07-07T15:02:45.000Z</time>
      </trkpt>
      <trkpt lat="45.77288" lon="4.71011">
        <ele>296.48151</ele>
        <time>2023-07-07T15:02:46.000Z</time>
      </trkpt>
      <trkpt lat="45.77287" lon="4.71005">
        <ele>296.61176</ele>
        <time>2023-07-07T15:02:47.000Z</time>
      </trkpt>
      <trkpt lat="45.77287" lon="4.71">
        <ele>296.75055</ele>
        <time>2023-07-07T15:02:48.000Z</time>
      </trkpt>
      <trkpt lat="45.77287" lon="4.70995">
        <ele>296.90012</ele>
        <time>2023-07-07T15:02:49.000Z</time>
      </trkpt>
      <trkpt lat="45.77286" lon="4.70991">
        <ele>297.27408</ele>
        <time>2023-07-07T15:02:50.000Z</time>
      </trkpt>
      <trkpt lat="45.77285" lon="4.70987">
        <ele>297.62915</ele>
        <time>2023-07-07T15:02:51.000Z</time>
      </trkpt>
      <trkpt lat="45.77283" lon="4.70981">
        <ele>297.99414</ele>
        <time>2023-07-07T15:02:52.000Z</time>
      </trkpt>
      <trkpt lat="45.77281" lon="4.70976">
        <ele>298.37848</ele>
        <time>2023-07-07T15:02:53.000Z</time>
      </trkpt>
      <trkpt lat="45.7728" lon="4.70971">
        <ele>298.75787</ele>
        <time>2023-07-07T15:02:54.000Z</time>
      </trkpt>
      <trkpt lat="45.77279" lon="4.70965">
        <ele>299.08487</ele>
        <time>2023-07-07T15:02:55.000Z</time>
      </trkpt>
      <trkpt lat="45.77279" lon="4.70959">
        <ele>299.43817</ele>
        <time>2023-07-07T15:02:56.000Z</time>
      </trkpt>
      <trkpt lat="45.77279" lon="4.70954">
        <ele>299.77908</ele>
        <time>2023-07-07T15:02:57.000Z</time>
      </trkpt>
      <trkpt lat="45.77279" lon="4.7095">
        <ele>300.12805</ele>
        <time>2023-07-07T15:02:58.000Z</time>
      </trkpt>
      <trkpt lat="45.7728" lon="4.70945">
        <ele>300.46817</ele>
        <time>2023-07-07T15:02:59.000Z</time>
      </trkpt>
      <trkpt lat="45.77281" lon="4.70939">
        <ele>300.84808</ele>
        <time>2023-07-07T15:03:00.000Z</time>
      </trkpt>
      <trkpt lat="45.77281" lon="4.70934">
        <ele>301.25659</ele>
        <time>2023-07-07T15:03:01.000Z</time>
      </trkpt>
      <trkpt lat="45.77281" lon="4.7093">
        <ele>301.70068</ele>
        <time>2023-07-07T15:03:02.000Z</time>
      </trkpt>
      <trkpt lat="45.77281" lon="4.70926">
        <ele>302.27167</ele>
        <time>2023-07-07T15:03:03.000Z</time>
      </trkpt>
      <trkpt lat="45.7728" lon="4.70921">
        <ele>302.98749</ele>
        <time>2023-07-07T15:03:04.000Z</time>
      </trkpt>
      <trkpt lat="45.7728" lon="4.70917">
        <ele>303.51749</ele>
        <time>2023-07-07T15:03:05.000Z</time>
      </trkpt>
      <trkpt lat="45.7728" lon="4.70912">
        <ele>303.88055</ele>
        <time>2023-07-07T15:03:06.000Z</time>
      </trkpt>
      <trkpt lat="45.77281" lon="4.70906">
        <ele>304.22382</ele>
        <time>2023-07-07T15:03:07.000Z</time>
      </trkpt>
      <trkpt lat="45.77281" lon="4.709">
        <ele>304.54987</ele>
        <time>2023-07-07T15:03:08.000Z</time>
      </trkpt>
      <trkpt lat="45.77281" lon="4.70895">
        <ele>304.95905</ele>
        <time>2023-07-07T15:03:09.000Z</time>
      </trkpt>
      <trkpt lat="45.77281" lon="4.70891">
        <ele>305.14462</ele>
        <time>2023-07-07T15:03:10.000Z</time>
      </trkpt>
      <trkpt lat="45.77282" lon="4.70888">
        <ele>305.25815</ele>
        <time>2023-07-07T15:03:11.000Z</time>
      </trkpt>
      <trkpt lat="45.77283" lon="4.70883">
        <ele>305.29791</ele>
        <time>2023-07-07T15:03:12.000Z</time>
      </trkpt>
      <trkpt lat="45.77284" lon="4.70879">
        <ele>305.30817</ele>
        <time>2023-07-07T15:03:13.000Z</time>
      </trkpt>
      <trkpt lat="45.77286" lon="4.70875">
        <ele>305.38751</ele>
        <time>2023-07-07T15:03:14.000Z</time>
      </trkpt>
      <trkpt lat="45.77287" lon="4.70871">
        <ele>305.48926</ele>
        <time>2023-07-07T15:03:15.000Z</time>
      </trkpt>
      <trkpt lat="45.77289" lon="4.70866">
        <ele>305.60138</ele>
        <time>2023-07-07T15:03:16.000Z</time>
      </trkpt>
      <trkpt lat="45.7729" lon="4.70862">
        <ele>305.62198</ele>
        <time>2023-07-07T15:03:17.000Z</time>
      </trkpt>
      <trkpt lat="45.77292" lon="4.70858">
        <ele>305.59698</ele>
        <time>2023-07-07T15:03:18.000Z</time>
      </trkpt>
      <trkpt lat="45.77295" lon="4.70853">
        <ele>305.54031</ele>
        <time>2023-07-07T15:03:19.000Z</time>
      </trkpt>
      <trkpt lat="45.77297" lon="4.70848">
        <ele>305.45694</ele>
        <time>2023-07-07T15:03:20.000Z</time>
      </trkpt>
      <trkpt lat="45.773" lon="4.70842">
        <ele>305.30701</ele>
        <time>2023-07-07T15:03:21.000Z</time>
      </trkpt>
      <trkpt lat="45.77302" lon="4.70838">
        <ele>305.17865</ele>
        <time>2023-07-07T15:03:22.000Z</time>
      </trkpt>
      <trkpt lat="45.77304" lon="4.70835">
        <ele>304.99631</ele>
        <time>2023-07-07T15:03:23.000Z</time>
      </trkpt>
      <trkpt lat="45.77306" lon="4.70831">
        <ele>304.80011</ele>
        <time>2023-07-07T15:03:24.000Z</time>
      </trkpt>
      <trkpt lat="45.77308" lon="4.70826">
        <ele>304.73123</ele>
        <time>2023-07-07T15:03:25.000Z</time>
      </trkpt>
      <trkpt lat="45.77309" lon="4.70823">
        <ele>304.66037</ele>
        <time>2023-07-07T15:03:26.000Z</time>
      </trkpt>
      <trkpt lat="45.77311" lon="4.70819">
        <ele>304.6438</ele>
        <time>2023-07-07T15:03:27.000Z</time>
      </trkpt>
      <trkpt lat="45.77313" lon="4.70814">
        <ele>304.61136</ele>
        <time>2023-07-07T15:03:28.000Z</time>
      </trkpt>
      <trkpt lat="45.77314" lon="4.70809">
        <ele>304.44635</ele>
        <time>2023-07-07T15:03:29.000Z</time>
      </trkpt>
      <trkpt lat="45.77315" lon="4.70804">
        <ele>304.29883</ele>
        <time>2023-07-07T15:03:30.000Z</time>
      </trkpt>
      <trkpt lat="45.77317" lon="4.70798">
        <ele>304.16403</ele>
        <time>2023-07-07T15:03:31.000Z</time>
      </trkpt>
      <trkpt lat="45.77318" lon="4.70793">
        <ele>304.10522</ele>
        <time>2023-07-07T15:03:32.000Z</time>
      </trkpt>
      <trkpt lat="45.7732" lon="4.70787">
        <ele>304.05197</ele>
        <time>2023-07-07T15:03:33.000Z</time>
      </trkpt>
      <trkpt lat="45.77323" lon="4.70782">
        <ele>303.97443</ele>
        <time>2023-07-07T15:03:34.000Z</time>
      </trkpt>
      <trkpt lat="45.77325" lon="4.70776">
        <ele>303.92142</ele>
        <time>2023-07-07T15:03:35.000Z</time>
      </trkpt>
      <trkpt lat="45.77327" lon="4.7077">
        <ele>303.87115</ele>
        <time>2023-07-07T15:03:36.000Z</time>
      </trkpt>
      <trkpt lat="45.77329" lon="4.70765">
        <ele>303.89337</ele>
        <time>2023-07-07T15:03:37.000Z</time>
      </trkpt>
      <trkpt lat="45.77332" lon="4.7076">
        <ele>303.96841</ele>
        <time>2023-07-07T15:03:38.000Z</time>
      </trkpt>
      <trkpt lat="45.77334" lon="4.70754">
        <ele>304.06268</ele>
        <time>2023-07-07T15:03:39.000Z</time>
      </trkpt>
      <trkpt lat="45.77337" lon="4.70749">
        <ele>304.16791</ele>
        <time>2023-07-07T15:03:40.000Z</time>
      </trkpt>
      <trkpt lat="45.77339" lon="4.70744">
        <ele>304.31882</ele>
        <time>2023-07-07T15:03:41.000Z</time>
      </trkpt>
      <trkpt lat="45.77341" lon="4.70739">
        <ele>304.40585</ele>
        <time>2023-07-07T15:03:42.000Z</time>
      </trkpt>
      <trkpt lat="45.77344" lon="4.70734">
        <ele>304.54327</ele>
        <time>2023-07-07T15:03:43.000Z</time>
      </trkpt>
      <trkpt lat="45.77346" lon="4.70728">
        <ele>304.65723</ele>
        <time>2023-07-07T15:03:44.000Z</time>
      </trkpt>
      <trkpt lat="45.77347" lon="4.70723">
        <ele>304.75946</ele>
        <time>2023-07-07T15:03:45.000Z</time>
      </trkpt>
      <trkpt lat="45.77348" lon="4.70717">
        <ele>304.88995</ele>
        <time>2023-07-07T15:03:46.000Z</time>
      </trkpt>
      <trkpt lat="45.77349" lon="4.70711">
        <ele>304.97089</ele>
        <time>2023-07-07T15:03:47.000Z</time>
      </trkpt>
      <trkpt lat="45.7735" lon="4.70705">
        <ele>305.09351</ele>
        <time>2023-07-07T15:03:48.000Z</time>
      </trkpt>
      <trkpt lat="45.77351" lon="4.70699">
        <ele>305.25766</ele>
        <time>2023-07-07T15:03:49.000Z</time>
      </trkpt>
      <trkpt lat="45.77352" lon="4.70693">
        <ele>305.43512</ele>
        <time>2023-07-07T15:03:50.000Z</time>
      </trkpt>
      <trkpt lat="45.77353" lon="4.70687">
        <ele>305.65698</ele>
        <time>2023-07-07T15:03:51.000Z</time>
      </trkpt>
      <trkpt lat="45.77354" lon="4.70681">
        <ele>305.80472</ele>
        <time>2023-07-07T15:03:52.000Z</time>
      </trkpt>
      <trkpt lat="45.77354" lon="4.70675">
        <ele>305.90396</ele>
        <time>2023-07-07T15:03:53.000Z</time>
      </trkpt>
      <trkpt lat="45.77355" lon="4.70668">
        <ele>305.97443</ele>
        <time>2023-07-07T15:03:54.000Z</time>
      </trkpt>
      <trkpt lat="45.77356" lon="4.70661">
        <ele>306.1127</ele>
        <time>2023-07-07T15:03:55.000Z</time>
      </trkpt>
      <trkpt lat="45.77356" lon="4.70655">
        <ele>306.24411</ele>
        <time>2023-07-07T15:03:56.000Z</time>
      </trkpt>
      <trkpt lat="45.77358" lon="4.70648">
        <ele>306.3454</ele>
        <time>2023-07-07T15:03:57.000Z</time>
      </trkpt>
      <trkpt lat="45.77358" lon="4.70641">
        <ele>306.40378</ele>
        <time>2023-07-07T15:03:58.000Z</time>
      </trkpt>
      <trkpt lat="45.77358" lon="4.70635">
        <ele>306.41583</ele>
        <time>2023-07-07T15:03:59.000Z</time>
      </trkpt>
      <trkpt lat="45.77359" lon="4.70626">
        <ele>306.37814</ele>
        <time>2023-07-07T15:04:00.000Z</time>
      </trkpt>
      <trkpt lat="45.77359" lon="4.70619">
        <ele>306.3233</ele>
        <time>2023-07-07T15:04:01.000Z</time>
      </trkpt>
      <trkpt lat="45.77361" lon="4.70612">
        <ele>306.24387</ele>
        <time>2023-07-07T15:04:02.000Z</time>
      </trkpt>
      <trkpt lat="45.77361" lon="4.70606">
        <ele>306.2674</ele>
        <time>2023-07-07T15:04:03.000Z</time>
      </trkpt>
      <trkpt lat="45.77361" lon="4.70599">
        <ele>306.28024</ele>
        <time>2023-07-07T15:04:04.000Z</time>
      </trkpt>
      <trkpt lat="45.77361" lon="4.70591">
        <ele>306.29062</ele>
        <time>2023-07-07T15:04:05.000Z</time>
      </trkpt>
      <trkpt lat="45.77362" lon="4.70584">
        <ele>306.3071</ele>
        <time>2023-07-07T15:04:06.000Z</time>
      </trkpt>
      <trkpt lat="45.77363" lon="4.70576">
        <ele>306.30414</ele>
        <time>2023-07-07T15:04:07.000Z</time>
      </trkpt>
      <trkpt lat="45.77362" lon="4.70573">
        <ele>306.23016</ele>
        <time>2023-07-07T15:04:08.000Z</time>
      </trkpt>
      <trkpt lat="45.77361" lon="4.70568">
        <ele>306.15161</ele>
        <time>2023-07-07T15:04:09.000Z</time>
      </trkpt>
      <trkpt lat="45.77361" lon="4.70563">
        <ele>306.06805</ele>
        <time>2023-07-07T15:04:10.000Z</time>
      </trkpt>
      <trkpt lat="45.77362" lon="4.7056">
        <ele>305.96472</ele>
        <time>2023-07-07T15:04:11.000Z</time>
      </trkpt>
      <trkpt lat="45.7736" lon="4.70555">
        <ele>305.94397</ele>
        <time>2023-07-07T15:04:12.000Z</time>
      </trkpt>
      <trkpt lat="45.7736" lon="4.70552">
        <ele>306.06897</ele>
        <time>2023-07-07T15:04:13.000Z</time>
      </trkpt>
      <trkpt lat="45.77359" lon="4.70549">
        <ele>306.18756</ele>
        <time>2023-07-07T15:04:14.000Z</time>
      </trkpt>
      <trkpt lat="45.77358" lon="4.70544">
        <ele>306.23938</ele>
        <time>2023-07-07T15:04:15.000Z</time>
      </trkpt>
      <trkpt lat="45.77358" lon="4.7054">
        <ele>306.3053</ele>
        <time>2023-07-07T15:04:16.000Z</time>
      </trkpt>
      <trkpt lat="45.77358" lon="4.70536">
        <ele>306.32889</ele>
        <time>2023-07-07T15:04:17.000Z</time>
      </trkpt>
      <trkpt lat="45.77357" lon="4.70531">
        <ele>306.40179</ele>
        <time>2023-07-07T15:04:18.000Z</time>
      </trkpt>
      <trkpt lat="45.77356" lon="4.70526">
        <ele>306.45746</ele>
        <time>2023-07-07T15:04:19.000Z</time>
      </trkpt>
      <trkpt lat="45.77356" lon="4.70522">
        <ele>306.53833</ele>
        <time>2023-07-07T15:04:20.000Z</time>
      </trkpt>
      <trkpt lat="45.77355" lon="4.70518">
        <ele>306.63025</ele>
        <time>2023-07-07T15:04:21.000Z</time>
      </trkpt>
      <trkpt lat="45.77354" lon="4.70513">
        <ele>306.72864</ele>
        <time>2023-07-07T15:04:22.000Z</time>
      </trkpt>
      <trkpt lat="45.77354" lon="4.70508">
        <ele>306.71365</ele>
        <time>2023-07-07T15:04:23.000Z</time>
      </trkpt>
      <trkpt lat="45.77353" lon="4.70504">
        <ele>306.7019</ele>
        <time>2023-07-07T15:04:24.000Z</time>
      </trkpt>
      <trkpt lat="45.77352" lon="4.705">
        <ele>306.64706</ele>
        <time>2023-07-07T15:04:25.000Z</time>
      </trkpt>
      <trkpt lat="45.77351" lon="4.70496">
        <ele>306.53299</ele>
        <time>2023-07-07T15:04:26.000Z</time>
      </trkpt>
      <trkpt lat="45.7735" lon="4.70491">
        <ele>306.43707</ele>
        <time>2023-07-07T15:04:27.000Z</time>
      </trkpt>
      <trkpt lat="45.7735" lon="4.70487">
        <ele>306.4968</ele>
        <time>2023-07-07T15:04:28.000Z</time>
      </trkpt>
      <trkpt lat="45.77351" lon="4.70483">
        <ele>306.54712</ele>
        <time>2023-07-07T15:04:29.000Z</time>
      </trkpt>
      <trkpt lat="45.77352" lon="4.70479">
        <ele>306.60657</ele>
        <time>2023-07-07T15:04:30.000Z</time>
      </trkpt>
      <trkpt lat="45.77354" lon="4.70475">
        <ele>306.69781</ele>
        <time>2023-07-07T15:04:31.000Z</time>
      </trkpt>
      <trkpt lat="45.77355" lon="4.70472">
        <ele>306.78119</ele>
        <time>2023-07-07T15:04:32.000Z</time>
      </trkpt>
      <trkpt lat="45.77355" lon="4.70467">
        <ele>306.7645</ele>
        <time>2023-07-07T15:04:33.000Z</time>
      </trkpt>
      <trkpt lat="45.77354" lon="4.70462">
        <ele>306.78595</ele>
        <time>2023-07-07T15:04:34.000Z</time>
      </trkpt>
      <trkpt lat="45.77354" lon="4.70458">
        <ele>306.793</ele>
        <time>2023-07-07T15:04:35.000Z</time>
      </trkpt>
      <trkpt lat="45.77355" lon="4.70453">
        <ele>306.76474</ele>
        <time>2023-07-07T15:04:36.000Z</time>
      </trkpt>
      <trkpt lat="45.77355" lon="4.70448">
        <ele>306.80615</ele>
        <time>2023-07-07T15:04:37.000Z</time>
      </trkpt>
      <trkpt lat="45.77355" lon="4.70443">
        <ele>306.85971</ele>
        <time>2023-07-07T15:04:38.000Z</time>
      </trkpt>
      <trkpt lat="45.77355" lon="4.70438">
        <ele>306.97382</ele>
        <time>2023-07-07T15:04:39.000Z</time>
      </trkpt>
      <trkpt lat="45.77354" lon="4.70433">
        <ele>307.08795</ele>
        <time>2023-07-07T15:04:40.000Z</time>
      </trkpt>
      <trkpt lat="45.77354" lon="4.70429">
        <ele>307.18808</ele>
        <time>2023-07-07T15:04:41.000Z</time>
      </trkpt>
      <trkpt lat="45.77353" lon="4.70424">
        <ele>307.31137</ele>
        <time>2023-07-07T15:04:42.000Z</time>
      </trkpt>
      <trkpt lat="45.77351" lon="4.70419">
        <ele>307.44128</ele>
        <time>2023-07-07T15:04:43.000Z</time>
      </trkpt>
      <trkpt lat="45.77349" lon="4.70415">
        <ele>307.58444</ele>
        <time>2023-07-07T15:04:44.000Z</time>
      </trkpt>
      <trkpt lat="45.77346" lon="4.70412">
        <ele>307.76083</ele>
        <time>2023-07-07T15:04:45.000Z</time>
      </trkpt>
      <trkpt lat="45.77343" lon="4.70409">
        <ele>307.97525</ele>
        <time>2023-07-07T15:04:46.000Z</time>
      </trkpt>
      <trkpt lat="45.7734" lon="4.70408">
        <ele>308.20251</ele>
        <time>2023-07-07T15:04:47.000Z</time>
      </trkpt>
      <trkpt lat="45.77337" lon="4.70409">
        <ele>308.24927</ele>
        <time>2023-07-07T15:04:48.000Z</time>
      </trkpt>
      <trkpt lat="45.77333" lon="4.70409">
        <ele>308.27411</ele>
        <time>2023-07-07T15:04:49.000Z</time>
      </trkpt>
      <trkpt lat="45.7733" lon="4.7041">
        <ele>308.3078</ele>
        <time>2023-07-07T15:04:50.000Z</time>
      </trkpt>
      <trkpt lat="45.77326" lon="4.70411">
        <ele>308.3013</ele>
        <time>2023-07-07T15:04:51.000Z</time>
      </trkpt>
      <trkpt lat="45.77323" lon="4.7041">
        <ele>308.4086</ele>
        <time>2023-07-07T15:04:52.000Z</time>
      </trkpt>
      <trkpt lat="45.77319" lon="4.70409">
        <ele>308.47821</ele>
        <time>2023-07-07T15:04:53.000Z</time>
      </trkpt>
      <trkpt lat="45.77316" lon="4.70406">
        <ele>308.55023</ele>
        <time>2023-07-07T15:04:54.000Z</time>
      </trkpt>
      <trkpt lat="45.77313" lon="4.70404">
        <ele>308.63803</ele>
        <time>2023-07-07T15:04:55.000Z</time>
      </trkpt>
      <trkpt lat="45.7731" lon="4.70401">
        <ele>308.75098</ele>
        <time>2023-07-07T15:04:56.000Z</time>
      </trkpt>
      <trkpt lat="45.77307" lon="4.70399">
        <ele>308.85785</ele>
        <time>2023-07-07T15:04:57.000Z</time>
      </trkpt>
      <trkpt lat="45.77304" lon="4.70398">
        <ele>308.93842</ele>
        <time>2023-07-07T15:04:58.000Z</time>
      </trkpt>
      <trkpt lat="45.77301" lon="4.70395">
        <ele>309.02695</ele>
        <time>2023-07-07T15:04:59.000Z</time>
      </trkpt>
      <trkpt lat="45.77297" lon="4.70394">
        <ele>309.12384</ele>
        <time>2023-07-07T15:05:00.000Z</time>
      </trkpt>
      <trkpt lat="45.77294" lon="4.70391">
        <ele>309.22516</ele>
        <time>2023-07-07T15:05:01.000Z</time>
      </trkpt>
      <trkpt lat="45.7729" lon="4.70389">
        <ele>309.30951</ele>
        <time>2023-07-07T15:05:02.000Z</time>
      </trkpt>
      <trkpt lat="45.77287" lon="4.70387">
        <ele>309.41193</ele>
        <time>2023-07-07T15:05:03.000Z</time>
      </trkpt>
      <trkpt lat="45.77284" lon="4.70385">
        <ele>309.55756</ele>
        <time>2023-07-07T15:05:04.000Z</time>
      </trkpt>
      <trkpt lat="45.77281" lon="4.70383">
        <ele>309.68246</ele>
        <time>2023-07-07T15:05:05.000Z</time>
      </trkpt>
      <trkpt lat="45.77278" lon="4.70381">
        <ele>309.80676</ele>
        <time>2023-07-07T15:05:06.000Z</time>
      </trkpt>
      <trkpt lat="45.77274" lon="4.7038">
        <ele>309.92206</ele>
        <time>2023-07-07T15:05:07.000Z</time>
      </trkpt>
      <trkpt lat="45.77271" lon="4.70378">
        <ele>310.1088</ele>
        <time>2023-07-07T15:05:08.000Z</time>
      </trkpt>
      <trkpt lat="45.77267" lon="4.70376">
        <ele>310.32083</ele>
        <time>2023-07-07T15:05:09.000Z</time>
      </trkpt>
      <trkpt lat="45.77264" lon="4.70373">
        <ele>310.49344</ele>
        <time>2023-07-07T15:05:10.000Z</time>
      </trkpt>
      <trkpt lat="45.7726" lon="4.70371">
        <ele>310.70264</ele>
        <time>2023-07-07T15:05:11.000Z</time>
      </trkpt>
      <trkpt lat="45.77257" lon="4.70369">
        <ele>310.79691</ele>
        <time>2023-07-07T15:05:12.000Z</time>
      </trkpt>
      <trkpt lat="45.77254" lon="4.70367">
        <ele>310.94223</ele>
        <time>2023-07-07T15:05:13.000Z</time>
      </trkpt>
      <trkpt lat="45.7725" lon="4.70365">
        <ele>310.96317</ele>
        <time>2023-07-07T15:05:14.000Z</time>
      </trkpt>
      <trkpt lat="45.77247" lon="4.70363">
        <ele>310.95605</ele>
        <time>2023-07-07T15:05:15.000Z</time>
      </trkpt>
      <trkpt lat="45.77243" lon="4.70361">
        <ele>310.89142</ele>
        <time>2023-07-07T15:05:16.000Z</time>
      </trkpt>
      <trkpt lat="45.7724" lon="4.70358">
        <ele>310.98071</ele>
        <time>2023-07-07T15:05:17.000Z</time>
      </trkpt>
      <trkpt lat="45.77236" lon="4.70356">
        <ele>311.06195</ele>
        <time>2023-07-07T15:05:18.000Z</time>
      </trkpt>
      <trkpt lat="45.77233" lon="4.70353">
        <ele>311.14349</ele>
        <time>2023-07-07T15:05:19.000Z</time>
      </trkpt>
      <trkpt lat="45.77229" lon="4.7035">
        <ele>311.23743</ele>
        <time>2023-07-07T15:05:20.000Z</time>
      </trkpt>
      <trkpt lat="45.77225" lon="4.70348">
        <ele>311.34195</ele>
        <time>2023-07-07T15:05:21.000Z</time>
      </trkpt>
      <trkpt lat="45.77222" lon="4.70347">
        <ele>311.44803</ele>
        <time>2023-07-07T15:05:22.000Z</time>
      </trkpt>
      <trkpt lat="45.77218" lon="4.70345">
        <ele>311.54681</ele>
        <time>2023-07-07T15:05:23.000Z</time>
      </trkpt>
      <trkpt lat="45.77214" lon="4.70343">
        <ele>311.62079</ele>
        <time>2023-07-07T15:05:24.000Z</time>
      </trkpt>
      <trkpt lat="45.77211" lon="4.7034">
        <ele>311.69296</ele>
        <time>2023-07-07T15:05:25.000Z</time>
      </trkpt>
      <trkpt lat="45.77207" lon="4.70338">
        <ele>311.74442</ele>
        <time>2023-07-07T15:05:26.000Z</time>
      </trkpt>
      <trkpt lat="45.77203" lon="4.70336">
        <ele>311.80835</ele>
        <time>2023-07-07T15:05:27.000Z</time>
      </trkpt>
      <trkpt lat="45.77199" lon="4.70334">
        <ele>311.88638</ele>
        <time>2023-07-07T15:05:28.000Z</time>
      </trkpt>
      <trkpt lat="45.77195" lon="4.70331">
        <ele>311.98138</ele>
        <time>2023-07-07T15:05:29.000Z</time>
      </trkpt>
      <trkpt lat="45.77191" lon="4.70329">
        <ele>312.07315</ele>
        <time>2023-07-07T15:05:30.000Z</time>
      </trkpt>
      <trkpt lat="45.77187" lon="4.70327">
        <ele>312.1644</ele>
        <time>2023-07-07T15:05:31.000Z</time>
      </trkpt>
      <trkpt lat="45.77183" lon="4.70324">
        <ele>312.17038</ele>
        <time>2023-07-07T15:05:32.000Z</time>
      </trkpt>
      <trkpt lat="45.77178" lon="4.70322">
        <ele>312.11786</ele>
        <time>2023-07-07T15:05:33.000Z</time>
      </trkpt>
      <trkpt lat="45.77174" lon="4.70319">
        <ele>312.16064</ele>
        <time>2023-07-07T15:05:34.000Z</time>
      </trkpt>
      <trkpt lat="45.7717" lon="4.70317">
        <ele>312.40402</ele>
        <time>2023-07-07T15:05:35.000Z</time>
      </trkpt>
      <trkpt lat="45.77166" lon="4.70315">
        <ele>312.67203</ele>
        <time>2023-07-07T15:05:36.000Z</time>
      </trkpt>
      <trkpt lat="45.77161" lon="4.70312">
        <ele>312.7684</ele>
        <time>2023-07-07T15:05:37.000Z</time>
      </trkpt>
      <trkpt lat="45.77156" lon="4.70309">
        <ele>312.86472</ele>
        <time>2023-07-07T15:05:38.000Z</time>
      </trkpt>
      <trkpt lat="45.77152" lon="4.70306">
        <ele>312.95102</ele>
        <time>2023-07-07T15:05:39.000Z</time>
      </trkpt>
      <trkpt lat="45.77148" lon="4.70303">
        <ele>313.00702</ele>
        <time>2023-07-07T15:05:40.000Z</time>
      </trkpt>
      <trkpt lat="45.77144" lon="4.70301">
        <ele>312.94122</ele>
        <time>2023-07-07T15:05:41.000Z</time>
      </trkpt>
      <trkpt lat="45.7714" lon="4.70298">
        <ele>312.84885</ele>
        <time>2023-07-07T15:05:42.000Z</time>
      </trkpt>
      <trkpt lat="45.77136" lon="4.70295">
        <ele>312.68552</ele>
        <time>2023-07-07T15:05:43.000Z</time>
      </trkpt>
      <trkpt lat="45.77132" lon="4.70291">
        <ele>312.68213</ele>
        <time>2023-07-07T15:05:44.000Z</time>
      </trkpt>
      <trkpt lat="45.77128" lon="4.70287">
        <ele>312.67242</ele>
        <time>2023-07-07T15:05:45.000Z</time>
      </trkpt>
      <trkpt lat="45.77126" lon="4.70281">
        <ele>312.69135</ele>
        <time>2023-07-07T15:05:46.000Z</time>
      </trkpt>
      <trkpt lat="45.77125" lon="4.70273">
        <ele>312.69711</ele>
        <time>2023-07-07T15:05:47.000Z</time>
      </trkpt>
      <trkpt lat="45.77126" lon="4.70266">
        <ele>312.69775</ele>
        <time>2023-07-07T15:05:48.000Z</time>
      </trkpt>
      <trkpt lat="45.77127" lon="4.70259">
        <ele>312.69263</ele>
        <time>2023-07-07T15:05:49.000Z</time>
      </trkpt>
      <trkpt lat="45.77128" lon="4.70252">
        <ele>312.71616</ele>
        <time>2023-07-07T15:05:50.000Z</time>
      </trkpt>
      <trkpt lat="45.77129" lon="4.70246">
        <ele>312.70941</ele>
        <time>2023-07-07T15:05:51.000Z</time>
      </trkpt>
      <trkpt lat="45.7713" lon="4.70239">
        <ele>312.79248</ele>
        <time>2023-07-07T15:05:52.000Z</time>
      </trkpt>
      <trkpt lat="45.77132" lon="4.70233">
        <ele>312.8985</ele>
        <time>2023-07-07T15:05:53.000Z</time>
      </trkpt>
      <trkpt lat="45.77132" lon="4.70226">
        <ele>313.04657</ele>
        <time>2023-07-07T15:05:54.000Z</time>
      </trkpt>
      <trkpt lat="45.77133" lon="4.7022">
        <ele>313.02246</ele>
        <time>2023-07-07T15:05:55.000Z</time>
      </trkpt>
      <trkpt lat="45.77133" lon="4.70214">
        <ele>313.01389</ele>
        <time>2023-07-07T15:05:56.000Z</time>
      </trkpt>
      <trkpt lat="45.77134" lon="4.70206">
        <ele>312.94077</ele>
        <time>2023-07-07T15:05:57.000Z</time>
      </trkpt>
      <trkpt lat="45.77136" lon="4.70199">
        <ele>312.841</ele>
        <time>2023-07-07T15:05:58.000Z</time>
      </trkpt>
      <trkpt lat="45.77137" lon="4.70191">
        <ele>312.97992</ele>
        <time>2023-07-07T15:05:59.000Z</time>
      </trkpt>
      <trkpt lat="45.77138" lon="4.70183">
        <ele>313.14313</ele>
        <time>2023-07-07T15:06:00.000Z</time>
      </trkpt>
      <trkpt lat="45.77138" lon="4.70177">
        <ele>313.49466</ele>
        <time>2023-07-07T15:06:01.000Z</time>
      </trkpt>
      <trkpt lat="45.77137" lon="4.70171">
        <ele>313.87943</ele>
        <time>2023-07-07T15:06:02.000Z</time>
      </trkpt>
      <trkpt lat="45.77137" lon="4.70164">
        <ele>314.3414</ele>
        <time>2023-07-07T15:06:03.000Z</time>
      </trkpt>
      <trkpt lat="45.77137" lon="4.70157">
        <ele>314.64801</ele>
        <time>2023-07-07T15:06:04.000Z</time>
      </trkpt>
      <trkpt lat="45.77138" lon="4.7015">
        <ele>314.97327</ele>
        <time>2023-07-07T15:06:05.000Z</time>
      </trkpt>
      <trkpt lat="45.77138" lon="4.70144">
        <ele>315.29956</ele>
        <time>2023-07-07T15:06:06.000Z</time>
      </trkpt>
      <trkpt lat="45.77138" lon="4.70137">
        <ele>315.65424</ele>
        <time>2023-07-07T15:06:07.000Z</time>
      </trkpt>
      <trkpt lat="45.77138" lon="4.70131">
        <ele>316.01901</ele>
        <time>2023-07-07T15:06:08.000Z</time>
      </trkpt>
      <trkpt lat="45.77139" lon="4.70124">
        <ele>316.38821</ele>
        <time>2023-07-07T15:06:09.000Z</time>
      </trkpt>
      <trkpt lat="45.77139" lon="4.70117">
        <ele>316.73041</ele>
        <time>2023-07-07T15:06:10.000Z</time>
      </trkpt>
      <trkpt lat="45.77138" lon="4.70111">
        <ele>317.07809</ele>
        <time>2023-07-07T15:06:11.000Z</time>
      </trkpt>
      <trkpt lat="45.77138" lon="4.70105">
        <ele>317.39691</ele>
        <time>2023-07-07T15:06:12.000Z</time>
      </trkpt>
      <trkpt lat="45.77139" lon="4.70099">
        <ele>317.73624</ele>
        <time>2023-07-07T15:06:13.000Z</time>
      </trkpt>
      <trkpt lat="45.7714" lon="4.70092">
        <ele>318.07294</ele>
        <time>2023-07-07T15:06:14.000Z</time>
      </trkpt>
      <trkpt lat="45.77141" lon="4.70086">
        <ele>318.37631</ele>
        <time>2023-07-07T15:06:15.000Z</time>
      </trkpt>
      <trkpt lat="45.77141" lon="4.7008">
        <ele>318.70038</ele>
        <time>2023-07-07T15:06:16.000Z</time>
      </trkpt>
      <trkpt lat="45.77141" lon="4.70074">
        <ele>319.12744</ele>
        <time>2023-07-07T15:06:17.000Z</time>
      </trkpt>
      <trkpt lat="45.77141" lon="4.70068">
        <ele>319.62415</ele>
        <time>2023-07-07T15:06:18.000Z</time>
      </trkpt>
      <trkpt lat="45.77142" lon="4.70062">
        <ele>319.86298</ele>
        <time>2023-07-07T15:06:19.000Z</time>
      </trkpt>
      <trkpt lat="45.77143" lon="4.70056">
        <ele>320.07611</ele>
        <time>2023-07-07T15:06:20.000Z</time>
      </trkpt>
      <trkpt lat="45.77143" lon="4.7005">
        <ele>320.23929</ele>
        <time>2023-07-07T15:06:21.000Z</time>
      </trkpt>
      <trkpt lat="45.77144" lon="4.70044">
        <ele>320.40704</ele>
        <time>2023-07-07T15:06:22.000Z</time>
      </trkpt>
      <trkpt lat="45.77144" lon="4.70038">
        <ele>320.57236</ele>
        <time>2023-07-07T15:06:23.000Z</time>
      </trkpt>
      <trkpt lat="45.77145" lon="4.70031">
        <ele>320.73245</ele>
        <time>2023-07-07T15:06:24.000Z</time>
      </trkpt>
      <trkpt lat="45.77146" lon="4.70025">
        <ele>320.86264</ele>
        <time>2023-07-07T15:06:25.000Z</time>
      </trkpt>
      <trkpt lat="45.77147" lon="4.70019">
        <ele>320.97653</ele>
        <time>2023-07-07T15:06:26.000Z</time>
      </trkpt>
      <trkpt lat="45.77148" lon="4.70014">
        <ele>321.07501</ele>
        <time>2023-07-07T15:06:27.000Z</time>
      </trkpt>
      <trkpt lat="45.77148" lon="4.70008">
        <ele>321.18115</ele>
        <time>2023-07-07T15:06:28.000Z</time>
      </trkpt>
      <trkpt lat="45.77149" lon="4.70002">
        <ele>321.29947</ele>
        <time>2023-07-07T15:06:29.000Z</time>
      </trkpt>
      <trkpt lat="45.77149" lon="4.69996">
        <ele>321.43954</ele>
        <time>2023-07-07T15:06:30.000Z</time>
      </trkpt>
      <trkpt lat="45.77149" lon="4.69992">
        <ele>321.62036</ele>
        <time>2023-07-07T15:06:31.000Z</time>
      </trkpt>
      <trkpt lat="45.7715" lon="4.69987">
        <ele>321.82724</ele>
        <time>2023-07-07T15:06:32.000Z</time>
      </trkpt>
      <trkpt lat="45.7715" lon="4.69982">
        <ele>322.06082</ele>
        <time>2023-07-07T15:06:33.000Z</time>
      </trkpt>
      <trkpt lat="45.77151" lon="4.69977">
        <ele>322.27795</ele>
        <time>2023-07-07T15:06:34.000Z</time>
      </trkpt>
      <trkpt lat="45.77151" lon="4.69972">
        <ele>322.5145</ele>
        <time>2023-07-07T15:06:35.000Z</time>
      </trkpt>
      <trkpt lat="45.77152" lon="4.69967">
        <ele>322.75452</ele>
        <time>2023-07-07T15:06:36.000Z</time>
      </trkpt>
      <trkpt lat="45.77153" lon="4.69962">
        <ele>322.97989</ele>
        <time>2023-07-07T15:06:37.000Z</time>
      </trkpt>
      <trkpt lat="45.77153" lon="4.69958">
        <ele>323.18582</ele>
        <time>2023-07-07T15:06:38.000Z</time>
      </trkpt>
      <trkpt lat="45.77154" lon="4.69954">
        <ele>323.42374</ele>
        <time>2023-07-07T15:06:39.000Z</time>
      </trkpt>
      <trkpt lat="45.77154" lon="4.69949">
        <ele>323.67136</ele>
        <time>2023-07-07T15:06:40.000Z</time>
      </trkpt>
      <trkpt lat="45.77154" lon="4.69945">
        <ele>323.90927</ele>
        <time>2023-07-07T15:06:41.000Z</time>
      </trkpt>
      <trkpt lat="45.77155" lon="4.6994">
        <ele>324.15146</ele>
        <time>2023-07-07T15:06:42.000Z</time>
      </trkpt>
      <trkpt lat="45.77155" lon="4.69935">
        <ele>324.36765</ele>
        <time>2023-07-07T15:06:43.000Z</time>
      </trkpt>
      <trkpt lat="45.77156" lon="4.69931">
        <ele>324.58636</ele>
        <time>2023-07-07T15:06:44.000Z</time>
      </trkpt>
      <trkpt lat="45.77156" lon="4.69927">
        <ele>324.86621</ele>
        <time>2023-07-07T15:06:45.000Z</time>
      </trkpt>
      <trkpt lat="45.77157" lon="4.69922">
        <ele>325.14618</ele>
        <time>2023-07-07T15:06:46.000Z</time>
      </trkpt>
      <trkpt lat="45.77157" lon="4.69918">
        <ele>325.44296</ele>
        <time>2023-07-07T15:06:47.000Z</time>
      </trkpt>
      <trkpt lat="45.77157" lon="4.69914">
        <ele>325.72278</ele>
        <time>2023-07-07T15:06:48.000Z</time>
      </trkpt>
      <trkpt lat="45.77157" lon="4.6991">
        <ele>325.93683</ele>
        <time>2023-07-07T15:06:49.000Z</time>
      </trkpt>
      <trkpt lat="45.77158" lon="4.69905">
        <ele>326.13434</ele>
        <time>2023-07-07T15:06:50.000Z</time>
      </trkpt>
      <trkpt lat="45.77158" lon="4.69901">
        <ele>326.29303</ele>
        <time>2023-07-07T15:06:51.000Z</time>
      </trkpt>
      <trkpt lat="45.77159" lon="4.69896">
        <ele>326.45255</ele>
        <time>2023-07-07T15:06:52.000Z</time>
      </trkpt>
      <trkpt lat="45.77159" lon="4.69892">
        <ele>326.4465</ele>
        <time>2023-07-07T15:06:53.000Z</time>
      </trkpt>
      <trkpt lat="45.77159" lon="4.69888">
        <ele>326.61212</ele>
        <time>2023-07-07T15:06:54.000Z</time>
      </trkpt>
      <trkpt lat="45.7716" lon="4.69883">
        <ele>326.82864</ele>
        <time>2023-07-07T15:06:55.000Z</time>
      </trkpt>
      <trkpt lat="45.7716" lon="4.69878">
        <ele>327.16589</ele>
        <time>2023-07-07T15:06:56.000Z</time>
      </trkpt>
      <trkpt lat="45.7716" lon="4.69874">
        <ele>327.46545</ele>
        <time>2023-07-07T15:06:57.000Z</time>
      </trkpt>
      <trkpt lat="45.7716" lon="4.69869">
        <ele>327.78436</ele>
        <time>2023-07-07T15:06:58.000Z</time>
      </trkpt>
      <trkpt lat="45.77161" lon="4.69865">
        <ele>328.09055</ele>
        <time>2023-07-07T15:06:59.000Z</time>
      </trkpt>
      <trkpt lat="45.77161" lon="4.6986">
        <ele>328.27106</ele>
        <time>2023-07-07T15:07:00.000Z</time>
      </trkpt>
      <trkpt lat="45.77162" lon="4.69856">
        <ele>328.44061</ele>
        <time>2023-07-07T15:07:01.000Z</time>
      </trkpt>
      <trkpt lat="45.77162" lon="4.69851">
        <ele>328.60233</ele>
        <time>2023-07-07T15:07:02.000Z</time>
      </trkpt>
      <trkpt lat="45.77162" lon="4.69847">
        <ele>328.78247</ele>
        <time>2023-07-07T15:07:03.000Z</time>
      </trkpt>
      <trkpt lat="45.77162" lon="4.69842">
        <ele>328.94257</ele>
        <time>2023-07-07T15:07:04.000Z</time>
      </trkpt>
      <trkpt lat="45.77162" lon="4.69837">
        <ele>329.06921</ele>
        <time>2023-07-07T15:07:05.000Z</time>
      </trkpt>
      <trkpt lat="45.77163" lon="4.69833">
        <ele>329.18204</ele>
        <time>2023-07-07T15:07:06.000Z</time>
      </trkpt>
      <trkpt lat="45.77163" lon="4.69828">
        <ele>329.28128</ele>
        <time>2023-07-07T15:07:07.000Z</time>
      </trkpt>
      <trkpt lat="45.77163" lon="4.69824">
        <ele>329.38153</ele>
        <time>2023-07-07T15:07:08.000Z</time>
      </trkpt>
      <trkpt lat="45.77163" lon="4.69819">
        <ele>329.51355</ele>
        <time>2023-07-07T15:07:09.000Z</time>
      </trkpt>
      <trkpt lat="45.77163" lon="4.69815">
        <ele>329.68228</ele>
        <time>2023-07-07T15:07:10.000Z</time>
      </trkpt>
      <trkpt lat="45.77161" lon="4.69812">
        <ele>329.86932</ele>
        <time>2023-07-07T15:07:11.000Z</time>
      </trkpt>
      <trkpt lat="45.77158" lon="4.6981">
        <ele>330.04358</ele>
        <time>2023-07-07T15:07:12.000Z</time>
      </trkpt>
      <trkpt lat="45.77155" lon="4.69809">
        <ele>330.358</ele>
        <time>2023-07-07T15:07:13.000Z</time>
      </trkpt>
      <trkpt lat="45.77152" lon="4.69809">
        <ele>330.48016</ele>
        <time>2023-07-07T15:07:14.000Z</time>
      </trkpt>
      <trkpt lat="45.77149" lon="4.69809">
        <ele>330.54401</ele>
        <time>2023-07-07T15:07:15.000Z</time>
      </trkpt>
      <trkpt lat="45.77145" lon="4.69808">
        <ele>330.46411</ele>
        <time>2023-07-07T15:07:16.000Z</time>
      </trkpt>
      <trkpt lat="45.77142" lon="4.69808">
        <ele>330.40887</ele>
        <time>2023-07-07T15:07:17.000Z</time>
      </trkpt>
      <trkpt lat="45.77139" lon="4.69808">
        <ele>330.3125</ele>
        <time>2023-07-07T15:07:18.000Z</time>
      </trkpt>
      <trkpt lat="45.77135" lon="4.69808">
        <ele>330.20688</ele>
        <time>2023-07-07T15:07:19.000Z</time>
      </trkpt>
      <trkpt lat="45.77132" lon="4.69807">
        <ele>330.25067</ele>
        <time>2023-07-07T15:07:20.000Z</time>
      </trkpt>
      <trkpt lat="45.77129" lon="4.69807">
        <ele>330.31082</ele>
        <time>2023-07-07T15:07:21.000Z</time>
      </trkpt>
      <trkpt lat="45.77126" lon="4.69806">
        <ele>330.37506</ele>
        <time>2023-07-07T15:07:22.000Z</time>
      </trkpt>
      <trkpt lat="45.77122" lon="4.69805">
        <ele>330.4003</ele>
        <time>2023-07-07T15:07:23.000Z</time>
      </trkpt>
      <trkpt lat="45.77119" lon="4.69804">
        <ele>330.42114</ele>
        <time>2023-07-07T15:07:24.000Z</time>
      </trkpt>
      <trkpt lat="45.77115" lon="4.69803">
        <ele>330.45566</ele>
        <time>2023-07-07T15:07:25.000Z</time>
      </trkpt>
      <trkpt lat="45.77112" lon="4.69802">
        <ele>330.51114</ele>
        <time>2023-07-07T15:07:26.000Z</time>
      </trkpt>
      <trkpt lat="45.77109" lon="4.69802">
        <ele>330.56403</ele>
        <time>2023-07-07T15:07:27.000Z</time>
      </trkpt>
      <trkpt lat="45.77106" lon="4.69801">
        <ele>330.60593</ele>
        <time>2023-07-07T15:07:28.000Z</time>
      </trkpt>
      <trkpt lat="45.77103" lon="4.698">
        <ele>330.66922</ele>
        <time>2023-07-07T15:07:29.000Z</time>
      </trkpt>
      <trkpt lat="45.771" lon="4.698">
        <ele>330.7063</ele>
        <time>2023-07-07T15:07:30.000Z</time>
      </trkpt>
      <trkpt lat="45.77097" lon="4.698">
        <ele>330.73065</ele>
        <time>2023-07-07T15:07:31.000Z</time>
      </trkpt>
      <trkpt lat="45.77094" lon="4.69799">
        <ele>330.75677</ele>
        <time>2023-07-07T15:07:32.000Z</time>
      </trkpt>
      <trkpt lat="45.77091" lon="4.69799">
        <ele>330.80286</ele>
        <time>2023-07-07T15:07:33.000Z</time>
      </trkpt>
      <trkpt lat="45.77088" lon="4.69799">
        <ele>330.85391</ele>
        <time>2023-07-07T15:07:34.000Z</time>
      </trkpt>
      <trkpt lat="45.77085" lon="4.69799">
        <ele>330.94455</ele>
        <time>2023-07-07T15:07:35.000Z</time>
      </trkpt>
      <trkpt lat="45.77082" lon="4.69798">
        <ele>331.05786</ele>
        <time>2023-07-07T15:07:36.000Z</time>
      </trkpt>
      <trkpt lat="45.77079" lon="4.69797">
        <ele>331.15189</ele>
        <time>2023-07-07T15:07:37.000Z</time>
      </trkpt>
      <trkpt lat="45.77076" lon="4.69797">
        <ele>331.2879</ele>
        <time>2023-07-07T15:07:38.000Z</time>
      </trkpt>
      <trkpt lat="45.77072" lon="4.69796">
        <ele>331.44354</ele>
        <time>2023-07-07T15:07:39.000Z</time>
      </trkpt>
      <trkpt lat="45.77069" lon="4.69795">
        <ele>331.59683</ele>
        <time>2023-07-07T15:07:40.000Z</time>
      </trkpt>
      <trkpt lat="45.77065" lon="4.69794">
        <ele>331.71085</ele>
        <time>2023-07-07T15:07:41.000Z</time>
      </trkpt>
      <trkpt lat="45.77062" lon="4.69793">
        <ele>331.8269</ele>
        <time>2023-07-07T15:07:42.000Z</time>
      </trkpt>
      <trkpt lat="45.77059" lon="4.69792">
        <ele>332.01166</ele>
        <time>2023-07-07T15:07:43.000Z</time>
      </trkpt>
      <trkpt lat="45.77055" lon="4.69791">
        <ele>332.22043</ele>
        <time>2023-07-07T15:07:44.000Z</time>
      </trkpt>
      <trkpt lat="45.77052" lon="4.6979">
        <ele>332.40308</ele>
        <time>2023-07-07T15:07:45.000Z</time>
      </trkpt>
      <trkpt lat="45.77049" lon="4.69789">
        <ele>332.56451</ele>
        <time>2023-07-07T15:07:46.000Z</time>
      </trkpt>
      <trkpt lat="45.77045" lon="4.69788">
        <ele>332.72726</ele>
        <time>2023-07-07T15:07:47.000Z</time>
      </trkpt>
      <trkpt lat="45.77042" lon="4.69786">
        <ele>332.74722</ele>
        <time>2023-07-07T15:07:48.000Z</time>
      </trkpt>
      <trkpt lat="45.77039" lon="4.69785">
        <ele>332.7395</ele>
        <time>2023-07-07T15:07:49.000Z</time>
      </trkpt>
      <trkpt lat="45.77035" lon="4.69784">
        <ele>332.74744</ele>
        <time>2023-07-07T15:07:50.000Z</time>
      </trkpt>
      <trkpt lat="45.77032" lon="4.69783">
        <ele>332.78705</ele>
        <time>2023-07-07T15:07:51.000Z</time>
      </trkpt>
      <trkpt lat="45.77028" lon="4.69782">
        <ele>332.76154</ele>
        <time>2023-07-07T15:07:52.000Z</time>
      </trkpt>
      <trkpt lat="45.77025" lon="4.69781">
        <ele>332.89423</ele>
        <time>2023-07-07T15:07:53.000Z</time>
      </trkpt>
      <trkpt lat="45.77021" lon="4.6978">
        <ele>332.97681</ele>
        <time>2023-07-07T15:07:54.000Z</time>
      </trkpt>
      <trkpt lat="45.77018" lon="4.69779">
        <ele>333.01828</ele>
        <time>2023-07-07T15:07:55.000Z</time>
      </trkpt>
      <trkpt lat="45.77014" lon="4.69778">
        <ele>333.05569</ele>
        <time>2023-07-07T15:07:56.000Z</time>
      </trkpt>
      <trkpt lat="45.77011" lon="4.69777">
        <ele>333.10278</ele>
        <time>2023-07-07T15:07:57.000Z</time>
      </trkpt>
      <trkpt lat="45.77007" lon="4.69777">
        <ele>333.11029</ele>
        <time>2023-07-07T15:07:58.000Z</time>
      </trkpt>
      <trkpt lat="45.77004" lon="4.69776">
        <ele>333.11011</ele>
        <time>2023-07-07T15:07:59.000Z</time>
      </trkpt>
      <trkpt lat="45.77" lon="4.69775">
        <ele>333.06818</ele>
        <time>2023-07-07T15:08:00.000Z</time>
      </trkpt>
      <trkpt lat="45.76996" lon="4.69774">
        <ele>333.04395</ele>
        <time>2023-07-07T15:08:01.000Z</time>
      </trkpt>
      <trkpt lat="45.76993" lon="4.69772">
        <ele>332.97308</ele>
        <time>2023-07-07T15:08:02.000Z</time>
      </trkpt>
      <trkpt lat="45.76989" lon="4.69771">
        <ele>332.87732</ele>
        <time>2023-07-07T15:08:03.000Z</time>
      </trkpt>
      <trkpt lat="45.76986" lon="4.6977">
        <ele>332.76456</ele>
        <time>2023-07-07T15:08:04.000Z</time>
      </trkpt>
      <trkpt lat="45.76982" lon="4.6977">
        <ele>332.6543</ele>
        <time>2023-07-07T15:08:05.000Z</time>
      </trkpt>
      <trkpt lat="45.76979" lon="4.69769">
        <ele>332.55484</ele>
        <time>2023-07-07T15:08:06.000Z</time>
      </trkpt>
      <trkpt lat="45.76975" lon="4.69769">
        <ele>332.45135</ele>
        <time>2023-07-07T15:08:07.000Z</time>
      </trkpt>
      <trkpt lat="45.76972" lon="4.69767">
        <ele>332.47308</ele>
        <time>2023-07-07T15:08:08.000Z</time>
      </trkpt>
      <trkpt lat="45.76968" lon="4.69766">
        <ele>332.37851</ele>
        <time>2023-07-07T15:08:09.000Z</time>
      </trkpt>
      <trkpt lat="45.76965" lon="4.69765">
        <ele>332.50488</ele>
        <time>2023-07-07T15:08:10.000Z</time>
      </trkpt>
      <trkpt lat="45.76962" lon="4.69763">
        <ele>332.58539</ele>
        <time>2023-07-07T15:08:11.000Z</time>
      </trkpt>
      <trkpt lat="45.76958" lon="4.69762">
        <ele>332.55927</ele>
        <time>2023-07-07T15:08:12.000Z</time>
      </trkpt>
      <trkpt lat="45.76955" lon="4.69761">
        <ele>332.40512</ele>
        <time>2023-07-07T15:08:13.000Z</time>
      </trkpt>
      <trkpt lat="45.76952" lon="4.69759">
        <ele>332.3085</ele>
        <time>2023-07-07T15:08:14.000Z</time>
      </trkpt>
      <trkpt lat="45.76949" lon="4.69757">
        <ele>332.39865</ele>
        <time>2023-07-07T15:08:15.000Z</time>
      </trkpt>
      <trkpt lat="45.76947" lon="4.69753">
        <ele>332.48358</ele>
        <time>2023-07-07T15:08:16.000Z</time>
      </trkpt>
      <trkpt lat="45.76946" lon="4.69749">
        <ele>332.5766</ele>
        <time>2023-07-07T15:08:17.000Z</time>
      </trkpt>
      <trkpt lat="45.76945" lon="4.69744">
        <ele>332.62482</ele>
        <time>2023-07-07T15:08:18.000Z</time>
      </trkpt>
      <trkpt lat="45.76944" lon="4.69739">
        <ele>332.23569</ele>
        <time>2023-07-07T15:08:19.000Z</time>
      </trkpt>
      <trkpt lat="45.76944" lon="4.69735">
        <ele>331.88654</ele>
        <time>2023-07-07T15:08:20.000Z</time>
      </trkpt>
      <trkpt lat="45.76944" lon="4.69731">
        <ele>331.53326</ele>
        <time>2023-07-07T15:08:21.000Z</time>
      </trkpt>
      <trkpt lat="45.76944" lon="4.69726">
        <ele>331.21124</ele>
        <time>2023-07-07T15:08:22.000Z</time>
      </trkpt>
      <trkpt lat="45.76944" lon="4.69722">
        <ele>330.88885</ele>
        <time>2023-07-07T15:08:23.000Z</time>
      </trkpt>
      <trkpt lat="45.76944" lon="4.69718">
        <ele>330.995</ele>
        <time>2023-07-07T15:08:24.000Z</time>
      </trkpt>
      <trkpt lat="45.76944" lon="4.69714">
        <ele>331.20929</ele>
        <time>2023-07-07T15:08:25.000Z</time>
      </trkpt>
      <trkpt lat="45.76944" lon="4.6971">
        <ele>331.42078</ele>
        <time>2023-07-07T15:08:26.000Z</time>
      </trkpt>
      <trkpt lat="45.76944" lon="4.69706">
        <ele>331.65305</ele>
        <time>2023-07-07T15:08:27.000Z</time>
      </trkpt>
      <trkpt lat="45.76944" lon="4.69701">
        <ele>331.98337</ele>
        <time>2023-07-07T15:08:28.000Z</time>
      </trkpt>
      <trkpt lat="45.76943" lon="4.69697">
        <ele>332.4823</ele>
        <time>2023-07-07T15:08:29.000Z</time>
      </trkpt>
      <trkpt lat="45.76943" lon="4.69693">
        <ele>332.76099</ele>
        <time>2023-07-07T15:08:30.000Z</time>
      </trkpt>
      <trkpt lat="45.76943" lon="4.6969">
        <ele>333.08731</ele>
        <time>2023-07-07T15:08:31.000Z</time>
      </trkpt>
      <trkpt lat="45.76942" lon="4.69686">
        <ele>333.59958</ele>
        <time>2023-07-07T15:08:32.000Z</time>
      </trkpt>
      <trkpt lat="45.76942" lon="4.69683">
        <ele>334.08142</ele>
        <time>2023-07-07T15:08:33.000Z</time>
      </trkpt>
      <trkpt lat="45.76942" lon="4.69679">
        <ele>334.58304</ele>
        <time>2023-07-07T15:08:34.000Z</time>
      </trkpt>
      <trkpt lat="45.76941" lon="4.69676">
        <ele>334.92548</ele>
        <time>2023-07-07T15:08:35.000Z</time>
      </trkpt>
      <trkpt lat="45.76941" lon="4.69673">
        <ele>335.27545</ele>
        <time>2023-07-07T15:08:36.000Z</time>
      </trkpt>
      <trkpt lat="45.76941" lon="4.69669">
        <ele>335.63895</ele>
        <time>2023-07-07T15:08:37.000Z</time>
      </trkpt>
      <trkpt lat="45.7694" lon="4.69666">
        <ele>336.0722</ele>
        <time>2023-07-07T15:08:38.000Z</time>
      </trkpt>
      <trkpt lat="45.7694" lon="4.69662">
        <ele>336.95807</ele>
        <time>2023-07-07T15:08:39.000Z</time>
      </trkpt>
      <trkpt lat="45.7694" lon="4.69659">
        <ele>337.82965</ele>
        <time>2023-07-07T15:08:40.000Z</time>
      </trkpt>
      <trkpt lat="45.76939" lon="4.69655">
        <ele>338.71933</ele>
        <time>2023-07-07T15:08:41.000Z</time>
      </trkpt>
      <trkpt lat="45.76939" lon="4.69652">
        <ele>339.6142</ele>
        <time>2023-07-07T15:08:42.000Z</time>
      </trkpt>
      <trkpt lat="45.76939" lon="4.69648">
        <ele>340.50409</ele>
        <time>2023-07-07T15:08:43.000Z</time>
      </trkpt>
      <trkpt lat="45.76938" lon="4.69645">
        <ele>340.98895</ele>
        <time>2023-07-07T15:08:44.000Z</time>
      </trkpt>
      <trkpt lat="45.76937" lon="4.69641">
        <ele>341.38812</ele>
        <time>2023-07-07T15:08:45.000Z</time>
      </trkpt>
      <trkpt lat="45.76937" lon="4.69638">
        <ele>341.80035</ele>
        <time>2023-07-07T15:08:46.000Z</time>
      </trkpt>
      <trkpt lat="45.76936" lon="4.69634">
        <ele>342.21191</ele>
        <time>2023-07-07T15:08:47.000Z</time>
      </trkpt>
      <trkpt lat="45.76936" lon="4.69631">
        <ele>341.50092</ele>
        <time>2023-07-07T15:08:48.000Z</time>
      </trkpt>
      <trkpt lat="45.76935" lon="4.69628">
        <ele>340.75797</ele>
        <time>2023-07-07T15:08:49.000Z</time>
      </trkpt>
      <trkpt lat="45.76935" lon="4.69625">
        <ele>340.01025</ele>
        <time>2023-07-07T15:08:50.000Z</time>
      </trkpt>
      <trkpt lat="45.76935" lon="4.69621">
        <ele>339.24817</ele>
        <time>2023-07-07T15:08:51.000Z</time>
      </trkpt>
      <trkpt lat="45.76935" lon="4.69618">
        <ele>338.48495</ele>
        <time>2023-07-07T15:08:52.000Z</time>
      </trkpt>
      <trkpt lat="45.76934" lon="4.69614">
        <ele>337.72351</ele>
        <time>2023-07-07T15:08:53.000Z</time>
      </trkpt>
      <trkpt lat="45.76934" lon="4.69611">
        <ele>336.9436</ele>
        <time>2023-07-07T15:08:54.000Z</time>
      </trkpt>
      <trkpt lat="45.76934" lon="4.69607">
        <ele>335.70682</ele>
        <time>2023-07-07T15:08:55.000Z</time>
      </trkpt>
      <trkpt lat="45.76934" lon="4.69604">
        <ele>335.60944</ele>
        <time>2023-07-07T15:08:56.000Z</time>
      </trkpt>
      <trkpt lat="45.76934" lon="4.69601">
        <ele>335.47675</ele>
        <time>2023-07-07T15:08:57.000Z</time>
      </trkpt>
      <trkpt lat="45.76934" lon="4.69598">
        <ele>335.33899</ele>
        <time>2023-07-07T15:08:58.000Z</time>
      </trkpt>
      <trkpt lat="45.76933" lon="4.69595">
        <ele>335.2258</ele>
        <time>2023-07-07T15:08:59.000Z</time>
      </trkpt>
      <trkpt lat="45.76933" lon="4.69592">
        <ele>334.08432</ele>
        <time>2023-07-07T15:09:00.000Z</time>
      </trkpt>
      <trkpt lat="45.76932" lon="4.69589">
        <ele>332.92593</ele>
        <time>2023-07-07T15:09:01.000Z</time>
      </trkpt>
      <trkpt lat="45.76932" lon="4.69586">
        <ele>331.76678</ele>
        <time>2023-07-07T15:09:02.000Z</time>
      </trkpt>
      <trkpt lat="45.76932" lon="4.69583">
        <ele>330.61826</ele>
        <time>2023-07-07T15:09:03.000Z</time>
      </trkpt>
      <trkpt lat="45.76931" lon="4.6958">
        <ele>329.47675</ele>
        <time>2023-07-07T15:09:04.000Z</time>
      </trkpt>
      <trkpt lat="45.7693" lon="4.69577">
        <ele>328.30316</ele>
        <time>2023-07-07T15:09:05.000Z</time>
      </trkpt>
      <trkpt lat="45.7693" lon="4.69574">
        <ele>327.13223</ele>
        <time>2023-07-07T15:09:06.000Z</time>
      </trkpt>
      <trkpt lat="45.76929" lon="4.69571">
        <ele>325.95111</ele>
        <time>2023-07-07T15:09:07.000Z</time>
      </trkpt>
      <trkpt lat="45.7693" lon="4.69568">
        <ele>327.01337</ele>
        <time>2023-07-07T15:09:08.000Z</time>
      </trkpt>
      <trkpt lat="45.7693" lon="4.69565">
        <ele>328.07855</ele>
        <time>2023-07-07T15:09:09.000Z</time>
      </trkpt>
      <trkpt lat="45.7693" lon="4.69562">
        <ele>329.34854</ele>
        <time>2023-07-07T15:09:10.000Z</time>
      </trkpt>
      <trkpt lat="45.7693" lon="4.69559">
        <ele>330.6019</ele>
        <time>2023-07-07T15:09:11.000Z</time>
      </trkpt>
      <trkpt lat="45.7693" lon="4.69557">
        <ele>331.82172</ele>
        <time>2023-07-07T15:09:12.000Z</time>
      </trkpt>
      <trkpt lat="45.7693" lon="4.69554">
        <ele>333.04337</ele>
        <time>2023-07-07T15:09:13.000Z</time>
      </trkpt>
      <trkpt lat="45.7693" lon="4.69551">
        <ele>334.29965</ele>
        <time>2023-07-07T15:09:14.000Z</time>
      </trkpt>
      <trkpt lat="45.76931" lon="4.69548">
        <ele>335.95319</ele>
        <time>2023-07-07T15:09:15.000Z</time>
      </trkpt>
      <trkpt lat="45.76931" lon="4.69544">
        <ele>336.44513</ele>
        <time>2023-07-07T15:09:16.000Z</time>
      </trkpt>
      <trkpt lat="45.76931" lon="4.69541">
        <ele>336.94894</ele>
        <time>2023-07-07T15:09:17.000Z</time>
      </trkpt>
      <trkpt lat="45.7693" lon="4.69538">
        <ele>337.45746</ele>
        <time>2023-07-07T15:09:18.000Z</time>
      </trkpt>
      <trkpt lat="45.7693" lon="4.69534">
        <ele>337.94553</ele>
        <time>2023-07-07T15:09:19.000Z</time>
      </trkpt>
      <trkpt lat="45.7693" lon="4.69531">
        <ele>339.4527</ele>
        <time>2023-07-07T15:09:20.000Z</time>
      </trkpt>
      <trkpt lat="45.7693" lon="4.69528">
        <ele>340.95987</ele>
        <time>2023-07-07T15:09:21.000Z</time>
      </trkpt>
      <trkpt lat="45.76931" lon="4.69524">
        <ele>342.45026</ele>
        <time>2023-07-07T15:09:22.000Z</time>
      </trkpt>
      <trkpt lat="45.76931" lon="4.69521">
        <ele>343.85913</ele>
        <time>2023-07-07T15:09:23.000Z</time>
      </trkpt>
      <trkpt lat="45.76932" lon="4.69518">
        <ele>345.25885</ele>
        <time>2023-07-07T15:09:24.000Z</time>
      </trkpt>
      <trkpt lat="45.76932" lon="4.69515">
        <ele>346.6972</ele>
        <time>2023-07-07T15:09:25.000Z</time>
      </trkpt>
      <trkpt lat="45.76932" lon="4.69511">
        <ele>348.09821</ele>
        <time>2023-07-07T15:09:26.000Z</time>
      </trkpt>
      <trkpt lat="45.76932" lon="4.69508">
        <ele>349.50055</ele>
        <time>2023-07-07T15:09:27.000Z</time>
      </trkpt>
      <trkpt lat="45.76931" lon="4.69505">
        <ele>349.70609</ele>
        <time>2023-07-07T15:09:28.000Z</time>
      </trkpt>
      <trkpt lat="45.76931" lon="4.69502">
        <ele>349.88983</ele>
        <time>2023-07-07T15:09:29.000Z</time>
      </trkpt>
      <trkpt lat="45.7693" lon="4.69497">
        <ele>349.84271</ele>
        <time>2023-07-07T15:09:31.000Z</time>
      </trkpt>
      <trkpt lat="45.76929" lon="4.69495">
        <ele>349.8244</ele>
        <time>2023-07-07T15:09:33.000Z</time>
      </trkpt>
      <trkpt lat="45.76931" lon="4.69494">
        <ele>349.88</ele>
        <time>2023-07-07T15:12:28.000Z</time>
      </trkpt>
      <trkpt lat="45.76934" lon="4.69491">
        <ele>349.86841</ele>
        <time>2023-07-07T15:12:30.000Z</time>
      </trkpt>
      <trkpt lat="45.76934" lon="4.69488">
        <ele>349.81989</ele>
        <time>2023-07-07T15:12:31.000Z</time>
      </trkpt>
      <trkpt lat="45.76934" lon="4.69484">
        <ele>349.26068</ele>
        <time>2023-07-07T15:12:32.000Z</time>
      </trkpt>
      <trkpt lat="45.76934" lon="4.69481">
        <ele>348.7872</ele>
        <time>2023-07-07T15:12:33.000Z</time>
      </trkpt>
      <trkpt lat="45.76934" lon="4.69478">
        <ele>348.33234</ele>
        <time>2023-07-07T15:12:34.000Z</time>
      </trkpt>
      <trkpt lat="45.76934" lon="4.69474">
        <ele>347.86249</ele>
        <time>2023-07-07T15:12:35.000Z</time>
      </trkpt>
      <trkpt lat="45.76934" lon="4.69471">
        <ele>347.39218</ele>
        <time>2023-07-07T15:12:36.000Z</time>
      </trkpt>
      <trkpt lat="45.76934" lon="4.69468">
        <ele>346.96542</ele>
        <time>2023-07-07T15:12:37.000Z</time>
      </trkpt>
      <trkpt lat="45.76934" lon="4.69466">
        <ele>346.53815</ele>
        <time>2023-07-07T15:12:38.000Z</time>
      </trkpt>
      <trkpt lat="45.76934" lon="4.69462">
        <ele>346.13745</ele>
        <time>2023-07-07T15:12:39.000Z</time>
      </trkpt>
      <trkpt lat="45.76934" lon="4.69459">
        <ele>345.64114</ele>
        <time>2023-07-07T15:12:40.000Z</time>
      </trkpt>
      <trkpt lat="45.76934" lon="4.69455">
        <ele>345.11325</ele>
        <time>2023-07-07T15:12:41.000Z</time>
      </trkpt>
      <trkpt lat="45.76934" lon="4.69451">
        <ele>344.48398</ele>
        <time>2023-07-07T15:12:42.000Z</time>
      </trkpt>
      <trkpt lat="45.76934" lon="4.69446">
        <ele>344.17535</ele>
        <time>2023-07-07T15:12:43.000Z</time>
      </trkpt>
      <trkpt lat="45.76935" lon="4.69441">
        <ele>344.04953</ele>
        <time>2023-07-07T15:12:44.000Z</time>
      </trkpt>
      <trkpt lat="45.76935" lon="4.69436">
        <ele>343.85406</ele>
        <time>2023-07-07T15:12:45.000Z</time>
      </trkpt>
      <trkpt lat="45.76936" lon="4.69431">
        <ele>343.67117</ele>
        <time>2023-07-07T15:12:46.000Z</time>
      </trkpt>
      <trkpt lat="45.76936" lon="4.69425">
        <ele>343.54401</ele>
        <time>2023-07-07T15:12:47.000Z</time>
      </trkpt>
      <trkpt lat="45.76937" lon="4.6942">
        <ele>343.3812</ele>
        <time>2023-07-07T15:12:48.000Z</time>
      </trkpt>
      <trkpt lat="45.76937" lon="4.69415">
        <ele>343.15326</ele>
        <time>2023-07-07T15:12:49.000Z</time>
      </trkpt>
      <trkpt lat="45.76938" lon="4.69407">
        <ele>342.95679</ele>
        <time>2023-07-07T15:12:50.000Z</time>
      </trkpt>
      <trkpt lat="45.76938" lon="4.69401">
        <ele>342.74655</ele>
        <time>2023-07-07T15:12:51.000Z</time>
      </trkpt>
      <trkpt lat="45.76938" lon="4.69394">
        <ele>343.10425</ele>
        <time>2023-07-07T15:12:52.000Z</time>
      </trkpt>
      <trkpt lat="45.76939" lon="4.69387">
        <ele>343.35629</ele>
        <time>2023-07-07T15:12:53.000Z</time>
      </trkpt>
      <trkpt lat="45.76939" lon="4.6938">
        <ele>343.60995</ele>
        <time>2023-07-07T15:12:54.000Z</time>
      </trkpt>
      <trkpt lat="45.76939" lon="4.69372">
        <ele>343.84973</ele>
        <time>2023-07-07T15:12:55.000Z</time>
      </trkpt>
      <trkpt lat="45.76939" lon="4.69364">
        <ele>344.07596</ele>
        <time>2023-07-07T15:12:56.000Z</time>
      </trkpt>
      <trkpt lat="45.7694" lon="4.69357">
        <ele>344.25894</ele>
        <time>2023-07-07T15:12:57.000Z</time>
      </trkpt>
      <trkpt lat="45.7694" lon="4.6935">
        <ele>344.43326</ele>
        <time>2023-07-07T15:12:58.000Z</time>
      </trkpt>
      <trkpt lat="45.76939" lon="4.6934">
        <ele>344.78354</ele>
        <time>2023-07-07T15:12:59.000Z</time>
      </trkpt>
      <trkpt lat="45.76939" lon="4.69332">
        <ele>345.30804</ele>
        <time>2023-07-07T15:13:00.000Z</time>
      </trkpt>
      <trkpt lat="45.76938" lon="4.69324">
        <ele>345.84329</ele>
        <time>2023-07-07T15:13:01.000Z</time>
      </trkpt>
      <trkpt lat="45.76938" lon="4.69316">
        <ele>346.46432</ele>
        <time>2023-07-07T15:13:02.000Z</time>
      </trkpt>
      <trkpt lat="45.76937" lon="4.69308">
        <ele>346.7941</ele>
        <time>2023-07-07T15:13:03.000Z</time>
      </trkpt>
      <trkpt lat="45.76936" lon="4.693">
        <ele>346.93622</ele>
        <time>2023-07-07T15:13:04.000Z</time>
      </trkpt>
      <trkpt lat="45.76936" lon="4.69293">
        <ele>347.15927</ele>
        <time>2023-07-07T15:13:05.000Z</time>
      </trkpt>
      <trkpt lat="45.76935" lon="4.69286">
        <ele>347.38629</ele>
        <time>2023-07-07T15:13:06.000Z</time>
      </trkpt>
      <trkpt lat="45.76936" lon="4.6928">
        <ele>347.56302</ele>
        <time>2023-07-07T15:13:07.000Z</time>
      </trkpt>
      <trkpt lat="45.76935" lon="4.69272">
        <ele>347.75299</ele>
        <time>2023-07-07T15:13:08.000Z</time>
      </trkpt>
      <trkpt lat="45.76934" lon="4.69266">
        <ele>347.95853</ele>
        <time>2023-07-07T15:13:09.000Z</time>
      </trkpt>
      <trkpt lat="45.76933" lon="4.69258">
        <ele>348.15179</ele>
        <time>2023-07-07T15:13:10.000Z</time>
      </trkpt>
      <trkpt lat="45.76932" lon="4.69252">
        <ele>348.37613</ele>
        <time>2023-07-07T15:13:11.000Z</time>
      </trkpt>
      <trkpt lat="45.7693" lon="4.69245">
        <ele>348.57971</ele>
        <time>2023-07-07T15:13:12.000Z</time>
      </trkpt>
      <trkpt lat="45.76929" lon="4.69239">
        <ele>348.79782</ele>
        <time>2023-07-07T15:13:13.000Z</time>
      </trkpt>
      <trkpt lat="45.76928" lon="4.69232">
        <ele>348.98026</ele>
        <time>2023-07-07T15:13:14.000Z</time>
      </trkpt>
      <trkpt lat="45.76927" lon="4.69225">
        <ele>349.16302</ele>
        <time>2023-07-07T15:13:15.000Z</time>
      </trkpt>
      <trkpt lat="45.76927" lon="4.69219">
        <ele>349.33838</ele>
        <time>2023-07-07T15:13:16.000Z</time>
      </trkpt>
      <trkpt lat="45.76926" lon="4.69213">
        <ele>349.53082</ele>
        <time>2023-07-07T15:13:17.000Z</time>
      </trkpt>
      <trkpt lat="45.76926" lon="4.69207">
        <ele>349.75903</ele>
        <time>2023-07-07T15:13:18.000Z</time>
      </trkpt>
      <trkpt lat="45.76926" lon="4.69202">
        <ele>349.81741</ele>
        <time>2023-07-07T15:13:19.000Z</time>
      </trkpt>
      <trkpt lat="45.76926" lon="4.69196">
        <ele>349.85922</ele>
        <time>2023-07-07T15:13:20.000Z</time>
      </trkpt>
      <trkpt lat="45.76926" lon="4.69192">
        <ele>349.89096</ele>
        <time>2023-07-07T15:13:21.000Z</time>
      </trkpt>
      <trkpt lat="45.76927" lon="4.69186">
        <ele>349.91867</ele>
        <time>2023-07-07T15:13:22.000Z</time>
      </trkpt>
      <trkpt lat="45.76927" lon="4.6918">
        <ele>349.93958</ele>
        <time>2023-07-07T15:13:23.000Z</time>
      </trkpt>
      <trkpt lat="45.76927" lon="4.69175">
        <ele>349.98074</ele>
        <time>2023-07-07T15:13:24.000Z</time>
      </trkpt>
      <trkpt lat="45.76927" lon="4.69169">
        <ele>350.01913</ele>
        <time>2023-07-07T15:13:25.000Z</time>
      </trkpt>
      <trkpt lat="45.76927" lon="4.69164">
        <ele>350.05359</ele>
        <time>2023-07-07T15:13:26.000Z</time>
      </trkpt>
      <trkpt lat="45.76928" lon="4.69159">
        <ele>350.10956</ele>
        <time>2023-07-07T15:13:27.000Z</time>
      </trkpt>
      <trkpt lat="45.76929" lon="4.69154">
        <ele>350.14932</ele>
        <time>2023-07-07T15:13:28.000Z</time>
      </trkpt>
      <trkpt lat="45.76929" lon="4.69149">
        <ele>350.18777</ele>
        <time>2023-07-07T15:13:29.000Z</time>
      </trkpt>
      <trkpt lat="45.76929" lon="4.69143">
        <ele>350.24091</ele>
        <time>2023-07-07T15:13:30.000Z</time>
      </trkpt>
      <trkpt lat="45.76929" lon="4.69138">
        <ele>350.27493</ele>
        <time>2023-07-07T15:13:31.000Z</time>
      </trkpt>
      <trkpt lat="45.76928" lon="4.69133">
        <ele>350.39249</ele>
        <time>2023-07-07T15:13:32.000Z</time>
      </trkpt>
      <trkpt lat="45.76928" lon="4.69128">
        <ele>350.51013</ele>
        <time>2023-07-07T15:13:33.000Z</time>
      </trkpt>
      <trkpt lat="45.76928" lon="4.69123">
        <ele>350.44778</ele>
        <time>2023-07-07T15:13:34.000Z</time>
      </trkpt>
      <trkpt lat="45.76928" lon="4.69117">
        <ele>350.40967</ele>
        <time>2023-07-07T15:13:35.000Z</time>
      </trkpt>
      <trkpt lat="45.76929" lon="4.69112">
        <ele>350.38266</ele>
        <time>2023-07-07T15:13:36.000Z</time>
      </trkpt>
      <trkpt lat="45.76929" lon="4.69107">
        <ele>350.33032</ele>
        <time>2023-07-07T15:13:37.000Z</time>
      </trkpt>
      <trkpt lat="45.76928" lon="4.69102">
        <ele>350.27789</ele>
        <time>2023-07-07T15:13:38.000Z</time>
      </trkpt>
      <trkpt lat="45.76928" lon="4.69096">
        <ele>350.22269</ele>
        <time>2023-07-07T15:13:39.000Z</time>
      </trkpt>
      <trkpt lat="45.76928" lon="4.69091">
        <ele>349.99286</ele>
        <time>2023-07-07T15:13:40.000Z</time>
      </trkpt>
      <trkpt lat="45.76928" lon="4.69086">
        <ele>350.15363</ele>
        <time>2023-07-07T15:13:41.000Z</time>
      </trkpt>
      <trkpt lat="45.76928" lon="4.69081">
        <ele>350.31876</ele>
        <time>2023-07-07T15:13:42.000Z</time>
      </trkpt>
      <trkpt lat="45.76929" lon="4.69077">
        <ele>350.47229</ele>
        <time>2023-07-07T15:13:43.000Z</time>
      </trkpt>
      <trkpt lat="45.76929" lon="4.69073">
        <ele>350.54938</ele>
        <time>2023-07-07T15:13:44.000Z</time>
      </trkpt>
      <trkpt lat="45.76929" lon="4.69068">
        <ele>350.61206</ele>
        <time>2023-07-07T15:13:45.000Z</time>
      </trkpt>
      <trkpt lat="45.76929" lon="4.69063">
        <ele>350.66351</ele>
        <time>2023-07-07T15:13:46.000Z</time>
      </trkpt>
      <trkpt lat="45.76928" lon="4.69058">
        <ele>350.81445</ele>
        <time>2023-07-07T15:13:47.000Z</time>
      </trkpt>
      <trkpt lat="45.76928" lon="4.69055">
        <ele>350.996</ele>
        <time>2023-07-07T15:13:48.000Z</time>
      </trkpt>
      <trkpt lat="45.76927" lon="4.69051">
        <ele>351.16812</ele>
        <time>2023-07-07T15:13:49.000Z</time>
      </trkpt>
      <trkpt lat="45.76926" lon="4.69047">
        <ele>351.34384</ele>
        <time>2023-07-07T15:13:50.000Z</time>
      </trkpt>
      <trkpt lat="45.76924" lon="4.69044">
        <ele>351.52826</ele>
        <time>2023-07-07T15:13:51.000Z</time>
      </trkpt>
      <trkpt lat="45.76922" lon="4.69041">
        <ele>351.61948</ele>
        <time>2023-07-07T15:13:52.000Z</time>
      </trkpt>
      <trkpt lat="45.7692" lon="4.69037">
        <ele>351.74347</ele>
        <time>2023-07-07T15:13:53.000Z</time>
      </trkpt>
      <trkpt lat="45.76919" lon="4.69034">
        <ele>352.06143</ele>
        <time>2023-07-07T15:13:54.000Z</time>
      </trkpt>
      <trkpt lat="45.76917" lon="4.6903">
        <ele>352.39096</ele>
        <time>2023-07-07T15:13:55.000Z</time>
      </trkpt>
      <trkpt lat="45.76915" lon="4.69026">
        <ele>352.69086</ele>
        <time>2023-07-07T15:13:56.000Z</time>
      </trkpt>
      <trkpt lat="45.76913" lon="4.69022">
        <ele>352.9848</ele>
        <time>2023-07-07T15:13:57.000Z</time>
      </trkpt>
      <trkpt lat="45.7691" lon="4.69018">
        <ele>353.22446</ele>
        <time>2023-07-07T15:13:58.000Z</time>
      </trkpt>
      <trkpt lat="45.76908" lon="4.69015">
        <ele>353.49979</ele>
        <time>2023-07-07T15:13:59.000Z</time>
      </trkpt>
      <trkpt lat="45.76906" lon="4.69011">
        <ele>353.97327</ele>
        <time>2023-07-07T15:14:00.000Z</time>
      </trkpt>
      <trkpt lat="45.76904" lon="4.69007">
        <ele>354.06866</ele>
        <time>2023-07-07T15:14:01.000Z</time>
      </trkpt>
      <trkpt lat="45.76902" lon="4.69003">
        <ele>354.15762</ele>
        <time>2023-07-07T15:14:02.000Z</time>
      </trkpt>
      <trkpt lat="45.769" lon="4.69">
        <ele>354.25995</ele>
        <time>2023-07-07T15:14:03.000Z</time>
      </trkpt>
      <trkpt lat="45.76898" lon="4.68996">
        <ele>354.33344</ele>
        <time>2023-07-07T15:14:04.000Z</time>
      </trkpt>
      <trkpt lat="45.76895" lon="4.68992">
        <ele>354.42426</ele>
        <time>2023-07-07T15:14:05.000Z</time>
      </trkpt>
      <trkpt lat="45.76893" lon="4.68989">
        <ele>354.5307</ele>
        <time>2023-07-07T15:14:06.000Z</time>
      </trkpt>
      <trkpt lat="45.76891" lon="4.68985">
        <ele>354.53134</ele>
        <time>2023-07-07T15:14:07.000Z</time>
      </trkpt>
      <trkpt lat="45.76889" lon="4.68981">
        <ele>354.48776</ele>
        <time>2023-07-07T15:14:08.000Z</time>
      </trkpt>
      <trkpt lat="45.76888" lon="4.68977">
        <ele>354.41528</ele>
        <time>2023-07-07T15:14:09.000Z</time>
      </trkpt>
      <trkpt lat="45.76886" lon="4.68973">
        <ele>354.45135</ele>
        <time>2023-07-07T15:14:10.000Z</time>
      </trkpt>
      <trkpt lat="45.76885" lon="4.68969">
        <ele>354.45428</ele>
        <time>2023-07-07T15:14:11.000Z</time>
      </trkpt>
      <trkpt lat="45.76883" lon="4.68965">
        <ele>354.4581</ele>
        <time>2023-07-07T15:14:12.000Z</time>
      </trkpt>
      <trkpt lat="45.76882" lon="4.6896">
        <ele>354.51721</ele>
        <time>2023-07-07T15:14:13.000Z</time>
      </trkpt>
      <trkpt lat="45.76881" lon="4.68956">
        <ele>354.57843</ele>
        <time>2023-07-07T15:14:14.000Z</time>
      </trkpt>
      <trkpt lat="45.7688" lon="4.68952">
        <ele>354.63446</ele>
        <time>2023-07-07T15:14:15.000Z</time>
      </trkpt>
      <trkpt lat="45.76879" lon="4.68947">
        <ele>354.71552</ele>
        <time>2023-07-07T15:14:16.000Z</time>
      </trkpt>
      <trkpt lat="45.76879" lon="4.68943">
        <ele>354.80499</ele>
        <time>2023-07-07T15:14:17.000Z</time>
      </trkpt>
      <trkpt lat="45.76878" lon="4.68939">
        <ele>354.88361</ele>
        <time>2023-07-07T15:14:18.000Z</time>
      </trkpt>
      <trkpt lat="45.76877" lon="4.68935">
        <ele>354.81757</ele>
        <time>2023-07-07T15:14:19.000Z</time>
      </trkpt>
      <trkpt lat="45.76876" lon="4.68931">
        <ele>354.70801</ele>
        <time>2023-07-07T15:14:20.000Z</time>
      </trkpt>
      <trkpt lat="45.76875" lon="4.68927">
        <ele>354.7121</ele>
        <time>2023-07-07T15:14:21.000Z</time>
      </trkpt>
      <trkpt lat="45.76874" lon="4.68923">
        <ele>354.69937</ele>
        <time>2023-07-07T15:14:22.000Z</time>
      </trkpt>
      <trkpt lat="45.76873" lon="4.6892">
        <ele>354.69348</ele>
        <time>2023-07-07T15:14:23.000Z</time>
      </trkpt>
      <trkpt lat="45.76872" lon="4.68916">
        <ele>354.76352</ele>
        <time>2023-07-07T15:14:24.000Z</time>
      </trkpt>
      <trkpt lat="45.76871" lon="4.68913">
        <ele>354.80389</ele>
        <time>2023-07-07T15:14:25.000Z</time>
      </trkpt>
      <trkpt lat="45.7687" lon="4.6891">
        <ele>354.84406</ele>
        <time>2023-07-07T15:14:26.000Z</time>
      </trkpt>
      <trkpt lat="45.7687" lon="4.68906">
        <ele>354.88174</ele>
        <time>2023-07-07T15:14:27.000Z</time>
      </trkpt>
      <trkpt lat="45.76869" lon="4.68903">
        <ele>354.99738</ele>
        <time>2023-07-07T15:14:28.000Z</time>
      </trkpt>
      <trkpt lat="45.76868" lon="4.68901">
        <ele>355.1572</ele>
        <time>2023-07-07T15:14:29.000Z</time>
      </trkpt>
      <trkpt lat="45.76868" lon="4.68898">
        <ele>355.20612</ele>
        <time>2023-07-07T15:14:30.000Z</time>
      </trkpt>
      <trkpt lat="45.76867" lon="4.68895">
        <ele>355.30045</ele>
        <time>2023-07-07T15:14:32.000Z</time>
      </trkpt>
      <trkpt lat="45.76866" lon="4.68893">
        <ele>355.38824</ele>
        <time>2023-07-07T15:14:38.000Z</time>
      </trkpt>
      <trkpt lat="45.76864" lon="4.68891">
        <ele>355.32263</ele>
        <time>2023-07-07T15:15:12.000Z</time>
      </trkpt>
      <trkpt lat="45.76862" lon="4.68891">
        <ele>355.27115</ele>
        <time>2023-07-07T15:15:13.000Z</time>
      </trkpt>
      <trkpt lat="45.76859" lon="4.68891">
        <ele>355.20398</ele>
        <time>2023-07-07T15:15:14.000Z</time>
      </trkpt>
      <trkpt lat="45.76856" lon="4.68891">
        <ele>355.14716</ele>
        <time>2023-07-07T15:15:15.000Z</time>
      </trkpt>
      <trkpt lat="45.76853" lon="4.6889">
        <ele>355.10672</ele>
        <time>2023-07-07T15:15:16.000Z</time>
      </trkpt>
      <trkpt lat="45.76849" lon="4.68888">
        <ele>355.08258</ele>
        <time>2023-07-07T15:15:17.000Z</time>
      </trkpt>
      <trkpt lat="45.76845" lon="4.68886">
        <ele>355.16583</ele>
        <time>2023-07-07T15:15:18.000Z</time>
      </trkpt>
      <trkpt lat="45.7684" lon="4.68883">
        <ele>355.20657</ele>
        <time>2023-07-07T15:15:19.000Z</time>
      </trkpt>
      <trkpt lat="45.76835" lon="4.68878">
        <ele>355.11713</ele>
        <time>2023-07-07T15:15:20.000Z</time>
      </trkpt>
      <trkpt lat="45.7683" lon="4.68873">
        <ele>354.98785</ele>
        <time>2023-07-07T15:15:21.000Z</time>
      </trkpt>
      <trkpt lat="45.76825" lon="4.68868">
        <ele>354.91971</ele>
        <time>2023-07-07T15:15:22.000Z</time>
      </trkpt>
      <trkpt lat="45.76819" lon="4.68863">
        <ele>354.8327</ele>
        <time>2023-07-07T15:15:23.000Z</time>
      </trkpt>
      <trkpt lat="45.76813" lon="4.68855">
        <ele>354.73215</ele>
        <time>2023-07-07T15:15:24.000Z</time>
      </trkpt>
      <trkpt lat="45.76808" lon="4.68847">
        <ele>354.63348</ele>
        <time>2023-07-07T15:15:25.000Z</time>
      </trkpt>
      <trkpt lat="45.76803" lon="4.6884">
        <ele>354.5025</ele>
        <time>2023-07-07T15:15:26.000Z</time>
      </trkpt>
      <trkpt lat="45.76798" lon="4.68833">
        <ele>354.3255</ele>
        <time>2023-07-07T15:15:27.000Z</time>
      </trkpt>
      <trkpt lat="45.76793" lon="4.68824">
        <ele>354.11145</ele>
        <time>2023-07-07T15:15:28.000Z</time>
      </trkpt>
      <trkpt lat="45.76788" lon="4.68815">
        <ele>353.88159</ele>
        <time>2023-07-07T15:15:29.000Z</time>
      </trkpt>
      <trkpt lat="45.76783" lon="4.68807">
        <ele>353.61176</ele>
        <time>2023-07-07T15:15:30.000Z</time>
      </trkpt>
      <trkpt lat="45.76779" lon="4.688">
        <ele>353.33502</ele>
        <time>2023-07-07T15:15:31.000Z</time>
      </trkpt>
      <trkpt lat="45.76775" lon="4.68793">
        <ele>353.13751</ele>
        <time>2023-07-07T15:15:32.000Z</time>
      </trkpt>
      <trkpt lat="45.76772" lon="4.68786">
        <ele>352.91302</ele>
        <time>2023-07-07T15:15:33.000Z</time>
      </trkpt>
      <trkpt lat="45.76768" lon="4.68779">
        <ele>352.66898</ele>
        <time>2023-07-07T15:15:34.000Z</time>
      </trkpt>
      <trkpt lat="45.76765" lon="4.68771">
        <ele>352.38831</ele>
        <time>2023-07-07T15:15:35.000Z</time>
      </trkpt>
      <trkpt lat="45.76763" lon="4.68761">
        <ele>352.08496</ele>
        <time>2023-07-07T15:15:36.000Z</time>
      </trkpt>
      <trkpt lat="45.76762" lon="4.68752">
        <ele>351.77963</ele>
        <time>2023-07-07T15:15:37.000Z</time>
      </trkpt>
      <trkpt lat="45.76763" lon="4.68744">
        <ele>351.44644</ele>
        <time>2023-07-07T15:15:38.000Z</time>
      </trkpt>
      <trkpt lat="45.76763" lon="4.68737">
        <ele>351.1637</ele>
        <time>2023-07-07T15:15:39.000Z</time>
      </trkpt>
      <trkpt lat="45.76763" lon="4.68732">
        <ele>350.91064</ele>
        <time>2023-07-07T15:15:40.000Z</time>
      </trkpt>
      <trkpt lat="45.76762" lon="4.68729">
        <ele>350.68567</ele>
        <time>2023-07-07T15:15:41.000Z</time>
      </trkpt>
      <trkpt lat="45.76759" lon="4.68728">
        <ele>350.40912</ele>
        <time>2023-07-07T15:15:43.000Z</time>
      </trkpt>
      <trkpt lat="45.76755" lon="4.68729">
        <ele>350.1467</ele>
        <time>2023-07-07T15:15:44.000Z</time>
      </trkpt>
      <trkpt lat="45.76752" lon="4.6873">
        <ele>349.94843</ele>
        <time>2023-07-07T15:15:45.000Z</time>
      </trkpt>
      <trkpt lat="45.76748" lon="4.68729">
        <ele>349.72894</ele>
        <time>2023-07-07T15:15:46.000Z</time>
      </trkpt>
      <trkpt lat="45.76744" lon="4.68728">
        <ele>349.50912</ele>
        <time>2023-07-07T15:15:47.000Z</time>
      </trkpt>
      <trkpt lat="45.7674" lon="4.68727">
        <ele>349.2869</ele>
        <time>2023-07-07T15:15:48.000Z</time>
      </trkpt>
      <trkpt lat="45.76736" lon="4.68726">
        <ele>349.06937</ele>
        <time>2023-07-07T15:15:49.000Z</time>
      </trkpt>
      <trkpt lat="45.76732" lon="4.68726">
        <ele>348.8566</ele>
        <time>2023-07-07T15:15:50.000Z</time>
      </trkpt>
      <trkpt lat="45.76728" lon="4.68723">
        <ele>348.63632</ele>
        <time>2023-07-07T15:15:51.000Z</time>
      </trkpt>
      <trkpt lat="45.76724" lon="4.6872">
        <ele>348.43634</ele>
        <time>2023-07-07T15:15:52.000Z</time>
      </trkpt>
      <trkpt lat="45.76721" lon="4.68715">
        <ele>348.25336</ele>
        <time>2023-07-07T15:15:53.000Z</time>
      </trkpt>
      <trkpt lat="45.76718" lon="4.68709">
        <ele>348.05399</ele>
        <time>2023-07-07T15:15:54.000Z</time>
      </trkpt>
      <trkpt lat="45.76716" lon="4.68704">
        <ele>347.86542</ele>
        <time>2023-07-07T15:15:55.000Z</time>
      </trkpt>
      <trkpt lat="45.76713" lon="4.68698">
        <ele>347.67188</ele>
        <time>2023-07-07T15:15:56.000Z</time>
      </trkpt>
      <trkpt lat="45.7671" lon="4.68691">
        <ele>347.45294</ele>
        <time>2023-07-07T15:15:57.000Z</time>
      </trkpt>
      <trkpt lat="45.76706" lon="4.68684">
        <ele>347.27386</ele>
        <time>2023-07-07T15:15:58.000Z</time>
      </trkpt>
      <trkpt lat="45.76703" lon="4.68677">
        <ele>347.08502</ele>
        <time>2023-07-07T15:15:59.000Z</time>
      </trkpt>
      <trkpt lat="45.767" lon="4.68668">
        <ele>346.87735</ele>
        <time>2023-07-07T15:16:00.000Z</time>
      </trkpt>
      <trkpt lat="45.76696" lon="4.68658">
        <ele>346.60608</ele>
        <time>2023-07-07T15:16:01.000Z</time>
      </trkpt>
      <trkpt lat="45.76692" lon="4.6865">
        <ele>346.34833</ele>
        <time>2023-07-07T15:16:02.000Z</time>
      </trkpt>
      <trkpt lat="45.76688" lon="4.68642">
        <ele>346.0412</ele>
        <time>2023-07-07T15:16:03.000Z</time>
      </trkpt>
      <trkpt lat="45.76684" lon="4.68633">
        <ele>345.7117</ele>
        <time>2023-07-07T15:16:04.000Z</time>
      </trkpt>
      <trkpt lat="45.7668" lon="4.68623">
        <ele>345.315</ele>
        <time>2023-07-07T15:16:05.000Z</time>
      </trkpt>
      <trkpt lat="45.76677" lon="4.68614">
        <ele>344.91974</ele>
        <time>2023-07-07T15:16:06.000Z</time>
      </trkpt>
      <trkpt lat="45.76675" lon="4.68606">
        <ele>344.53299</ele>
        <time>2023-07-07T15:16:07.000Z</time>
      </trkpt>
      <trkpt lat="45.76672" lon="4.68599">
        <ele>344.13162</ele>
        <time>2023-07-07T15:16:08.000Z</time>
      </trkpt>
      <trkpt lat="45.7667" lon="4.68592">
        <ele>343.73831</ele>
        <time>2023-07-07T15:16:09.000Z</time>
      </trkpt>
      <trkpt lat="45.76669" lon="4.68584">
        <ele>343.33218</ele>
        <time>2023-07-07T15:16:10.000Z</time>
      </trkpt>
      <trkpt lat="45.76668" lon="4.68576">
        <ele>342.92947</ele>
        <time>2023-07-07T15:16:11.000Z</time>
      </trkpt>
      <trkpt lat="45.76668" lon="4.6857">
        <ele>342.47672</ele>
        <time>2023-07-07T15:16:12.000Z</time>
      </trkpt>
      <trkpt lat="45.76666" lon="4.68564">
        <ele>341.98416</ele>
        <time>2023-07-07T15:16:13.000Z</time>
      </trkpt>
      <trkpt lat="45.76665" lon="4.68558">
        <ele>341.54977</ele>
        <time>2023-07-07T15:16:14.000Z</time>
      </trkpt>
      <trkpt lat="45.76662" lon="4.68553">
        <ele>341.10651</ele>
        <time>2023-07-07T15:16:15.000Z</time>
      </trkpt>
      <trkpt lat="45.76661" lon="4.68551">
        <ele>340.68463</ele>
        <time>2023-07-07T15:16:16.000Z</time>
      </trkpt>
      <trkpt lat="45.7666" lon="4.68549">
        <ele>340.3371</ele>
        <time>2023-07-07T15:16:22.000Z</time>
      </trkpt>
      <trkpt lat="45.76658" lon="4.68549">
        <ele>339.8396</ele>
        <time>2023-07-07T15:18:22.000Z</time>
      </trkpt>
      <trkpt lat="45.76658" lon="4.68546">
        <ele>339.38892</ele>
        <time>2023-07-07T15:18:28.000Z</time>
      </trkpt>
      <trkpt lat="45.7666" lon="4.68546">
        <ele>339.01981</ele>
        <time>2023-07-07T15:20:15.000Z</time>
      </trkpt>
      <trkpt lat="45.76658" lon="4.68544">
        <ele>338.6926</ele>
        <time>2023-07-07T15:21:40.000Z</time>
      </trkpt>
      <trkpt lat="45.76658" lon="4.6854">
        <ele>338.38211</ele>
        <time>2023-07-07T15:21:41.000Z</time>
      </trkpt>
      <trkpt lat="45.76657" lon="4.68537">
        <ele>338.10284</ele>
        <time>2023-07-07T15:21:42.000Z</time>
      </trkpt>
      <trkpt lat="45.76656" lon="4.68534">
        <ele>337.86768</ele>
        <time>2023-07-07T15:21:43.000Z</time>
      </trkpt>
      <trkpt lat="45.76654" lon="4.68531">
        <ele>337.65961</ele>
        <time>2023-07-07T15:21:44.000Z</time>
      </trkpt>
      <trkpt lat="45.76652" lon="4.68527">
        <ele>337.47546</ele>
        <time>2023-07-07T15:21:45.000Z</time>
      </trkpt>
      <trkpt lat="45.76651" lon="4.6852">
        <ele>337.2785</ele>
        <time>2023-07-07T15:21:46.000Z</time>
      </trkpt>
      <trkpt lat="45.76651" lon="4.68512">
        <ele>337.09268</ele>
        <time>2023-07-07T15:21:47.000Z</time>
      </trkpt>
      <trkpt lat="45.76651" lon="4.68502">
        <ele>336.93948</ele>
        <time>2023-07-07T15:21:48.000Z</time>
      </trkpt>
      <trkpt lat="45.76652" lon="4.68489">
        <ele>336.37311</ele>
        <time>2023-07-07T15:21:49.000Z</time>
      </trkpt>
      <trkpt lat="45.76652" lon="4.68486">
        <ele>335.86945</ele>
        <time>2023-07-07T15:21:50.000Z</time>
      </trkpt>
      <trkpt lat="45.76651" lon="4.68478">
        <ele>335.83691</ele>
        <time>2023-07-07T15:21:51.000Z</time>
      </trkpt>
      <trkpt lat="45.76651" lon="4.6847">
        <ele>335.83371</ele>
        <time>2023-07-07T15:21:52.000Z</time>
      </trkpt>
      <trkpt lat="45.76651" lon="4.68463">
        <ele>335.75287</ele>
        <time>2023-07-07T15:21:53.000Z</time>
      </trkpt>
      <trkpt lat="45.76651" lon="4.68457">
        <ele>335.73206</ele>
        <time>2023-07-07T15:21:54.000Z</time>
      </trkpt>
      <trkpt lat="45.76652" lon="4.68452">
        <ele>335.74649</ele>
        <time>2023-07-07T15:21:55.000Z</time>
      </trkpt>
      <trkpt lat="45.76654" lon="4.68447">
        <ele>335.72134</ele>
        <time>2023-07-07T15:21:56.000Z</time>
      </trkpt>
      <trkpt lat="45.76655" lon="4.68441">
        <ele>335.92935</ele>
        <time>2023-07-07T15:21:57.000Z</time>
      </trkpt>
      <trkpt lat="45.76657" lon="4.68435">
        <ele>336.16449</ele>
        <time>2023-07-07T15:21:58.000Z</time>
      </trkpt>
      <trkpt lat="45.76657" lon="4.68427">
        <ele>336.27692</ele>
        <time>2023-07-07T15:21:59.000Z</time>
      </trkpt>
      <trkpt lat="45.76662" lon="4.68417">
        <ele>336.3649</ele>
        <time>2023-07-07T15:22:00.000Z</time>
      </trkpt>
      <trkpt lat="45.76664" lon="4.68409">
        <ele>336.46451</ele>
        <time>2023-07-07T15:22:01.000Z</time>
      </trkpt>
      <trkpt lat="45.76665" lon="4.68406">
        <ele>336.61319</ele>
        <time>2023-07-07T15:22:02.000Z</time>
      </trkpt>
      <trkpt lat="45.76666" lon="4.68399">
        <ele>336.80002</ele>
        <time>2023-07-07T15:22:03.000Z</time>
      </trkpt>
      <trkpt lat="45.76672" lon="4.68386">
        <ele>336.95425</ele>
        <time>2023-07-07T15:22:04.000Z</time>
      </trkpt>
      <trkpt lat="45.76668" lon="4.68378">
        <ele>337.02313</ele>
        <time>2023-07-07T15:22:05.000Z</time>
      </trkpt>
      <trkpt lat="45.76668" lon="4.68375">
        <ele>337.211</ele>
        <time>2023-07-07T15:22:06.000Z</time>
      </trkpt>
      <trkpt lat="45.76669" lon="4.68368">
        <ele>337.37436</ele>
        <time>2023-07-07T15:22:07.000Z</time>
      </trkpt>
      <trkpt lat="45.76665" lon="4.6837">
        <ele>337.49124</ele>
        <time>2023-07-07T15:22:10.000Z</time>
      </trkpt>
      <trkpt lat="45.76666" lon="4.68367">
        <ele>337.74753</ele>
        <time>2023-07-07T15:22:17.000Z</time>
      </trkpt>
      <trkpt lat="45.76665" lon="4.68364">
        <ele>337.86102</ele>
        <time>2023-07-07T15:22:18.000Z</time>
      </trkpt>
      <trkpt lat="45.76664" lon="4.68366">
        <ele>337.8653</ele>
        <time>2023-07-07T15:22:25.000Z</time>
      </trkpt>
      <trkpt lat="45.76662" lon="4.68365">
        <ele>337.96735</ele>
        <time>2023-07-07T15:22:33.000Z</time>
      </trkpt>
      <trkpt lat="45.76662" lon="4.68362">
        <ele>337.79474</ele>
        <time>2023-07-07T15:22:50.000Z</time>
      </trkpt>
      <trkpt lat="45.76664" lon="4.6836">
        <ele>337.56015</ele>
        <time>2023-07-07T15:22:53.000Z</time>
      </trkpt>
      <trkpt lat="45.76666" lon="4.68361">
        <ele>337.26599</ele>
        <time>2023-07-07T15:23:16.000Z</time>
      </trkpt>
      <trkpt lat="45.76666" lon="4.68357">
        <ele>337.1947</ele>
        <time>2023-07-07T15:23:28.000Z</time>
      </trkpt>
      <trkpt lat="45.76667" lon="4.68353">
        <ele>337.05817</ele>
        <time>2023-07-07T15:23:29.000Z</time>
      </trkpt>
      <trkpt lat="45.76668" lon="4.68349">
        <ele>336.96194</ele>
        <time>2023-07-07T15:23:30.000Z</time>
      </trkpt>
      <trkpt lat="45.76667" lon="4.68347">
        <ele>336.92688</ele>
        <time>2023-07-07T15:23:33.000Z</time>
      </trkpt>
      <trkpt lat="45.76665" lon="4.68346">
        <ele>336.8028</ele>
        <time>2023-07-07T15:23:36.000Z</time>
      </trkpt>
      <trkpt lat="45.76664" lon="4.68343">
        <ele>336.95029</ele>
        <time>2023-07-07T15:23:41.000Z</time>
      </trkpt>
      <trkpt lat="45.76662" lon="4.68341">
        <ele>336.97684</ele>
        <time>2023-07-07T15:23:47.000Z</time>
      </trkpt>
      <trkpt lat="45.76661" lon="4.68339">
        <ele>336.94427</ele>
        <time>2023-07-07T15:23:49.000Z</time>
      </trkpt>
      <trkpt lat="45.76659" lon="4.68337">
        <ele>337.07642</ele>
        <time>2023-07-07T15:23:51.000Z</time>
      </trkpt>
      <trkpt lat="45.76658" lon="4.68335">
        <ele>337.1347</ele>
        <time>2023-07-07T15:23:53.000Z</time>
      </trkpt>
      <trkpt lat="45.76658" lon="4.68332">
        <ele>337.04257</ele>
        <time>2023-07-07T15:23:55.000Z</time>
      </trkpt>
      <trkpt lat="45.76658" lon="4.68329">
        <ele>337.17621</ele>
        <time>2023-07-07T15:24:08.000Z</time>
      </trkpt>
      <trkpt lat="45.76658" lon="4.68325">
        <ele>337.31171</ele>
        <time>2023-07-07T15:24:19.000Z</time>
      </trkpt>
      <trkpt lat="45.76657" lon="4.6832">
        <ele>337.76703</ele>
        <time>2023-07-07T15:24:21.000Z</time>
      </trkpt>
      <trkpt lat="45.76655" lon="4.6832">
        <ele>338.2124</ele>
        <time>2023-07-07T15:24:23.000Z</time>
      </trkpt>
      <trkpt lat="45.76653" lon="4.68317">
        <ele>338.34503</ele>
        <time>2023-07-07T15:24:28.000Z</time>
      </trkpt>
      <trkpt lat="45.76652" lon="4.68316">
        <ele>338.29074</ele>
        <time>2023-07-07T15:24:29.000Z</time>
      </trkpt>
      <trkpt lat="45.7665" lon="4.68314">
        <ele>338.56555</ele>
        <time>2023-07-07T15:24:30.000Z</time>
      </trkpt>
      <trkpt lat="45.76649" lon="4.68311">
        <ele>338.81415</ele>
        <time>2023-07-07T15:24:31.000Z</time>
      </trkpt>
      <trkpt lat="45.76647" lon="4.68309">
        <ele>339.05026</ele>
        <time>2023-07-07T15:24:32.000Z</time>
      </trkpt>
      <trkpt lat="45.76645" lon="4.68308">
        <ele>339.10895</ele>
        <time>2023-07-07T15:24:34.000Z</time>
      </trkpt>
      <trkpt lat="45.76643" lon="4.68304">
        <ele>339.14719</ele>
        <time>2023-07-07T15:24:36.000Z</time>
      </trkpt>
      <trkpt lat="45.76641" lon="4.68302">
        <ele>339.0842</ele>
        <time>2023-07-07T15:24:39.000Z</time>
      </trkpt>
      <trkpt lat="45.7664" lon="4.68299">
        <ele>338.96939</ele>
        <time>2023-07-07T15:24:40.000Z</time>
      </trkpt>
      <trkpt lat="45.76638" lon="4.68297">
        <ele>339.02756</ele>
        <time>2023-07-07T15:24:41.000Z</time>
      </trkpt>
      <trkpt lat="45.76637" lon="4.68293">
        <ele>338.82535</ele>
        <time>2023-07-07T15:24:43.000Z</time>
      </trkpt>
      <trkpt lat="45.76636" lon="4.6829">
        <ele>338.66092</ele>
        <time>2023-07-07T15:24:44.000Z</time>
      </trkpt>
      <trkpt lat="45.76636" lon="4.68287">
        <ele>338.56781</ele>
        <time>2023-07-07T15:24:45.000Z</time>
      </trkpt>
      <trkpt lat="45.76636" lon="4.68284">
        <ele>338.39813</ele>
        <time>2023-07-07T15:24:46.000Z</time>
      </trkpt>
      <trkpt lat="45.76636" lon="4.68281">
        <ele>338.47342</ele>
        <time>2023-07-07T15:24:47.000Z</time>
      </trkpt>
      <trkpt lat="45.76636" lon="4.68278">
        <ele>338.64053</ele>
        <time>2023-07-07T15:24:48.000Z</time>
      </trkpt>
      <trkpt lat="45.76635" lon="4.68273">
        <ele>338.27609</ele>
        <time>2023-07-07T15:24:50.000Z</time>
      </trkpt>
      <trkpt lat="45.76634" lon="4.68268">
        <ele>337.82013</ele>
        <time>2023-07-07T15:24:52.000Z</time>
      </trkpt>
      <trkpt lat="45.76634" lon="4.68266">
        <ele>337.36237</ele>
        <time>2023-07-07T15:24:53.000Z</time>
      </trkpt>
      <trkpt lat="45.76634" lon="4.68263">
        <ele>337.0097</ele>
        <time>2023-07-07T15:24:54.000Z</time>
      </trkpt>
      <trkpt lat="45.76635" lon="4.68258">
        <ele>336.4368</ele>
        <time>2023-07-07T15:24:56.000Z</time>
      </trkpt>
      <trkpt lat="45.76636" lon="4.68255">
        <ele>335.92593</ele>
        <time>2023-07-07T15:24:57.000Z</time>
      </trkpt>
      <trkpt lat="45.76637" lon="4.68252">
        <ele>335.3924</ele>
        <time>2023-07-07T15:24:58.000Z</time>
      </trkpt>
      <trkpt lat="45.76638" lon="4.68249">
        <ele>334.85452</ele>
        <time>2023-07-07T15:24:59.000Z</time>
      </trkpt>
      <trkpt lat="45.76639" lon="4.68246">
        <ele>334.3623</ele>
        <time>2023-07-07T15:25:00.000Z</time>
      </trkpt>
      <trkpt lat="45.7664" lon="4.68243">
        <ele>333.827</ele>
        <time>2023-07-07T15:25:01.000Z</time>
      </trkpt>
      <trkpt lat="45.76642" lon="4.6824">
        <ele>333.26053</ele>
        <time>2023-07-07T15:25:02.000Z</time>
      </trkpt>
      <trkpt lat="45.76643" lon="4.68236">
        <ele>332.72809</ele>
        <time>2023-07-07T15:25:03.000Z</time>
      </trkpt>
      <trkpt lat="45.76644" lon="4.68234">
        <ele>332.29926</ele>
        <time>2023-07-07T15:25:04.000Z</time>
      </trkpt>
      <trkpt lat="45.76648" lon="4.68231">
        <ele>331.87393</ele>
        <time>2023-07-07T15:25:06.000Z</time>
      </trkpt>
      <trkpt lat="45.7665" lon="4.68229">
        <ele>331.41412</ele>
        <time>2023-07-07T15:25:07.000Z</time>
      </trkpt>
      <trkpt lat="45.76653" lon="4.68223">
        <ele>330.9787</ele>
        <time>2023-07-07T15:25:08.000Z</time>
      </trkpt>
      <trkpt lat="45.76657" lon="4.68219">
        <ele>330.47479</ele>
        <time>2023-07-07T15:25:09.000Z</time>
      </trkpt>
      <trkpt lat="45.7666" lon="4.68216">
        <ele>329.93127</ele>
        <time>2023-07-07T15:25:10.000Z</time>
      </trkpt>
      <trkpt lat="45.76662" lon="4.68217">
        <ele>329.2807</ele>
        <time>2023-07-07T15:25:11.000Z</time>
      </trkpt>
      <trkpt lat="45.76667" lon="4.68216">
        <ele>328.56366</ele>
        <time>2023-07-07T15:25:13.000Z</time>
      </trkpt>
      <trkpt lat="45.7667" lon="4.68216">
        <ele>328.16913</ele>
        <time>2023-07-07T15:25:14.000Z</time>
      </trkpt>
      <trkpt lat="45.76674" lon="4.68216">
        <ele>327.8443</ele>
        <time>2023-07-07T15:25:15.000Z</time>
      </trkpt>
      <trkpt lat="45.76678" lon="4.6822">
        <ele>327.54767</ele>
        <time>2023-07-07T15:25:16.000Z</time>
      </trkpt>
      <trkpt lat="45.76682" lon="4.6822">
        <ele>327.26773</ele>
        <time>2023-07-07T15:25:17.000Z</time>
      </trkpt>
      <trkpt lat="45.76686" lon="4.68221">
        <ele>327.20831</ele>
        <time>2023-07-07T15:25:18.000Z</time>
      </trkpt>
      <trkpt lat="45.7669" lon="4.6822">
        <ele>327.16745</ele>
        <time>2023-07-07T15:25:19.000Z</time>
      </trkpt>
      <trkpt lat="45.76694" lon="4.68218">
        <ele>327.15851</ele>
        <time>2023-07-07T15:25:20.000Z</time>
      </trkpt>
      <trkpt lat="45.76698" lon="4.68216">
        <ele>327.2095</ele>
        <time>2023-07-07T15:25:21.000Z</time>
      </trkpt>
      <trkpt lat="45.76702" lon="4.68214">
        <ele>327.26837</ele>
        <time>2023-07-07T15:25:22.000Z</time>
      </trkpt>
      <trkpt lat="45.76706" lon="4.68212">
        <ele>327.31323</ele>
        <time>2023-07-07T15:25:23.000Z</time>
      </trkpt>
      <trkpt lat="45.76711" lon="4.6821">
        <ele>327.3735</ele>
        <time>2023-07-07T15:25:24.000Z</time>
      </trkpt>
      <trkpt lat="45.76715" lon="4.68207">
        <ele>327.39471</ele>
        <time>2023-07-07T15:25:25.000Z</time>
      </trkpt>
      <trkpt lat="45.76718" lon="4.68203">
        <ele>327.35379</ele>
        <time>2023-07-07T15:25:26.000Z</time>
      </trkpt>
      <trkpt lat="45.76721" lon="4.68198">
        <ele>327.26593</ele>
        <time>2023-07-07T15:25:27.000Z</time>
      </trkpt>
      <trkpt lat="45.76724" lon="4.68193">
        <ele>327.86395</ele>
        <time>2023-07-07T15:25:28.000Z</time>
      </trkpt>
      <trkpt lat="45.76727" lon="4.68189">
        <ele>328.38708</ele>
        <time>2023-07-07T15:25:29.000Z</time>
      </trkpt>
      <trkpt lat="45.76732" lon="4.6818">
        <ele>328.86057</ele>
        <time>2023-07-07T15:25:30.000Z</time>
      </trkpt>
      <trkpt lat="45.76735" lon="4.68176">
        <ele>329.31287</ele>
        <time>2023-07-07T15:25:31.000Z</time>
      </trkpt>
      <trkpt lat="45.76738" lon="4.68169">
        <ele>329.84528</ele>
        <time>2023-07-07T15:25:32.000Z</time>
      </trkpt>
      <trkpt lat="45.76739" lon="4.68165">
        <ele>330.50073</ele>
        <time>2023-07-07T15:25:34.000Z</time>
      </trkpt>
      <trkpt lat="45.76743" lon="4.68152">
        <ele>331.14911</ele>
        <time>2023-07-07T15:25:35.000Z</time>
      </trkpt>
      <trkpt lat="45.76743" lon="4.68138">
        <ele>331.86969</ele>
        <time>2023-07-07T15:25:36.000Z</time>
      </trkpt>
      <trkpt lat="45.76743" lon="4.68128">
        <ele>332.59146</ele>
        <time>2023-07-07T15:25:37.000Z</time>
      </trkpt>
      <trkpt lat="45.76743" lon="4.68121">
        <ele>333.11285</ele>
        <time>2023-07-07T15:25:38.000Z</time>
      </trkpt>
      <trkpt lat="45.76744" lon="4.68112">
        <ele>333.65973</ele>
        <time>2023-07-07T15:25:39.000Z</time>
      </trkpt>
      <trkpt lat="45.76744" lon="4.68104">
        <ele>334.23492</ele>
        <time>2023-07-07T15:25:40.000Z</time>
      </trkpt>
      <trkpt lat="45.76743" lon="4.681">
        <ele>334.79626</ele>
        <time>2023-07-07T15:25:42.000Z</time>
      </trkpt>
      <trkpt lat="45.76745" lon="4.68098">
        <ele>335.35339</ele>
        <time>2023-07-07T15:25:43.000Z</time>
      </trkpt>
      <trkpt lat="45.76748" lon="4.68097">
        <ele>335.91296</ele>
        <time>2023-07-07T15:25:45.000Z</time>
      </trkpt>
      <trkpt lat="45.76753" lon="4.68098">
        <ele>336.45425</ele>
        <time>2023-07-07T15:25:47.000Z</time>
      </trkpt>
      <trkpt lat="45.76758" lon="4.68097">
        <ele>337.01508</ele>
        <time>2023-07-07T15:25:48.000Z</time>
      </trkpt>
      <trkpt lat="45.76762" lon="4.68098">
        <ele>337.61972</ele>
        <time>2023-07-07T15:25:49.000Z</time>
      </trkpt>
      <trkpt lat="45.76764" lon="4.68098">
        <ele>338.31915</ele>
        <time>2023-07-07T15:25:50.000Z</time>
      </trkpt>
      <trkpt lat="45.76768" lon="4.68098">
        <ele>339.05981</ele>
        <time>2023-07-07T15:25:51.000Z</time>
      </trkpt>
      <trkpt lat="45.7677" lon="4.68097">
        <ele>339.16592</ele>
        <time>2023-07-07T15:25:52.000Z</time>
      </trkpt>
      <trkpt lat="45.76773" lon="4.68096">
        <ele>339.33176</ele>
        <time>2023-07-07T15:25:53.000Z</time>
      </trkpt>
      <trkpt lat="45.76776" lon="4.68093">
        <ele>339.35431</ele>
        <time>2023-07-07T15:25:54.000Z</time>
      </trkpt>
      <trkpt lat="45.76779" lon="4.6809">
        <ele>339.39325</ele>
        <time>2023-07-07T15:25:55.000Z</time>
      </trkpt>
      <trkpt lat="45.76782" lon="4.68088">
        <ele>339.39023</ele>
        <time>2023-07-07T15:25:56.000Z</time>
      </trkpt>
      <trkpt lat="45.76784" lon="4.68085">
        <ele>339.34271</ele>
        <time>2023-07-07T15:25:57.000Z</time>
      </trkpt>
      <trkpt lat="45.76788" lon="4.68082">
        <ele>339.31183</ele>
        <time>2023-07-07T15:25:58.000Z</time>
      </trkpt>
      <trkpt lat="45.76792" lon="4.68079">
        <ele>339.26401</ele>
        <time>2023-07-07T15:25:59.000Z</time>
      </trkpt>
      <trkpt lat="45.76796" lon="4.68076">
        <ele>339.21088</ele>
        <time>2023-07-07T15:26:00.000Z</time>
      </trkpt>
      <trkpt lat="45.76799" lon="4.68073">
        <ele>339.36566</ele>
        <time>2023-07-07T15:26:01.000Z</time>
      </trkpt>
      <trkpt lat="45.76802" lon="4.6807">
        <ele>339.47821</ele>
        <time>2023-07-07T15:26:02.000Z</time>
      </trkpt>
      <trkpt lat="45.76807" lon="4.68067">
        <ele>339.57031</ele>
        <time>2023-07-07T15:26:03.000Z</time>
      </trkpt>
      <trkpt lat="45.76811" lon="4.68065">
        <ele>339.65536</ele>
        <time>2023-07-07T15:26:04.000Z</time>
      </trkpt>
      <trkpt lat="45.76815" lon="4.68064">
        <ele>339.74634</ele>
        <time>2023-07-07T15:26:05.000Z</time>
      </trkpt>
      <trkpt lat="45.76818" lon="4.68061">
        <ele>339.83826</ele>
        <time>2023-07-07T15:26:06.000Z</time>
      </trkpt>
      <trkpt lat="45.7682" lon="4.68057">
        <ele>339.9653</ele>
        <time>2023-07-07T15:26:07.000Z</time>
      </trkpt>
      <trkpt lat="45.76823" lon="4.68052">
        <ele>340.08682</ele>
        <time>2023-07-07T15:26:08.000Z</time>
      </trkpt>
      <trkpt lat="45.76827" lon="4.68046">
        <ele>340.23148</ele>
        <time>2023-07-07T15:26:09.000Z</time>
      </trkpt>
      <trkpt lat="45.7683" lon="4.68042">
        <ele>340.29071</ele>
        <time>2023-07-07T15:26:10.000Z</time>
      </trkpt>
      <trkpt lat="45.76834" lon="4.68038">
        <ele>340.30063</ele>
        <time>2023-07-07T15:26:11.000Z</time>
      </trkpt>
      <trkpt lat="45.76837" lon="4.68035">
        <ele>340.29086</ele>
        <time>2023-07-07T15:26:12.000Z</time>
      </trkpt>
      <trkpt lat="45.7684" lon="4.68032">
        <ele>340.29892</ele>
        <time>2023-07-07T15:26:13.000Z</time>
      </trkpt>
      <trkpt lat="45.76843" lon="4.68029">
        <ele>340.54721</ele>
        <time>2023-07-07T15:26:14.000Z</time>
      </trkpt>
      <trkpt lat="45.76846" lon="4.68026">
        <ele>340.71069</ele>
        <time>2023-07-07T15:26:15.000Z</time>
      </trkpt>
      <trkpt lat="45.76849" lon="4.68024">
        <ele>340.83441</ele>
        <time>2023-07-07T15:26:16.000Z</time>
      </trkpt>
      <trkpt lat="45.76851" lon="4.68023">
        <ele>340.94171</ele>
        <time>2023-07-07T15:26:17.000Z</time>
      </trkpt>
      <trkpt lat="45.76853" lon="4.68022">
        <ele>341.10309</ele>
        <time>2023-07-07T15:26:18.000Z</time>
      </trkpt>
      <trkpt lat="45.76855" lon="4.68021">
        <ele>341.25513</ele>
        <time>2023-07-07T15:26:19.000Z</time>
      </trkpt>
      <trkpt lat="45.76857" lon="4.6802">
        <ele>341.3808</ele>
        <time>2023-07-07T15:26:20.000Z</time>
      </trkpt>
      <trkpt lat="45.76858" lon="4.68018">
        <ele>341.50903</ele>
        <time>2023-07-07T15:26:21.000Z</time>
      </trkpt>
      <trkpt lat="45.7686" lon="4.68017">
        <ele>341.68542</ele>
        <time>2023-07-07T15:26:22.000Z</time>
      </trkpt>
      <trkpt lat="45.76863" lon="4.68015">
        <ele>341.82382</ele>
        <time>2023-07-07T15:26:23.000Z</time>
      </trkpt>
      <trkpt lat="45.76866" lon="4.68013">
        <ele>341.97635</ele>
        <time>2023-07-07T15:26:24.000Z</time>
      </trkpt>
      <trkpt lat="45.76869" lon="4.68011">
        <ele>342.13696</ele>
        <time>2023-07-07T15:26:25.000Z</time>
      </trkpt>
      <trkpt lat="45.76872" lon="4.6801">
        <ele>342.29446</ele>
        <time>2023-07-07T15:26:26.000Z</time>
      </trkpt>
      <trkpt lat="45.76875" lon="4.68009">
        <ele>342.4472</ele>
        <time>2023-07-07T15:26:27.000Z</time>
      </trkpt>
      <trkpt lat="45.76877" lon="4.68007">
        <ele>342.57501</ele>
        <time>2023-07-07T15:26:28.000Z</time>
      </trkpt>
      <trkpt lat="45.76879" lon="4.68005">
        <ele>342.65991</ele>
        <time>2023-07-07T15:26:29.000Z</time>
      </trkpt>
      <trkpt lat="45.76881" lon="4.68003">
        <ele>342.74844</ele>
        <time>2023-07-07T15:26:30.000Z</time>
      </trkpt>
      <trkpt lat="45.76884" lon="4.68001">
        <ele>342.8338</ele>
        <time>2023-07-07T15:26:31.000Z</time>
      </trkpt>
      <trkpt lat="45.76887" lon="4.67998">
        <ele>342.91693</ele>
        <time>2023-07-07T15:26:32.000Z</time>
      </trkpt>
      <trkpt lat="45.7689" lon="4.67994">
        <ele>343.0274</ele>
        <time>2023-07-07T15:26:33.000Z</time>
      </trkpt>
      <trkpt lat="45.76893" lon="4.67991">
        <ele>343.10287</ele>
        <time>2023-07-07T15:26:34.000Z</time>
      </trkpt>
      <trkpt lat="45.76895" lon="4.67988">
        <ele>343.26263</ele>
        <time>2023-07-07T15:26:35.000Z</time>
      </trkpt>
      <trkpt lat="45.76897" lon="4.67984">
        <ele>343.41681</ele>
        <time>2023-07-07T15:26:36.000Z</time>
      </trkpt>
      <trkpt lat="45.76899" lon="4.67981">
        <ele>343.5466</ele>
        <time>2023-07-07T15:26:37.000Z</time>
      </trkpt>
      <trkpt lat="45.769" lon="4.67977">
        <ele>343.60992</ele>
        <time>2023-07-07T15:26:38.000Z</time>
      </trkpt>
      <trkpt lat="45.76901" lon="4.67973">
        <ele>343.67993</ele>
        <time>2023-07-07T15:26:39.000Z</time>
      </trkpt>
      <trkpt lat="45.76902" lon="4.67969">
        <ele>343.71027</ele>
        <time>2023-07-07T15:26:40.000Z</time>
      </trkpt>
      <trkpt lat="45.76902" lon="4.67966">
        <ele>343.75885</ele>
        <time>2023-07-07T15:26:41.000Z</time>
      </trkpt>
      <trkpt lat="45.76903" lon="4.67961">
        <ele>343.79193</ele>
        <time>2023-07-07T15:26:42.000Z</time>
      </trkpt>
      <trkpt lat="45.76903" lon="4.67956">
        <ele>343.85605</ele>
        <time>2023-07-07T15:26:43.000Z</time>
      </trkpt>
      <trkpt lat="45.76904" lon="4.67951">
        <ele>343.92175</ele>
        <time>2023-07-07T15:26:44.000Z</time>
      </trkpt>
      <trkpt lat="45.76905" lon="4.67947">
        <ele>344.01538</ele>
        <time>2023-07-07T15:26:45.000Z</time>
      </trkpt>
      <trkpt lat="45.76907" lon="4.67941">
        <ele>344.07727</ele>
        <time>2023-07-07T15:26:46.000Z</time>
      </trkpt>
      <trkpt lat="45.76908" lon="4.67936">
        <ele>344.12799</ele>
        <time>2023-07-07T15:26:47.000Z</time>
      </trkpt>
      <trkpt lat="45.76909" lon="4.67932">
        <ele>344.18365</ele>
        <time>2023-07-07T15:26:48.000Z</time>
      </trkpt>
      <trkpt lat="45.7691" lon="4.67927">
        <ele>344.23273</ele>
        <time>2023-07-07T15:26:49.000Z</time>
      </trkpt>
      <trkpt lat="45.76911" lon="4.67924">
        <ele>344.30927</ele>
        <time>2023-07-07T15:26:50.000Z</time>
      </trkpt>
      <trkpt lat="45.76913" lon="4.67921">
        <ele>344.41934</ele>
        <time>2023-07-07T15:26:51.000Z</time>
      </trkpt>
      <trkpt lat="45.76915" lon="4.67917">
        <ele>344.51532</ele>
        <time>2023-07-07T15:26:52.000Z</time>
      </trkpt>
      <trkpt lat="45.76916" lon="4.67913">
        <ele>344.6008</ele>
        <time>2023-07-07T15:26:53.000Z</time>
      </trkpt>
      <trkpt lat="45.76917" lon="4.6791">
        <ele>344.66348</ele>
        <time>2023-07-07T15:26:54.000Z</time>
      </trkpt>
      <trkpt lat="45.76918" lon="4.67906">
        <ele>344.72073</ele>
        <time>2023-07-07T15:26:55.000Z</time>
      </trkpt>
      <trkpt lat="45.76919" lon="4.67903">
        <ele>344.79965</ele>
        <time>2023-07-07T15:26:56.000Z</time>
      </trkpt>
      <trkpt lat="45.76919" lon="4.679">
        <ele>344.89642</ele>
        <time>2023-07-07T15:26:57.000Z</time>
      </trkpt>
      <trkpt lat="45.7692" lon="4.67897">
        <ele>345.01395</ele>
        <time>2023-07-07T15:26:58.000Z</time>
      </trkpt>
      <trkpt lat="45.76921" lon="4.67894">
        <ele>345.11386</ele>
        <time>2023-07-07T15:26:59.000Z</time>
      </trkpt>
      <trkpt lat="45.76921" lon="4.67891">
        <ele>345.2496</ele>
        <time>2023-07-07T15:27:00.000Z</time>
      </trkpt>
      <trkpt lat="45.76922" lon="4.67888">
        <ele>345.33057</ele>
        <time>2023-07-07T15:27:01.000Z</time>
      </trkpt>
      <trkpt lat="45.76923" lon="4.67884">
        <ele>345.40259</ele>
        <time>2023-07-07T15:27:02.000Z</time>
      </trkpt>
      <trkpt lat="45.76923" lon="4.67881">
        <ele>345.4707</ele>
        <time>2023-07-07T15:27:03.000Z</time>
      </trkpt>
      <trkpt lat="45.76924" lon="4.67878">
        <ele>345.50519</ele>
        <time>2023-07-07T15:27:04.000Z</time>
      </trkpt>
      <trkpt lat="45.76925" lon="4.67875">
        <ele>345.50375</ele>
        <time>2023-07-07T15:27:05.000Z</time>
      </trkpt>
      <trkpt lat="45.76926" lon="4.6787">
        <ele>345.53235</ele>
        <time>2023-07-07T15:27:07.000Z</time>
      </trkpt>
      <trkpt lat="45.76926" lon="4.67866">
        <ele>345.58649</ele>
        <time>2023-07-07T15:27:08.000Z</time>
      </trkpt>
      <trkpt lat="45.76927" lon="4.67863">
        <ele>345.66879</ele>
        <time>2023-07-07T15:27:09.000Z</time>
      </trkpt>
      <trkpt lat="45.76928" lon="4.6786">
        <ele>345.76675</ele>
        <time>2023-07-07T15:27:10.000Z</time>
      </trkpt>
      <trkpt lat="45.76929" lon="4.67856">
        <ele>345.82098</ele>
        <time>2023-07-07T15:27:11.000Z</time>
      </trkpt>
      <trkpt lat="45.7693" lon="4.67854">
        <ele>345.84778</ele>
        <time>2023-07-07T15:27:12.000Z</time>
      </trkpt>
      <trkpt lat="45.76931" lon="4.67851">
        <ele>345.86029</ele>
        <time>2023-07-07T15:27:13.000Z</time>
      </trkpt>
      <trkpt lat="45.76933" lon="4.67847">
        <ele>345.85931</ele>
        <time>2023-07-07T15:27:14.000Z</time>
      </trkpt>
      <trkpt lat="45.76934" lon="4.67845">
        <ele>345.90265</ele>
        <time>2023-07-07T15:27:15.000Z</time>
      </trkpt>
      <trkpt lat="45.76935" lon="4.67843">
        <ele>345.93109</ele>
        <time>2023-07-07T15:27:16.000Z</time>
      </trkpt>
      <trkpt lat="45.76937" lon="4.6784">
        <ele>345.96738</ele>
        <time>2023-07-07T15:27:17.000Z</time>
      </trkpt>
      <trkpt lat="45.76938" lon="4.67837">
        <ele>345.98331</ele>
        <time>2023-07-07T15:27:18.000Z</time>
      </trkpt>
      <trkpt lat="45.76939" lon="4.67834">
        <ele>346.02097</ele>
        <time>2023-07-07T15:27:19.000Z</time>
      </trkpt>
      <trkpt lat="45.76941" lon="4.67832">
        <ele>346.06461</ele>
        <time>2023-07-07T15:27:20.000Z</time>
      </trkpt>
      <trkpt lat="45.76942" lon="4.67829">
        <ele>346.12097</ele>
        <time>2023-07-07T15:27:21.000Z</time>
      </trkpt>
      <trkpt lat="45.76943" lon="4.67827">
        <ele>346.17722</ele>
        <time>2023-07-07T15:27:22.000Z</time>
      </trkpt>
      <trkpt lat="45.76944" lon="4.67825">
        <ele>346.24652</ele>
        <time>2023-07-07T15:27:23.000Z</time>
      </trkpt>
      <trkpt lat="45.76945" lon="4.67822">
        <ele>346.33157</ele>
        <time>2023-07-07T15:27:24.000Z</time>
      </trkpt>
      <trkpt lat="45.76946" lon="4.67819">
        <ele>346.45108</ele>
        <time>2023-07-07T15:27:25.000Z</time>
      </trkpt>
      <trkpt lat="45.76948" lon="4.67817">
        <ele>346.62192</ele>
        <time>2023-07-07T15:27:26.000Z</time>
      </trkpt>
      <trkpt lat="45.76949" lon="4.67814">
        <ele>346.77032</ele>
        <time>2023-07-07T15:27:27.000Z</time>
      </trkpt>
      <trkpt lat="45.76951" lon="4.67811">
        <ele>346.9158</ele>
        <time>2023-07-07T15:27:28.000Z</time>
      </trkpt>
      <trkpt lat="45.76953" lon="4.67809">
        <ele>347.05167</ele>
        <time>2023-07-07T15:27:29.000Z</time>
      </trkpt>
      <trkpt lat="45.76954" lon="4.67806">
        <ele>347.14429</ele>
        <time>2023-07-07T15:27:30.000Z</time>
      </trkpt>
      <trkpt lat="45.76956" lon="4.67802">
        <ele>347.24847</ele>
        <time>2023-07-07T15:27:31.000Z</time>
      </trkpt>
      <trkpt lat="45.76957" lon="4.67798">
        <ele>347.38007</ele>
        <time>2023-07-07T15:27:32.000Z</time>
      </trkpt>
      <trkpt lat="45.76958" lon="4.67793">
        <ele>347.53204</ele>
        <time>2023-07-07T15:27:33.000Z</time>
      </trkpt>
      <trkpt lat="45.76959" lon="4.6779">
        <ele>347.67636</ele>
        <time>2023-07-07T15:27:34.000Z</time>
      </trkpt>
      <trkpt lat="45.7696" lon="4.67786">
        <ele>347.82098</ele>
        <time>2023-07-07T15:27:35.000Z</time>
      </trkpt>
      <trkpt lat="45.7696" lon="4.67783">
        <ele>347.9743</ele>
        <time>2023-07-07T15:27:36.000Z</time>
      </trkpt>
      <trkpt lat="45.76961" lon="4.6778">
        <ele>348.11539</ele>
        <time>2023-07-07T15:27:37.000Z</time>
      </trkpt>
      <trkpt lat="45.76963" lon="4.67776">
        <ele>348.25592</ele>
        <time>2023-07-07T15:27:38.000Z</time>
      </trkpt>
      <trkpt lat="45.76964" lon="4.67773">
        <ele>348.3949</ele>
        <time>2023-07-07T15:27:39.000Z</time>
      </trkpt>
      <trkpt lat="45.76965" lon="4.6777">
        <ele>348.5231</ele>
        <time>2023-07-07T15:27:40.000Z</time>
      </trkpt>
      <trkpt lat="45.76966" lon="4.67767">
        <ele>348.66418</ele>
        <time>2023-07-07T15:27:41.000Z</time>
      </trkpt>
      <trkpt lat="45.76968" lon="4.67763">
        <ele>348.84076</ele>
        <time>2023-07-07T15:27:42.000Z</time>
      </trkpt>
      <trkpt lat="45.76969" lon="4.6776">
        <ele>349.0018</ele>
        <time>2023-07-07T15:27:43.000Z</time>
      </trkpt>
      <trkpt lat="45.7697" lon="4.67757">
        <ele>349.17114</ele>
        <time>2023-07-07T15:27:44.000Z</time>
      </trkpt>
      <trkpt lat="45.76971" lon="4.67754">
        <ele>349.3447</ele>
        <time>2023-07-07T15:27:45.000Z</time>
      </trkpt>
      <trkpt lat="45.76972" lon="4.67752">
        <ele>349.47302</ele>
        <time>2023-07-07T15:27:46.000Z</time>
      </trkpt>
      <trkpt lat="45.76973" lon="4.67749">
        <ele>349.62885</ele>
        <time>2023-07-07T15:27:47.000Z</time>
      </trkpt>
      <trkpt lat="45.76973" lon="4.67746">
        <ele>349.73447</ele>
        <time>2023-07-07T15:27:48.000Z</time>
      </trkpt>
      <trkpt lat="45.76974" lon="4.67742">
        <ele>349.84012</ele>
        <time>2023-07-07T15:27:49.000Z</time>
      </trkpt>
      <trkpt lat="45.76976" lon="4.67739">
        <ele>350.14545</ele>
        <time>2023-07-07T15:27:50.000Z</time>
      </trkpt>
      <trkpt lat="45.76977" lon="4.67735">
        <ele>350.46906</ele>
        <time>2023-07-07T15:27:51.000Z</time>
      </trkpt>
      <trkpt lat="45.76978" lon="4.67732">
        <ele>350.754</ele>
        <time>2023-07-07T15:27:52.000Z</time>
      </trkpt>
      <trkpt lat="45.76979" lon="4.67728">
        <ele>351.05276</ele>
        <time>2023-07-07T15:27:53.000Z</time>
      </trkpt>
      <trkpt lat="45.76981" lon="4.67725">
        <ele>351.3775</ele>
        <time>2023-07-07T15:27:54.000Z</time>
      </trkpt>
      <trkpt lat="45.76983" lon="4.67721">
        <ele>351.64362</ele>
        <time>2023-07-07T15:27:55.000Z</time>
      </trkpt>
      <trkpt lat="45.76984" lon="4.67718">
        <ele>351.90543</ele>
        <time>2023-07-07T15:27:56.000Z</time>
      </trkpt>
      <trkpt lat="45.76985" lon="4.67716">
        <ele>352.15344</ele>
        <time>2023-07-07T15:27:57.000Z</time>
      </trkpt>
      <trkpt lat="45.76987" lon="4.67713">
        <ele>352.42242</ele>
        <time>2023-07-07T15:27:58.000Z</time>
      </trkpt>
      <trkpt lat="45.76988" lon="4.6771">
        <ele>352.66278</ele>
        <time>2023-07-07T15:27:59.000Z</time>
      </trkpt>
      <trkpt lat="45.7699" lon="4.67707">
        <ele>352.89218</ele>
        <time>2023-07-07T15:28:00.000Z</time>
      </trkpt>
      <trkpt lat="45.76991" lon="4.67704">
        <ele>353.08942</ele>
        <time>2023-07-07T15:28:01.000Z</time>
      </trkpt>
      <trkpt lat="45.76993" lon="4.67702">
        <ele>353.16318</ele>
        <time>2023-07-07T15:28:02.000Z</time>
      </trkpt>
      <trkpt lat="45.76994" lon="4.67698">
        <ele>353.2366</ele>
        <time>2023-07-07T15:28:03.000Z</time>
      </trkpt>
      <trkpt lat="45.76996" lon="4.67695">
        <ele>353.27673</ele>
        <time>2023-07-07T15:28:04.000Z</time>
      </trkpt>
      <trkpt lat="45.76998" lon="4.67692">
        <ele>353.30173</ele>
        <time>2023-07-07T15:28:05.000Z</time>
      </trkpt>
      <trkpt lat="45.76999" lon="4.67689">
        <ele>353.3006</ele>
        <time>2023-07-07T15:28:06.000Z</time>
      </trkpt>
      <trkpt lat="45.77001" lon="4.67686">
        <ele>353.31046</ele>
        <time>2023-07-07T15:28:07.000Z</time>
      </trkpt>
      <trkpt lat="45.77003" lon="4.67683">
        <ele>353.33798</ele>
        <time>2023-07-07T15:28:08.000Z</time>
      </trkpt>
      <trkpt lat="45.77005" lon="4.6768">
        <ele>353.37653</ele>
        <time>2023-07-07T15:28:09.000Z</time>
      </trkpt>
      <trkpt lat="45.77007" lon="4.67677">
        <ele>353.19867</ele>
        <time>2023-07-07T15:28:10.000Z</time>
      </trkpt>
      <trkpt lat="45.77009" lon="4.67675">
        <ele>353.12085</ele>
        <time>2023-07-07T15:28:11.000Z</time>
      </trkpt>
      <trkpt lat="45.77011" lon="4.67673">
        <ele>353.05408</ele>
        <time>2023-07-07T15:28:12.000Z</time>
      </trkpt>
      <trkpt lat="45.77013" lon="4.67671">
        <ele>353.00839</ele>
        <time>2023-07-07T15:28:13.000Z</time>
      </trkpt>
      <trkpt lat="45.77015" lon="4.67668">
        <ele>352.94495</ele>
        <time>2023-07-07T15:28:14.000Z</time>
      </trkpt>
      <trkpt lat="45.77016" lon="4.67665">
        <ele>352.94843</ele>
        <time>2023-07-07T15:28:15.000Z</time>
      </trkpt>
      <trkpt lat="45.77019" lon="4.67662">
        <ele>352.96747</ele>
        <time>2023-07-07T15:28:16.000Z</time>
      </trkpt>
      <trkpt lat="45.77021" lon="4.6766">
        <ele>352.96814</ele>
        <time>2023-07-07T15:28:17.000Z</time>
      </trkpt>
      <trkpt lat="45.77023" lon="4.67658">
        <ele>352.91156</ele>
        <time>2023-07-07T15:28:18.000Z</time>
      </trkpt>
      <trkpt lat="45.77025" lon="4.67656">
        <ele>352.83673</ele>
        <time>2023-07-07T15:28:19.000Z</time>
      </trkpt>
      <trkpt lat="45.77027" lon="4.67654">
        <ele>352.7558</ele>
        <time>2023-07-07T15:28:20.000Z</time>
      </trkpt>
      <trkpt lat="45.77029" lon="4.67652">
        <ele>352.76364</ele>
        <time>2023-07-07T15:28:21.000Z</time>
      </trkpt>
      <trkpt lat="45.77031" lon="4.6765">
        <ele>352.88617</ele>
        <time>2023-07-07T15:28:22.000Z</time>
      </trkpt>
      <trkpt lat="45.77033" lon="4.67648">
        <ele>352.96164</ele>
        <time>2023-07-07T15:28:23.000Z</time>
      </trkpt>
      <trkpt lat="45.77035" lon="4.67646">
        <ele>353.01532</ele>
        <time>2023-07-07T15:28:24.000Z</time>
      </trkpt>
      <trkpt lat="45.77038" lon="4.67643">
        <ele>353.0318</ele>
        <time>2023-07-07T15:28:25.000Z</time>
      </trkpt>
      <trkpt lat="45.7704" lon="4.67641">
        <ele>353.19672</ele>
        <time>2023-07-07T15:28:26.000Z</time>
      </trkpt>
      <trkpt lat="45.77043" lon="4.67639">
        <ele>353.49652</ele>
        <time>2023-07-07T15:28:27.000Z</time>
      </trkpt>
      <trkpt lat="45.77045" lon="4.67637">
        <ele>353.82077</ele>
        <time>2023-07-07T15:28:28.000Z</time>
      </trkpt>
      <trkpt lat="45.77048" lon="4.67634">
        <ele>354.13049</ele>
        <time>2023-07-07T15:28:29.000Z</time>
      </trkpt>
      <trkpt lat="45.77051" lon="4.67632">
        <ele>354.47226</ele>
        <time>2023-07-07T15:28:30.000Z</time>
      </trkpt>
      <trkpt lat="45.77054" lon="4.6763">
        <ele>354.72537</ele>
        <time>2023-07-07T15:28:31.000Z</time>
      </trkpt>
      <trkpt lat="45.77056" lon="4.67627">
        <ele>354.98984</ele>
        <time>2023-07-07T15:28:32.000Z</time>
      </trkpt>
      <trkpt lat="45.77058" lon="4.67625">
        <ele>355.17026</ele>
        <time>2023-07-07T15:28:33.000Z</time>
      </trkpt>
      <trkpt lat="45.77061" lon="4.67623">
        <ele>355.33313</ele>
        <time>2023-07-07T15:28:34.000Z</time>
      </trkpt>
      <trkpt lat="45.77063" lon="4.67621">
        <ele>355.47452</ele>
        <time>2023-07-07T15:28:35.000Z</time>
      </trkpt>
      <trkpt lat="45.77065" lon="4.67619">
        <ele>355.59955</ele>
        <time>2023-07-07T15:28:36.000Z</time>
      </trkpt>
      <trkpt lat="45.77067" lon="4.67618">
        <ele>355.77179</ele>
        <time>2023-07-07T15:28:37.000Z</time>
      </trkpt>
      <trkpt lat="45.77069" lon="4.67617">
        <ele>355.99713</ele>
        <time>2023-07-07T15:28:38.000Z</time>
      </trkpt>
      <trkpt lat="45.77071" lon="4.67616">
        <ele>356.22778</ele>
        <time>2023-07-07T15:28:39.000Z</time>
      </trkpt>
      <trkpt lat="45.77074" lon="4.67614">
        <ele>356.40683</ele>
        <time>2023-07-07T15:28:40.000Z</time>
      </trkpt>
      <trkpt lat="45.77076" lon="4.67613">
        <ele>356.49185</ele>
        <time>2023-07-07T15:28:41.000Z</time>
      </trkpt>
      <trkpt lat="45.77078" lon="4.67612">
        <ele>356.612</ele>
        <time>2023-07-07T15:28:42.000Z</time>
      </trkpt>
      <trkpt lat="45.7708" lon="4.67611">
        <ele>356.10739</ele>
        <time>2023-07-07T15:28:43.000Z</time>
      </trkpt>
      <trkpt lat="45.77082" lon="4.67611">
        <ele>355.8699</ele>
        <time>2023-07-07T15:28:44.000Z</time>
      </trkpt>
      <trkpt lat="45.77084" lon="4.6761">
        <ele>355.73492</ele>
        <time>2023-07-07T15:28:45.000Z</time>
      </trkpt>
      <trkpt lat="45.77086" lon="4.67609">
        <ele>355.36951</ele>
        <time>2023-07-07T15:28:46.000Z</time>
      </trkpt>
      <trkpt lat="45.77088" lon="4.67608">
        <ele>354.8483</ele>
        <time>2023-07-07T15:28:47.000Z</time>
      </trkpt>
      <trkpt lat="45.7709" lon="4.67606">
        <ele>354.29761</ele>
        <time>2023-07-07T15:28:48.000Z</time>
      </trkpt>
      <trkpt lat="45.77092" lon="4.67605">
        <ele>353.84216</ele>
        <time>2023-07-07T15:28:49.000Z</time>
      </trkpt>
      <trkpt lat="45.77093" lon="4.67604">
        <ele>353.44254</ele>
        <time>2023-07-07T15:28:50.000Z</time>
      </trkpt>
      <trkpt lat="45.77095" lon="4.67603">
        <ele>352.99319</ele>
        <time>2023-07-07T15:28:51.000Z</time>
      </trkpt>
      <trkpt lat="45.77097" lon="4.67601">
        <ele>352.47485</ele>
        <time>2023-07-07T15:28:52.000Z</time>
      </trkpt>
      <trkpt lat="45.77099" lon="4.676">
        <ele>351.97403</ele>
        <time>2023-07-07T15:28:53.000Z</time>
      </trkpt>
      <trkpt lat="45.77102" lon="4.67597">
        <ele>351.43674</ele>
        <time>2023-07-07T15:28:55.000Z</time>
      </trkpt>
      <trkpt lat="45.77105" lon="4.67597">
        <ele>350.83148</ele>
        <time>2023-07-07T15:28:57.000Z</time>
      </trkpt>
      <trkpt lat="45.77108" lon="4.67598">
        <ele>350.24619</ele>
        <time>2023-07-07T15:28:59.000Z</time>
      </trkpt>
      <trkpt lat="45.77111" lon="4.67597">
        <ele>349.68344</ele>
        <time>2023-07-07T15:29:01.000Z</time>
      </trkpt>
      <trkpt lat="45.77113" lon="4.67596">
        <ele>349.1546</ele>
        <time>2023-07-07T15:29:03.000Z</time>
      </trkpt>
      <trkpt lat="45.77115" lon="4.67595">
        <ele>348.63483</ele>
        <time>2023-07-07T15:29:04.000Z</time>
      </trkpt>
      <trkpt lat="45.77117" lon="4.67594">
        <ele>348.20963</ele>
        <time>2023-07-07T15:29:05.000Z</time>
      </trkpt>
      <trkpt lat="45.77119" lon="4.67593">
        <ele>347.75861</ele>
        <time>2023-07-07T15:29:06.000Z</time>
      </trkpt>
      <trkpt lat="45.77121" lon="4.67591">
        <ele>347.19427</ele>
        <time>2023-07-07T15:29:07.000Z</time>
      </trkpt>
      <trkpt lat="45.77124" lon="4.67589">
        <ele>347.32343</ele>
        <time>2023-07-07T15:29:08.000Z</time>
      </trkpt>
      <trkpt lat="45.77126" lon="4.67588">
        <ele>347.26923</ele>
        <time>2023-07-07T15:29:09.000Z</time>
      </trkpt>
      <trkpt lat="45.77128" lon="4.67586">
        <ele>347.06305</ele>
        <time>2023-07-07T15:29:10.000Z</time>
      </trkpt>
      <trkpt lat="45.7713" lon="4.67584">
        <ele>346.93082</ele>
        <time>2023-07-07T15:29:11.000Z</time>
      </trkpt>
      <trkpt lat="45.77132" lon="4.67583">
        <ele>346.75015</ele>
        <time>2023-07-07T15:29:12.000Z</time>
      </trkpt>
      <trkpt lat="45.77135" lon="4.67581">
        <ele>346.6167</ele>
        <time>2023-07-07T15:29:13.000Z</time>
      </trkpt>
      <trkpt lat="45.77137" lon="4.67579">
        <ele>346.35101</ele>
        <time>2023-07-07T15:29:14.000Z</time>
      </trkpt>
      <trkpt lat="45.77139" lon="4.67577">
        <ele>346.06293</ele>
        <time>2023-07-07T15:29:15.000Z</time>
      </trkpt>
      <trkpt lat="45.77142" lon="4.67574">
        <ele>345.77942</ele>
        <time>2023-07-07T15:29:16.000Z</time>
      </trkpt>
      <trkpt lat="45.77144" lon="4.67573">
        <ele>345.55496</ele>
        <time>2023-07-07T15:29:17.000Z</time>
      </trkpt>
      <trkpt lat="45.77147" lon="4.6757">
        <ele>345.27509</ele>
        <time>2023-07-07T15:29:18.000Z</time>
      </trkpt>
      <trkpt lat="45.7715" lon="4.67569">
        <ele>345.10635</ele>
        <time>2023-07-07T15:29:19.000Z</time>
      </trkpt>
      <trkpt lat="45.77152" lon="4.67567">
        <ele>345.05084</ele>
        <time>2023-07-07T15:29:20.000Z</time>
      </trkpt>
      <trkpt lat="45.77154" lon="4.67565">
        <ele>345.00906</ele>
        <time>2023-07-07T15:29:21.000Z</time>
      </trkpt>
      <trkpt lat="45.77156" lon="4.67564">
        <ele>345.03436</ele>
        <time>2023-07-07T15:29:23.000Z</time>
      </trkpt>
      <trkpt lat="45.77157" lon="4.67561">
        <ele>345.78754</ele>
        <time>2023-07-07T15:29:32.000Z</time>
      </trkpt>
      <trkpt lat="45.77157" lon="4.67558">
        <ele>346.92328</ele>
        <time>2023-07-07T15:30:22.000Z</time>
      </trkpt>
      <trkpt lat="45.77157" lon="4.67556">
        <ele>348.11819</ele>
        <time>2023-07-07T15:30:42.000Z</time>
      </trkpt>
      <trkpt lat="45.77159" lon="4.67553">
        <ele>348.92789</ele>
        <time>2023-07-07T15:31:33.000Z</time>
      </trkpt>
      <trkpt lat="45.77163" lon="4.67552">
        <ele>349.76306</ele>
        <time>2023-07-07T15:31:35.000Z</time>
      </trkpt>
      <trkpt lat="45.77165" lon="4.67551">
        <ele>350.86752</ele>
        <time>2023-07-07T15:31:36.000Z</time>
      </trkpt>
      <trkpt lat="45.77167" lon="4.6755">
        <ele>351.92877</ele>
        <time>2023-07-07T15:31:37.000Z</time>
      </trkpt>
      <trkpt lat="45.77169" lon="4.6755">
        <ele>353.11279</ele>
        <time>2023-07-07T15:31:38.000Z</time>
      </trkpt>
      <trkpt lat="45.77172" lon="4.67549">
        <ele>354.33212</ele>
        <time>2023-07-07T15:31:39.000Z</time>
      </trkpt>
      <trkpt lat="45.77174" lon="4.67548">
        <ele>355.58936</ele>
        <time>2023-07-07T15:31:40.000Z</time>
      </trkpt>
      <trkpt lat="45.77176" lon="4.67547">
        <ele>356.83002</ele>
        <time>2023-07-07T15:31:41.000Z</time>
      </trkpt>
      <trkpt lat="45.77178" lon="4.67545">
        <ele>358.09515</ele>
        <time>2023-07-07T15:31:42.000Z</time>
      </trkpt>
      <trkpt lat="45.7718" lon="4.67544">
        <ele>359.33142</ele>
        <time>2023-07-07T15:31:43.000Z</time>
      </trkpt>
      <trkpt lat="45.77184" lon="4.67543">
        <ele>361.04669</ele>
        <time>2023-07-07T15:31:44.000Z</time>
      </trkpt>
      <trkpt lat="45.77187" lon="4.6754">
        <ele>362.77618</ele>
        <time>2023-07-07T15:31:45.000Z</time>
      </trkpt>
      <trkpt lat="45.77189" lon="4.67539">
        <ele>364.18628</ele>
        <time>2023-07-07T15:31:46.000Z</time>
      </trkpt>
      <trkpt lat="45.77191" lon="4.67537">
        <ele>365.54901</ele>
        <time>2023-07-07T15:31:47.000Z</time>
      </trkpt>
      <trkpt lat="45.77193" lon="4.67535">
        <ele>366.83957</ele>
        <time>2023-07-07T15:31:48.000Z</time>
      </trkpt>
      <trkpt lat="45.77195" lon="4.67533">
        <ele>368.09833</ele>
        <time>2023-07-07T15:31:49.000Z</time>
      </trkpt>
      <trkpt lat="45.77197" lon="4.67532">
        <ele>369.24033</ele>
        <time>2023-07-07T15:31:50.000Z</time>
      </trkpt>
      <trkpt lat="45.77199" lon="4.6753">
        <ele>369.61078</ele>
        <time>2023-07-07T15:31:51.000Z</time>
      </trkpt>
      <trkpt lat="45.77202" lon="4.67528">
        <ele>369.61877</ele>
        <time>2023-07-07T15:31:52.000Z</time>
      </trkpt>
      <trkpt lat="45.77203" lon="4.67527">
        <ele>369.55823</ele>
        <time>2023-07-07T15:31:53.000Z</time>
      </trkpt>
      <trkpt lat="45.77206" lon="4.67525">
        <ele>369.89178</ele>
        <time>2023-07-07T15:31:54.000Z</time>
      </trkpt>
      <trkpt lat="45.77207" lon="4.67522">
        <ele>370.13867</ele>
        <time>2023-07-07T15:31:55.000Z</time>
      </trkpt>
      <trkpt lat="45.77209" lon="4.6752">
        <ele>369.97562</ele>
        <time>2023-07-07T15:31:56.000Z</time>
      </trkpt>
      <trkpt lat="45.77211" lon="4.67518">
        <ele>370.08978</ele>
        <time>2023-07-07T15:31:57.000Z</time>
      </trkpt>
      <trkpt lat="45.77214" lon="4.67516">
        <ele>370.11536</ele>
        <time>2023-07-07T15:31:58.000Z</time>
      </trkpt>
      <trkpt lat="45.77216" lon="4.67513">
        <ele>370.1449</ele>
        <time>2023-07-07T15:31:59.000Z</time>
      </trkpt>
      <trkpt lat="45.77218" lon="4.67512">
        <ele>370.16864</ele>
        <time>2023-07-07T15:32:00.000Z</time>
      </trkpt>
      <trkpt lat="45.77221" lon="4.6751">
        <ele>370.19785</ele>
        <time>2023-07-07T15:32:01.000Z</time>
      </trkpt>
      <trkpt lat="45.77223" lon="4.67507">
        <ele>370.23956</ele>
        <time>2023-07-07T15:32:02.000Z</time>
      </trkpt>
      <trkpt lat="45.77225" lon="4.67505">
        <ele>370.31967</ele>
        <time>2023-07-07T15:32:03.000Z</time>
      </trkpt>
      <trkpt lat="45.77227" lon="4.67502">
        <ele>369.93118</ele>
        <time>2023-07-07T15:32:04.000Z</time>
      </trkpt>
      <trkpt lat="45.7723" lon="4.675">
        <ele>369.55048</ele>
        <time>2023-07-07T15:32:05.000Z</time>
      </trkpt>
      <trkpt lat="45.77232" lon="4.67497">
        <ele>369.55658</ele>
        <time>2023-07-07T15:32:06.000Z</time>
      </trkpt>
      <trkpt lat="45.77234" lon="4.67495">
        <ele>369.5386</ele>
        <time>2023-07-07T15:32:07.000Z</time>
      </trkpt>
      <trkpt lat="45.77236" lon="4.67493">
        <ele>369.38367</ele>
        <time>2023-07-07T15:32:08.000Z</time>
      </trkpt>
      <trkpt lat="45.77238" lon="4.67491">
        <ele>369.13214</ele>
        <time>2023-07-07T15:32:09.000Z</time>
      </trkpt>
      <trkpt lat="45.7724" lon="4.67489">
        <ele>368.91034</ele>
        <time>2023-07-07T15:32:10.000Z</time>
      </trkpt>
      <trkpt lat="45.77242" lon="4.67488">
        <ele>369.00903</ele>
        <time>2023-07-07T15:32:11.000Z</time>
      </trkpt>
      <trkpt lat="45.77244" lon="4.67486">
        <ele>368.91339</ele>
        <time>2023-07-07T15:32:12.000Z</time>
      </trkpt>
      <trkpt lat="45.77246" lon="4.67485">
        <ele>368.83368</ele>
        <time>2023-07-07T15:32:13.000Z</time>
      </trkpt>
      <trkpt lat="45.77248" lon="4.67483">
        <ele>368.75845</ele>
        <time>2023-07-07T15:32:14.000Z</time>
      </trkpt>
      <trkpt lat="45.7725" lon="4.67481">
        <ele>368.81229</ele>
        <time>2023-07-07T15:32:15.000Z</time>
      </trkpt>
      <trkpt lat="45.77253" lon="4.67479">
        <ele>369.05017</ele>
        <time>2023-07-07T15:32:16.000Z</time>
      </trkpt>
      <trkpt lat="45.77255" lon="4.67477">
        <ele>369.1601</ele>
        <time>2023-07-07T15:32:17.000Z</time>
      </trkpt>
      <trkpt lat="45.77257" lon="4.67476">
        <ele>369.33597</ele>
        <time>2023-07-07T15:32:18.000Z</time>
      </trkpt>
      <trkpt lat="45.77259" lon="4.67474">
        <ele>369.50238</ele>
        <time>2023-07-07T15:32:19.000Z</time>
      </trkpt>
      <trkpt lat="45.77261" lon="4.67472">
        <ele>369.69757</ele>
        <time>2023-07-07T15:32:20.000Z</time>
      </trkpt>
      <trkpt lat="45.77263" lon="4.6747">
        <ele>369.90121</ele>
        <time>2023-07-07T15:32:21.000Z</time>
      </trkpt>
      <trkpt lat="45.77265" lon="4.67468">
        <ele>370.12073</ele>
        <time>2023-07-07T15:32:22.000Z</time>
      </trkpt>
      <trkpt lat="45.77268" lon="4.67467">
        <ele>370.31793</ele>
        <time>2023-07-07T15:32:23.000Z</time>
      </trkpt>
      <trkpt lat="45.7727" lon="4.67464">
        <ele>370.3609</ele>
        <time>2023-07-07T15:32:24.000Z</time>
      </trkpt>
      <trkpt lat="45.77272" lon="4.67462">
        <ele>370.38306</ele>
        <time>2023-07-07T15:32:25.000Z</time>
      </trkpt>
      <trkpt lat="45.77274" lon="4.6746">
        <ele>370.39856</ele>
        <time>2023-07-07T15:32:26.000Z</time>
      </trkpt>
      <trkpt lat="45.77277" lon="4.67458">
        <ele>370.45856</ele>
        <time>2023-07-07T15:32:27.000Z</time>
      </trkpt>
      <trkpt lat="45.7728" lon="4.67456">
        <ele>370.66919</ele>
        <time>2023-07-07T15:32:28.000Z</time>
      </trkpt>
      <trkpt lat="45.77283" lon="4.67456">
        <ele>371.78796</ele>
        <time>2023-07-07T15:32:29.000Z</time>
      </trkpt>
      <trkpt lat="45.77286" lon="4.67455">
        <ele>372.90295</ele>
        <time>2023-07-07T15:32:30.000Z</time>
      </trkpt>
      <trkpt lat="45.77289" lon="4.67452">
        <ele>373.1767</ele>
        <time>2023-07-07T15:32:31.000Z</time>
      </trkpt>
      <trkpt lat="45.77291" lon="4.6745">
        <ele>373.51413</ele>
        <time>2023-07-07T15:32:32.000Z</time>
      </trkpt>
      <trkpt lat="45.77295" lon="4.67448">
        <ele>373.82425</ele>
        <time>2023-07-07T15:32:33.000Z</time>
      </trkpt>
      <trkpt lat="45.77297" lon="4.67445">
        <ele>374.14862</ele>
        <time>2023-07-07T15:32:34.000Z</time>
      </trkpt>
      <trkpt lat="45.77301" lon="4.67441">
        <ele>374.48166</ele>
        <time>2023-07-07T15:32:35.000Z</time>
      </trkpt>
      <trkpt lat="45.77304" lon="4.67438">
        <ele>374.81754</ele>
        <time>2023-07-07T15:32:36.000Z</time>
      </trkpt>
      <trkpt lat="45.77307" lon="4.67436">
        <ele>375.04257</ele>
        <time>2023-07-07T15:32:37.000Z</time>
      </trkpt>
      <trkpt lat="45.7731" lon="4.67433">
        <ele>375.14502</ele>
        <time>2023-07-07T15:32:38.000Z</time>
      </trkpt>
      <trkpt lat="45.77312" lon="4.67429">
        <ele>375.25674</ele>
        <time>2023-07-07T15:32:39.000Z</time>
      </trkpt>
      <trkpt lat="45.77314" lon="4.67426">
        <ele>375.35071</ele>
        <time>2023-07-07T15:32:40.000Z</time>
      </trkpt>
      <trkpt lat="45.77316" lon="4.67423">
        <ele>375.4317</ele>
        <time>2023-07-07T15:32:41.000Z</time>
      </trkpt>
      <trkpt lat="45.77319" lon="4.6742">
        <ele>375.50833</ele>
        <time>2023-07-07T15:32:42.000Z</time>
      </trkpt>
      <trkpt lat="45.77321" lon="4.67417">
        <ele>375.58005</ele>
        <time>2023-07-07T15:32:43.000Z</time>
      </trkpt>
      <trkpt lat="45.77324" lon="4.67414">
        <ele>375.82611</ele>
        <time>2023-07-07T15:32:44.000Z</time>
      </trkpt>
      <trkpt lat="45.77327" lon="4.67412">
        <ele>376.05197</ele>
        <time>2023-07-07T15:32:45.000Z</time>
      </trkpt>
      <trkpt lat="45.7733" lon="4.67409">
        <ele>376.16229</ele>
        <time>2023-07-07T15:32:46.000Z</time>
      </trkpt>
      <trkpt lat="45.77333" lon="4.67407">
        <ele>376.22168</ele>
        <time>2023-07-07T15:32:47.000Z</time>
      </trkpt>
      <trkpt lat="45.77335" lon="4.67405">
        <ele>376.22391</ele>
        <time>2023-07-07T15:32:48.000Z</time>
      </trkpt>
      <trkpt lat="45.77338" lon="4.67403">
        <ele>375.46082</ele>
        <time>2023-07-07T15:32:49.000Z</time>
      </trkpt>
      <trkpt lat="45.77341" lon="4.674">
        <ele>375.04813</ele>
        <time>2023-07-07T15:32:50.000Z</time>
      </trkpt>
      <trkpt lat="45.77344" lon="4.67397">
        <ele>375.0354</ele>
        <time>2023-07-07T15:32:51.000Z</time>
      </trkpt>
      <trkpt lat="45.77347" lon="4.67393">
        <ele>375.07965</ele>
        <time>2023-07-07T15:32:52.000Z</time>
      </trkpt>
      <trkpt lat="45.7735" lon="4.6739">
        <ele>375.07269</ele>
        <time>2023-07-07T15:32:53.000Z</time>
      </trkpt>
      <trkpt lat="45.77353" lon="4.67388">
        <ele>375.13531</ele>
        <time>2023-07-07T15:32:54.000Z</time>
      </trkpt>
      <trkpt lat="45.77356" lon="4.67385">
        <ele>375.25677</ele>
        <time>2023-07-07T15:32:55.000Z</time>
      </trkpt>
      <trkpt lat="45.77359" lon="4.67382">
        <ele>375.32025</ele>
        <time>2023-07-07T15:32:56.000Z</time>
      </trkpt>
      <trkpt lat="45.77362" lon="4.6738">
        <ele>375.3652</ele>
        <time>2023-07-07T15:32:57.000Z</time>
      </trkpt>
      <trkpt lat="45.77364" lon="4.67377">
        <ele>375.32562</ele>
        <time>2023-07-07T15:32:58.000Z</time>
      </trkpt>
      <trkpt lat="45.77367" lon="4.67375">
        <ele>375.30704</ele>
        <time>2023-07-07T15:32:59.000Z</time>
      </trkpt>
      <trkpt lat="45.77369" lon="4.67372">
        <ele>375.30566</ele>
        <time>2023-07-07T15:33:00.000Z</time>
      </trkpt>
      <trkpt lat="45.77372" lon="4.67369">
        <ele>375.21988</ele>
        <time>2023-07-07T15:33:01.000Z</time>
      </trkpt>
      <trkpt lat="45.77375" lon="4.67366">
        <ele>374.90753</ele>
        <time>2023-07-07T15:33:02.000Z</time>
      </trkpt>
      <trkpt lat="45.77379" lon="4.67362">
        <ele>375.08264</ele>
        <time>2023-07-07T15:33:03.000Z</time>
      </trkpt>
      <trkpt lat="45.77382" lon="4.67359">
        <ele>375.19199</ele>
        <time>2023-07-07T15:33:04.000Z</time>
      </trkpt>
      <trkpt lat="45.77385" lon="4.67356">
        <ele>375.34869</ele>
        <time>2023-07-07T15:33:05.000Z</time>
      </trkpt>
      <trkpt lat="45.77388" lon="4.67353">
        <ele>375.55878</ele>
        <time>2023-07-07T15:33:06.000Z</time>
      </trkpt>
      <trkpt lat="45.77391" lon="4.6735">
        <ele>375.82138</ele>
        <time>2023-07-07T15:33:07.000Z</time>
      </trkpt>
      <trkpt lat="45.77394" lon="4.67347">
        <ele>376.10431</ele>
        <time>2023-07-07T15:33:08.000Z</time>
      </trkpt>
      <trkpt lat="45.77397" lon="4.67345">
        <ele>376.37857</ele>
        <time>2023-07-07T15:33:09.000Z</time>
      </trkpt>
      <trkpt lat="45.774" lon="4.67342">
        <ele>376.29596</ele>
        <time>2023-07-07T15:33:10.000Z</time>
      </trkpt>
      <trkpt lat="45.77403" lon="4.6734">
        <ele>376.01694</ele>
        <time>2023-07-07T15:33:11.000Z</time>
      </trkpt>
      <trkpt lat="45.77407" lon="4.67336">
        <ele>375.80048</ele>
        <time>2023-07-07T15:33:12.000Z</time>
      </trkpt>
      <trkpt lat="45.7741" lon="4.67333">
        <ele>375.71698</ele>
        <time>2023-07-07T15:33:13.000Z</time>
      </trkpt>
      <trkpt lat="45.77413" lon="4.67331">
        <ele>375.64996</ele>
        <time>2023-07-07T15:33:14.000Z</time>
      </trkpt>
      <trkpt lat="45.77417" lon="4.67328">
        <ele>375.63553</ele>
        <time>2023-07-07T15:33:15.000Z</time>
      </trkpt>
      <trkpt lat="45.7742" lon="4.67326">
        <ele>375.61334</ele>
        <time>2023-07-07T15:33:16.000Z</time>
      </trkpt>
      <trkpt lat="45.77423" lon="4.67323">
        <ele>375.5694</ele>
        <time>2023-07-07T15:33:17.000Z</time>
      </trkpt>
      <trkpt lat="45.77426" lon="4.6732">
        <ele>375.60434</ele>
        <time>2023-07-07T15:33:18.000Z</time>
      </trkpt>
      <trkpt lat="45.77429" lon="4.67316">
        <ele>375.5831</ele>
        <time>2023-07-07T15:33:19.000Z</time>
      </trkpt>
      <trkpt lat="45.77432" lon="4.67312">
        <ele>375.57217</ele>
        <time>2023-07-07T15:33:20.000Z</time>
      </trkpt>
      <trkpt lat="45.77435" lon="4.67309">
        <ele>376.25186</ele>
        <time>2023-07-07T15:33:21.000Z</time>
      </trkpt>
      <trkpt lat="45.77438" lon="4.67307">
        <ele>377.11346</ele>
        <time>2023-07-07T15:33:22.000Z</time>
      </trkpt>
      <trkpt lat="45.77441" lon="4.67305">
        <ele>377.51056</ele>
        <time>2023-07-07T15:33:23.000Z</time>
      </trkpt>
      <trkpt lat="45.77445" lon="4.67303">
        <ele>377.98846</ele>
        <time>2023-07-07T15:33:24.000Z</time>
      </trkpt>
      <trkpt lat="45.77448" lon="4.673">
        <ele>378.44482</ele>
        <time>2023-07-07T15:33:25.000Z</time>
      </trkpt>
      <trkpt lat="45.7745" lon="4.67298">
        <ele>378.98816</ele>
        <time>2023-07-07T15:33:26.000Z</time>
      </trkpt>
      <trkpt lat="45.77453" lon="4.67295">
        <ele>379.51593</ele>
        <time>2023-07-07T15:33:27.000Z</time>
      </trkpt>
      <trkpt lat="45.77455" lon="4.67293">
        <ele>380.04266</ele>
        <time>2023-07-07T15:33:28.000Z</time>
      </trkpt>
      <trkpt lat="45.77458" lon="4.6729">
        <ele>380.52872</ele>
        <time>2023-07-07T15:33:29.000Z</time>
      </trkpt>
      <trkpt lat="45.77461" lon="4.67287">
        <ele>381.12253</ele>
        <time>2023-07-07T15:33:30.000Z</time>
      </trkpt>
      <trkpt lat="45.77463" lon="4.67284">
        <ele>381.67993</ele>
        <time>2023-07-07T15:33:31.000Z</time>
      </trkpt>
      <trkpt lat="45.77466" lon="4.67281">
        <ele>382.2514</ele>
        <time>2023-07-07T15:33:32.000Z</time>
      </trkpt>
      <trkpt lat="45.77469" lon="4.67279">
        <ele>382.74417</ele>
        <time>2023-07-07T15:33:33.000Z</time>
      </trkpt>
      <trkpt lat="45.77472" lon="4.67276">
        <ele>383.17117</ele>
        <time>2023-07-07T15:33:34.000Z</time>
      </trkpt>
      <trkpt lat="45.77475" lon="4.67274">
        <ele>383.48676</ele>
        <time>2023-07-07T15:33:35.000Z</time>
      </trkpt>
      <trkpt lat="45.77477" lon="4.67271">
        <ele>383.81332</ele>
        <time>2023-07-07T15:33:36.000Z</time>
      </trkpt>
      <trkpt lat="45.7748" lon="4.67268">
        <ele>384.16055</ele>
        <time>2023-07-07T15:33:37.000Z</time>
      </trkpt>
      <trkpt lat="45.77483" lon="4.67266">
        <ele>384.63113</ele>
        <time>2023-07-07T15:33:38.000Z</time>
      </trkpt>
      <trkpt lat="45.77486" lon="4.67263">
        <ele>385.12903</ele>
        <time>2023-07-07T15:33:39.000Z</time>
      </trkpt>
      <trkpt lat="45.77489" lon="4.67261">
        <ele>385.61383</ele>
        <time>2023-07-07T15:33:40.000Z</time>
      </trkpt>
      <trkpt lat="45.77492" lon="4.67259">
        <ele>385.51233</ele>
        <time>2023-07-07T15:33:41.000Z</time>
      </trkpt>
      <trkpt lat="45.77495" lon="4.67256">
        <ele>385.92227</ele>
        <time>2023-07-07T15:33:42.000Z</time>
      </trkpt>
      <trkpt lat="45.77497" lon="4.67254">
        <ele>386.30386</ele>
        <time>2023-07-07T15:33:43.000Z</time>
      </trkpt>
      <trkpt lat="45.775" lon="4.67251">
        <ele>386.67603</ele>
        <time>2023-07-07T15:33:44.000Z</time>
      </trkpt>
      <trkpt lat="45.77503" lon="4.67248">
        <ele>387.0451</ele>
        <time>2023-07-07T15:33:45.000Z</time>
      </trkpt>
      <trkpt lat="45.77505" lon="4.67246">
        <ele>387.42926</ele>
        <time>2023-07-07T15:33:46.000Z</time>
      </trkpt>
      <trkpt lat="45.77507" lon="4.67243">
        <ele>387.82401</ele>
        <time>2023-07-07T15:33:47.000Z</time>
      </trkpt>
      <trkpt lat="45.7751" lon="4.6724">
        <ele>388.25696</ele>
        <time>2023-07-07T15:33:48.000Z</time>
      </trkpt>
      <trkpt lat="45.77512" lon="4.67237">
        <ele>388.70987</ele>
        <time>2023-07-07T15:33:49.000Z</time>
      </trkpt>
      <trkpt lat="45.77515" lon="4.67234">
        <ele>388.89163</ele>
        <time>2023-07-07T15:33:50.000Z</time>
      </trkpt>
      <trkpt lat="45.77517" lon="4.67231">
        <ele>389.41876</ele>
        <time>2023-07-07T15:33:51.000Z</time>
      </trkpt>
      <trkpt lat="45.7752" lon="4.67227">
        <ele>389.94809</ele>
        <time>2023-07-07T15:33:52.000Z</time>
      </trkpt>
      <trkpt lat="45.77522" lon="4.67224">
        <ele>390.48981</ele>
        <time>2023-07-07T15:33:53.000Z</time>
      </trkpt>
      <trkpt lat="45.77525" lon="4.67221">
        <ele>390.7569</ele>
        <time>2023-07-07T15:33:54.000Z</time>
      </trkpt>
      <trkpt lat="45.77527" lon="4.67218">
        <ele>390.97906</ele>
        <time>2023-07-07T15:33:55.000Z</time>
      </trkpt>
      <trkpt lat="45.7753" lon="4.67215">
        <ele>391.00287</ele>
        <time>2023-07-07T15:33:56.000Z</time>
      </trkpt>
      <trkpt lat="45.77533" lon="4.67212">
        <ele>391.63684</ele>
        <time>2023-07-07T15:33:57.000Z</time>
      </trkpt>
      <trkpt lat="45.77535" lon="4.67209">
        <ele>392.19882</ele>
        <time>2023-07-07T15:33:58.000Z</time>
      </trkpt>
      <trkpt lat="45.77538" lon="4.67206">
        <ele>392.62766</ele>
        <time>2023-07-07T15:33:59.000Z</time>
      </trkpt>
      <trkpt lat="45.7754" lon="4.67203">
        <ele>393.05588</ele>
        <time>2023-07-07T15:34:00.000Z</time>
      </trkpt>
      <trkpt lat="45.77543" lon="4.672">
        <ele>393.51212</ele>
        <time>2023-07-07T15:34:01.000Z</time>
      </trkpt>
      <trkpt lat="45.77545" lon="4.67197">
        <ele>393.21661</ele>
        <time>2023-07-07T15:34:02.000Z</time>
      </trkpt>
      <trkpt lat="45.77547" lon="4.67194">
        <ele>392.93457</ele>
        <time>2023-07-07T15:34:03.000Z</time>
      </trkpt>
      <trkpt lat="45.7755" lon="4.67191">
        <ele>392.65546</ele>
        <time>2023-07-07T15:34:04.000Z</time>
      </trkpt>
      <trkpt lat="45.77552" lon="4.67189">
        <ele>392.38495</ele>
        <time>2023-07-07T15:34:05.000Z</time>
      </trkpt>
      <trkpt lat="45.77555" lon="4.67186">
        <ele>391.71442</ele>
        <time>2023-07-07T15:34:06.000Z</time>
      </trkpt>
      <trkpt lat="45.77557" lon="4.67182">
        <ele>391.08148</ele>
        <time>2023-07-07T15:34:07.000Z</time>
      </trkpt>
      <trkpt lat="45.7756" lon="4.67179">
        <ele>390.44342</ele>
        <time>2023-07-07T15:34:08.000Z</time>
      </trkpt>
      <trkpt lat="45.77563" lon="4.67176">
        <ele>390.42801</ele>
        <time>2023-07-07T15:34:09.000Z</time>
      </trkpt>
      <trkpt lat="45.77566" lon="4.67173">
        <ele>390.41074</ele>
        <time>2023-07-07T15:34:10.000Z</time>
      </trkpt>
      <trkpt lat="45.77569" lon="4.67169">
        <ele>390.5473</ele>
        <time>2023-07-07T15:34:11.000Z</time>
      </trkpt>
      <trkpt lat="45.77572" lon="4.67167">
        <ele>390.75989</ele>
        <time>2023-07-07T15:34:12.000Z</time>
      </trkpt>
      <trkpt lat="45.77575" lon="4.67164">
        <ele>390.9693</ele>
        <time>2023-07-07T15:34:13.000Z</time>
      </trkpt>
      <trkpt lat="45.77578" lon="4.67161">
        <ele>391.45001</ele>
        <time>2023-07-07T15:34:14.000Z</time>
      </trkpt>
      <trkpt lat="45.77581" lon="4.67158">
        <ele>391.70139</ele>
        <time>2023-07-07T15:34:15.000Z</time>
      </trkpt>
      <trkpt lat="45.77585" lon="4.67156">
        <ele>392.13708</ele>
        <time>2023-07-07T15:34:16.000Z</time>
      </trkpt>
      <trkpt lat="45.77588" lon="4.67153">
        <ele>391.9292</ele>
        <time>2023-07-07T15:34:17.000Z</time>
      </trkpt>
      <trkpt lat="45.77591" lon="4.6715">
        <ele>391.76913</ele>
        <time>2023-07-07T15:34:18.000Z</time>
      </trkpt>
      <trkpt lat="45.77594" lon="4.67146">
        <ele>391.61096</ele>
        <time>2023-07-07T15:34:19.000Z</time>
      </trkpt>
      <trkpt lat="45.77597" lon="4.67143">
        <ele>391.534</ele>
        <time>2023-07-07T15:34:20.000Z</time>
      </trkpt>
      <trkpt lat="45.776" lon="4.6714">
        <ele>391.28149</ele>
        <time>2023-07-07T15:34:21.000Z</time>
      </trkpt>
      <trkpt lat="45.77603" lon="4.67138">
        <ele>391.13159</ele>
        <time>2023-07-07T15:34:22.000Z</time>
      </trkpt>
      <trkpt lat="45.77607" lon="4.67136">
        <ele>391.47867</ele>
        <time>2023-07-07T15:34:23.000Z</time>
      </trkpt>
      <trkpt lat="45.7761" lon="4.67133">
        <ele>391.73517</ele>
        <time>2023-07-07T15:34:24.000Z</time>
      </trkpt>
      <trkpt lat="45.77614" lon="4.67131">
        <ele>391.90314</ele>
        <time>2023-07-07T15:34:25.000Z</time>
      </trkpt>
      <trkpt lat="45.77617" lon="4.67128">
        <ele>392.62833</ele>
        <time>2023-07-07T15:34:26.000Z</time>
      </trkpt>
      <trkpt lat="45.7762" lon="4.67125">
        <ele>393.29285</ele>
        <time>2023-07-07T15:34:27.000Z</time>
      </trkpt>
      <trkpt lat="45.77623" lon="4.67122">
        <ele>394.0824</ele>
        <time>2023-07-07T15:34:28.000Z</time>
      </trkpt>
      <trkpt lat="45.77627" lon="4.67118">
        <ele>394.24359</ele>
        <time>2023-07-07T15:34:29.000Z</time>
      </trkpt>
      <trkpt lat="45.7763" lon="4.67114">
        <ele>394.58499</ele>
        <time>2023-07-07T15:34:30.000Z</time>
      </trkpt>
      <trkpt lat="45.77632" lon="4.67111">
        <ele>394.81573</ele>
        <time>2023-07-07T15:34:31.000Z</time>
      </trkpt>
      <trkpt lat="45.77635" lon="4.67109">
        <ele>394.94348</ele>
        <time>2023-07-07T15:34:32.000Z</time>
      </trkpt>
      <trkpt lat="45.77637" lon="4.67106">
        <ele>395.09033</ele>
        <time>2023-07-07T15:34:33.000Z</time>
      </trkpt>
      <trkpt lat="45.7764" lon="4.67103">
        <ele>394.92267</ele>
        <time>2023-07-07T15:34:34.000Z</time>
      </trkpt>
      <trkpt lat="45.77642" lon="4.671">
        <ele>395.03336</ele>
        <time>2023-07-07T15:34:35.000Z</time>
      </trkpt>
      <trkpt lat="45.77644" lon="4.67097">
        <ele>395.15094</ele>
        <time>2023-07-07T15:34:36.000Z</time>
      </trkpt>
      <trkpt lat="45.77646" lon="4.67093">
        <ele>395.28729</ele>
        <time>2023-07-07T15:34:37.000Z</time>
      </trkpt>
      <trkpt lat="45.77648" lon="4.6709">
        <ele>395.43207</ele>
        <time>2023-07-07T15:34:38.000Z</time>
      </trkpt>
      <trkpt lat="45.77651" lon="4.67086">
        <ele>395.68634</ele>
        <time>2023-07-07T15:34:39.000Z</time>
      </trkpt>
      <trkpt lat="45.77653" lon="4.67083">
        <ele>395.83887</ele>
        <time>2023-07-07T15:34:40.000Z</time>
      </trkpt>
      <trkpt lat="45.77656" lon="4.67079">
        <ele>396.14133</ele>
        <time>2023-07-07T15:34:41.000Z</time>
      </trkpt>
      <trkpt lat="45.77658" lon="4.67077">
        <ele>396.63281</ele>
        <time>2023-07-07T15:34:42.000Z</time>
      </trkpt>
      <trkpt lat="45.77661" lon="4.67073">
        <ele>396.6134</ele>
        <time>2023-07-07T15:34:43.000Z</time>
      </trkpt>
      <trkpt lat="45.77664" lon="4.6707">
        <ele>396.6637</ele>
        <time>2023-07-07T15:34:44.000Z</time>
      </trkpt>
      <trkpt lat="45.77667" lon="4.67066">
        <ele>396.77869</ele>
        <time>2023-07-07T15:34:45.000Z</time>
      </trkpt>
      <trkpt lat="45.7767" lon="4.67062">
        <ele>396.49533</ele>
        <time>2023-07-07T15:34:46.000Z</time>
      </trkpt>
      <trkpt lat="45.77673" lon="4.67059">
        <ele>396.21405</ele>
        <time>2023-07-07T15:34:47.000Z</time>
      </trkpt>
      <trkpt lat="45.77676" lon="4.67056">
        <ele>396.49564</ele>
        <time>2023-07-07T15:34:48.000Z</time>
      </trkpt>
      <trkpt lat="45.7768" lon="4.67054">
        <ele>396.66669</ele>
        <time>2023-07-07T15:34:49.000Z</time>
      </trkpt>
      <trkpt lat="45.77683" lon="4.67052">
        <ele>396.81369</ele>
        <time>2023-07-07T15:34:50.000Z</time>
      </trkpt>
      <trkpt lat="45.77686" lon="4.6705">
        <ele>396.90839</ele>
        <time>2023-07-07T15:34:51.000Z</time>
      </trkpt>
      <trkpt lat="45.77689" lon="4.67047">
        <ele>397.02957</ele>
        <time>2023-07-07T15:34:52.000Z</time>
      </trkpt>
      <trkpt lat="45.77692" lon="4.67044">
        <ele>397.1315</ele>
        <time>2023-07-07T15:34:53.000Z</time>
      </trkpt>
      <trkpt lat="45.77694" lon="4.6704">
        <ele>397.53732</ele>
        <time>2023-07-07T15:34:54.000Z</time>
      </trkpt>
      <trkpt lat="45.77696" lon="4.67036">
        <ele>397.95026</ele>
        <time>2023-07-07T15:34:55.000Z</time>
      </trkpt>
      <trkpt lat="45.77699" lon="4.67032">
        <ele>398.34589</ele>
        <time>2023-07-07T15:34:56.000Z</time>
      </trkpt>
      <trkpt lat="45.77701" lon="4.67028">
        <ele>398.71088</ele>
        <time>2023-07-07T15:34:57.000Z</time>
      </trkpt>
      <trkpt lat="45.77704" lon="4.67024">
        <ele>399.10669</ele>
        <time>2023-07-07T15:34:58.000Z</time>
      </trkpt>
      <trkpt lat="45.77706" lon="4.6702">
        <ele>399.47824</ele>
        <time>2023-07-07T15:34:59.000Z</time>
      </trkpt>
      <trkpt lat="45.77708" lon="4.67016">
        <ele>399.85184</ele>
        <time>2023-07-07T15:35:00.000Z</time>
      </trkpt>
      <trkpt lat="45.7771" lon="4.67014">
        <ele>400.03741</ele>
        <time>2023-07-07T15:35:01.000Z</time>
      </trkpt>
      <trkpt lat="45.77712" lon="4.67011">
        <ele>400.07269</ele>
        <time>2023-07-07T15:35:02.000Z</time>
      </trkpt>
      <trkpt lat="45.77715" lon="4.67007">
        <ele>400.04022</ele>
        <time>2023-07-07T15:35:03.000Z</time>
      </trkpt>
      <trkpt lat="45.77717" lon="4.67004">
        <ele>400.09329</ele>
        <time>2023-07-07T15:35:04.000Z</time>
      </trkpt>
      <trkpt lat="45.77719" lon="4.67">
        <ele>400.04791</ele>
        <time>2023-07-07T15:35:05.000Z</time>
      </trkpt>
      <trkpt lat="45.77721" lon="4.66997">
        <ele>399.77832</ele>
        <time>2023-07-07T15:35:06.000Z</time>
      </trkpt>
      <trkpt lat="45.77723" lon="4.66994">
        <ele>399.3808</ele>
        <time>2023-07-07T15:35:07.000Z</time>
      </trkpt>
      <trkpt lat="45.77725" lon="4.6699">
        <ele>398.19772</ele>
        <time>2023-07-07T15:35:08.000Z</time>
      </trkpt>
      <trkpt lat="45.77728" lon="4.66985">
        <ele>397.1066</ele>
        <time>2023-07-07T15:35:09.000Z</time>
      </trkpt>
      <trkpt lat="45.7773" lon="4.66978">
        <ele>395.80527</ele>
        <time>2023-07-07T15:35:10.000Z</time>
      </trkpt>
      <trkpt lat="45.77731" lon="4.66973">
        <ele>395.5444</ele>
        <time>2023-07-07T15:35:11.000Z</time>
      </trkpt>
      <trkpt lat="45.77733" lon="4.66967">
        <ele>395.12836</ele>
        <time>2023-07-07T15:35:12.000Z</time>
      </trkpt>
      <trkpt lat="45.77736" lon="4.66958">
        <ele>394.81073</ele>
        <time>2023-07-07T15:35:13.000Z</time>
      </trkpt>
      <trkpt lat="45.77738" lon="4.66949">
        <ele>394.44855</ele>
        <time>2023-07-07T15:35:14.000Z</time>
      </trkpt>
      <trkpt lat="45.7774" lon="4.66943">
        <ele>394.12234</ele>
        <time>2023-07-07T15:35:15.000Z</time>
      </trkpt>
      <trkpt lat="45.77741" lon="4.66937">
        <ele>393.94595</ele>
        <time>2023-07-07T15:35:16.000Z</time>
      </trkpt>
      <trkpt lat="45.77743" lon="4.66931">
        <ele>393.98035</ele>
        <time>2023-07-07T15:35:17.000Z</time>
      </trkpt>
      <trkpt lat="45.77744" lon="4.66925">
        <ele>393.91449</ele>
        <time>2023-07-07T15:35:18.000Z</time>
      </trkpt>
      <trkpt lat="45.77747" lon="4.6692">
        <ele>393.83902</ele>
        <time>2023-07-07T15:35:19.000Z</time>
      </trkpt>
      <trkpt lat="45.77748" lon="4.66914">
        <ele>393.83453</ele>
        <time>2023-07-07T15:35:20.000Z</time>
      </trkpt>
      <trkpt lat="45.77751" lon="4.66909">
        <ele>394.05597</ele>
        <time>2023-07-07T15:35:21.000Z</time>
      </trkpt>
      <trkpt lat="45.77753" lon="4.66904">
        <ele>394.2132</ele>
        <time>2023-07-07T15:35:22.000Z</time>
      </trkpt>
      <trkpt lat="45.77755" lon="4.66898">
        <ele>394.31964</ele>
        <time>2023-07-07T15:35:23.000Z</time>
      </trkpt>
      <trkpt lat="45.77757" lon="4.66893">
        <ele>394.46414</ele>
        <time>2023-07-07T15:35:24.000Z</time>
      </trkpt>
      <trkpt lat="45.77759" lon="4.66888">
        <ele>394.77289</ele>
        <time>2023-07-07T15:35:25.000Z</time>
      </trkpt>
      <trkpt lat="45.77762" lon="4.66883">
        <ele>395.48532</ele>
        <time>2023-07-07T15:35:26.000Z</time>
      </trkpt>
      <trkpt lat="45.77765" lon="4.66875">
        <ele>396.33313</ele>
        <time>2023-07-07T15:35:27.000Z</time>
      </trkpt>
      <trkpt lat="45.77769" lon="4.66872">
        <ele>397.30914</ele>
        <time>2023-07-07T15:35:28.000Z</time>
      </trkpt>
      <trkpt lat="45.77773" lon="4.66871">
        <ele>398.40268</ele>
        <time>2023-07-07T15:35:29.000Z</time>
      </trkpt>
      <trkpt lat="45.77776" lon="4.66869">
        <ele>399.8078</ele>
        <time>2023-07-07T15:35:30.000Z</time>
      </trkpt>
      <trkpt lat="45.7778" lon="4.66869">
        <ele>400.18228</ele>
        <time>2023-07-07T15:35:31.000Z</time>
      </trkpt>
      <trkpt lat="45.77783" lon="4.66867">
        <ele>400.69873</ele>
        <time>2023-07-07T15:35:32.000Z</time>
      </trkpt>
      <trkpt lat="45.77786" lon="4.66867">
        <ele>400.85605</ele>
        <time>2023-07-07T15:35:33.000Z</time>
      </trkpt>
      <trkpt lat="45.77789" lon="4.66867">
        <ele>400.97876</ele>
        <time>2023-07-07T15:35:34.000Z</time>
      </trkpt>
      <trkpt lat="45.77791" lon="4.66868">
        <ele>401.07184</ele>
        <time>2023-07-07T15:35:35.000Z</time>
      </trkpt>
      <trkpt lat="45.77793" lon="4.66867">
        <ele>401.1189</ele>
        <time>2023-07-07T15:35:36.000Z</time>
      </trkpt>
      <trkpt lat="45.77795" lon="4.66866">
        <ele>400.5311</ele>
        <time>2023-07-07T15:35:37.000Z</time>
      </trkpt>
      <trkpt lat="45.77798" lon="4.66864">
        <ele>399.55865</ele>
        <time>2023-07-07T15:35:39.000Z</time>
      </trkpt>
      <trkpt lat="45.77801" lon="4.66864">
        <ele>399.05774</ele>
        <time>2023-07-07T15:35:41.000Z</time>
      </trkpt>
      <trkpt lat="45.77802" lon="4.66862">
        <ele>399.07166</ele>
        <time>2023-07-07T15:36:02.000Z</time>
      </trkpt>
      <trkpt lat="45.77803" lon="4.6686">
        <ele>400.37622</ele>
        <time>2023-07-07T15:40:35.000Z</time>
      </trkpt>
      <trkpt lat="45.77804" lon="4.66858">
        <ele>399.97</ele>
        <time>2023-07-07T15:40:36.000Z</time>
      </trkpt>
      <trkpt lat="45.77806" lon="4.66856">
        <ele>400.40268</ele>
        <time>2023-07-07T15:40:37.000Z</time>
      </trkpt>
      <trkpt lat="45.77808" lon="4.66854">
        <ele>400.72357</ele>
        <time>2023-07-07T15:40:38.000Z</time>
      </trkpt>
      <trkpt lat="45.7781" lon="4.66852">
        <ele>400.51874</ele>
        <time>2023-07-07T15:40:39.000Z</time>
      </trkpt>
      <trkpt lat="45.77811" lon="4.66848">
        <ele>400.56848</ele>
        <time>2023-07-07T15:40:40.000Z</time>
      </trkpt>
      <trkpt lat="45.77811" lon="4.66845">
        <ele>400.62012</ele>
        <time>2023-07-07T15:40:41.000Z</time>
      </trkpt>
      <trkpt lat="45.77811" lon="4.66842">
        <ele>400.67535</ele>
        <time>2023-07-07T15:40:42.000Z</time>
      </trkpt>
      <trkpt lat="45.7781" lon="4.66838">
        <ele>400.63159</ele>
        <time>2023-07-07T15:40:43.000Z</time>
      </trkpt>
      <trkpt lat="45.7781" lon="4.66834">
        <ele>400.67343</ele>
        <time>2023-07-07T15:40:44.000Z</time>
      </trkpt>
      <trkpt lat="45.7781" lon="4.66829">
        <ele>400.84726</ele>
        <time>2023-07-07T15:40:45.000Z</time>
      </trkpt>
      <trkpt lat="45.7781" lon="4.66824">
        <ele>400.83963</ele>
        <time>2023-07-07T15:40:46.000Z</time>
      </trkpt>
      <trkpt lat="45.7781" lon="4.66819">
        <ele>401.1456</ele>
        <time>2023-07-07T15:40:47.000Z</time>
      </trkpt>
      <trkpt lat="45.77811" lon="4.66814">
        <ele>401.58734</ele>
        <time>2023-07-07T15:40:48.000Z</time>
      </trkpt>
      <trkpt lat="45.77811" lon="4.66809">
        <ele>402.03033</ele>
        <time>2023-07-07T15:40:49.000Z</time>
      </trkpt>
      <trkpt lat="45.7781" lon="4.66804">
        <ele>403.23993</ele>
        <time>2023-07-07T15:40:50.000Z</time>
      </trkpt>
      <trkpt lat="45.7781" lon="4.66799">
        <ele>403.82538</ele>
        <time>2023-07-07T15:40:51.000Z</time>
      </trkpt>
      <trkpt lat="45.77809" lon="4.66795">
        <ele>404.90219</ele>
        <time>2023-07-07T15:40:52.000Z</time>
      </trkpt>
      <trkpt lat="45.77809" lon="4.66791">
        <ele>407.09528</ele>
        <time>2023-07-07T15:40:53.000Z</time>
      </trkpt>
      <trkpt lat="45.77809" lon="4.66786">
        <ele>408.70154</ele>
        <time>2023-07-07T15:40:54.000Z</time>
      </trkpt>
      <trkpt lat="45.77808" lon="4.66782">
        <ele>408.96201</ele>
        <time>2023-07-07T15:40:55.000Z</time>
      </trkpt>
      <trkpt lat="45.77809" lon="4.66777">
        <ele>411.13858</ele>
        <time>2023-07-07T15:40:56.000Z</time>
      </trkpt>
      <trkpt lat="45.77809" lon="4.66773">
        <ele>412.61719</ele>
        <time>2023-07-07T15:40:57.000Z</time>
      </trkpt>
      <trkpt lat="45.77809" lon="4.66769">
        <ele>414.10327</ele>
        <time>2023-07-07T15:40:58.000Z</time>
      </trkpt>
      <trkpt lat="45.77809" lon="4.66765">
        <ele>414.52295</ele>
        <time>2023-07-07T15:40:59.000Z</time>
      </trkpt>
      <trkpt lat="45.77809" lon="4.66761">
        <ele>414.8978</ele>
        <time>2023-07-07T15:41:00.000Z</time>
      </trkpt>
      <trkpt lat="45.77809" lon="4.66756">
        <ele>415.23593</ele>
        <time>2023-07-07T15:41:01.000Z</time>
      </trkpt>
      <trkpt lat="45.77808" lon="4.66751">
        <ele>415.8414</ele>
        <time>2023-07-07T15:41:02.000Z</time>
      </trkpt>
      <trkpt lat="45.77808" lon="4.66747">
        <ele>416.50235</ele>
        <time>2023-07-07T15:41:03.000Z</time>
      </trkpt>
      <trkpt lat="45.77807" lon="4.66743">
        <ele>416.40594</ele>
        <time>2023-07-07T15:41:04.000Z</time>
      </trkpt>
      <trkpt lat="45.77806" lon="4.66738">
        <ele>416.18732</ele>
        <time>2023-07-07T15:41:05.000Z</time>
      </trkpt>
      <trkpt lat="45.77805" lon="4.66734">
        <ele>415.78995</ele>
        <time>2023-07-07T15:41:06.000Z</time>
      </trkpt>
      <trkpt lat="45.77804" lon="4.66729">
        <ele>415.06464</ele>
        <time>2023-07-07T15:41:07.000Z</time>
      </trkpt>
      <trkpt lat="45.77803" lon="4.66723">
        <ele>414.32013</ele>
        <time>2023-07-07T15:41:08.000Z</time>
      </trkpt>
      <trkpt lat="45.77801" lon="4.66718">
        <ele>414.4624</ele>
        <time>2023-07-07T15:41:09.000Z</time>
      </trkpt>
      <trkpt lat="45.77799" lon="4.66714">
        <ele>413.59189</ele>
        <time>2023-07-07T15:41:10.000Z</time>
      </trkpt>
      <trkpt lat="45.77798" lon="4.66709">
        <ele>413.6662</ele>
        <time>2023-07-07T15:41:11.000Z</time>
      </trkpt>
      <trkpt lat="45.77796" lon="4.66704">
        <ele>413.60309</ele>
        <time>2023-07-07T15:41:12.000Z</time>
      </trkpt>
      <trkpt lat="45.77795" lon="4.66699">
        <ele>411.74399</ele>
        <time>2023-07-07T15:41:13.000Z</time>
      </trkpt>
      <trkpt lat="45.77793" lon="4.66695">
        <ele>409.56805</ele>
        <time>2023-07-07T15:41:14.000Z</time>
      </trkpt>
      <trkpt lat="45.77792" lon="4.66691">
        <ele>408.13855</ele>
        <time>2023-07-07T15:41:15.000Z</time>
      </trkpt>
      <trkpt lat="45.7779" lon="4.66686">
        <ele>405.42719</ele>
        <time>2023-07-07T15:41:16.000Z</time>
      </trkpt>
      <trkpt lat="45.77789" lon="4.66683">
        <ele>403.18671</ele>
        <time>2023-07-07T15:41:17.000Z</time>
      </trkpt>
      <trkpt lat="45.77788" lon="4.66678">
        <ele>401.03754</ele>
        <time>2023-07-07T15:41:18.000Z</time>
      </trkpt>
      <trkpt lat="45.77786" lon="4.66673">
        <ele>400.67285</ele>
        <time>2023-07-07T15:41:19.000Z</time>
      </trkpt>
      <trkpt lat="45.77786" lon="4.66669">
        <ele>399.97153</ele>
        <time>2023-07-07T15:41:20.000Z</time>
      </trkpt>
      <trkpt lat="45.77785" lon="4.66664">
        <ele>399.31436</ele>
        <time>2023-07-07T15:41:21.000Z</time>
      </trkpt>
      <trkpt lat="45.77785" lon="4.66658">
        <ele>398.44861</ele>
        <time>2023-07-07T15:41:22.000Z</time>
      </trkpt>
      <trkpt lat="45.77784" lon="4.66654">
        <ele>397.33435</ele>
        <time>2023-07-07T15:41:23.000Z</time>
      </trkpt>
      <trkpt lat="45.77784" lon="4.66649">
        <ele>396.6062</ele>
        <time>2023-07-07T15:41:24.000Z</time>
      </trkpt>
      <trkpt lat="45.77784" lon="4.66643">
        <ele>396.16257</ele>
        <time>2023-07-07T15:41:25.000Z</time>
      </trkpt>
      <trkpt lat="45.77783" lon="4.66639">
        <ele>397.21964</ele>
        <time>2023-07-07T15:41:26.000Z</time>
      </trkpt>
      <trkpt lat="45.77783" lon="4.66635">
        <ele>397.52457</ele>
        <time>2023-07-07T15:41:27.000Z</time>
      </trkpt>
      <trkpt lat="45.77782" lon="4.66631">
        <ele>399.25989</ele>
        <time>2023-07-07T15:41:28.000Z</time>
      </trkpt>
      <trkpt lat="45.77781" lon="4.66626">
        <ele>398.71155</ele>
        <time>2023-07-07T15:41:29.000Z</time>
      </trkpt>
      <trkpt lat="45.77779" lon="4.66622">
        <ele>397.10666</ele>
        <time>2023-07-07T15:41:30.000Z</time>
      </trkpt>
      <trkpt lat="45.77778" lon="4.66618">
        <ele>395.5668</ele>
        <time>2023-07-07T15:41:31.000Z</time>
      </trkpt>
      <trkpt lat="45.77776" lon="4.66615">
        <ele>393.89789</ele>
        <time>2023-07-07T15:41:32.000Z</time>
      </trkpt>
      <trkpt lat="45.77775" lon="4.66611">
        <ele>392.6134</ele>
        <time>2023-07-07T15:41:33.000Z</time>
      </trkpt>
      <trkpt lat="45.77774" lon="4.66607">
        <ele>392.60468</ele>
        <time>2023-07-07T15:41:34.000Z</time>
      </trkpt>
      <trkpt lat="45.77775" lon="4.66602">
        <ele>391.88873</ele>
        <time>2023-07-07T15:41:35.000Z</time>
      </trkpt>
      <trkpt lat="45.77777" lon="4.66598">
        <ele>392.44559</ele>
        <time>2023-07-07T15:41:36.000Z</time>
      </trkpt>
      <trkpt lat="45.7778" lon="4.66596">
        <ele>392.53601</ele>
        <time>2023-07-07T15:41:37.000Z</time>
      </trkpt>
      <trkpt lat="45.77784" lon="4.66595">
        <ele>392.52692</ele>
        <time>2023-07-07T15:41:38.000Z</time>
      </trkpt>
      <trkpt lat="45.77788" lon="4.66597">
        <ele>392.26593</ele>
        <time>2023-07-07T15:41:39.000Z</time>
      </trkpt>
      <trkpt lat="45.77792" lon="4.666">
        <ele>392.15738</ele>
        <time>2023-07-07T15:41:40.000Z</time>
      </trkpt>
      <trkpt lat="45.77794" lon="4.66603">
        <ele>394.54266</ele>
        <time>2023-07-07T15:41:41.000Z</time>
      </trkpt>
      <trkpt lat="45.77797" lon="4.66607">
        <ele>393.87314</ele>
        <time>2023-07-07T15:41:42.000Z</time>
      </trkpt>
      <trkpt lat="45.77801" lon="4.6661">
        <ele>394.047</ele>
        <time>2023-07-07T15:41:43.000Z</time>
      </trkpt>
      <trkpt lat="45.77804" lon="4.66613">
        <ele>394.34048</ele>
        <time>2023-07-07T15:41:44.000Z</time>
      </trkpt>
      <trkpt lat="45.77808" lon="4.66615">
        <ele>394.41043</ele>
        <time>2023-07-07T15:41:45.000Z</time>
      </trkpt>
      <trkpt lat="45.77812" lon="4.66615">
        <ele>393.24951</ele>
        <time>2023-07-07T15:41:46.000Z</time>
      </trkpt>
      <trkpt lat="45.77815" lon="4.66614">
        <ele>393.05099</ele>
        <time>2023-07-07T15:41:47.000Z</time>
      </trkpt>
      <trkpt lat="45.77819" lon="4.66613">
        <ele>391.21841</ele>
        <time>2023-07-07T15:41:48.000Z</time>
      </trkpt>
      <trkpt lat="45.77822" lon="4.66612">
        <ele>390.92841</ele>
        <time>2023-07-07T15:41:49.000Z</time>
      </trkpt>
      <trkpt lat="45.77825" lon="4.6661">
        <ele>391.87698</ele>
        <time>2023-07-07T15:41:50.000Z</time>
      </trkpt>
      <trkpt lat="45.77828" lon="4.66609">
        <ele>392.43997</ele>
        <time>2023-07-07T15:41:51.000Z</time>
      </trkpt>
      <trkpt lat="45.77831" lon="4.66607">
        <ele>394.08585</ele>
        <time>2023-07-07T15:41:52.000Z</time>
      </trkpt>
      <trkpt lat="45.77834" lon="4.66607">
        <ele>395.04507</ele>
        <time>2023-07-07T15:41:53.000Z</time>
      </trkpt>
      <trkpt lat="45.77836" lon="4.66607">
        <ele>394.84039</ele>
        <time>2023-07-07T15:41:54.000Z</time>
      </trkpt>
      <trkpt lat="45.7784" lon="4.66607">
        <ele>394.49979</ele>
        <time>2023-07-07T15:41:55.000Z</time>
      </trkpt>
      <trkpt lat="45.77842" lon="4.66608">
        <ele>394.63034</ele>
        <time>2023-07-07T15:41:56.000Z</time>
      </trkpt>
      <trkpt lat="45.77845" lon="4.66609">
        <ele>394.73956</ele>
        <time>2023-07-07T15:41:57.000Z</time>
      </trkpt>
      <trkpt lat="45.77848" lon="4.6661">
        <ele>394.84976</ele>
        <time>2023-07-07T15:41:58.000Z</time>
      </trkpt>
      <trkpt lat="45.77852" lon="4.66612">
        <ele>395.05695</ele>
        <time>2023-07-07T15:41:59.000Z</time>
      </trkpt>
      <trkpt lat="45.77855" lon="4.66613">
        <ele>395.30023</ele>
        <time>2023-07-07T15:42:00.000Z</time>
      </trkpt>
      <trkpt lat="45.77859" lon="4.66614">
        <ele>392.83569</ele>
        <time>2023-07-07T15:42:01.000Z</time>
      </trkpt>
      <trkpt lat="45.77862" lon="4.66615">
        <ele>394.05597</ele>
        <time>2023-07-07T15:42:02.000Z</time>
      </trkpt>
      <trkpt lat="45.77866" lon="4.66616">
        <ele>394.32285</ele>
        <time>2023-07-07T15:42:03.000Z</time>
      </trkpt>
      <trkpt lat="45.77869" lon="4.66618">
        <ele>393.35913</ele>
        <time>2023-07-07T15:42:04.000Z</time>
      </trkpt>
      <trkpt lat="45.77872" lon="4.66619">
        <ele>393.21686</ele>
        <time>2023-07-07T15:42:05.000Z</time>
      </trkpt>
      <trkpt lat="45.77876" lon="4.66621">
        <ele>393.15717</ele>
        <time>2023-07-07T15:42:06.000Z</time>
      </trkpt>
      <trkpt lat="45.77879" lon="4.66622">
        <ele>393.15253</ele>
        <time>2023-07-07T15:42:07.000Z</time>
      </trkpt>
      <trkpt lat="45.77883" lon="4.66623">
        <ele>393.31046</ele>
        <time>2023-07-07T15:42:08.000Z</time>
      </trkpt>
      <trkpt lat="45.77886" lon="4.66624">
        <ele>393.30298</ele>
        <time>2023-07-07T15:42:09.000Z</time>
      </trkpt>
      <trkpt lat="45.77889" lon="4.66625">
        <ele>395.36765</ele>
        <time>2023-07-07T15:42:10.000Z</time>
      </trkpt>
      <trkpt lat="45.77892" lon="4.66626">
        <ele>395.87662</ele>
        <time>2023-07-07T15:42:11.000Z</time>
      </trkpt>
      <trkpt lat="45.77895" lon="4.66627">
        <ele>395.56537</ele>
        <time>2023-07-07T15:42:12.000Z</time>
      </trkpt>
      <trkpt lat="45.77899" lon="4.66626">
        <ele>395.79318</ele>
        <time>2023-07-07T15:42:13.000Z</time>
      </trkpt>
      <trkpt lat="45.77902" lon="4.66626">
        <ele>396.24179</ele>
        <time>2023-07-07T15:42:14.000Z</time>
      </trkpt>
      <trkpt lat="45.77904" lon="4.66624">
        <ele>396.8028</ele>
        <time>2023-07-07T15:42:15.000Z</time>
      </trkpt>
      <trkpt lat="45.77906" lon="4.66621">
        <ele>396.78204</ele>
        <time>2023-07-07T15:42:16.000Z</time>
      </trkpt>
      <trkpt lat="45.77906" lon="4.66618">
        <ele>396.88965</ele>
        <time>2023-07-07T15:42:17.000Z</time>
      </trkpt>
      <trkpt lat="45.77906" lon="4.66614">
        <ele>398.47021</ele>
        <time>2023-07-07T15:42:18.000Z</time>
      </trkpt>
      <trkpt lat="45.77905" lon="4.6661">
        <ele>399.30249</ele>
        <time>2023-07-07T15:42:19.000Z</time>
      </trkpt>
      <trkpt lat="45.77904" lon="4.66606">
        <ele>399.41098</ele>
        <time>2023-07-07T15:42:20.000Z</time>
      </trkpt>
      <trkpt lat="45.77904" lon="4.66602">
        <ele>399.72058</ele>
        <time>2023-07-07T15:42:21.000Z</time>
      </trkpt>
      <trkpt lat="45.77902" lon="4.66599">
        <ele>399.32794</ele>
        <time>2023-07-07T15:42:22.000Z</time>
      </trkpt>
      <trkpt lat="45.779" lon="4.66594">
        <ele>399.21585</ele>
        <time>2023-07-07T15:42:23.000Z</time>
      </trkpt>
      <trkpt lat="45.77898" lon="4.66591">
        <ele>400.52289</ele>
        <time>2023-07-07T15:42:24.000Z</time>
      </trkpt>
      <trkpt lat="45.77896" lon="4.66588">
        <ele>400.91843</ele>
        <time>2023-07-07T15:42:25.000Z</time>
      </trkpt>
      <trkpt lat="45.77895" lon="4.66586">
        <ele>401.45593</ele>
        <time>2023-07-07T15:42:26.000Z</time>
      </trkpt>
      <trkpt lat="45.77895" lon="4.66583">
        <ele>401.82513</ele>
        <time>2023-07-07T15:42:27.000Z</time>
      </trkpt>
      <trkpt lat="45.77894" lon="4.6658">
        <ele>402.45859</ele>
        <time>2023-07-07T15:42:28.000Z</time>
      </trkpt>
      <trkpt lat="45.77893" lon="4.66578">
        <ele>403.29559</ele>
        <time>2023-07-07T15:42:29.000Z</time>
      </trkpt>
      <trkpt lat="45.77893" lon="4.66575">
        <ele>401.95721</ele>
        <time>2023-07-07T15:42:30.000Z</time>
      </trkpt>
      <trkpt lat="45.77892" lon="4.66572">
        <ele>402.47974</ele>
        <time>2023-07-07T15:42:31.000Z</time>
      </trkpt>
      <trkpt lat="45.7789" lon="4.66568">
        <ele>403.05417</ele>
        <time>2023-07-07T15:42:32.000Z</time>
      </trkpt>
      <trkpt lat="45.77889" lon="4.66565">
        <ele>403.53915</ele>
        <time>2023-07-07T15:42:33.000Z</time>
      </trkpt>
      <trkpt lat="45.77888" lon="4.66561">
        <ele>404.19412</ele>
        <time>2023-07-07T15:42:35.000Z</time>
      </trkpt>
      <trkpt lat="45.77888" lon="4.66558">
        <ele>404.22516</ele>
        <time>2023-07-07T15:42:36.000Z</time>
      </trkpt>
      <trkpt lat="45.77887" lon="4.66556">
        <ele>404.21478</ele>
        <time>2023-07-07T15:42:37.000Z</time>
      </trkpt>
      <trkpt lat="45.77886" lon="4.66553">
        <ele>404.30032</ele>
        <time>2023-07-07T15:42:38.000Z</time>
      </trkpt>
      <trkpt lat="45.77885" lon="4.6655">
        <ele>402.95288</ele>
        <time>2023-07-07T15:42:39.000Z</time>
      </trkpt>
      <trkpt lat="45.77884" lon="4.66548">
        <ele>401.93317</ele>
        <time>2023-07-07T15:42:40.000Z</time>
      </trkpt>
      <trkpt lat="45.77882" lon="4.66544">
        <ele>401.39688</ele>
        <time>2023-07-07T15:42:41.000Z</time>
      </trkpt>
      <trkpt lat="45.77881" lon="4.66542">
        <ele>402.61124</ele>
        <time>2023-07-07T15:42:42.000Z</time>
      </trkpt>
      <trkpt lat="45.7788" lon="4.66539">
        <ele>403.42255</ele>
        <time>2023-07-07T15:42:43.000Z</time>
      </trkpt>
      <trkpt lat="45.7788" lon="4.66537">
        <ele>403.62726</ele>
        <time>2023-07-07T15:42:44.000Z</time>
      </trkpt>
      <trkpt lat="45.77877" lon="4.66533">
        <ele>404.013</ele>
        <time>2023-07-07T15:42:46.000Z</time>
      </trkpt>
      <trkpt lat="45.77876" lon="4.6653">
        <ele>404.64542</ele>
        <time>2023-07-07T15:42:47.000Z</time>
      </trkpt>
      <trkpt lat="45.77875" lon="4.66528">
        <ele>405.01535</ele>
        <time>2023-07-07T15:42:48.000Z</time>
      </trkpt>
      <trkpt lat="45.77874" lon="4.66524">
        <ele>404.37329</ele>
        <time>2023-07-07T15:42:50.000Z</time>
      </trkpt>
      <trkpt lat="45.77873" lon="4.6652">
        <ele>403.34299</ele>
        <time>2023-07-07T15:42:52.000Z</time>
      </trkpt>
      <trkpt lat="45.77872" lon="4.66516">
        <ele>402.17395</ele>
        <time>2023-07-07T15:42:53.000Z</time>
      </trkpt>
      <trkpt lat="45.77872" lon="4.66514">
        <ele>400.49619</ele>
        <time>2023-07-07T15:42:54.000Z</time>
      </trkpt>
      <trkpt lat="45.77871" lon="4.6651">
        <ele>399.09122</ele>
        <time>2023-07-07T15:42:55.000Z</time>
      </trkpt>
      <trkpt lat="45.7787" lon="4.66507">
        <ele>397.23944</ele>
        <time>2023-07-07T15:42:56.000Z</time>
      </trkpt>
      <trkpt lat="45.77869" lon="4.66504">
        <ele>396.83817</ele>
        <time>2023-07-07T15:42:57.000Z</time>
      </trkpt>
      <trkpt lat="45.77867" lon="4.66501">
        <ele>394.90106</ele>
        <time>2023-07-07T15:42:58.000Z</time>
      </trkpt>
      <trkpt lat="45.77866" lon="4.66498">
        <ele>394.92413</ele>
        <time>2023-07-07T15:42:59.000Z</time>
      </trkpt>
      <trkpt lat="45.77864" lon="4.66495">
        <ele>394.58841</ele>
        <time>2023-07-07T15:43:00.000Z</time>
      </trkpt>
      <trkpt lat="45.77863" lon="4.66491">
        <ele>393.70413</ele>
        <time>2023-07-07T15:43:01.000Z</time>
      </trkpt>
      <trkpt lat="45.77862" lon="4.66488">
        <ele>393.03864</ele>
        <time>2023-07-07T15:43:03.000Z</time>
      </trkpt>
      <trkpt lat="45.77861" lon="4.66484">
        <ele>391.72748</ele>
        <time>2023-07-07T15:43:04.000Z</time>
      </trkpt>
      <trkpt lat="45.77861" lon="4.6648">
        <ele>390.39301</ele>
        <time>2023-07-07T15:43:05.000Z</time>
      </trkpt>
      <trkpt lat="45.7786" lon="4.66476">
        <ele>387.30191</ele>
        <time>2023-07-07T15:43:07.000Z</time>
      </trkpt>
      <trkpt lat="45.7786" lon="4.66471">
        <ele>384.84424</ele>
        <time>2023-07-07T15:43:08.000Z</time>
      </trkpt>
      <trkpt lat="45.77859" lon="4.66467">
        <ele>383.91534</ele>
        <time>2023-07-07T15:43:09.000Z</time>
      </trkpt>
      <trkpt lat="45.77859" lon="4.66463">
        <ele>382.63968</ele>
        <time>2023-07-07T15:43:10.000Z</time>
      </trkpt>
      <trkpt lat="45.77859" lon="4.6646">
        <ele>381.07574</ele>
        <time>2023-07-07T15:43:11.000Z</time>
      </trkpt>
      <trkpt lat="45.77858" lon="4.66455">
        <ele>379.56122</ele>
        <time>2023-07-07T15:43:13.000Z</time>
      </trkpt>
      <trkpt lat="45.77857" lon="4.66453">
        <ele>383.2027</ele>
        <time>2023-07-07T15:43:14.000Z</time>
      </trkpt>
      <trkpt lat="45.77854" lon="4.66449">
        <ele>384.59052</ele>
        <time>2023-07-07T15:43:16.000Z</time>
      </trkpt>
      <trkpt lat="45.77852" lon="4.66445">
        <ele>385.88705</ele>
        <time>2023-07-07T15:43:17.000Z</time>
      </trkpt>
      <trkpt lat="45.77851" lon="4.66441">
        <ele>387.86578</ele>
        <time>2023-07-07T15:43:18.000Z</time>
      </trkpt>
      <trkpt lat="45.7785" lon="4.66438">
        <ele>389.40076</ele>
        <time>2023-07-07T15:43:19.000Z</time>
      </trkpt>
      <trkpt lat="45.77849" lon="4.66435">
        <ele>391.42627</ele>
        <time>2023-07-07T15:43:20.000Z</time>
      </trkpt>
      <trkpt lat="45.77848" lon="4.66432">
        <ele>392.16492</ele>
        <time>2023-07-07T15:43:21.000Z</time>
      </trkpt>
      <trkpt lat="45.77847" lon="4.66429">
        <ele>393.26566</ele>
        <time>2023-07-07T15:43:22.000Z</time>
      </trkpt>
      <trkpt lat="45.77846" lon="4.66425">
        <ele>393.06277</ele>
        <time>2023-07-07T15:43:23.000Z</time>
      </trkpt>
      <trkpt lat="45.77845" lon="4.66421">
        <ele>393.35773</ele>
        <time>2023-07-07T15:43:24.000Z</time>
      </trkpt>
      <trkpt lat="45.77845" lon="4.66417">
        <ele>393.98526</ele>
        <time>2023-07-07T15:43:25.000Z</time>
      </trkpt>
      <trkpt lat="45.77844" lon="4.66414">
        <ele>394.37991</ele>
        <time>2023-07-07T15:43:26.000Z</time>
      </trkpt>
      <trkpt lat="45.77844" lon="4.66411">
        <ele>397.38803</ele>
        <time>2023-07-07T15:43:27.000Z</time>
      </trkpt>
      <trkpt lat="45.77843" lon="4.66407">
        <ele>399.16312</ele>
        <time>2023-07-07T15:43:28.000Z</time>
      </trkpt>
      <trkpt lat="45.77843" lon="4.66403">
        <ele>402.4035</ele>
        <time>2023-07-07T15:43:29.000Z</time>
      </trkpt>
      <trkpt lat="45.77842" lon="4.66399">
        <ele>404.70789</ele>
        <time>2023-07-07T15:43:30.000Z</time>
      </trkpt>
      <trkpt lat="45.77842" lon="4.66395">
        <ele>405.79529</ele>
        <time>2023-07-07T15:43:31.000Z</time>
      </trkpt>
      <trkpt lat="45.77841" lon="4.66391">
        <ele>406.47443</ele>
        <time>2023-07-07T15:43:32.000Z</time>
      </trkpt>
      <trkpt lat="45.7784" lon="4.66387">
        <ele>407.2749</ele>
        <time>2023-07-07T15:43:33.000Z</time>
      </trkpt>
      <trkpt lat="45.77839" lon="4.66383">
        <ele>409.56659</ele>
        <time>2023-07-07T15:43:34.000Z</time>
      </trkpt>
      <trkpt lat="45.77839" lon="4.66379">
        <ele>407.66467</ele>
        <time>2023-07-07T15:43:35.000Z</time>
      </trkpt>
      <trkpt lat="45.77839" lon="4.66374">
        <ele>408.05646</ele>
        <time>2023-07-07T15:43:36.000Z</time>
      </trkpt>
      <trkpt lat="45.77839" lon="4.6637">
        <ele>408.19733</ele>
        <time>2023-07-07T15:43:37.000Z</time>
      </trkpt>
      <trkpt lat="45.7784" lon="4.66366">
        <ele>408.44855</ele>
        <time>2023-07-07T15:43:38.000Z</time>
      </trkpt>
      <trkpt lat="45.7784" lon="4.66362">
        <ele>409.23077</ele>
        <time>2023-07-07T15:43:39.000Z</time>
      </trkpt>
      <trkpt lat="45.77841" lon="4.66358">
        <ele>409.68854</ele>
        <time>2023-07-07T15:43:40.000Z</time>
      </trkpt>
      <trkpt lat="45.77841" lon="4.66355">
        <ele>409.61694</ele>
        <time>2023-07-07T15:43:41.000Z</time>
      </trkpt>
      <trkpt lat="45.77841" lon="4.6635">
        <ele>410.37213</ele>
        <time>2023-07-07T15:43:42.000Z</time>
      </trkpt>
      <trkpt lat="45.7784" lon="4.66345">
        <ele>411.32159</ele>
        <time>2023-07-07T15:43:43.000Z</time>
      </trkpt>
      <trkpt lat="45.7784" lon="4.6634">
        <ele>412.17758</ele>
        <time>2023-07-07T15:43:44.000Z</time>
      </trkpt>
      <trkpt lat="45.7784" lon="4.66335">
        <ele>413.02222</ele>
        <time>2023-07-07T15:43:45.000Z</time>
      </trkpt>
      <trkpt lat="45.7784" lon="4.66331">
        <ele>413.96539</ele>
        <time>2023-07-07T15:43:46.000Z</time>
      </trkpt>
      <trkpt lat="45.7784" lon="4.66326">
        <ele>412.41031</ele>
        <time>2023-07-07T15:43:47.000Z</time>
      </trkpt>
      <trkpt lat="45.7784" lon="4.66321">
        <ele>412.50824</ele>
        <time>2023-07-07T15:43:48.000Z</time>
      </trkpt>
      <trkpt lat="45.7784" lon="4.66317">
        <ele>411.17352</ele>
        <time>2023-07-07T15:43:49.000Z</time>
      </trkpt>
      <trkpt lat="45.77841" lon="4.66314">
        <ele>410.37091</ele>
        <time>2023-07-07T15:43:50.000Z</time>
      </trkpt>
      <trkpt lat="45.77841" lon="4.66311">
        <ele>409.54031</ele>
        <time>2023-07-07T15:43:51.000Z</time>
      </trkpt>
      <trkpt lat="45.77842" lon="4.66307">
        <ele>408.99374</ele>
        <time>2023-07-07T15:43:52.000Z</time>
      </trkpt>
      <trkpt lat="45.77843" lon="4.66302">
        <ele>408.37769</ele>
        <time>2023-07-07T15:43:53.000Z</time>
      </trkpt>
      <trkpt lat="45.77843" lon="4.66296">
        <ele>407.64435</ele>
        <time>2023-07-07T15:43:54.000Z</time>
      </trkpt>
      <trkpt lat="45.77844" lon="4.66291">
        <ele>406.76093</ele>
        <time>2023-07-07T15:43:55.000Z</time>
      </trkpt>
      <trkpt lat="45.77844" lon="4.66285">
        <ele>406.27307</ele>
        <time>2023-07-07T15:43:56.000Z</time>
      </trkpt>
      <trkpt lat="45.77844" lon="4.66281">
        <ele>406.41656</ele>
        <time>2023-07-07T15:43:57.000Z</time>
      </trkpt>
      <trkpt lat="45.77845" lon="4.66277">
        <ele>406.23236</ele>
        <time>2023-07-07T15:43:58.000Z</time>
      </trkpt>
      <trkpt lat="45.77845" lon="4.66272">
        <ele>405.95712</ele>
        <time>2023-07-07T15:43:59.000Z</time>
      </trkpt>
      <trkpt lat="45.77846" lon="4.66267">
        <ele>406.0697</ele>
        <time>2023-07-07T15:44:00.000Z</time>
      </trkpt>
      <trkpt lat="45.77845" lon="4.66264">
        <ele>406.91812</ele>
        <time>2023-07-07T15:44:01.000Z</time>
      </trkpt>
      <trkpt lat="45.77846" lon="4.6626">
        <ele>407.61319</ele>
        <time>2023-07-07T15:44:02.000Z</time>
      </trkpt>
      <trkpt lat="45.77846" lon="4.66256">
        <ele>407.83813</ele>
        <time>2023-07-07T15:44:03.000Z</time>
      </trkpt>
      <trkpt lat="45.77846" lon="4.66252">
        <ele>408.33856</ele>
        <time>2023-07-07T15:44:04.000Z</time>
      </trkpt>
      <trkpt lat="45.77847" lon="4.66247">
        <ele>408.65567</ele>
        <time>2023-07-07T15:44:05.000Z</time>
      </trkpt>
      <trkpt lat="45.77847" lon="4.66242">
        <ele>409.11963</ele>
        <time>2023-07-07T15:44:06.000Z</time>
      </trkpt>
      <trkpt lat="45.77848" lon="4.66235">
        <ele>410.01105</ele>
        <time>2023-07-07T15:44:07.000Z</time>
      </trkpt>
      <trkpt lat="45.77848" lon="4.66229">
        <ele>410.54916</ele>
        <time>2023-07-07T15:44:08.000Z</time>
      </trkpt>
      <trkpt lat="45.77848" lon="4.66223">
        <ele>411.05975</ele>
        <time>2023-07-07T15:44:09.000Z</time>
      </trkpt>
      <trkpt lat="45.77849" lon="4.66217">
        <ele>411.05942</ele>
        <time>2023-07-07T15:44:10.000Z</time>
      </trkpt>
      <trkpt lat="45.7785" lon="4.66211">
        <ele>411.2348</ele>
        <time>2023-07-07T15:44:11.000Z</time>
      </trkpt>
      <trkpt lat="45.77851" lon="4.66206">
        <ele>411.58829</ele>
        <time>2023-07-07T15:44:12.000Z</time>
      </trkpt>
      <trkpt lat="45.77852" lon="4.66201">
        <ele>411.99139</ele>
        <time>2023-07-07T15:44:13.000Z</time>
      </trkpt>
      <trkpt lat="45.77853" lon="4.66196">
        <ele>411.10748</ele>
        <time>2023-07-07T15:44:14.000Z</time>
      </trkpt>
      <trkpt lat="45.77854" lon="4.66191">
        <ele>410.41962</ele>
        <time>2023-07-07T15:44:15.000Z</time>
      </trkpt>
      <trkpt lat="45.77855" lon="4.66188">
        <ele>411.05429</ele>
        <time>2023-07-07T15:44:16.000Z</time>
      </trkpt>
      <trkpt lat="45.77856" lon="4.66185">
        <ele>411.27618</ele>
        <time>2023-07-07T15:44:17.000Z</time>
      </trkpt>
      <trkpt lat="45.77857" lon="4.66182">
        <ele>411.40472</ele>
        <time>2023-07-07T15:44:18.000Z</time>
      </trkpt>
      <trkpt lat="45.77858" lon="4.66179">
        <ele>410.87134</ele>
        <time>2023-07-07T15:44:19.000Z</time>
      </trkpt>
      <trkpt lat="45.77858" lon="4.66175">
        <ele>409.48926</ele>
        <time>2023-07-07T15:44:20.000Z</time>
      </trkpt>
      <trkpt lat="45.77859" lon="4.66171">
        <ele>407.88937</ele>
        <time>2023-07-07T15:44:21.000Z</time>
      </trkpt>
      <trkpt lat="45.7786" lon="4.66167">
        <ele>406.69104</ele>
        <time>2023-07-07T15:44:22.000Z</time>
      </trkpt>
      <trkpt lat="45.77861" lon="4.66163">
        <ele>405.61191</ele>
        <time>2023-07-07T15:44:23.000Z</time>
      </trkpt>
      <trkpt lat="45.77862" lon="4.6616">
        <ele>404.55365</ele>
        <time>2023-07-07T15:44:24.000Z</time>
      </trkpt>
      <trkpt lat="45.77863" lon="4.66156">
        <ele>403.53369</ele>
        <time>2023-07-07T15:44:25.000Z</time>
      </trkpt>
      <trkpt lat="45.77864" lon="4.66153">
        <ele>401.66296</ele>
        <time>2023-07-07T15:44:26.000Z</time>
      </trkpt>
      <trkpt lat="45.77864" lon="4.66149">
        <ele>400.30438</ele>
        <time>2023-07-07T15:44:27.000Z</time>
      </trkpt>
      <trkpt lat="45.77865" lon="4.66146">
        <ele>400.51086</ele>
        <time>2023-07-07T15:44:28.000Z</time>
      </trkpt>
      <trkpt lat="45.77865" lon="4.66141">
        <ele>400.14459</ele>
        <time>2023-07-07T15:44:29.000Z</time>
      </trkpt>
      <trkpt lat="45.77865" lon="4.66137">
        <ele>400.51523</ele>
        <time>2023-07-07T15:44:30.000Z</time>
      </trkpt>
      <trkpt lat="45.77865" lon="4.66133">
        <ele>401.1131</ele>
        <time>2023-07-07T15:44:31.000Z</time>
      </trkpt>
      <trkpt lat="45.77865" lon="4.6613">
        <ele>401.49039</ele>
        <time>2023-07-07T15:44:32.000Z</time>
      </trkpt>
      <trkpt lat="45.77866" lon="4.66126">
        <ele>401.31247</ele>
        <time>2023-07-07T15:44:33.000Z</time>
      </trkpt>
      <trkpt lat="45.77867" lon="4.66124">
        <ele>401.40903</ele>
        <time>2023-07-07T15:44:34.000Z</time>
      </trkpt>
      <trkpt lat="45.77868" lon="4.66121">
        <ele>401.69806</ele>
        <time>2023-07-07T15:44:35.000Z</time>
      </trkpt>
      <trkpt lat="45.77869" lon="4.66117">
        <ele>400.29449</ele>
        <time>2023-07-07T15:44:36.000Z</time>
      </trkpt>
      <trkpt lat="45.77871" lon="4.66114">
        <ele>398.76016</ele>
        <time>2023-07-07T15:44:37.000Z</time>
      </trkpt>
      <trkpt lat="45.77871" lon="4.66111">
        <ele>397.15729</ele>
        <time>2023-07-07T15:44:38.000Z</time>
      </trkpt>
      <trkpt lat="45.77871" lon="4.66107">
        <ele>397.15109</ele>
        <time>2023-07-07T15:44:39.000Z</time>
      </trkpt>
      <trkpt lat="45.77872" lon="4.66103">
        <ele>397.36713</ele>
        <time>2023-07-07T15:44:40.000Z</time>
      </trkpt>
      <trkpt lat="45.77871" lon="4.661">
        <ele>397.77386</ele>
        <time>2023-07-07T15:44:41.000Z</time>
      </trkpt>
      <trkpt lat="45.7787" lon="4.66097">
        <ele>398.11511</ele>
        <time>2023-07-07T15:44:42.000Z</time>
      </trkpt>
      <trkpt lat="45.77869" lon="4.66094">
        <ele>398.5986</ele>
        <time>2023-07-07T15:44:43.000Z</time>
      </trkpt>
      <trkpt lat="45.77868" lon="4.66089">
        <ele>398.25934</ele>
        <time>2023-07-07T15:44:45.000Z</time>
      </trkpt>
      <trkpt lat="45.77867" lon="4.66085">
        <ele>397.95502</ele>
        <time>2023-07-07T15:44:46.000Z</time>
      </trkpt>
      <trkpt lat="45.77866" lon="4.66081">
        <ele>398.1889</ele>
        <time>2023-07-07T15:44:47.000Z</time>
      </trkpt>
      <trkpt lat="45.77866" lon="4.66077">
        <ele>398.28098</ele>
        <time>2023-07-07T15:44:48.000Z</time>
      </trkpt>
      <trkpt lat="45.77865" lon="4.66072">
        <ele>398.43433</ele>
        <time>2023-07-07T15:44:49.000Z</time>
      </trkpt>
      <trkpt lat="45.77865" lon="4.66069">
        <ele>398.89581</ele>
        <time>2023-07-07T15:44:50.000Z</time>
      </trkpt>
      <trkpt lat="45.77865" lon="4.66065">
        <ele>398.62885</ele>
        <time>2023-07-07T15:44:51.000Z</time>
      </trkpt>
      <trkpt lat="45.77865" lon="4.66062">
        <ele>398.28802</ele>
        <time>2023-07-07T15:44:52.000Z</time>
      </trkpt>
      <trkpt lat="45.77865" lon="4.66057">
        <ele>398.95795</ele>
        <time>2023-07-07T15:44:53.000Z</time>
      </trkpt>
      <trkpt lat="45.77864" lon="4.66053">
        <ele>399.91238</ele>
        <time>2023-07-07T15:44:54.000Z</time>
      </trkpt>
      <trkpt lat="45.77865" lon="4.6605">
        <ele>400.55939</ele>
        <time>2023-07-07T15:44:55.000Z</time>
      </trkpt>
      <trkpt lat="45.77865" lon="4.66044">
        <ele>401.15747</ele>
        <time>2023-07-07T15:44:56.000Z</time>
      </trkpt>
      <trkpt lat="45.77865" lon="4.6604">
        <ele>401.61639</ele>
        <time>2023-07-07T15:44:57.000Z</time>
      </trkpt>
      <trkpt lat="45.77865" lon="4.66033">
        <ele>402.24152</ele>
        <time>2023-07-07T15:44:58.000Z</time>
      </trkpt>
      <trkpt lat="45.77865" lon="4.66028">
        <ele>402.85123</ele>
        <time>2023-07-07T15:44:59.000Z</time>
      </trkpt>
      <trkpt lat="45.77866" lon="4.66021">
        <ele>402.62851</ele>
        <time>2023-07-07T15:45:00.000Z</time>
      </trkpt>
      <trkpt lat="45.77867" lon="4.66016">
        <ele>402.79959</ele>
        <time>2023-07-07T15:45:01.000Z</time>
      </trkpt>
      <trkpt lat="45.77867" lon="4.66012">
        <ele>402.84076</ele>
        <time>2023-07-07T15:45:02.000Z</time>
      </trkpt>
      <trkpt lat="45.77868" lon="4.66009">
        <ele>402.89001</ele>
        <time>2023-07-07T15:45:03.000Z</time>
      </trkpt>
      <trkpt lat="45.77868" lon="4.66005">
        <ele>402.97665</ele>
        <time>2023-07-07T15:45:05.000Z</time>
      </trkpt>
      <trkpt lat="45.77869" lon="4.66001">
        <ele>403.11966</ele>
        <time>2023-07-07T15:45:06.000Z</time>
      </trkpt>
      <trkpt lat="45.7787" lon="4.65998">
        <ele>403.09125</ele>
        <time>2023-07-07T15:45:07.000Z</time>
      </trkpt>
      <trkpt lat="45.7787" lon="4.65994">
        <ele>404.34094</ele>
        <time>2023-07-07T15:45:08.000Z</time>
      </trkpt>
      <trkpt lat="45.77869" lon="4.65989">
        <ele>405.10217</ele>
        <time>2023-07-07T15:45:10.000Z</time>
      </trkpt>
      <trkpt lat="45.77869" lon="4.65984">
        <ele>404.5271</ele>
        <time>2023-07-07T15:45:11.000Z</time>
      </trkpt>
      <trkpt lat="45.77868" lon="4.65979">
        <ele>404.10913</ele>
        <time>2023-07-07T15:45:12.000Z</time>
      </trkpt>
      <trkpt lat="45.77867" lon="4.65976">
        <ele>404.56238</ele>
        <time>2023-07-07T15:45:13.000Z</time>
      </trkpt>
      <trkpt lat="45.77867" lon="4.65973">
        <ele>405.18021</ele>
        <time>2023-07-07T15:45:14.000Z</time>
      </trkpt>
      <trkpt lat="45.77868" lon="4.65968">
        <ele>404.63251</ele>
        <time>2023-07-07T15:45:16.000Z</time>
      </trkpt>
      <trkpt lat="45.77869" lon="4.65964">
        <ele>404.51862</ele>
        <time>2023-07-07T15:45:17.000Z</time>
      </trkpt>
      <trkpt lat="45.77869" lon="4.65961">
        <ele>403.80142</ele>
        <time>2023-07-07T15:45:18.000Z</time>
      </trkpt>
      <trkpt lat="45.77868" lon="4.65958">
        <ele>402.60052</ele>
        <time>2023-07-07T15:45:19.000Z</time>
      </trkpt>
      <trkpt lat="45.77867" lon="4.65955">
        <ele>402.99594</ele>
        <time>2023-07-07T15:45:20.000Z</time>
      </trkpt>
      <trkpt lat="45.77866" lon="4.65952">
        <ele>403.23535</ele>
        <time>2023-07-07T15:45:21.000Z</time>
      </trkpt>
      <trkpt lat="45.77864" lon="4.65949">
        <ele>403.11691</ele>
        <time>2023-07-07T15:45:22.000Z</time>
      </trkpt>
      <trkpt lat="45.77864" lon="4.65944">
        <ele>402.64496</ele>
        <time>2023-07-07T15:45:23.000Z</time>
      </trkpt>
      <trkpt lat="45.77865" lon="4.6594">
        <ele>402.09958</ele>
        <time>2023-07-07T15:45:24.000Z</time>
      </trkpt>
      <trkpt lat="45.77866" lon="4.65936">
        <ele>401.1376</ele>
        <time>2023-07-07T15:45:25.000Z</time>
      </trkpt>
      <trkpt lat="45.77867" lon="4.65934">
        <ele>400.31216</ele>
        <time>2023-07-07T15:45:26.000Z</time>
      </trkpt>
      <trkpt lat="45.77869" lon="4.65932">
        <ele>399.99905</ele>
        <time>2023-07-07T15:45:28.000Z</time>
      </trkpt>
      <trkpt lat="45.77872" lon="4.65928">
        <ele>401.05109</ele>
        <time>2023-07-07T15:45:30.000Z</time>
      </trkpt>
      <trkpt lat="45.77873" lon="4.65924">
        <ele>402.63101</ele>
        <time>2023-07-07T15:45:31.000Z</time>
      </trkpt>
      <trkpt lat="45.77874" lon="4.6592">
        <ele>403.0354</ele>
        <time>2023-07-07T15:45:32.000Z</time>
      </trkpt>
      <trkpt lat="45.77874" lon="4.65916">
        <ele>403.82535</ele>
        <time>2023-07-07T15:45:33.000Z</time>
      </trkpt>
      <trkpt lat="45.77875" lon="4.65911">
        <ele>404.62909</ele>
        <time>2023-07-07T15:45:34.000Z</time>
      </trkpt>
      <trkpt lat="45.77875" lon="4.65906">
        <ele>405.60904</ele>
        <time>2023-07-07T15:45:35.000Z</time>
      </trkpt>
      <trkpt lat="45.77875" lon="4.65902">
        <ele>406.4682</ele>
        <time>2023-07-07T15:45:36.000Z</time>
      </trkpt>
      <trkpt lat="45.77875" lon="4.65897">
        <ele>407.08591</ele>
        <time>2023-07-07T15:45:38.000Z</time>
      </trkpt>
      <trkpt lat="45.77875" lon="4.65892">
        <ele>407.18555</ele>
        <time>2023-07-07T15:45:39.000Z</time>
      </trkpt>
      <trkpt lat="45.77876" lon="4.65888">
        <ele>406.97491</ele>
        <time>2023-07-07T15:45:40.000Z</time>
      </trkpt>
      <trkpt lat="45.77877" lon="4.65884">
        <ele>406.9624</ele>
        <time>2023-07-07T15:45:41.000Z</time>
      </trkpt>
      <trkpt lat="45.77878" lon="4.6588">
        <ele>408.35242</ele>
        <time>2023-07-07T15:45:42.000Z</time>
      </trkpt>
      <trkpt lat="45.77878" lon="4.65877">
        <ele>408.0668</ele>
        <time>2023-07-07T15:45:43.000Z</time>
      </trkpt>
      <trkpt lat="45.77878" lon="4.65872">
        <ele>408.00372</ele>
        <time>2023-07-07T15:45:45.000Z</time>
      </trkpt>
      <trkpt lat="45.77878" lon="4.65868">
        <ele>408.58713</ele>
        <time>2023-07-07T15:45:46.000Z</time>
      </trkpt>
      <trkpt lat="45.77878" lon="4.65865">
        <ele>409.32288</ele>
        <time>2023-07-07T15:45:47.000Z</time>
      </trkpt>
      <trkpt lat="45.77877" lon="4.65862">
        <ele>410.21704</ele>
        <time>2023-07-07T15:45:48.000Z</time>
      </trkpt>
      <trkpt lat="45.77875" lon="4.6586">
        <ele>414.44254</ele>
        <time>2023-07-07T15:45:49.000Z</time>
      </trkpt>
      <trkpt lat="45.77872" lon="4.65857">
        <ele>415.73941</ele>
        <time>2023-07-07T15:45:51.000Z</time>
      </trkpt>
      <trkpt lat="45.7787" lon="4.65856">
        <ele>416.5108</ele>
        <time>2023-07-07T15:45:53.000Z</time>
      </trkpt>
      <trkpt lat="45.77869" lon="4.65853">
        <ele>418.0817</ele>
        <time>2023-07-07T15:46:03.000Z</time>
      </trkpt>
      <trkpt lat="45.77869" lon="4.65851">
        <ele>417.92889</ele>
        <time>2023-07-07T15:46:07.000Z</time>
      </trkpt>
      <trkpt lat="45.77868" lon="4.65848">
        <ele>419.10147</ele>
        <time>2023-07-07T15:46:10.000Z</time>
      </trkpt>
      <trkpt lat="45.77866" lon="4.65847">
        <ele>420.45035</ele>
        <time>2023-07-07T15:46:14.000Z</time>
      </trkpt>
      <trkpt lat="45.77866" lon="4.65842">
        <ele>422.59155</ele>
        <time>2023-07-07T15:46:20.000Z</time>
      </trkpt>
      <trkpt lat="45.77866" lon="4.65839">
        <ele>422.55386</ele>
        <time>2023-07-07T15:46:22.000Z</time>
      </trkpt>
      <trkpt lat="45.77865" lon="4.65836">
        <ele>424.60855</ele>
        <time>2023-07-07T15:46:26.000Z</time>
      </trkpt>
      <trkpt lat="45.77865" lon="4.65833">
        <ele>424.67197</ele>
        <time>2023-07-07T15:46:28.000Z</time>
      </trkpt>
      <trkpt lat="45.77864" lon="4.6583">
        <ele>426.50424</ele>
        <time>2023-07-07T15:46:30.000Z</time>
      </trkpt>
      <trkpt lat="45.77863" lon="4.65827">
        <ele>426.52069</ele>
        <time>2023-07-07T15:46:36.000Z</time>
      </trkpt>
      <trkpt lat="45.77864" lon="4.65824">
        <ele>427.10815</ele>
        <time>2023-07-07T15:46:51.000Z</time>
      </trkpt>
      <trkpt lat="45.77863" lon="4.6582">
        <ele>426.64386</ele>
        <time>2023-07-07T15:46:55.000Z</time>
      </trkpt>
      <trkpt lat="45.77861" lon="4.65817">
        <ele>427.62363</ele>
        <time>2023-07-07T15:46:57.000Z</time>
      </trkpt>
      <trkpt lat="45.77859" lon="4.65815">
        <ele>428.60147</ele>
        <time>2023-07-07T15:46:59.000Z</time>
      </trkpt>
      <trkpt lat="45.77855" lon="4.65814">
        <ele>425.84116</ele>
        <time>2023-07-07T15:47:01.000Z</time>
      </trkpt>
      <trkpt lat="45.77853" lon="4.65814">
        <ele>426.70386</ele>
        <time>2023-07-07T15:47:02.000Z</time>
      </trkpt>
      <trkpt lat="45.77851" lon="4.65814">
        <ele>427.57291</ele>
        <time>2023-07-07T15:47:05.000Z</time>
      </trkpt>
      <trkpt lat="45.77852" lon="4.6581">
        <ele>421.29752</ele>
        <time>2023-07-07T15:47:07.000Z</time>
      </trkpt>
      <trkpt lat="45.77853" lon="4.65807">
        <ele>421.64029</ele>
        <time>2023-07-07T15:47:12.000Z</time>
      </trkpt>
      <trkpt lat="45.77851" lon="4.65807">
        <ele>421.0708</ele>
        <time>2023-07-07T15:47:15.000Z</time>
      </trkpt>
      <trkpt lat="45.77849" lon="4.65805">
        <ele>419.10577</ele>
        <time>2023-07-07T15:47:23.000Z</time>
      </trkpt>
      <trkpt lat="45.77848" lon="4.65801">
        <ele>417.95477</ele>
        <time>2023-07-07T15:47:26.000Z</time>
      </trkpt>
      <trkpt lat="45.77847" lon="4.65798">
        <ele>415.32022</ele>
        <time>2023-07-07T15:47:28.000Z</time>
      </trkpt>
      <trkpt lat="45.77845" lon="4.65796">
        <ele>413.77325</ele>
        <time>2023-07-07T15:47:30.000Z</time>
      </trkpt>
      <trkpt lat="45.77843" lon="4.65795">
        <ele>411.22675</ele>
        <time>2023-07-07T15:47:33.000Z</time>
      </trkpt>
      <trkpt lat="45.77841" lon="4.65793">
        <ele>411.33795</ele>
        <time>2023-07-07T15:47:41.000Z</time>
      </trkpt>
      <trkpt lat="45.7784" lon="4.6579">
        <ele>407.67007</ele>
        <time>2023-07-07T15:47:45.000Z</time>
      </trkpt>
      <trkpt lat="45.77837" lon="4.6579">
        <ele>406.82315</ele>
        <time>2023-07-07T15:47:48.000Z</time>
      </trkpt>
      <trkpt lat="45.77834" lon="4.6579">
        <ele>401.94943</ele>
        <time>2023-07-07T15:47:51.000Z</time>
      </trkpt>
      <trkpt lat="45.77832" lon="4.65789">
        <ele>400.39069</ele>
        <time>2023-07-07T15:47:52.000Z</time>
      </trkpt>
      <trkpt lat="45.77829" lon="4.65789">
        <ele>400.08075</ele>
        <time>2023-07-07T15:47:53.000Z</time>
      </trkpt>
      <trkpt lat="45.77826" lon="4.65788">
        <ele>399.91962</ele>
        <time>2023-07-07T15:47:54.000Z</time>
      </trkpt>
      <trkpt lat="45.77824" lon="4.65786">
        <ele>398.58337</ele>
        <time>2023-07-07T15:47:55.000Z</time>
      </trkpt>
      <trkpt lat="45.77822" lon="4.65783">
        <ele>397.13138</ele>
        <time>2023-07-07T15:47:56.000Z</time>
      </trkpt>
      <trkpt lat="45.77821" lon="4.6578">
        <ele>399.34808</ele>
        <time>2023-07-07T15:47:57.000Z</time>
      </trkpt>
      <trkpt lat="45.7782" lon="4.65777">
        <ele>398.20767</ele>
        <time>2023-07-07T15:47:59.000Z</time>
      </trkpt>
      <trkpt lat="45.77819" lon="4.65774">
        <ele>396.46695</ele>
        <time>2023-07-07T15:48:01.000Z</time>
      </trkpt>
      <trkpt lat="45.77816" lon="4.65771">
        <ele>397.92572</ele>
        <time>2023-07-07T15:48:03.000Z</time>
      </trkpt>
      <trkpt lat="45.77815" lon="4.65769">
        <ele>395.41745</ele>
        <time>2023-07-07T15:48:04.000Z</time>
      </trkpt>
      <trkpt lat="45.77815" lon="4.65765">
        <ele>394.97086</ele>
        <time>2023-07-07T15:48:06.000Z</time>
      </trkpt>
      <trkpt lat="45.77813" lon="4.65762">
        <ele>394.30646</ele>
        <time>2023-07-07T15:48:09.000Z</time>
      </trkpt>
      <trkpt lat="45.77812" lon="4.65757">
        <ele>394.59369</ele>
        <time>2023-07-07T15:48:11.000Z</time>
      </trkpt>
      <trkpt lat="45.7781" lon="4.65754">
        <ele>395.2374</ele>
        <time>2023-07-07T15:48:13.000Z</time>
      </trkpt>
      <trkpt lat="45.77808" lon="4.65753">
        <ele>393.35162</ele>
        <time>2023-07-07T15:48:15.000Z</time>
      </trkpt>
      <trkpt lat="45.77807" lon="4.65751">
        <ele>393.42227</ele>
        <time>2023-07-07T15:48:27.000Z</time>
      </trkpt>
      <trkpt lat="45.77807" lon="4.65748">
        <ele>390.73926</ele>
        <time>2023-07-07T15:48:42.000Z</time>
      </trkpt>
      <trkpt lat="45.77807" lon="4.65745">
        <ele>390.6322</ele>
        <time>2023-07-07T15:48:44.000Z</time>
      </trkpt>
      <trkpt lat="45.77806" lon="4.65742">
        <ele>389.63602</ele>
        <time>2023-07-07T15:48:47.000Z</time>
      </trkpt>
      <trkpt lat="45.77805" lon="4.6574">
        <ele>390.44122</ele>
        <time>2023-07-07T15:48:48.000Z</time>
      </trkpt>
      <trkpt lat="45.77803" lon="4.65739">
        <ele>391.33408</ele>
        <time>2023-07-07T15:48:50.000Z</time>
      </trkpt>
      <trkpt lat="45.77802" lon="4.65737">
        <ele>389.69098</ele>
        <time>2023-07-07T15:48:53.000Z</time>
      </trkpt>
      <trkpt lat="45.778" lon="4.65734">
        <ele>389.17151</ele>
        <time>2023-07-07T15:48:55.000Z</time>
      </trkpt>
      <trkpt lat="45.77799" lon="4.65732">
        <ele>387.24945</ele>
        <time>2023-07-07T15:48:56.000Z</time>
      </trkpt>
      <trkpt lat="45.77797" lon="4.65729">
        <ele>386.68274</ele>
        <time>2023-07-07T15:48:58.000Z</time>
      </trkpt>
      <trkpt lat="45.77794" lon="4.65726">
        <ele>385.26242</ele>
        <time>2023-07-07T15:49:00.000Z</time>
      </trkpt>
      <trkpt lat="45.77792" lon="4.65725">
        <ele>383.81134</ele>
        <time>2023-07-07T15:49:01.000Z</time>
      </trkpt>
      <trkpt lat="45.77791" lon="4.65723">
        <ele>382.57126</ele>
        <time>2023-07-07T15:49:02.000Z</time>
      </trkpt>
      <trkpt lat="45.7779" lon="4.6572">
        <ele>382.677</ele>
        <time>2023-07-07T15:49:04.000Z</time>
      </trkpt>
      <trkpt lat="45.77786" lon="4.65717">
        <ele>384.36636</ele>
        <time>2023-07-07T15:49:06.000Z</time>
      </trkpt>
      <trkpt lat="45.77785" lon="4.65715">
        <ele>384.73557</ele>
        <time>2023-07-07T15:49:07.000Z</time>
      </trkpt>
      <trkpt lat="45.77782" lon="4.65713">
        <ele>385.03131</ele>
        <time>2023-07-07T15:49:09.000Z</time>
      </trkpt>
      <trkpt lat="45.77784" lon="4.6571">
        <ele>384.62054</ele>
        <time>2023-07-07T15:49:11.000Z</time>
      </trkpt>
      <trkpt lat="45.77785" lon="4.65707">
        <ele>383.72943</ele>
        <time>2023-07-07T15:49:12.000Z</time>
      </trkpt>
      <trkpt lat="45.77786" lon="4.65704">
        <ele>384.30997</ele>
        <time>2023-07-07T15:49:13.000Z</time>
      </trkpt>
      <trkpt lat="45.77785" lon="4.65701">
        <ele>381.99527</ele>
        <time>2023-07-07T15:49:15.000Z</time>
      </trkpt>
      <trkpt lat="45.77783" lon="4.65696">
        <ele>381.59946</ele>
        <time>2023-07-07T15:49:17.000Z</time>
      </trkpt>
      <trkpt lat="45.77783" lon="4.65694">
        <ele>379.79611</ele>
        <time>2023-07-07T15:49:18.000Z</time>
      </trkpt>
      <trkpt lat="45.77782" lon="4.65691">
        <ele>379.81378</ele>
        <time>2023-07-07T15:49:19.000Z</time>
      </trkpt>
      <trkpt lat="45.77782" lon="4.65688">
        <ele>380.80109</ele>
        <time>2023-07-07T15:49:20.000Z</time>
      </trkpt>
      <trkpt lat="45.77781" lon="4.65683">
        <ele>380.31909</ele>
        <time>2023-07-07T15:49:22.000Z</time>
      </trkpt>
      <trkpt lat="45.77779" lon="4.6568">
        <ele>380.95859</ele>
        <time>2023-07-07T15:49:23.000Z</time>
      </trkpt>
      <trkpt lat="45.77777" lon="4.65677">
        <ele>380.52197</ele>
        <time>2023-07-07T15:49:24.000Z</time>
      </trkpt>
      <trkpt lat="45.77774" lon="4.65673">
        <ele>380.07953</ele>
        <time>2023-07-07T15:49:25.000Z</time>
      </trkpt>
      <trkpt lat="45.77772" lon="4.6567">
        <ele>379.72101</ele>
        <time>2023-07-07T15:49:26.000Z</time>
      </trkpt>
      <trkpt lat="45.7777" lon="4.65668">
        <ele>380.48764</ele>
        <time>2023-07-07T15:49:27.000Z</time>
      </trkpt>
      <trkpt lat="45.77769" lon="4.65663">
        <ele>380.52573</ele>
        <time>2023-07-07T15:49:29.000Z</time>
      </trkpt>
      <trkpt lat="45.7777" lon="4.65658">
        <ele>379.91412</ele>
        <time>2023-07-07T15:49:30.000Z</time>
      </trkpt>
      <trkpt lat="45.7777" lon="4.65654">
        <ele>378.80063</ele>
        <time>2023-07-07T15:49:31.000Z</time>
      </trkpt>
      <trkpt lat="45.77769" lon="4.65651">
        <ele>377.49472</ele>
        <time>2023-07-07T15:49:32.000Z</time>
      </trkpt>
      <trkpt lat="45.77768" lon="4.65648">
        <ele>375.09311</ele>
        <time>2023-07-07T15:49:33.000Z</time>
      </trkpt>
      <trkpt lat="45.77767" lon="4.65645">
        <ele>372.39014</ele>
        <time>2023-07-07T15:49:34.000Z</time>
      </trkpt>
      <trkpt lat="45.77765" lon="4.65643">
        <ele>370.29791</ele>
        <time>2023-07-07T15:49:35.000Z</time>
      </trkpt>
      <trkpt lat="45.77764" lon="4.65639">
        <ele>368.30573</ele>
        <time>2023-07-07T15:49:36.000Z</time>
      </trkpt>
      <trkpt lat="45.77763" lon="4.65636">
        <ele>367.66458</ele>
        <time>2023-07-07T15:49:37.000Z</time>
      </trkpt>
      <trkpt lat="45.77762" lon="4.65631">
        <ele>368.13666</ele>
        <time>2023-07-07T15:49:39.000Z</time>
      </trkpt>
      <trkpt lat="45.77762" lon="4.65628">
        <ele>368.93085</ele>
        <time>2023-07-07T15:49:40.000Z</time>
      </trkpt>
      <trkpt lat="45.77762" lon="4.65624">
        <ele>370.51529</ele>
        <time>2023-07-07T15:49:41.000Z</time>
      </trkpt>
      <trkpt lat="45.77762" lon="4.65621">
        <ele>370.56476</ele>
        <time>2023-07-07T15:49:42.000Z</time>
      </trkpt>
      <trkpt lat="45.77762" lon="4.65618">
        <ele>370.82599</ele>
        <time>2023-07-07T15:49:43.000Z</time>
      </trkpt>
      <trkpt lat="45.77762" lon="4.65613">
        <ele>371.21133</ele>
        <time>2023-07-07T15:49:45.000Z</time>
      </trkpt>
      <trkpt lat="45.77762" lon="4.6561">
        <ele>370.53989</ele>
        <time>2023-07-07T15:49:46.000Z</time>
      </trkpt>
      <trkpt lat="45.77761" lon="4.65605">
        <ele>369.54916</ele>
        <time>2023-07-07T15:49:47.000Z</time>
      </trkpt>
      <trkpt lat="45.77761" lon="4.65602">
        <ele>370.26294</ele>
        <time>2023-07-07T15:49:48.000Z</time>
      </trkpt>
      <trkpt lat="45.7776" lon="4.65597">
        <ele>369.67902</ele>
        <time>2023-07-07T15:49:50.000Z</time>
      </trkpt>
      <trkpt lat="45.77758" lon="4.65593">
        <ele>368.96768</ele>
        <time>2023-07-07T15:49:52.000Z</time>
      </trkpt>
      <trkpt lat="45.77756" lon="4.6559">
        <ele>368.67743</ele>
        <time>2023-07-07T15:49:54.000Z</time>
      </trkpt>
      <trkpt lat="45.77756" lon="4.65587">
        <ele>370.53275</ele>
        <time>2023-07-07T15:49:55.000Z</time>
      </trkpt>
      <trkpt lat="45.77756" lon="4.65584">
        <ele>371.39478</ele>
        <time>2023-07-07T15:49:56.000Z</time>
      </trkpt>
      <trkpt lat="45.77756" lon="4.65581">
        <ele>372.16541</ele>
        <time>2023-07-07T15:49:57.000Z</time>
      </trkpt>
      <trkpt lat="45.77757" lon="4.65576">
        <ele>373.75116</ele>
        <time>2023-07-07T15:49:59.000Z</time>
      </trkpt>
      <trkpt lat="45.77757" lon="4.65573">
        <ele>375.9556</ele>
        <time>2023-07-07T15:50:01.000Z</time>
      </trkpt>
      <trkpt lat="45.77757" lon="4.65569">
        <ele>377.9104</ele>
        <time>2023-07-07T15:50:02.000Z</time>
      </trkpt>
      <trkpt lat="45.77757" lon="4.65566">
        <ele>379.0412</ele>
        <time>2023-07-07T15:50:03.000Z</time>
      </trkpt>
      <trkpt lat="45.77758" lon="4.65561">
        <ele>379.00677</ele>
        <time>2023-07-07T15:50:05.000Z</time>
      </trkpt>
      <trkpt lat="45.77758" lon="4.65556">
        <ele>378.71265</ele>
        <time>2023-07-07T15:50:07.000Z</time>
      </trkpt>
      <trkpt lat="45.77758" lon="4.65553">
        <ele>378.38647</ele>
        <time>2023-07-07T15:50:08.000Z</time>
      </trkpt>
      <trkpt lat="45.77757" lon="4.6555">
        <ele>377.98773</ele>
        <time>2023-07-07T15:50:09.000Z</time>
      </trkpt>
      <trkpt lat="45.77757" lon="4.65546">
        <ele>378.92139</ele>
        <time>2023-07-07T15:50:10.000Z</time>
      </trkpt>
      <trkpt lat="45.77757" lon="4.65542">
        <ele>379.64124</ele>
        <time>2023-07-07T15:50:12.000Z</time>
      </trkpt>
      <trkpt lat="45.77758" lon="4.65537">
        <ele>380.46033</ele>
        <time>2023-07-07T15:50:14.000Z</time>
      </trkpt>
      <trkpt lat="45.77758" lon="4.65533">
        <ele>382.2529</ele>
        <time>2023-07-07T15:50:15.000Z</time>
      </trkpt>
      <trkpt lat="45.77758" lon="4.65529">
        <ele>384.33945</ele>
        <time>2023-07-07T15:50:17.000Z</time>
      </trkpt>
      <trkpt lat="45.77761" lon="4.65525">
        <ele>385.63907</ele>
        <time>2023-07-07T15:50:19.000Z</time>
      </trkpt>
      <trkpt lat="45.77762" lon="4.65521">
        <ele>387.82474</ele>
        <time>2023-07-07T15:50:21.000Z</time>
      </trkpt>
      <trkpt lat="45.77763" lon="4.65519">
        <ele>389.13785</ele>
        <time>2023-07-07T15:50:22.000Z</time>
      </trkpt>
      <trkpt lat="45.77765" lon="4.65517">
        <ele>390.63239</ele>
        <time>2023-07-07T15:50:23.000Z</time>
      </trkpt>
      <trkpt lat="45.77767" lon="4.65516">
        <ele>391.01541</ele>
        <time>2023-07-07T15:50:24.000Z</time>
      </trkpt>
      <trkpt lat="45.77769" lon="4.65515">
        <ele>392.03955</ele>
        <time>2023-07-07T15:50:26.000Z</time>
      </trkpt>
      <trkpt lat="45.77772" lon="4.65513">
        <ele>391.93085</ele>
        <time>2023-07-07T15:50:28.000Z</time>
      </trkpt>
      <trkpt lat="45.77774" lon="4.6551">
        <ele>394.10419</ele>
        <time>2023-07-07T15:50:30.000Z</time>
      </trkpt>
      <trkpt lat="45.77777" lon="4.65507">
        <ele>394.26364</ele>
        <time>2023-07-07T15:50:32.000Z</time>
      </trkpt>
      <trkpt lat="45.77778" lon="4.65505">
        <ele>394.48471</ele>
        <time>2023-07-07T15:50:33.000Z</time>
      </trkpt>
      <trkpt lat="45.77779" lon="4.65503">
        <ele>395.99066</ele>
        <time>2023-07-07T15:50:34.000Z</time>
      </trkpt>
      <trkpt lat="45.7778" lon="4.655">
        <ele>397.10638</ele>
        <time>2023-07-07T15:50:35.000Z</time>
      </trkpt>
      <trkpt lat="45.77782" lon="4.65497">
        <ele>398.46841</ele>
        <time>2023-07-07T15:50:36.000Z</time>
      </trkpt>
      <trkpt lat="45.77783" lon="4.65494">
        <ele>400.15738</ele>
        <time>2023-07-07T15:50:37.000Z</time>
      </trkpt>
      <trkpt lat="45.77783" lon="4.65492">
        <ele>401.14008</ele>
        <time>2023-07-07T15:50:38.000Z</time>
      </trkpt>
      <trkpt lat="45.77783" lon="4.65489">
        <ele>400.80902</ele>
        <time>2023-07-07T15:50:39.000Z</time>
      </trkpt>
      <trkpt lat="45.77784" lon="4.65486">
        <ele>400.83627</ele>
        <time>2023-07-07T15:50:40.000Z</time>
      </trkpt>
      <trkpt lat="45.77784" lon="4.65483">
        <ele>400.63361</ele>
        <time>2023-07-07T15:50:41.000Z</time>
      </trkpt>
      <trkpt lat="45.77785" lon="4.6548">
        <ele>400.52823</ele>
        <time>2023-07-07T15:50:43.000Z</time>
      </trkpt>
      <trkpt lat="45.77786" lon="4.65478">
        <ele>401.73758</ele>
        <time>2023-07-07T15:50:44.000Z</time>
      </trkpt>
      <trkpt lat="45.77787" lon="4.65474">
        <ele>402.17963</ele>
        <time>2023-07-07T15:50:46.000Z</time>
      </trkpt>
      <trkpt lat="45.77788" lon="4.65472">
        <ele>402.98941</ele>
        <time>2023-07-07T15:50:47.000Z</time>
      </trkpt>
      <trkpt lat="45.7779" lon="4.65469">
        <ele>404.66547</ele>
        <time>2023-07-07T15:50:48.000Z</time>
      </trkpt>
      <trkpt lat="45.77791" lon="4.65467">
        <ele>405.66885</ele>
        <time>2023-07-07T15:50:49.000Z</time>
      </trkpt>
      <trkpt lat="45.77792" lon="4.65464">
        <ele>406.11627</ele>
        <time>2023-07-07T15:50:50.000Z</time>
      </trkpt>
      <trkpt lat="45.77792" lon="4.6546">
        <ele>407.12613</ele>
        <time>2023-07-07T15:50:52.000Z</time>
      </trkpt>
      <trkpt lat="45.77793" lon="4.65455">
        <ele>408.1778</ele>
        <time>2023-07-07T15:50:54.000Z</time>
      </trkpt>
      <trkpt lat="45.77794" lon="4.65453">
        <ele>407.80865</ele>
        <time>2023-07-07T15:50:55.000Z</time>
      </trkpt>
      <trkpt lat="45.77795" lon="4.6545">
        <ele>409.36594</ele>
        <time>2023-07-07T15:50:56.000Z</time>
      </trkpt>
      <trkpt lat="45.77797" lon="4.65448">
        <ele>410.76849</ele>
        <time>2023-07-07T15:50:57.000Z</time>
      </trkpt>
      <trkpt lat="45.77799" lon="4.65446">
        <ele>411.22345</ele>
        <time>2023-07-07T15:50:58.000Z</time>
      </trkpt>
      <trkpt lat="45.77801" lon="4.65443">
        <ele>411.8837</ele>
        <time>2023-07-07T15:50:59.000Z</time>
      </trkpt>
      <trkpt lat="45.77803" lon="4.6544">
        <ele>412.49326</ele>
        <time>2023-07-07T15:51:00.000Z</time>
      </trkpt>
      <trkpt lat="45.77805" lon="4.65437">
        <ele>412.79898</ele>
        <time>2023-07-07T15:51:01.000Z</time>
      </trkpt>
      <trkpt lat="45.77806" lon="4.65434">
        <ele>413.53687</ele>
        <time>2023-07-07T15:51:02.000Z</time>
      </trkpt>
      <trkpt lat="45.77808" lon="4.6543">
        <ele>412.13077</ele>
        <time>2023-07-07T15:51:04.000Z</time>
      </trkpt>
      <trkpt lat="45.7781" lon="4.65428">
        <ele>412.30048</ele>
        <time>2023-07-07T15:51:05.000Z</time>
      </trkpt>
      <trkpt lat="45.77813" lon="4.65426">
        <ele>411.92075</ele>
        <time>2023-07-07T15:51:06.000Z</time>
      </trkpt>
      <trkpt lat="45.77814" lon="4.65424">
        <ele>411.32123</ele>
        <time>2023-07-07T15:51:07.000Z</time>
      </trkpt>
      <trkpt lat="45.77816" lon="4.65423">
        <ele>409.2009</ele>
        <time>2023-07-07T15:51:08.000Z</time>
      </trkpt>
      <trkpt lat="45.77818" lon="4.65421">
        <ele>408.64325</ele>
        <time>2023-07-07T15:51:09.000Z</time>
      </trkpt>
      <trkpt lat="45.7782" lon="4.65419">
        <ele>406.56213</ele>
        <time>2023-07-07T15:51:10.000Z</time>
      </trkpt>
      <trkpt lat="45.77821" lon="4.65419">
        <ele>404.49438</ele>
        <time>2023-07-07T15:51:11.000Z</time>
      </trkpt>
      <trkpt lat="45.77823" lon="4.65418">
        <ele>403.7728</ele>
        <time>2023-07-07T15:51:12.000Z</time>
      </trkpt>
      <trkpt lat="45.77826" lon="4.65416">
        <ele>403.18759</ele>
        <time>2023-07-07T15:51:14.000Z</time>
      </trkpt>
      <trkpt lat="45.77828" lon="4.65413">
        <ele>401.89276</ele>
        <time>2023-07-07T15:51:15.000Z</time>
      </trkpt>
      <trkpt lat="45.7783" lon="4.6541">
        <ele>400.5961</ele>
        <time>2023-07-07T15:51:16.000Z</time>
      </trkpt>
      <trkpt lat="45.77831" lon="4.65406">
        <ele>399.09744</ele>
        <time>2023-07-07T15:51:17.000Z</time>
      </trkpt>
      <trkpt lat="45.77832" lon="4.65403">
        <ele>397.34271</ele>
        <time>2023-07-07T15:51:18.000Z</time>
      </trkpt>
      <trkpt lat="45.77833" lon="4.65399">
        <ele>395.19888</ele>
        <time>2023-07-07T15:51:19.000Z</time>
      </trkpt>
      <trkpt lat="45.77834" lon="4.65395">
        <ele>393.54263</ele>
        <time>2023-07-07T15:51:20.000Z</time>
      </trkpt>
      <trkpt lat="45.77835" lon="4.6539">
        <ele>391.74716</ele>
        <time>2023-07-07T15:51:21.000Z</time>
      </trkpt>
      <trkpt lat="45.77836" lon="4.65387">
        <ele>390.19525</ele>
        <time>2023-07-07T15:51:22.000Z</time>
      </trkpt>
      <trkpt lat="45.77837" lon="4.65384">
        <ele>388.89838</ele>
        <time>2023-07-07T15:51:23.000Z</time>
      </trkpt>
      <trkpt lat="45.77838" lon="4.65381">
        <ele>387.90491</ele>
        <time>2023-07-07T15:51:24.000Z</time>
      </trkpt>
      <trkpt lat="45.77839" lon="4.65377">
        <ele>388.97687</ele>
        <time>2023-07-07T15:51:26.000Z</time>
      </trkpt>
      <trkpt lat="45.77839" lon="4.65373">
        <ele>389.34692</ele>
        <time>2023-07-07T15:51:28.000Z</time>
      </trkpt>
      <trkpt lat="45.7784" lon="4.65368">
        <ele>389.00305</ele>
        <time>2023-07-07T15:51:30.000Z</time>
      </trkpt>
      <trkpt lat="45.7784" lon="4.65364">
        <ele>388.80499</ele>
        <time>2023-07-07T15:51:31.000Z</time>
      </trkpt>
      <trkpt lat="45.77839" lon="4.65361">
        <ele>388.97473</ele>
        <time>2023-07-07T15:51:32.000Z</time>
      </trkpt>
      <trkpt lat="45.77839" lon="4.65357">
        <ele>388.68936</ele>
        <time>2023-07-07T15:51:33.000Z</time>
      </trkpt>
      <trkpt lat="45.77838" lon="4.65353">
        <ele>387.8537</ele>
        <time>2023-07-07T15:51:34.000Z</time>
      </trkpt>
      <trkpt lat="45.77838" lon="4.65349">
        <ele>388.83832</ele>
        <time>2023-07-07T15:51:36.000Z</time>
      </trkpt>
      <trkpt lat="45.77838" lon="4.65346">
        <ele>388.71021</ele>
        <time>2023-07-07T15:51:37.000Z</time>
      </trkpt>
      <trkpt lat="45.77838" lon="4.65343">
        <ele>388.76596</ele>
        <time>2023-07-07T15:51:38.000Z</time>
      </trkpt>
      <trkpt lat="45.77838" lon="4.65339">
        <ele>389.33478</ele>
        <time>2023-07-07T15:51:39.000Z</time>
      </trkpt>
      <trkpt lat="45.77839" lon="4.65335">
        <ele>389.66885</ele>
        <time>2023-07-07T15:51:40.000Z</time>
      </trkpt>
      <trkpt lat="45.77839" lon="4.65332">
        <ele>389.11658</ele>
        <time>2023-07-07T15:51:41.000Z</time>
      </trkpt>
      <trkpt lat="45.7784" lon="4.65329">
        <ele>388.38467</ele>
        <time>2023-07-07T15:51:42.000Z</time>
      </trkpt>
      <trkpt lat="45.77841" lon="4.65327">
        <ele>388.06122</ele>
        <time>2023-07-07T15:51:43.000Z</time>
      </trkpt>
      <trkpt lat="45.77842" lon="4.65324">
        <ele>388.60675</ele>
        <time>2023-07-07T15:51:44.000Z</time>
      </trkpt>
      <trkpt lat="45.77843" lon="4.65322">
        <ele>389.27139</ele>
        <time>2023-07-07T15:51:45.000Z</time>
      </trkpt>
      <trkpt lat="45.77844" lon="4.65319">
        <ele>388.27756</ele>
        <time>2023-07-07T15:51:46.000Z</time>
      </trkpt>
      <trkpt lat="45.77843" lon="4.65315">
        <ele>387.60477</ele>
        <time>2023-07-07T15:51:48.000Z</time>
      </trkpt>
      <trkpt lat="45.77841" lon="4.65313">
        <ele>386.78336</ele>
        <time>2023-07-07T15:51:50.000Z</time>
      </trkpt>
      <trkpt lat="45.77841" lon="4.65309">
        <ele>386.99628</ele>
        <time>2023-07-07T15:51:55.000Z</time>
      </trkpt>
      <trkpt lat="45.77842" lon="4.65306">
        <ele>386.3782</ele>
        <time>2023-07-07T15:51:56.000Z</time>
      </trkpt>
      <trkpt lat="45.77842" lon="4.65304">
        <ele>387.69281</ele>
        <time>2023-07-07T15:51:57.000Z</time>
      </trkpt>
      <trkpt lat="45.77843" lon="4.65301">
        <ele>388.82941</ele>
        <time>2023-07-07T15:51:59.000Z</time>
      </trkpt>
      <trkpt lat="45.77843" lon="4.65299">
        <ele>389.41617</ele>
        <time>2023-07-07T15:52:02.000Z</time>
      </trkpt>
      <trkpt lat="45.77844" lon="4.65295">
        <ele>389.64313</ele>
        <time>2023-07-07T15:52:04.000Z</time>
      </trkpt>
      <trkpt lat="45.77842" lon="4.65291">
        <ele>390.62656</ele>
        <time>2023-07-07T15:52:06.000Z</time>
      </trkpt>
      <trkpt lat="45.77841" lon="4.65289">
        <ele>392.1062</ele>
        <time>2023-07-07T15:52:10.000Z</time>
      </trkpt>
      <trkpt lat="45.77841" lon="4.65286">
        <ele>395.34665</ele>
        <time>2023-07-07T15:52:30.000Z</time>
      </trkpt>
      <trkpt lat="45.7784" lon="4.65284">
        <ele>400.10074</ele>
        <time>2023-07-07T15:53:04.000Z</time>
      </trkpt>
      <trkpt lat="45.77839" lon="4.65281">
        <ele>400.27115</ele>
        <time>2023-07-07T15:53:06.000Z</time>
      </trkpt>
      <trkpt lat="45.77838" lon="4.65279">
        <ele>400.59363</ele>
        <time>2023-07-07T15:53:07.000Z</time>
      </trkpt>
      <trkpt lat="45.77837" lon="4.65275">
        <ele>401.54584</ele>
        <time>2023-07-07T15:53:08.000Z</time>
      </trkpt>
      <trkpt lat="45.77836" lon="4.65272">
        <ele>402.84729</ele>
        <time>2023-07-07T15:53:09.000Z</time>
      </trkpt>
      <trkpt lat="45.77834" lon="4.65268">
        <ele>407.05096</ele>
        <time>2023-07-07T15:53:11.000Z</time>
      </trkpt>
      <trkpt lat="45.77833" lon="4.65265">
        <ele>409.03598</ele>
        <time>2023-07-07T15:53:12.000Z</time>
      </trkpt>
      <trkpt lat="45.77832" lon="4.6526">
        <ele>411.5014</ele>
        <time>2023-07-07T15:53:14.000Z</time>
      </trkpt>
      <trkpt lat="45.77832" lon="4.65257">
        <ele>415.51367</ele>
        <time>2023-07-07T15:53:15.000Z</time>
      </trkpt>
      <trkpt lat="45.77831" lon="4.65254">
        <ele>417.63437</ele>
        <time>2023-07-07T15:53:16.000Z</time>
      </trkpt>
      <trkpt lat="45.7783" lon="4.65251">
        <ele>420.94269</ele>
        <time>2023-07-07T15:53:17.000Z</time>
      </trkpt>
      <trkpt lat="45.77829" lon="4.65247">
        <ele>422.58197</ele>
        <time>2023-07-07T15:53:18.000Z</time>
      </trkpt>
      <trkpt lat="45.77827" lon="4.65244">
        <ele>423.74893</ele>
        <time>2023-07-07T15:53:19.000Z</time>
      </trkpt>
      <trkpt lat="45.77826" lon="4.65242">
        <ele>424.30353</ele>
        <time>2023-07-07T15:53:20.000Z</time>
      </trkpt>
      <trkpt lat="45.77825" lon="4.6524">
        <ele>425.14801</ele>
        <time>2023-07-07T15:53:21.000Z</time>
      </trkpt>
      <trkpt lat="45.77824" lon="4.65237">
        <ele>426.41617</ele>
        <time>2023-07-07T15:53:22.000Z</time>
      </trkpt>
      <trkpt lat="45.77822" lon="4.65233">
        <ele>429.26791</ele>
        <time>2023-07-07T15:53:24.000Z</time>
      </trkpt>
      <trkpt lat="45.77822" lon="4.6523">
        <ele>431.24911</ele>
        <time>2023-07-07T15:53:26.000Z</time>
      </trkpt>
      <trkpt lat="45.77821" lon="4.65226">
        <ele>432.32159</ele>
        <time>2023-07-07T15:53:28.000Z</time>
      </trkpt>
      <trkpt lat="45.7782" lon="4.65224">
        <ele>429.89926</ele>
        <time>2023-07-07T15:53:29.000Z</time>
      </trkpt>
      <trkpt lat="45.7782" lon="4.65221">
        <ele>426.74106</ele>
        <time>2023-07-07T15:53:30.000Z</time>
      </trkpt>
      <trkpt lat="45.7782" lon="4.65219">
        <ele>428.07309</ele>
        <time>2023-07-07T15:53:31.000Z</time>
      </trkpt>
      <trkpt lat="45.7782" lon="4.65215">
        <ele>430.33432</ele>
        <time>2023-07-07T15:53:33.000Z</time>
      </trkpt>
      <trkpt lat="45.77819" lon="4.65212">
        <ele>434.54019</ele>
        <time>2023-07-07T15:53:40.000Z</time>
      </trkpt>
      <trkpt lat="45.77818" lon="4.65212">
        <ele>442.0455</ele>
        <time>2023-07-07T15:54:24.000Z</time>
      </trkpt>
      <trkpt lat="45.77816" lon="4.6521">
        <ele>446.73822</ele>
        <time>2023-07-07T15:54:39.000Z</time>
      </trkpt>
      <trkpt lat="45.77815" lon="4.65205">
        <ele>447.68707</ele>
        <time>2023-07-07T15:54:41.000Z</time>
      </trkpt>
      <trkpt lat="45.77814" lon="4.65202">
        <ele>448.17569</ele>
        <time>2023-07-07T15:54:42.000Z</time>
      </trkpt>
      <trkpt lat="45.77814" lon="4.65199">
        <ele>448.52377</ele>
        <time>2023-07-07T15:54:43.000Z</time>
      </trkpt>
      <trkpt lat="45.77813" lon="4.65196">
        <ele>450.17426</ele>
        <time>2023-07-07T15:54:44.000Z</time>
      </trkpt>
      <trkpt lat="45.77813" lon="4.65193">
        <ele>455.11578</ele>
        <time>2023-07-07T15:54:45.000Z</time>
      </trkpt>
      <trkpt lat="45.77812" lon="4.6519">
        <ele>456.29648</ele>
        <time>2023-07-07T15:54:46.000Z</time>
      </trkpt>
      <trkpt lat="45.77812" lon="4.65187">
        <ele>457.98224</ele>
        <time>2023-07-07T15:54:47.000Z</time>
      </trkpt>
      <trkpt lat="45.77811" lon="4.65183">
        <ele>459.69391</ele>
        <time>2023-07-07T15:54:48.000Z</time>
      </trkpt>
      <trkpt lat="45.77811" lon="4.6518">
        <ele>461.46344</ele>
        <time>2023-07-07T15:54:49.000Z</time>
      </trkpt>
      <trkpt lat="45.77811" lon="4.65177">
        <ele>463.27921</ele>
        <time>2023-07-07T15:54:50.000Z</time>
      </trkpt>
      <trkpt lat="45.7781" lon="4.65173">
        <ele>467.9357</ele>
        <time>2023-07-07T15:54:51.000Z</time>
      </trkpt>
      <trkpt lat="45.7781" lon="4.6517">
        <ele>470.86441</ele>
        <time>2023-07-07T15:54:52.000Z</time>
      </trkpt>
      <trkpt lat="45.77811" lon="4.65166">
        <ele>472.53632</ele>
        <time>2023-07-07T15:54:53.000Z</time>
      </trkpt>
      <trkpt lat="45.77811" lon="4.65163">
        <ele>476.40591</ele>
        <time>2023-07-07T15:54:54.000Z</time>
      </trkpt>
      <trkpt lat="45.77811" lon="4.6516">
        <ele>479.77118</ele>
        <time>2023-07-07T15:54:55.000Z</time>
      </trkpt>
      <trkpt lat="45.77811" lon="4.65157">
        <ele>483.6037</ele>
        <time>2023-07-07T15:54:56.000Z</time>
      </trkpt>
      <trkpt lat="45.7781" lon="4.65154">
        <ele>486.39087</ele>
        <time>2023-07-07T15:54:57.000Z</time>
      </trkpt>
      <trkpt lat="45.77809" lon="4.6515">
        <ele>487.15216</ele>
        <time>2023-07-07T15:54:58.000Z</time>
      </trkpt>
      <trkpt lat="45.77809" lon="4.65147">
        <ele>484.62665</ele>
        <time>2023-07-07T15:54:59.000Z</time>
      </trkpt>
      <trkpt lat="45.77808" lon="4.65143">
        <ele>482.18961</ele>
        <time>2023-07-07T15:55:00.000Z</time>
      </trkpt>
      <trkpt lat="45.77807" lon="4.6514">
        <ele>485.07114</ele>
        <time>2023-07-07T15:55:01.000Z</time>
      </trkpt>
      <trkpt lat="45.77807" lon="4.65136">
        <ele>487.05695</ele>
        <time>2023-07-07T15:55:03.000Z</time>
      </trkpt>
      <trkpt lat="45.77806" lon="4.65132">
        <ele>488.927</ele>
        <time>2023-07-07T15:55:05.000Z</time>
      </trkpt>
      <trkpt lat="45.77805" lon="4.65129">
        <ele>489.66724</ele>
        <time>2023-07-07T15:55:06.000Z</time>
      </trkpt>
      <trkpt lat="45.77804" lon="4.65127">
        <ele>486.03116</ele>
        <time>2023-07-07T15:55:07.000Z</time>
      </trkpt>
      <trkpt lat="45.77803" lon="4.65124">
        <ele>486.74844</ele>
        <time>2023-07-07T15:55:08.000Z</time>
      </trkpt>
      <trkpt lat="45.77802" lon="4.65121">
        <ele>488.271</ele>
        <time>2023-07-07T15:55:09.000Z</time>
      </trkpt>
      <trkpt lat="45.778" lon="4.65118">
        <ele>489.78546</ele>
        <time>2023-07-07T15:55:10.000Z</time>
      </trkpt>
      <trkpt lat="45.77798" lon="4.65116">
        <ele>491.28998</ele>
        <time>2023-07-07T15:55:11.000Z</time>
      </trkpt>
      <trkpt lat="45.77797" lon="4.65114">
        <ele>492.76987</ele>
        <time>2023-07-07T15:55:12.000Z</time>
      </trkpt>
      <trkpt lat="45.77795" lon="4.65112">
        <ele>490.13876</ele>
        <time>2023-07-07T15:55:13.000Z</time>
      </trkpt>
      <trkpt lat="45.77795" lon="4.65108">
        <ele>490.13281</ele>
        <time>2023-07-07T15:55:14.000Z</time>
      </trkpt>
      <trkpt lat="45.77794" lon="4.65104">
        <ele>489.83783</ele>
        <time>2023-07-07T15:55:15.000Z</time>
      </trkpt>
      <trkpt lat="45.77794" lon="4.651">
        <ele>488.98773</ele>
        <time>2023-07-07T15:55:16.000Z</time>
      </trkpt>
      <trkpt lat="45.77792" lon="4.65094">
        <ele>488.07098</ele>
        <time>2023-07-07T15:55:17.000Z</time>
      </trkpt>
      <trkpt lat="45.77789" lon="4.65088">
        <ele>486.71103</ele>
        <time>2023-07-07T15:55:18.000Z</time>
      </trkpt>
      <trkpt lat="45.77788" lon="4.65081">
        <ele>485.9213</ele>
        <time>2023-07-07T15:55:19.000Z</time>
      </trkpt>
      <trkpt lat="45.77787" lon="4.65076">
        <ele>484.17072</ele>
        <time>2023-07-07T15:55:20.000Z</time>
      </trkpt>
      <trkpt lat="45.77786" lon="4.65071">
        <ele>482.76083</ele>
        <time>2023-07-07T15:55:21.000Z</time>
      </trkpt>
      <trkpt lat="45.77786" lon="4.65066">
        <ele>481.08267</ele>
        <time>2023-07-07T15:55:22.000Z</time>
      </trkpt>
      <trkpt lat="45.77786" lon="4.65062">
        <ele>479.4545</ele>
        <time>2023-07-07T15:55:23.000Z</time>
      </trkpt>
      <trkpt lat="45.77786" lon="4.65058">
        <ele>478.63495</ele>
        <time>2023-07-07T15:55:24.000Z</time>
      </trkpt>
      <trkpt lat="45.77787" lon="4.65054">
        <ele>478.15082</ele>
        <time>2023-07-07T15:55:25.000Z</time>
      </trkpt>
      <trkpt lat="45.77789" lon="4.65048">
        <ele>478.89194</ele>
        <time>2023-07-07T15:55:26.000Z</time>
      </trkpt>
      <trkpt lat="45.7779" lon="4.65043">
        <ele>479.39771</ele>
        <time>2023-07-07T15:55:27.000Z</time>
      </trkpt>
      <trkpt lat="45.77791" lon="4.65038">
        <ele>480.06403</ele>
        <time>2023-07-07T15:55:28.000Z</time>
      </trkpt>
      <trkpt lat="45.7779" lon="4.65034">
        <ele>480.14249</ele>
        <time>2023-07-07T15:55:29.000Z</time>
      </trkpt>
      <trkpt lat="45.7779" lon="4.65029">
        <ele>480.10507</ele>
        <time>2023-07-07T15:55:30.000Z</time>
      </trkpt>
      <trkpt lat="45.7779" lon="4.65024">
        <ele>480.62677</ele>
        <time>2023-07-07T15:55:31.000Z</time>
      </trkpt>
      <trkpt lat="45.77789" lon="4.65021">
        <ele>481.49527</ele>
        <time>2023-07-07T15:55:33.000Z</time>
      </trkpt>
      <trkpt lat="45.77789" lon="4.65019">
        <ele>482.29156</ele>
        <time>2023-07-07T15:55:34.000Z</time>
      </trkpt>
      <trkpt lat="45.7779" lon="4.65016">
        <ele>482.03036</ele>
        <time>2023-07-07T15:55:37.000Z</time>
      </trkpt>
      <trkpt lat="45.7779" lon="4.65012">
        <ele>481.80524</ele>
        <time>2023-07-07T15:55:40.000Z</time>
      </trkpt>
      <trkpt lat="45.77789" lon="4.65009">
        <ele>485.5892</ele>
        <time>2023-07-07T15:56:11.000Z</time>
      </trkpt>
      <trkpt lat="45.77789" lon="4.65005">
        <ele>485.92514</ele>
        <time>2023-07-07T15:56:12.000Z</time>
      </trkpt>
      <trkpt lat="45.77789" lon="4.65001">
        <ele>486.41177</ele>
        <time>2023-07-07T15:56:13.000Z</time>
      </trkpt>
      <trkpt lat="45.77789" lon="4.64998">
        <ele>486.46021</ele>
        <time>2023-07-07T15:56:14.000Z</time>
      </trkpt>
      <trkpt lat="45.77789" lon="4.64994">
        <ele>487.53696</ele>
        <time>2023-07-07T15:56:15.000Z</time>
      </trkpt>
      <trkpt lat="45.77788" lon="4.6499">
        <ele>488.26654</ele>
        <time>2023-07-07T15:56:16.000Z</time>
      </trkpt>
      <trkpt lat="45.77788" lon="4.64986">
        <ele>492.14542</ele>
        <time>2023-07-07T15:56:17.000Z</time>
      </trkpt>
      <trkpt lat="45.77788" lon="4.64982">
        <ele>493.16241</ele>
        <time>2023-07-07T15:56:18.000Z</time>
      </trkpt>
      <trkpt lat="45.77789" lon="4.64978">
        <ele>494.26987</ele>
        <time>2023-07-07T15:56:20.000Z</time>
      </trkpt>
      <trkpt lat="45.7779" lon="4.64973">
        <ele>495.18863</ele>
        <time>2023-07-07T15:56:22.000Z</time>
      </trkpt>
      <trkpt lat="45.77792" lon="4.64969">
        <ele>493.02808</ele>
        <time>2023-07-07T15:56:23.000Z</time>
      </trkpt>
      <trkpt lat="45.77794" lon="4.64965">
        <ele>492.7142</ele>
        <time>2023-07-07T15:56:24.000Z</time>
      </trkpt>
      <trkpt lat="45.77795" lon="4.6496">
        <ele>493.21051</ele>
        <time>2023-07-07T15:56:25.000Z</time>
      </trkpt>
      <trkpt lat="45.77795" lon="4.64956">
        <ele>492.24609</ele>
        <time>2023-07-07T15:56:26.000Z</time>
      </trkpt>
      <trkpt lat="45.77796" lon="4.64951">
        <ele>491.19507</ele>
        <time>2023-07-07T15:56:27.000Z</time>
      </trkpt>
      <trkpt lat="45.77796" lon="4.64948">
        <ele>490.7439</ele>
        <time>2023-07-07T15:56:28.000Z</time>
      </trkpt>
      <trkpt lat="45.77797" lon="4.64944">
        <ele>489.85953</ele>
        <time>2023-07-07T15:56:29.000Z</time>
      </trkpt>
      <trkpt lat="45.77797" lon="4.64941">
        <ele>489.20825</ele>
        <time>2023-07-07T15:56:30.000Z</time>
      </trkpt>
      <trkpt lat="45.77797" lon="4.64938">
        <ele>489.5437</ele>
        <time>2023-07-07T15:56:31.000Z</time>
      </trkpt>
      <trkpt lat="45.77798" lon="4.64935">
        <ele>489.91937</ele>
        <time>2023-07-07T15:56:32.000Z</time>
      </trkpt>
      <trkpt lat="45.77798" lon="4.64932">
        <ele>484.17392</ele>
        <time>2023-07-07T15:56:33.000Z</time>
      </trkpt>
      <trkpt lat="45.77798" lon="4.6493">
        <ele>484.10318</ele>
        <time>2023-07-07T15:56:34.000Z</time>
      </trkpt>
      <trkpt lat="45.77798" lon="4.64927">
        <ele>484.01212</ele>
        <time>2023-07-07T15:56:35.000Z</time>
      </trkpt>
      <trkpt lat="45.77797" lon="4.64924">
        <ele>483.89209</ele>
        <time>2023-07-07T15:56:36.000Z</time>
      </trkpt>
      <trkpt lat="45.77796" lon="4.64921">
        <ele>483.76367</ele>
        <time>2023-07-07T15:56:37.000Z</time>
      </trkpt>
      <trkpt lat="45.77796" lon="4.64917">
        <ele>481.75873</ele>
        <time>2023-07-07T15:56:39.000Z</time>
      </trkpt>
      <trkpt lat="45.77798" lon="4.64915">
        <ele>477.46841</ele>
        <time>2023-07-07T15:56:41.000Z</time>
      </trkpt>
      <trkpt lat="45.77798" lon="4.64912">
        <ele>477.0838</ele>
        <time>2023-07-07T15:56:45.000Z</time>
      </trkpt>
      <trkpt lat="45.77799" lon="4.64909">
        <ele>477.33041</ele>
        <time>2023-07-07T15:56:47.000Z</time>
      </trkpt>
      <trkpt lat="45.77799" lon="4.64906">
        <ele>476.48346</ele>
        <time>2023-07-07T15:56:49.000Z</time>
      </trkpt>
      <trkpt lat="45.77798" lon="4.64902">
        <ele>479.32291</ele>
        <time>2023-07-07T15:56:52.000Z</time>
      </trkpt>
      <trkpt lat="45.77797" lon="4.649">
        <ele>480.41318</ele>
        <time>2023-07-07T15:56:55.000Z</time>
      </trkpt>
      <trkpt lat="45.77797" lon="4.64895">
        <ele>479.66089</ele>
        <time>2023-07-07T15:56:58.000Z</time>
      </trkpt>
      <trkpt lat="45.77798" lon="4.6489">
        <ele>480.19247</ele>
        <time>2023-07-07T15:57:00.000Z</time>
      </trkpt>
      <trkpt lat="45.77798" lon="4.64886">
        <ele>480.87695</ele>
        <time>2023-07-07T15:57:01.000Z</time>
      </trkpt>
      <trkpt lat="45.77798" lon="4.64882">
        <ele>480.36102</ele>
        <time>2023-07-07T15:57:02.000Z</time>
      </trkpt>
      <trkpt lat="45.77798" lon="4.64878">
        <ele>479.24677</ele>
        <time>2023-07-07T15:57:04.000Z</time>
      </trkpt>
      <trkpt lat="45.77798" lon="4.64875">
        <ele>478.71616</ele>
        <time>2023-07-07T15:57:05.000Z</time>
      </trkpt>
      <trkpt lat="45.77798" lon="4.64872">
        <ele>478.19156</ele>
        <time>2023-07-07T15:57:06.000Z</time>
      </trkpt>
      <trkpt lat="45.77799" lon="4.64868">
        <ele>476.26157</ele>
        <time>2023-07-07T15:57:07.000Z</time>
      </trkpt>
      <trkpt lat="45.77799" lon="4.64864">
        <ele>476.99551</ele>
        <time>2023-07-07T15:57:08.000Z</time>
      </trkpt>
      <trkpt lat="45.77799" lon="4.6486">
        <ele>475.62494</ele>
        <time>2023-07-07T15:57:09.000Z</time>
      </trkpt>
      <trkpt lat="45.77799" lon="4.64856">
        <ele>474.19946</ele>
        <time>2023-07-07T15:57:10.000Z</time>
      </trkpt>
      <trkpt lat="45.77799" lon="4.64852">
        <ele>472.91138</ele>
        <time>2023-07-07T15:57:11.000Z</time>
      </trkpt>
      <trkpt lat="45.77799" lon="4.64848">
        <ele>470.9165</ele>
        <time>2023-07-07T15:57:12.000Z</time>
      </trkpt>
      <trkpt lat="45.77799" lon="4.64844">
        <ele>471.44684</ele>
        <time>2023-07-07T15:57:13.000Z</time>
      </trkpt>
      <trkpt lat="45.77799" lon="4.6484">
        <ele>471.91098</ele>
        <time>2023-07-07T15:57:15.000Z</time>
      </trkpt>
      <trkpt lat="45.778" lon="4.64836">
        <ele>472.0188</ele>
        <time>2023-07-07T15:57:17.000Z</time>
      </trkpt>
      <trkpt lat="45.77802" lon="4.6483">
        <ele>470.70889</ele>
        <time>2023-07-07T15:57:19.000Z</time>
      </trkpt>
      <trkpt lat="45.77803" lon="4.64826">
        <ele>470.26227</ele>
        <time>2023-07-07T15:57:20.000Z</time>
      </trkpt>
      <trkpt lat="45.77804" lon="4.64824">
        <ele>469.32193</ele>
        <time>2023-07-07T15:57:21.000Z</time>
      </trkpt>
      <trkpt lat="45.77806" lon="4.6482">
        <ele>468.17319</ele>
        <time>2023-07-07T15:57:23.000Z</time>
      </trkpt>
      <trkpt lat="45.77807" lon="4.64817">
        <ele>468.87042</ele>
        <time>2023-07-07T15:57:25.000Z</time>
      </trkpt>
      <trkpt lat="45.77807" lon="4.64815">
        <ele>469.34854</ele>
        <time>2023-07-07T15:57:26.000Z</time>
      </trkpt>
      <trkpt lat="45.77808" lon="4.64812">
        <ele>468.80634</ele>
        <time>2023-07-07T15:57:27.000Z</time>
      </trkpt>
      <trkpt lat="45.77808" lon="4.64809">
        <ele>469.02594</ele>
        <time>2023-07-07T15:57:28.000Z</time>
      </trkpt>
      <trkpt lat="45.77809" lon="4.64805">
        <ele>469.55704</ele>
        <time>2023-07-07T15:57:30.000Z</time>
      </trkpt>
      <trkpt lat="45.7781" lon="4.64802">
        <ele>470.33829</ele>
        <time>2023-07-07T15:57:31.000Z</time>
      </trkpt>
      <trkpt lat="45.77811" lon="4.64798">
        <ele>469.92935</ele>
        <time>2023-07-07T15:57:33.000Z</time>
      </trkpt>
      <trkpt lat="45.77811" lon="4.64795">
        <ele>470.36725</ele>
        <time>2023-07-07T15:57:34.000Z</time>
      </trkpt>
      <trkpt lat="45.77812" lon="4.64791">
        <ele>470.92764</ele>
        <time>2023-07-07T15:57:36.000Z</time>
      </trkpt>
      <trkpt lat="45.77813" lon="4.64787">
        <ele>472.18677</ele>
        <time>2023-07-07T15:57:39.000Z</time>
      </trkpt>
      <trkpt lat="45.77814" lon="4.64784">
        <ele>472.52948</ele>
        <time>2023-07-07T15:57:41.000Z</time>
      </trkpt>
      <trkpt lat="45.77816" lon="4.6478">
        <ele>473.24347</ele>
        <time>2023-07-07T15:57:45.000Z</time>
      </trkpt>
      <trkpt lat="45.77817" lon="4.64777">
        <ele>475.10776</ele>
        <time>2023-07-07T15:57:46.000Z</time>
      </trkpt>
      <trkpt lat="45.77819" lon="4.64773">
        <ele>475.30402</ele>
        <time>2023-07-07T15:57:47.000Z</time>
      </trkpt>
      <trkpt lat="45.7782" lon="4.6477">
        <ele>475.27261</ele>
        <time>2023-07-07T15:57:48.000Z</time>
      </trkpt>
      <trkpt lat="45.77822" lon="4.64768">
        <ele>474.32584</ele>
        <time>2023-07-07T15:57:49.000Z</time>
      </trkpt>
      <trkpt lat="45.77823" lon="4.64765">
        <ele>474.23242</ele>
        <time>2023-07-07T15:57:50.000Z</time>
      </trkpt>
      <trkpt lat="45.77824" lon="4.64762">
        <ele>473.87314</ele>
        <time>2023-07-07T15:57:51.000Z</time>
      </trkpt>
      <trkpt lat="45.77825" lon="4.64759">
        <ele>473.0018</ele>
        <time>2023-07-07T15:57:52.000Z</time>
      </trkpt>
      <trkpt lat="45.77826" lon="4.64755">
        <ele>471.8382</ele>
        <time>2023-07-07T15:57:53.000Z</time>
      </trkpt>
      <trkpt lat="45.77826" lon="4.64752">
        <ele>469.62866</ele>
        <time>2023-07-07T15:57:54.000Z</time>
      </trkpt>
      <trkpt lat="45.77827" lon="4.64748">
        <ele>467.76749</ele>
        <time>2023-07-07T15:57:56.000Z</time>
      </trkpt>
      <trkpt lat="45.77829" lon="4.64745">
        <ele>466.63721</ele>
        <time>2023-07-07T15:57:58.000Z</time>
      </trkpt>
      <trkpt lat="45.77831" lon="4.64742">
        <ele>465.70566</ele>
        <time>2023-07-07T15:58:00.000Z</time>
      </trkpt>
      <trkpt lat="45.77833" lon="4.64737">
        <ele>465.03693</ele>
        <time>2023-07-07T15:58:02.000Z</time>
      </trkpt>
      <trkpt lat="45.77834" lon="4.64733">
        <ele>463.54517</ele>
        <time>2023-07-07T15:58:03.000Z</time>
      </trkpt>
      <trkpt lat="45.77835" lon="4.6473">
        <ele>460.96674</ele>
        <time>2023-07-07T15:58:04.000Z</time>
      </trkpt>
      <trkpt lat="45.77836" lon="4.64726">
        <ele>461.02997</ele>
        <time>2023-07-07T15:58:05.000Z</time>
      </trkpt>
      <trkpt lat="45.77837" lon="4.64722">
        <ele>460.81439</ele>
        <time>2023-07-07T15:58:06.000Z</time>
      </trkpt>
      <trkpt lat="45.77838" lon="4.64718">
        <ele>459.75787</ele>
        <time>2023-07-07T15:58:07.000Z</time>
      </trkpt>
      <trkpt lat="45.77839" lon="4.64714">
        <ele>459.62335</ele>
        <time>2023-07-07T15:58:08.000Z</time>
      </trkpt>
      <trkpt lat="45.77839" lon="4.64711">
        <ele>458.97803</ele>
        <time>2023-07-07T15:58:09.000Z</time>
      </trkpt>
      <trkpt lat="45.7784" lon="4.64706">
        <ele>455.31583</ele>
        <time>2023-07-07T15:58:10.000Z</time>
      </trkpt>
      <trkpt lat="45.7784" lon="4.64702">
        <ele>454.98309</ele>
        <time>2023-07-07T15:58:11.000Z</time>
      </trkpt>
      <trkpt lat="45.7784" lon="4.64697">
        <ele>454.28134</ele>
        <time>2023-07-07T15:58:12.000Z</time>
      </trkpt>
      <trkpt lat="45.77839" lon="4.64692">
        <ele>453.61172</ele>
        <time>2023-07-07T15:58:13.000Z</time>
      </trkpt>
      <trkpt lat="45.77839" lon="4.64688">
        <ele>452.79086</ele>
        <time>2023-07-07T15:58:14.000Z</time>
      </trkpt>
      <trkpt lat="45.77838" lon="4.6468">
        <ele>452.36981</ele>
        <time>2023-07-07T15:58:15.000Z</time>
      </trkpt>
      <trkpt lat="45.77835" lon="4.64674">
        <ele>459.46948</ele>
        <time>2023-07-07T15:58:16.000Z</time>
      </trkpt>
      <trkpt lat="45.77836" lon="4.64667">
        <ele>460.03433</ele>
        <time>2023-07-07T15:58:17.000Z</time>
      </trkpt>
      <trkpt lat="45.77836" lon="4.64661">
        <ele>460.66495</ele>
        <time>2023-07-07T15:58:18.000Z</time>
      </trkpt>
      <trkpt lat="45.77837" lon="4.64655">
        <ele>461.09821</ele>
        <time>2023-07-07T15:58:19.000Z</time>
      </trkpt>
      <trkpt lat="45.77837" lon="4.64649">
        <ele>461.81598</ele>
        <time>2023-07-07T15:58:20.000Z</time>
      </trkpt>
      <trkpt lat="45.77837" lon="4.64644">
        <ele>461.57489</ele>
        <time>2023-07-07T15:58:21.000Z</time>
      </trkpt>
      <trkpt lat="45.77838" lon="4.64638">
        <ele>459.43805</ele>
        <time>2023-07-07T15:58:22.000Z</time>
      </trkpt>
      <trkpt lat="45.77841" lon="4.64633">
        <ele>459.15811</ele>
        <time>2023-07-07T15:58:23.000Z</time>
      </trkpt>
      <trkpt lat="45.77841" lon="4.64627">
        <ele>461.16757</ele>
        <time>2023-07-07T15:58:24.000Z</time>
      </trkpt>
      <trkpt lat="45.77842" lon="4.64622">
        <ele>461.17764</ele>
        <time>2023-07-07T15:58:25.000Z</time>
      </trkpt>
      <trkpt lat="45.77842" lon="4.64616">
        <ele>461.185</ele>
        <time>2023-07-07T15:58:26.000Z</time>
      </trkpt>
      <trkpt lat="45.77843" lon="4.64611">
        <ele>461.20352</ele>
        <time>2023-07-07T15:58:27.000Z</time>
      </trkpt>
      <trkpt lat="45.77844" lon="4.64605">
        <ele>458.63437</ele>
        <time>2023-07-07T15:58:28.000Z</time>
      </trkpt>
      <trkpt lat="45.77844" lon="4.64599">
        <ele>458.35001</ele>
        <time>2023-07-07T15:58:29.000Z</time>
      </trkpt>
      <trkpt lat="45.77844" lon="4.64594">
        <ele>460.86566</ele>
        <time>2023-07-07T15:58:30.000Z</time>
      </trkpt>
      <trkpt lat="45.77844" lon="4.64589">
        <ele>460.93774</ele>
        <time>2023-07-07T15:58:31.000Z</time>
      </trkpt>
      <trkpt lat="45.77844" lon="4.64584">
        <ele>462.47333</ele>
        <time>2023-07-07T15:58:32.000Z</time>
      </trkpt>
      <trkpt lat="45.77844" lon="4.64579">
        <ele>462.88297</ele>
        <time>2023-07-07T15:58:33.000Z</time>
      </trkpt>
      <trkpt lat="45.77843" lon="4.64574">
        <ele>463.34653</ele>
        <time>2023-07-07T15:58:34.000Z</time>
      </trkpt>
      <trkpt lat="45.77843" lon="4.64568">
        <ele>463.87433</ele>
        <time>2023-07-07T15:58:35.000Z</time>
      </trkpt>
      <trkpt lat="45.77842" lon="4.64564">
        <ele>457.1936</ele>
        <time>2023-07-07T15:58:36.000Z</time>
      </trkpt>
      <trkpt lat="45.77842" lon="4.6456">
        <ele>457.07977</ele>
        <time>2023-07-07T15:58:37.000Z</time>
      </trkpt>
      <trkpt lat="45.77841" lon="4.64556">
        <ele>459.61411</ele>
        <time>2023-07-07T15:58:38.000Z</time>
      </trkpt>
      <trkpt lat="45.7784" lon="4.6455">
        <ele>459.56158</ele>
        <time>2023-07-07T15:58:39.000Z</time>
      </trkpt>
      <trkpt lat="45.77839" lon="4.64544">
        <ele>459.48471</ele>
        <time>2023-07-07T15:58:40.000Z</time>
      </trkpt>
      <trkpt lat="45.77839" lon="4.64539">
        <ele>459.3681</ele>
        <time>2023-07-07T15:58:41.000Z</time>
      </trkpt>
      <trkpt lat="45.77838" lon="4.64533">
        <ele>461.18808</ele>
        <time>2023-07-07T15:58:42.000Z</time>
      </trkpt>
      <trkpt lat="45.77838" lon="4.64526">
        <ele>461.27557</ele>
        <time>2023-07-07T15:58:43.000Z</time>
      </trkpt>
      <trkpt lat="45.77837" lon="4.64523">
        <ele>464.69208</ele>
        <time>2023-07-07T15:58:44.000Z</time>
      </trkpt>
      <trkpt lat="45.77836" lon="4.64518">
        <ele>464.86832</ele>
        <time>2023-07-07T15:58:45.000Z</time>
      </trkpt>
      <trkpt lat="45.77835" lon="4.64513">
        <ele>465.05283</ele>
        <time>2023-07-07T15:58:46.000Z</time>
      </trkpt>
      <trkpt lat="45.77835" lon="4.64503">
        <ele>465.24625</ele>
        <time>2023-07-07T15:58:47.000Z</time>
      </trkpt>
      <trkpt lat="45.77835" lon="4.64498">
        <ele>468.08978</ele>
        <time>2023-07-07T15:58:48.000Z</time>
      </trkpt>
      <trkpt lat="45.77833" lon="4.64492">
        <ele>468.79752</ele>
        <time>2023-07-07T15:58:49.000Z</time>
      </trkpt>
      <trkpt lat="45.77832" lon="4.64486">
        <ele>471.74619</ele>
        <time>2023-07-07T15:58:50.000Z</time>
      </trkpt>
      <trkpt lat="45.77832" lon="4.6448">
        <ele>473.67896</ele>
        <time>2023-07-07T15:58:51.000Z</time>
      </trkpt>
      <trkpt lat="45.7783" lon="4.64474">
        <ele>473.75244</ele>
        <time>2023-07-07T15:58:52.000Z</time>
      </trkpt>
      <trkpt lat="45.7783" lon="4.6447">
        <ele>474.81055</ele>
        <time>2023-07-07T15:58:53.000Z</time>
      </trkpt>
      <trkpt lat="45.77831" lon="4.64462">
        <ele>475.93887</ele>
        <time>2023-07-07T15:58:54.000Z</time>
      </trkpt>
      <trkpt lat="45.77831" lon="4.64457">
        <ele>476.9086</ele>
        <time>2023-07-07T15:58:55.000Z</time>
      </trkpt>
      <trkpt lat="45.77831" lon="4.64451">
        <ele>477.33429</ele>
        <time>2023-07-07T15:58:56.000Z</time>
      </trkpt>
      <trkpt lat="45.77831" lon="4.64447">
        <ele>477.52603</ele>
        <time>2023-07-07T15:58:57.000Z</time>
      </trkpt>
      <trkpt lat="45.77831" lon="4.6444">
        <ele>475.8663</ele>
        <time>2023-07-07T15:58:58.000Z</time>
      </trkpt>
      <trkpt lat="45.77831" lon="4.64431">
        <ele>476.67889</ele>
        <time>2023-07-07T15:58:59.000Z</time>
      </trkpt>
      <trkpt lat="45.77831" lon="4.64425">
        <ele>477.53476</ele>
        <time>2023-07-07T15:59:00.000Z</time>
      </trkpt>
      <trkpt lat="45.77833" lon="4.64413">
        <ele>478.43732</ele>
        <time>2023-07-07T15:59:01.000Z</time>
      </trkpt>
      <trkpt lat="45.77833" lon="4.64407">
        <ele>479.39078</ele>
        <time>2023-07-07T15:59:02.000Z</time>
      </trkpt>
      <trkpt lat="45.77833" lon="4.64398">
        <ele>479.27264</ele>
        <time>2023-07-07T15:59:03.000Z</time>
      </trkpt>
      <trkpt lat="45.77833" lon="4.6439">
        <ele>476.86188</ele>
        <time>2023-07-07T15:59:04.000Z</time>
      </trkpt>
      <trkpt lat="45.77835" lon="4.64381">
        <ele>476.04926</ele>
        <time>2023-07-07T15:59:05.000Z</time>
      </trkpt>
      <trkpt lat="45.77835" lon="4.64371">
        <ele>476.60831</ele>
        <time>2023-07-07T15:59:06.000Z</time>
      </trkpt>
      <trkpt lat="45.77835" lon="4.64365">
        <ele>475.8266</ele>
        <time>2023-07-07T15:59:07.000Z</time>
      </trkpt>
      <trkpt lat="45.77836" lon="4.6436">
        <ele>476.35562</ele>
        <time>2023-07-07T15:59:08.000Z</time>
      </trkpt>
      <trkpt lat="45.7784" lon="4.6435">
        <ele>476.76889</ele>
        <time>2023-07-07T15:59:09.000Z</time>
      </trkpt>
      <trkpt lat="45.7784" lon="4.6434">
        <ele>474.74115</ele>
        <time>2023-07-07T15:59:10.000Z</time>
      </trkpt>
      <trkpt lat="45.77841" lon="4.64334">
        <ele>472.4165</ele>
        <time>2023-07-07T15:59:11.000Z</time>
      </trkpt>
      <trkpt lat="45.7784" lon="4.64329">
        <ele>470.84235</ele>
        <time>2023-07-07T15:59:12.000Z</time>
      </trkpt>
      <trkpt lat="45.77842" lon="4.64321">
        <ele>469.71817</ele>
        <time>2023-07-07T15:59:13.000Z</time>
      </trkpt>
      <trkpt lat="45.77843" lon="4.6431">
        <ele>468.68011</ele>
        <time>2023-07-07T15:59:14.000Z</time>
      </trkpt>
      <trkpt lat="45.77843" lon="4.64303">
        <ele>467.99078</ele>
        <time>2023-07-07T15:59:15.000Z</time>
      </trkpt>
      <trkpt lat="45.77843" lon="4.64299">
        <ele>467.53183</ele>
        <time>2023-07-07T15:59:16.000Z</time>
      </trkpt>
      <trkpt lat="45.77844" lon="4.6429">
        <ele>468.06583</ele>
        <time>2023-07-07T15:59:17.000Z</time>
      </trkpt>
      <trkpt lat="45.77845" lon="4.64285">
        <ele>467.85785</ele>
        <time>2023-07-07T15:59:18.000Z</time>
      </trkpt>
      <trkpt lat="45.77847" lon="4.64278">
        <ele>467.73135</ele>
        <time>2023-07-07T15:59:19.000Z</time>
      </trkpt>
      <trkpt lat="45.7785" lon="4.64272">
        <ele>467.6683</ele>
        <time>2023-07-07T15:59:20.000Z</time>
      </trkpt>
      <trkpt lat="45.77853" lon="4.64261">
        <ele>467.21552</ele>
        <time>2023-07-07T15:59:21.000Z</time>
      </trkpt>
      <trkpt lat="45.77851" lon="4.64254">
        <ele>467.03534</ele>
        <time>2023-07-07T15:59:22.000Z</time>
      </trkpt>
      <trkpt lat="45.7785" lon="4.64248">
        <ele>467.73932</ele>
        <time>2023-07-07T15:59:23.000Z</time>
      </trkpt>
      <trkpt lat="45.77846" lon="4.64244">
        <ele>467.00397</ele>
        <time>2023-07-07T15:59:24.000Z</time>
      </trkpt>
      <trkpt lat="45.77844" lon="4.64236">
        <ele>467.61249</ele>
        <time>2023-07-07T15:59:25.000Z</time>
      </trkpt>
      <trkpt lat="45.77841" lon="4.64228">
        <ele>466.79453</ele>
        <time>2023-07-07T15:59:26.000Z</time>
      </trkpt>
      <trkpt lat="45.77836" lon="4.6422">
        <ele>467.66333</ele>
        <time>2023-07-07T15:59:27.000Z</time>
      </trkpt>
      <trkpt lat="45.77834" lon="4.64209">
        <ele>466.64032</ele>
        <time>2023-07-07T15:59:28.000Z</time>
      </trkpt>
      <trkpt lat="45.7783" lon="4.64202">
        <ele>466.1546</ele>
        <time>2023-07-07T15:59:29.000Z</time>
      </trkpt>
      <trkpt lat="45.77829" lon="4.64196">
        <ele>465.62387</ele>
        <time>2023-07-07T15:59:30.000Z</time>
      </trkpt>
      <trkpt lat="45.77827" lon="4.64189">
        <ele>466.45914</ele>
        <time>2023-07-07T15:59:31.000Z</time>
      </trkpt>
      <trkpt lat="45.77827" lon="4.64183">
        <ele>466.99799</ele>
        <time>2023-07-07T15:59:32.000Z</time>
      </trkpt>
      <trkpt lat="45.77826" lon="4.64177">
        <ele>467.29028</ele>
        <time>2023-07-07T15:59:33.000Z</time>
      </trkpt>
      <trkpt lat="45.77827" lon="4.64172">
        <ele>465.12701</ele>
        <time>2023-07-07T15:59:34.000Z</time>
      </trkpt>
      <trkpt lat="45.77827" lon="4.64168">
        <ele>464.93564</ele>
        <time>2023-07-07T15:59:35.000Z</time>
      </trkpt>
      <trkpt lat="45.77828" lon="4.64156">
        <ele>465.02197</ele>
        <time>2023-07-07T15:59:36.000Z</time>
      </trkpt>
      <trkpt lat="45.77828" lon="4.64151">
        <ele>463.66132</ele>
        <time>2023-07-07T15:59:37.000Z</time>
      </trkpt>
      <trkpt lat="45.77827" lon="4.64146">
        <ele>462.11826</ele>
        <time>2023-07-07T15:59:38.000Z</time>
      </trkpt>
      <trkpt lat="45.77826" lon="4.64137">
        <ele>460.42279</ele>
        <time>2023-07-07T15:59:39.000Z</time>
      </trkpt>
      <trkpt lat="45.77824" lon="4.64132">
        <ele>458.64038</ele>
        <time>2023-07-07T15:59:40.000Z</time>
      </trkpt>
      <trkpt lat="45.77825" lon="4.64125">
        <ele>458.14844</ele>
        <time>2023-07-07T15:59:41.000Z</time>
      </trkpt>
      <trkpt lat="45.77823" lon="4.64114">
        <ele>457.31415</ele>
        <time>2023-07-07T15:59:42.000Z</time>
      </trkpt>
      <trkpt lat="45.77824" lon="4.64108">
        <ele>456.53461</ele>
        <time>2023-07-07T15:59:43.000Z</time>
      </trkpt>
      <trkpt lat="45.77822" lon="4.64102">
        <ele>456.13306</ele>
        <time>2023-07-07T15:59:44.000Z</time>
      </trkpt>
      <trkpt lat="45.77822" lon="4.64095">
        <ele>455.90912</ele>
        <time>2023-07-07T15:59:45.000Z</time>
      </trkpt>
      <trkpt lat="45.7782" lon="4.64089">
        <ele>458.10016</ele>
        <time>2023-07-07T15:59:46.000Z</time>
      </trkpt>
      <trkpt lat="45.77819" lon="4.64085">
        <ele>457.66544</ele>
        <time>2023-07-07T15:59:47.000Z</time>
      </trkpt>
      <trkpt lat="45.77819" lon="4.64082">
        <ele>457.78036</ele>
        <time>2023-07-07T15:59:48.000Z</time>
      </trkpt>
      <trkpt lat="45.77819" lon="4.64079">
        <ele>457.33734</ele>
        <time>2023-07-07T15:59:49.000Z</time>
      </trkpt>
      <trkpt lat="45.77818" lon="4.64075">
        <ele>456.89648</ele>
        <time>2023-07-07T15:59:50.000Z</time>
      </trkpt>
      <trkpt lat="45.77817" lon="4.64071">
        <ele>456.46011</ele>
        <time>2023-07-07T15:59:51.000Z</time>
      </trkpt>
      <trkpt lat="45.77817" lon="4.64066">
        <ele>459.16422</ele>
        <time>2023-07-07T15:59:52.000Z</time>
      </trkpt>
      <trkpt lat="45.77817" lon="4.64062">
        <ele>458.77252</ele>
        <time>2023-07-07T15:59:53.000Z</time>
      </trkpt>
      <trkpt lat="45.77816" lon="4.64058">
        <ele>460.63998</ele>
        <time>2023-07-07T15:59:54.000Z</time>
      </trkpt>
      <trkpt lat="45.77815" lon="4.64053">
        <ele>460.41562</ele>
        <time>2023-07-07T15:59:55.000Z</time>
      </trkpt>
      <trkpt lat="45.77814" lon="4.64048">
        <ele>460.18964</ele>
        <time>2023-07-07T15:59:56.000Z</time>
      </trkpt>
      <trkpt lat="45.77813" lon="4.64044">
        <ele>460.97437</ele>
        <time>2023-07-07T15:59:57.000Z</time>
      </trkpt>
      <trkpt lat="45.77812" lon="4.6404">
        <ele>464.94897</ele>
        <time>2023-07-07T15:59:58.000Z</time>
      </trkpt>
      <trkpt lat="45.77811" lon="4.64035">
        <ele>466.2251</ele>
        <time>2023-07-07T15:59:59.000Z</time>
      </trkpt>
      <trkpt lat="45.77811" lon="4.64031">
        <ele>467.54785</ele>
        <time>2023-07-07T16:00:00.000Z</time>
      </trkpt>
      <trkpt lat="45.7781" lon="4.64028">
        <ele>467.99323</ele>
        <time>2023-07-07T16:00:01.000Z</time>
      </trkpt>
      <trkpt lat="45.7781" lon="4.64024">
        <ele>468.48544</ele>
        <time>2023-07-07T16:00:02.000Z</time>
      </trkpt>
      <trkpt lat="45.7781" lon="4.64021">
        <ele>469.04401</ele>
        <time>2023-07-07T16:00:03.000Z</time>
      </trkpt>
      <trkpt lat="45.77809" lon="4.64018">
        <ele>473.45743</ele>
        <time>2023-07-07T16:00:04.000Z</time>
      </trkpt>
      <trkpt lat="45.77809" lon="4.64015">
        <ele>474.32364</ele>
        <time>2023-07-07T16:00:05.000Z</time>
      </trkpt>
      <trkpt lat="45.77807" lon="4.64011">
        <ele>472.86432</ele>
        <time>2023-07-07T16:00:06.000Z</time>
      </trkpt>
      <trkpt lat="45.77806" lon="4.64009">
        <ele>473.60248</ele>
        <time>2023-07-07T16:00:07.000Z</time>
      </trkpt>
      <trkpt lat="45.77804" lon="4.64007">
        <ele>474.39935</ele>
        <time>2023-07-07T16:00:08.000Z</time>
      </trkpt>
      <trkpt lat="45.77802" lon="4.64006">
        <ele>475.23032</ele>
        <time>2023-07-07T16:00:09.000Z</time>
      </trkpt>
      <trkpt lat="45.77802" lon="4.64003">
        <ele>479.70322</ele>
        <time>2023-07-07T16:00:12.000Z</time>
      </trkpt>
      <trkpt lat="45.778" lon="4.64001">
        <ele>481.33746</ele>
        <time>2023-07-07T16:01:18.000Z</time>
      </trkpt>
      <trkpt lat="45.77799" lon="4.63997">
        <ele>479.37729</ele>
        <time>2023-07-07T16:01:20.000Z</time>
      </trkpt>
      <trkpt lat="45.77799" lon="4.63994">
        <ele>480.38794</ele>
        <time>2023-07-07T16:01:21.000Z</time>
      </trkpt>
      <trkpt lat="45.778" lon="4.63992">
        <ele>481.46869</ele>
        <time>2023-07-07T16:01:22.000Z</time>
      </trkpt>
      <trkpt lat="45.77801" lon="4.63989">
        <ele>482.51016</ele>
        <time>2023-07-07T16:01:23.000Z</time>
      </trkpt>
      <trkpt lat="45.77803" lon="4.63987">
        <ele>488.73907</ele>
        <time>2023-07-07T16:01:24.000Z</time>
      </trkpt>
      <trkpt lat="45.77805" lon="4.63984">
        <ele>490.16656</ele>
        <time>2023-07-07T16:01:25.000Z</time>
      </trkpt>
      <trkpt lat="45.77806" lon="4.63981">
        <ele>488.57501</ele>
        <time>2023-07-07T16:01:26.000Z</time>
      </trkpt>
      <trkpt lat="45.77803" lon="4.63979">
        <ele>489.75629</ele>
        <time>2023-07-07T16:01:27.000Z</time>
      </trkpt>
      <trkpt lat="45.77805" lon="4.63977">
        <ele>490.9328</ele>
        <time>2023-07-07T16:01:29.000Z</time>
      </trkpt>
      <trkpt lat="45.77806" lon="4.63974">
        <ele>495.46429</ele>
        <time>2023-07-07T16:01:41.000Z</time>
      </trkpt>
      <trkpt lat="45.77809" lon="4.63973">
        <ele>501.85443</ele>
        <time>2023-07-07T16:01:48.000Z</time>
      </trkpt>
      <trkpt lat="45.77811" lon="4.63974">
        <ele>503.52289</ele>
        <time>2023-07-07T16:01:49.000Z</time>
      </trkpt>
      <trkpt lat="45.77813" lon="4.63974">
        <ele>501.45889</ele>
        <time>2023-07-07T16:01:50.000Z</time>
      </trkpt>
      <trkpt lat="45.77815" lon="4.63974">
        <ele>502.85898</ele>
        <time>2023-07-07T16:01:51.000Z</time>
      </trkpt>
      <trkpt lat="45.77817" lon="4.63975">
        <ele>504.2858</ele>
        <time>2023-07-07T16:01:52.000Z</time>
      </trkpt>
      <trkpt lat="45.7782" lon="4.63975">
        <ele>505.85687</ele>
        <time>2023-07-07T16:01:53.000Z</time>
      </trkpt>
      <trkpt lat="45.77822" lon="4.63974">
        <ele>511.96014</ele>
        <time>2023-07-07T16:01:54.000Z</time>
      </trkpt>
      <trkpt lat="45.77823" lon="4.63972">
        <ele>513.8382</ele>
        <time>2023-07-07T16:01:55.000Z</time>
      </trkpt>
      <trkpt lat="45.77825" lon="4.6397">
        <ele>512.19031</ele>
        <time>2023-07-07T16:01:56.000Z</time>
      </trkpt>
      <trkpt lat="45.77826" lon="4.63968">
        <ele>513.3208</ele>
        <time>2023-07-07T16:01:57.000Z</time>
      </trkpt>
      <trkpt lat="45.77827" lon="4.63966">
        <ele>514.91992</ele>
        <time>2023-07-07T16:01:58.000Z</time>
      </trkpt>
      <trkpt lat="45.77828" lon="4.63963">
        <ele>516.69708</ele>
        <time>2023-07-07T16:01:59.000Z</time>
      </trkpt>
      <trkpt lat="45.77829" lon="4.63961">
        <ele>522.88525</ele>
        <time>2023-07-07T16:02:01.000Z</time>
      </trkpt>
      <trkpt lat="45.77831" lon="4.63958">
        <ele>529.13965</ele>
        <time>2023-07-07T16:02:19.000Z</time>
      </trkpt>
      <trkpt lat="45.77832" lon="4.63955">
        <ele>526.34692</ele>
        <time>2023-07-07T16:02:20.000Z</time>
      </trkpt>
      <trkpt lat="45.77834" lon="4.63952">
        <ele>528.22729</ele>
        <time>2023-07-07T16:02:21.000Z</time>
      </trkpt>
      <trkpt lat="45.77837" lon="4.63948">
        <ele>530.13031</ele>
        <time>2023-07-07T16:02:22.000Z</time>
      </trkpt>
      <trkpt lat="45.7784" lon="4.63944">
        <ele>532.20807</ele>
        <time>2023-07-07T16:02:23.000Z</time>
      </trkpt>
      <trkpt lat="45.77843" lon="4.63939">
        <ele>534.33069</ele>
        <time>2023-07-07T16:02:24.000Z</time>
      </trkpt>
      <trkpt lat="45.77847" lon="4.63935">
        <ele>536.6228</ele>
        <time>2023-07-07T16:02:25.000Z</time>
      </trkpt>
      <trkpt lat="45.77849" lon="4.63931">
        <ele>533.66418</ele>
        <time>2023-07-07T16:02:26.000Z</time>
      </trkpt>
      <trkpt lat="45.7785" lon="4.63928">
        <ele>535.25464</ele>
        <time>2023-07-07T16:02:27.000Z</time>
      </trkpt>
      <trkpt lat="45.77852" lon="4.63926">
        <ele>536.84125</ele>
        <time>2023-07-07T16:02:28.000Z</time>
      </trkpt>
      <trkpt lat="45.77854" lon="4.63923">
        <ele>538.61035</ele>
        <time>2023-07-07T16:02:29.000Z</time>
      </trkpt>
      <trkpt lat="45.77856" lon="4.63922">
        <ele>540.39789</ele>
        <time>2023-07-07T16:02:30.000Z</time>
      </trkpt>
      <trkpt lat="45.77858" lon="4.6392">
        <ele>545.38538</ele>
        <time>2023-07-07T16:02:31.000Z</time>
      </trkpt>
      <trkpt lat="45.7786" lon="4.63918">
        <ele>542.87122</ele>
        <time>2023-07-07T16:02:32.000Z</time>
      </trkpt>
      <trkpt lat="45.77864" lon="4.63914">
        <ele>544.41681</ele>
        <time>2023-07-07T16:02:33.000Z</time>
      </trkpt>
      <trkpt lat="45.77867" lon="4.63909">
        <ele>545.94574</ele>
        <time>2023-07-07T16:02:34.000Z</time>
      </trkpt>
      <trkpt lat="45.7787" lon="4.63904">
        <ele>547.63348</ele>
        <time>2023-07-07T16:02:35.000Z</time>
      </trkpt>
      <trkpt lat="45.77871" lon="4.63901">
        <ele>549.34918</ele>
        <time>2023-07-07T16:02:36.000Z</time>
      </trkpt>
      <trkpt lat="45.77876" lon="4.63894">
        <ele>553.80798</ele>
        <time>2023-07-07T16:02:38.000Z</time>
      </trkpt>
      <trkpt lat="45.77879" lon="4.63889">
        <ele>551.29083</ele>
        <time>2023-07-07T16:02:39.000Z</time>
      </trkpt>
      <trkpt lat="45.77881" lon="4.63887">
        <ele>548.52753</ele>
        <time>2023-07-07T16:02:40.000Z</time>
      </trkpt>
      <trkpt lat="45.77885" lon="4.63881">
        <ele>549.49695</ele>
        <time>2023-07-07T16:02:41.000Z</time>
      </trkpt>
      <trkpt lat="45.77889" lon="4.63876">
        <ele>550.65442</ele>
        <time>2023-07-07T16:02:42.000Z</time>
      </trkpt>
      <trkpt lat="45.77891" lon="4.63871">
        <ele>551.77576</ele>
        <time>2023-07-07T16:02:43.000Z</time>
      </trkpt>
      <trkpt lat="45.77895" lon="4.63868">
        <ele>555.45013</ele>
        <time>2023-07-07T16:02:44.000Z</time>
      </trkpt>
      <trkpt lat="45.77898" lon="4.63865">
        <ele>556.61224</ele>
        <time>2023-07-07T16:02:45.000Z</time>
      </trkpt>
      <trkpt lat="45.77903" lon="4.63862">
        <ele>554.24182</ele>
        <time>2023-07-07T16:02:46.000Z</time>
      </trkpt>
      <trkpt lat="45.77906" lon="4.63861">
        <ele>555.1228</ele>
        <time>2023-07-07T16:02:47.000Z</time>
      </trkpt>
      <trkpt lat="45.77909" lon="4.63861">
        <ele>556.19574</ele>
        <time>2023-07-07T16:02:48.000Z</time>
      </trkpt>
      <trkpt lat="45.77912" lon="4.63861">
        <ele>557.2428</ele>
        <time>2023-07-07T16:02:49.000Z</time>
      </trkpt>
      <trkpt lat="45.77914" lon="4.63862">
        <ele>560.66095</ele>
        <time>2023-07-07T16:02:50.000Z</time>
      </trkpt>
      <trkpt lat="45.77916" lon="4.6386">
        <ele>561.76349</ele>
        <time>2023-07-07T16:02:51.000Z</time>
      </trkpt>
      <trkpt lat="45.77918" lon="4.6386">
        <ele>559.6499</ele>
        <time>2023-07-07T16:02:52.000Z</time>
      </trkpt>
      <trkpt lat="45.77921" lon="4.63858">
        <ele>560.3631</ele>
        <time>2023-07-07T16:02:53.000Z</time>
      </trkpt>
      <trkpt lat="45.77924" lon="4.63857">
        <ele>561.23767</ele>
        <time>2023-07-07T16:02:54.000Z</time>
      </trkpt>
      <trkpt lat="45.77927" lon="4.63855">
        <ele>562.07874</ele>
        <time>2023-07-07T16:02:55.000Z</time>
      </trkpt>
      <trkpt lat="45.77929" lon="4.63852">
        <ele>564.92004</ele>
        <time>2023-07-07T16:02:56.000Z</time>
      </trkpt>
      <trkpt lat="45.77931" lon="4.63849">
        <ele>565.7843</ele>
        <time>2023-07-07T16:02:57.000Z</time>
      </trkpt>
      <trkpt lat="45.77933" lon="4.63848">
        <ele>563.86871</ele>
        <time>2023-07-07T16:02:58.000Z</time>
      </trkpt>
      <trkpt lat="45.77935" lon="4.63848">
        <ele>564.37177</ele>
        <time>2023-07-07T16:02:59.000Z</time>
      </trkpt>
      <trkpt lat="45.77937" lon="4.63848">
        <ele>565.02582</ele>
        <time>2023-07-07T16:03:00.000Z</time>
      </trkpt>
      <trkpt lat="45.77939" lon="4.63849">
        <ele>567.8042</ele>
        <time>2023-07-07T16:03:02.000Z</time>
      </trkpt>
      <trkpt lat="45.77943" lon="4.63851">
        <ele>568.71954</ele>
        <time>2023-07-07T16:03:04.000Z</time>
      </trkpt>
      <trkpt lat="45.77945" lon="4.63852">
        <ele>569.6228</ele>
        <time>2023-07-07T16:03:05.000Z</time>
      </trkpt>
      <trkpt lat="45.77948" lon="4.63854">
        <ele>567.9231</ele>
        <time>2023-07-07T16:03:07.000Z</time>
      </trkpt>
      <trkpt lat="45.7795" lon="4.63856">
        <ele>570.36993</ele>
        <time>2023-07-07T16:03:08.000Z</time>
      </trkpt>
      <trkpt lat="45.77951" lon="4.63858">
        <ele>571.0578</ele>
        <time>2023-07-07T16:03:09.000Z</time>
      </trkpt>
      <trkpt lat="45.77953" lon="4.6386">
        <ele>571.89856</ele>
        <time>2023-07-07T16:03:10.000Z</time>
      </trkpt>
      <trkpt lat="45.77954" lon="4.63861">
        <ele>572.73737</ele>
        <time>2023-07-07T16:03:13.000Z</time>
      </trkpt>
      <trkpt lat="45.77957" lon="4.63863">
        <ele>575.24042</ele>
        <time>2023-07-07T16:03:17.000Z</time>
      </trkpt>
      <trkpt lat="45.77959" lon="4.63865">
        <ele>573.74225</ele>
        <time>2023-07-07T16:03:19.000Z</time>
      </trkpt>
      <trkpt lat="45.77961" lon="4.63866">
        <ele>574.3963</ele>
        <time>2023-07-07T16:03:21.000Z</time>
      </trkpt>
      <trkpt lat="45.77963" lon="4.63868">
        <ele>576.56287</ele>
        <time>2023-07-07T16:03:26.000Z</time>
      </trkpt>
      <trkpt lat="45.77964" lon="4.63872">
        <ele>578.82196</ele>
        <time>2023-07-07T16:03:28.000Z</time>
      </trkpt>
      <trkpt lat="45.77967" lon="4.63874">
        <ele>581.02411</ele>
        <time>2023-07-07T16:03:30.000Z</time>
      </trkpt>
      <trkpt lat="45.77968" lon="4.63875">
        <ele>583.17462</ele>
        <time>2023-07-07T16:03:37.000Z</time>
      </trkpt>
      <trkpt lat="45.7797" lon="4.63876">
        <ele>583.34753</ele>
        <time>2023-07-07T16:04:03.000Z</time>
      </trkpt>
      <trkpt lat="45.77971" lon="4.63878">
        <ele>585.34851</ele>
        <time>2023-07-07T16:04:29.000Z</time>
      </trkpt>
      <trkpt lat="45.77973" lon="4.63879">
        <ele>587.35449</ele>
        <time>2023-07-07T16:04:31.000Z</time>
      </trkpt>
      <trkpt lat="45.77975" lon="4.63885">
        <ele>589.49237</ele>
        <time>2023-07-07T16:04:34.000Z</time>
      </trkpt>
      <trkpt lat="45.77975" lon="4.63888">
        <ele>591.68054</ele>
        <time>2023-07-07T16:04:35.000Z</time>
      </trkpt>
      <trkpt lat="45.77976" lon="4.63891">
        <ele>591.91156</ele>
        <time>2023-07-07T16:04:36.000Z</time>
      </trkpt>
      <trkpt lat="45.77976" lon="4.63895">
        <ele>593.97375</ele>
        <time>2023-07-07T16:04:37.000Z</time>
      </trkpt>
      <trkpt lat="45.77977" lon="4.63897">
        <ele>596.00818</ele>
        <time>2023-07-07T16:04:38.000Z</time>
      </trkpt>
      <trkpt lat="45.77978" lon="4.639">
        <ele>598.00842</ele>
        <time>2023-07-07T16:04:39.000Z</time>
      </trkpt>
      <trkpt lat="45.77979" lon="4.63905">
        <ele>598.34619</ele>
        <time>2023-07-07T16:04:41.000Z</time>
      </trkpt>
      <trkpt lat="45.7798" lon="4.63907">
        <ele>600.38904</ele>
        <time>2023-07-07T16:04:42.000Z</time>
      </trkpt>
      <trkpt lat="45.77982" lon="4.63908">
        <ele>602.44232</ele>
        <time>2023-07-07T16:04:43.000Z</time>
      </trkpt>
      <trkpt lat="45.77985" lon="4.6391">
        <ele>604.40179</ele>
        <time>2023-07-07T16:04:44.000Z</time>
      </trkpt>
      <trkpt lat="45.77987" lon="4.63912">
        <ele>604.62817</ele>
        <time>2023-07-07T16:04:45.000Z</time>
      </trkpt>
      <trkpt lat="45.7799" lon="4.63915">
        <ele>606.43665</ele>
        <time>2023-07-07T16:04:46.000Z</time>
      </trkpt>
      <trkpt lat="45.77992" lon="4.63918">
        <ele>608.31964</ele>
        <time>2023-07-07T16:04:47.000Z</time>
      </trkpt>
      <trkpt lat="45.77994" lon="4.63921">
        <ele>608.6593</ele>
        <time>2023-07-07T16:04:48.000Z</time>
      </trkpt>
      <trkpt lat="45.77996" lon="4.63923">
        <ele>608.94788</ele>
        <time>2023-07-07T16:04:49.000Z</time>
      </trkpt>
      <trkpt lat="45.77998" lon="4.63926">
        <ele>609.28827</ele>
        <time>2023-07-07T16:04:51.000Z</time>
      </trkpt>
      <trkpt lat="45.78001" lon="4.63929">
        <ele>609.65784</ele>
        <time>2023-07-07T16:04:52.000Z</time>
      </trkpt>
      <trkpt lat="45.78004" lon="4.63933">
        <ele>609.89941</ele>
        <time>2023-07-07T16:04:53.000Z</time>
      </trkpt>
      <trkpt lat="45.78006" lon="4.63936">
        <ele>610.1582</ele>
        <time>2023-07-07T16:04:54.000Z</time>
      </trkpt>
      <trkpt lat="45.78008" lon="4.63939">
        <ele>610.37305</ele>
        <time>2023-07-07T16:04:55.000Z</time>
      </trkpt>
      <trkpt lat="45.7801" lon="4.63943">
        <ele>610.55811</ele>
        <time>2023-07-07T16:04:56.000Z</time>
      </trkpt>
      <trkpt lat="45.78012" lon="4.63945">
        <ele>610.70691</ele>
        <time>2023-07-07T16:04:57.000Z</time>
      </trkpt>
      <trkpt lat="45.78015" lon="4.63947">
        <ele>610.80359</ele>
        <time>2023-07-07T16:04:58.000Z</time>
      </trkpt>
      <trkpt lat="45.78017" lon="4.63948">
        <ele>610.87329</ele>
        <time>2023-07-07T16:04:59.000Z</time>
      </trkpt>
      <trkpt lat="45.7802" lon="4.63949">
        <ele>610.95264</ele>
        <time>2023-07-07T16:05:00.000Z</time>
      </trkpt>
      <trkpt lat="45.78022" lon="4.6395">
        <ele>611.0097</ele>
        <time>2023-07-07T16:05:01.000Z</time>
      </trkpt>
      <trkpt lat="45.78023" lon="4.6395">
        <ele>611.14832</ele>
        <time>2023-07-07T16:05:02.000Z</time>
      </trkpt>
      <trkpt lat="45.78025" lon="4.63952">
        <ele>611.27368</ele>
        <time>2023-07-07T16:05:03.000Z</time>
      </trkpt>
      <trkpt lat="45.78027" lon="4.63954">
        <ele>611.36951</ele>
        <time>2023-07-07T16:05:04.000Z</time>
      </trkpt>
      <trkpt lat="45.78029" lon="4.63957">
        <ele>611.54993</ele>
        <time>2023-07-07T16:05:05.000Z</time>
      </trkpt>
      <trkpt lat="45.7803" lon="4.6396">
        <ele>611.72546</ele>
        <time>2023-07-07T16:05:06.000Z</time>
      </trkpt>
      <trkpt lat="45.78032" lon="4.63964">
        <ele>611.83234</ele>
        <time>2023-07-07T16:05:07.000Z</time>
      </trkpt>
      <trkpt lat="45.78034" lon="4.63968">
        <ele>612.20148</ele>
        <time>2023-07-07T16:05:08.000Z</time>
      </trkpt>
      <trkpt lat="45.78035" lon="4.63972">
        <ele>612.54102</ele>
        <time>2023-07-07T16:05:09.000Z</time>
      </trkpt>
      <trkpt lat="45.78037" lon="4.63976">
        <ele>612.901</ele>
        <time>2023-07-07T16:05:10.000Z</time>
      </trkpt>
      <trkpt lat="45.78038" lon="4.63978">
        <ele>613.23328</ele>
        <time>2023-07-07T16:05:11.000Z</time>
      </trkpt>
      <trkpt lat="45.78039" lon="4.6398">
        <ele>613.45209</ele>
        <time>2023-07-07T16:05:12.000Z</time>
      </trkpt>
      <trkpt lat="45.78041" lon="4.63983">
        <ele>613.64771</ele>
        <time>2023-07-07T16:05:14.000Z</time>
      </trkpt>
      <trkpt lat="45.7804" lon="4.63986">
        <ele>613.90173</ele>
        <time>2023-07-07T16:05:16.000Z</time>
      </trkpt>
      <trkpt lat="45.78043" lon="4.63987">
        <ele>614.07996</ele>
        <time>2023-07-07T16:05:20.000Z</time>
      </trkpt>
      <trkpt lat="45.78046" lon="4.63987">
        <ele>614.26044</ele>
        <time>2023-07-07T16:05:22.000Z</time>
      </trkpt>
      <trkpt lat="45.78048" lon="4.63989">
        <ele>614.40875</ele>
        <time>2023-07-07T16:05:24.000Z</time>
      </trkpt>
      <trkpt lat="45.78048" lon="4.63991">
        <ele>614.31982</ele>
        <time>2023-07-07T16:06:02.000Z</time>
      </trkpt>
      <trkpt lat="45.78051" lon="4.63991">
        <ele>614.28326</ele>
        <time>2023-07-07T16:06:10.000Z</time>
      </trkpt>
      <trkpt lat="45.78053" lon="4.63991">
        <ele>614.23541</ele>
        <time>2023-07-07T16:06:11.000Z</time>
      </trkpt>
      <trkpt lat="45.78055" lon="4.63992">
        <ele>614.20032</ele>
        <time>2023-07-07T16:06:12.000Z</time>
      </trkpt>
      <trkpt lat="45.78057" lon="4.63993">
        <ele>614.00238</ele>
        <time>2023-07-07T16:06:13.000Z</time>
      </trkpt>
      <trkpt lat="45.7806" lon="4.63993">
        <ele>613.83514</ele>
        <time>2023-07-07T16:06:14.000Z</time>
      </trkpt>
      <trkpt lat="45.78063" lon="4.63993">
        <ele>613.66858</ele>
        <time>2023-07-07T16:06:15.000Z</time>
      </trkpt>
      <trkpt lat="45.78066" lon="4.63994">
        <ele>613.55383</ele>
        <time>2023-07-07T16:06:16.000Z</time>
      </trkpt>
      <trkpt lat="45.78069" lon="4.63995">
        <ele>613.45221</ele>
        <time>2023-07-07T16:06:17.000Z</time>
      </trkpt>
      <trkpt lat="45.78072" lon="4.63996">
        <ele>613.42596</ele>
        <time>2023-07-07T16:06:18.000Z</time>
      </trkpt>
      <trkpt lat="45.78075" lon="4.63997">
        <ele>613.11493</ele>
        <time>2023-07-07T16:06:19.000Z</time>
      </trkpt>
      <trkpt lat="45.78078" lon="4.63997">
        <ele>612.80249</ele>
        <time>2023-07-07T16:06:20.000Z</time>
      </trkpt>
      <trkpt lat="45.78081" lon="4.63998">
        <ele>612.55597</ele>
        <time>2023-07-07T16:06:21.000Z</time>
      </trkpt>
      <trkpt lat="45.78083" lon="4.63998">
        <ele>612.32275</ele>
        <time>2023-07-07T16:06:22.000Z</time>
      </trkpt>
      <trkpt lat="45.78085" lon="4.63998">
        <ele>612.17957</ele>
        <time>2023-07-07T16:06:23.000Z</time>
      </trkpt>
      <trkpt lat="45.78087" lon="4.63999">
        <ele>612.11481</ele>
        <time>2023-07-07T16:06:24.000Z</time>
      </trkpt>
      <trkpt lat="45.7809" lon="4.63999">
        <ele>612.05591</ele>
        <time>2023-07-07T16:06:25.000Z</time>
      </trkpt>
      <trkpt lat="45.78092" lon="4.63999">
        <ele>612.02258</ele>
        <time>2023-07-07T16:06:26.000Z</time>
      </trkpt>
      <trkpt lat="45.78094" lon="4.63999">
        <ele>612.01306</ele>
        <time>2023-07-07T16:06:27.000Z</time>
      </trkpt>
      <trkpt lat="45.78097" lon="4.63999">
        <ele>611.96393</ele>
        <time>2023-07-07T16:06:28.000Z</time>
      </trkpt>
      <trkpt lat="45.78099" lon="4.63999">
        <ele>612.21082</ele>
        <time>2023-07-07T16:06:29.000Z</time>
      </trkpt>
      <trkpt lat="45.78101" lon="4.63999">
        <ele>612.40594</ele>
        <time>2023-07-07T16:06:30.000Z</time>
      </trkpt>
      <trkpt lat="45.78104" lon="4.63999">
        <ele>612.69061</ele>
        <time>2023-07-07T16:06:31.000Z</time>
      </trkpt>
      <trkpt lat="45.78107" lon="4.64">
        <ele>612.89813</ele>
        <time>2023-07-07T16:06:32.000Z</time>
      </trkpt>
      <trkpt lat="45.7811" lon="4.64001">
        <ele>613.07642</ele>
        <time>2023-07-07T16:06:33.000Z</time>
      </trkpt>
      <trkpt lat="45.78113" lon="4.64001">
        <ele>613.25299</ele>
        <time>2023-07-07T16:06:34.000Z</time>
      </trkpt>
      <trkpt lat="45.78116" lon="4.64002">
        <ele>613.41791</ele>
        <time>2023-07-07T16:06:35.000Z</time>
      </trkpt>
      <trkpt lat="45.78119" lon="4.64002">
        <ele>613.4856</ele>
        <time>2023-07-07T16:06:36.000Z</time>
      </trkpt>
      <trkpt lat="45.78122" lon="4.64003">
        <ele>613.5531</ele>
        <time>2023-07-07T16:06:37.000Z</time>
      </trkpt>
      <trkpt lat="45.78125" lon="4.64004">
        <ele>613.60193</ele>
        <time>2023-07-07T16:06:38.000Z</time>
      </trkpt>
      <trkpt lat="45.78128" lon="4.64005">
        <ele>613.71625</ele>
        <time>2023-07-07T16:06:39.000Z</time>
      </trkpt>
      <trkpt lat="45.7813" lon="4.64006">
        <ele>613.79364</ele>
        <time>2023-07-07T16:06:40.000Z</time>
      </trkpt>
      <trkpt lat="45.78133" lon="4.64008">
        <ele>613.84375</ele>
        <time>2023-07-07T16:06:41.000Z</time>
      </trkpt>
      <trkpt lat="45.78137" lon="4.64009">
        <ele>613.91882</ele>
        <time>2023-07-07T16:06:42.000Z</time>
      </trkpt>
      <trkpt lat="45.78139" lon="4.6401">
        <ele>613.97388</ele>
        <time>2023-07-07T16:06:43.000Z</time>
      </trkpt>
      <trkpt lat="45.78142" lon="4.64011">
        <ele>613.87659</ele>
        <time>2023-07-07T16:06:44.000Z</time>
      </trkpt>
      <trkpt lat="45.78145" lon="4.64012">
        <ele>613.81293</ele>
        <time>2023-07-07T16:06:45.000Z</time>
      </trkpt>
      <trkpt lat="45.78147" lon="4.64013">
        <ele>614.00073</ele>
        <time>2023-07-07T16:06:46.000Z</time>
      </trkpt>
      <trkpt lat="45.78149" lon="4.64015">
        <ele>614.16406</ele>
        <time>2023-07-07T16:06:47.000Z</time>
      </trkpt>
      <trkpt lat="45.78151" lon="4.64018">
        <ele>614.35193</ele>
        <time>2023-07-07T16:06:48.000Z</time>
      </trkpt>
      <trkpt lat="45.78153" lon="4.64021">
        <ele>614.53162</ele>
        <time>2023-07-07T16:06:49.000Z</time>
      </trkpt>
      <trkpt lat="45.78154" lon="4.64024">
        <ele>614.80798</ele>
        <time>2023-07-07T16:06:50.000Z</time>
      </trkpt>
      <trkpt lat="45.78156" lon="4.64026">
        <ele>614.98523</ele>
        <time>2023-07-07T16:06:51.000Z</time>
      </trkpt>
      <trkpt lat="45.78158" lon="4.64028">
        <ele>615.27899</ele>
        <time>2023-07-07T16:06:52.000Z</time>
      </trkpt>
      <trkpt lat="45.78161" lon="4.64029">
        <ele>615.67786</ele>
        <time>2023-07-07T16:06:54.000Z</time>
      </trkpt>
      <trkpt lat="45.78164" lon="4.6403">
        <ele>616.00568</ele>
        <time>2023-07-07T16:06:55.000Z</time>
      </trkpt>
      <trkpt lat="45.78166" lon="4.6403">
        <ele>616.31616</ele>
        <time>2023-07-07T16:06:56.000Z</time>
      </trkpt>
      <trkpt lat="45.78168" lon="4.64031">
        <ele>616.65234</ele>
        <time>2023-07-07T16:06:57.000Z</time>
      </trkpt>
      <trkpt lat="45.7817" lon="4.64032">
        <ele>617.01251</ele>
        <time>2023-07-07T16:06:58.000Z</time>
      </trkpt>
      <trkpt lat="45.78172" lon="4.64033">
        <ele>617.36584</ele>
        <time>2023-07-07T16:06:59.000Z</time>
      </trkpt>
      <trkpt lat="45.78174" lon="4.64035">
        <ele>617.67053</ele>
        <time>2023-07-07T16:07:00.000Z</time>
      </trkpt>
      <trkpt lat="45.78176" lon="4.64037">
        <ele>617.98016</ele>
        <time>2023-07-07T16:07:01.000Z</time>
      </trkpt>
      <trkpt lat="45.78178" lon="4.64038">
        <ele>618.18549</ele>
        <time>2023-07-07T16:07:02.000Z</time>
      </trkpt>
      <trkpt lat="45.78181" lon="4.64039">
        <ele>618.35992</ele>
        <time>2023-07-07T16:07:03.000Z</time>
      </trkpt>
      <trkpt lat="45.78185" lon="4.6404">
        <ele>618.56531</ele>
        <time>2023-07-07T16:07:04.000Z</time>
      </trkpt>
      <trkpt lat="45.78188" lon="4.64041">
        <ele>618.90698</ele>
        <time>2023-07-07T16:07:05.000Z</time>
      </trkpt>
      <trkpt lat="45.78191" lon="4.64043">
        <ele>619.21497</ele>
        <time>2023-07-07T16:07:06.000Z</time>
      </trkpt>
      <trkpt lat="45.78195" lon="4.64044">
        <ele>609.76599</ele>
        <time>2023-07-07T16:07:07.000Z</time>
      </trkpt>
      <trkpt lat="45.782" lon="4.64046">
        <ele>609.40363</ele>
        <time>2023-07-07T16:07:08.000Z</time>
      </trkpt>
      <trkpt lat="45.78204" lon="4.64047">
        <ele>609.03113</ele>
        <time>2023-07-07T16:07:09.000Z</time>
      </trkpt>
      <trkpt lat="45.78209" lon="4.64048">
        <ele>608.61261</ele>
        <time>2023-07-07T16:07:10.000Z</time>
      </trkpt>
      <trkpt lat="45.78213" lon="4.64049">
        <ele>608.08624</ele>
        <time>2023-07-07T16:07:11.000Z</time>
      </trkpt>
      <trkpt lat="45.78217" lon="4.6405">
        <ele>607.52667</ele>
        <time>2023-07-07T16:07:12.000Z</time>
      </trkpt>
      <trkpt lat="45.7822" lon="4.64051">
        <ele>605.0116</ele>
        <time>2023-07-07T16:07:13.000Z</time>
      </trkpt>
      <trkpt lat="45.78224" lon="4.64053">
        <ele>603.67029</ele>
        <time>2023-07-07T16:07:14.000Z</time>
      </trkpt>
      <trkpt lat="45.78227" lon="4.64055">
        <ele>603.04816</ele>
        <time>2023-07-07T16:07:15.000Z</time>
      </trkpt>
      <trkpt lat="45.78231" lon="4.64057">
        <ele>602.41248</ele>
        <time>2023-07-07T16:07:16.000Z</time>
      </trkpt>
      <trkpt lat="45.78235" lon="4.64058">
        <ele>602.2038</ele>
        <time>2023-07-07T16:07:17.000Z</time>
      </trkpt>
      <trkpt lat="45.78239" lon="4.6406">
        <ele>602.16321</ele>
        <time>2023-07-07T16:07:18.000Z</time>
      </trkpt>
      <trkpt lat="45.78244" lon="4.64062">
        <ele>602.15564</ele>
        <time>2023-07-07T16:07:19.000Z</time>
      </trkpt>
      <trkpt lat="45.78248" lon="4.64064">
        <ele>602.14447</ele>
        <time>2023-07-07T16:07:20.000Z</time>
      </trkpt>
      <trkpt lat="45.78251" lon="4.64066">
        <ele>602.15509</ele>
        <time>2023-07-07T16:07:21.000Z</time>
      </trkpt>
      <trkpt lat="45.78255" lon="4.64066">
        <ele>602.18005</ele>
        <time>2023-07-07T16:07:22.000Z</time>
      </trkpt>
      <trkpt lat="45.78259" lon="4.64067">
        <ele>602.14581</ele>
        <time>2023-07-07T16:07:23.000Z</time>
      </trkpt>
      <trkpt lat="45.78263" lon="4.64068">
        <ele>602.1095</ele>
        <time>2023-07-07T16:07:24.000Z</time>
      </trkpt>
      <trkpt lat="45.78267" lon="4.6407">
        <ele>602.13916</ele>
        <time>2023-07-07T16:07:25.000Z</time>
      </trkpt>
      <trkpt lat="45.7827" lon="4.64073">
        <ele>602.15686</ele>
        <time>2023-07-07T16:07:26.000Z</time>
      </trkpt>
      <trkpt lat="45.78274" lon="4.64076">
        <ele>611.73206</ele>
        <time>2023-07-07T16:07:27.000Z</time>
      </trkpt>
      <trkpt lat="45.78276" lon="4.64079">
        <ele>612.21088</ele>
        <time>2023-07-07T16:07:28.000Z</time>
      </trkpt>
      <trkpt lat="45.78278" lon="4.64083">
        <ele>612.79681</ele>
        <time>2023-07-07T16:07:29.000Z</time>
      </trkpt>
      <trkpt lat="45.7828" lon="4.64085">
        <ele>613.38904</ele>
        <time>2023-07-07T16:07:30.000Z</time>
      </trkpt>
      <trkpt lat="45.78281" lon="4.64087">
        <ele>613.97211</ele>
        <time>2023-07-07T16:07:31.000Z</time>
      </trkpt>
      <trkpt lat="45.78283" lon="4.6409">
        <ele>614.58099</ele>
        <time>2023-07-07T16:07:32.000Z</time>
      </trkpt>
      <trkpt lat="45.78288" lon="4.64094">
        <ele>617.09833</ele>
        <time>2023-07-07T16:07:33.000Z</time>
      </trkpt>
      <trkpt lat="45.7829" lon="4.64098">
        <ele>618.34613</ele>
        <time>2023-07-07T16:07:34.000Z</time>
      </trkpt>
      <trkpt lat="45.78293" lon="4.64101">
        <ele>618.93427</ele>
        <time>2023-07-07T16:07:35.000Z</time>
      </trkpt>
      <trkpt lat="45.78296" lon="4.64104">
        <ele>619.56396</ele>
        <time>2023-07-07T16:07:36.000Z</time>
      </trkpt>
      <trkpt lat="45.783" lon="4.64108">
        <ele>619.74829</ele>
        <time>2023-07-07T16:07:37.000Z</time>
      </trkpt>
      <trkpt lat="45.78303" lon="4.64114">
        <ele>619.74445</ele>
        <time>2023-07-07T16:07:38.000Z</time>
      </trkpt>
      <trkpt lat="45.78309" lon="4.64124">
        <ele>619.65155</ele>
        <time>2023-07-07T16:07:39.000Z</time>
      </trkpt>
      <trkpt lat="45.78312" lon="4.64128">
        <ele>619.57208</ele>
        <time>2023-07-07T16:07:40.000Z</time>
      </trkpt>
      <trkpt lat="45.78314" lon="4.64132">
        <ele>619.51843</ele>
        <time>2023-07-07T16:07:41.000Z</time>
      </trkpt>
      <trkpt lat="45.78317" lon="4.64134">
        <ele>619.57288</ele>
        <time>2023-07-07T16:07:42.000Z</time>
      </trkpt>
      <trkpt lat="45.78319" lon="4.64136">
        <ele>619.68225</ele>
        <time>2023-07-07T16:07:43.000Z</time>
      </trkpt>
      <trkpt lat="45.7832" lon="4.64138">
        <ele>619.81256</ele>
        <time>2023-07-07T16:07:47.000Z</time>
      </trkpt>
      <trkpt lat="45.78321" lon="4.64141">
        <ele>619.88947</ele>
        <time>2023-07-07T16:07:49.000Z</time>
      </trkpt>
      <trkpt lat="45.78322" lon="4.64144">
        <ele>620.12195</ele>
        <time>2023-07-07T16:07:56.000Z</time>
      </trkpt>
      <trkpt lat="45.78325" lon="4.64146">
        <ele>620.32684</ele>
        <time>2023-07-07T16:08:26.000Z</time>
      </trkpt>
      <trkpt lat="45.78325" lon="4.6415">
        <ele>620.60541</ele>
        <time>2023-07-07T16:08:28.000Z</time>
      </trkpt>
      <trkpt lat="45.78324" lon="4.64152">
        <ele>620.85571</ele>
        <time>2023-07-07T16:08:31.000Z</time>
      </trkpt>
      <trkpt lat="45.78324" lon="4.64155">
        <ele>620.85468</ele>
        <time>2023-07-07T16:08:32.000Z</time>
      </trkpt>
      <trkpt lat="45.78322" lon="4.64158">
        <ele>620.88373</ele>
        <time>2023-07-07T16:08:34.000Z</time>
      </trkpt>
      <trkpt lat="45.7832" lon="4.6416">
        <ele>621.20703</ele>
        <time>2023-07-07T16:08:37.000Z</time>
      </trkpt>
      <trkpt lat="45.7832" lon="4.64166">
        <ele>621.44476</ele>
        <time>2023-07-07T16:08:39.000Z</time>
      </trkpt>
      <trkpt lat="45.7832" lon="4.64169">
        <ele>621.72131</ele>
        <time>2023-07-07T16:08:40.000Z</time>
      </trkpt>
      <trkpt lat="45.78319" lon="4.64173">
        <ele>621.99731</ele>
        <time>2023-07-07T16:08:41.000Z</time>
      </trkpt>
      <trkpt lat="45.78319" lon="4.64177">
        <ele>622.24817</ele>
        <time>2023-07-07T16:08:43.000Z</time>
      </trkpt>
      <trkpt lat="45.78319" lon="4.6418">
        <ele>622.48328</ele>
        <time>2023-07-07T16:08:45.000Z</time>
      </trkpt>
      <trkpt lat="45.78319" lon="4.64182">
        <ele>622.70917</ele>
        <time>2023-07-07T16:08:46.000Z</time>
      </trkpt>
      <trkpt lat="45.78318" lon="4.64185">
        <ele>623.04895</ele>
        <time>2023-07-07T16:08:47.000Z</time>
      </trkpt>
      <trkpt lat="45.78318" lon="4.64188">
        <ele>623.32703</ele>
        <time>2023-07-07T16:08:48.000Z</time>
      </trkpt>
      <trkpt lat="45.78317" lon="4.64191">
        <ele>623.56433</ele>
        <time>2023-07-07T16:08:49.000Z</time>
      </trkpt>
      <trkpt lat="45.78314" lon="4.64192">
        <ele>623.85529</ele>
        <time>2023-07-07T16:08:51.000Z</time>
      </trkpt>
      <trkpt lat="45.78312" lon="4.64194">
        <ele>624.14154</ele>
        <time>2023-07-07T16:08:53.000Z</time>
      </trkpt>
      <trkpt lat="45.78311" lon="4.64197">
        <ele>624.44775</ele>
        <time>2023-07-07T16:08:55.000Z</time>
      </trkpt>
      <trkpt lat="45.78311" lon="4.64199">
        <ele>624.74963</ele>
        <time>2023-07-07T16:08:58.000Z</time>
      </trkpt>
      <trkpt lat="45.78312" lon="4.64202">
        <ele>624.8443</ele>
        <time>2023-07-07T16:09:04.000Z</time>
      </trkpt>
      <trkpt lat="45.78311" lon="4.64205">
        <ele>624.97528</ele>
        <time>2023-07-07T16:09:09.000Z</time>
      </trkpt>
      <trkpt lat="45.78309" lon="4.64206">
        <ele>625.03748</ele>
        <time>2023-07-07T16:09:14.000Z</time>
      </trkpt>
      <trkpt lat="45.7831" lon="4.64208">
        <ele>624.98291</ele>
        <time>2023-07-07T16:09:19.000Z</time>
      </trkpt>
      <trkpt lat="45.7831" lon="4.64211">
        <ele>625.03613</ele>
        <time>2023-07-07T16:09:34.000Z</time>
      </trkpt>
      <trkpt lat="45.78309" lon="4.64214">
        <ele>625.13434</ele>
        <time>2023-07-07T16:09:37.000Z</time>
      </trkpt>
      <trkpt lat="45.78308" lon="4.64217">
        <ele>625.01593</ele>
        <time>2023-07-07T16:09:39.000Z</time>
      </trkpt>
      <trkpt lat="45.78306" lon="4.64218">
        <ele>624.87964</ele>
        <time>2023-07-07T16:09:41.000Z</time>
      </trkpt>
      <trkpt lat="45.78307" lon="4.64221">
        <ele>624.71692</ele>
        <time>2023-07-07T16:09:51.000Z</time>
      </trkpt>
      <trkpt lat="45.78307" lon="4.64224">
        <ele>624.4718</ele>
        <time>2023-07-07T16:09:53.000Z</time>
      </trkpt>
      <trkpt lat="45.78306" lon="4.64226">
        <ele>624.21234</ele>
        <time>2023-07-07T16:09:54.000Z</time>
      </trkpt>
      <trkpt lat="45.78306" lon="4.64229">
        <ele>624.26379</ele>
        <time>2023-07-07T16:09:56.000Z</time>
      </trkpt>
      <trkpt lat="45.78304" lon="4.64232">
        <ele>624.30176</ele>
        <time>2023-07-07T16:09:58.000Z</time>
      </trkpt>
      <trkpt lat="45.78302" lon="4.64235">
        <ele>624.30359</ele>
        <time>2023-07-07T16:09:59.000Z</time>
      </trkpt>
      <trkpt lat="45.78301" lon="4.64237">
        <ele>624.37976</ele>
        <time>2023-07-07T16:10:00.000Z</time>
      </trkpt>
      <trkpt lat="45.783" lon="4.64241">
        <ele>624.49744</ele>
        <time>2023-07-07T16:10:02.000Z</time>
      </trkpt>
      <trkpt lat="45.783" lon="4.64244">
        <ele>624.57751</ele>
        <time>2023-07-07T16:10:03.000Z</time>
      </trkpt>
      <trkpt lat="45.78302" lon="4.64247">
        <ele>624.6488</ele>
        <time>2023-07-07T16:10:04.000Z</time>
      </trkpt>
      <trkpt lat="45.78303" lon="4.6425">
        <ele>624.5871</ele>
        <time>2023-07-07T16:10:05.000Z</time>
      </trkpt>
      <trkpt lat="45.78304" lon="4.64254">
        <ele>624.42303</ele>
        <time>2023-07-07T16:10:06.000Z</time>
      </trkpt>
      <trkpt lat="45.78304" lon="4.64257">
        <ele>624.24127</ele>
        <time>2023-07-07T16:10:07.000Z</time>
      </trkpt>
      <trkpt lat="45.78305" lon="4.64261">
        <ele>624.16736</ele>
        <time>2023-07-07T16:10:08.000Z</time>
      </trkpt>
      <trkpt lat="45.78306" lon="4.64265">
        <ele>624.04211</ele>
        <time>2023-07-07T16:10:09.000Z</time>
      </trkpt>
      <trkpt lat="45.78306" lon="4.64269">
        <ele>623.91418</ele>
        <time>2023-07-07T16:10:10.000Z</time>
      </trkpt>
      <trkpt lat="45.78306" lon="4.64273">
        <ele>623.86493</ele>
        <time>2023-07-07T16:10:11.000Z</time>
      </trkpt>
      <trkpt lat="45.78306" lon="4.64278">
        <ele>623.78094</ele>
        <time>2023-07-07T16:10:12.000Z</time>
      </trkpt>
      <trkpt lat="45.78307" lon="4.64281">
        <ele>623.63104</ele>
        <time>2023-07-07T16:10:13.000Z</time>
      </trkpt>
      <trkpt lat="45.78307" lon="4.64285">
        <ele>623.57312</ele>
        <time>2023-07-07T16:10:14.000Z</time>
      </trkpt>
      <trkpt lat="45.78308" lon="4.64288">
        <ele>623.51831</ele>
        <time>2023-07-07T16:10:15.000Z</time>
      </trkpt>
      <trkpt lat="45.78308" lon="4.64291">
        <ele>623.58618</ele>
        <time>2023-07-07T16:10:16.000Z</time>
      </trkpt>
      <trkpt lat="45.78308" lon="4.64294">
        <ele>623.67712</ele>
        <time>2023-07-07T16:10:17.000Z</time>
      </trkpt>
      <trkpt lat="45.78308" lon="4.64297">
        <ele>623.52032</ele>
        <time>2023-07-07T16:10:19.000Z</time>
      </trkpt>
      <trkpt lat="45.78309" lon="4.643">
        <ele>621.9762</ele>
        <time>2023-07-07T16:10:31.000Z</time>
      </trkpt>
      <trkpt lat="45.78311" lon="4.64303">
        <ele>620.35999</ele>
        <time>2023-07-07T16:10:32.000Z</time>
      </trkpt>
      <trkpt lat="45.78312" lon="4.64306">
        <ele>618.90131</ele>
        <time>2023-07-07T16:10:33.000Z</time>
      </trkpt>
      <trkpt lat="45.78314" lon="4.6431">
        <ele>617.36713</ele>
        <time>2023-07-07T16:10:34.000Z</time>
      </trkpt>
      <trkpt lat="45.78315" lon="4.64313">
        <ele>616.88611</ele>
        <time>2023-07-07T16:10:35.000Z</time>
      </trkpt>
      <trkpt lat="45.78317" lon="4.64317">
        <ele>616.38831</ele>
        <time>2023-07-07T16:10:36.000Z</time>
      </trkpt>
      <trkpt lat="45.78321" lon="4.64326">
        <ele>615.95129</ele>
        <time>2023-07-07T16:10:37.000Z</time>
      </trkpt>
      <trkpt lat="45.78324" lon="4.6433">
        <ele>615.57617</ele>
        <time>2023-07-07T16:10:38.000Z</time>
      </trkpt>
      <trkpt lat="45.78326" lon="4.64335">
        <ele>615.24652</ele>
        <time>2023-07-07T16:10:39.000Z</time>
      </trkpt>
      <trkpt lat="45.78326" lon="4.64338">
        <ele>604.60358</ele>
        <time>2023-07-07T16:10:40.000Z</time>
      </trkpt>
      <trkpt lat="45.78326" lon="4.64342">
        <ele>603.65125</ele>
        <time>2023-07-07T16:10:41.000Z</time>
      </trkpt>
      <trkpt lat="45.78322" lon="4.64344">
        <ele>602.70984</ele>
        <time>2023-07-07T16:10:42.000Z</time>
      </trkpt>
      <trkpt lat="45.7832" lon="4.64347">
        <ele>601.79858</ele>
        <time>2023-07-07T16:10:43.000Z</time>
      </trkpt>
      <trkpt lat="45.78319" lon="4.6435">
        <ele>600.8316</ele>
        <time>2023-07-07T16:10:45.000Z</time>
      </trkpt>
      <trkpt lat="45.78319" lon="4.64357">
        <ele>589.61536</ele>
        <time>2023-07-07T16:10:46.000Z</time>
      </trkpt>
      <trkpt lat="45.78317" lon="4.64362">
        <ele>588.04559</ele>
        <time>2023-07-07T16:10:47.000Z</time>
      </trkpt>
      <trkpt lat="45.78316" lon="4.64364">
        <ele>586.40759</ele>
        <time>2023-07-07T16:10:48.000Z</time>
      </trkpt>
      <trkpt lat="45.78314" lon="4.64366">
        <ele>584.63928</ele>
        <time>2023-07-07T16:10:49.000Z</time>
      </trkpt>
      <trkpt lat="45.78312" lon="4.64368">
        <ele>582.78406</ele>
        <time>2023-07-07T16:10:50.000Z</time>
      </trkpt>
      <trkpt lat="45.78311" lon="4.64371">
        <ele>580.79401</ele>
        <time>2023-07-07T16:10:51.000Z</time>
      </trkpt>
      <trkpt lat="45.7831" lon="4.64376">
        <ele>570.66589</ele>
        <time>2023-07-07T16:10:52.000Z</time>
      </trkpt>
      <trkpt lat="45.78309" lon="4.6438">
        <ele>569.52081</ele>
        <time>2023-07-07T16:10:53.000Z</time>
      </trkpt>
      <trkpt lat="45.7831" lon="4.64384">
        <ele>568.14484</ele>
        <time>2023-07-07T16:10:54.000Z</time>
      </trkpt>
      <trkpt lat="45.78311" lon="4.64389">
        <ele>566.76575</ele>
        <time>2023-07-07T16:10:55.000Z</time>
      </trkpt>
      <trkpt lat="45.78312" lon="4.64393">
        <ele>564.23566</ele>
        <time>2023-07-07T16:10:56.000Z</time>
      </trkpt>
      <trkpt lat="45.78313" lon="4.64397">
        <ele>561.60315</ele>
        <time>2023-07-07T16:10:57.000Z</time>
      </trkpt>
      <trkpt lat="45.78316" lon="4.64401">
        <ele>548.59143</ele>
        <time>2023-07-07T16:10:58.000Z</time>
      </trkpt>
      <trkpt lat="45.78317" lon="4.64404">
        <ele>545.22345</ele>
        <time>2023-07-07T16:10:59.000Z</time>
      </trkpt>
      <trkpt lat="45.78317" lon="4.64407">
        <ele>541.70581</ele>
        <time>2023-07-07T16:11:00.000Z</time>
      </trkpt>
      <trkpt lat="45.78318" lon="4.6441">
        <ele>548.20306</ele>
        <time>2023-07-07T16:11:01.000Z</time>
      </trkpt>
      <trkpt lat="45.78319" lon="4.64412">
        <ele>545.38306</ele>
        <time>2023-07-07T16:11:03.000Z</time>
      </trkpt>
      <trkpt lat="45.78321" lon="4.64412">
        <ele>540.03162</ele>
        <time>2023-07-07T16:11:08.000Z</time>
      </trkpt>
      <trkpt lat="45.78321" lon="4.64415">
        <ele>540.77258</ele>
        <time>2023-07-07T16:11:36.000Z</time>
      </trkpt>
      <trkpt lat="45.7832" lon="4.64416">
        <ele>537.72125</ele>
        <time>2023-07-07T16:11:37.000Z</time>
      </trkpt>
      <trkpt lat="45.78317" lon="4.64418">
        <ele>544.75543</ele>
        <time>2023-07-07T16:11:38.000Z</time>
      </trkpt>
      <trkpt lat="45.78316" lon="4.6442">
        <ele>542.51245</ele>
        <time>2023-07-07T16:11:39.000Z</time>
      </trkpt>
      <trkpt lat="45.78314" lon="4.64423">
        <ele>540.23578</ele>
        <time>2023-07-07T16:11:40.000Z</time>
      </trkpt>
      <trkpt lat="45.78312" lon="4.64426">
        <ele>537.92719</ele>
        <time>2023-07-07T16:11:41.000Z</time>
      </trkpt>
      <trkpt lat="45.78311" lon="4.64429">
        <ele>540.13788</ele>
        <time>2023-07-07T16:11:43.000Z</time>
      </trkpt>
      <trkpt lat="45.78309" lon="4.64431">
        <ele>538.00555</ele>
        <time>2023-07-07T16:11:45.000Z</time>
      </trkpt>
      <trkpt lat="45.78309" lon="4.64434">
        <ele>550.34772</ele>
        <time>2023-07-07T16:11:50.000Z</time>
      </trkpt>
      <trkpt lat="45.78308" lon="4.64436">
        <ele>549.33179</ele>
        <time>2023-07-07T16:11:52.000Z</time>
      </trkpt>
      <trkpt lat="45.78307" lon="4.64439">
        <ele>548.32239</ele>
        <time>2023-07-07T16:11:55.000Z</time>
      </trkpt>
      <trkpt lat="45.78305" lon="4.64439">
        <ele>551.79285</ele>
        <time>2023-07-07T16:11:58.000Z</time>
      </trkpt>
      <trkpt lat="45.78304" lon="4.64437">
        <ele>553.14764</ele>
        <time>2023-07-07T16:12:05.000Z</time>
      </trkpt>
      <trkpt lat="45.78303" lon="4.64434">
        <ele>552.59326</ele>
        <time>2023-07-07T16:12:09.000Z</time>
      </trkpt>
      <trkpt lat="45.78302" lon="4.64432">
        <ele>566.4798</ele>
        <time>2023-07-07T16:12:11.000Z</time>
      </trkpt>
      <trkpt lat="45.78299" lon="4.64432">
        <ele>567.37415</ele>
        <time>2023-07-07T16:12:13.000Z</time>
      </trkpt>
      <trkpt lat="45.78297" lon="4.64432">
        <ele>568.48169</ele>
        <time>2023-07-07T16:12:14.000Z</time>
      </trkpt>
      <trkpt lat="45.78295" lon="4.6443">
        <ele>569.82043</ele>
        <time>2023-07-07T16:12:16.000Z</time>
      </trkpt>
      <trkpt lat="45.78297" lon="4.64428">
        <ele>574.33514</ele>
        <time>2023-07-07T16:12:20.000Z</time>
      </trkpt>
      <trkpt lat="45.78295" lon="4.64426">
        <ele>578.22083</ele>
        <time>2023-07-07T16:12:23.000Z</time>
      </trkpt>
      <trkpt lat="45.78293" lon="4.64427">
        <ele>579.25714</ele>
        <time>2023-07-07T16:12:35.000Z</time>
      </trkpt>
      <trkpt lat="45.78292" lon="4.6443">
        <ele>584.12756</ele>
        <time>2023-07-07T16:12:59.000Z</time>
      </trkpt>
      <trkpt lat="45.78293" lon="4.64433">
        <ele>586.44788</ele>
        <time>2023-07-07T16:13:02.000Z</time>
      </trkpt>
      <trkpt lat="45.78295" lon="4.64435">
        <ele>588.53247</ele>
        <time>2023-07-07T16:13:04.000Z</time>
      </trkpt>
      <trkpt lat="45.78296" lon="4.64439">
        <ele>584.5625</ele>
        <time>2023-07-07T16:13:06.000Z</time>
      </trkpt>
      <trkpt lat="45.78297" lon="4.64441">
        <ele>586.77887</ele>
        <time>2023-07-07T16:13:08.000Z</time>
      </trkpt>
      <trkpt lat="45.78297" lon="4.64444">
        <ele>581.14221</ele>
        <time>2023-07-07T16:13:13.000Z</time>
      </trkpt>
      <trkpt lat="45.78299" lon="4.64445">
        <ele>585.45599</ele>
        <time>2023-07-07T16:13:21.000Z</time>
      </trkpt>
      <trkpt lat="45.78301" lon="4.64444">
        <ele>582.79871</ele>
        <time>2023-07-07T16:13:23.000Z</time>
      </trkpt>
      <trkpt lat="45.78303" lon="4.64443">
        <ele>584.42126</ele>
        <time>2023-07-07T16:13:24.000Z</time>
      </trkpt>
      <trkpt lat="45.78306" lon="4.64443">
        <ele>586.17566</ele>
        <time>2023-07-07T16:13:25.000Z</time>
      </trkpt>
      <trkpt lat="45.78307" lon="4.64442">
        <ele>583.60681</ele>
        <time>2023-07-07T16:13:26.000Z</time>
      </trkpt>
      <trkpt lat="45.78309" lon="4.64441">
        <ele>585.10083</ele>
        <time>2023-07-07T16:13:27.000Z</time>
      </trkpt>
      <trkpt lat="45.78311" lon="4.64439">
        <ele>586.69849</ele>
        <time>2023-07-07T16:13:28.000Z</time>
      </trkpt>
      <trkpt lat="45.78314" lon="4.6444">
        <ele>584.33917</ele>
        <time>2023-07-07T16:13:29.000Z</time>
      </trkpt>
      <trkpt lat="45.78316" lon="4.64443">
        <ele>585.23212</ele>
        <time>2023-07-07T16:13:30.000Z</time>
      </trkpt>
      <trkpt lat="45.78318" lon="4.64445">
        <ele>586.12506</ele>
        <time>2023-07-07T16:13:31.000Z</time>
      </trkpt>
      <trkpt lat="45.7832" lon="4.64449">
        <ele>588.75928</ele>
        <time>2023-07-07T16:13:33.000Z</time>
      </trkpt>
      <trkpt lat="45.78322" lon="4.64451">
        <ele>586.27234</ele>
        <time>2023-07-07T16:13:35.000Z</time>
      </trkpt>
      <trkpt lat="45.78324" lon="4.64451">
        <ele>586.86926</ele>
        <time>2023-07-07T16:13:37.000Z</time>
      </trkpt>
      <trkpt lat="45.78326" lon="4.64452">
        <ele>586.27802</ele>
        <time>2023-07-07T16:13:42.000Z</time>
      </trkpt>
      <trkpt lat="45.78327" lon="4.64456">
        <ele>585.64514</ele>
        <time>2023-07-07T16:13:52.000Z</time>
      </trkpt>
      <trkpt lat="45.78327" lon="4.64459">
        <ele>585.72107</ele>
        <time>2023-07-07T16:13:53.000Z</time>
      </trkpt>
      <trkpt lat="45.78328" lon="4.64463">
        <ele>585.68469</ele>
        <time>2023-07-07T16:13:54.000Z</time>
      </trkpt>
      <trkpt lat="45.78328" lon="4.64466">
        <ele>591.81323</ele>
        <time>2023-07-07T16:13:55.000Z</time>
      </trkpt>
      <trkpt lat="45.78329" lon="4.6447">
        <ele>592.17578</ele>
        <time>2023-07-07T16:13:57.000Z</time>
      </trkpt>
      <trkpt lat="45.7833" lon="4.64473">
        <ele>597.72412</ele>
        <time>2023-07-07T16:13:58.000Z</time>
      </trkpt>
      <trkpt lat="45.78332" lon="4.64478">
        <ele>597.68597</ele>
        <time>2023-07-07T16:13:59.000Z</time>
      </trkpt>
      <trkpt lat="45.78333" lon="4.6448">
        <ele>599.77869</ele>
        <time>2023-07-07T16:14:00.000Z</time>
      </trkpt>
      <trkpt lat="45.78335" lon="4.64483">
        <ele>601.87885</ele>
        <time>2023-07-07T16:14:02.000Z</time>
      </trkpt>
      <trkpt lat="45.78335" lon="4.64487">
        <ele>603.87366</ele>
        <time>2023-07-07T16:14:04.000Z</time>
      </trkpt>
      <trkpt lat="45.78335" lon="4.64491">
        <ele>605.81995</ele>
        <time>2023-07-07T16:14:06.000Z</time>
      </trkpt>
      <trkpt lat="45.78337" lon="4.64496">
        <ele>605.79694</ele>
        <time>2023-07-07T16:14:08.000Z</time>
      </trkpt>
      <trkpt lat="45.78339" lon="4.64498">
        <ele>607.70062</ele>
        <time>2023-07-07T16:14:09.000Z</time>
      </trkpt>
      <trkpt lat="45.7834" lon="4.645">
        <ele>608.75073</ele>
        <time>2023-07-07T16:14:11.000Z</time>
      </trkpt>
      <trkpt lat="45.78342" lon="4.64502">
        <ele>609.97131</ele>
        <time>2023-07-07T16:14:13.000Z</time>
      </trkpt>
      <trkpt lat="45.78342" lon="4.64505">
        <ele>603.50385</ele>
        <time>2023-07-07T16:14:17.000Z</time>
      </trkpt>
      <trkpt lat="45.78343" lon="4.64509">
        <ele>603.66278</ele>
        <time>2023-07-07T16:14:21.000Z</time>
      </trkpt>
      <trkpt lat="45.78344" lon="4.64512">
        <ele>605.42639</ele>
        <time>2023-07-07T16:14:22.000Z</time>
      </trkpt>
      <trkpt lat="45.78345" lon="4.64516">
        <ele>607.3385</ele>
        <time>2023-07-07T16:14:23.000Z</time>
      </trkpt>
      <trkpt lat="45.78346" lon="4.6452">
        <ele>607.22687</ele>
        <time>2023-07-07T16:14:24.000Z</time>
      </trkpt>
      <trkpt lat="45.78346" lon="4.64524">
        <ele>607.15735</ele>
        <time>2023-07-07T16:14:25.000Z</time>
      </trkpt>
      <trkpt lat="45.78346" lon="4.64528">
        <ele>609.08044</ele>
        <time>2023-07-07T16:14:26.000Z</time>
      </trkpt>
      <trkpt lat="45.78347" lon="4.64533">
        <ele>611.00513</ele>
        <time>2023-07-07T16:14:27.000Z</time>
      </trkpt>
      <trkpt lat="45.78347" lon="4.64536">
        <ele>612.92548</ele>
        <time>2023-07-07T16:14:28.000Z</time>
      </trkpt>
      <trkpt lat="45.78347" lon="4.6454">
        <ele>614.4718</ele>
        <time>2023-07-07T16:14:29.000Z</time>
      </trkpt>
      <trkpt lat="45.78347" lon="4.64542">
        <ele>614.23718</ele>
        <time>2023-07-07T16:14:30.000Z</time>
      </trkpt>
      <trkpt lat="45.78347" lon="4.64545">
        <ele>614.14685</ele>
        <time>2023-07-07T16:14:35.000Z</time>
      </trkpt>
      <trkpt lat="45.78347" lon="4.64548">
        <ele>613.96466</ele>
        <time>2023-07-07T16:14:36.000Z</time>
      </trkpt>
      <trkpt lat="45.78348" lon="4.64551">
        <ele>613.91846</ele>
        <time>2023-07-07T16:14:37.000Z</time>
      </trkpt>
      <trkpt lat="45.78349" lon="4.64554">
        <ele>613.88611</ele>
        <time>2023-07-07T16:14:38.000Z</time>
      </trkpt>
      <trkpt lat="45.78349" lon="4.64558">
        <ele>613.81451</ele>
        <time>2023-07-07T16:14:39.000Z</time>
      </trkpt>
      <trkpt lat="45.7835" lon="4.64563">
        <ele>613.83057</ele>
        <time>2023-07-07T16:14:40.000Z</time>
      </trkpt>
      <trkpt lat="45.7835" lon="4.64567">
        <ele>613.81934</ele>
        <time>2023-07-07T16:14:41.000Z</time>
      </trkpt>
      <trkpt lat="45.7835" lon="4.64571">
        <ele>614.58331</ele>
        <time>2023-07-07T16:14:42.000Z</time>
      </trkpt>
      <trkpt lat="45.78351" lon="4.64575">
        <ele>615.29785</ele>
        <time>2023-07-07T16:14:43.000Z</time>
      </trkpt>
      <trkpt lat="45.78352" lon="4.64579">
        <ele>623.68481</ele>
        <time>2023-07-07T16:14:44.000Z</time>
      </trkpt>
      <trkpt lat="45.78354" lon="4.64583">
        <ele>623.59875</ele>
        <time>2023-07-07T16:14:45.000Z</time>
      </trkpt>
      <trkpt lat="45.78356" lon="4.64586">
        <ele>623.50024</ele>
        <time>2023-07-07T16:14:46.000Z</time>
      </trkpt>
      <trkpt lat="45.78357" lon="4.64591">
        <ele>623.45441</ele>
        <time>2023-07-07T16:14:47.000Z</time>
      </trkpt>
      <trkpt lat="45.78358" lon="4.64595">
        <ele>623.44501</ele>
        <time>2023-07-07T16:14:48.000Z</time>
      </trkpt>
      <trkpt lat="45.78358" lon="4.646">
        <ele>623.47839</ele>
        <time>2023-07-07T16:14:49.000Z</time>
      </trkpt>
      <trkpt lat="45.78357" lon="4.64604">
        <ele>623.58234</ele>
        <time>2023-07-07T16:14:50.000Z</time>
      </trkpt>
      <trkpt lat="45.78355" lon="4.64605">
        <ele>623.69763</ele>
        <time>2023-07-07T16:14:51.000Z</time>
      </trkpt>
      <trkpt lat="45.78353" lon="4.64606">
        <ele>623.83337</ele>
        <time>2023-07-07T16:14:52.000Z</time>
      </trkpt>
      <trkpt lat="45.7835" lon="4.64606">
        <ele>623.888</ele>
        <time>2023-07-07T16:14:54.000Z</time>
      </trkpt>
      <trkpt lat="45.78347" lon="4.64609">
        <ele>623.96259</ele>
        <time>2023-07-07T16:14:56.000Z</time>
      </trkpt>
      <trkpt lat="45.78344" lon="4.64611">
        <ele>623.96857</ele>
        <time>2023-07-07T16:14:57.000Z</time>
      </trkpt>
      <trkpt lat="45.78342" lon="4.64613">
        <ele>616.11609</ele>
        <time>2023-07-07T16:14:58.000Z</time>
      </trkpt>
      <trkpt lat="45.7834" lon="4.64615">
        <ele>615.72791</ele>
        <time>2023-07-07T16:14:59.000Z</time>
      </trkpt>
      <trkpt lat="45.78338" lon="4.64618">
        <ele>615.33087</ele>
        <time>2023-07-07T16:15:00.000Z</time>
      </trkpt>
      <trkpt lat="45.78336" lon="4.6462">
        <ele>614.91394</ele>
        <time>2023-07-07T16:15:01.000Z</time>
      </trkpt>
      <trkpt lat="45.78334" lon="4.64623">
        <ele>614.47937</ele>
        <time>2023-07-07T16:15:02.000Z</time>
      </trkpt>
      <trkpt lat="45.78331" lon="4.64625">
        <ele>614.05585</ele>
        <time>2023-07-07T16:15:03.000Z</time>
      </trkpt>
      <trkpt lat="45.78329" lon="4.64627">
        <ele>606.93579</ele>
        <time>2023-07-07T16:15:04.000Z</time>
      </trkpt>
      <trkpt lat="45.78327" lon="4.6463">
        <ele>606.13049</ele>
        <time>2023-07-07T16:15:05.000Z</time>
      </trkpt>
      <trkpt lat="45.78325" lon="4.64632">
        <ele>605.25592</ele>
        <time>2023-07-07T16:15:06.000Z</time>
      </trkpt>
      <trkpt lat="45.78322" lon="4.64636">
        <ele>604.38751</ele>
        <time>2023-07-07T16:15:07.000Z</time>
      </trkpt>
      <trkpt lat="45.78318" lon="4.6464">
        <ele>603.50385</ele>
        <time>2023-07-07T16:15:08.000Z</time>
      </trkpt>
      <trkpt lat="45.78315" lon="4.64644">
        <ele>602.49915</ele>
        <time>2023-07-07T16:15:09.000Z</time>
      </trkpt>
      <trkpt lat="45.78312" lon="4.64648">
        <ele>592.62506</ele>
        <time>2023-07-07T16:15:10.000Z</time>
      </trkpt>
      <trkpt lat="45.78309" lon="4.64651">
        <ele>591.01624</ele>
        <time>2023-07-07T16:15:11.000Z</time>
      </trkpt>
      <trkpt lat="45.78307" lon="4.64653">
        <ele>589.25775</ele>
        <time>2023-07-07T16:15:12.000Z</time>
      </trkpt>
      <trkpt lat="45.78303" lon="4.64656">
        <ele>587.39465</ele>
        <time>2023-07-07T16:15:13.000Z</time>
      </trkpt>
      <trkpt lat="45.783" lon="4.64659">
        <ele>585.42407</ele>
        <time>2023-07-07T16:15:14.000Z</time>
      </trkpt>
      <trkpt lat="45.78297" lon="4.64661">
        <ele>583.5036</ele>
        <time>2023-07-07T16:15:15.000Z</time>
      </trkpt>
      <trkpt lat="45.78295" lon="4.64663">
        <ele>574.55072</ele>
        <time>2023-07-07T16:15:17.000Z</time>
      </trkpt>
      <trkpt lat="45.78296" lon="4.64665">
        <ele>572.08014</ele>
        <time>2023-07-07T16:15:22.000Z</time>
      </trkpt>
      <trkpt lat="45.78296" lon="4.64668">
        <ele>579.95813</ele>
        <time>2023-07-07T16:15:27.000Z</time>
      </trkpt>
      <trkpt lat="45.78296" lon="4.64672">
        <ele>580.40765</ele>
        <time>2023-07-07T16:15:46.000Z</time>
      </trkpt>
      <trkpt lat="45.78296" lon="4.64674">
        <ele>578.64166</ele>
        <time>2023-07-07T16:15:47.000Z</time>
      </trkpt>
      <trkpt lat="45.78296" lon="4.64678">
        <ele>576.80719</ele>
        <time>2023-07-07T16:15:48.000Z</time>
      </trkpt>
      <trkpt lat="45.78297" lon="4.64681">
        <ele>574.90186</ele>
        <time>2023-07-07T16:15:49.000Z</time>
      </trkpt>
      <trkpt lat="45.78298" lon="4.64685">
        <ele>572.92297</ele>
        <time>2023-07-07T16:15:50.000Z</time>
      </trkpt>
      <trkpt lat="45.783" lon="4.64688">
        <ele>577.54016</ele>
        <time>2023-07-07T16:15:51.000Z</time>
      </trkpt>
      <trkpt lat="45.78301" lon="4.64691">
        <ele>578.6236</ele>
        <time>2023-07-07T16:15:52.000Z</time>
      </trkpt>
      <trkpt lat="45.78302" lon="4.64693">
        <ele>577.24823</ele>
        <time>2023-07-07T16:15:53.000Z</time>
      </trkpt>
      <trkpt lat="45.78304" lon="4.64696">
        <ele>575.84784</ele>
        <time>2023-07-07T16:15:54.000Z</time>
      </trkpt>
      <trkpt lat="45.78305" lon="4.64698">
        <ele>574.42084</ele>
        <time>2023-07-07T16:15:55.000Z</time>
      </trkpt>
      <trkpt lat="45.78307" lon="4.64701">
        <ele>572.96667</ele>
        <time>2023-07-07T16:15:56.000Z</time>
      </trkpt>
      <trkpt lat="45.78308" lon="4.64703">
        <ele>580.28857</ele>
        <time>2023-07-07T16:15:57.000Z</time>
      </trkpt>
      <trkpt lat="45.7831" lon="4.64706">
        <ele>581.90674</ele>
        <time>2023-07-07T16:15:58.000Z</time>
      </trkpt>
      <trkpt lat="45.78312" lon="4.64709">
        <ele>581.45129</ele>
        <time>2023-07-07T16:15:59.000Z</time>
      </trkpt>
      <trkpt lat="45.78314" lon="4.64712">
        <ele>581.06091</ele>
        <time>2023-07-07T16:16:00.000Z</time>
      </trkpt>
      <trkpt lat="45.78317" lon="4.64714">
        <ele>580.74426</ele>
        <time>2023-07-07T16:16:01.000Z</time>
      </trkpt>
      <trkpt lat="45.78319" lon="4.64716">
        <ele>580.51025</ele>
        <time>2023-07-07T16:16:02.000Z</time>
      </trkpt>
      <trkpt lat="45.78321" lon="4.64718">
        <ele>587.29425</ele>
        <time>2023-07-07T16:16:03.000Z</time>
      </trkpt>
      <trkpt lat="45.78324" lon="4.64721">
        <ele>585.67712</ele>
        <time>2023-07-07T16:16:04.000Z</time>
      </trkpt>
      <trkpt lat="45.78326" lon="4.64726">
        <ele>583.7522</ele>
        <time>2023-07-07T16:16:05.000Z</time>
      </trkpt>
      <trkpt lat="45.78328" lon="4.64731">
        <ele>581.68445</ele>
        <time>2023-07-07T16:16:06.000Z</time>
      </trkpt>
      <trkpt lat="45.78331" lon="4.64736">
        <ele>581.74829</ele>
        <time>2023-07-07T16:16:07.000Z</time>
      </trkpt>
      <trkpt lat="45.78333" lon="4.6474">
        <ele>581.90363</ele>
        <time>2023-07-07T16:16:08.000Z</time>
      </trkpt>
      <trkpt lat="45.78336" lon="4.64744">
        <ele>582.15839</ele>
        <time>2023-07-07T16:16:09.000Z</time>
      </trkpt>
      <trkpt lat="45.78339" lon="4.64749">
        <ele>580.27173</ele>
        <time>2023-07-07T16:16:10.000Z</time>
      </trkpt>
      <trkpt lat="45.78343" lon="4.64753">
        <ele>580.63916</ele>
        <time>2023-07-07T16:16:11.000Z</time>
      </trkpt>
      <trkpt lat="45.78346" lon="4.64756">
        <ele>578.24091</ele>
        <time>2023-07-07T16:16:12.000Z</time>
      </trkpt>
      <trkpt lat="45.78348" lon="4.6476">
        <ele>578.2218</ele>
        <time>2023-07-07T16:16:13.000Z</time>
      </trkpt>
      <trkpt lat="45.78351" lon="4.64764">
        <ele>578.27045</ele>
        <time>2023-07-07T16:16:14.000Z</time>
      </trkpt>
      <trkpt lat="45.78352" lon="4.64768">
        <ele>578.3916</ele>
        <time>2023-07-07T16:16:15.000Z</time>
      </trkpt>
      <trkpt lat="45.78354" lon="4.64773">
        <ele>574.89978</ele>
        <time>2023-07-07T16:16:16.000Z</time>
      </trkpt>
      <trkpt lat="45.78356" lon="4.64778">
        <ele>574.9964</ele>
        <time>2023-07-07T16:16:17.000Z</time>
      </trkpt>
      <trkpt lat="45.78359" lon="4.64785">
        <ele>572.49677</ele>
        <time>2023-07-07T16:16:18.000Z</time>
      </trkpt>
      <trkpt lat="45.78362" lon="4.64795">
        <ele>572.02631</ele>
        <time>2023-07-07T16:16:19.000Z</time>
      </trkpt>
      <trkpt lat="45.78364" lon="4.64801">
        <ele>571.55505</ele>
        <time>2023-07-07T16:16:20.000Z</time>
      </trkpt>
      <trkpt lat="45.78366" lon="4.64807">
        <ele>571.07977</ele>
        <time>2023-07-07T16:16:21.000Z</time>
      </trkpt>
      <trkpt lat="45.78367" lon="4.64811">
        <ele>567.26056</ele>
        <time>2023-07-07T16:16:22.000Z</time>
      </trkpt>
      <trkpt lat="45.78367" lon="4.64817">
        <ele>566.59808</ele>
        <time>2023-07-07T16:16:23.000Z</time>
      </trkpt>
      <trkpt lat="45.78368" lon="4.64823">
        <ele>567.81757</ele>
        <time>2023-07-07T16:16:24.000Z</time>
      </trkpt>
      <trkpt lat="45.78368" lon="4.64826">
        <ele>566.92462</ele>
        <time>2023-07-07T16:16:25.000Z</time>
      </trkpt>
      <trkpt lat="45.78369" lon="4.64833">
        <ele>566.08325</ele>
        <time>2023-07-07T16:16:26.000Z</time>
      </trkpt>
      <trkpt lat="45.78369" lon="4.64838">
        <ele>565.30316</ele>
        <time>2023-07-07T16:16:27.000Z</time>
      </trkpt>
      <trkpt lat="45.7837" lon="4.64842">
        <ele>561.23529</ele>
        <time>2023-07-07T16:16:28.000Z</time>
      </trkpt>
      <trkpt lat="45.78371" lon="4.64845">
        <ele>560.2019</ele>
        <time>2023-07-07T16:16:29.000Z</time>
      </trkpt>
      <trkpt lat="45.78369" lon="4.64847">
        <ele>561.35358</ele>
        <time>2023-07-07T16:16:30.000Z</time>
      </trkpt>
      <trkpt lat="45.78368" lon="4.64852">
        <ele>560.40765</ele>
        <time>2023-07-07T16:16:31.000Z</time>
      </trkpt>
      <trkpt lat="45.78368" lon="4.64855">
        <ele>559.39606</ele>
        <time>2023-07-07T16:16:32.000Z</time>
      </trkpt>
      <trkpt lat="45.78368" lon="4.64859">
        <ele>558.4538</ele>
        <time>2023-07-07T16:16:33.000Z</time>
      </trkpt>
      <trkpt lat="45.78368" lon="4.64864">
        <ele>552.28406</ele>
        <time>2023-07-07T16:16:34.000Z</time>
      </trkpt>
      <trkpt lat="45.78369" lon="4.64871">
        <ele>550.98474</ele>
        <time>2023-07-07T16:16:35.000Z</time>
      </trkpt>
      <trkpt lat="45.7837" lon="4.64879">
        <ele>553.30481</ele>
        <time>2023-07-07T16:16:36.000Z</time>
      </trkpt>
      <trkpt lat="45.78371" lon="4.64884">
        <ele>552.22504</ele>
        <time>2023-07-07T16:16:37.000Z</time>
      </trkpt>
      <trkpt lat="45.78372" lon="4.64888">
        <ele>551.08649</ele>
        <time>2023-07-07T16:16:38.000Z</time>
      </trkpt>
      <trkpt lat="45.78373" lon="4.64891">
        <ele>550.01599</ele>
        <time>2023-07-07T16:16:39.000Z</time>
      </trkpt>
      <trkpt lat="45.78374" lon="4.64894">
        <ele>547.29626</ele>
        <time>2023-07-07T16:16:40.000Z</time>
      </trkpt>
      <trkpt lat="45.78374" lon="4.64899">
        <ele>546.08331</ele>
        <time>2023-07-07T16:16:41.000Z</time>
      </trkpt>
      <trkpt lat="45.78375" lon="4.64903">
        <ele>548.16949</ele>
        <time>2023-07-07T16:16:42.000Z</time>
      </trkpt>
      <trkpt lat="45.78377" lon="4.64907">
        <ele>547.21497</ele>
        <time>2023-07-07T16:16:43.000Z</time>
      </trkpt>
      <trkpt lat="45.78379" lon="4.64911">
        <ele>546.24579</ele>
        <time>2023-07-07T16:16:44.000Z</time>
      </trkpt>
      <trkpt lat="45.7838" lon="4.64914">
        <ele>545.16724</ele>
        <time>2023-07-07T16:16:45.000Z</time>
      </trkpt>
      <trkpt lat="45.78382" lon="4.64918">
        <ele>541.44287</ele>
        <time>2023-07-07T16:16:46.000Z</time>
      </trkpt>
      <trkpt lat="45.78383" lon="4.64923">
        <ele>540.21082</ele>
        <time>2023-07-07T16:16:47.000Z</time>
      </trkpt>
      <trkpt lat="45.78382" lon="4.64927">
        <ele>542.20184</ele>
        <time>2023-07-07T16:16:48.000Z</time>
      </trkpt>
      <trkpt lat="45.78382" lon="4.6493">
        <ele>541.25018</ele>
        <time>2023-07-07T16:16:49.000Z</time>
      </trkpt>
      <trkpt lat="45.78382" lon="4.64933">
        <ele>540.30261</ele>
        <time>2023-07-07T16:16:50.000Z</time>
      </trkpt>
      <trkpt lat="45.78382" lon="4.64936">
        <ele>534.995</ele>
        <time>2023-07-07T16:16:52.000Z</time>
      </trkpt>
      <trkpt lat="45.78382" lon="4.64939">
        <ele>529.3429</ele>
        <time>2023-07-07T16:17:00.000Z</time>
      </trkpt>
      <trkpt lat="45.78383" lon="4.64941">
        <ele>523.63824</ele>
        <time>2023-07-07T16:17:17.000Z</time>
      </trkpt>
      <trkpt lat="45.78384" lon="4.64944">
        <ele>527.0788</ele>
        <time>2023-07-07T16:17:20.000Z</time>
      </trkpt>
      <trkpt lat="45.78386" lon="4.64947">
        <ele>525.81854</ele>
        <time>2023-07-07T16:17:21.000Z</time>
      </trkpt>
      <trkpt lat="45.78388" lon="4.6495">
        <ele>524.56024</ele>
        <time>2023-07-07T16:17:22.000Z</time>
      </trkpt>
      <trkpt lat="45.78389" lon="4.64953">
        <ele>520.63495</ele>
        <time>2023-07-07T16:17:23.000Z</time>
      </trkpt>
      <trkpt lat="45.78391" lon="4.64957">
        <ele>519.05548</ele>
        <time>2023-07-07T16:17:24.000Z</time>
      </trkpt>
      <trkpt lat="45.78392" lon="4.6496">
        <ele>517.45392</ele>
        <time>2023-07-07T16:17:25.000Z</time>
      </trkpt>
      <trkpt lat="45.78394" lon="4.64962">
        <ele>517.44501</ele>
        <time>2023-07-07T16:17:26.000Z</time>
      </trkpt>
      <trkpt lat="45.78397" lon="4.64966">
        <ele>515.33063</ele>
        <time>2023-07-07T16:17:28.000Z</time>
      </trkpt>
      <trkpt lat="45.78398" lon="4.64968">
        <ele>512.91443</ele>
        <time>2023-07-07T16:17:29.000Z</time>
      </trkpt>
      <trkpt lat="45.784" lon="4.64972">
        <ele>509.82794</ele>
        <time>2023-07-07T16:17:31.000Z</time>
      </trkpt>
      <trkpt lat="45.78401" lon="4.64975">
        <ele>507.95859</ele>
        <time>2023-07-07T16:17:32.000Z</time>
      </trkpt>
      <trkpt lat="45.78402" lon="4.64978">
        <ele>506.04425</ele>
        <time>2023-07-07T16:17:34.000Z</time>
      </trkpt>
      <trkpt lat="45.78402" lon="4.64981">
        <ele>501.62021</ele>
        <time>2023-07-07T16:17:37.000Z</time>
      </trkpt>
      <trkpt lat="45.78405" lon="4.64984">
        <ele>500.80133</ele>
        <time>2023-07-07T16:17:42.000Z</time>
      </trkpt>
      <trkpt lat="45.78407" lon="4.64985">
        <ele>500.03409</ele>
        <time>2023-07-07T16:17:43.000Z</time>
      </trkpt>
      <trkpt lat="45.7841" lon="4.64986">
        <ele>499.12842</ele>
        <time>2023-07-07T16:17:44.000Z</time>
      </trkpt>
      <trkpt lat="45.78412" lon="4.64988">
        <ele>497.02237</ele>
        <time>2023-07-07T16:17:45.000Z</time>
      </trkpt>
      <trkpt lat="45.78415" lon="4.6499">
        <ele>499.11343</ele>
        <time>2023-07-07T16:17:46.000Z</time>
      </trkpt>
      <trkpt lat="45.78417" lon="4.64992">
        <ele>503.15268</ele>
        <time>2023-07-07T16:17:47.000Z</time>
      </trkpt>
      <trkpt lat="45.78419" lon="4.64993">
        <ele>507.05865</ele>
        <time>2023-07-07T16:17:48.000Z</time>
      </trkpt>
      <trkpt lat="45.78422" lon="4.64994">
        <ele>507.10513</ele>
        <time>2023-07-07T16:17:49.000Z</time>
      </trkpt>
      <trkpt lat="45.78428" lon="4.64998">
        <ele>506.10645</ele>
        <time>2023-07-07T16:17:50.000Z</time>
      </trkpt>
      <trkpt lat="45.78434" lon="4.64998">
        <ele>505.12085</ele>
        <time>2023-07-07T16:17:51.000Z</time>
      </trkpt>
      <trkpt lat="45.78436" lon="4.64999">
        <ele>506.63696</ele>
        <time>2023-07-07T16:17:52.000Z</time>
      </trkpt>
      <trkpt lat="45.78439" lon="4.65003">
        <ele>505.93707</ele>
        <time>2023-07-07T16:17:53.000Z</time>
      </trkpt>
      <trkpt lat="45.78444" lon="4.65001">
        <ele>505.28116</ele>
        <time>2023-07-07T16:17:54.000Z</time>
      </trkpt>
      <trkpt lat="45.78448" lon="4.64999">
        <ele>501.39926</ele>
        <time>2023-07-07T16:17:55.000Z</time>
      </trkpt>
      <trkpt lat="45.78451" lon="4.65">
        <ele>501.21884</ele>
        <time>2023-07-07T16:17:56.000Z</time>
      </trkpt>
      <trkpt lat="45.78454" lon="4.65">
        <ele>501.39185</ele>
        <time>2023-07-07T16:17:57.000Z</time>
      </trkpt>
      <trkpt lat="45.78456" lon="4.65">
        <ele>501.13638</ele>
        <time>2023-07-07T16:17:58.000Z</time>
      </trkpt>
      <trkpt lat="45.7846" lon="4.64998">
        <ele>499.88223</ele>
        <time>2023-07-07T16:17:59.000Z</time>
      </trkpt>
      <trkpt lat="45.78463" lon="4.65002">
        <ele>498.64453</ele>
        <time>2023-07-07T16:18:00.000Z</time>
      </trkpt>
      <trkpt lat="45.78466" lon="4.65003">
        <ele>502.15021</ele>
        <time>2023-07-07T16:18:01.000Z</time>
      </trkpt>
      <trkpt lat="45.7847" lon="4.65002">
        <ele>499.66437</ele>
        <time>2023-07-07T16:18:02.000Z</time>
      </trkpt>
      <trkpt lat="45.78473" lon="4.65002">
        <ele>497.49683</ele>
        <time>2023-07-07T16:18:03.000Z</time>
      </trkpt>
      <trkpt lat="45.78476" lon="4.65003">
        <ele>495.10052</ele>
        <time>2023-07-07T16:18:04.000Z</time>
      </trkpt>
      <trkpt lat="45.7848" lon="4.65003">
        <ele>493.76984</ele>
        <time>2023-07-07T16:18:05.000Z</time>
      </trkpt>
      <trkpt lat="45.78484" lon="4.65003">
        <ele>492.41153</ele>
        <time>2023-07-07T16:18:06.000Z</time>
      </trkpt>
      <trkpt lat="45.78488" lon="4.65003">
        <ele>489.92487</ele>
        <time>2023-07-07T16:18:07.000Z</time>
      </trkpt>
      <trkpt lat="45.78491" lon="4.65002">
        <ele>487.97809</ele>
        <time>2023-07-07T16:18:08.000Z</time>
      </trkpt>
      <trkpt lat="45.78495" lon="4.65001">
        <ele>485.57782</ele>
        <time>2023-07-07T16:18:09.000Z</time>
      </trkpt>
      <trkpt lat="45.78499" lon="4.65">
        <ele>484.50146</ele>
        <time>2023-07-07T16:18:10.000Z</time>
      </trkpt>
      <trkpt lat="45.78502" lon="4.64999">
        <ele>482.32404</ele>
        <time>2023-07-07T16:18:11.000Z</time>
      </trkpt>
      <trkpt lat="45.78508" lon="4.64994">
        <ele>480.65845</ele>
        <time>2023-07-07T16:18:12.000Z</time>
      </trkpt>
      <trkpt lat="45.78512" lon="4.64992">
        <ele>479.18887</ele>
        <time>2023-07-07T16:18:13.000Z</time>
      </trkpt>
      <trkpt lat="45.78516" lon="4.64991">
        <ele>477.09906</ele>
        <time>2023-07-07T16:18:14.000Z</time>
      </trkpt>
      <trkpt lat="45.78519" lon="4.6499">
        <ele>478.17374</ele>
        <time>2023-07-07T16:18:15.000Z</time>
      </trkpt>
      <trkpt lat="45.78523" lon="4.64991">
        <ele>475.57642</ele>
        <time>2023-07-07T16:18:16.000Z</time>
      </trkpt>
      <trkpt lat="45.78531" lon="4.64988">
        <ele>474.54208</ele>
        <time>2023-07-07T16:18:17.000Z</time>
      </trkpt>
      <trkpt lat="45.78536" lon="4.64988">
        <ele>474.06085</ele>
        <time>2023-07-07T16:18:18.000Z</time>
      </trkpt>
      <trkpt lat="45.78542" lon="4.64988">
        <ele>472.90201</ele>
        <time>2023-07-07T16:18:19.000Z</time>
      </trkpt>
      <trkpt lat="45.78546" lon="4.64987">
        <ele>472.38687</ele>
        <time>2023-07-07T16:18:20.000Z</time>
      </trkpt>
      <trkpt lat="45.78548" lon="4.64989">
        <ele>472.30267</ele>
        <time>2023-07-07T16:18:21.000Z</time>
      </trkpt>
      <trkpt lat="45.78552" lon="4.6499">
        <ele>472.15039</ele>
        <time>2023-07-07T16:18:22.000Z</time>
      </trkpt>
      <trkpt lat="45.78555" lon="4.64992">
        <ele>473.07611</ele>
        <time>2023-07-07T16:18:23.000Z</time>
      </trkpt>
      <trkpt lat="45.78557" lon="4.64993">
        <ele>472.92178</ele>
        <time>2023-07-07T16:18:24.000Z</time>
      </trkpt>
      <trkpt lat="45.78559" lon="4.64994">
        <ele>472.9422</ele>
        <time>2023-07-07T16:18:25.000Z</time>
      </trkpt>
      <trkpt lat="45.78562" lon="4.64996">
        <ele>473.0965</ele>
        <time>2023-07-07T16:18:26.000Z</time>
      </trkpt>
      <trkpt lat="45.78565" lon="4.64998">
        <ele>472.83041</ele>
        <time>2023-07-07T16:18:27.000Z</time>
      </trkpt>
      <trkpt lat="45.78567" lon="4.64999">
        <ele>472.24762</ele>
        <time>2023-07-07T16:18:28.000Z</time>
      </trkpt>
      <trkpt lat="45.78569" lon="4.65001">
        <ele>474.03482</ele>
        <time>2023-07-07T16:18:29.000Z</time>
      </trkpt>
      <trkpt lat="45.78572" lon="4.65002">
        <ele>473.45767</ele>
        <time>2023-07-07T16:18:30.000Z</time>
      </trkpt>
      <trkpt lat="45.78575" lon="4.65005">
        <ele>474.00269</ele>
        <time>2023-07-07T16:18:31.000Z</time>
      </trkpt>
      <trkpt lat="45.78578" lon="4.65008">
        <ele>474.11237</ele>
        <time>2023-07-07T16:18:32.000Z</time>
      </trkpt>
      <trkpt lat="45.78581" lon="4.6501">
        <ele>473.95572</ele>
        <time>2023-07-07T16:18:33.000Z</time>
      </trkpt>
      <trkpt lat="45.78583" lon="4.65014">
        <ele>474.44644</ele>
        <time>2023-07-07T16:18:34.000Z</time>
      </trkpt>
      <trkpt lat="45.78585" lon="4.65017">
        <ele>476.92569</ele>
        <time>2023-07-07T16:18:35.000Z</time>
      </trkpt>
      <trkpt lat="45.78587" lon="4.6502">
        <ele>478.29932</ele>
        <time>2023-07-07T16:18:36.000Z</time>
      </trkpt>
      <trkpt lat="45.7859" lon="4.65024">
        <ele>478.18768</ele>
        <time>2023-07-07T16:18:37.000Z</time>
      </trkpt>
      <trkpt lat="45.78592" lon="4.65027">
        <ele>478.51178</ele>
        <time>2023-07-07T16:18:38.000Z</time>
      </trkpt>
      <trkpt lat="45.78596" lon="4.6503">
        <ele>479.35895</ele>
        <time>2023-07-07T16:18:39.000Z</time>
      </trkpt>
      <trkpt lat="45.78599" lon="4.65032">
        <ele>479.68179</ele>
        <time>2023-07-07T16:18:40.000Z</time>
      </trkpt>
      <trkpt lat="45.78602" lon="4.65033">
        <ele>482.63593</ele>
        <time>2023-07-07T16:18:41.000Z</time>
      </trkpt>
      <trkpt lat="45.78606" lon="4.65034">
        <ele>483.90778</ele>
        <time>2023-07-07T16:18:42.000Z</time>
      </trkpt>
      <trkpt lat="45.7861" lon="4.65034">
        <ele>483.10165</ele>
        <time>2023-07-07T16:18:43.000Z</time>
      </trkpt>
      <trkpt lat="45.78615" lon="4.65034">
        <ele>484.87726</ele>
        <time>2023-07-07T16:18:44.000Z</time>
      </trkpt>
      <trkpt lat="45.78619" lon="4.65035">
        <ele>486.53476</ele>
        <time>2023-07-07T16:18:45.000Z</time>
      </trkpt>
      <trkpt lat="45.78623" lon="4.65036">
        <ele>488.17755</ele>
        <time>2023-07-07T16:18:46.000Z</time>
      </trkpt>
      <trkpt lat="45.78627" lon="4.65037">
        <ele>489.76303</ele>
        <time>2023-07-07T16:18:47.000Z</time>
      </trkpt>
      <trkpt lat="45.78631" lon="4.65037">
        <ele>491.5397</ele>
        <time>2023-07-07T16:18:48.000Z</time>
      </trkpt>
      <trkpt lat="45.78636" lon="4.65035">
        <ele>490.49771</ele>
        <time>2023-07-07T16:18:49.000Z</time>
      </trkpt>
      <trkpt lat="45.78639" lon="4.65034">
        <ele>491.91205</ele>
        <time>2023-07-07T16:18:50.000Z</time>
      </trkpt>
      <trkpt lat="45.78643" lon="4.65033">
        <ele>493.40088</ele>
        <time>2023-07-07T16:18:51.000Z</time>
      </trkpt>
      <trkpt lat="45.78648" lon="4.65031">
        <ele>494.42569</ele>
        <time>2023-07-07T16:18:52.000Z</time>
      </trkpt>
      <trkpt lat="45.78652" lon="4.65029">
        <ele>496.46078</ele>
        <time>2023-07-07T16:18:53.000Z</time>
      </trkpt>
      <trkpt lat="45.78657" lon="4.65028">
        <ele>498.23419</ele>
        <time>2023-07-07T16:18:54.000Z</time>
      </trkpt>
      <trkpt lat="45.7866" lon="4.65027">
        <ele>498.2438</ele>
        <time>2023-07-07T16:18:55.000Z</time>
      </trkpt>
      <trkpt lat="45.78664" lon="4.65026">
        <ele>499.7207</ele>
        <time>2023-07-07T16:18:56.000Z</time>
      </trkpt>
      <trkpt lat="45.78668" lon="4.65026">
        <ele>500.59311</ele>
        <time>2023-07-07T16:18:57.000Z</time>
      </trkpt>
      <trkpt lat="45.78672" lon="4.65026">
        <ele>501.48373</ele>
        <time>2023-07-07T16:18:58.000Z</time>
      </trkpt>
      <trkpt lat="45.78676" lon="4.65026">
        <ele>501.98657</ele>
        <time>2023-07-07T16:18:59.000Z</time>
      </trkpt>
      <trkpt lat="45.7868" lon="4.65026">
        <ele>502.27081</ele>
        <time>2023-07-07T16:19:00.000Z</time>
      </trkpt>
      <trkpt lat="45.78684" lon="4.65026">
        <ele>499.75293</ele>
        <time>2023-07-07T16:19:01.000Z</time>
      </trkpt>
      <trkpt lat="45.78688" lon="4.65027">
        <ele>498.91461</ele>
        <time>2023-07-07T16:19:02.000Z</time>
      </trkpt>
      <trkpt lat="45.78692" lon="4.65028">
        <ele>499.42783</ele>
        <time>2023-07-07T16:19:03.000Z</time>
      </trkpt>
      <trkpt lat="45.78695" lon="4.65029">
        <ele>498.49725</ele>
        <time>2023-07-07T16:19:04.000Z</time>
      </trkpt>
      <trkpt lat="45.78698" lon="4.65029">
        <ele>497.76309</ele>
        <time>2023-07-07T16:19:05.000Z</time>
      </trkpt>
      <trkpt lat="45.78701" lon="4.65028">
        <ele>497.36133</ele>
        <time>2023-07-07T16:19:06.000Z</time>
      </trkpt>
      <trkpt lat="45.78704" lon="4.65026">
        <ele>496.98907</ele>
        <time>2023-07-07T16:19:07.000Z</time>
      </trkpt>
      <trkpt lat="45.78705" lon="4.65025">
        <ele>496.42035</ele>
        <time>2023-07-07T16:19:08.000Z</time>
      </trkpt>
      <trkpt lat="45.78707" lon="4.65023">
        <ele>496.66797</ele>
        <time>2023-07-07T16:19:09.000Z</time>
      </trkpt>
      <trkpt lat="45.78709" lon="4.65022">
        <ele>496.38525</ele>
        <time>2023-07-07T16:19:10.000Z</time>
      </trkpt>
      <trkpt lat="45.78712" lon="4.6502">
        <ele>491.80743</ele>
        <time>2023-07-07T16:19:11.000Z</time>
      </trkpt>
      <trkpt lat="45.78714" lon="4.65019">
        <ele>491.67285</ele>
        <time>2023-07-07T16:19:12.000Z</time>
      </trkpt>
      <trkpt lat="45.78718" lon="4.6502">
        <ele>490.51578</ele>
        <time>2023-07-07T16:19:13.000Z</time>
      </trkpt>
      <trkpt lat="45.78721" lon="4.65022">
        <ele>489.57037</ele>
        <time>2023-07-07T16:19:14.000Z</time>
      </trkpt>
      <trkpt lat="45.78723" lon="4.65025">
        <ele>488.49454</ele>
        <time>2023-07-07T16:19:15.000Z</time>
      </trkpt>
      <trkpt lat="45.78726" lon="4.65027">
        <ele>487.59604</ele>
        <time>2023-07-07T16:19:16.000Z</time>
      </trkpt>
      <trkpt lat="45.78728" lon="4.65029">
        <ele>484.1124</ele>
        <time>2023-07-07T16:19:17.000Z</time>
      </trkpt>
      <trkpt lat="45.78731" lon="4.6503">
        <ele>483.51801</ele>
        <time>2023-07-07T16:19:18.000Z</time>
      </trkpt>
      <trkpt lat="45.78734" lon="4.65032">
        <ele>482.31015</ele>
        <time>2023-07-07T16:19:19.000Z</time>
      </trkpt>
      <trkpt lat="45.78736" lon="4.65034">
        <ele>480.77979</ele>
        <time>2023-07-07T16:19:20.000Z</time>
      </trkpt>
      <trkpt lat="45.7874" lon="4.65041">
        <ele>480.76318</ele>
        <time>2023-07-07T16:19:21.000Z</time>
      </trkpt>
      <trkpt lat="45.78744" lon="4.65044">
        <ele>480.75275</ele>
        <time>2023-07-07T16:19:22.000Z</time>
      </trkpt>
      <trkpt lat="45.78749" lon="4.65043">
        <ele>480.08173</ele>
        <time>2023-07-07T16:19:23.000Z</time>
      </trkpt>
      <trkpt lat="45.78752" lon="4.65049">
        <ele>479.58701</ele>
        <time>2023-07-07T16:19:24.000Z</time>
      </trkpt>
      <trkpt lat="45.78755" lon="4.65053">
        <ele>478.99692</ele>
        <time>2023-07-07T16:19:25.000Z</time>
      </trkpt>
      <trkpt lat="45.7876" lon="4.65056">
        <ele>476.05975</ele>
        <time>2023-07-07T16:19:26.000Z</time>
      </trkpt>
      <trkpt lat="45.78762" lon="4.65061">
        <ele>474.99469</ele>
        <time>2023-07-07T16:19:27.000Z</time>
      </trkpt>
      <trkpt lat="45.78764" lon="4.65063">
        <ele>473.89496</ele>
        <time>2023-07-07T16:19:28.000Z</time>
      </trkpt>
      <trkpt lat="45.78767" lon="4.65067">
        <ele>472.76871</ele>
        <time>2023-07-07T16:19:29.000Z</time>
      </trkpt>
      <trkpt lat="45.78769" lon="4.6507">
        <ele>472.37592</ele>
        <time>2023-07-07T16:19:30.000Z</time>
      </trkpt>
      <trkpt lat="45.78771" lon="4.65074">
        <ele>476.28458</ele>
        <time>2023-07-07T16:19:31.000Z</time>
      </trkpt>
      <trkpt lat="45.78774" lon="4.65078">
        <ele>476.27475</ele>
        <time>2023-07-07T16:19:32.000Z</time>
      </trkpt>
      <trkpt lat="45.78775" lon="4.65081">
        <ele>475.98111</ele>
        <time>2023-07-07T16:19:33.000Z</time>
      </trkpt>
      <trkpt lat="45.78776" lon="4.65083">
        <ele>475.66675</ele>
        <time>2023-07-07T16:19:34.000Z</time>
      </trkpt>
      <trkpt lat="45.78778" lon="4.65086">
        <ele>476.40363</ele>
        <time>2023-07-07T16:19:35.000Z</time>
      </trkpt>
      <trkpt lat="45.78779" lon="4.65089">
        <ele>477.06363</ele>
        <time>2023-07-07T16:19:36.000Z</time>
      </trkpt>
      <trkpt lat="45.78781" lon="4.65092">
        <ele>480.75024</ele>
        <time>2023-07-07T16:19:37.000Z</time>
      </trkpt>
      <trkpt lat="45.78781" lon="4.65095">
        <ele>481.54645</ele>
        <time>2023-07-07T16:19:38.000Z</time>
      </trkpt>
      <trkpt lat="45.78783" lon="4.65099">
        <ele>482.40323</ele>
        <time>2023-07-07T16:19:40.000Z</time>
      </trkpt>
      <trkpt lat="45.78785" lon="4.65103">
        <ele>483.80157</ele>
        <time>2023-07-07T16:19:41.000Z</time>
      </trkpt>
      <trkpt lat="45.78787" lon="4.65107">
        <ele>483.9527</ele>
        <time>2023-07-07T16:19:42.000Z</time>
      </trkpt>
      <trkpt lat="45.78789" lon="4.65111">
        <ele>484.11221</ele>
        <time>2023-07-07T16:19:43.000Z</time>
      </trkpt>
      <trkpt lat="45.78791" lon="4.65116">
        <ele>489.54205</ele>
        <time>2023-07-07T16:19:44.000Z</time>
      </trkpt>
      <trkpt lat="45.78794" lon="4.65121">
        <ele>490.01505</ele>
        <time>2023-07-07T16:19:45.000Z</time>
      </trkpt>
      <trkpt lat="45.78801" lon="4.65129">
        <ele>490.53644</ele>
        <time>2023-07-07T16:19:46.000Z</time>
      </trkpt>
      <trkpt lat="45.78804" lon="4.65132">
        <ele>493.11224</ele>
        <time>2023-07-07T16:19:47.000Z</time>
      </trkpt>
      <trkpt lat="45.78806" lon="4.65138">
        <ele>493.9649</ele>
        <time>2023-07-07T16:19:48.000Z</time>
      </trkpt>
      <trkpt lat="45.78808" lon="4.65142">
        <ele>494.91339</ele>
        <time>2023-07-07T16:19:49.000Z</time>
      </trkpt>
      <trkpt lat="45.78812" lon="4.65148">
        <ele>500.16827</ele>
        <time>2023-07-07T16:19:50.000Z</time>
      </trkpt>
      <trkpt lat="45.78814" lon="4.65151">
        <ele>500.73602</ele>
        <time>2023-07-07T16:19:51.000Z</time>
      </trkpt>
      <trkpt lat="45.78817" lon="4.65154">
        <ele>501.28033</ele>
        <time>2023-07-07T16:19:52.000Z</time>
      </trkpt>
      <trkpt lat="45.7882" lon="4.65157">
        <ele>501.76376</ele>
        <time>2023-07-07T16:19:53.000Z</time>
      </trkpt>
      <trkpt lat="45.78823" lon="4.65161">
        <ele>502.56195</ele>
        <time>2023-07-07T16:19:54.000Z</time>
      </trkpt>
      <trkpt lat="45.78827" lon="4.65164">
        <ele>503.47861</ele>
        <time>2023-07-07T16:19:55.000Z</time>
      </trkpt>
      <trkpt lat="45.7883" lon="4.65168">
        <ele>507.34711</ele>
        <time>2023-07-07T16:19:56.000Z</time>
      </trkpt>
      <trkpt lat="45.78833" lon="4.6517">
        <ele>507.62973</ele>
        <time>2023-07-07T16:19:57.000Z</time>
      </trkpt>
      <trkpt lat="45.78836" lon="4.65173">
        <ele>508.0209</ele>
        <time>2023-07-07T16:19:58.000Z</time>
      </trkpt>
      <trkpt lat="45.78839" lon="4.65176">
        <ele>508.4201</ele>
        <time>2023-07-07T16:19:59.000Z</time>
      </trkpt>
      <trkpt lat="45.78842" lon="4.65178">
        <ele>509.76376</ele>
        <time>2023-07-07T16:20:00.000Z</time>
      </trkpt>
      <trkpt lat="45.78845" lon="4.65179">
        <ele>511.13177</ele>
        <time>2023-07-07T16:20:01.000Z</time>
      </trkpt>
      <trkpt lat="45.78848" lon="4.65181">
        <ele>517.12854</ele>
        <time>2023-07-07T16:20:02.000Z</time>
      </trkpt>
      <trkpt lat="45.78851" lon="4.65183">
        <ele>518.78729</ele>
        <time>2023-07-07T16:20:03.000Z</time>
      </trkpt>
      <trkpt lat="45.78853" lon="4.65186">
        <ele>515.25916</ele>
        <time>2023-07-07T16:20:04.000Z</time>
      </trkpt>
      <trkpt lat="45.78855" lon="4.65189">
        <ele>516.54504</ele>
        <time>2023-07-07T16:20:05.000Z</time>
      </trkpt>
      <trkpt lat="45.78858" lon="4.65193">
        <ele>517.87152</ele>
        <time>2023-07-07T16:20:06.000Z</time>
      </trkpt>
      <trkpt lat="45.78861" lon="4.65198">
        <ele>519.23828</ele>
        <time>2023-07-07T16:20:07.000Z</time>
      </trkpt>
      <trkpt lat="45.78864" lon="4.652">
        <ele>523.44141</ele>
        <time>2023-07-07T16:20:08.000Z</time>
      </trkpt>
      <trkpt lat="45.78867" lon="4.65203">
        <ele>524.91522</ele>
        <time>2023-07-07T16:20:09.000Z</time>
      </trkpt>
      <trkpt lat="45.78871" lon="4.65205">
        <ele>522.21136</ele>
        <time>2023-07-07T16:20:10.000Z</time>
      </trkpt>
      <trkpt lat="45.78874" lon="4.65208">
        <ele>523.31354</ele>
        <time>2023-07-07T16:20:11.000Z</time>
      </trkpt>
      <trkpt lat="45.78877" lon="4.65211">
        <ele>524.44238</ele>
        <time>2023-07-07T16:20:12.000Z</time>
      </trkpt>
      <trkpt lat="45.78881" lon="4.65214">
        <ele>525.60046</ele>
        <time>2023-07-07T16:20:13.000Z</time>
      </trkpt>
      <trkpt lat="45.78884" lon="4.65218">
        <ele>529.15918</ele>
        <time>2023-07-07T16:20:14.000Z</time>
      </trkpt>
      <trkpt lat="45.78887" lon="4.65222">
        <ele>530.48907</ele>
        <time>2023-07-07T16:20:15.000Z</time>
      </trkpt>
      <trkpt lat="45.78893" lon="4.65227">
        <ele>527.92963</ele>
        <time>2023-07-07T16:20:16.000Z</time>
      </trkpt>
      <trkpt lat="45.78895" lon="4.65233">
        <ele>530.29651</ele>
        <time>2023-07-07T16:20:17.000Z</time>
      </trkpt>
      <trkpt lat="45.78899" lon="4.65238">
        <ele>532.26996</ele>
        <time>2023-07-07T16:20:18.000Z</time>
      </trkpt>
      <trkpt lat="45.78903" lon="4.65245">
        <ele>534.08051</ele>
        <time>2023-07-07T16:20:19.000Z</time>
      </trkpt>
      <trkpt lat="45.78907" lon="4.65251">
        <ele>535.88098</ele>
        <time>2023-07-07T16:20:20.000Z</time>
      </trkpt>
      <trkpt lat="45.78912" lon="4.65259">
        <ele>537.18689</ele>
        <time>2023-07-07T16:20:21.000Z</time>
      </trkpt>
      <trkpt lat="45.78916" lon="4.65265">
        <ele>533.85938</ele>
        <time>2023-07-07T16:20:22.000Z</time>
      </trkpt>
      <trkpt lat="45.7892" lon="4.65272">
        <ele>534.69592</ele>
        <time>2023-07-07T16:20:23.000Z</time>
      </trkpt>
      <trkpt lat="45.78924" lon="4.65277">
        <ele>535.49133</ele>
        <time>2023-07-07T16:20:24.000Z</time>
      </trkpt>
      <trkpt lat="45.78929" lon="4.65285">
        <ele>536.50299</ele>
        <time>2023-07-07T16:20:25.000Z</time>
      </trkpt>
      <trkpt lat="45.78933" lon="4.65291">
        <ele>533.63855</ele>
        <time>2023-07-07T16:20:26.000Z</time>
      </trkpt>
      <trkpt lat="45.78936" lon="4.65298">
        <ele>534.42694</ele>
        <time>2023-07-07T16:20:27.000Z</time>
      </trkpt>
      <trkpt lat="45.78942" lon="4.65304">
        <ele>532.28955</ele>
        <time>2023-07-07T16:20:28.000Z</time>
      </trkpt>
      <trkpt lat="45.78944" lon="4.6531">
        <ele>532.73193</ele>
        <time>2023-07-07T16:20:29.000Z</time>
      </trkpt>
      <trkpt lat="45.78947" lon="4.65317">
        <ele>533.12274</ele>
        <time>2023-07-07T16:20:30.000Z</time>
      </trkpt>
      <trkpt lat="45.7895" lon="4.65324">
        <ele>533.66833</ele>
        <time>2023-07-07T16:20:31.000Z</time>
      </trkpt>
      <trkpt lat="45.78952" lon="4.65331">
        <ele>529.69812</ele>
        <time>2023-07-07T16:20:32.000Z</time>
      </trkpt>
      <trkpt lat="45.78956" lon="4.65338">
        <ele>529.96094</ele>
        <time>2023-07-07T16:20:33.000Z</time>
      </trkpt>
      <trkpt lat="45.78959" lon="4.65346">
        <ele>527.81213</ele>
        <time>2023-07-07T16:20:34.000Z</time>
      </trkpt>
      <trkpt lat="45.78962" lon="4.65354">
        <ele>527.74475</ele>
        <time>2023-07-07T16:20:35.000Z</time>
      </trkpt>
      <trkpt lat="45.78964" lon="4.65359">
        <ele>527.60754</ele>
        <time>2023-07-07T16:20:36.000Z</time>
      </trkpt>
      <trkpt lat="45.78966" lon="4.65364">
        <ele>526.25378</ele>
        <time>2023-07-07T16:20:37.000Z</time>
      </trkpt>
      <trkpt lat="45.78968" lon="4.6537">
        <ele>526.83313</ele>
        <time>2023-07-07T16:20:38.000Z</time>
      </trkpt>
      <trkpt lat="45.78969" lon="4.65374">
        <ele>527.42615</ele>
        <time>2023-07-07T16:20:39.000Z</time>
      </trkpt>
      <trkpt lat="45.78971" lon="4.65377">
        <ele>528.01746</ele>
        <time>2023-07-07T16:20:40.000Z</time>
      </trkpt>
      <trkpt lat="45.78971" lon="4.65381">
        <ele>529.04492</ele>
        <time>2023-07-07T16:20:41.000Z</time>
      </trkpt>
      <trkpt lat="45.78972" lon="4.65386">
        <ele>530.02783</ele>
        <time>2023-07-07T16:20:42.000Z</time>
      </trkpt>
      <trkpt lat="45.78976" lon="4.65391">
        <ele>531.27228</ele>
        <time>2023-07-07T16:20:43.000Z</time>
      </trkpt>
      <trkpt lat="45.78978" lon="4.65397">
        <ele>531.10107</ele>
        <time>2023-07-07T16:20:44.000Z</time>
      </trkpt>
      <trkpt lat="45.7898" lon="4.65403">
        <ele>532.37408</ele>
        <time>2023-07-07T16:20:45.000Z</time>
      </trkpt>
      <trkpt lat="45.78981" lon="4.65407">
        <ele>537.30518</ele>
        <time>2023-07-07T16:20:46.000Z</time>
      </trkpt>
      <trkpt lat="45.78983" lon="4.65411">
        <ele>537.48846</ele>
        <time>2023-07-07T16:20:47.000Z</time>
      </trkpt>
      <trkpt lat="45.78983" lon="4.65415">
        <ele>537.64154</ele>
        <time>2023-07-07T16:20:48.000Z</time>
      </trkpt>
      <trkpt lat="45.78985" lon="4.65422">
        <ele>537.90912</ele>
        <time>2023-07-07T16:20:49.000Z</time>
      </trkpt>
      <trkpt lat="45.78984" lon="4.65429">
        <ele>538.16803</ele>
        <time>2023-07-07T16:20:50.000Z</time>
      </trkpt>
      <trkpt lat="45.78982" lon="4.65433">
        <ele>538.42029</ele>
        <time>2023-07-07T16:20:51.000Z</time>
      </trkpt>
      <trkpt lat="45.78983" lon="4.65441">
        <ele>545.04382</ele>
        <time>2023-07-07T16:20:52.000Z</time>
      </trkpt>
      <trkpt lat="45.78983" lon="4.65448">
        <ele>545.8111</ele>
        <time>2023-07-07T16:20:53.000Z</time>
      </trkpt>
      <trkpt lat="45.78982" lon="4.65451">
        <ele>546.60364</ele>
        <time>2023-07-07T16:20:54.000Z</time>
      </trkpt>
      <trkpt lat="45.78983" lon="4.65454">
        <ele>547.54315</ele>
        <time>2023-07-07T16:20:55.000Z</time>
      </trkpt>
      <trkpt lat="45.78983" lon="4.65456">
        <ele>548.53308</ele>
        <time>2023-07-07T16:20:57.000Z</time>
      </trkpt>
      <trkpt lat="45.78983" lon="4.65459">
        <ele>550.81653</ele>
        <time>2023-07-07T16:20:59.000Z</time>
      </trkpt>
      <trkpt lat="45.78983" lon="4.65463">
        <ele>550.42297</ele>
        <time>2023-07-07T16:21:00.000Z</time>
      </trkpt>
      <trkpt lat="45.78982" lon="4.65467">
        <ele>550.13959</ele>
        <time>2023-07-07T16:21:01.000Z</time>
      </trkpt>
      <trkpt lat="45.78983" lon="4.65472">
        <ele>551.24292</ele>
        <time>2023-07-07T16:21:02.000Z</time>
      </trkpt>
      <trkpt lat="45.78985" lon="4.65478">
        <ele>552.13019</ele>
        <time>2023-07-07T16:21:03.000Z</time>
      </trkpt>
      <trkpt lat="45.78986" lon="4.65484">
        <ele>552.90497</ele>
        <time>2023-07-07T16:21:04.000Z</time>
      </trkpt>
      <trkpt lat="45.78987" lon="4.6549">
        <ele>553.71936</ele>
        <time>2023-07-07T16:21:05.000Z</time>
      </trkpt>
      <trkpt lat="45.78988" lon="4.65496">
        <ele>555.87756</ele>
        <time>2023-07-07T16:21:06.000Z</time>
      </trkpt>
      <trkpt lat="45.7899" lon="4.65504">
        <ele>556.50055</ele>
        <time>2023-07-07T16:21:07.000Z</time>
      </trkpt>
      <trkpt lat="45.78992" lon="4.65511">
        <ele>557.09753</ele>
        <time>2023-07-07T16:21:08.000Z</time>
      </trkpt>
      <trkpt lat="45.78994" lon="4.65518">
        <ele>558.63831</ele>
        <time>2023-07-07T16:21:09.000Z</time>
      </trkpt>
      <trkpt lat="45.78995" lon="4.65525">
        <ele>559.97235</ele>
        <time>2023-07-07T16:21:10.000Z</time>
      </trkpt>
      <trkpt lat="45.78997" lon="4.65533">
        <ele>561.27576</ele>
        <time>2023-07-07T16:21:11.000Z</time>
      </trkpt>
      <trkpt lat="45.78997" lon="4.6554">
        <ele>562.42987</ele>
        <time>2023-07-07T16:21:12.000Z</time>
      </trkpt>
      <trkpt lat="45.78998" lon="4.65547">
        <ele>563.6637</ele>
        <time>2023-07-07T16:21:13.000Z</time>
      </trkpt>
      <trkpt lat="45.79001" lon="4.65552">
        <ele>563.388</ele>
        <time>2023-07-07T16:21:14.000Z</time>
      </trkpt>
      <trkpt lat="45.79002" lon="4.65558">
        <ele>564.79443</ele>
        <time>2023-07-07T16:21:15.000Z</time>
      </trkpt>
      <trkpt lat="45.79003" lon="4.65564">
        <ele>565.74353</ele>
        <time>2023-07-07T16:21:16.000Z</time>
      </trkpt>
      <trkpt lat="45.79003" lon="4.6557">
        <ele>566.70056</ele>
        <time>2023-07-07T16:21:17.000Z</time>
      </trkpt>
      <trkpt lat="45.79005" lon="4.65579">
        <ele>567.65839</ele>
        <time>2023-07-07T16:21:18.000Z</time>
      </trkpt>
      <trkpt lat="45.79006" lon="4.65587">
        <ele>567.37744</ele>
        <time>2023-07-07T16:21:19.000Z</time>
      </trkpt>
      <trkpt lat="45.79008" lon="4.65595">
        <ele>568.20544</ele>
        <time>2023-07-07T16:21:20.000Z</time>
      </trkpt>
      <trkpt lat="45.7901" lon="4.65604">
        <ele>566.89642</ele>
        <time>2023-07-07T16:21:21.000Z</time>
      </trkpt>
      <trkpt lat="45.79013" lon="4.65613">
        <ele>566.32507</ele>
        <time>2023-07-07T16:21:22.000Z</time>
      </trkpt>
      <trkpt lat="45.79017" lon="4.65621">
        <ele>565.93262</ele>
        <time>2023-07-07T16:21:23.000Z</time>
      </trkpt>
      <trkpt lat="45.79021" lon="4.65629">
        <ele>565.61218</ele>
        <time>2023-07-07T16:21:24.000Z</time>
      </trkpt>
      <trkpt lat="45.79026" lon="4.65638">
        <ele>565.14099</ele>
        <time>2023-07-07T16:21:25.000Z</time>
      </trkpt>
      <trkpt lat="45.79031" lon="4.65646">
        <ele>564.67621</ele>
        <time>2023-07-07T16:21:26.000Z</time>
      </trkpt>
      <trkpt lat="45.79036" lon="4.65654">
        <ele>561.78992</ele>
        <time>2023-07-07T16:21:27.000Z</time>
      </trkpt>
      <trkpt lat="45.79042" lon="4.65663">
        <ele>561.38843</ele>
        <time>2023-07-07T16:21:28.000Z</time>
      </trkpt>
      <trkpt lat="45.7905" lon="4.65671">
        <ele>561.05188</ele>
        <time>2023-07-07T16:21:29.000Z</time>
      </trkpt>
      <trkpt lat="45.79057" lon="4.65679">
        <ele>560.896</ele>
        <time>2023-07-07T16:21:30.000Z</time>
      </trkpt>
      <trkpt lat="45.79065" lon="4.65686">
        <ele>560.75525</ele>
        <time>2023-07-07T16:21:31.000Z</time>
      </trkpt>
      <trkpt lat="45.7907" lon="4.65691">
        <ele>560.74347</ele>
        <time>2023-07-07T16:21:32.000Z</time>
      </trkpt>
      <trkpt lat="45.79076" lon="4.65698">
        <ele>555.45813</ele>
        <time>2023-07-07T16:21:33.000Z</time>
      </trkpt>
      <trkpt lat="45.79081" lon="4.65703">
        <ele>554.68781</ele>
        <time>2023-07-07T16:21:34.000Z</time>
      </trkpt>
      <trkpt lat="45.79087" lon="4.65709">
        <ele>553.76355</ele>
        <time>2023-07-07T16:21:35.000Z</time>
      </trkpt>
      <trkpt lat="45.79092" lon="4.65715">
        <ele>553.21204</ele>
        <time>2023-07-07T16:21:36.000Z</time>
      </trkpt>
      <trkpt lat="45.79095" lon="4.65719">
        <ele>552.58545</ele>
        <time>2023-07-07T16:21:37.000Z</time>
      </trkpt>
      <trkpt lat="45.79103" lon="4.65722">
        <ele>551.8797</ele>
        <time>2023-07-07T16:21:38.000Z</time>
      </trkpt>
      <trkpt lat="45.79104" lon="4.65725">
        <ele>544.1106</ele>
        <time>2023-07-07T16:21:39.000Z</time>
      </trkpt>
      <trkpt lat="45.79106" lon="4.6573">
        <ele>542.9472</ele>
        <time>2023-07-07T16:21:41.000Z</time>
      </trkpt>
      <trkpt lat="45.7911" lon="4.65729">
        <ele>543.88245</ele>
        <time>2023-07-07T16:21:43.000Z</time>
      </trkpt>
      <trkpt lat="45.79112" lon="4.65728">
        <ele>536.0719</ele>
        <time>2023-07-07T16:21:53.000Z</time>
      </trkpt>
      <trkpt lat="45.79111" lon="4.6573">
        <ele>532.50037</ele>
        <time>2023-07-07T16:22:14.000Z</time>
      </trkpt>
      <trkpt lat="45.79108" lon="4.65732">
        <ele>530.82874</ele>
        <time>2023-07-07T16:22:16.000Z</time>
      </trkpt>
      <trkpt lat="45.79106" lon="4.65732">
        <ele>529.08954</ele>
        <time>2023-07-07T16:22:17.000Z</time>
      </trkpt>
      <trkpt lat="45.79104" lon="4.65731">
        <ele>527.28699</ele>
        <time>2023-07-07T16:22:18.000Z</time>
      </trkpt>
      <trkpt lat="45.79102" lon="4.65732">
        <ele>527.86719</ele>
        <time>2023-07-07T16:22:19.000Z</time>
      </trkpt>
      <trkpt lat="45.791" lon="4.65733">
        <ele>521.57764</ele>
        <time>2023-07-07T16:22:20.000Z</time>
      </trkpt>
      <trkpt lat="45.79099" lon="4.65735">
        <ele>519.5871</ele>
        <time>2023-07-07T16:22:21.000Z</time>
      </trkpt>
      <trkpt lat="45.79097" lon="4.65737">
        <ele>517.51385</ele>
        <time>2023-07-07T16:22:22.000Z</time>
      </trkpt>
      <trkpt lat="45.79095" lon="4.65738">
        <ele>515.34473</ele>
        <time>2023-07-07T16:22:23.000Z</time>
      </trkpt>
      <trkpt lat="45.79091" lon="4.65739">
        <ele>513.07422</ele>
        <time>2023-07-07T16:22:25.000Z</time>
      </trkpt>
      <trkpt lat="45.79089" lon="4.65739">
        <ele>512.72864</ele>
        <time>2023-07-07T16:22:26.000Z</time>
      </trkpt>
      <trkpt lat="45.79087" lon="4.65739">
        <ele>510.59213</ele>
        <time>2023-07-07T16:22:27.000Z</time>
      </trkpt>
      <trkpt lat="45.79084" lon="4.65739">
        <ele>508.38736</ele>
        <time>2023-07-07T16:22:28.000Z</time>
      </trkpt>
      <trkpt lat="45.79082" lon="4.65739">
        <ele>506.11856</ele>
        <time>2023-07-07T16:22:29.000Z</time>
      </trkpt>
      <trkpt lat="45.79079" lon="4.65738">
        <ele>503.76385</ele>
        <time>2023-07-07T16:22:31.000Z</time>
      </trkpt>
      <trkpt lat="45.79075" lon="4.65737">
        <ele>496.94586</ele>
        <time>2023-07-07T16:22:33.000Z</time>
      </trkpt>
      <trkpt lat="45.79073" lon="4.65737">
        <ele>501.17935</ele>
        <time>2023-07-07T16:22:35.000Z</time>
      </trkpt>
      <trkpt lat="45.79071" lon="4.65738">
        <ele>494.49576</ele>
        <time>2023-07-07T16:22:39.000Z</time>
      </trkpt>
      <trkpt lat="45.79069" lon="4.65738">
        <ele>492.07318</ele>
        <time>2023-07-07T16:22:40.000Z</time>
      </trkpt>
      <trkpt lat="45.79073" lon="4.65739">
        <ele>496.14264</ele>
        <time>2023-07-07T16:22:44.000Z</time>
      </trkpt>
      <trkpt lat="45.79075" lon="4.65738">
        <ele>491.35577</ele>
        <time>2023-07-07T16:22:45.000Z</time>
      </trkpt>
      <trkpt lat="45.79078" lon="4.65736">
        <ele>489.29852</ele>
        <time>2023-07-07T16:22:46.000Z</time>
      </trkpt>
      <trkpt lat="45.79081" lon="4.65735">
        <ele>487.22202</ele>
        <time>2023-07-07T16:22:47.000Z</time>
      </trkpt>
      <trkpt lat="45.79083" lon="4.65734">
        <ele>485.1286</ele>
        <time>2023-07-07T16:22:48.000Z</time>
      </trkpt>
      <trkpt lat="45.79087" lon="4.65735">
        <ele>483.02069</ele>
        <time>2023-07-07T16:22:49.000Z</time>
      </trkpt>
      <trkpt lat="45.79089" lon="4.65737">
        <ele>485.37177</ele>
        <time>2023-07-07T16:22:50.000Z</time>
      </trkpt>
      <trkpt lat="45.79089" lon="4.65741">
        <ele>479.96429</ele>
        <time>2023-07-07T16:22:51.000Z</time>
      </trkpt>
      <trkpt lat="45.79089" lon="4.65746">
        <ele>477.98315</ele>
        <time>2023-07-07T16:22:52.000Z</time>
      </trkpt>
      <trkpt lat="45.79088" lon="4.6575">
        <ele>476.00665</ele>
        <time>2023-07-07T16:22:53.000Z</time>
      </trkpt>
      <trkpt lat="45.79087" lon="4.65754">
        <ele>474.03973</ele>
        <time>2023-07-07T16:22:54.000Z</time>
      </trkpt>
      <trkpt lat="45.79086" lon="4.65758">
        <ele>475.23041</ele>
        <time>2023-07-07T16:22:55.000Z</time>
      </trkpt>
      <trkpt lat="45.79086" lon="4.65763">
        <ele>473.35553</ele>
        <time>2023-07-07T16:22:56.000Z</time>
      </trkpt>
      <trkpt lat="45.79086" lon="4.65768">
        <ele>468.46786</ele>
        <time>2023-07-07T16:22:57.000Z</time>
      </trkpt>
      <trkpt lat="45.79086" lon="4.65771">
        <ele>466.47186</ele>
        <time>2023-07-07T16:22:58.000Z</time>
      </trkpt>
      <trkpt lat="45.79086" lon="4.65775">
        <ele>464.48956</ele>
        <time>2023-07-07T16:22:59.000Z</time>
      </trkpt>
      <trkpt lat="45.79086" lon="4.6578">
        <ele>466.90274</ele>
        <time>2023-07-07T16:23:00.000Z</time>
      </trkpt>
      <trkpt lat="45.79086" lon="4.65787">
        <ele>464.06952</ele>
        <time>2023-07-07T16:23:01.000Z</time>
      </trkpt>
      <trkpt lat="45.79086" lon="4.65794">
        <ele>466.75107</ele>
        <time>2023-07-07T16:23:02.000Z</time>
      </trkpt>
      <trkpt lat="45.79086" lon="4.658">
        <ele>465.36383</ele>
        <time>2023-07-07T16:23:03.000Z</time>
      </trkpt>
      <trkpt lat="45.79086" lon="4.65805">
        <ele>464.02838</ele>
        <time>2023-07-07T16:23:04.000Z</time>
      </trkpt>
      <trkpt lat="45.79086" lon="4.65809">
        <ele>467.27191</ele>
        <time>2023-07-07T16:23:05.000Z</time>
      </trkpt>
      <trkpt lat="45.79086" lon="4.65813">
        <ele>466.06772</ele>
        <time>2023-07-07T16:23:06.000Z</time>
      </trkpt>
      <trkpt lat="45.79086" lon="4.65816">
        <ele>463.65814</ele>
        <time>2023-07-07T16:23:07.000Z</time>
      </trkpt>
      <trkpt lat="45.79086" lon="4.6582">
        <ele>461.42667</ele>
        <time>2023-07-07T16:23:08.000Z</time>
      </trkpt>
      <trkpt lat="45.79086" lon="4.65824">
        <ele>459.50543</ele>
        <time>2023-07-07T16:23:09.000Z</time>
      </trkpt>
      <trkpt lat="45.79086" lon="4.65828">
        <ele>457.98773</ele>
        <time>2023-07-07T16:23:10.000Z</time>
      </trkpt>
      <trkpt lat="45.79086" lon="4.65832">
        <ele>459.8483</ele>
        <time>2023-07-07T16:23:11.000Z</time>
      </trkpt>
      <trkpt lat="45.79086" lon="4.65836">
        <ele>458.23276</ele>
        <time>2023-07-07T16:23:12.000Z</time>
      </trkpt>
      <trkpt lat="45.79086" lon="4.65839">
        <ele>457.02451</ele>
        <time>2023-07-07T16:23:13.000Z</time>
      </trkpt>
      <trkpt lat="45.79086" lon="4.65842">
        <ele>454.74139</ele>
        <time>2023-07-07T16:23:14.000Z</time>
      </trkpt>
      <trkpt lat="45.79087" lon="4.65847">
        <ele>452.67236</ele>
        <time>2023-07-07T16:23:16.000Z</time>
      </trkpt>
      <trkpt lat="45.79088" lon="4.6585">
        <ele>451.54443</ele>
        <time>2023-07-07T16:23:17.000Z</time>
      </trkpt>
      <trkpt lat="45.79089" lon="4.65852">
        <ele>453.47968</ele>
        <time>2023-07-07T16:23:18.000Z</time>
      </trkpt>
      <trkpt lat="45.79092" lon="4.65854">
        <ele>452.73029</ele>
        <time>2023-07-07T16:23:19.000Z</time>
      </trkpt>
      <trkpt lat="45.79093" lon="4.65855">
        <ele>452.04321</ele>
        <time>2023-07-07T16:23:20.000Z</time>
      </trkpt>
      <trkpt lat="45.79095" lon="4.65856">
        <ele>451.4209</ele>
        <time>2023-07-07T16:23:21.000Z</time>
      </trkpt>
      <trkpt lat="45.79097" lon="4.65858">
        <ele>455.9335</ele>
        <time>2023-07-07T16:23:22.000Z</time>
      </trkpt>
      <trkpt lat="45.79099" lon="4.65859">
        <ele>455.5267</ele>
        <time>2023-07-07T16:23:23.000Z</time>
      </trkpt>
      <trkpt lat="45.79101" lon="4.65861">
        <ele>454.96548</ele>
        <time>2023-07-07T16:23:24.000Z</time>
      </trkpt>
      <trkpt lat="45.79104" lon="4.65861">
        <ele>454.44556</ele>
        <time>2023-07-07T16:23:25.000Z</time>
      </trkpt>
      <trkpt lat="45.79107" lon="4.65862">
        <ele>453.9664</ele>
        <time>2023-07-07T16:23:26.000Z</time>
      </trkpt>
      <trkpt lat="45.79109" lon="4.65862">
        <ele>453.30118</ele>
        <time>2023-07-07T16:23:27.000Z</time>
      </trkpt>
      <trkpt lat="45.79112" lon="4.65863">
        <ele>457.82306</ele>
        <time>2023-07-07T16:23:28.000Z</time>
      </trkpt>
      <trkpt lat="45.79114" lon="4.65863">
        <ele>458.58463</ele>
        <time>2023-07-07T16:23:29.000Z</time>
      </trkpt>
      <trkpt lat="45.79116" lon="4.65865">
        <ele>459.17865</ele>
        <time>2023-07-07T16:23:31.000Z</time>
      </trkpt>
      <trkpt lat="45.79118" lon="4.65867">
        <ele>462.29852</ele>
        <time>2023-07-07T16:23:34.000Z</time>
      </trkpt>
      <trkpt lat="45.7912" lon="4.65869">
        <ele>462.8815</ele>
        <time>2023-07-07T16:23:39.000Z</time>
      </trkpt>
      <trkpt lat="45.79122" lon="4.65871">
        <ele>466.07217</ele>
        <time>2023-07-07T16:24:05.000Z</time>
      </trkpt>
      <trkpt lat="45.79126" lon="4.65871">
        <ele>466.68488</ele>
        <time>2023-07-07T16:24:07.000Z</time>
      </trkpt>
      <trkpt lat="45.79129" lon="4.65871">
        <ele>468.50186</ele>
        <time>2023-07-07T16:24:08.000Z</time>
      </trkpt>
      <trkpt lat="45.79131" lon="4.65872">
        <ele>470.29401</ele>
        <time>2023-07-07T16:24:09.000Z</time>
      </trkpt>
      <trkpt lat="45.79133" lon="4.65872">
        <ele>471.17505</ele>
        <time>2023-07-07T16:24:10.000Z</time>
      </trkpt>
      <trkpt lat="45.79136" lon="4.65873">
        <ele>474.37573</ele>
        <time>2023-07-07T16:24:11.000Z</time>
      </trkpt>
      <trkpt lat="45.79139" lon="4.65873">
        <ele>475.42056</ele>
        <time>2023-07-07T16:24:12.000Z</time>
      </trkpt>
      <trkpt lat="45.79142" lon="4.65874">
        <ele>476.55508</ele>
        <time>2023-07-07T16:24:13.000Z</time>
      </trkpt>
      <trkpt lat="45.79144" lon="4.65875">
        <ele>477.78067</ele>
        <time>2023-07-07T16:24:14.000Z</time>
      </trkpt>
      <trkpt lat="45.79148" lon="4.65875">
        <ele>475.14297</ele>
        <time>2023-07-07T16:24:15.000Z</time>
      </trkpt>
      <trkpt lat="45.79152" lon="4.65876">
        <ele>476.10342</ele>
        <time>2023-07-07T16:24:16.000Z</time>
      </trkpt>
      <trkpt lat="45.79156" lon="4.65877">
        <ele>479.14804</ele>
        <time>2023-07-07T16:24:17.000Z</time>
      </trkpt>
      <trkpt lat="45.79159" lon="4.65878">
        <ele>480.35718</ele>
        <time>2023-07-07T16:24:18.000Z</time>
      </trkpt>
      <trkpt lat="45.79161" lon="4.65879">
        <ele>481.65277</ele>
        <time>2023-07-07T16:24:19.000Z</time>
      </trkpt>
      <trkpt lat="45.79164" lon="4.65881">
        <ele>483.03705</ele>
        <time>2023-07-07T16:24:20.000Z</time>
      </trkpt>
      <trkpt lat="45.79167" lon="4.65882">
        <ele>480.61166</ele>
        <time>2023-07-07T16:24:21.000Z</time>
      </trkpt>
      <trkpt lat="45.7917" lon="4.65884">
        <ele>481.75107</ele>
        <time>2023-07-07T16:24:22.000Z</time>
      </trkpt>
      <trkpt lat="45.79174" lon="4.65885">
        <ele>484.68384</ele>
        <time>2023-07-07T16:24:23.000Z</time>
      </trkpt>
      <trkpt lat="45.79177" lon="4.65885">
        <ele>483.16479</ele>
        <time>2023-07-07T16:24:24.000Z</time>
      </trkpt>
      <trkpt lat="45.7918" lon="4.65884">
        <ele>484.2081</ele>
        <time>2023-07-07T16:24:25.000Z</time>
      </trkpt>
      <trkpt lat="45.79182" lon="4.65884">
        <ele>482.84515</ele>
        <time>2023-07-07T16:24:26.000Z</time>
      </trkpt>
      <trkpt lat="45.79185" lon="4.65885">
        <ele>483.68378</ele>
        <time>2023-07-07T16:24:27.000Z</time>
      </trkpt>
      <trkpt lat="45.79188" lon="4.65884">
        <ele>484.53375</ele>
        <time>2023-07-07T16:24:28.000Z</time>
      </trkpt>
      <trkpt lat="45.7919" lon="4.65884">
        <ele>478.58228</ele>
        <time>2023-07-07T16:24:29.000Z</time>
      </trkpt>
      <trkpt lat="45.79192" lon="4.65883">
        <ele>478.99667</ele>
        <time>2023-07-07T16:24:30.000Z</time>
      </trkpt>
      <trkpt lat="45.79195" lon="4.65883">
        <ele>477.16864</ele>
        <time>2023-07-07T16:24:31.000Z</time>
      </trkpt>
      <trkpt lat="45.79198" lon="4.65883">
        <ele>477.30829</ele>
        <time>2023-07-07T16:24:32.000Z</time>
      </trkpt>
      <trkpt lat="45.792" lon="4.65883">
        <ele>477.40268</ele>
        <time>2023-07-07T16:24:33.000Z</time>
      </trkpt>
      <trkpt lat="45.79202" lon="4.65884">
        <ele>477.44507</ele>
        <time>2023-07-07T16:24:34.000Z</time>
      </trkpt>
      <trkpt lat="45.79205" lon="4.65886">
        <ele>479.50327</ele>
        <time>2023-07-07T16:24:36.000Z</time>
      </trkpt>
      <trkpt lat="45.79207" lon="4.65888">
        <ele>479.72128</ele>
        <time>2023-07-07T16:24:38.000Z</time>
      </trkpt>
      <trkpt lat="45.79209" lon="4.65888">
        <ele>479.90201</ele>
        <time>2023-07-07T16:24:42.000Z</time>
      </trkpt>
      <trkpt lat="45.79211" lon="4.65888">
        <ele>479.9397</ele>
        <time>2023-07-07T16:24:44.000Z</time>
      </trkpt>
      <trkpt lat="45.79213" lon="4.65888">
        <ele>479.91879</ele>
        <time>2023-07-07T16:24:46.000Z</time>
      </trkpt>
      <trkpt lat="45.79215" lon="4.65888">
        <ele>481.79825</ele>
        <time>2023-07-07T16:24:48.000Z</time>
      </trkpt>
      <trkpt lat="45.79217" lon="4.65888">
        <ele>481.73627</ele>
        <time>2023-07-07T16:24:51.000Z</time>
      </trkpt>
      <trkpt lat="45.79219" lon="4.6589">
        <ele>483.81732</ele>
        <time>2023-07-07T16:25:26.000Z</time>
      </trkpt>
      <trkpt lat="45.79221" lon="4.65891">
        <ele>482.14618</ele>
        <time>2023-07-07T16:25:27.000Z</time>
      </trkpt>
      <trkpt lat="45.79223" lon="4.65891">
        <ele>482.01935</ele>
        <time>2023-07-07T16:25:28.000Z</time>
      </trkpt>
      <trkpt lat="45.79225" lon="4.65892">
        <ele>481.96207</ele>
        <time>2023-07-07T16:25:29.000Z</time>
      </trkpt>
      <trkpt lat="45.79227" lon="4.65893">
        <ele>481.84976</ele>
        <time>2023-07-07T16:25:30.000Z</time>
      </trkpt>
      <trkpt lat="45.79229" lon="4.65894">
        <ele>481.79999</ele>
        <time>2023-07-07T16:25:31.000Z</time>
      </trkpt>
      <trkpt lat="45.7923" lon="4.65895">
        <ele>483.68805</ele>
        <time>2023-07-07T16:25:32.000Z</time>
      </trkpt>
      <trkpt lat="45.79232" lon="4.65896">
        <ele>490.39883</ele>
        <time>2023-07-07T16:25:33.000Z</time>
      </trkpt>
      <trkpt lat="45.79234" lon="4.65898">
        <ele>490.98965</ele>
        <time>2023-07-07T16:25:34.000Z</time>
      </trkpt>
      <trkpt lat="45.79236" lon="4.65899">
        <ele>493.06183</ele>
        <time>2023-07-07T16:25:35.000Z</time>
      </trkpt>
      <trkpt lat="45.7924" lon="4.659">
        <ele>495.22479</ele>
        <time>2023-07-07T16:25:37.000Z</time>
      </trkpt>
      <trkpt lat="45.79242" lon="4.65901">
        <ele>497.41592</ele>
        <time>2023-07-07T16:25:39.000Z</time>
      </trkpt>
      <trkpt lat="45.79245" lon="4.65904">
        <ele>499.65973</ele>
        <time>2023-07-07T16:25:41.000Z</time>
      </trkpt>
      <trkpt lat="45.79247" lon="4.65905">
        <ele>499.84271</ele>
        <time>2023-07-07T16:25:43.000Z</time>
      </trkpt>
      <trkpt lat="45.79248" lon="4.65908">
        <ele>502.01093</ele>
        <time>2023-07-07T16:25:46.000Z</time>
      </trkpt>
      <trkpt lat="45.7925" lon="4.65906">
        <ele>502.31659</ele>
        <time>2023-07-07T16:25:48.000Z</time>
      </trkpt>
      <trkpt lat="45.79252" lon="4.65907">
        <ele>504.63681</ele>
        <time>2023-07-07T16:25:51.000Z</time>
      </trkpt>
      <trkpt lat="45.79254" lon="4.65909">
        <ele>506.97159</ele>
        <time>2023-07-07T16:25:53.000Z</time>
      </trkpt>
      <trkpt lat="45.79257" lon="4.65911">
        <ele>507.32861</ele>
        <time>2023-07-07T16:25:55.000Z</time>
      </trkpt>
      <trkpt lat="45.79258" lon="4.65912">
        <ele>509.54712</ele>
        <time>2023-07-07T16:25:58.000Z</time>
      </trkpt>
      <trkpt lat="45.7926" lon="4.65914">
        <ele>509.73712</ele>
        <time>2023-07-07T16:26:01.000Z</time>
      </trkpt>
      <trkpt lat="45.79262" lon="4.65915">
        <ele>511.84003</ele>
        <time>2023-07-07T16:26:02.000Z</time>
      </trkpt>
      <trkpt lat="45.79264" lon="4.65916">
        <ele>514.0426</ele>
        <time>2023-07-07T16:26:03.000Z</time>
      </trkpt>
      <trkpt lat="45.79267" lon="4.65917">
        <ele>516.21686</ele>
        <time>2023-07-07T16:26:04.000Z</time>
      </trkpt>
      <trkpt lat="45.79269" lon="4.65919">
        <ele>518.38812</ele>
        <time>2023-07-07T16:26:05.000Z</time>
      </trkpt>
      <trkpt lat="45.7927" lon="4.6592">
        <ele>520.57104</ele>
        <time>2023-07-07T16:26:06.000Z</time>
      </trkpt>
      <trkpt lat="45.79272" lon="4.6592">
        <ele>520.78998</ele>
        <time>2023-07-07T16:26:07.000Z</time>
      </trkpt>
      <trkpt lat="45.79275" lon="4.65922">
        <ele>522.8858</ele>
        <time>2023-07-07T16:26:08.000Z</time>
      </trkpt>
      <trkpt lat="45.79278" lon="4.65924">
        <ele>524.64752</ele>
        <time>2023-07-07T16:26:09.000Z</time>
      </trkpt>
      <trkpt lat="45.7928" lon="4.65926">
        <ele>524.92029</ele>
        <time>2023-07-07T16:26:10.000Z</time>
      </trkpt>
      <trkpt lat="45.79282" lon="4.65928">
        <ele>525.2262</ele>
        <time>2023-07-07T16:26:11.000Z</time>
      </trkpt>
      <trkpt lat="45.79284" lon="4.6593">
        <ele>525.48413</ele>
        <time>2023-07-07T16:26:12.000Z</time>
      </trkpt>
      <trkpt lat="45.79287" lon="4.65933">
        <ele>525.67908</ele>
        <time>2023-07-07T16:26:13.000Z</time>
      </trkpt>
      <trkpt lat="45.7929" lon="4.65935">
        <ele>525.80896</ele>
        <time>2023-07-07T16:26:14.000Z</time>
      </trkpt>
      <trkpt lat="45.79293" lon="4.65937">
        <ele>525.92255</ele>
        <time>2023-07-07T16:26:15.000Z</time>
      </trkpt>
      <trkpt lat="45.79296" lon="4.6594">
        <ele>525.90442</ele>
        <time>2023-07-07T16:26:16.000Z</time>
      </trkpt>
      <trkpt lat="45.79299" lon="4.65944">
        <ele>525.89001</ele>
        <time>2023-07-07T16:26:17.000Z</time>
      </trkpt>
      <trkpt lat="45.79302" lon="4.65949">
        <ele>525.88049</ele>
        <time>2023-07-07T16:26:18.000Z</time>
      </trkpt>
      <trkpt lat="45.79305" lon="4.65953">
        <ele>525.8761</ele>
        <time>2023-07-07T16:26:19.000Z</time>
      </trkpt>
      <trkpt lat="45.79309" lon="4.65957">
        <ele>525.83917</ele>
        <time>2023-07-07T16:26:20.000Z</time>
      </trkpt>
      <trkpt lat="45.79316" lon="4.65965">
        <ele>525.81683</ele>
        <time>2023-07-07T16:26:21.000Z</time>
      </trkpt>
      <trkpt lat="45.79319" lon="4.65969">
        <ele>525.78339</ele>
        <time>2023-07-07T16:26:22.000Z</time>
      </trkpt>
      <trkpt lat="45.79322" lon="4.65974">
        <ele>525.74139</ele>
        <time>2023-07-07T16:26:23.000Z</time>
      </trkpt>
      <trkpt lat="45.79325" lon="4.6598">
        <ele>525.74182</ele>
        <time>2023-07-07T16:26:24.000Z</time>
      </trkpt>
      <trkpt lat="45.79327" lon="4.65981">
        <ele>525.7821</ele>
        <time>2023-07-07T16:26:25.000Z</time>
      </trkpt>
      <trkpt lat="45.79329" lon="4.65983">
        <ele>525.76453</ele>
        <time>2023-07-07T16:26:26.000Z</time>
      </trkpt>
      <trkpt lat="45.79333" lon="4.65987">
        <ele>525.66168</ele>
        <time>2023-07-07T16:26:27.000Z</time>
      </trkpt>
      <trkpt lat="45.79336" lon="4.65993">
        <ele>525.60486</ele>
        <time>2023-07-07T16:26:28.000Z</time>
      </trkpt>
      <trkpt lat="45.79338" lon="4.65995">
        <ele>525.56036</ele>
        <time>2023-07-07T16:26:29.000Z</time>
      </trkpt>
      <trkpt lat="45.79341" lon="4.66">
        <ele>525.49176</ele>
        <time>2023-07-07T16:26:30.000Z</time>
      </trkpt>
      <trkpt lat="45.79341" lon="4.6601">
        <ele>525.39191</ele>
        <time>2023-07-07T16:26:31.000Z</time>
      </trkpt>
      <trkpt lat="45.79346" lon="4.66022">
        <ele>525.31256</ele>
        <time>2023-07-07T16:26:32.000Z</time>
      </trkpt>
      <trkpt lat="45.7935" lon="4.66028">
        <ele>525.22839</ele>
        <time>2023-07-07T16:26:33.000Z</time>
      </trkpt>
      <trkpt lat="45.79353" lon="4.66034">
        <ele>525.20758</ele>
        <time>2023-07-07T16:26:34.000Z</time>
      </trkpt>
      <trkpt lat="45.79356" lon="4.66047">
        <ele>525.21448</ele>
        <time>2023-07-07T16:26:35.000Z</time>
      </trkpt>
      <trkpt lat="45.79359" lon="4.66054">
        <ele>525.15167</ele>
        <time>2023-07-07T16:26:36.000Z</time>
      </trkpt>
      <trkpt lat="45.79363" lon="4.66059">
        <ele>525.07092</ele>
        <time>2023-07-07T16:26:37.000Z</time>
      </trkpt>
      <trkpt lat="45.79367" lon="4.66066">
        <ele>524.89685</ele>
        <time>2023-07-07T16:26:38.000Z</time>
      </trkpt>
      <trkpt lat="45.79369" lon="4.66073">
        <ele>524.82697</ele>
        <time>2023-07-07T16:26:39.000Z</time>
      </trkpt>
      <trkpt lat="45.79375" lon="4.66082">
        <ele>524.79688</ele>
        <time>2023-07-07T16:26:40.000Z</time>
      </trkpt>
      <trkpt lat="45.79377" lon="4.66088">
        <ele>524.75745</ele>
        <time>2023-07-07T16:26:41.000Z</time>
      </trkpt>
      <trkpt lat="45.79381" lon="4.66093">
        <ele>524.73499</ele>
        <time>2023-07-07T16:26:42.000Z</time>
      </trkpt>
      <trkpt lat="45.79386" lon="4.66098">
        <ele>524.7038</ele>
        <time>2023-07-07T16:26:43.000Z</time>
      </trkpt>
      <trkpt lat="45.79391" lon="4.66101">
        <ele>523.1405</ele>
        <time>2023-07-07T16:26:45.000Z</time>
      </trkpt>
      <trkpt lat="45.79391" lon="4.66104">
        <ele>521.63501</ele>
        <time>2023-07-07T16:26:47.000Z</time>
      </trkpt>
      <trkpt lat="45.7939" lon="4.66107">
        <ele>520.09528</ele>
        <time>2023-07-07T16:26:48.000Z</time>
      </trkpt>
      <trkpt lat="45.79392" lon="4.66109">
        <ele>519.62079</ele>
        <time>2023-07-07T16:27:11.000Z</time>
      </trkpt>
      <trkpt lat="45.79394" lon="4.66109">
        <ele>519.12189</ele>
        <time>2023-07-07T16:27:12.000Z</time>
      </trkpt>
      <trkpt lat="45.79398" lon="4.6611">
        <ele>518.61096</ele>
        <time>2023-07-07T16:27:13.000Z</time>
      </trkpt>
      <trkpt lat="45.79402" lon="4.66109">
        <ele>518.06079</ele>
        <time>2023-07-07T16:27:14.000Z</time>
      </trkpt>
      <trkpt lat="45.79405" lon="4.66108">
        <ele>517.48969</ele>
        <time>2023-07-07T16:27:15.000Z</time>
      </trkpt>
      <trkpt lat="45.79408" lon="4.66107">
        <ele>516.89905</ele>
        <time>2023-07-07T16:27:16.000Z</time>
      </trkpt>
      <trkpt lat="45.79412" lon="4.66106">
        <ele>516.30603</ele>
        <time>2023-07-07T16:27:17.000Z</time>
      </trkpt>
      <trkpt lat="45.79416" lon="4.66108">
        <ele>515.73212</ele>
        <time>2023-07-07T16:27:18.000Z</time>
      </trkpt>
      <trkpt lat="45.79421" lon="4.66112">
        <ele>515.14221</ele>
        <time>2023-07-07T16:27:19.000Z</time>
      </trkpt>
      <trkpt lat="45.79425" lon="4.66113">
        <ele>514.60486</ele>
        <time>2023-07-07T16:27:20.000Z</time>
      </trkpt>
      <trkpt lat="45.79428" lon="4.66115">
        <ele>514.07422</ele>
        <time>2023-07-07T16:27:21.000Z</time>
      </trkpt>
      <trkpt lat="45.79433" lon="4.66114">
        <ele>513.56335</ele>
        <time>2023-07-07T16:27:22.000Z</time>
      </trkpt>
      <trkpt lat="45.79437" lon="4.66115">
        <ele>512.94897</ele>
        <time>2023-07-07T16:27:23.000Z</time>
      </trkpt>
      <trkpt lat="45.79441" lon="4.66116">
        <ele>512.32898</ele>
        <time>2023-07-07T16:27:24.000Z</time>
      </trkpt>
      <trkpt lat="45.79444" lon="4.66115">
        <ele>511.75107</ele>
        <time>2023-07-07T16:27:25.000Z</time>
      </trkpt>
      <trkpt lat="45.79447" lon="4.66117">
        <ele>511.16943</ele>
        <time>2023-07-07T16:27:26.000Z</time>
      </trkpt>
      <trkpt lat="45.7945" lon="4.66118">
        <ele>510.59991</ele>
        <time>2023-07-07T16:27:27.000Z</time>
      </trkpt>
      <trkpt lat="45.79453" lon="4.66119">
        <ele>511.56241</ele>
        <time>2023-07-07T16:27:28.000Z</time>
      </trkpt>
      <trkpt lat="45.79456" lon="4.66119">
        <ele>512.43591</ele>
        <time>2023-07-07T16:27:29.000Z</time>
      </trkpt>
      <trkpt lat="45.7946" lon="4.66121">
        <ele>513.39294</ele>
        <time>2023-07-07T16:27:30.000Z</time>
      </trkpt>
      <trkpt lat="45.79463" lon="4.66123">
        <ele>513.34229</ele>
        <time>2023-07-07T16:27:31.000Z</time>
      </trkpt>
      <trkpt lat="45.79467" lon="4.66125">
        <ele>513.25696</ele>
        <time>2023-07-07T16:27:32.000Z</time>
      </trkpt>
      <trkpt lat="45.7947" lon="4.66127">
        <ele>513.15961</ele>
        <time>2023-07-07T16:27:33.000Z</time>
      </trkpt>
      <trkpt lat="45.79473" lon="4.66128">
        <ele>513.07166</ele>
        <time>2023-07-07T16:27:34.000Z</time>
      </trkpt>
      <trkpt lat="45.79477" lon="4.66129">
        <ele>512.99634</ele>
        <time>2023-07-07T16:27:35.000Z</time>
      </trkpt>
      <trkpt lat="45.79481" lon="4.66129">
        <ele>512.95593</ele>
        <time>2023-07-07T16:27:36.000Z</time>
      </trkpt>
      <trkpt lat="45.79485" lon="4.6613">
        <ele>512.92798</ele>
        <time>2023-07-07T16:27:37.000Z</time>
      </trkpt>
      <trkpt lat="45.79489" lon="4.66131">
        <ele>512.87061</ele>
        <time>2023-07-07T16:27:38.000Z</time>
      </trkpt>
      <trkpt lat="45.79492" lon="4.66132">
        <ele>512.79486</ele>
        <time>2023-07-07T16:27:39.000Z</time>
      </trkpt>
      <trkpt lat="45.79496" lon="4.66134">
        <ele>512.67908</ele>
        <time>2023-07-07T16:27:40.000Z</time>
      </trkpt>
      <trkpt lat="45.79499" lon="4.66137">
        <ele>512.45782</ele>
        <time>2023-07-07T16:27:41.000Z</time>
      </trkpt>
      <trkpt lat="45.79503" lon="4.6614">
        <ele>512.08917</ele>
        <time>2023-07-07T16:27:42.000Z</time>
      </trkpt>
      <trkpt lat="45.79506" lon="4.66144">
        <ele>511.63364</ele>
        <time>2023-07-07T16:27:43.000Z</time>
      </trkpt>
      <trkpt lat="45.79508" lon="4.66148">
        <ele>511.09872</ele>
        <time>2023-07-07T16:27:44.000Z</time>
      </trkpt>
      <trkpt lat="45.79511" lon="4.66153">
        <ele>510.47736</ele>
        <time>2023-07-07T16:27:45.000Z</time>
      </trkpt>
      <trkpt lat="45.79514" lon="4.66158">
        <ele>509.83212</ele>
        <time>2023-07-07T16:27:46.000Z</time>
      </trkpt>
      <trkpt lat="45.79516" lon="4.66163">
        <ele>509.15918</ele>
        <time>2023-07-07T16:27:47.000Z</time>
      </trkpt>
      <trkpt lat="45.79518" lon="4.66167">
        <ele>508.40128</ele>
        <time>2023-07-07T16:27:48.000Z</time>
      </trkpt>
      <trkpt lat="45.79519" lon="4.6617">
        <ele>507.66055</ele>
        <time>2023-07-07T16:27:49.000Z</time>
      </trkpt>
      <trkpt lat="45.7952" lon="4.66175">
        <ele>506.89389</ele>
        <time>2023-07-07T16:27:51.000Z</time>
      </trkpt>
      <trkpt lat="45.79522" lon="4.66178">
        <ele>506.13843</ele>
        <time>2023-07-07T16:27:52.000Z</time>
      </trkpt>
      <trkpt lat="45.79524" lon="4.66181">
        <ele>505.43994</ele>
        <time>2023-07-07T16:27:53.000Z</time>
      </trkpt>
      <trkpt lat="45.79526" lon="4.66182">
        <ele>504.71454</ele>
        <time>2023-07-07T16:27:58.000Z</time>
      </trkpt>
      <trkpt lat="45.79528" lon="4.66182">
        <ele>503.82632</ele>
        <time>2023-07-07T16:28:02.000Z</time>
      </trkpt>
      <trkpt lat="45.7953" lon="4.66182">
        <ele>502.85562</ele>
        <time>2023-07-07T16:28:05.000Z</time>
      </trkpt>
      <trkpt lat="45.79531" lon="4.6618">
        <ele>501.86456</ele>
        <time>2023-07-07T16:28:21.000Z</time>
      </trkpt>
      <trkpt lat="45.79533" lon="4.66178">
        <ele>500.85663</ele>
        <time>2023-07-07T16:28:28.000Z</time>
      </trkpt>
      <trkpt lat="45.79535" lon="4.66178">
        <ele>499.8291</ele>
        <time>2023-07-07T16:28:56.000Z</time>
      </trkpt>
      <trkpt lat="45.79538" lon="4.66178">
        <ele>498.80338</ele>
        <time>2023-07-07T16:28:58.000Z</time>
      </trkpt>
      <trkpt lat="45.7954" lon="4.66179">
        <ele>497.7084</ele>
        <time>2023-07-07T16:29:00.000Z</time>
      </trkpt>
      <trkpt lat="45.79542" lon="4.6618">
        <ele>496.73358</ele>
        <time>2023-07-07T16:29:07.000Z</time>
      </trkpt>
      <trkpt lat="45.79542" lon="4.66183">
        <ele>495.84589</ele>
        <time>2023-07-07T16:29:11.000Z</time>
      </trkpt>
      <trkpt lat="45.79544" lon="4.66186">
        <ele>495.11523</ele>
        <time>2023-07-07T16:29:23.000Z</time>
      </trkpt>
      <trkpt lat="45.79545" lon="4.6619">
        <ele>494.49213</ele>
        <time>2023-07-07T16:29:24.000Z</time>
      </trkpt>
      <trkpt lat="45.79547" lon="4.66193">
        <ele>493.81512</ele>
        <time>2023-07-07T16:29:25.000Z</time>
      </trkpt>
      <trkpt lat="45.79549" lon="4.66196">
        <ele>493.19995</ele>
        <time>2023-07-07T16:29:26.000Z</time>
      </trkpt>
      <trkpt lat="45.79552" lon="4.66199">
        <ele>492.61115</ele>
        <time>2023-07-07T16:29:27.000Z</time>
      </trkpt>
      <trkpt lat="45.79554" lon="4.66202">
        <ele>492.10968</ele>
        <time>2023-07-07T16:29:28.000Z</time>
      </trkpt>
      <trkpt lat="45.79555" lon="4.66203">
        <ele>491.61694</ele>
        <time>2023-07-07T16:29:29.000Z</time>
      </trkpt>
      <trkpt lat="45.79558" lon="4.66205">
        <ele>491.22076</ele>
        <time>2023-07-07T16:29:30.000Z</time>
      </trkpt>
      <trkpt lat="45.79561" lon="4.66208">
        <ele>490.80869</ele>
        <time>2023-07-07T16:29:31.000Z</time>
      </trkpt>
      <trkpt lat="45.79564" lon="4.66211">
        <ele>490.358</ele>
        <time>2023-07-07T16:29:32.000Z</time>
      </trkpt>
      <trkpt lat="45.79566" lon="4.66214">
        <ele>489.90131</ele>
        <time>2023-07-07T16:29:33.000Z</time>
      </trkpt>
      <trkpt lat="45.79568" lon="4.66217">
        <ele>489.68335</ele>
        <time>2023-07-07T16:29:34.000Z</time>
      </trkpt>
      <trkpt lat="45.7957" lon="4.66218">
        <ele>489.52667</ele>
        <time>2023-07-07T16:29:35.000Z</time>
      </trkpt>
      <trkpt lat="45.79573" lon="4.6622">
        <ele>489.21484</ele>
        <time>2023-07-07T16:29:36.000Z</time>
      </trkpt>
      <trkpt lat="45.79576" lon="4.66221">
        <ele>488.89337</ele>
        <time>2023-07-07T16:29:37.000Z</time>
      </trkpt>
      <trkpt lat="45.79579" lon="4.66224">
        <ele>488.60385</ele>
        <time>2023-07-07T16:29:38.000Z</time>
      </trkpt>
      <trkpt lat="45.79583" lon="4.66228">
        <ele>488.34595</ele>
        <time>2023-07-07T16:29:39.000Z</time>
      </trkpt>
      <trkpt lat="45.79586" lon="4.66231">
        <ele>488.21509</ele>
        <time>2023-07-07T16:29:40.000Z</time>
      </trkpt>
      <trkpt lat="45.7959" lon="4.66233">
        <ele>488.03369</ele>
        <time>2023-07-07T16:29:41.000Z</time>
      </trkpt>
      <trkpt lat="45.79595" lon="4.66235">
        <ele>487.98105</ele>
        <time>2023-07-07T16:29:42.000Z</time>
      </trkpt>
      <trkpt lat="45.79599" lon="4.66236">
        <ele>487.83569</ele>
        <time>2023-07-07T16:29:43.000Z</time>
      </trkpt>
      <trkpt lat="45.79603" lon="4.66237">
        <ele>487.69238</ele>
        <time>2023-07-07T16:29:44.000Z</time>
      </trkpt>
      <trkpt lat="45.79607" lon="4.66238">
        <ele>487.66006</ele>
        <time>2023-07-07T16:29:45.000Z</time>
      </trkpt>
      <trkpt lat="45.79614" lon="4.66238">
        <ele>487.57306</ele>
        <time>2023-07-07T16:29:46.000Z</time>
      </trkpt>
      <trkpt lat="45.79617" lon="4.66238">
        <ele>487.47607</ele>
        <time>2023-07-07T16:29:47.000Z</time>
      </trkpt>
      <trkpt lat="45.79623" lon="4.66238">
        <ele>487.43439</ele>
        <time>2023-07-07T16:29:48.000Z</time>
      </trkpt>
      <trkpt lat="45.79627" lon="4.66238">
        <ele>487.36191</ele>
        <time>2023-07-07T16:29:49.000Z</time>
      </trkpt>
      <trkpt lat="45.79631" lon="4.6624">
        <ele>487.21777</ele>
        <time>2023-07-07T16:29:50.000Z</time>
      </trkpt>
      <trkpt lat="45.79635" lon="4.66241">
        <ele>487.08301</ele>
        <time>2023-07-07T16:29:51.000Z</time>
      </trkpt>
      <trkpt lat="45.79638" lon="4.66242">
        <ele>486.94717</ele>
        <time>2023-07-07T16:29:52.000Z</time>
      </trkpt>
      <trkpt lat="45.79642" lon="4.66241">
        <ele>480.97476</ele>
        <time>2023-07-07T16:29:53.000Z</time>
      </trkpt>
      <trkpt lat="45.79645" lon="4.66241">
        <ele>480.5416</ele>
        <time>2023-07-07T16:29:54.000Z</time>
      </trkpt>
      <trkpt lat="45.79649" lon="4.66241">
        <ele>480.11505</ele>
        <time>2023-07-07T16:29:55.000Z</time>
      </trkpt>
      <trkpt lat="45.79652" lon="4.66241">
        <ele>479.81952</ele>
        <time>2023-07-07T16:29:56.000Z</time>
      </trkpt>
      <trkpt lat="45.79654" lon="4.66241">
        <ele>479.53619</ele>
        <time>2023-07-07T16:29:57.000Z</time>
      </trkpt>
      <trkpt lat="45.79658" lon="4.66243">
        <ele>479.22208</ele>
        <time>2023-07-07T16:29:58.000Z</time>
      </trkpt>
      <trkpt lat="45.79661" lon="4.66244">
        <ele>473.25861</ele>
        <time>2023-07-07T16:29:59.000Z</time>
      </trkpt>
      <trkpt lat="45.79664" lon="4.66246">
        <ele>472.57416</ele>
        <time>2023-07-07T16:30:00.000Z</time>
      </trkpt>
      <trkpt lat="45.79667" lon="4.66248">
        <ele>471.89078</ele>
        <time>2023-07-07T16:30:01.000Z</time>
      </trkpt>
      <trkpt lat="45.7967" lon="4.6625">
        <ele>471.15698</ele>
        <time>2023-07-07T16:30:02.000Z</time>
      </trkpt>
      <trkpt lat="45.79673" lon="4.66252">
        <ele>470.41595</ele>
        <time>2023-07-07T16:30:03.000Z</time>
      </trkpt>
      <trkpt lat="45.79677" lon="4.66255">
        <ele>469.61676</ele>
        <time>2023-07-07T16:30:04.000Z</time>
      </trkpt>
      <trkpt lat="45.7968" lon="4.66257">
        <ele>462.89063</ele>
        <time>2023-07-07T16:30:05.000Z</time>
      </trkpt>
      <trkpt lat="45.79682" lon="4.66259">
        <ele>461.72632</ele>
        <time>2023-07-07T16:30:06.000Z</time>
      </trkpt>
      <trkpt lat="45.79684" lon="4.66261">
        <ele>460.50415</ele>
        <time>2023-07-07T16:30:07.000Z</time>
      </trkpt>
      <trkpt lat="45.79686" lon="4.66263">
        <ele>459.15558</ele>
        <time>2023-07-07T16:30:08.000Z</time>
      </trkpt>
      <trkpt lat="45.79687" lon="4.66263">
        <ele>457.74161</ele>
        <time>2023-07-07T16:30:09.000Z</time>
      </trkpt>
      <trkpt lat="45.79689" lon="4.66262">
        <ele>456.26056</ele>
        <time>2023-07-07T16:30:10.000Z</time>
      </trkpt>
      <trkpt lat="45.79692" lon="4.66261">
        <ele>450.59879</ele>
        <time>2023-07-07T16:30:11.000Z</time>
      </trkpt>
      <trkpt lat="45.79695" lon="4.66261">
        <ele>448.77457</ele>
        <time>2023-07-07T16:30:12.000Z</time>
      </trkpt>
      <trkpt lat="45.79698" lon="4.66261">
        <ele>452.73892</ele>
        <time>2023-07-07T16:30:13.000Z</time>
      </trkpt>
      <trkpt lat="45.797" lon="4.66262">
        <ele>451.32715</ele>
        <time>2023-07-07T16:30:14.000Z</time>
      </trkpt>
      <trkpt lat="45.79703" lon="4.66264">
        <ele>449.86639</ele>
        <time>2023-07-07T16:30:15.000Z</time>
      </trkpt>
      <trkpt lat="45.79705" lon="4.66266">
        <ele>448.35394</ele>
        <time>2023-07-07T16:30:16.000Z</time>
      </trkpt>
      <trkpt lat="45.79707" lon="4.6627">
        <ele>442.71298</ele>
        <time>2023-07-07T16:30:18.000Z</time>
      </trkpt>
      <trkpt lat="45.7971" lon="4.66271">
        <ele>440.87183</ele>
        <time>2023-07-07T16:30:19.000Z</time>
      </trkpt>
      <trkpt lat="45.79714" lon="4.66273">
        <ele>444.5643</ele>
        <time>2023-07-07T16:30:20.000Z</time>
      </trkpt>
      <trkpt lat="45.79718" lon="4.66273">
        <ele>443.12958</ele>
        <time>2023-07-07T16:30:21.000Z</time>
      </trkpt>
      <trkpt lat="45.79721" lon="4.66272">
        <ele>441.65738</ele>
        <time>2023-07-07T16:30:22.000Z</time>
      </trkpt>
      <trkpt lat="45.79724" lon="4.6627">
        <ele>440.14569</ele>
        <time>2023-07-07T16:30:23.000Z</time>
      </trkpt>
      <trkpt lat="45.79727" lon="4.66269">
        <ele>433.77026</ele>
        <time>2023-07-07T16:30:24.000Z</time>
      </trkpt>
      <trkpt lat="45.7973" lon="4.66267">
        <ele>431.93799</ele>
        <time>2023-07-07T16:30:25.000Z</time>
      </trkpt>
      <trkpt lat="45.79732" lon="4.66267">
        <ele>435.92978</ele>
        <time>2023-07-07T16:30:26.000Z</time>
      </trkpt>
      <trkpt lat="45.79735" lon="4.66267">
        <ele>434.58173</ele>
        <time>2023-07-07T16:30:27.000Z</time>
      </trkpt>
      <trkpt lat="45.79737" lon="4.66268">
        <ele>433.22452</ele>
        <time>2023-07-07T16:30:28.000Z</time>
      </trkpt>
      <trkpt lat="45.79739" lon="4.66268">
        <ele>431.86053</ele>
        <time>2023-07-07T16:30:29.000Z</time>
      </trkpt>
      <trkpt lat="45.79741" lon="4.66268">
        <ele>425.96088</ele>
        <time>2023-07-07T16:30:30.000Z</time>
      </trkpt>
      <trkpt lat="45.79743" lon="4.66266">
        <ele>424.37183</ele>
        <time>2023-07-07T16:30:31.000Z</time>
      </trkpt>
      <trkpt lat="45.79746" lon="4.66261">
        <ele>426.8913</ele>
        <time>2023-07-07T16:30:32.000Z</time>
      </trkpt>
      <trkpt lat="45.79749" lon="4.66257">
        <ele>425.70596</ele>
        <time>2023-07-07T16:30:33.000Z</time>
      </trkpt>
      <trkpt lat="45.79751" lon="4.66253">
        <ele>424.55255</ele>
        <time>2023-07-07T16:30:34.000Z</time>
      </trkpt>
      <trkpt lat="45.79754" lon="4.66252">
        <ele>423.14322</ele>
        <time>2023-07-07T16:30:35.000Z</time>
      </trkpt>
      <trkpt lat="45.79757" lon="4.66252">
        <ele>418.7215</ele>
        <time>2023-07-07T16:30:36.000Z</time>
      </trkpt>
      <trkpt lat="45.79759" lon="4.66255">
        <ele>417.16425</ele>
        <time>2023-07-07T16:30:37.000Z</time>
      </trkpt>
      <trkpt lat="45.79761" lon="4.66258">
        <ele>419.67245</ele>
        <time>2023-07-07T16:30:38.000Z</time>
      </trkpt>
      <trkpt lat="45.79762" lon="4.6626">
        <ele>418.52045</ele>
        <time>2023-07-07T16:30:39.000Z</time>
      </trkpt>
      <trkpt lat="45.79764" lon="4.66264">
        <ele>417.40289</ele>
        <time>2023-07-07T16:30:40.000Z</time>
      </trkpt>
      <trkpt lat="45.79766" lon="4.66267">
        <ele>416.04483</ele>
        <time>2023-07-07T16:30:41.000Z</time>
      </trkpt>
      <trkpt lat="45.79768" lon="4.6627">
        <ele>411.26831</ele>
        <time>2023-07-07T16:30:42.000Z</time>
      </trkpt>
      <trkpt lat="45.7977" lon="4.66271">
        <ele>409.74887</ele>
        <time>2023-07-07T16:30:43.000Z</time>
      </trkpt>
      <trkpt lat="45.79771" lon="4.66269">
        <ele>413.05389</ele>
        <time>2023-07-07T16:30:45.000Z</time>
      </trkpt>
      <trkpt lat="45.79773" lon="4.66268">
        <ele>412.01807</ele>
        <time>2023-07-07T16:30:47.000Z</time>
      </trkpt>
      <trkpt lat="45.79775" lon="4.66268">
        <ele>409.01773</ele>
        <time>2023-07-07T16:30:53.000Z</time>
      </trkpt>
      <trkpt lat="45.79777" lon="4.66268">
        <ele>404.2301</ele>
        <time>2023-07-07T16:31:09.000Z</time>
      </trkpt>
      <trkpt lat="45.79781" lon="4.66266">
        <ele>402.71252</ele>
        <time>2023-07-07T16:31:11.000Z</time>
      </trkpt>
      <trkpt lat="45.79784" lon="4.66263">
        <ele>401.18692</ele>
        <time>2023-07-07T16:31:12.000Z</time>
      </trkpt>
      <trkpt lat="45.79785" lon="4.66258">
        <ele>404.18814</ele>
        <time>2023-07-07T16:31:13.000Z</time>
      </trkpt>
      <trkpt lat="45.79787" lon="4.66255">
        <ele>403.09949</ele>
        <time>2023-07-07T16:31:14.000Z</time>
      </trkpt>
      <trkpt lat="45.79788" lon="4.66251">
        <ele>399.10767</ele>
        <time>2023-07-07T16:31:15.000Z</time>
      </trkpt>
      <trkpt lat="45.7979" lon="4.66247">
        <ele>397.71851</ele>
        <time>2023-07-07T16:31:16.000Z</time>
      </trkpt>
      <trkpt lat="45.79793" lon="4.66244">
        <ele>396.31915</ele>
        <time>2023-07-07T16:31:17.000Z</time>
      </trkpt>
      <trkpt lat="45.79796" lon="4.6624">
        <ele>394.90747</ele>
        <time>2023-07-07T16:31:18.000Z</time>
      </trkpt>
      <trkpt lat="45.79799" lon="4.66237">
        <ele>396.50824</ele>
        <time>2023-07-07T16:31:19.000Z</time>
      </trkpt>
      <trkpt lat="45.79802" lon="4.66234">
        <ele>394.38196</ele>
        <time>2023-07-07T16:31:20.000Z</time>
      </trkpt>
      <trkpt lat="45.79806" lon="4.6623">
        <ele>391.92947</ele>
        <time>2023-07-07T16:31:21.000Z</time>
      </trkpt>
      <trkpt lat="45.79809" lon="4.66227">
        <ele>390.54233</ele>
        <time>2023-07-07T16:31:22.000Z</time>
      </trkpt>
      <trkpt lat="45.79811" lon="4.66225">
        <ele>388.16901</ele>
        <time>2023-07-07T16:31:23.000Z</time>
      </trkpt>
      <trkpt lat="45.79811" lon="4.66223">
        <ele>388.48218</ele>
        <time>2023-07-07T16:31:30.000Z</time>
      </trkpt>
      <trkpt lat="45.79812" lon="4.6622">
        <ele>392.26065</ele>
        <time>2023-07-07T16:31:51.000Z</time>
      </trkpt>
      <trkpt lat="45.79813" lon="4.66217">
        <ele>391.31024</ele>
        <time>2023-07-07T16:31:52.000Z</time>
      </trkpt>
      <trkpt lat="45.79816" lon="4.66214">
        <ele>390.38831</ele>
        <time>2023-07-07T16:31:53.000Z</time>
      </trkpt>
      <trkpt lat="45.79819" lon="4.66211">
        <ele>389.25504</ele>
        <time>2023-07-07T16:31:54.000Z</time>
      </trkpt>
      <trkpt lat="45.79823" lon="4.66208">
        <ele>390.12122</ele>
        <time>2023-07-07T16:31:55.000Z</time>
      </trkpt>
      <trkpt lat="45.79826" lon="4.66205">
        <ele>392.61841</ele>
        <time>2023-07-07T16:31:56.000Z</time>
      </trkpt>
      <trkpt lat="45.7983" lon="4.66202">
        <ele>393.55695</ele>
        <time>2023-07-07T16:31:57.000Z</time>
      </trkpt>
      <trkpt lat="45.79833" lon="4.66198">
        <ele>394.56976</ele>
        <time>2023-07-07T16:31:58.000Z</time>
      </trkpt>
      <trkpt lat="45.79837" lon="4.66194">
        <ele>395.63293</ele>
        <time>2023-07-07T16:31:59.000Z</time>
      </trkpt>
      <trkpt lat="45.79842" lon="4.6619">
        <ele>396.57275</ele>
        <time>2023-07-07T16:32:00.000Z</time>
      </trkpt>
      <trkpt lat="45.79846" lon="4.66185">
        <ele>400.53091</ele>
        <time>2023-07-07T16:32:01.000Z</time>
      </trkpt>
      <trkpt lat="45.7985" lon="4.66181">
        <ele>401.74234</ele>
        <time>2023-07-07T16:32:02.000Z</time>
      </trkpt>
      <trkpt lat="45.79854" lon="4.66179">
        <ele>402.9863</ele>
        <time>2023-07-07T16:32:03.000Z</time>
      </trkpt>
      <trkpt lat="45.79858" lon="4.66176">
        <ele>404.29199</ele>
        <time>2023-07-07T16:32:04.000Z</time>
      </trkpt>
      <trkpt lat="45.79863" lon="4.66174">
        <ele>405.6795</ele>
        <time>2023-07-07T16:32:05.000Z</time>
      </trkpt>
      <trkpt lat="45.79869" lon="4.6617">
        <ele>407.99222</ele>
        <time>2023-07-07T16:32:06.000Z</time>
      </trkpt>
      <trkpt lat="45.79874" lon="4.66168">
        <ele>410.71722</ele>
        <time>2023-07-07T16:32:07.000Z</time>
      </trkpt>
      <trkpt lat="45.79879" lon="4.66165">
        <ele>412.22345</ele>
        <time>2023-07-07T16:32:08.000Z</time>
      </trkpt>
      <trkpt lat="45.79884" lon="4.66159">
        <ele>414.75107</ele>
        <time>2023-07-07T16:32:09.000Z</time>
      </trkpt>
      <trkpt lat="45.79889" lon="4.66156">
        <ele>414.64145</ele>
        <time>2023-07-07T16:32:10.000Z</time>
      </trkpt>
      <trkpt lat="45.79893" lon="4.66154">
        <ele>414.58246</ele>
        <time>2023-07-07T16:32:11.000Z</time>
      </trkpt>
      <trkpt lat="45.79896" lon="4.66151">
        <ele>416.08975</ele>
        <time>2023-07-07T16:32:12.000Z</time>
      </trkpt>
      <trkpt lat="45.799" lon="4.66148">
        <ele>417.61563</ele>
        <time>2023-07-07T16:32:13.000Z</time>
      </trkpt>
      <trkpt lat="45.79902" lon="4.66146">
        <ele>419.173</ele>
        <time>2023-07-07T16:32:14.000Z</time>
      </trkpt>
      <trkpt lat="45.79905" lon="4.66143">
        <ele>420.79459</ele>
        <time>2023-07-07T16:32:15.000Z</time>
      </trkpt>
      <trkpt lat="45.79907" lon="4.6614">
        <ele>422.32379</ele>
        <time>2023-07-07T16:32:16.000Z</time>
      </trkpt>
      <trkpt lat="45.79909" lon="4.66137">
        <ele>422.18976</ele>
        <time>2023-07-07T16:32:17.000Z</time>
      </trkpt>
      <trkpt lat="45.79911" lon="4.66134">
        <ele>422.91519</ele>
        <time>2023-07-07T16:32:18.000Z</time>
      </trkpt>
      <trkpt lat="45.79914" lon="4.66131">
        <ele>423.66318</ele>
        <time>2023-07-07T16:32:19.000Z</time>
      </trkpt>
      <trkpt lat="45.79917" lon="4.66128">
        <ele>424.67767</ele>
        <time>2023-07-07T16:32:20.000Z</time>
      </trkpt>
      <trkpt lat="45.7992" lon="4.66124">
        <ele>425.66144</ele>
        <time>2023-07-07T16:32:21.000Z</time>
      </trkpt>
      <trkpt lat="45.79923" lon="4.6612">
        <ele>426.64859</ele>
        <time>2023-07-07T16:32:22.000Z</time>
      </trkpt>
      <trkpt lat="45.79925" lon="4.66117">
        <ele>427.67889</ele>
        <time>2023-07-07T16:32:23.000Z</time>
      </trkpt>
      <trkpt lat="45.79927" lon="4.66114">
        <ele>428.72992</ele>
        <time>2023-07-07T16:32:24.000Z</time>
      </trkpt>
      <trkpt lat="45.79928" lon="4.66111">
        <ele>429.77213</ele>
        <time>2023-07-07T16:32:25.000Z</time>
      </trkpt>
      <trkpt lat="45.7993" lon="4.66108">
        <ele>430.80087</ele>
        <time>2023-07-07T16:32:26.000Z</time>
      </trkpt>
      <trkpt lat="45.79931" lon="4.66106">
        <ele>431.80841</ele>
        <time>2023-07-07T16:32:27.000Z</time>
      </trkpt>
      <trkpt lat="45.79933" lon="4.66102">
        <ele>432.83456</ele>
        <time>2023-07-07T16:32:28.000Z</time>
      </trkpt>
      <trkpt lat="45.79935" lon="4.66098">
        <ele>433.87762</ele>
        <time>2023-07-07T16:32:29.000Z</time>
      </trkpt>
      <trkpt lat="45.79936" lon="4.66094">
        <ele>435.12433</ele>
        <time>2023-07-07T16:32:30.000Z</time>
      </trkpt>
      <trkpt lat="45.79936" lon="4.66089">
        <ele>436.39691</ele>
        <time>2023-07-07T16:32:31.000Z</time>
      </trkpt>
      <trkpt lat="45.79937" lon="4.66084">
        <ele>436.96811</ele>
        <time>2023-07-07T16:32:32.000Z</time>
      </trkpt>
      <trkpt lat="45.79937" lon="4.66079">
        <ele>437.5687</ele>
        <time>2023-07-07T16:32:33.000Z</time>
      </trkpt>
      <trkpt lat="45.79938" lon="4.66075">
        <ele>438.24335</ele>
        <time>2023-07-07T16:32:34.000Z</time>
      </trkpt>
      <trkpt lat="45.79939" lon="4.6607">
        <ele>438.05939</ele>
        <time>2023-07-07T16:32:35.000Z</time>
      </trkpt>
      <trkpt lat="45.7994" lon="4.66066">
        <ele>437.9086</ele>
        <time>2023-07-07T16:32:36.000Z</time>
      </trkpt>
      <trkpt lat="45.79941" lon="4.66062">
        <ele>437.79477</ele>
        <time>2023-07-07T16:32:37.000Z</time>
      </trkpt>
      <trkpt lat="45.79943" lon="4.66058">
        <ele>436.73676</ele>
        <time>2023-07-07T16:32:38.000Z</time>
      </trkpt>
      <trkpt lat="45.79944" lon="4.66054">
        <ele>435.67303</ele>
        <time>2023-07-07T16:32:39.000Z</time>
      </trkpt>
      <trkpt lat="45.79947" lon="4.66052">
        <ele>434.30069</ele>
        <time>2023-07-07T16:32:40.000Z</time>
      </trkpt>
      <trkpt lat="45.79949" lon="4.66048">
        <ele>432.87671</ele>
        <time>2023-07-07T16:32:41.000Z</time>
      </trkpt>
      <trkpt lat="45.79951" lon="4.66044">
        <ele>431.44647</ele>
        <time>2023-07-07T16:32:42.000Z</time>
      </trkpt>
      <trkpt lat="45.79952" lon="4.6604">
        <ele>430.02823</ele>
        <time>2023-07-07T16:32:43.000Z</time>
      </trkpt>
      <trkpt lat="45.79953" lon="4.66037">
        <ele>428.59113</ele>
        <time>2023-07-07T16:32:44.000Z</time>
      </trkpt>
      <trkpt lat="45.79953" lon="4.66033">
        <ele>427.16129</ele>
        <time>2023-07-07T16:32:45.000Z</time>
      </trkpt>
      <trkpt lat="45.79953" lon="4.6603">
        <ele>425.7872</ele>
        <time>2023-07-07T16:32:46.000Z</time>
      </trkpt>
      <trkpt lat="45.79949" lon="4.6603">
        <ele>424.46655</ele>
        <time>2023-07-07T16:32:48.000Z</time>
      </trkpt>
      <trkpt lat="45.79946" lon="4.66033">
        <ele>423.12216</ele>
        <time>2023-07-07T16:32:49.000Z</time>
      </trkpt>
      <trkpt lat="45.79944" lon="4.66038">
        <ele>421.76337</ele>
        <time>2023-07-07T16:32:50.000Z</time>
      </trkpt>
      <trkpt lat="45.79942" lon="4.66043">
        <ele>420.25113</ele>
        <time>2023-07-07T16:32:51.000Z</time>
      </trkpt>
      <trkpt lat="45.79941" lon="4.66047">
        <ele>418.72736</ele>
        <time>2023-07-07T16:32:52.000Z</time>
      </trkpt>
      <trkpt lat="45.79939" lon="4.66051">
        <ele>417.76871</ele>
        <time>2023-07-07T16:32:53.000Z</time>
      </trkpt>
      <trkpt lat="45.79938" lon="4.66057">
        <ele>416.86395</ele>
        <time>2023-07-07T16:32:54.000Z</time>
      </trkpt>
      <trkpt lat="45.79937" lon="4.66063">
        <ele>415.87027</ele>
        <time>2023-07-07T16:32:55.000Z</time>
      </trkpt>
      <trkpt lat="45.79936" lon="4.66069">
        <ele>415.77716</ele>
        <time>2023-07-07T16:32:56.000Z</time>
      </trkpt>
      <trkpt lat="45.79934" lon="4.66075">
        <ele>415.73877</ele>
        <time>2023-07-07T16:32:57.000Z</time>
      </trkpt>
      <trkpt lat="45.79933" lon="4.6608">
        <ele>415.70001</ele>
        <time>2023-07-07T16:32:58.000Z</time>
      </trkpt>
      <trkpt lat="45.79932" lon="4.66086">
        <ele>415.74701</ele>
        <time>2023-07-07T16:32:59.000Z</time>
      </trkpt>
      <trkpt lat="45.79931" lon="4.66091">
        <ele>415.83575</ele>
        <time>2023-07-07T16:33:00.000Z</time>
      </trkpt>
      <trkpt lat="45.7993" lon="4.66096">
        <ele>415.95157</ele>
        <time>2023-07-07T16:33:01.000Z</time>
      </trkpt>
      <trkpt lat="45.79929" lon="4.66101">
        <ele>416.1181</ele>
        <time>2023-07-07T16:33:02.000Z</time>
      </trkpt>
      <trkpt lat="45.79928" lon="4.66106">
        <ele>416.29877</ele>
        <time>2023-07-07T16:33:03.000Z</time>
      </trkpt>
      <trkpt lat="45.79926" lon="4.6611">
        <ele>416.51837</ele>
        <time>2023-07-07T16:33:04.000Z</time>
      </trkpt>
      <trkpt lat="45.79925" lon="4.66114">
        <ele>416.7132</ele>
        <time>2023-07-07T16:33:05.000Z</time>
      </trkpt>
      <trkpt lat="45.79925" lon="4.66118">
        <ele>416.89069</ele>
        <time>2023-07-07T16:33:06.000Z</time>
      </trkpt>
      <trkpt lat="45.79927" lon="4.66122">
        <ele>417.00717</ele>
        <time>2023-07-07T16:33:07.000Z</time>
      </trkpt>
      <trkpt lat="45.79934" lon="4.66124">
        <ele>417.09195</ele>
        <time>2023-07-07T16:33:08.000Z</time>
      </trkpt>
      <trkpt lat="45.79939" lon="4.66128">
        <ele>417.19287</ele>
        <time>2023-07-07T16:33:09.000Z</time>
      </trkpt>
      <trkpt lat="45.79944" lon="4.66132">
        <ele>417.28735</ele>
        <time>2023-07-07T16:33:10.000Z</time>
      </trkpt>
      <trkpt lat="45.79948" lon="4.66138">
        <ele>417.29706</ele>
        <time>2023-07-07T16:33:11.000Z</time>
      </trkpt>
      <trkpt lat="45.79954" lon="4.66143">
        <ele>417.25629</ele>
        <time>2023-07-07T16:33:12.000Z</time>
      </trkpt>
      <trkpt lat="45.79959" lon="4.66148">
        <ele>417.31073</ele>
        <time>2023-07-07T16:33:13.000Z</time>
      </trkpt>
      <trkpt lat="45.79965" lon="4.66152">
        <ele>417.27246</ele>
        <time>2023-07-07T16:33:14.000Z</time>
      </trkpt>
      <trkpt lat="45.7997" lon="4.66157">
        <ele>417.24908</ele>
        <time>2023-07-07T16:33:15.000Z</time>
      </trkpt>
      <trkpt lat="45.79975" lon="4.66161">
        <ele>417.13834</ele>
        <time>2023-07-07T16:33:16.000Z</time>
      </trkpt>
      <trkpt lat="45.79981" lon="4.66166">
        <ele>416.96997</ele>
        <time>2023-07-07T16:33:17.000Z</time>
      </trkpt>
      <trkpt lat="45.79986" lon="4.66169">
        <ele>416.76181</ele>
        <time>2023-07-07T16:33:18.000Z</time>
      </trkpt>
      <trkpt lat="45.79991" lon="4.66173">
        <ele>416.51392</ele>
        <time>2023-07-07T16:33:19.000Z</time>
      </trkpt>
      <trkpt lat="45.79995" lon="4.66177">
        <ele>416.28818</ele>
        <time>2023-07-07T16:33:20.000Z</time>
      </trkpt>
      <trkpt lat="45.79999" lon="4.66181">
        <ele>416.09985</ele>
        <time>2023-07-07T16:33:21.000Z</time>
      </trkpt>
      <trkpt lat="45.80002" lon="4.66184">
        <ele>415.88535</ele>
        <time>2023-07-07T16:33:22.000Z</time>
      </trkpt>
      <trkpt lat="45.80005" lon="4.66187">
        <ele>415.66293</ele>
        <time>2023-07-07T16:33:23.000Z</time>
      </trkpt>
      <trkpt lat="45.80007" lon="4.6619">
        <ele>416.12753</ele>
        <time>2023-07-07T16:33:24.000Z</time>
      </trkpt>
      <trkpt lat="45.80005" lon="4.66196">
        <ele>416.66885</ele>
        <time>2023-07-07T16:33:25.000Z</time>
      </trkpt>
      <trkpt lat="45.80006" lon="4.66201">
        <ele>417.3338</ele>
        <time>2023-07-07T16:33:26.000Z</time>
      </trkpt>
      <trkpt lat="45.80005" lon="4.66204">
        <ele>418.24545</ele>
        <time>2023-07-07T16:33:27.000Z</time>
      </trkpt>
      <trkpt lat="45.80004" lon="4.6621">
        <ele>419.07025</ele>
        <time>2023-07-07T16:33:28.000Z</time>
      </trkpt>
      <trkpt lat="45.80002" lon="4.66214">
        <ele>419.92734</ele>
        <time>2023-07-07T16:33:29.000Z</time>
      </trkpt>
      <trkpt lat="45.8" lon="4.66218">
        <ele>420.69043</ele>
        <time>2023-07-07T16:33:30.000Z</time>
      </trkpt>
      <trkpt lat="45.79999" lon="4.66222">
        <ele>421.53165</ele>
        <time>2023-07-07T16:33:31.000Z</time>
      </trkpt>
      <trkpt lat="45.79998" lon="4.66226">
        <ele>422.50726</ele>
        <time>2023-07-07T16:33:32.000Z</time>
      </trkpt>
      <trkpt lat="45.79997" lon="4.66229">
        <ele>423.65323</ele>
        <time>2023-07-07T16:33:33.000Z</time>
      </trkpt>
      <trkpt lat="45.79995" lon="4.6623">
        <ele>424.26508</ele>
        <time>2023-07-07T16:33:41.000Z</time>
      </trkpt>
      <trkpt lat="45.79994" lon="4.66234">
        <ele>424.9537</ele>
        <time>2023-07-07T16:33:56.000Z</time>
      </trkpt>
      <trkpt lat="45.79994" lon="4.66238">
        <ele>425.71722</ele>
        <time>2023-07-07T16:33:57.000Z</time>
      </trkpt>
      <trkpt lat="45.79993" lon="4.66242">
        <ele>426.48355</ele>
        <time>2023-07-07T16:33:58.000Z</time>
      </trkpt>
      <trkpt lat="45.79991" lon="4.66247">
        <ele>427.27521</ele>
        <time>2023-07-07T16:33:59.000Z</time>
      </trkpt>
      <trkpt lat="45.79988" lon="4.66253">
        <ele>428.25943</ele>
        <time>2023-07-07T16:34:00.000Z</time>
      </trkpt>
      <trkpt lat="45.79985" lon="4.66258">
        <ele>429.36801</ele>
        <time>2023-07-07T16:34:01.000Z</time>
      </trkpt>
      <trkpt lat="45.79984" lon="4.66262">
        <ele>430.91962</ele>
        <time>2023-07-07T16:34:02.000Z</time>
      </trkpt>
      <trkpt lat="45.79982" lon="4.66267">
        <ele>432.44879</ele>
        <time>2023-07-07T16:34:03.000Z</time>
      </trkpt>
      <trkpt lat="45.79981" lon="4.66272">
        <ele>433.81747</ele>
        <time>2023-07-07T16:34:04.000Z</time>
      </trkpt>
      <trkpt lat="45.79982" lon="4.66277">
        <ele>434.37881</ele>
        <time>2023-07-07T16:34:05.000Z</time>
      </trkpt>
      <trkpt lat="45.79985" lon="4.66282">
        <ele>435.15714</ele>
        <time>2023-07-07T16:34:06.000Z</time>
      </trkpt>
      <trkpt lat="45.79988" lon="4.66286">
        <ele>435.05405</ele>
        <time>2023-07-07T16:34:07.000Z</time>
      </trkpt>
      <trkpt lat="45.79993" lon="4.66287">
        <ele>434.78964</ele>
        <time>2023-07-07T16:34:08.000Z</time>
      </trkpt>
      <trkpt lat="45.79998" lon="4.6629">
        <ele>434.58905</ele>
        <time>2023-07-07T16:34:09.000Z</time>
      </trkpt>
      <trkpt lat="45.80002" lon="4.66292">
        <ele>434.33234</ele>
        <time>2023-07-07T16:34:10.000Z</time>
      </trkpt>
      <trkpt lat="45.80007" lon="4.66295">
        <ele>434.18204</ele>
        <time>2023-07-07T16:34:11.000Z</time>
      </trkpt>
      <trkpt lat="45.80011" lon="4.66297">
        <ele>434.09375</ele>
        <time>2023-07-07T16:34:12.000Z</time>
      </trkpt>
      <trkpt lat="45.80013" lon="4.66299">
        <ele>434.02133</ele>
        <time>2023-07-07T16:34:13.000Z</time>
      </trkpt>
      <trkpt lat="45.80015" lon="4.66302">
        <ele>433.82648</ele>
        <time>2023-07-07T16:34:14.000Z</time>
      </trkpt>
      <trkpt lat="45.80014" lon="4.66305">
        <ele>434.23126</ele>
        <time>2023-07-07T16:34:15.000Z</time>
      </trkpt>
      <trkpt lat="45.80014" lon="4.66308">
        <ele>434.43134</ele>
        <time>2023-07-07T16:34:16.000Z</time>
      </trkpt>
      <trkpt lat="45.80013" lon="4.66312">
        <ele>434.70038</ele>
        <time>2023-07-07T16:34:17.000Z</time>
      </trkpt>
      <trkpt lat="45.80012" lon="4.66316">
        <ele>434.92841</ele>
        <time>2023-07-07T16:34:18.000Z</time>
      </trkpt>
      <trkpt lat="45.8001" lon="4.66321">
        <ele>435.22089</ele>
        <time>2023-07-07T16:34:19.000Z</time>
      </trkpt>
      <trkpt lat="45.80008" lon="4.66326">
        <ele>435.23663</ele>
        <time>2023-07-07T16:34:20.000Z</time>
      </trkpt>
      <trkpt lat="45.80006" lon="4.66331">
        <ele>434.99649</ele>
        <time>2023-07-07T16:34:21.000Z</time>
      </trkpt>
      <trkpt lat="45.80004" lon="4.66334">
        <ele>434.29791</ele>
        <time>2023-07-07T16:34:22.000Z</time>
      </trkpt>
      <trkpt lat="45.80005" lon="4.66338">
        <ele>433.74481</ele>
        <time>2023-07-07T16:34:23.000Z</time>
      </trkpt>
      <trkpt lat="45.80017" lon="4.66339">
        <ele>433.44351</ele>
        <time>2023-07-07T16:34:24.000Z</time>
      </trkpt>
      <trkpt lat="45.80022" lon="4.6634">
        <ele>433.09946</ele>
        <time>2023-07-07T16:34:25.000Z</time>
      </trkpt>
      <trkpt lat="45.80026" lon="4.66342">
        <ele>432.47226</ele>
        <time>2023-07-07T16:34:26.000Z</time>
      </trkpt>
      <trkpt lat="45.80032" lon="4.66344">
        <ele>432.69244</ele>
        <time>2023-07-07T16:34:27.000Z</time>
      </trkpt>
      <trkpt lat="45.80039" lon="4.66346">
        <ele>432.93622</ele>
        <time>2023-07-07T16:34:28.000Z</time>
      </trkpt>
      <trkpt lat="45.80044" lon="4.66347">
        <ele>433.67108</ele>
        <time>2023-07-07T16:34:29.000Z</time>
      </trkpt>
      <trkpt lat="45.80052" lon="4.66348">
        <ele>434.82837</ele>
        <time>2023-07-07T16:34:30.000Z</time>
      </trkpt>
      <trkpt lat="45.8006" lon="4.6635">
        <ele>436.17465</ele>
        <time>2023-07-07T16:34:31.000Z</time>
      </trkpt>
      <trkpt lat="45.80068" lon="4.66349">
        <ele>437.38144</ele>
        <time>2023-07-07T16:34:32.000Z</time>
      </trkpt>
      <trkpt lat="45.80076" lon="4.6635">
        <ele>437.54379</ele>
        <time>2023-07-07T16:34:33.000Z</time>
      </trkpt>
      <trkpt lat="45.80083" lon="4.66351">
        <ele>437.82648</ele>
        <time>2023-07-07T16:34:34.000Z</time>
      </trkpt>
      <trkpt lat="45.80091" lon="4.6635">
        <ele>437.95712</ele>
        <time>2023-07-07T16:34:35.000Z</time>
      </trkpt>
      <trkpt lat="45.80101" lon="4.66351">
        <ele>438.08139</ele>
        <time>2023-07-07T16:34:36.000Z</time>
      </trkpt>
      <trkpt lat="45.8011" lon="4.66351">
        <ele>437.94205</ele>
        <time>2023-07-07T16:34:37.000Z</time>
      </trkpt>
      <trkpt lat="45.80119" lon="4.66351">
        <ele>437.46451</ele>
        <time>2023-07-07T16:34:38.000Z</time>
      </trkpt>
      <trkpt lat="45.80128" lon="4.66352">
        <ele>436.66821</ele>
        <time>2023-07-07T16:34:39.000Z</time>
      </trkpt>
      <trkpt lat="45.80136" lon="4.66351">
        <ele>435.80524</ele>
        <time>2023-07-07T16:34:40.000Z</time>
      </trkpt>
      <trkpt lat="45.80145" lon="4.6635">
        <ele>434.94751</ele>
        <time>2023-07-07T16:34:41.000Z</time>
      </trkpt>
      <trkpt lat="45.80155" lon="4.66348">
        <ele>434.07416</ele>
        <time>2023-07-07T16:34:42.000Z</time>
      </trkpt>
      <trkpt lat="45.80166" lon="4.66347">
        <ele>432.97931</ele>
        <time>2023-07-07T16:34:43.000Z</time>
      </trkpt>
      <trkpt lat="45.80177" lon="4.66347">
        <ele>431.82788</ele>
        <time>2023-07-07T16:34:44.000Z</time>
      </trkpt>
      <trkpt lat="45.80188" lon="4.66347">
        <ele>430.66913</ele>
        <time>2023-07-07T16:34:45.000Z</time>
      </trkpt>
      <trkpt lat="45.80198" lon="4.66346">
        <ele>429.58066</ele>
        <time>2023-07-07T16:34:46.000Z</time>
      </trkpt>
      <trkpt lat="45.80209" lon="4.66346">
        <ele>428.27945</ele>
        <time>2023-07-07T16:34:47.000Z</time>
      </trkpt>
      <trkpt lat="45.8022" lon="4.66347">
        <ele>426.90323</ele>
        <time>2023-07-07T16:34:48.000Z</time>
      </trkpt>
      <trkpt lat="45.80231" lon="4.66346">
        <ele>425.12262</ele>
        <time>2023-07-07T16:34:49.000Z</time>
      </trkpt>
      <trkpt lat="45.80242" lon="4.66345">
        <ele>422.92554</ele>
        <time>2023-07-07T16:34:50.000Z</time>
      </trkpt>
      <trkpt lat="45.80253" lon="4.66345">
        <ele>420.46396</ele>
        <time>2023-07-07T16:34:51.000Z</time>
      </trkpt>
      <trkpt lat="45.80263" lon="4.66346">
        <ele>418.02582</ele>
        <time>2023-07-07T16:34:52.000Z</time>
      </trkpt>
      <trkpt lat="45.80273" lon="4.66346">
        <ele>416.5712</ele>
        <time>2023-07-07T16:34:53.000Z</time>
      </trkpt>
      <trkpt lat="45.80282" lon="4.66347">
        <ele>414.9856</ele>
        <time>2023-07-07T16:34:54.000Z</time>
      </trkpt>
      <trkpt lat="45.80291" lon="4.66349">
        <ele>413.54922</ele>
        <time>2023-07-07T16:34:55.000Z</time>
      </trkpt>
      <trkpt lat="45.803" lon="4.66348">
        <ele>412.3309</ele>
        <time>2023-07-07T16:34:56.000Z</time>
      </trkpt>
      <trkpt lat="45.80308" lon="4.6635">
        <ele>411.26505</ele>
        <time>2023-07-07T16:34:57.000Z</time>
      </trkpt>
      <trkpt lat="45.80317" lon="4.66353">
        <ele>410.5787</ele>
        <time>2023-07-07T16:34:58.000Z</time>
      </trkpt>
      <trkpt lat="45.80325" lon="4.66355">
        <ele>410.22021</ele>
        <time>2023-07-07T16:34:59.000Z</time>
      </trkpt>
      <trkpt lat="45.80332" lon="4.66358">
        <ele>409.93716</ele>
        <time>2023-07-07T16:35:00.000Z</time>
      </trkpt>
      <trkpt lat="45.80339" lon="4.66361">
        <ele>409.73135</ele>
        <time>2023-07-07T16:35:01.000Z</time>
      </trkpt>
      <trkpt lat="45.80346" lon="4.66364">
        <ele>409.70264</ele>
        <time>2023-07-07T16:35:02.000Z</time>
      </trkpt>
      <trkpt lat="45.80351" lon="4.66368">
        <ele>409.99823</ele>
        <time>2023-07-07T16:35:03.000Z</time>
      </trkpt>
      <trkpt lat="45.80357" lon="4.66373">
        <ele>410.24384</ele>
        <time>2023-07-07T16:35:04.000Z</time>
      </trkpt>
      <trkpt lat="45.80362" lon="4.66376">
        <ele>410.65497</ele>
        <time>2023-07-07T16:35:05.000Z</time>
      </trkpt>
      <trkpt lat="45.80368" lon="4.66378">
        <ele>410.86832</ele>
        <time>2023-07-07T16:35:06.000Z</time>
      </trkpt>
      <trkpt lat="45.80374" lon="4.66382">
        <ele>411.13223</ele>
        <time>2023-07-07T16:35:07.000Z</time>
      </trkpt>
      <trkpt lat="45.80379" lon="4.66387">
        <ele>411.43481</ele>
        <time>2023-07-07T16:35:08.000Z</time>
      </trkpt>
      <trkpt lat="45.80384" lon="4.6639">
        <ele>411.70923</ele>
        <time>2023-07-07T16:35:09.000Z</time>
      </trkpt>
      <trkpt lat="45.80388" lon="4.66393">
        <ele>412.02509</ele>
        <time>2023-07-07T16:35:10.000Z</time>
      </trkpt>
      <trkpt lat="45.80393" lon="4.66396">
        <ele>412.38281</ele>
        <time>2023-07-07T16:35:11.000Z</time>
      </trkpt>
      <trkpt lat="45.80397" lon="4.664">
        <ele>413.78629</ele>
        <time>2023-07-07T16:35:12.000Z</time>
      </trkpt>
      <trkpt lat="45.80402" lon="4.66403">
        <ele>415.43204</ele>
        <time>2023-07-07T16:35:13.000Z</time>
      </trkpt>
      <trkpt lat="45.80407" lon="4.66405">
        <ele>415.94717</ele>
        <time>2023-07-07T16:35:14.000Z</time>
      </trkpt>
      <trkpt lat="45.80412" lon="4.6641">
        <ele>416.55927</ele>
        <time>2023-07-07T16:35:15.000Z</time>
      </trkpt>
      <trkpt lat="45.80417" lon="4.66413">
        <ele>417.12152</ele>
        <time>2023-07-07T16:35:16.000Z</time>
      </trkpt>
      <trkpt lat="45.80423" lon="4.66417">
        <ele>417.71744</ele>
        <time>2023-07-07T16:35:17.000Z</time>
      </trkpt>
      <trkpt lat="45.80428" lon="4.6642">
        <ele>418.1337</ele>
        <time>2023-07-07T16:35:18.000Z</time>
      </trkpt>
      <trkpt lat="45.80433" lon="4.66423">
        <ele>418.61377</ele>
        <time>2023-07-07T16:35:19.000Z</time>
      </trkpt>
      <trkpt lat="45.80439" lon="4.66425">
        <ele>419.4357</ele>
        <time>2023-07-07T16:35:20.000Z</time>
      </trkpt>
      <trkpt lat="45.80445" lon="4.66428">
        <ele>419.93921</ele>
        <time>2023-07-07T16:35:21.000Z</time>
      </trkpt>
      <trkpt lat="45.8045" lon="4.66432">
        <ele>420.6503</ele>
        <time>2023-07-07T16:35:22.000Z</time>
      </trkpt>
      <trkpt lat="45.80457" lon="4.66436">
        <ele>421.22485</ele>
        <time>2023-07-07T16:35:23.000Z</time>
      </trkpt>
      <trkpt lat="45.80462" lon="4.66439">
        <ele>421.754</ele>
        <time>2023-07-07T16:35:24.000Z</time>
      </trkpt>
      <trkpt lat="45.80468" lon="4.6644">
        <ele>422.00299</ele>
        <time>2023-07-07T16:35:25.000Z</time>
      </trkpt>
      <trkpt lat="45.80474" lon="4.66443">
        <ele>422.75958</ele>
        <time>2023-07-07T16:35:26.000Z</time>
      </trkpt>
      <trkpt lat="45.80479" lon="4.66447">
        <ele>423.51807</ele>
        <time>2023-07-07T16:35:27.000Z</time>
      </trkpt>
      <trkpt lat="45.80485" lon="4.6645">
        <ele>423.09937</ele>
        <time>2023-07-07T16:35:28.000Z</time>
      </trkpt>
      <trkpt lat="45.80491" lon="4.66453">
        <ele>422.74677</ele>
        <time>2023-07-07T16:35:29.000Z</time>
      </trkpt>
      <trkpt lat="45.80497" lon="4.66455">
        <ele>422.25717</ele>
        <time>2023-07-07T16:35:30.000Z</time>
      </trkpt>
      <trkpt lat="45.80503" lon="4.66457">
        <ele>421.81976</ele>
        <time>2023-07-07T16:35:31.000Z</time>
      </trkpt>
      <trkpt lat="45.80509" lon="4.6646">
        <ele>420.35626</ele>
        <time>2023-07-07T16:35:32.000Z</time>
      </trkpt>
      <trkpt lat="45.80514" lon="4.66462">
        <ele>418.55215</ele>
        <time>2023-07-07T16:35:33.000Z</time>
      </trkpt>
      <trkpt lat="45.8052" lon="4.66464">
        <ele>417.86859</ele>
        <time>2023-07-07T16:35:34.000Z</time>
      </trkpt>
      <trkpt lat="45.80526" lon="4.66465">
        <ele>417.05609</ele>
        <time>2023-07-07T16:35:35.000Z</time>
      </trkpt>
      <trkpt lat="45.80532" lon="4.66466">
        <ele>416.20758</ele>
        <time>2023-07-07T16:35:36.000Z</time>
      </trkpt>
      <trkpt lat="45.80538" lon="4.66467">
        <ele>415.30981</ele>
        <time>2023-07-07T16:35:37.000Z</time>
      </trkpt>
      <trkpt lat="45.80544" lon="4.66466">
        <ele>415.15088</ele>
        <time>2023-07-07T16:35:38.000Z</time>
      </trkpt>
      <trkpt lat="45.8055" lon="4.66466">
        <ele>414.84369</ele>
        <time>2023-07-07T16:35:39.000Z</time>
      </trkpt>
      <trkpt lat="45.80557" lon="4.66467">
        <ele>414.29517</ele>
        <time>2023-07-07T16:35:40.000Z</time>
      </trkpt>
      <trkpt lat="45.80563" lon="4.66466">
        <ele>414.03168</ele>
        <time>2023-07-07T16:35:41.000Z</time>
      </trkpt>
      <trkpt lat="45.80569" lon="4.66467">
        <ele>413.35236</ele>
        <time>2023-07-07T16:35:42.000Z</time>
      </trkpt>
      <trkpt lat="45.80576" lon="4.66467">
        <ele>410.01538</ele>
        <time>2023-07-07T16:35:43.000Z</time>
      </trkpt>
      <trkpt lat="45.80583" lon="4.66467">
        <ele>409.14346</ele>
        <time>2023-07-07T16:35:44.000Z</time>
      </trkpt>
      <trkpt lat="45.80589" lon="4.66467">
        <ele>408.45587</ele>
        <time>2023-07-07T16:35:45.000Z</time>
      </trkpt>
      <trkpt lat="45.80594" lon="4.66466">
        <ele>407.37445</ele>
        <time>2023-07-07T16:35:46.000Z</time>
      </trkpt>
      <trkpt lat="45.806" lon="4.66467">
        <ele>406.31729</ele>
        <time>2023-07-07T16:35:47.000Z</time>
      </trkpt>
      <trkpt lat="45.80606" lon="4.66467">
        <ele>406.34073</ele>
        <time>2023-07-07T16:35:48.000Z</time>
      </trkpt>
      <trkpt lat="45.80612" lon="4.66467">
        <ele>404.01401</ele>
        <time>2023-07-07T16:35:49.000Z</time>
      </trkpt>
      <trkpt lat="45.80618" lon="4.66467">
        <ele>403.94254</ele>
        <time>2023-07-07T16:35:50.000Z</time>
      </trkpt>
      <trkpt lat="45.80624" lon="4.66467">
        <ele>403.8627</ele>
        <time>2023-07-07T16:35:51.000Z</time>
      </trkpt>
      <trkpt lat="45.80631" lon="4.66469">
        <ele>403.77652</ele>
        <time>2023-07-07T16:35:52.000Z</time>
      </trkpt>
      <trkpt lat="45.80638" lon="4.6647">
        <ele>403.70523</ele>
        <time>2023-07-07T16:35:53.000Z</time>
      </trkpt>
      <trkpt lat="45.80644" lon="4.66473">
        <ele>403.62332</ele>
        <time>2023-07-07T16:35:54.000Z</time>
      </trkpt>
      <trkpt lat="45.8065" lon="4.66476">
        <ele>401.41141</ele>
        <time>2023-07-07T16:35:55.000Z</time>
      </trkpt>
      <trkpt lat="45.80656" lon="4.6648">
        <ele>401.2392</ele>
        <time>2023-07-07T16:35:56.000Z</time>
      </trkpt>
      <trkpt lat="45.80663" lon="4.66483">
        <ele>401.07916</ele>
        <time>2023-07-07T16:35:57.000Z</time>
      </trkpt>
      <trkpt lat="45.8067" lon="4.6648">
        <ele>400.36761</ele>
        <time>2023-07-07T16:35:58.000Z</time>
      </trkpt>
      <trkpt lat="45.80675" lon="4.66477">
        <ele>399.62848</ele>
        <time>2023-07-07T16:35:59.000Z</time>
      </trkpt>
      <trkpt lat="45.8068" lon="4.66473">
        <ele>398.86771</ele>
        <time>2023-07-07T16:36:00.000Z</time>
      </trkpt>
      <trkpt lat="45.80686" lon="4.6647">
        <ele>396.32211</ele>
        <time>2023-07-07T16:36:01.000Z</time>
      </trkpt>
      <trkpt lat="45.80693" lon="4.66468">
        <ele>395.43665</ele>
        <time>2023-07-07T16:36:02.000Z</time>
      </trkpt>
      <trkpt lat="45.80699" lon="4.66466">
        <ele>397.09729</ele>
        <time>2023-07-07T16:36:03.000Z</time>
      </trkpt>
      <trkpt lat="45.80706" lon="4.66464">
        <ele>396.45139</ele>
        <time>2023-07-07T16:36:04.000Z</time>
      </trkpt>
      <trkpt lat="45.80714" lon="4.66462">
        <ele>395.81677</ele>
        <time>2023-07-07T16:36:05.000Z</time>
      </trkpt>
      <trkpt lat="45.80722" lon="4.66463">
        <ele>395.18481</ele>
        <time>2023-07-07T16:36:06.000Z</time>
      </trkpt>
      <trkpt lat="45.80729" lon="4.66462">
        <ele>392.91577</ele>
        <time>2023-07-07T16:36:07.000Z</time>
      </trkpt>
      <trkpt lat="45.80738" lon="4.66462">
        <ele>392.2457</ele>
        <time>2023-07-07T16:36:08.000Z</time>
      </trkpt>
      <trkpt lat="45.80746" lon="4.66461">
        <ele>393.78214</ele>
        <time>2023-07-07T16:36:09.000Z</time>
      </trkpt>
      <trkpt lat="45.80755" lon="4.6646">
        <ele>393.27054</ele>
        <time>2023-07-07T16:36:10.000Z</time>
      </trkpt>
      <trkpt lat="45.80762" lon="4.6646">
        <ele>392.73694</ele>
        <time>2023-07-07T16:36:11.000Z</time>
      </trkpt>
      <trkpt lat="45.80769" lon="4.66459">
        <ele>392.18063</ele>
        <time>2023-07-07T16:36:12.000Z</time>
      </trkpt>
      <trkpt lat="45.80776" lon="4.66459">
        <ele>389.97284</ele>
        <time>2023-07-07T16:36:13.000Z</time>
      </trkpt>
      <trkpt lat="45.80781" lon="4.66462">
        <ele>389.28622</ele>
        <time>2023-07-07T16:36:14.000Z</time>
      </trkpt>
      <trkpt lat="45.80784" lon="4.66468">
        <ele>389.20978</ele>
        <time>2023-07-07T16:36:15.000Z</time>
      </trkpt>
      <trkpt lat="45.80786" lon="4.66473">
        <ele>387.1214</ele>
        <time>2023-07-07T16:36:16.000Z</time>
      </trkpt>
      <trkpt lat="45.80785" lon="4.66483">
        <ele>385.05539</ele>
        <time>2023-07-07T16:36:17.000Z</time>
      </trkpt>
      <trkpt lat="45.80784" lon="4.66492">
        <ele>382.99173</ele>
        <time>2023-07-07T16:36:18.000Z</time>
      </trkpt>
      <trkpt lat="45.80784" lon="4.66502">
        <ele>380.94867</ele>
        <time>2023-07-07T16:36:19.000Z</time>
      </trkpt>
      <trkpt lat="45.80785" lon="4.66511">
        <ele>378.8638</ele>
        <time>2023-07-07T16:36:20.000Z</time>
      </trkpt>
      <trkpt lat="45.80786" lon="4.66518">
        <ele>378.59198</ele>
        <time>2023-07-07T16:36:21.000Z</time>
      </trkpt>
      <trkpt lat="45.80786" lon="4.66527">
        <ele>376.65976</ele>
        <time>2023-07-07T16:36:22.000Z</time>
      </trkpt>
      <trkpt lat="45.80785" lon="4.66534">
        <ele>374.75662</ele>
        <time>2023-07-07T16:36:23.000Z</time>
      </trkpt>
      <trkpt lat="45.80784" lon="4.66542">
        <ele>372.71243</ele>
        <time>2023-07-07T16:36:24.000Z</time>
      </trkpt>
      <trkpt lat="45.80783" lon="4.6655">
        <ele>370.68073</ele>
        <time>2023-07-07T16:36:25.000Z</time>
      </trkpt>
      <trkpt lat="45.80782" lon="4.66557">
        <ele>368.64722</ele>
        <time>2023-07-07T16:36:26.000Z</time>
      </trkpt>
      <trkpt lat="45.80781" lon="4.66565">
        <ele>368.30255</ele>
        <time>2023-07-07T16:36:27.000Z</time>
      </trkpt>
      <trkpt lat="45.8078" lon="4.66573">
        <ele>366.42291</ele>
        <time>2023-07-07T16:36:28.000Z</time>
      </trkpt>
      <trkpt lat="45.80778" lon="4.66581">
        <ele>364.59821</ele>
        <time>2023-07-07T16:36:29.000Z</time>
      </trkpt>
      <trkpt lat="45.80775" lon="4.66588">
        <ele>362.72348</ele>
        <time>2023-07-07T16:36:30.000Z</time>
      </trkpt>
      <trkpt lat="45.80772" lon="4.66593">
        <ele>360.82391</ele>
        <time>2023-07-07T16:36:31.000Z</time>
      </trkpt>
      <trkpt lat="45.80769" lon="4.66599">
        <ele>358.94183</ele>
        <time>2023-07-07T16:36:32.000Z</time>
      </trkpt>
      <trkpt lat="45.80766" lon="4.66605">
        <ele>358.71988</ele>
        <time>2023-07-07T16:36:33.000Z</time>
      </trkpt>
      <trkpt lat="45.80762" lon="4.6661">
        <ele>356.99487</ele>
        <time>2023-07-07T16:36:34.000Z</time>
      </trkpt>
      <trkpt lat="45.8076" lon="4.66616">
        <ele>356.80048</ele>
        <time>2023-07-07T16:36:35.000Z</time>
      </trkpt>
      <trkpt lat="45.80757" lon="4.66621">
        <ele>356.59824</ele>
        <time>2023-07-07T16:36:36.000Z</time>
      </trkpt>
      <trkpt lat="45.80753" lon="4.66626">
        <ele>356.36823</ele>
        <time>2023-07-07T16:36:37.000Z</time>
      </trkpt>
      <trkpt lat="45.8075" lon="4.66631">
        <ele>356.13467</ele>
        <time>2023-07-07T16:36:38.000Z</time>
      </trkpt>
      <trkpt lat="45.80747" lon="4.66636">
        <ele>355.91092</ele>
        <time>2023-07-07T16:36:39.000Z</time>
      </trkpt>
      <trkpt lat="45.80744" lon="4.66642">
        <ele>355.75375</ele>
        <time>2023-07-07T16:36:40.000Z</time>
      </trkpt>
      <trkpt lat="45.80743" lon="4.66647">
        <ele>355.58722</ele>
        <time>2023-07-07T16:36:41.000Z</time>
      </trkpt>
      <trkpt lat="45.80741" lon="4.66655">
        <ele>355.3121</ele>
        <time>2023-07-07T16:36:42.000Z</time>
      </trkpt>
      <trkpt lat="45.80739" lon="4.6666">
        <ele>354.95947</ele>
        <time>2023-07-07T16:36:43.000Z</time>
      </trkpt>
      <trkpt lat="45.80739" lon="4.66666">
        <ele>354.89185</ele>
        <time>2023-07-07T16:36:44.000Z</time>
      </trkpt>
      <trkpt lat="45.80739" lon="4.66673">
        <ele>354.83319</ele>
        <time>2023-07-07T16:36:45.000Z</time>
      </trkpt>
      <trkpt lat="45.8074" lon="4.66678">
        <ele>354.81439</ele>
        <time>2023-07-07T16:36:46.000Z</time>
      </trkpt>
      <trkpt lat="45.80741" lon="4.66684">
        <ele>354.80069</ele>
        <time>2023-07-07T16:36:47.000Z</time>
      </trkpt>
      <trkpt lat="45.80742" lon="4.66689">
        <ele>354.77472</ele>
        <time>2023-07-07T16:36:48.000Z</time>
      </trkpt>
      <trkpt lat="45.80743" lon="4.66696">
        <ele>354.67282</ele>
        <time>2023-07-07T16:36:49.000Z</time>
      </trkpt>
      <trkpt lat="45.80744" lon="4.66701">
        <ele>354.51456</ele>
        <time>2023-07-07T16:36:50.000Z</time>
      </trkpt>
      <trkpt lat="45.80745" lon="4.66705">
        <ele>354.43304</ele>
        <time>2023-07-07T16:36:51.000Z</time>
      </trkpt>
      <trkpt lat="45.80746" lon="4.66711">
        <ele>354.37933</ele>
        <time>2023-07-07T16:36:52.000Z</time>
      </trkpt>
      <trkpt lat="45.80747" lon="4.66715">
        <ele>354.34021</ele>
        <time>2023-07-07T16:36:53.000Z</time>
      </trkpt>
      <trkpt lat="45.80748" lon="4.66719">
        <ele>354.30826</ele>
        <time>2023-07-07T16:36:54.000Z</time>
      </trkpt>
      <trkpt lat="45.80749" lon="4.66722">
        <ele>354.28622</ele>
        <time>2023-07-07T16:36:55.000Z</time>
      </trkpt>
      <trkpt lat="45.80751" lon="4.66725">
        <ele>354.289</ele>
        <time>2023-07-07T16:36:56.000Z</time>
      </trkpt>
      <trkpt lat="45.80753" lon="4.66727">
        <ele>354.32758</ele>
        <time>2023-07-07T16:36:57.000Z</time>
      </trkpt>
      <trkpt lat="45.80755" lon="4.6673">
        <ele>354.34598</ele>
        <time>2023-07-07T16:36:58.000Z</time>
      </trkpt>
      <trkpt lat="45.80756" lon="4.66734">
        <ele>354.33762</ele>
        <time>2023-07-07T16:36:59.000Z</time>
      </trkpt>
      <trkpt lat="45.80758" lon="4.66737">
        <ele>354.33249</ele>
        <time>2023-07-07T16:37:00.000Z</time>
      </trkpt>
      <trkpt lat="45.8076" lon="4.66739">
        <ele>354.37042</ele>
        <time>2023-07-07T16:37:01.000Z</time>
      </trkpt>
      <trkpt lat="45.80762" lon="4.6674">
        <ele>354.55887</ele>
        <time>2023-07-07T16:37:02.000Z</time>
      </trkpt>
      <trkpt lat="45.80764" lon="4.66741">
        <ele>354.81961</ele>
        <time>2023-07-07T16:37:03.000Z</time>
      </trkpt>
      <trkpt lat="45.80767" lon="4.66741">
        <ele>354.85272</ele>
        <time>2023-07-07T16:37:04.000Z</time>
      </trkpt>
      <trkpt lat="45.8077" lon="4.6674">
        <ele>354.90625</ele>
        <time>2023-07-07T16:37:05.000Z</time>
      </trkpt>
      <trkpt lat="45.80774" lon="4.6674">
        <ele>354.901</ele>
        <time>2023-07-07T16:37:06.000Z</time>
      </trkpt>
      <trkpt lat="45.80778" lon="4.66739">
        <ele>354.83987</ele>
        <time>2023-07-07T16:37:07.000Z</time>
      </trkpt>
      <trkpt lat="45.80784" lon="4.66735">
        <ele>354.76984</ele>
        <time>2023-07-07T16:37:08.000Z</time>
      </trkpt>
      <trkpt lat="45.80788" lon="4.66732">
        <ele>354.7316</ele>
        <time>2023-07-07T16:37:09.000Z</time>
      </trkpt>
      <trkpt lat="45.80794" lon="4.66728">
        <ele>354.67267</ele>
        <time>2023-07-07T16:37:10.000Z</time>
      </trkpt>
      <trkpt lat="45.808" lon="4.66724">
        <ele>354.57684</ele>
        <time>2023-07-07T16:37:11.000Z</time>
      </trkpt>
      <trkpt lat="45.80805" lon="4.66718">
        <ele>354.48495</ele>
        <time>2023-07-07T16:37:12.000Z</time>
      </trkpt>
      <trkpt lat="45.80811" lon="4.66715">
        <ele>354.33905</ele>
        <time>2023-07-07T16:37:13.000Z</time>
      </trkpt>
      <trkpt lat="45.80816" lon="4.66712">
        <ele>353.97635</ele>
        <time>2023-07-07T16:37:14.000Z</time>
      </trkpt>
      <trkpt lat="45.80823" lon="4.66709">
        <ele>353.47556</ele>
        <time>2023-07-07T16:37:15.000Z</time>
      </trkpt>
      <trkpt lat="45.80829" lon="4.66705">
        <ele>352.87372</ele>
        <time>2023-07-07T16:37:16.000Z</time>
      </trkpt>
      <trkpt lat="45.80837" lon="4.66701">
        <ele>352.03955</ele>
        <time>2023-07-07T16:37:17.000Z</time>
      </trkpt>
      <trkpt lat="45.80845" lon="4.66697">
        <ele>351.22003</ele>
        <time>2023-07-07T16:37:18.000Z</time>
      </trkpt>
      <trkpt lat="45.80855" lon="4.66694">
        <ele>350.4256</ele>
        <time>2023-07-07T16:37:19.000Z</time>
      </trkpt>
      <trkpt lat="45.80863" lon="4.6669">
        <ele>349.59088</ele>
        <time>2023-07-07T16:37:20.000Z</time>
      </trkpt>
      <trkpt lat="45.80873" lon="4.66687">
        <ele>348.7236</ele>
        <time>2023-07-07T16:37:21.000Z</time>
      </trkpt>
      <trkpt lat="45.80882" lon="4.66682">
        <ele>347.87814</ele>
        <time>2023-07-07T16:37:22.000Z</time>
      </trkpt>
      <trkpt lat="45.8089" lon="4.66677">
        <ele>346.99857</ele>
        <time>2023-07-07T16:37:23.000Z</time>
      </trkpt>
      <trkpt lat="45.80897" lon="4.66672">
        <ele>346.36621</ele>
        <time>2023-07-07T16:37:24.000Z</time>
      </trkpt>
      <trkpt lat="45.80904" lon="4.66667">
        <ele>345.69983</ele>
        <time>2023-07-07T16:37:25.000Z</time>
      </trkpt>
      <trkpt lat="45.80911" lon="4.66665">
        <ele>345.09033</ele>
        <time>2023-07-07T16:37:26.000Z</time>
      </trkpt>
      <trkpt lat="45.80919" lon="4.66665">
        <ele>344.53885</ele>
        <time>2023-07-07T16:37:27.000Z</time>
      </trkpt>
      <trkpt lat="45.80927" lon="4.66664">
        <ele>344.00797</ele>
        <time>2023-07-07T16:37:28.000Z</time>
      </trkpt>
      <trkpt lat="45.80935" lon="4.66664">
        <ele>343.46869</ele>
        <time>2023-07-07T16:37:29.000Z</time>
      </trkpt>
      <trkpt lat="45.80944" lon="4.66664">
        <ele>342.93372</ele>
        <time>2023-07-07T16:37:30.000Z</time>
      </trkpt>
      <trkpt lat="45.80953" lon="4.66663">
        <ele>342.34158</ele>
        <time>2023-07-07T16:37:31.000Z</time>
      </trkpt>
      <trkpt lat="45.80961" lon="4.66664">
        <ele>341.73578</ele>
        <time>2023-07-07T16:37:32.000Z</time>
      </trkpt>
      <trkpt lat="45.8097" lon="4.66663">
        <ele>341.18597</ele>
        <time>2023-07-07T16:37:33.000Z</time>
      </trkpt>
      <trkpt lat="45.80978" lon="4.66664">
        <ele>340.84747</ele>
        <time>2023-07-07T16:37:34.000Z</time>
      </trkpt>
      <trkpt lat="45.80987" lon="4.66662">
        <ele>340.65048</ele>
        <time>2023-07-07T16:37:35.000Z</time>
      </trkpt>
      <trkpt lat="45.80996" lon="4.66661">
        <ele>340.53433</ele>
        <time>2023-07-07T16:37:36.000Z</time>
      </trkpt>
      <trkpt lat="45.81004" lon="4.6666">
        <ele>340.61771</ele>
        <time>2023-07-07T16:37:37.000Z</time>
      </trkpt>
      <trkpt lat="45.81013" lon="4.6666">
        <ele>340.66699</ele>
        <time>2023-07-07T16:37:38.000Z</time>
      </trkpt>
      <trkpt lat="45.81022" lon="4.66658">
        <ele>340.70343</ele>
        <time>2023-07-07T16:37:39.000Z</time>
      </trkpt>
      <trkpt lat="45.81031" lon="4.66658">
        <ele>340.79025</ele>
        <time>2023-07-07T16:37:40.000Z</time>
      </trkpt>
      <trkpt lat="45.81039" lon="4.66658">
        <ele>340.87103</ele>
        <time>2023-07-07T16:37:41.000Z</time>
      </trkpt>
      <trkpt lat="45.81045" lon="4.66656">
        <ele>340.8681</ele>
        <time>2023-07-07T16:37:42.000Z</time>
      </trkpt>
      <trkpt lat="45.8105" lon="4.66655">
        <ele>340.98724</ele>
        <time>2023-07-07T16:37:43.000Z</time>
      </trkpt>
      <trkpt lat="45.81053" lon="4.66653">
        <ele>340.72797</ele>
        <time>2023-07-07T16:37:44.000Z</time>
      </trkpt>
      <trkpt lat="45.81056" lon="4.66652">
        <ele>340.71265</ele>
        <time>2023-07-07T16:37:45.000Z</time>
      </trkpt>
      <trkpt lat="45.81056" lon="4.66649">
        <ele>340.7113</ele>
        <time>2023-07-07T16:37:46.000Z</time>
      </trkpt>
      <trkpt lat="45.81056" lon="4.66651">
        <ele>340.68753</ele>
        <time>2023-07-07T16:37:55.000Z</time>
      </trkpt>
      <trkpt lat="45.8106" lon="4.66652">
        <ele>340.68542</ele>
        <time>2023-07-07T16:38:04.000Z</time>
      </trkpt>
      <trkpt lat="45.81064" lon="4.66652">
        <ele>340.5882</ele>
        <time>2023-07-07T16:38:05.000Z</time>
      </trkpt>
      <trkpt lat="45.81069" lon="4.66652">
        <ele>340.49316</ele>
        <time>2023-07-07T16:38:06.000Z</time>
      </trkpt>
      <trkpt lat="45.81075" lon="4.66653">
        <ele>340.41721</ele>
        <time>2023-07-07T16:38:07.000Z</time>
      </trkpt>
      <trkpt lat="45.81082" lon="4.66655">
        <ele>340.30164</ele>
        <time>2023-07-07T16:38:08.000Z</time>
      </trkpt>
      <trkpt lat="45.8109" lon="4.66659">
        <ele>340.30035</ele>
        <time>2023-07-07T16:38:09.000Z</time>
      </trkpt>
      <trkpt lat="45.81098" lon="4.66662">
        <ele>340.21472</ele>
        <time>2023-07-07T16:38:10.000Z</time>
      </trkpt>
      <trkpt lat="45.81106" lon="4.66664">
        <ele>340.09631</ele>
        <time>2023-07-07T16:38:11.000Z</time>
      </trkpt>
      <trkpt lat="45.81114" lon="4.66669">
        <ele>339.94568</ele>
        <time>2023-07-07T16:38:12.000Z</time>
      </trkpt>
      <trkpt lat="45.81123" lon="4.66672">
        <ele>339.767</ele>
        <time>2023-07-07T16:38:13.000Z</time>
      </trkpt>
      <trkpt lat="45.81132" lon="4.66675">
        <ele>339.57315</ele>
        <time>2023-07-07T16:38:14.000Z</time>
      </trkpt>
      <trkpt lat="45.81141" lon="4.66678">
        <ele>339.39346</ele>
        <time>2023-07-07T16:38:15.000Z</time>
      </trkpt>
      <trkpt lat="45.8115" lon="4.66681">
        <ele>339.15875</ele>
        <time>2023-07-07T16:38:16.000Z</time>
      </trkpt>
      <trkpt lat="45.81159" lon="4.66685">
        <ele>338.92267</ele>
        <time>2023-07-07T16:38:17.000Z</time>
      </trkpt>
      <trkpt lat="45.81169" lon="4.66689">
        <ele>338.67291</ele>
        <time>2023-07-07T16:38:18.000Z</time>
      </trkpt>
      <trkpt lat="45.81178" lon="4.66692">
        <ele>338.3465</ele>
        <time>2023-07-07T16:38:19.000Z</time>
      </trkpt>
      <trkpt lat="45.81188" lon="4.66695">
        <ele>338.06491</ele>
        <time>2023-07-07T16:38:20.000Z</time>
      </trkpt>
      <trkpt lat="45.81198" lon="4.66697">
        <ele>337.50949</ele>
        <time>2023-07-07T16:38:21.000Z</time>
      </trkpt>
      <trkpt lat="45.81206" lon="4.667">
        <ele>336.93829</ele>
        <time>2023-07-07T16:38:22.000Z</time>
      </trkpt>
      <trkpt lat="45.81215" lon="4.66704">
        <ele>336.36292</ele>
        <time>2023-07-07T16:38:23.000Z</time>
      </trkpt>
      <trkpt lat="45.81222" lon="4.66709">
        <ele>335.71838</ele>
        <time>2023-07-07T16:38:24.000Z</time>
      </trkpt>
      <trkpt lat="45.8123" lon="4.6671">
        <ele>335.1843</ele>
        <time>2023-07-07T16:38:25.000Z</time>
      </trkpt>
      <trkpt lat="45.81238" lon="4.66711">
        <ele>334.64981</ele>
        <time>2023-07-07T16:38:26.000Z</time>
      </trkpt>
      <trkpt lat="45.81245" lon="4.66714">
        <ele>334.17273</ele>
        <time>2023-07-07T16:38:27.000Z</time>
      </trkpt>
      <trkpt lat="45.81252" lon="4.66717">
        <ele>333.72809</ele>
        <time>2023-07-07T16:38:28.000Z</time>
      </trkpt>
      <trkpt lat="45.8126" lon="4.66721">
        <ele>333.15158</ele>
        <time>2023-07-07T16:38:29.000Z</time>
      </trkpt>
      <trkpt lat="45.81267" lon="4.66723">
        <ele>332.65265</ele>
        <time>2023-07-07T16:38:30.000Z</time>
      </trkpt>
      <trkpt lat="45.81273" lon="4.66726">
        <ele>332.18683</ele>
        <time>2023-07-07T16:38:31.000Z</time>
      </trkpt>
      <trkpt lat="45.81281" lon="4.66729">
        <ele>331.78796</ele>
        <time>2023-07-07T16:38:32.000Z</time>
      </trkpt>
      <trkpt lat="45.81287" lon="4.66732">
        <ele>331.39688</ele>
        <time>2023-07-07T16:38:33.000Z</time>
      </trkpt>
      <trkpt lat="45.81294" lon="4.66734">
        <ele>331.08936</ele>
        <time>2023-07-07T16:38:34.000Z</time>
      </trkpt>
      <trkpt lat="45.813" lon="4.66736">
        <ele>330.7648</ele>
        <time>2023-07-07T16:38:35.000Z</time>
      </trkpt>
      <trkpt lat="45.81306" lon="4.66738">
        <ele>330.4801</ele>
        <time>2023-07-07T16:38:36.000Z</time>
      </trkpt>
      <trkpt lat="45.81312" lon="4.6674">
        <ele>330.2048</ele>
        <time>2023-07-07T16:38:37.000Z</time>
      </trkpt>
      <trkpt lat="45.81317" lon="4.66742">
        <ele>329.95685</ele>
        <time>2023-07-07T16:38:38.000Z</time>
      </trkpt>
      <trkpt lat="45.81322" lon="4.66743">
        <ele>329.7388</ele>
        <time>2023-07-07T16:38:39.000Z</time>
      </trkpt>
      <trkpt lat="45.81325" lon="4.6674">
        <ele>329.62604</ele>
        <time>2023-07-07T16:38:40.000Z</time>
      </trkpt>
      <trkpt lat="45.81328" lon="4.66735">
        <ele>329.53766</ele>
        <time>2023-07-07T16:38:41.000Z</time>
      </trkpt>
      <trkpt lat="45.81329" lon="4.66728">
        <ele>329.42688</ele>
        <time>2023-07-07T16:38:42.000Z</time>
      </trkpt>
      <trkpt lat="45.81331" lon="4.6672">
        <ele>329.30099</ele>
        <time>2023-07-07T16:38:43.000Z</time>
      </trkpt>
      <trkpt lat="45.81332" lon="4.66711">
        <ele>329.18784</ele>
        <time>2023-07-07T16:38:44.000Z</time>
      </trkpt>
      <trkpt lat="45.81332" lon="4.66702">
        <ele>329.07446</ele>
        <time>2023-07-07T16:38:45.000Z</time>
      </trkpt>
      <trkpt lat="45.81334" lon="4.66693">
        <ele>328.99231</ele>
        <time>2023-07-07T16:38:46.000Z</time>
      </trkpt>
      <trkpt lat="45.81335" lon="4.66683">
        <ele>328.86957</ele>
        <time>2023-07-07T16:38:47.000Z</time>
      </trkpt>
      <trkpt lat="45.81336" lon="4.66673">
        <ele>328.75262</ele>
        <time>2023-07-07T16:38:48.000Z</time>
      </trkpt>
      <trkpt lat="45.81338" lon="4.66662">
        <ele>328.56784</ele>
        <time>2023-07-07T16:38:49.000Z</time>
      </trkpt>
      <trkpt lat="45.81339" lon="4.66655">
        <ele>328.35516</ele>
        <time>2023-07-07T16:38:50.000Z</time>
      </trkpt>
      <trkpt lat="45.81341" lon="4.66648">
        <ele>328.09991</ele>
        <time>2023-07-07T16:38:51.000Z</time>
      </trkpt>
      <trkpt lat="45.81344" lon="4.66645">
        <ele>327.80737</ele>
        <time>2023-07-07T16:38:52.000Z</time>
      </trkpt>
      <trkpt lat="45.81348" lon="4.66645">
        <ele>327.5379</ele>
        <time>2023-07-07T16:38:53.000Z</time>
      </trkpt>
      <trkpt lat="45.81353" lon="4.66647">
        <ele>327.24023</ele>
        <time>2023-07-07T16:38:54.000Z</time>
      </trkpt>
      <trkpt lat="45.81358" lon="4.6665">
        <ele>326.9538</ele>
        <time>2023-07-07T16:38:55.000Z</time>
      </trkpt>
      <trkpt lat="45.81364" lon="4.66652">
        <ele>326.67572</ele>
        <time>2023-07-07T16:38:56.000Z</time>
      </trkpt>
      <trkpt lat="45.8137" lon="4.66654">
        <ele>326.43976</ele>
        <time>2023-07-07T16:38:57.000Z</time>
      </trkpt>
      <trkpt lat="45.81376" lon="4.66656">
        <ele>326.2309</ele>
        <time>2023-07-07T16:38:58.000Z</time>
      </trkpt>
      <trkpt lat="45.81382" lon="4.66658">
        <ele>326.00449</ele>
        <time>2023-07-07T16:38:59.000Z</time>
      </trkpt>
      <trkpt lat="45.81389" lon="4.66659">
        <ele>325.76312</ele>
        <time>2023-07-07T16:39:00.000Z</time>
      </trkpt>
      <trkpt lat="45.81395" lon="4.6666">
        <ele>325.59479</ele>
        <time>2023-07-07T16:39:01.000Z</time>
      </trkpt>
      <trkpt lat="45.81402" lon="4.66662">
        <ele>325.43463</ele>
        <time>2023-07-07T16:39:02.000Z</time>
      </trkpt>
      <trkpt lat="45.81409" lon="4.66665">
        <ele>325.30988</ele>
        <time>2023-07-07T16:39:03.000Z</time>
      </trkpt>
      <trkpt lat="45.81414" lon="4.66671">
        <ele>325.20709</ele>
        <time>2023-07-07T16:39:04.000Z</time>
      </trkpt>
      <trkpt lat="45.8142" lon="4.66675">
        <ele>325.11285</ele>
        <time>2023-07-07T16:39:05.000Z</time>
      </trkpt>
      <trkpt lat="45.81426" lon="4.66675">
        <ele>325.04742</ele>
        <time>2023-07-07T16:39:06.000Z</time>
      </trkpt>
      <trkpt lat="45.81432" lon="4.66677">
        <ele>325.06195</ele>
        <time>2023-07-07T16:39:07.000Z</time>
      </trkpt>
      <trkpt lat="45.81438" lon="4.66679">
        <ele>325.07285</ele>
        <time>2023-07-07T16:39:08.000Z</time>
      </trkpt>
      <trkpt lat="45.81446" lon="4.66681">
        <ele>325.11731</ele>
        <time>2023-07-07T16:39:09.000Z</time>
      </trkpt>
      <trkpt lat="45.8145" lon="4.66683">
        <ele>325.17178</ele>
        <time>2023-07-07T16:39:10.000Z</time>
      </trkpt>
      <trkpt lat="45.81456" lon="4.66683">
        <ele>325.23892</ele>
        <time>2023-07-07T16:39:11.000Z</time>
      </trkpt>
      <trkpt lat="45.81464" lon="4.66684">
        <ele>325.29849</ele>
        <time>2023-07-07T16:39:12.000Z</time>
      </trkpt>
      <trkpt lat="45.81471" lon="4.66685">
        <ele>325.3371</ele>
        <time>2023-07-07T16:39:13.000Z</time>
      </trkpt>
      <trkpt lat="45.81478" lon="4.66687">
        <ele>325.34839</ele>
        <time>2023-07-07T16:39:14.000Z</time>
      </trkpt>
      <trkpt lat="45.81484" lon="4.66688">
        <ele>325.34946</ele>
        <time>2023-07-07T16:39:15.000Z</time>
      </trkpt>
      <trkpt lat="45.81491" lon="4.66689">
        <ele>325.33432</ele>
        <time>2023-07-07T16:39:16.000Z</time>
      </trkpt>
      <trkpt lat="45.81499" lon="4.66689">
        <ele>325.2973</ele>
        <time>2023-07-07T16:39:17.000Z</time>
      </trkpt>
      <trkpt lat="45.81506" lon="4.6669">
        <ele>325.26031</ele>
        <time>2023-07-07T16:39:18.000Z</time>
      </trkpt>
      <trkpt lat="45.81514" lon="4.66691">
        <ele>325.16531</ele>
        <time>2023-07-07T16:39:19.000Z</time>
      </trkpt>
      <trkpt lat="45.81522" lon="4.66693">
        <ele>325.04123</ele>
        <time>2023-07-07T16:39:20.000Z</time>
      </trkpt>
      <trkpt lat="45.81532" lon="4.66693">
        <ele>324.8042</ele>
        <time>2023-07-07T16:39:21.000Z</time>
      </trkpt>
      <trkpt lat="45.81542" lon="4.66693">
        <ele>324.50354</ele>
        <time>2023-07-07T16:39:22.000Z</time>
      </trkpt>
      <trkpt lat="45.81551" lon="4.66692">
        <ele>324.16864</ele>
        <time>2023-07-07T16:39:23.000Z</time>
      </trkpt>
      <trkpt lat="45.81561" lon="4.66691">
        <ele>323.78754</ele>
        <time>2023-07-07T16:39:24.000Z</time>
      </trkpt>
      <trkpt lat="45.81571" lon="4.66691">
        <ele>323.39197</ele>
        <time>2023-07-07T16:39:25.000Z</time>
      </trkpt>
      <trkpt lat="45.81582" lon="4.66688">
        <ele>322.91589</ele>
        <time>2023-07-07T16:39:26.000Z</time>
      </trkpt>
      <trkpt lat="45.81593" lon="4.66687">
        <ele>322.39682</ele>
        <time>2023-07-07T16:39:27.000Z</time>
      </trkpt>
      <trkpt lat="45.81604" lon="4.66687">
        <ele>321.86276</ele>
        <time>2023-07-07T16:39:28.000Z</time>
      </trkpt>
      <trkpt lat="45.81614" lon="4.66688">
        <ele>321.37399</ele>
        <time>2023-07-07T16:39:29.000Z</time>
      </trkpt>
      <trkpt lat="45.81625" lon="4.66687">
        <ele>320.87457</ele>
        <time>2023-07-07T16:39:30.000Z</time>
      </trkpt>
      <trkpt lat="45.81636" lon="4.66688">
        <ele>320.37775</ele>
        <time>2023-07-07T16:39:31.000Z</time>
      </trkpt>
      <trkpt lat="45.81647" lon="4.66688">
        <ele>319.84451</ele>
        <time>2023-07-07T16:39:32.000Z</time>
      </trkpt>
      <trkpt lat="45.81656" lon="4.66689">
        <ele>319.31024</ele>
        <time>2023-07-07T16:39:33.000Z</time>
      </trkpt>
      <trkpt lat="45.81665" lon="4.6669">
        <ele>318.79312</ele>
        <time>2023-07-07T16:39:34.000Z</time>
      </trkpt>
      <trkpt lat="45.81672" lon="4.66689">
        <ele>318.27988</ele>
        <time>2023-07-07T16:39:35.000Z</time>
      </trkpt>
      <trkpt lat="45.81678" lon="4.66691">
        <ele>317.78677</ele>
        <time>2023-07-07T16:39:36.000Z</time>
      </trkpt>
      <trkpt lat="45.81681" lon="4.66693">
        <ele>317.24683</ele>
        <time>2023-07-07T16:39:37.000Z</time>
      </trkpt>
      <trkpt lat="45.81683" lon="4.66694">
        <ele>316.70908</ele>
        <time>2023-07-07T16:39:38.000Z</time>
      </trkpt>
      <trkpt lat="45.81685" lon="4.66694">
        <ele>316.21588</ele>
        <time>2023-07-07T16:39:40.000Z</time>
      </trkpt>
      <trkpt lat="45.81687" lon="4.66693">
        <ele>315.74985</ele>
        <time>2023-07-07T16:39:43.000Z</time>
      </trkpt>
      <trkpt lat="45.8169" lon="4.66689">
        <ele>315.31433</ele>
        <time>2023-07-07T16:39:45.000Z</time>
      </trkpt>
      <trkpt lat="45.8169" lon="4.66685">
        <ele>314.96667</ele>
        <time>2023-07-07T16:39:46.000Z</time>
      </trkpt>
      <trkpt lat="45.8169" lon="4.6668">
        <ele>314.65625</ele>
        <time>2023-07-07T16:39:47.000Z</time>
      </trkpt>
      <trkpt lat="45.81691" lon="4.66675">
        <ele>314.37869</ele>
        <time>2023-07-07T16:39:48.000Z</time>
      </trkpt>
      <trkpt lat="45.81692" lon="4.66669">
        <ele>314.17136</ele>
        <time>2023-07-07T16:39:49.000Z</time>
      </trkpt>
      <trkpt lat="45.81694" lon="4.66664">
        <ele>314.05014</ele>
        <time>2023-07-07T16:39:50.000Z</time>
      </trkpt>
      <trkpt lat="45.81694" lon="4.66658">
        <ele>313.90384</ele>
        <time>2023-07-07T16:39:51.000Z</time>
      </trkpt>
      <trkpt lat="45.81694" lon="4.66651">
        <ele>313.77539</ele>
        <time>2023-07-07T16:39:52.000Z</time>
      </trkpt>
      <trkpt lat="45.81694" lon="4.66644">
        <ele>313.64764</ele>
        <time>2023-07-07T16:39:53.000Z</time>
      </trkpt>
      <trkpt lat="45.81694" lon="4.66634">
        <ele>313.53558</ele>
        <time>2023-07-07T16:39:54.000Z</time>
      </trkpt>
      <trkpt lat="45.81695" lon="4.66626">
        <ele>313.42401</ele>
        <time>2023-07-07T16:39:55.000Z</time>
      </trkpt>
      <trkpt lat="45.81694" lon="4.66618">
        <ele>313.35626</ele>
        <time>2023-07-07T16:39:56.000Z</time>
      </trkpt>
      <trkpt lat="45.81695" lon="4.6661">
        <ele>313.34879</ele>
        <time>2023-07-07T16:39:57.000Z</time>
      </trkpt>
      <trkpt lat="45.81695" lon="4.66604">
        <ele>313.42758</ele>
        <time>2023-07-07T16:39:58.000Z</time>
      </trkpt>
      <trkpt lat="45.81696" lon="4.66596">
        <ele>313.53046</ele>
        <time>2023-07-07T16:39:59.000Z</time>
      </trkpt>
      <trkpt lat="45.81696" lon="4.66587">
        <ele>313.65475</ele>
        <time>2023-07-07T16:40:00.000Z</time>
      </trkpt>
      <trkpt lat="45.81697" lon="4.66579">
        <ele>313.80481</ele>
        <time>2023-07-07T16:40:01.000Z</time>
      </trkpt>
      <trkpt lat="45.81699" lon="4.66572">
        <ele>313.97784</ele>
        <time>2023-07-07T16:40:02.000Z</time>
      </trkpt>
      <trkpt lat="45.817" lon="4.66564">
        <ele>314.15384</ele>
        <time>2023-07-07T16:40:03.000Z</time>
      </trkpt>
      <trkpt lat="45.81702" lon="4.66556">
        <ele>314.30182</ele>
        <time>2023-07-07T16:40:04.000Z</time>
      </trkpt>
      <trkpt lat="45.81705" lon="4.66549">
        <ele>314.50604</ele>
        <time>2023-07-07T16:40:05.000Z</time>
      </trkpt>
      <trkpt lat="45.81708" lon="4.66543">
        <ele>314.71469</ele>
        <time>2023-07-07T16:40:06.000Z</time>
      </trkpt>
      <trkpt lat="45.81714" lon="4.66538">
        <ele>314.91196</ele>
        <time>2023-07-07T16:40:07.000Z</time>
      </trkpt>
      <trkpt lat="45.81719" lon="4.66535">
        <ele>315.13025</ele>
        <time>2023-07-07T16:40:08.000Z</time>
      </trkpt>
      <trkpt lat="45.81725" lon="4.66533">
        <ele>315.27426</ele>
        <time>2023-07-07T16:40:09.000Z</time>
      </trkpt>
      <trkpt lat="45.81732" lon="4.66533">
        <ele>315.41418</ele>
        <time>2023-07-07T16:40:10.000Z</time>
      </trkpt>
      <trkpt lat="45.81739" lon="4.6653">
        <ele>315.52573</ele>
        <time>2023-07-07T16:40:11.000Z</time>
      </trkpt>
      <trkpt lat="45.81746" lon="4.66535">
        <ele>315.58783</ele>
        <time>2023-07-07T16:40:12.000Z</time>
      </trkpt>
      <trkpt lat="45.81752" lon="4.6654">
        <ele>315.61749</ele>
        <time>2023-07-07T16:40:13.000Z</time>
      </trkpt>
      <trkpt lat="45.81759" lon="4.66546">
        <ele>315.62915</ele>
        <time>2023-07-07T16:40:14.000Z</time>
      </trkpt>
      <trkpt lat="45.81766" lon="4.66553">
        <ele>315.62262</ele>
        <time>2023-07-07T16:40:15.000Z</time>
      </trkpt>
      <trkpt lat="45.81773" lon="4.6656">
        <ele>315.61908</ele>
        <time>2023-07-07T16:40:16.000Z</time>
      </trkpt>
      <trkpt lat="45.81781" lon="4.66565">
        <ele>315.59296</ele>
        <time>2023-07-07T16:40:17.000Z</time>
      </trkpt>
      <trkpt lat="45.81788" lon="4.66572">
        <ele>315.4772</ele>
        <time>2023-07-07T16:40:18.000Z</time>
      </trkpt>
      <trkpt lat="45.81795" lon="4.66577">
        <ele>315.32248</ele>
        <time>2023-07-07T16:40:19.000Z</time>
      </trkpt>
      <trkpt lat="45.81802" lon="4.66581">
        <ele>315.08121</ele>
        <time>2023-07-07T16:40:20.000Z</time>
      </trkpt>
      <trkpt lat="45.8181" lon="4.66587">
        <ele>314.8851</ele>
        <time>2023-07-07T16:40:21.000Z</time>
      </trkpt>
      <trkpt lat="45.81818" lon="4.66592">
        <ele>314.70917</ele>
        <time>2023-07-07T16:40:22.000Z</time>
      </trkpt>
      <trkpt lat="45.81825" lon="4.66599">
        <ele>314.52625</ele>
        <time>2023-07-07T16:40:23.000Z</time>
      </trkpt>
      <trkpt lat="45.81834" lon="4.66605">
        <ele>314.35187</ele>
        <time>2023-07-07T16:40:24.000Z</time>
      </trkpt>
      <trkpt lat="45.81842" lon="4.66611">
        <ele>314.20358</ele>
        <time>2023-07-07T16:40:25.000Z</time>
      </trkpt>
      <trkpt lat="45.81851" lon="4.66617">
        <ele>314.06326</ele>
        <time>2023-07-07T16:40:26.000Z</time>
      </trkpt>
      <trkpt lat="45.81859" lon="4.66623">
        <ele>313.92578</ele>
        <time>2023-07-07T16:40:27.000Z</time>
      </trkpt>
      <trkpt lat="45.81867" lon="4.66629">
        <ele>313.74753</ele>
        <time>2023-07-07T16:40:28.000Z</time>
      </trkpt>
      <trkpt lat="45.81875" lon="4.66634">
        <ele>313.59137</ele>
        <time>2023-07-07T16:40:29.000Z</time>
      </trkpt>
      <trkpt lat="45.81883" lon="4.66641">
        <ele>313.4411</ele>
        <time>2023-07-07T16:40:30.000Z</time>
      </trkpt>
      <trkpt lat="45.8189" lon="4.66647">
        <ele>313.31989</ele>
        <time>2023-07-07T16:40:31.000Z</time>
      </trkpt>
      <trkpt lat="45.81899" lon="4.66653">
        <ele>313.21158</ele>
        <time>2023-07-07T16:40:32.000Z</time>
      </trkpt>
      <trkpt lat="45.81906" lon="4.66659">
        <ele>313.11853</ele>
        <time>2023-07-07T16:40:33.000Z</time>
      </trkpt>
      <trkpt lat="45.81914" lon="4.66665">
        <ele>313.02902</ele>
        <time>2023-07-07T16:40:34.000Z</time>
      </trkpt>
      <trkpt lat="45.81922" lon="4.66671">
        <ele>312.95618</ele>
        <time>2023-07-07T16:40:35.000Z</time>
      </trkpt>
      <trkpt lat="45.8193" lon="4.66678">
        <ele>312.87338</ele>
        <time>2023-07-07T16:40:36.000Z</time>
      </trkpt>
      <trkpt lat="45.81938" lon="4.66684">
        <ele>312.71133</ele>
        <time>2023-07-07T16:40:37.000Z</time>
      </trkpt>
      <trkpt lat="45.81947" lon="4.6669">
        <ele>312.55194</ele>
        <time>2023-07-07T16:40:38.000Z</time>
      </trkpt>
      <trkpt lat="45.81955" lon="4.66696">
        <ele>312.40872</ele>
        <time>2023-07-07T16:40:39.000Z</time>
      </trkpt>
      <trkpt lat="45.81963" lon="4.66704">
        <ele>312.33755</ele>
        <time>2023-07-07T16:40:40.000Z</time>
      </trkpt>
      <trkpt lat="45.8197" lon="4.6671">
        <ele>312.22974</ele>
        <time>2023-07-07T16:40:41.000Z</time>
      </trkpt>
      <trkpt lat="45.81979" lon="4.66717">
        <ele>312.07458</ele>
        <time>2023-07-07T16:40:42.000Z</time>
      </trkpt>
      <trkpt lat="45.81987" lon="4.66723">
        <ele>311.94907</ele>
        <time>2023-07-07T16:40:43.000Z</time>
      </trkpt>
      <trkpt lat="45.81993" lon="4.66729">
        <ele>311.82947</ele>
        <time>2023-07-07T16:40:44.000Z</time>
      </trkpt>
      <trkpt lat="45.82002" lon="4.66737">
        <ele>311.60489</ele>
        <time>2023-07-07T16:40:45.000Z</time>
      </trkpt>
      <trkpt lat="45.82009" lon="4.66743">
        <ele>311.36371</ele>
        <time>2023-07-07T16:40:46.000Z</time>
      </trkpt>
      <trkpt lat="45.82017" lon="4.6675">
        <ele>311.08844</ele>
        <time>2023-07-07T16:40:47.000Z</time>
      </trkpt>
      <trkpt lat="45.82024" lon="4.66758">
        <ele>310.81998</ele>
        <time>2023-07-07T16:40:48.000Z</time>
      </trkpt>
      <trkpt lat="45.82032" lon="4.66765">
        <ele>310.51563</ele>
        <time>2023-07-07T16:40:49.000Z</time>
      </trkpt>
      <trkpt lat="45.82039" lon="4.66771">
        <ele>310.13309</ele>
        <time>2023-07-07T16:40:50.000Z</time>
      </trkpt>
      <trkpt lat="45.82045" lon="4.66777">
        <ele>309.78497</ele>
        <time>2023-07-07T16:40:51.000Z</time>
      </trkpt>
      <trkpt lat="45.82051" lon="4.66784">
        <ele>309.43912</ele>
        <time>2023-07-07T16:40:52.000Z</time>
      </trkpt>
      <trkpt lat="45.82055" lon="4.66789">
        <ele>309.05707</ele>
        <time>2023-07-07T16:40:53.000Z</time>
      </trkpt>
      <trkpt lat="45.82058" lon="4.66795">
        <ele>308.67072</ele>
        <time>2023-07-07T16:40:54.000Z</time>
      </trkpt>
      <trkpt lat="45.82063" lon="4.66799">
        <ele>308.29248</ele>
        <time>2023-07-07T16:40:55.000Z</time>
      </trkpt>
      <trkpt lat="45.82069" lon="4.66803">
        <ele>307.91046</ele>
        <time>2023-07-07T16:40:56.000Z</time>
      </trkpt>
      <trkpt lat="45.82075" lon="4.66807">
        <ele>307.59616</ele>
        <time>2023-07-07T16:40:57.000Z</time>
      </trkpt>
      <trkpt lat="45.82081" lon="4.66813">
        <ele>307.33255</ele>
        <time>2023-07-07T16:40:58.000Z</time>
      </trkpt>
      <trkpt lat="45.82086" lon="4.6682">
        <ele>307.0636</ele>
        <time>2023-07-07T16:40:59.000Z</time>
      </trkpt>
      <trkpt lat="45.82092" lon="4.66827">
        <ele>306.7579</ele>
        <time>2023-07-07T16:41:00.000Z</time>
      </trkpt>
      <trkpt lat="45.82098" lon="4.66834">
        <ele>306.41681</ele>
        <time>2023-07-07T16:41:01.000Z</time>
      </trkpt>
      <trkpt lat="45.82103" lon="4.6684">
        <ele>306.06964</ele>
        <time>2023-07-07T16:41:02.000Z</time>
      </trkpt>
      <trkpt lat="45.82107" lon="4.66849">
        <ele>305.75873</ele>
        <time>2023-07-07T16:41:03.000Z</time>
      </trkpt>
      <trkpt lat="45.82111" lon="4.66855">
        <ele>305.56821</ele>
        <time>2023-07-07T16:41:04.000Z</time>
      </trkpt>
      <trkpt lat="45.82118" lon="4.66861">
        <ele>305.4295</ele>
        <time>2023-07-07T16:41:05.000Z</time>
      </trkpt>
      <trkpt lat="45.82124" lon="4.66868">
        <ele>305.28174</ele>
        <time>2023-07-07T16:41:06.000Z</time>
      </trkpt>
      <trkpt lat="45.82131" lon="4.66874">
        <ele>305.20758</ele>
        <time>2023-07-07T16:41:07.000Z</time>
      </trkpt>
      <trkpt lat="45.82138" lon="4.66878">
        <ele>305.11621</ele>
        <time>2023-07-07T16:41:08.000Z</time>
      </trkpt>
      <trkpt lat="45.82146" lon="4.6688">
        <ele>305.04752</ele>
        <time>2023-07-07T16:41:09.000Z</time>
      </trkpt>
      <trkpt lat="45.82152" lon="4.66883">
        <ele>305.00299</ele>
        <time>2023-07-07T16:41:10.000Z</time>
      </trkpt>
      <trkpt lat="45.8216" lon="4.66886">
        <ele>304.92993</ele>
        <time>2023-07-07T16:41:11.000Z</time>
      </trkpt>
      <trkpt lat="45.82168" lon="4.66888">
        <ele>304.8364</ele>
        <time>2023-07-07T16:41:12.000Z</time>
      </trkpt>
      <trkpt lat="45.82175" lon="4.66889">
        <ele>304.76453</ele>
        <time>2023-07-07T16:41:13.000Z</time>
      </trkpt>
      <trkpt lat="45.82182" lon="4.66889">
        <ele>304.72629</ele>
        <time>2023-07-07T16:41:14.000Z</time>
      </trkpt>
      <trkpt lat="45.82189" lon="4.66887">
        <ele>304.7001</ele>
        <time>2023-07-07T16:41:15.000Z</time>
      </trkpt>
      <trkpt lat="45.82197" lon="4.66885">
        <ele>304.6994</ele>
        <time>2023-07-07T16:41:16.000Z</time>
      </trkpt>
      <trkpt lat="45.82206" lon="4.66884">
        <ele>304.67865</ele>
        <time>2023-07-07T16:41:17.000Z</time>
      </trkpt>
      <trkpt lat="45.82213" lon="4.66882">
        <ele>304.61929</ele>
        <time>2023-07-07T16:41:18.000Z</time>
      </trkpt>
      <trkpt lat="45.8222" lon="4.6688">
        <ele>304.54474</ele>
        <time>2023-07-07T16:41:19.000Z</time>
      </trkpt>
      <trkpt lat="45.82228" lon="4.66879">
        <ele>304.42535</ele>
        <time>2023-07-07T16:41:20.000Z</time>
      </trkpt>
      <trkpt lat="45.82235" lon="4.66876">
        <ele>304.35626</ele>
        <time>2023-07-07T16:41:21.000Z</time>
      </trkpt>
      <trkpt lat="45.82241" lon="4.66874">
        <ele>304.36121</ele>
        <time>2023-07-07T16:41:22.000Z</time>
      </trkpt>
      <trkpt lat="45.82248" lon="4.66873">
        <ele>304.3465</ele>
        <time>2023-07-07T16:41:23.000Z</time>
      </trkpt>
      <trkpt lat="45.82255" lon="4.66872">
        <ele>304.68759</ele>
        <time>2023-07-07T16:41:24.000Z</time>
      </trkpt>
      <trkpt lat="45.82261" lon="4.66871">
        <ele>305.10101</ele>
        <time>2023-07-07T16:41:25.000Z</time>
      </trkpt>
      <trkpt lat="45.82268" lon="4.6687">
        <ele>305.45404</ele>
        <time>2023-07-07T16:41:26.000Z</time>
      </trkpt>
      <trkpt lat="45.82274" lon="4.66869">
        <ele>305.77521</ele>
        <time>2023-07-07T16:41:27.000Z</time>
      </trkpt>
      <trkpt lat="45.8228" lon="4.66868">
        <ele>306.1528</ele>
        <time>2023-07-07T16:41:28.000Z</time>
      </trkpt>
      <trkpt lat="45.82285" lon="4.66867">
        <ele>306.48334</ele>
        <time>2023-07-07T16:41:29.000Z</time>
      </trkpt>
      <trkpt lat="45.82292" lon="4.66866">
        <ele>306.75723</ele>
        <time>2023-07-07T16:41:30.000Z</time>
      </trkpt>
      <trkpt lat="45.82298" lon="4.66866">
        <ele>306.95636</ele>
        <time>2023-07-07T16:41:31.000Z</time>
      </trkpt>
      <trkpt lat="45.82305" lon="4.66864">
        <ele>307.26538</ele>
        <time>2023-07-07T16:41:32.000Z</time>
      </trkpt>
      <trkpt lat="45.82311" lon="4.66865">
        <ele>307.53778</ele>
        <time>2023-07-07T16:41:33.000Z</time>
      </trkpt>
      <trkpt lat="45.82317" lon="4.66868">
        <ele>307.82471</ele>
        <time>2023-07-07T16:41:34.000Z</time>
      </trkpt>
      <trkpt lat="45.82323" lon="4.66871">
        <ele>308.21323</ele>
        <time>2023-07-07T16:41:35.000Z</time>
      </trkpt>
      <trkpt lat="45.82329" lon="4.66876">
        <ele>308.61624</ele>
        <time>2023-07-07T16:41:36.000Z</time>
      </trkpt>
      <trkpt lat="45.82335" lon="4.66879">
        <ele>309.00067</ele>
        <time>2023-07-07T16:41:37.000Z</time>
      </trkpt>
      <trkpt lat="45.82341" lon="4.66884">
        <ele>309.34232</ele>
        <time>2023-07-07T16:41:38.000Z</time>
      </trkpt>
      <trkpt lat="45.82346" lon="4.66888">
        <ele>309.71487</ele>
        <time>2023-07-07T16:41:39.000Z</time>
      </trkpt>
      <trkpt lat="45.82352" lon="4.66893">
        <ele>310.20349</ele>
        <time>2023-07-07T16:41:40.000Z</time>
      </trkpt>
      <trkpt lat="45.82357" lon="4.66898">
        <ele>310.6282</ele>
        <time>2023-07-07T16:41:41.000Z</time>
      </trkpt>
      <trkpt lat="45.82362" lon="4.66904">
        <ele>310.96741</ele>
        <time>2023-07-07T16:41:42.000Z</time>
      </trkpt>
      <trkpt lat="45.82368" lon="4.66909">
        <ele>311.32632</ele>
        <time>2023-07-07T16:41:43.000Z</time>
      </trkpt>
      <trkpt lat="45.82372" lon="4.66916">
        <ele>311.25729</ele>
        <time>2023-07-07T16:41:44.000Z</time>
      </trkpt>
      <trkpt lat="45.82375" lon="4.66921">
        <ele>311.24521</ele>
        <time>2023-07-07T16:41:45.000Z</time>
      </trkpt>
      <trkpt lat="45.82379" lon="4.66928">
        <ele>311.57196</ele>
        <time>2023-07-07T16:41:46.000Z</time>
      </trkpt>
      <trkpt lat="45.82383" lon="4.66935">
        <ele>311.92392</ele>
        <time>2023-07-07T16:41:47.000Z</time>
      </trkpt>
      <trkpt lat="45.82386" lon="4.66942">
        <ele>312.41516</ele>
        <time>2023-07-07T16:41:48.000Z</time>
      </trkpt>
      <trkpt lat="45.8239" lon="4.66948">
        <ele>312.64246</ele>
        <time>2023-07-07T16:41:49.000Z</time>
      </trkpt>
      <trkpt lat="45.82394" lon="4.66952">
        <ele>313.07724</ele>
        <time>2023-07-07T16:41:50.000Z</time>
      </trkpt>
      <trkpt lat="45.82397" lon="4.66959">
        <ele>313.6275</ele>
        <time>2023-07-07T16:41:51.000Z</time>
      </trkpt>
      <trkpt lat="45.82399" lon="4.66964">
        <ele>314.12006</ele>
        <time>2023-07-07T16:41:52.000Z</time>
      </trkpt>
      <trkpt lat="45.82402" lon="4.66971">
        <ele>314.60666</ele>
        <time>2023-07-07T16:41:53.000Z</time>
      </trkpt>
      <trkpt lat="45.82404" lon="4.66976">
        <ele>315.15045</ele>
        <time>2023-07-07T16:41:54.000Z</time>
      </trkpt>
      <trkpt lat="45.82407" lon="4.66981">
        <ele>315.57959</ele>
        <time>2023-07-07T16:41:55.000Z</time>
      </trkpt>
      <trkpt lat="45.82411" lon="4.66987">
        <ele>315.9296</ele>
        <time>2023-07-07T16:41:56.000Z</time>
      </trkpt>
      <trkpt lat="45.82413" lon="4.66995">
        <ele>316.29514</ele>
        <time>2023-07-07T16:41:57.000Z</time>
      </trkpt>
      <trkpt lat="45.82416" lon="4.67002">
        <ele>316.72723</ele>
        <time>2023-07-07T16:41:58.000Z</time>
      </trkpt>
      <trkpt lat="45.8242" lon="4.67011">
        <ele>317.14621</ele>
        <time>2023-07-07T16:41:59.000Z</time>
      </trkpt>
      <trkpt lat="45.82423" lon="4.67014">
        <ele>317.49615</ele>
        <time>2023-07-07T16:42:00.000Z</time>
      </trkpt>
      <trkpt lat="45.82425" lon="4.67019">
        <ele>317.85623</ele>
        <time>2023-07-07T16:42:01.000Z</time>
      </trkpt>
      <trkpt lat="45.82428" lon="4.67023">
        <ele>318.37494</ele>
        <time>2023-07-07T16:42:02.000Z</time>
      </trkpt>
      <trkpt lat="45.82431" lon="4.67027">
        <ele>318.88239</ele>
        <time>2023-07-07T16:42:03.000Z</time>
      </trkpt>
      <trkpt lat="45.82434" lon="4.67031">
        <ele>319.37701</ele>
        <time>2023-07-07T16:42:04.000Z</time>
      </trkpt>
      <trkpt lat="45.82435" lon="4.67034">
        <ele>319.74817</ele>
        <time>2023-07-07T16:42:05.000Z</time>
      </trkpt>
      <trkpt lat="45.82437" lon="4.67037">
        <ele>319.89529</ele>
        <time>2023-07-07T16:42:06.000Z</time>
      </trkpt>
      <trkpt lat="45.82439" lon="4.67039">
        <ele>319.60568</ele>
        <time>2023-07-07T16:42:07.000Z</time>
      </trkpt>
      <trkpt lat="45.8244" lon="4.67042">
        <ele>319.20929</ele>
        <time>2023-07-07T16:42:08.000Z</time>
      </trkpt>
      <trkpt lat="45.82439" lon="4.67046">
        <ele>319.14767</ele>
        <time>2023-07-07T16:42:09.000Z</time>
      </trkpt>
      <trkpt lat="45.82437" lon="4.67048">
        <ele>318.89294</ele>
        <time>2023-07-07T16:42:10.000Z</time>
      </trkpt>
      <trkpt lat="45.82434" lon="4.67051">
        <ele>318.5451</ele>
        <time>2023-07-07T16:42:11.000Z</time>
      </trkpt>
      <trkpt lat="45.82431" lon="4.67054">
        <ele>318.17795</ele>
        <time>2023-07-07T16:42:12.000Z</time>
      </trkpt>
      <trkpt lat="45.82429" lon="4.67059">
        <ele>317.89972</ele>
        <time>2023-07-07T16:42:13.000Z</time>
      </trkpt>
      <trkpt lat="45.82427" lon="4.67063">
        <ele>317.52789</ele>
        <time>2023-07-07T16:42:14.000Z</time>
      </trkpt>
      <trkpt lat="45.82427" lon="4.67067">
        <ele>317.13004</ele>
        <time>2023-07-07T16:42:15.000Z</time>
      </trkpt>
      <trkpt lat="45.82427" lon="4.67071">
        <ele>316.5434</ele>
        <time>2023-07-07T16:42:16.000Z</time>
      </trkpt>
      <trkpt lat="45.82427" lon="4.67075">
        <ele>316.0025</ele>
        <time>2023-07-07T16:42:17.000Z</time>
      </trkpt>
      <trkpt lat="45.82427" lon="4.67079">
        <ele>315.41638</ele>
        <time>2023-07-07T16:42:18.000Z</time>
      </trkpt>
      <trkpt lat="45.82426" lon="4.67083">
        <ele>314.79977</ele>
        <time>2023-07-07T16:42:19.000Z</time>
      </trkpt>
      <trkpt lat="45.82425" lon="4.67088">
        <ele>314.20438</ele>
        <time>2023-07-07T16:42:20.000Z</time>
      </trkpt>
      <trkpt lat="45.82425" lon="4.67093">
        <ele>313.65689</ele>
        <time>2023-07-07T16:42:21.000Z</time>
      </trkpt>
      <trkpt lat="45.82427" lon="4.67097">
        <ele>312.98453</ele>
        <time>2023-07-07T16:42:22.000Z</time>
      </trkpt>
      <trkpt lat="45.82428" lon="4.67097">
        <ele>312.40939</ele>
        <time>2023-07-07T16:42:26.000Z</time>
      </trkpt>
      <trkpt lat="45.82431" lon="4.671">
        <ele>311.83856</ele>
        <time>2023-07-07T16:42:27.000Z</time>
      </trkpt>
      <trkpt lat="45.82435" lon="4.67104">
        <ele>311.32339</ele>
        <time>2023-07-07T16:42:28.000Z</time>
      </trkpt>
      <trkpt lat="45.82438" lon="4.67107">
        <ele>310.76956</ele>
        <time>2023-07-07T16:42:29.000Z</time>
      </trkpt>
      <trkpt lat="45.82442" lon="4.67109">
        <ele>310.5589</ele>
        <time>2023-07-07T16:42:30.000Z</time>
      </trkpt>
      <trkpt lat="45.82446" lon="4.67108">
        <ele>310.31274</ele>
        <time>2023-07-07T16:42:31.000Z</time>
      </trkpt>
      <trkpt lat="45.82451" lon="4.67106">
        <ele>310.09985</ele>
        <time>2023-07-07T16:42:32.000Z</time>
      </trkpt>
      <trkpt lat="45.82455" lon="4.67105">
        <ele>309.97501</ele>
        <time>2023-07-07T16:42:33.000Z</time>
      </trkpt>
      <trkpt lat="45.8246" lon="4.67106">
        <ele>309.89951</ele>
        <time>2023-07-07T16:42:34.000Z</time>
      </trkpt>
      <trkpt lat="45.82464" lon="4.67106">
        <ele>309.83215</ele>
        <time>2023-07-07T16:42:35.000Z</time>
      </trkpt>
      <trkpt lat="45.82468" lon="4.67108">
        <ele>309.69308</ele>
        <time>2023-07-07T16:42:36.000Z</time>
      </trkpt>
      <trkpt lat="45.82473" lon="4.67109">
        <ele>309.14951</ele>
        <time>2023-07-07T16:42:37.000Z</time>
      </trkpt>
      <trkpt lat="45.82477" lon="4.67111">
        <ele>308.64084</ele>
        <time>2023-07-07T16:42:38.000Z</time>
      </trkpt>
      <trkpt lat="45.82482" lon="4.67113">
        <ele>308.35251</ele>
        <time>2023-07-07T16:42:39.000Z</time>
      </trkpt>
      <trkpt lat="45.82486" lon="4.67115">
        <ele>308.06046</ele>
        <time>2023-07-07T16:42:40.000Z</time>
      </trkpt>
      <trkpt lat="45.8249" lon="4.67116">
        <ele>307.79459</ele>
        <time>2023-07-07T16:42:41.000Z</time>
      </trkpt>
      <trkpt lat="45.82495" lon="4.67117">
        <ele>307.58929</ele>
        <time>2023-07-07T16:42:42.000Z</time>
      </trkpt>
      <trkpt lat="45.825" lon="4.6712">
        <ele>307.3902</ele>
        <time>2023-07-07T16:42:43.000Z</time>
      </trkpt>
      <trkpt lat="45.82505" lon="4.67121">
        <ele>307.17499</ele>
        <time>2023-07-07T16:42:44.000Z</time>
      </trkpt>
      <trkpt lat="45.8251" lon="4.67124">
        <ele>306.93109</ele>
        <time>2023-07-07T16:42:45.000Z</time>
      </trkpt>
      <trkpt lat="45.82516" lon="4.67127">
        <ele>306.52844</ele>
        <time>2023-07-07T16:42:46.000Z</time>
      </trkpt>
      <trkpt lat="45.8252" lon="4.67129">
        <ele>306.09631</ele>
        <time>2023-07-07T16:42:47.000Z</time>
      </trkpt>
      <trkpt lat="45.82525" lon="4.67131">
        <ele>305.61508</ele>
        <time>2023-07-07T16:42:48.000Z</time>
      </trkpt>
      <trkpt lat="45.82531" lon="4.67134">
        <ele>305.1153</ele>
        <time>2023-07-07T16:42:49.000Z</time>
      </trkpt>
      <trkpt lat="45.82536" lon="4.67136">
        <ele>304.65683</ele>
        <time>2023-07-07T16:42:50.000Z</time>
      </trkpt>
      <trkpt lat="45.82542" lon="4.67139">
        <ele>304.19943</ele>
        <time>2023-07-07T16:42:51.000Z</time>
      </trkpt>
      <trkpt lat="45.82547" lon="4.67141">
        <ele>303.69989</ele>
        <time>2023-07-07T16:42:52.000Z</time>
      </trkpt>
      <trkpt lat="45.82553" lon="4.67144">
        <ele>303.17303</ele>
        <time>2023-07-07T16:42:53.000Z</time>
      </trkpt>
      <trkpt lat="45.82558" lon="4.67147">
        <ele>302.64453</ele>
        <time>2023-07-07T16:42:54.000Z</time>
      </trkpt>
      <trkpt lat="45.82565" lon="4.67149">
        <ele>302.12506</ele>
        <time>2023-07-07T16:42:55.000Z</time>
      </trkpt>
      <trkpt lat="45.82571" lon="4.67152">
        <ele>301.68173</ele>
        <time>2023-07-07T16:42:56.000Z</time>
      </trkpt>
      <trkpt lat="45.82577" lon="4.67156">
        <ele>301.63693</ele>
        <time>2023-07-07T16:42:57.000Z</time>
      </trkpt>
      <trkpt lat="45.82584" lon="4.67159">
        <ele>301.59415</ele>
        <time>2023-07-07T16:42:58.000Z</time>
      </trkpt>
      <trkpt lat="45.8259" lon="4.67162">
        <ele>301.57428</ele>
        <time>2023-07-07T16:42:59.000Z</time>
      </trkpt>
      <trkpt lat="45.82597" lon="4.67166">
        <ele>301.52548</ele>
        <time>2023-07-07T16:43:00.000Z</time>
      </trkpt>
      <trkpt lat="45.82604" lon="4.6717">
        <ele>301.4646</ele>
        <time>2023-07-07T16:43:01.000Z</time>
      </trkpt>
      <trkpt lat="45.8261" lon="4.67174">
        <ele>301.36542</ele>
        <time>2023-07-07T16:43:02.000Z</time>
      </trkpt>
      <trkpt lat="45.82616" lon="4.67178">
        <ele>301.25766</ele>
        <time>2023-07-07T16:43:03.000Z</time>
      </trkpt>
      <trkpt lat="45.82621" lon="4.67182">
        <ele>301.18292</ele>
        <time>2023-07-07T16:43:04.000Z</time>
      </trkpt>
      <trkpt lat="45.82625" lon="4.67189">
        <ele>301.10272</ele>
        <time>2023-07-07T16:43:05.000Z</time>
      </trkpt>
      <trkpt lat="45.82631" lon="4.67196">
        <ele>301.026</ele>
        <time>2023-07-07T16:43:06.000Z</time>
      </trkpt>
      <trkpt lat="45.82636" lon="4.67202">
        <ele>300.95419</ele>
        <time>2023-07-07T16:43:07.000Z</time>
      </trkpt>
      <trkpt lat="45.82642" lon="4.67208">
        <ele>300.84485</ele>
        <time>2023-07-07T16:43:08.000Z</time>
      </trkpt>
      <trkpt lat="45.82647" lon="4.67214">
        <ele>300.73776</ele>
        <time>2023-07-07T16:43:09.000Z</time>
      </trkpt>
      <trkpt lat="45.82653" lon="4.67218">
        <ele>300.63593</ele>
        <time>2023-07-07T16:43:10.000Z</time>
      </trkpt>
      <trkpt lat="45.82658" lon="4.67226">
        <ele>300.52652</ele>
        <time>2023-07-07T16:43:11.000Z</time>
      </trkpt>
      <trkpt lat="45.82662" lon="4.67233">
        <ele>300.41806</ele>
        <time>2023-07-07T16:43:12.000Z</time>
      </trkpt>
      <trkpt lat="45.82667" lon="4.67239">
        <ele>300.35956</ele>
        <time>2023-07-07T16:43:13.000Z</time>
      </trkpt>
      <trkpt lat="45.82673" lon="4.67247">
        <ele>300.29019</ele>
        <time>2023-07-07T16:43:14.000Z</time>
      </trkpt>
      <trkpt lat="45.82678" lon="4.67253">
        <ele>300.19733</ele>
        <time>2023-07-07T16:43:15.000Z</time>
      </trkpt>
      <trkpt lat="45.82684" lon="4.6726">
        <ele>300.08981</ele>
        <time>2023-07-07T16:43:16.000Z</time>
      </trkpt>
      <trkpt lat="45.82689" lon="4.67268">
        <ele>300.00101</ele>
        <time>2023-07-07T16:43:17.000Z</time>
      </trkpt>
      <trkpt lat="45.82694" lon="4.67273">
        <ele>299.86148</ele>
        <time>2023-07-07T16:43:18.000Z</time>
      </trkpt>
      <trkpt lat="45.82699" lon="4.6728">
        <ele>299.71442</ele>
        <time>2023-07-07T16:43:19.000Z</time>
      </trkpt>
      <trkpt lat="45.82705" lon="4.67286">
        <ele>299.56989</ele>
        <time>2023-07-07T16:43:20.000Z</time>
      </trkpt>
      <trkpt lat="45.82709" lon="4.67294">
        <ele>299.44525</ele>
        <time>2023-07-07T16:43:21.000Z</time>
      </trkpt>
      <trkpt lat="45.82714" lon="4.67301">
        <ele>299.34637</ele>
        <time>2023-07-07T16:43:22.000Z</time>
      </trkpt>
      <trkpt lat="45.82719" lon="4.67307">
        <ele>299.284</ele>
        <time>2023-07-07T16:43:23.000Z</time>
      </trkpt>
      <trkpt lat="45.82725" lon="4.67313">
        <ele>299.17484</ele>
        <time>2023-07-07T16:43:24.000Z</time>
      </trkpt>
      <trkpt lat="45.8273" lon="4.67319">
        <ele>299.0809</ele>
        <time>2023-07-07T16:43:25.000Z</time>
      </trkpt>
      <trkpt lat="45.82734" lon="4.67325">
        <ele>299.00766</ele>
        <time>2023-07-07T16:43:26.000Z</time>
      </trkpt>
      <trkpt lat="45.82739" lon="4.67332">
        <ele>298.9447</ele>
        <time>2023-07-07T16:43:27.000Z</time>
      </trkpt>
      <trkpt lat="45.82744" lon="4.67339">
        <ele>298.90103</ele>
        <time>2023-07-07T16:43:28.000Z</time>
      </trkpt>
      <trkpt lat="45.8275" lon="4.67345">
        <ele>298.84717</ele>
        <time>2023-07-07T16:43:29.000Z</time>
      </trkpt>
      <trkpt lat="45.82755" lon="4.67352">
        <ele>298.80634</ele>
        <time>2023-07-07T16:43:30.000Z</time>
      </trkpt>
      <trkpt lat="45.8276" lon="4.67358">
        <ele>298.77936</ele>
        <time>2023-07-07T16:43:31.000Z</time>
      </trkpt>
      <trkpt lat="45.82765" lon="4.67365">
        <ele>298.77228</ele>
        <time>2023-07-07T16:43:32.000Z</time>
      </trkpt>
      <trkpt lat="45.8277" lon="4.6737">
        <ele>298.72995</ele>
        <time>2023-07-07T16:43:33.000Z</time>
      </trkpt>
      <trkpt lat="45.82775" lon="4.67376">
        <ele>298.72202</ele>
        <time>2023-07-07T16:43:34.000Z</time>
      </trkpt>
      <trkpt lat="45.8278" lon="4.67383">
        <ele>298.72949</ele>
        <time>2023-07-07T16:43:35.000Z</time>
      </trkpt>
      <trkpt lat="45.82785" lon="4.67388">
        <ele>298.71283</ele>
        <time>2023-07-07T16:43:36.000Z</time>
      </trkpt>
      <trkpt lat="45.8279" lon="4.67394">
        <ele>298.6825</ele>
        <time>2023-07-07T16:43:37.000Z</time>
      </trkpt>
      <trkpt lat="45.82795" lon="4.67401">
        <ele>298.70114</ele>
        <time>2023-07-07T16:43:38.000Z</time>
      </trkpt>
      <trkpt lat="45.828" lon="4.67407">
        <ele>298.69962</ele>
        <time>2023-07-07T16:43:39.000Z</time>
      </trkpt>
      <trkpt lat="45.82805" lon="4.67413">
        <ele>298.6951</ele>
        <time>2023-07-07T16:43:40.000Z</time>
      </trkpt>
      <trkpt lat="45.82811" lon="4.6742">
        <ele>298.69412</ele>
        <time>2023-07-07T16:43:41.000Z</time>
      </trkpt>
      <trkpt lat="45.82815" lon="4.67426">
        <ele>298.67456</ele>
        <time>2023-07-07T16:43:42.000Z</time>
      </trkpt>
      <trkpt lat="45.8282" lon="4.67434">
        <ele>298.61038</ele>
        <time>2023-07-07T16:43:43.000Z</time>
      </trkpt>
      <trkpt lat="45.82825" lon="4.6744">
        <ele>298.53897</ele>
        <time>2023-07-07T16:43:44.000Z</time>
      </trkpt>
      <trkpt lat="45.82831" lon="4.67447">
        <ele>298.43521</ele>
        <time>2023-07-07T16:43:45.000Z</time>
      </trkpt>
      <trkpt lat="45.82836" lon="4.67454">
        <ele>298.31625</ele>
        <time>2023-07-07T16:43:46.000Z</time>
      </trkpt>
      <trkpt lat="45.82841" lon="4.6746">
        <ele>298.16739</ele>
        <time>2023-07-07T16:43:47.000Z</time>
      </trkpt>
      <trkpt lat="45.82846" lon="4.67468">
        <ele>298.01288</ele>
        <time>2023-07-07T16:43:48.000Z</time>
      </trkpt>
      <trkpt lat="45.82852" lon="4.67475">
        <ele>297.85464</ele>
        <time>2023-07-07T16:43:49.000Z</time>
      </trkpt>
      <trkpt lat="45.82858" lon="4.67481">
        <ele>297.70026</ele>
        <time>2023-07-07T16:43:50.000Z</time>
      </trkpt>
      <trkpt lat="45.82862" lon="4.67488">
        <ele>297.54242</ele>
        <time>2023-07-07T16:43:51.000Z</time>
      </trkpt>
      <trkpt lat="45.82867" lon="4.67494">
        <ele>297.3606</ele>
        <time>2023-07-07T16:43:52.000Z</time>
      </trkpt>
      <trkpt lat="45.82872" lon="4.675">
        <ele>297.17749</ele>
        <time>2023-07-07T16:43:53.000Z</time>
      </trkpt>
      <trkpt lat="45.82877" lon="4.67507">
        <ele>296.97134</ele>
        <time>2023-07-07T16:43:54.000Z</time>
      </trkpt>
      <trkpt lat="45.82882" lon="4.67513">
        <ele>296.73447</ele>
        <time>2023-07-07T16:43:55.000Z</time>
      </trkpt>
      <trkpt lat="45.82887" lon="4.6752">
        <ele>296.47125</ele>
        <time>2023-07-07T16:43:56.000Z</time>
      </trkpt>
      <trkpt lat="45.82892" lon="4.67527">
        <ele>296.20746</ele>
        <time>2023-07-07T16:43:57.000Z</time>
      </trkpt>
      <trkpt lat="45.82898" lon="4.67534">
        <ele>295.89978</ele>
        <time>2023-07-07T16:43:58.000Z</time>
      </trkpt>
      <trkpt lat="45.82904" lon="4.6754">
        <ele>295.57104</ele>
        <time>2023-07-07T16:43:59.000Z</time>
      </trkpt>
      <trkpt lat="45.82911" lon="4.67545">
        <ele>295.27057</ele>
        <time>2023-07-07T16:44:00.000Z</time>
      </trkpt>
      <trkpt lat="45.82916" lon="4.67551">
        <ele>295.00711</ele>
        <time>2023-07-07T16:44:01.000Z</time>
      </trkpt>
      <trkpt lat="45.82922" lon="4.67555">
        <ele>294.77386</ele>
        <time>2023-07-07T16:44:02.000Z</time>
      </trkpt>
      <trkpt lat="45.8293" lon="4.67558">
        <ele>294.52844</ele>
        <time>2023-07-07T16:44:03.000Z</time>
      </trkpt>
      <trkpt lat="45.82938" lon="4.67561">
        <ele>294.30261</ele>
        <time>2023-07-07T16:44:04.000Z</time>
      </trkpt>
      <trkpt lat="45.82946" lon="4.67564">
        <ele>294.08148</ele>
        <time>2023-07-07T16:44:05.000Z</time>
      </trkpt>
      <trkpt lat="45.82954" lon="4.67568">
        <ele>293.85703</ele>
        <time>2023-07-07T16:44:06.000Z</time>
      </trkpt>
      <trkpt lat="45.82962" lon="4.67571">
        <ele>293.67194</ele>
        <time>2023-07-07T16:44:07.000Z</time>
      </trkpt>
      <trkpt lat="45.82971" lon="4.67571">
        <ele>293.55634</ele>
        <time>2023-07-07T16:44:08.000Z</time>
      </trkpt>
      <trkpt lat="45.82981" lon="4.67574">
        <ele>293.37207</ele>
        <time>2023-07-07T16:44:09.000Z</time>
      </trkpt>
      <trkpt lat="45.82989" lon="4.67577">
        <ele>293.17145</ele>
        <time>2023-07-07T16:44:10.000Z</time>
      </trkpt>
      <trkpt lat="45.82997" lon="4.6758">
        <ele>292.92322</ele>
        <time>2023-07-07T16:44:11.000Z</time>
      </trkpt>
      <trkpt lat="45.83004" lon="4.67585">
        <ele>292.6731</ele>
        <time>2023-07-07T16:44:12.000Z</time>
      </trkpt>
      <trkpt lat="45.8301" lon="4.67594">
        <ele>292.40863</ele>
        <time>2023-07-07T16:44:13.000Z</time>
      </trkpt>
      <trkpt lat="45.83013" lon="4.67602">
        <ele>292.22507</ele>
        <time>2023-07-07T16:44:14.000Z</time>
      </trkpt>
      <trkpt lat="45.83012" lon="4.67614">
        <ele>292.11179</ele>
        <time>2023-07-07T16:44:15.000Z</time>
      </trkpt>
      <trkpt lat="45.83012" lon="4.67624">
        <ele>292.05267</ele>
        <time>2023-07-07T16:44:16.000Z</time>
      </trkpt>
      <trkpt lat="45.83012" lon="4.67634">
        <ele>292.00885</ele>
        <time>2023-07-07T16:44:17.000Z</time>
      </trkpt>
      <trkpt lat="45.83012" lon="4.67644">
        <ele>291.98816</ele>
        <time>2023-07-07T16:44:18.000Z</time>
      </trkpt>
      <trkpt lat="45.83012" lon="4.67654">
        <ele>291.98859</ele>
        <time>2023-07-07T16:44:19.000Z</time>
      </trkpt>
      <trkpt lat="45.83013" lon="4.67663">
        <ele>291.95862</ele>
        <time>2023-07-07T16:44:20.000Z</time>
      </trkpt>
      <trkpt lat="45.83013" lon="4.67672">
        <ele>291.84924</ele>
        <time>2023-07-07T16:44:21.000Z</time>
      </trkpt>
      <trkpt lat="45.83014" lon="4.6768">
        <ele>291.74097</ele>
        <time>2023-07-07T16:44:22.000Z</time>
      </trkpt>
      <trkpt lat="45.83014" lon="4.67688">
        <ele>291.66779</ele>
        <time>2023-07-07T16:44:23.000Z</time>
      </trkpt>
      <trkpt lat="45.83014" lon="4.67696">
        <ele>291.5907</ele>
        <time>2023-07-07T16:44:24.000Z</time>
      </trkpt>
      <trkpt lat="45.83016" lon="4.67704">
        <ele>291.58319</ele>
        <time>2023-07-07T16:44:25.000Z</time>
      </trkpt>
      <trkpt lat="45.83019" lon="4.67712">
        <ele>291.57648</ele>
        <time>2023-07-07T16:44:26.000Z</time>
      </trkpt>
      <trkpt lat="45.8302" lon="4.6772">
        <ele>291.54218</ele>
        <time>2023-07-07T16:44:27.000Z</time>
      </trkpt>
      <trkpt lat="45.83021" lon="4.67728">
        <ele>291.45325</ele>
        <time>2023-07-07T16:44:28.000Z</time>
      </trkpt>
      <trkpt lat="45.83023" lon="4.67735">
        <ele>291.44641</ele>
        <time>2023-07-07T16:44:29.000Z</time>
      </trkpt>
      <trkpt lat="45.83025" lon="4.67743">
        <ele>291.4509</ele>
        <time>2023-07-07T16:44:30.000Z</time>
      </trkpt>
      <trkpt lat="45.83026" lon="4.67752">
        <ele>291.48669</ele>
        <time>2023-07-07T16:44:31.000Z</time>
      </trkpt>
      <trkpt lat="45.83027" lon="4.6776">
        <ele>291.5477</ele>
        <time>2023-07-07T16:44:32.000Z</time>
      </trkpt>
      <trkpt lat="45.83027" lon="4.67768">
        <ele>291.63748</ele>
        <time>2023-07-07T16:44:33.000Z</time>
      </trkpt>
      <trkpt lat="45.83029" lon="4.67775">
        <ele>291.70923</ele>
        <time>2023-07-07T16:44:34.000Z</time>
      </trkpt>
      <trkpt lat="45.83034" lon="4.67782">
        <ele>291.74771</ele>
        <time>2023-07-07T16:44:35.000Z</time>
      </trkpt>
      <trkpt lat="45.83036" lon="4.6779">
        <ele>291.76642</ele>
        <time>2023-07-07T16:44:36.000Z</time>
      </trkpt>
      <trkpt lat="45.83036" lon="4.67798">
        <ele>291.79617</ele>
        <time>2023-07-07T16:44:37.000Z</time>
      </trkpt>
      <trkpt lat="45.83038" lon="4.67808">
        <ele>291.88922</ele>
        <time>2023-07-07T16:44:38.000Z</time>
      </trkpt>
      <trkpt lat="45.8304" lon="4.67816">
        <ele>291.93405</ele>
        <time>2023-07-07T16:44:39.000Z</time>
      </trkpt>
      <trkpt lat="45.83042" lon="4.67825">
        <ele>292.01996</ele>
        <time>2023-07-07T16:44:40.000Z</time>
      </trkpt>
      <trkpt lat="45.83043" lon="4.67834">
        <ele>292.14795</ele>
        <time>2023-07-07T16:44:41.000Z</time>
      </trkpt>
      <trkpt lat="45.83045" lon="4.67842">
        <ele>292.27747</ele>
        <time>2023-07-07T16:44:42.000Z</time>
      </trkpt>
      <trkpt lat="45.83047" lon="4.67849">
        <ele>292.40179</ele>
        <time>2023-07-07T16:44:43.000Z</time>
      </trkpt>
      <trkpt lat="45.83049" lon="4.67856">
        <ele>292.54037</ele>
        <time>2023-07-07T16:44:44.000Z</time>
      </trkpt>
      <trkpt lat="45.83052" lon="4.67864">
        <ele>292.61227</ele>
        <time>2023-07-07T16:44:45.000Z</time>
      </trkpt>
      <trkpt lat="45.83054" lon="4.67873">
        <ele>292.67972</ele>
        <time>2023-07-07T16:44:46.000Z</time>
      </trkpt>
      <trkpt lat="45.83055" lon="4.67882">
        <ele>292.75238</ele>
        <time>2023-07-07T16:44:47.000Z</time>
      </trkpt>
      <trkpt lat="45.83056" lon="4.6789">
        <ele>292.85513</ele>
        <time>2023-07-07T16:44:48.000Z</time>
      </trkpt>
      <trkpt lat="45.83057" lon="4.67897">
        <ele>292.94876</ele>
        <time>2023-07-07T16:44:49.000Z</time>
      </trkpt>
      <trkpt lat="45.83059" lon="4.67906">
        <ele>293.06833</ele>
        <time>2023-07-07T16:44:50.000Z</time>
      </trkpt>
      <trkpt lat="45.8306" lon="4.67913">
        <ele>293.17365</ele>
        <time>2023-07-07T16:44:51.000Z</time>
      </trkpt>
      <trkpt lat="45.83062" lon="4.67921">
        <ele>293.28018</ele>
        <time>2023-07-07T16:44:52.000Z</time>
      </trkpt>
      <trkpt lat="45.83064" lon="4.67928">
        <ele>293.36319</ele>
        <time>2023-07-07T16:44:53.000Z</time>
      </trkpt>
      <trkpt lat="45.83065" lon="4.67935">
        <ele>293.41064</ele>
        <time>2023-07-07T16:44:54.000Z</time>
      </trkpt>
      <trkpt lat="45.83068" lon="4.67942">
        <ele>293.45221</ele>
        <time>2023-07-07T16:44:55.000Z</time>
      </trkpt>
      <trkpt lat="45.83069" lon="4.6795">
        <ele>293.50546</ele>
        <time>2023-07-07T16:44:56.000Z</time>
      </trkpt>
      <trkpt lat="45.83069" lon="4.67956">
        <ele>293.5705</ele>
        <time>2023-07-07T16:44:57.000Z</time>
      </trkpt>
      <trkpt lat="45.83071" lon="4.67964">
        <ele>293.60419</ele>
        <time>2023-07-07T16:44:58.000Z</time>
      </trkpt>
      <trkpt lat="45.83073" lon="4.67971">
        <ele>293.70258</ele>
        <time>2023-07-07T16:44:59.000Z</time>
      </trkpt>
      <trkpt lat="45.83074" lon="4.67978">
        <ele>293.77789</ele>
        <time>2023-07-07T16:45:00.000Z</time>
      </trkpt>
      <trkpt lat="45.83076" lon="4.67986">
        <ele>293.82468</ele>
        <time>2023-07-07T16:45:01.000Z</time>
      </trkpt>
      <trkpt lat="45.83078" lon="4.67993">
        <ele>293.86118</ele>
        <time>2023-07-07T16:45:02.000Z</time>
      </trkpt>
      <trkpt lat="45.83078" lon="4.68001">
        <ele>293.8808</ele>
        <time>2023-07-07T16:45:03.000Z</time>
      </trkpt>
      <trkpt lat="45.83078" lon="4.68008">
        <ele>293.88232</ele>
        <time>2023-07-07T16:45:04.000Z</time>
      </trkpt>
      <trkpt lat="45.83079" lon="4.68015">
        <ele>293.92014</ele>
        <time>2023-07-07T16:45:05.000Z</time>
      </trkpt>
      <trkpt lat="45.8308" lon="4.68024">
        <ele>293.96597</ele>
        <time>2023-07-07T16:45:06.000Z</time>
      </trkpt>
      <trkpt lat="45.83081" lon="4.68031">
        <ele>293.98575</ele>
        <time>2023-07-07T16:45:07.000Z</time>
      </trkpt>
      <trkpt lat="45.83082" lon="4.68038">
        <ele>293.98575</ele>
        <time>2023-07-07T16:45:08.000Z</time>
      </trkpt>
      <trkpt lat="45.83082" lon="4.68045">
        <ele>294.00809</ele>
        <time>2023-07-07T16:45:09.000Z</time>
      </trkpt>
      <trkpt lat="45.83083" lon="4.68052">
        <ele>294.0141</ele>
        <time>2023-07-07T16:45:10.000Z</time>
      </trkpt>
      <trkpt lat="45.83083" lon="4.68059">
        <ele>294.03918</ele>
        <time>2023-07-07T16:45:11.000Z</time>
      </trkpt>
      <trkpt lat="45.83084" lon="4.68067">
        <ele>294.07379</ele>
        <time>2023-07-07T16:45:12.000Z</time>
      </trkpt>
      <trkpt lat="45.83084" lon="4.68074">
        <ele>294.13644</ele>
        <time>2023-07-07T16:45:13.000Z</time>
      </trkpt>
      <trkpt lat="45.83085" lon="4.68081">
        <ele>294.20367</ele>
        <time>2023-07-07T16:45:14.000Z</time>
      </trkpt>
      <trkpt lat="45.83086" lon="4.68089">
        <ele>294.2608</ele>
        <time>2023-07-07T16:45:15.000Z</time>
      </trkpt>
      <trkpt lat="45.83085" lon="4.68096">
        <ele>294.31024</ele>
        <time>2023-07-07T16:45:16.000Z</time>
      </trkpt>
      <trkpt lat="45.83086" lon="4.68102">
        <ele>294.35327</ele>
        <time>2023-07-07T16:45:17.000Z</time>
      </trkpt>
      <trkpt lat="45.83087" lon="4.68111">
        <ele>294.37527</ele>
        <time>2023-07-07T16:45:18.000Z</time>
      </trkpt>
      <trkpt lat="45.83088" lon="4.68118">
        <ele>294.38947</ele>
        <time>2023-07-07T16:45:19.000Z</time>
      </trkpt>
      <trkpt lat="45.83089" lon="4.68124">
        <ele>294.41006</ele>
        <time>2023-07-07T16:45:20.000Z</time>
      </trkpt>
      <trkpt lat="45.83089" lon="4.68131">
        <ele>294.47345</ele>
        <time>2023-07-07T16:45:21.000Z</time>
      </trkpt>
      <trkpt lat="45.83089" lon="4.68137">
        <ele>294.5387</ele>
        <time>2023-07-07T16:45:22.000Z</time>
      </trkpt>
      <trkpt lat="45.8309" lon="4.68143">
        <ele>294.60995</ele>
        <time>2023-07-07T16:45:23.000Z</time>
      </trkpt>
      <trkpt lat="45.83091" lon="4.68149">
        <ele>294.69498</ele>
        <time>2023-07-07T16:45:24.000Z</time>
      </trkpt>
      <trkpt lat="45.83092" lon="4.68155">
        <ele>294.78113</ele>
        <time>2023-07-07T16:45:25.000Z</time>
      </trkpt>
      <trkpt lat="45.83093" lon="4.68162">
        <ele>294.89447</ele>
        <time>2023-07-07T16:45:26.000Z</time>
      </trkpt>
      <trkpt lat="45.83093" lon="4.68169">
        <ele>295.04028</ele>
        <time>2023-07-07T16:45:27.000Z</time>
      </trkpt>
      <trkpt lat="45.83095" lon="4.68174">
        <ele>295.21368</ele>
        <time>2023-07-07T16:45:28.000Z</time>
      </trkpt>
      <trkpt lat="45.83096" lon="4.68181">
        <ele>295.36533</ele>
        <time>2023-07-07T16:45:29.000Z</time>
      </trkpt>
      <trkpt lat="45.83097" lon="4.68188">
        <ele>295.52817</ele>
        <time>2023-07-07T16:45:30.000Z</time>
      </trkpt>
      <trkpt lat="45.83099" lon="4.68195">
        <ele>295.66962</ele>
        <time>2023-07-07T16:45:31.000Z</time>
      </trkpt>
      <trkpt lat="45.83101" lon="4.68202">
        <ele>295.7746</ele>
        <time>2023-07-07T16:45:32.000Z</time>
      </trkpt>
      <trkpt lat="45.83102" lon="4.68211">
        <ele>295.8454</ele>
        <time>2023-07-07T16:45:33.000Z</time>
      </trkpt>
      <trkpt lat="45.83103" lon="4.68217">
        <ele>295.92548</ele>
        <time>2023-07-07T16:45:34.000Z</time>
      </trkpt>
      <trkpt lat="45.83105" lon="4.68223">
        <ele>296.02667</ele>
        <time>2023-07-07T16:45:35.000Z</time>
      </trkpt>
      <trkpt lat="45.83106" lon="4.68228">
        <ele>296.10712</ele>
        <time>2023-07-07T16:45:36.000Z</time>
      </trkpt>
      <trkpt lat="45.83108" lon="4.68233">
        <ele>296.20908</ele>
        <time>2023-07-07T16:45:37.000Z</time>
      </trkpt>
      <trkpt lat="45.8311" lon="4.68237">
        <ele>296.31818</ele>
        <time>2023-07-07T16:45:38.000Z</time>
      </trkpt>
      <trkpt lat="45.83112" lon="4.68242">
        <ele>296.47369</ele>
        <time>2023-07-07T16:45:39.000Z</time>
      </trkpt>
      <trkpt lat="45.83114" lon="4.68247">
        <ele>296.60745</ele>
        <time>2023-07-07T16:45:40.000Z</time>
      </trkpt>
      <trkpt lat="45.83114" lon="4.68251">
        <ele>296.70908</ele>
        <time>2023-07-07T16:45:41.000Z</time>
      </trkpt>
      <trkpt lat="45.83115" lon="4.68254">
        <ele>296.8017</ele>
        <time>2023-07-07T16:45:42.000Z</time>
      </trkpt>
      <trkpt lat="45.83115" lon="4.68257">
        <ele>296.88983</ele>
        <time>2023-07-07T16:45:43.000Z</time>
      </trkpt>
      <trkpt lat="45.83116" lon="4.6826">
        <ele>296.94788</ele>
        <time>2023-07-07T16:45:45.000Z</time>
      </trkpt>
      <trkpt lat="45.83117" lon="4.68257">
        <ele>297.00055</ele>
        <time>2023-07-07T16:45:50.000Z</time>
      </trkpt>
      <trkpt lat="45.83119" lon="4.6826">
        <ele>297.07104</ele>
        <time>2023-07-07T16:45:56.000Z</time>
      </trkpt>
      <trkpt lat="45.83122" lon="4.68261">
        <ele>297.12885</ele>
        <time>2023-07-07T16:45:58.000Z</time>
      </trkpt>
      <trkpt lat="45.8312" lon="4.68261">
        <ele>297.22397</ele>
        <time>2023-07-07T16:47:23.000Z</time>
      </trkpt>
      <trkpt lat="45.83119" lon="4.68265">
        <ele>297.30811</ele>
        <time>2023-07-07T16:48:39.000Z</time>
      </trkpt>
      <trkpt lat="45.8312" lon="4.68268">
        <ele>297.38312</ele>
        <time>2023-07-07T16:48:40.000Z</time>
      </trkpt>
      <trkpt lat="45.83121" lon="4.68271">
        <ele>297.47589</ele>
        <time>2023-07-07T16:48:41.000Z</time>
      </trkpt>
      <trkpt lat="45.83122" lon="4.68275">
        <ele>297.56805</ele>
        <time>2023-07-07T16:48:42.000Z</time>
      </trkpt>
      <trkpt lat="45.83124" lon="4.68279">
        <ele>297.66901</ele>
        <time>2023-07-07T16:48:43.000Z</time>
      </trkpt>
      <trkpt lat="45.83126" lon="4.68282">
        <ele>297.72885</ele>
        <time>2023-07-07T16:48:44.000Z</time>
      </trkpt>
      <trkpt lat="45.83129" lon="4.68286">
        <ele>297.77124</ele>
        <time>2023-07-07T16:48:45.000Z</time>
      </trkpt>
      <trkpt lat="45.83131" lon="4.6829">
        <ele>297.8168</ele>
        <time>2023-07-07T16:48:46.000Z</time>
      </trkpt>
      <trkpt lat="45.83134" lon="4.68295">
        <ele>297.80597</ele>
        <time>2023-07-07T16:48:47.000Z</time>
      </trkpt>
      <trkpt lat="45.83136" lon="4.683">
        <ele>297.80283</ele>
        <time>2023-07-07T16:48:48.000Z</time>
      </trkpt>
      <trkpt lat="45.83139" lon="4.68305">
        <ele>297.7337</ele>
        <time>2023-07-07T16:48:49.000Z</time>
      </trkpt>
      <trkpt lat="45.83142" lon="4.6831">
        <ele>297.68781</ele>
        <time>2023-07-07T16:48:50.000Z</time>
      </trkpt>
      <trkpt lat="45.83144" lon="4.68315">
        <ele>297.64862</ele>
        <time>2023-07-07T16:48:51.000Z</time>
      </trkpt>
      <trkpt lat="45.83148" lon="4.68321">
        <ele>297.57236</ele>
        <time>2023-07-07T16:48:52.000Z</time>
      </trkpt>
      <trkpt lat="45.83151" lon="4.68327">
        <ele>297.50507</ele>
        <time>2023-07-07T16:48:53.000Z</time>
      </trkpt>
      <trkpt lat="45.83154" lon="4.68333">
        <ele>297.43573</ele>
        <time>2023-07-07T16:48:54.000Z</time>
      </trkpt>
      <trkpt lat="45.83157" lon="4.68339">
        <ele>297.33929</ele>
        <time>2023-07-07T16:48:55.000Z</time>
      </trkpt>
      <trkpt lat="45.83161" lon="4.68345">
        <ele>297.19455</ele>
        <time>2023-07-07T16:48:56.000Z</time>
      </trkpt>
      <trkpt lat="45.83164" lon="4.68351">
        <ele>297.05481</ele>
        <time>2023-07-07T16:48:57.000Z</time>
      </trkpt>
      <trkpt lat="45.83169" lon="4.68361">
        <ele>296.80841</ele>
        <time>2023-07-07T16:48:58.000Z</time>
      </trkpt>
      <trkpt lat="45.83173" lon="4.68368">
        <ele>296.573</ele>
        <time>2023-07-07T16:48:59.000Z</time>
      </trkpt>
      <trkpt lat="45.83176" lon="4.68375">
        <ele>296.34622</ele>
        <time>2023-07-07T16:49:00.000Z</time>
      </trkpt>
      <trkpt lat="45.83179" lon="4.68381">
        <ele>296.13077</ele>
        <time>2023-07-07T16:49:01.000Z</time>
      </trkpt>
      <trkpt lat="45.83182" lon="4.68386">
        <ele>295.90833</ele>
        <time>2023-07-07T16:49:02.000Z</time>
      </trkpt>
      <trkpt lat="45.83186" lon="4.68393">
        <ele>295.68961</ele>
        <time>2023-07-07T16:49:03.000Z</time>
      </trkpt>
      <trkpt lat="45.83189" lon="4.684">
        <ele>295.48206</ele>
        <time>2023-07-07T16:49:04.000Z</time>
      </trkpt>
      <trkpt lat="45.83192" lon="4.68407">
        <ele>295.26096</ele>
        <time>2023-07-07T16:49:05.000Z</time>
      </trkpt>
      <trkpt lat="45.83196" lon="4.68415">
        <ele>295.07382</ele>
        <time>2023-07-07T16:49:06.000Z</time>
      </trkpt>
      <trkpt lat="45.832" lon="4.68423">
        <ele>294.87415</ele>
        <time>2023-07-07T16:49:07.000Z</time>
      </trkpt>
      <trkpt lat="45.83204" lon="4.6843">
        <ele>294.63776</ele>
        <time>2023-07-07T16:49:08.000Z</time>
      </trkpt>
      <trkpt lat="45.83208" lon="4.68438">
        <ele>294.4245</ele>
        <time>2023-07-07T16:49:09.000Z</time>
      </trkpt>
      <trkpt lat="45.83212" lon="4.68445">
        <ele>294.16791</ele>
        <time>2023-07-07T16:49:10.000Z</time>
      </trkpt>
      <trkpt lat="45.83217" lon="4.68454">
        <ele>293.85376</ele>
        <time>2023-07-07T16:49:11.000Z</time>
      </trkpt>
      <trkpt lat="45.83223" lon="4.68461">
        <ele>293.58984</ele>
        <time>2023-07-07T16:49:12.000Z</time>
      </trkpt>
      <trkpt lat="45.8323" lon="4.68468">
        <ele>293.30792</ele>
        <time>2023-07-07T16:49:13.000Z</time>
      </trkpt>
      <trkpt lat="45.83237" lon="4.68475">
        <ele>293.04053</ele>
        <time>2023-07-07T16:49:14.000Z</time>
      </trkpt>
      <trkpt lat="45.83244" lon="4.68482">
        <ele>292.78461</ele>
        <time>2023-07-07T16:49:15.000Z</time>
      </trkpt>
      <trkpt lat="45.83251" lon="4.68489">
        <ele>292.54242</ele>
        <time>2023-07-07T16:49:16.000Z</time>
      </trkpt>
      <trkpt lat="45.83258" lon="4.68495">
        <ele>292.29895</ele>
        <time>2023-07-07T16:49:17.000Z</time>
      </trkpt>
      <trkpt lat="45.83266" lon="4.68501">
        <ele>292.09387</ele>
        <time>2023-07-07T16:49:18.000Z</time>
      </trkpt>
      <trkpt lat="45.83274" lon="4.68508">
        <ele>291.73413</ele>
        <time>2023-07-07T16:49:19.000Z</time>
      </trkpt>
      <trkpt lat="45.83281" lon="4.68516">
        <ele>291.36105</ele>
        <time>2023-07-07T16:49:20.000Z</time>
      </trkpt>
      <trkpt lat="45.83289" lon="4.68524">
        <ele>290.95572</ele>
        <time>2023-07-07T16:49:21.000Z</time>
      </trkpt>
      <trkpt lat="45.83296" lon="4.68532">
        <ele>290.55066</ele>
        <time>2023-07-07T16:49:22.000Z</time>
      </trkpt>
      <trkpt lat="45.83303" lon="4.68541">
        <ele>290.15265</ele>
        <time>2023-07-07T16:49:23.000Z</time>
      </trkpt>
      <trkpt lat="45.83309" lon="4.68551">
        <ele>289.72894</ele>
        <time>2023-07-07T16:49:24.000Z</time>
      </trkpt>
      <trkpt lat="45.83316" lon="4.68562">
        <ele>289.31796</ele>
        <time>2023-07-07T16:49:25.000Z</time>
      </trkpt>
      <trkpt lat="45.8332" lon="4.68574">
        <ele>288.85925</ele>
        <time>2023-07-07T16:49:26.000Z</time>
      </trkpt>
      <trkpt lat="45.83323" lon="4.68587">
        <ele>288.40015</ele>
        <time>2023-07-07T16:49:27.000Z</time>
      </trkpt>
      <trkpt lat="45.83325" lon="4.68598">
        <ele>287.93439</ele>
        <time>2023-07-07T16:49:28.000Z</time>
      </trkpt>
      <trkpt lat="45.83326" lon="4.68609">
        <ele>287.50931</ele>
        <time>2023-07-07T16:49:29.000Z</time>
      </trkpt>
      <trkpt lat="45.83328" lon="4.68621">
        <ele>287.13748</ele>
        <time>2023-07-07T16:49:30.000Z</time>
      </trkpt>
      <trkpt lat="45.83329" lon="4.68632">
        <ele>286.82001</ele>
        <time>2023-07-07T16:49:31.000Z</time>
      </trkpt>
      <trkpt lat="45.83332" lon="4.68638">
        <ele>286.53366</ele>
        <time>2023-07-07T16:49:32.000Z</time>
      </trkpt>
      <trkpt lat="45.83331" lon="4.6865">
        <ele>286.26642</ele>
        <time>2023-07-07T16:49:33.000Z</time>
      </trkpt>
      <trkpt lat="45.83334" lon="4.68658">
        <ele>285.94388</ele>
        <time>2023-07-07T16:49:34.000Z</time>
      </trkpt>
      <trkpt lat="45.83337" lon="4.68665">
        <ele>285.57446</ele>
        <time>2023-07-07T16:49:35.000Z</time>
      </trkpt>
      <trkpt lat="45.83341" lon="4.68676">
        <ele>285.18143</ele>
        <time>2023-07-07T16:49:36.000Z</time>
      </trkpt>
      <trkpt lat="45.83343" lon="4.68681">
        <ele>284.77469</ele>
        <time>2023-07-07T16:49:37.000Z</time>
      </trkpt>
      <trkpt lat="45.83346" lon="4.68688">
        <ele>284.33548</ele>
        <time>2023-07-07T16:49:38.000Z</time>
      </trkpt>
      <trkpt lat="45.83349" lon="4.68694">
        <ele>284.03275</ele>
        <time>2023-07-07T16:49:39.000Z</time>
      </trkpt>
      <trkpt lat="45.83353" lon="4.68701">
        <ele>283.73523</ele>
        <time>2023-07-07T16:49:40.000Z</time>
      </trkpt>
      <trkpt lat="45.83356" lon="4.68707">
        <ele>283.47635</ele>
        <time>2023-07-07T16:49:41.000Z</time>
      </trkpt>
      <trkpt lat="45.83359" lon="4.68714">
        <ele>283.26453</ele>
        <time>2023-07-07T16:49:42.000Z</time>
      </trkpt>
      <trkpt lat="45.83362" lon="4.6872">
        <ele>283.11078</ele>
        <time>2023-07-07T16:49:43.000Z</time>
      </trkpt>
      <trkpt lat="45.83365" lon="4.68727">
        <ele>283.00018</ele>
        <time>2023-07-07T16:49:44.000Z</time>
      </trkpt>
      <trkpt lat="45.83367" lon="4.68733">
        <ele>282.98846</ele>
        <time>2023-07-07T16:49:45.000Z</time>
      </trkpt>
      <trkpt lat="45.83371" lon="4.68742">
        <ele>283.01093</ele>
        <time>2023-07-07T16:49:46.000Z</time>
      </trkpt>
      <trkpt lat="45.83374" lon="4.68749">
        <ele>283.07016</ele>
        <time>2023-07-07T16:49:47.000Z</time>
      </trkpt>
      <trkpt lat="45.83378" lon="4.68755">
        <ele>283.12762</ele>
        <time>2023-07-07T16:49:48.000Z</time>
      </trkpt>
      <trkpt lat="45.83381" lon="4.68761">
        <ele>283.13681</ele>
        <time>2023-07-07T16:49:49.000Z</time>
      </trkpt>
      <trkpt lat="45.83384" lon="4.68768">
        <ele>283.10913</ele>
        <time>2023-07-07T16:49:50.000Z</time>
      </trkpt>
      <trkpt lat="45.83387" lon="4.68775">
        <ele>283.06808</ele>
        <time>2023-07-07T16:49:51.000Z</time>
      </trkpt>
      <trkpt lat="45.8339" lon="4.68785">
        <ele>282.83652</ele>
        <time>2023-07-07T16:49:52.000Z</time>
      </trkpt>
      <trkpt lat="45.83392" lon="4.68793">
        <ele>282.59781</ele>
        <time>2023-07-07T16:49:53.000Z</time>
      </trkpt>
      <trkpt lat="45.83395" lon="4.688">
        <ele>282.53519</ele>
        <time>2023-07-07T16:49:54.000Z</time>
      </trkpt>
      <trkpt lat="45.83397" lon="4.68808">
        <ele>282.63788</ele>
        <time>2023-07-07T16:49:55.000Z</time>
      </trkpt>
      <trkpt lat="45.83399" lon="4.68816">
        <ele>282.69266</ele>
        <time>2023-07-07T16:49:56.000Z</time>
      </trkpt>
      <trkpt lat="45.83401" lon="4.68823">
        <ele>282.82697</ele>
        <time>2023-07-07T16:49:57.000Z</time>
      </trkpt>
      <trkpt lat="45.83404" lon="4.6883">
        <ele>282.99893</ele>
        <time>2023-07-07T16:49:58.000Z</time>
      </trkpt>
      <trkpt lat="45.83406" lon="4.68838">
        <ele>282.94403</ele>
        <time>2023-07-07T16:49:59.000Z</time>
      </trkpt>
      <trkpt lat="45.83408" lon="4.68845">
        <ele>282.90591</ele>
        <time>2023-07-07T16:50:00.000Z</time>
      </trkpt>
      <trkpt lat="45.8341" lon="4.68853">
        <ele>282.88666</ele>
        <time>2023-07-07T16:50:01.000Z</time>
      </trkpt>
      <trkpt lat="45.83412" lon="4.68861">
        <ele>282.87259</ele>
        <time>2023-07-07T16:50:02.000Z</time>
      </trkpt>
      <trkpt lat="45.83414" lon="4.6887">
        <ele>282.81299</ele>
        <time>2023-07-07T16:50:03.000Z</time>
      </trkpt>
      <trkpt lat="45.83416" lon="4.68876">
        <ele>282.73489</ele>
        <time>2023-07-07T16:50:04.000Z</time>
      </trkpt>
      <trkpt lat="45.83416" lon="4.68883">
        <ele>282.55109</ele>
        <time>2023-07-07T16:50:05.000Z</time>
      </trkpt>
      <trkpt lat="45.83418" lon="4.68889">
        <ele>282.42905</ele>
        <time>2023-07-07T16:50:06.000Z</time>
      </trkpt>
      <trkpt lat="45.83418" lon="4.68894">
        <ele>282.27405</ele>
        <time>2023-07-07T16:50:07.000Z</time>
      </trkpt>
      <trkpt lat="45.8342" lon="4.68898">
        <ele>282.19464</ele>
        <time>2023-07-07T16:50:08.000Z</time>
      </trkpt>
      <trkpt lat="45.83419" lon="4.68901">
        <ele>282.13828</ele>
        <time>2023-07-07T16:50:09.000Z</time>
      </trkpt>
      <trkpt lat="45.83421" lon="4.68906">
        <ele>282.11862</ele>
        <time>2023-07-07T16:50:11.000Z</time>
      </trkpt>
      <trkpt lat="45.83422" lon="4.68908">
        <ele>282.14764</ele>
        <time>2023-07-07T16:50:12.000Z</time>
      </trkpt>
      <trkpt lat="45.83421" lon="4.68913">
        <ele>282.37061</ele>
        <time>2023-07-07T16:50:13.000Z</time>
      </trkpt>
      <trkpt lat="45.83422" lon="4.68918">
        <ele>282.56027</ele>
        <time>2023-07-07T16:50:14.000Z</time>
      </trkpt>
      <trkpt lat="45.83423" lon="4.68923">
        <ele>282.61462</ele>
        <time>2023-07-07T16:50:15.000Z</time>
      </trkpt>
      <trkpt lat="45.83422" lon="4.68928">
        <ele>282.51843</ele>
        <time>2023-07-07T16:50:16.000Z</time>
      </trkpt>
      <trkpt lat="45.83421" lon="4.68933">
        <ele>282.50708</ele>
        <time>2023-07-07T16:50:17.000Z</time>
      </trkpt>
      <trkpt lat="45.8342" lon="4.68938">
        <ele>282.49719</ele>
        <time>2023-07-07T16:50:18.000Z</time>
      </trkpt>
      <trkpt lat="45.83419" lon="4.68943">
        <ele>282.48941</ele>
        <time>2023-07-07T16:50:19.000Z</time>
      </trkpt>
      <trkpt lat="45.83418" lon="4.68948">
        <ele>282.77292</ele>
        <time>2023-07-07T16:50:20.000Z</time>
      </trkpt>
      <trkpt lat="45.83417" lon="4.68952">
        <ele>282.99921</ele>
        <time>2023-07-07T16:50:21.000Z</time>
      </trkpt>
      <trkpt lat="45.83416" lon="4.68956">
        <ele>283.26727</ele>
        <time>2023-07-07T16:50:22.000Z</time>
      </trkpt>
      <trkpt lat="45.83414" lon="4.68961">
        <ele>283.51398</ele>
        <time>2023-07-07T16:50:23.000Z</time>
      </trkpt>
      <trkpt lat="45.83413" lon="4.68966">
        <ele>283.83942</ele>
        <time>2023-07-07T16:50:24.000Z</time>
      </trkpt>
      <trkpt lat="45.83412" lon="4.68971">
        <ele>284.17368</ele>
        <time>2023-07-07T16:50:25.000Z</time>
      </trkpt>
      <trkpt lat="45.8341" lon="4.68976">
        <ele>284.54803</ele>
        <time>2023-07-07T16:50:26.000Z</time>
      </trkpt>
      <trkpt lat="45.83408" lon="4.68982">
        <ele>284.86935</ele>
        <time>2023-07-07T16:50:27.000Z</time>
      </trkpt>
      <trkpt lat="45.83407" lon="4.68987">
        <ele>285.22714</ele>
        <time>2023-07-07T16:50:28.000Z</time>
      </trkpt>
      <trkpt lat="45.83405" lon="4.68994">
        <ele>285.54919</ele>
        <time>2023-07-07T16:50:29.000Z</time>
      </trkpt>
      <trkpt lat="45.83405" lon="4.69">
        <ele>285.91888</ele>
        <time>2023-07-07T16:50:30.000Z</time>
      </trkpt>
      <trkpt lat="45.83402" lon="4.69006">
        <ele>286.21295</ele>
        <time>2023-07-07T16:50:31.000Z</time>
      </trkpt>
      <trkpt lat="45.834" lon="4.69012">
        <ele>286.5383</ele>
        <time>2023-07-07T16:50:32.000Z</time>
      </trkpt>
      <trkpt lat="45.83398" lon="4.69018">
        <ele>286.85739</ele>
        <time>2023-07-07T16:50:33.000Z</time>
      </trkpt>
      <trkpt lat="45.83396" lon="4.69023">
        <ele>287.26187</ele>
        <time>2023-07-07T16:50:34.000Z</time>
      </trkpt>
      <trkpt lat="45.83393" lon="4.69028">
        <ele>287.70917</ele>
        <time>2023-07-07T16:50:35.000Z</time>
      </trkpt>
      <trkpt lat="45.8339" lon="4.69033">
        <ele>288.24323</ele>
        <time>2023-07-07T16:50:36.000Z</time>
      </trkpt>
      <trkpt lat="45.83388" lon="4.69038">
        <ele>288.7645</ele>
        <time>2023-07-07T16:50:37.000Z</time>
      </trkpt>
      <trkpt lat="45.83384" lon="4.69043">
        <ele>289.25955</ele>
        <time>2023-07-07T16:50:38.000Z</time>
      </trkpt>
      <trkpt lat="45.83381" lon="4.69049">
        <ele>289.71875</ele>
        <time>2023-07-07T16:50:39.000Z</time>
      </trkpt>
      <trkpt lat="45.83379" lon="4.69054">
        <ele>290.19037</ele>
        <time>2023-07-07T16:50:40.000Z</time>
      </trkpt>
      <trkpt lat="45.83377" lon="4.69061">
        <ele>290.70847</ele>
        <time>2023-07-07T16:50:41.000Z</time>
      </trkpt>
      <trkpt lat="45.83376" lon="4.69066">
        <ele>291.21292</ele>
        <time>2023-07-07T16:50:42.000Z</time>
      </trkpt>
      <trkpt lat="45.83375" lon="4.69072">
        <ele>291.71722</ele>
        <time>2023-07-07T16:50:43.000Z</time>
      </trkpt>
      <trkpt lat="45.83374" lon="4.6908">
        <ele>292.13043</ele>
        <time>2023-07-07T16:50:44.000Z</time>
      </trkpt>
      <trkpt lat="45.83372" lon="4.69087">
        <ele>292.55188</ele>
        <time>2023-07-07T16:50:45.000Z</time>
      </trkpt>
      <trkpt lat="45.83371" lon="4.69094">
        <ele>293.00333</ele>
        <time>2023-07-07T16:50:46.000Z</time>
      </trkpt>
      <trkpt lat="45.8337" lon="4.691">
        <ele>293.44525</ele>
        <time>2023-07-07T16:50:47.000Z</time>
      </trkpt>
      <trkpt lat="45.83369" lon="4.69107">
        <ele>293.87799</ele>
        <time>2023-07-07T16:50:48.000Z</time>
      </trkpt>
      <trkpt lat="45.83369" lon="4.69113">
        <ele>294.31714</ele>
        <time>2023-07-07T16:50:49.000Z</time>
      </trkpt>
      <trkpt lat="45.83368" lon="4.6912">
        <ele>294.7359</ele>
        <time>2023-07-07T16:50:50.000Z</time>
      </trkpt>
      <trkpt lat="45.83367" lon="4.69127">
        <ele>295.22021</ele>
        <time>2023-07-07T16:50:51.000Z</time>
      </trkpt>
      <trkpt lat="45.83366" lon="4.69134">
        <ele>295.67731</ele>
        <time>2023-07-07T16:50:52.000Z</time>
      </trkpt>
      <trkpt lat="45.83365" lon="4.69141">
        <ele>296.10025</ele>
        <time>2023-07-07T16:50:53.000Z</time>
      </trkpt>
      <trkpt lat="45.83364" lon="4.69147">
        <ele>296.49243</ele>
        <time>2023-07-07T16:50:54.000Z</time>
      </trkpt>
      <trkpt lat="45.83364" lon="4.69155">
        <ele>296.87842</ele>
        <time>2023-07-07T16:50:55.000Z</time>
      </trkpt>
      <trkpt lat="45.83363" lon="4.69162">
        <ele>297.21259</ele>
        <time>2023-07-07T16:50:56.000Z</time>
      </trkpt>
      <trkpt lat="45.83363" lon="4.69168">
        <ele>297.55487</ele>
        <time>2023-07-07T16:50:57.000Z</time>
      </trkpt>
      <trkpt lat="45.83363" lon="4.69175">
        <ele>297.86008</ele>
        <time>2023-07-07T16:50:58.000Z</time>
      </trkpt>
      <trkpt lat="45.83363" lon="4.69182">
        <ele>298.20621</ele>
        <time>2023-07-07T16:50:59.000Z</time>
      </trkpt>
      <trkpt lat="45.83362" lon="4.69188">
        <ele>298.49741</ele>
        <time>2023-07-07T16:51:00.000Z</time>
      </trkpt>
      <trkpt lat="45.83362" lon="4.69192">
        <ele>298.7785</ele>
        <time>2023-07-07T16:51:01.000Z</time>
      </trkpt>
      <trkpt lat="45.83361" lon="4.69196">
        <ele>299.01828</ele>
        <time>2023-07-07T16:51:02.000Z</time>
      </trkpt>
      <trkpt lat="45.8336" lon="4.69201">
        <ele>299.31146</ele>
        <time>2023-07-07T16:51:03.000Z</time>
      </trkpt>
      <trkpt lat="45.83359" lon="4.69207">
        <ele>299.59561</ele>
        <time>2023-07-07T16:51:04.000Z</time>
      </trkpt>
      <trkpt lat="45.83357" lon="4.69214">
        <ele>299.87317</ele>
        <time>2023-07-07T16:51:05.000Z</time>
      </trkpt>
      <trkpt lat="45.83356" lon="4.69221">
        <ele>300.12347</ele>
        <time>2023-07-07T16:51:06.000Z</time>
      </trkpt>
      <trkpt lat="45.83356" lon="4.69229">
        <ele>300.34283</ele>
        <time>2023-07-07T16:51:07.000Z</time>
      </trkpt>
      <trkpt lat="45.83355" lon="4.69237">
        <ele>300.56738</ele>
        <time>2023-07-07T16:51:08.000Z</time>
      </trkpt>
      <trkpt lat="45.83355" lon="4.69244">
        <ele>300.71942</ele>
        <time>2023-07-07T16:51:09.000Z</time>
      </trkpt>
      <trkpt lat="45.83354" lon="4.69251">
        <ele>300.8808</ele>
        <time>2023-07-07T16:51:10.000Z</time>
      </trkpt>
      <trkpt lat="45.83354" lon="4.6926">
        <ele>301.03796</ele>
        <time>2023-07-07T16:51:11.000Z</time>
      </trkpt>
      <trkpt lat="45.83353" lon="4.69267">
        <ele>301.14893</ele>
        <time>2023-07-07T16:51:12.000Z</time>
      </trkpt>
      <trkpt lat="45.83352" lon="4.69275">
        <ele>301.23972</ele>
        <time>2023-07-07T16:51:13.000Z</time>
      </trkpt>
      <trkpt lat="45.83352" lon="4.69284">
        <ele>301.34448</ele>
        <time>2023-07-07T16:51:14.000Z</time>
      </trkpt>
      <trkpt lat="45.83351" lon="4.69292">
        <ele>301.43481</ele>
        <time>2023-07-07T16:51:15.000Z</time>
      </trkpt>
      <trkpt lat="45.8335" lon="4.69301">
        <ele>301.4953</ele>
        <time>2023-07-07T16:51:16.000Z</time>
      </trkpt>
      <trkpt lat="45.8335" lon="4.6931">
        <ele>301.53192</ele>
        <time>2023-07-07T16:51:17.000Z</time>
      </trkpt>
      <trkpt lat="45.83349" lon="4.69318">
        <ele>301.56268</ele>
        <time>2023-07-07T16:51:18.000Z</time>
      </trkpt>
      <trkpt lat="45.8335" lon="4.6933">
        <ele>301.54181</ele>
        <time>2023-07-07T16:51:19.000Z</time>
      </trkpt>
      <trkpt lat="45.83351" lon="4.69346">
        <ele>301.3793</ele>
        <time>2023-07-07T16:51:20.000Z</time>
      </trkpt>
      <trkpt lat="45.8335" lon="4.69356">
        <ele>301.21506</ele>
        <time>2023-07-07T16:51:21.000Z</time>
      </trkpt>
      <trkpt lat="45.83348" lon="4.69364">
        <ele>301.01044</ele>
        <time>2023-07-07T16:51:22.000Z</time>
      </trkpt>
      <trkpt lat="45.83347" lon="4.69373">
        <ele>300.72919</ele>
        <time>2023-07-07T16:51:23.000Z</time>
      </trkpt>
      <trkpt lat="45.83346" lon="4.69382">
        <ele>300.44366</ele>
        <time>2023-07-07T16:51:24.000Z</time>
      </trkpt>
      <trkpt lat="45.83345" lon="4.69392">
        <ele>300.14569</ele>
        <time>2023-07-07T16:51:25.000Z</time>
      </trkpt>
      <trkpt lat="45.83344" lon="4.69401">
        <ele>299.83328</ele>
        <time>2023-07-07T16:51:26.000Z</time>
      </trkpt>
      <trkpt lat="45.83343" lon="4.69411">
        <ele>299.52289</ele>
        <time>2023-07-07T16:51:27.000Z</time>
      </trkpt>
      <trkpt lat="45.83342" lon="4.6942">
        <ele>299.20285</ele>
        <time>2023-07-07T16:51:28.000Z</time>
      </trkpt>
      <trkpt lat="45.83341" lon="4.69429">
        <ele>298.94226</ele>
        <time>2023-07-07T16:51:29.000Z</time>
      </trkpt>
      <trkpt lat="45.83339" lon="4.69438">
        <ele>298.67386</ele>
        <time>2023-07-07T16:51:30.000Z</time>
      </trkpt>
      <trkpt lat="45.83338" lon="4.69448">
        <ele>298.37225</ele>
        <time>2023-07-07T16:51:31.000Z</time>
      </trkpt>
      <trkpt lat="45.83337" lon="4.69457">
        <ele>298.08994</ele>
        <time>2023-07-07T16:51:32.000Z</time>
      </trkpt>
      <trkpt lat="45.83337" lon="4.69467">
        <ele>297.81683</ele>
        <time>2023-07-07T16:51:33.000Z</time>
      </trkpt>
      <trkpt lat="45.83336" lon="4.69476">
        <ele>297.56577</ele>
        <time>2023-07-07T16:51:34.000Z</time>
      </trkpt>
      <trkpt lat="45.83335" lon="4.69484">
        <ele>297.31915</ele>
        <time>2023-07-07T16:51:35.000Z</time>
      </trkpt>
      <trkpt lat="45.83336" lon="4.69494">
        <ele>297.11047</ele>
        <time>2023-07-07T16:51:36.000Z</time>
      </trkpt>
      <trkpt lat="45.83335" lon="4.69503">
        <ele>296.88376</ele>
        <time>2023-07-07T16:51:37.000Z</time>
      </trkpt>
      <trkpt lat="45.83336" lon="4.6951">
        <ele>296.66837</ele>
        <time>2023-07-07T16:51:38.000Z</time>
      </trkpt>
      <trkpt lat="45.83337" lon="4.69519">
        <ele>296.48785</ele>
        <time>2023-07-07T16:51:39.000Z</time>
      </trkpt>
      <trkpt lat="45.83338" lon="4.69527">
        <ele>296.44791</ele>
        <time>2023-07-07T16:51:40.000Z</time>
      </trkpt>
      <trkpt lat="45.83339" lon="4.69538">
        <ele>296.42105</ele>
        <time>2023-07-07T16:51:41.000Z</time>
      </trkpt>
      <trkpt lat="45.8334" lon="4.69547">
        <ele>296.45981</ele>
        <time>2023-07-07T16:51:42.000Z</time>
      </trkpt>
      <trkpt lat="45.83342" lon="4.69555">
        <ele>296.50632</ele>
        <time>2023-07-07T16:51:43.000Z</time>
      </trkpt>
      <trkpt lat="45.83343" lon="4.69565">
        <ele>296.55682</ele>
        <time>2023-07-07T16:51:44.000Z</time>
      </trkpt>
      <trkpt lat="45.83344" lon="4.69574">
        <ele>296.63031</ele>
        <time>2023-07-07T16:51:45.000Z</time>
      </trkpt>
      <trkpt lat="45.83345" lon="4.69583">
        <ele>296.69827</ele>
        <time>2023-07-07T16:51:46.000Z</time>
      </trkpt>
      <trkpt lat="45.83347" lon="4.69592">
        <ele>296.78516</ele>
        <time>2023-07-07T16:51:47.000Z</time>
      </trkpt>
      <trkpt lat="45.83348" lon="4.696">
        <ele>296.86127</ele>
        <time>2023-07-07T16:51:48.000Z</time>
      </trkpt>
      <trkpt lat="45.83349" lon="4.6961">
        <ele>296.95432</ele>
        <time>2023-07-07T16:51:49.000Z</time>
      </trkpt>
      <trkpt lat="45.8335" lon="4.69619">
        <ele>296.99835</ele>
        <time>2023-07-07T16:51:50.000Z</time>
      </trkpt>
      <trkpt lat="45.83351" lon="4.69628">
        <ele>297.07489</ele>
        <time>2023-07-07T16:51:51.000Z</time>
      </trkpt>
      <trkpt lat="45.83352" lon="4.69637">
        <ele>297.1525</ele>
        <time>2023-07-07T16:51:52.000Z</time>
      </trkpt>
      <trkpt lat="45.83354" lon="4.69645">
        <ele>297.23688</ele>
        <time>2023-07-07T16:51:53.000Z</time>
      </trkpt>
      <trkpt lat="45.83355" lon="4.69653">
        <ele>297.28351</ele>
        <time>2023-07-07T16:51:54.000Z</time>
      </trkpt>
      <trkpt lat="45.83357" lon="4.69662">
        <ele>297.30649</ele>
        <time>2023-07-07T16:51:55.000Z</time>
      </trkpt>
      <trkpt lat="45.83358" lon="4.69671">
        <ele>297.31503</ele>
        <time>2023-07-07T16:51:56.000Z</time>
      </trkpt>
      <trkpt lat="45.8336" lon="4.69679">
        <ele>297.34207</ele>
        <time>2023-07-07T16:51:57.000Z</time>
      </trkpt>
      <trkpt lat="45.83361" lon="4.69688">
        <ele>297.36481</ele>
        <time>2023-07-07T16:51:58.000Z</time>
      </trkpt>
      <trkpt lat="45.83364" lon="4.69698">
        <ele>297.37402</ele>
        <time>2023-07-07T16:51:59.000Z</time>
      </trkpt>
      <trkpt lat="45.83365" lon="4.69707">
        <ele>297.38614</ele>
        <time>2023-07-07T16:52:00.000Z</time>
      </trkpt>
      <trkpt lat="45.83367" lon="4.69715">
        <ele>297.40112</ele>
        <time>2023-07-07T16:52:01.000Z</time>
      </trkpt>
      <trkpt lat="45.83368" lon="4.69723">
        <ele>297.39261</ele>
        <time>2023-07-07T16:52:02.000Z</time>
      </trkpt>
      <trkpt lat="45.8337" lon="4.69731">
        <ele>297.38556</ele>
        <time>2023-07-07T16:52:03.000Z</time>
      </trkpt>
      <trkpt lat="45.83371" lon="4.69741">
        <ele>297.38718</ele>
        <time>2023-07-07T16:52:04.000Z</time>
      </trkpt>
      <trkpt lat="45.83373" lon="4.69749">
        <ele>297.37714</ele>
        <time>2023-07-07T16:52:05.000Z</time>
      </trkpt>
      <trkpt lat="45.83374" lon="4.69757">
        <ele>297.37445</ele>
        <time>2023-07-07T16:52:06.000Z</time>
      </trkpt>
      <trkpt lat="45.83376" lon="4.69767">
        <ele>297.37787</ele>
        <time>2023-07-07T16:52:07.000Z</time>
      </trkpt>
      <trkpt lat="45.83378" lon="4.69775">
        <ele>297.40472</ele>
        <time>2023-07-07T16:52:08.000Z</time>
      </trkpt>
      <trkpt lat="45.83379" lon="4.69782">
        <ele>297.43445</ele>
        <time>2023-07-07T16:52:09.000Z</time>
      </trkpt>
      <trkpt lat="45.83381" lon="4.6979">
        <ele>297.49438</ele>
        <time>2023-07-07T16:52:10.000Z</time>
      </trkpt>
      <trkpt lat="45.83382" lon="4.69799">
        <ele>297.54059</ele>
        <time>2023-07-07T16:52:11.000Z</time>
      </trkpt>
      <trkpt lat="45.83384" lon="4.69808">
        <ele>297.56708</ele>
        <time>2023-07-07T16:52:12.000Z</time>
      </trkpt>
      <trkpt lat="45.83387" lon="4.69815">
        <ele>297.60138</ele>
        <time>2023-07-07T16:52:13.000Z</time>
      </trkpt>
      <trkpt lat="45.83389" lon="4.69822">
        <ele>297.63492</ele>
        <time>2023-07-07T16:52:14.000Z</time>
      </trkpt>
      <trkpt lat="45.8339" lon="4.69829">
        <ele>297.7027</ele>
        <time>2023-07-07T16:52:15.000Z</time>
      </trkpt>
      <trkpt lat="45.83392" lon="4.69835">
        <ele>297.80334</ele>
        <time>2023-07-07T16:52:16.000Z</time>
      </trkpt>
      <trkpt lat="45.83395" lon="4.69842">
        <ele>297.9465</ele>
        <time>2023-07-07T16:52:17.000Z</time>
      </trkpt>
      <trkpt lat="45.83396" lon="4.69847">
        <ele>298.0658</ele>
        <time>2023-07-07T16:52:18.000Z</time>
      </trkpt>
      <trkpt lat="45.83397" lon="4.69852">
        <ele>298.25986</ele>
        <time>2023-07-07T16:52:19.000Z</time>
      </trkpt>
      <trkpt lat="45.83398" lon="4.69856">
        <ele>298.41269</ele>
        <time>2023-07-07T16:52:20.000Z</time>
      </trkpt>
      <trkpt lat="45.83397" lon="4.69862">
        <ele>298.56815</ele>
        <time>2023-07-07T16:52:21.000Z</time>
      </trkpt>
      <trkpt lat="45.83398" lon="4.69865">
        <ele>298.67886</ele>
        <time>2023-07-07T16:52:22.000Z</time>
      </trkpt>
      <trkpt lat="45.83397" lon="4.69869">
        <ele>298.76901</ele>
        <time>2023-07-07T16:52:23.000Z</time>
      </trkpt>
      <trkpt lat="45.83393" lon="4.6987">
        <ele>298.87851</ele>
        <time>2023-07-07T16:52:24.000Z</time>
      </trkpt>
      <trkpt lat="45.8339" lon="4.69871">
        <ele>299.42587</ele>
        <time>2023-07-07T16:52:25.000Z</time>
      </trkpt>
      <trkpt lat="45.83387" lon="4.69875">
        <ele>299.97137</ele>
        <time>2023-07-07T16:52:26.000Z</time>
      </trkpt>
      <trkpt lat="45.83386" lon="4.6988">
        <ele>300.5058</ele>
        <time>2023-07-07T16:52:27.000Z</time>
      </trkpt>
      <trkpt lat="45.83385" lon="4.69886">
        <ele>301.02979</ele>
        <time>2023-07-07T16:52:28.000Z</time>
      </trkpt>
      <trkpt lat="45.83386" lon="4.69893">
        <ele>301.54498</ele>
        <time>2023-07-07T16:52:29.000Z</time>
      </trkpt>
      <trkpt lat="45.83387" lon="4.699">
        <ele>302.01636</ele>
        <time>2023-07-07T16:52:30.000Z</time>
      </trkpt>
      <trkpt lat="45.83389" lon="4.69907">
        <ele>302.48184</ele>
        <time>2023-07-07T16:52:31.000Z</time>
      </trkpt>
      <trkpt lat="45.83393" lon="4.69912">
        <ele>302.9588</ele>
        <time>2023-07-07T16:52:32.000Z</time>
      </trkpt>
      <trkpt lat="45.83397" lon="4.69919">
        <ele>303.59683</ele>
        <time>2023-07-07T16:52:33.000Z</time>
      </trkpt>
      <trkpt lat="45.83401" lon="4.69926">
        <ele>303.9985</ele>
        <time>2023-07-07T16:52:34.000Z</time>
      </trkpt>
      <trkpt lat="45.83402" lon="4.69933">
        <ele>304.29117</ele>
        <time>2023-07-07T16:52:35.000Z</time>
      </trkpt>
      <trkpt lat="45.83402" lon="4.69942">
        <ele>304.57162</ele>
        <time>2023-07-07T16:52:36.000Z</time>
      </trkpt>
      <trkpt lat="45.83402" lon="4.6995">
        <ele>304.8421</ele>
        <time>2023-07-07T16:52:37.000Z</time>
      </trkpt>
      <trkpt lat="45.83401" lon="4.69959">
        <ele>305.11938</ele>
        <time>2023-07-07T16:52:38.000Z</time>
      </trkpt>
      <trkpt lat="45.834" lon="4.69967">
        <ele>305.36743</ele>
        <time>2023-07-07T16:52:39.000Z</time>
      </trkpt>
      <trkpt lat="45.83399" lon="4.69976">
        <ele>305.677</ele>
        <time>2023-07-07T16:52:40.000Z</time>
      </trkpt>
      <trkpt lat="45.83398" lon="4.69985">
        <ele>305.70697</ele>
        <time>2023-07-07T16:52:41.000Z</time>
      </trkpt>
      <trkpt lat="45.83397" lon="4.69993">
        <ele>305.7352</ele>
        <time>2023-07-07T16:52:42.000Z</time>
      </trkpt>
      <trkpt lat="45.83397" lon="4.70001">
        <ele>305.78967</ele>
        <time>2023-07-07T16:52:43.000Z</time>
      </trkpt>
      <trkpt lat="45.83396" lon="4.7001">
        <ele>305.83295</ele>
        <time>2023-07-07T16:52:44.000Z</time>
      </trkpt>
      <trkpt lat="45.83395" lon="4.7002">
        <ele>305.44901</ele>
        <time>2023-07-07T16:52:45.000Z</time>
      </trkpt>
      <trkpt lat="45.83394" lon="4.70029">
        <ele>305.04694</ele>
        <time>2023-07-07T16:52:46.000Z</time>
      </trkpt>
      <trkpt lat="45.83393" lon="4.70037">
        <ele>304.65765</ele>
        <time>2023-07-07T16:52:47.000Z</time>
      </trkpt>
      <trkpt lat="45.83392" lon="4.70046">
        <ele>304.33118</ele>
        <time>2023-07-07T16:52:48.000Z</time>
      </trkpt>
      <trkpt lat="45.83392" lon="4.70055">
        <ele>303.99753</ele>
        <time>2023-07-07T16:52:49.000Z</time>
      </trkpt>
      <trkpt lat="45.83391" lon="4.70063">
        <ele>303.67679</ele>
        <time>2023-07-07T16:52:50.000Z</time>
      </trkpt>
      <trkpt lat="45.8339" lon="4.70072">
        <ele>303.36603</ele>
        <time>2023-07-07T16:52:51.000Z</time>
      </trkpt>
      <trkpt lat="45.83389" lon="4.70081">
        <ele>303.03741</ele>
        <time>2023-07-07T16:52:52.000Z</time>
      </trkpt>
      <trkpt lat="45.83388" lon="4.7009">
        <ele>302.53751</ele>
        <time>2023-07-07T16:52:53.000Z</time>
      </trkpt>
      <trkpt lat="45.83387" lon="4.70098">
        <ele>302.26294</ele>
        <time>2023-07-07T16:52:54.000Z</time>
      </trkpt>
      <trkpt lat="45.83386" lon="4.70107">
        <ele>302.09659</ele>
        <time>2023-07-07T16:52:55.000Z</time>
      </trkpt>
      <trkpt lat="45.83384" lon="4.70116">
        <ele>301.94537</ele>
        <time>2023-07-07T16:52:56.000Z</time>
      </trkpt>
      <trkpt lat="45.83383" lon="4.70123">
        <ele>301.78687</ele>
        <time>2023-07-07T16:52:57.000Z</time>
      </trkpt>
      <trkpt lat="45.83381" lon="4.70132">
        <ele>301.62338</ele>
        <time>2023-07-07T16:52:58.000Z</time>
      </trkpt>
      <trkpt lat="45.8338" lon="4.70141">
        <ele>301.44092</ele>
        <time>2023-07-07T16:52:59.000Z</time>
      </trkpt>
      <trkpt lat="45.83378" lon="4.70149">
        <ele>301.24332</ele>
        <time>2023-07-07T16:53:00.000Z</time>
      </trkpt>
      <trkpt lat="45.83375" lon="4.70158">
        <ele>301.31274</ele>
        <time>2023-07-07T16:53:01.000Z</time>
      </trkpt>
      <trkpt lat="45.83373" lon="4.70167">
        <ele>301.41238</ele>
        <time>2023-07-07T16:53:02.000Z</time>
      </trkpt>
      <trkpt lat="45.8337" lon="4.70175">
        <ele>301.49997</ele>
        <time>2023-07-07T16:53:03.000Z</time>
      </trkpt>
      <trkpt lat="45.83368" lon="4.70184">
        <ele>301.6055</ele>
        <time>2023-07-07T16:53:04.000Z</time>
      </trkpt>
      <trkpt lat="45.83365" lon="4.70192">
        <ele>301.70831</ele>
        <time>2023-07-07T16:53:05.000Z</time>
      </trkpt>
      <trkpt lat="45.83363" lon="4.70201">
        <ele>301.82382</ele>
        <time>2023-07-07T16:53:06.000Z</time>
      </trkpt>
      <trkpt lat="45.8336" lon="4.70209">
        <ele>301.91278</ele>
        <time>2023-07-07T16:53:07.000Z</time>
      </trkpt>
      <trkpt lat="45.83358" lon="4.70218">
        <ele>301.9101</ele>
        <time>2023-07-07T16:53:08.000Z</time>
      </trkpt>
      <trkpt lat="45.83355" lon="4.70226">
        <ele>301.93414</ele>
        <time>2023-07-07T16:53:09.000Z</time>
      </trkpt>
      <trkpt lat="45.83353" lon="4.70234">
        <ele>301.97064</ele>
        <time>2023-07-07T16:53:10.000Z</time>
      </trkpt>
      <trkpt lat="45.8335" lon="4.70242">
        <ele>302.01105</ele>
        <time>2023-07-07T16:53:11.000Z</time>
      </trkpt>
      <trkpt lat="45.83347" lon="4.7025">
        <ele>302.07843</ele>
        <time>2023-07-07T16:53:12.000Z</time>
      </trkpt>
      <trkpt lat="45.83343" lon="4.70256">
        <ele>302.17819</ele>
        <time>2023-07-07T16:53:13.000Z</time>
      </trkpt>
      <trkpt lat="45.8334" lon="4.70265">
        <ele>302.25278</ele>
        <time>2023-07-07T16:53:14.000Z</time>
      </trkpt>
      <trkpt lat="45.83337" lon="4.70273">
        <ele>302.31744</ele>
        <time>2023-07-07T16:53:15.000Z</time>
      </trkpt>
      <trkpt lat="45.83335" lon="4.70282">
        <ele>302.34601</ele>
        <time>2023-07-07T16:53:16.000Z</time>
      </trkpt>
      <trkpt lat="45.83332" lon="4.70289">
        <ele>302.36957</ele>
        <time>2023-07-07T16:53:17.000Z</time>
      </trkpt>
      <trkpt lat="45.8333" lon="4.70298">
        <ele>302.38702</ele>
        <time>2023-07-07T16:53:18.000Z</time>
      </trkpt>
      <trkpt lat="45.83327" lon="4.70306">
        <ele>302.3978</ele>
        <time>2023-07-07T16:53:19.000Z</time>
      </trkpt>
      <trkpt lat="45.83325" lon="4.70313">
        <ele>302.40704</ele>
        <time>2023-07-07T16:53:20.000Z</time>
      </trkpt>
      <trkpt lat="45.83323" lon="4.70321">
        <ele>302.38968</ele>
        <time>2023-07-07T16:53:21.000Z</time>
      </trkpt>
      <trkpt lat="45.83321" lon="4.70328">
        <ele>302.45105</ele>
        <time>2023-07-07T16:53:22.000Z</time>
      </trkpt>
      <trkpt lat="45.8332" lon="4.70333">
        <ele>302.53802</ele>
        <time>2023-07-07T16:53:23.000Z</time>
      </trkpt>
      <trkpt lat="45.83321" lon="4.70339">
        <ele>302.5571</ele>
        <time>2023-07-07T16:53:24.000Z</time>
      </trkpt>
      <trkpt lat="45.83323" lon="4.70345">
        <ele>302.53665</ele>
        <time>2023-07-07T16:53:25.000Z</time>
      </trkpt>
      <trkpt lat="45.83323" lon="4.70351">
        <ele>302.49518</ele>
        <time>2023-07-07T16:53:26.000Z</time>
      </trkpt>
      <trkpt lat="45.83324" lon="4.70359">
        <ele>302.42868</ele>
        <time>2023-07-07T16:53:27.000Z</time>
      </trkpt>
      <trkpt lat="45.83325" lon="4.70363">
        <ele>302.45206</ele>
        <time>2023-07-07T16:53:28.000Z</time>
      </trkpt>
      <trkpt lat="45.83327" lon="4.70369">
        <ele>302.47046</ele>
        <time>2023-07-07T16:53:29.000Z</time>
      </trkpt>
      <trkpt lat="45.83328" lon="4.70376">
        <ele>302.49457</ele>
        <time>2023-07-07T16:53:30.000Z</time>
      </trkpt>
      <trkpt lat="45.83328" lon="4.70381">
        <ele>302.50824</ele>
        <time>2023-07-07T16:53:31.000Z</time>
      </trkpt>
      <trkpt lat="45.83328" lon="4.70388">
        <ele>302.55133</ele>
        <time>2023-07-07T16:53:32.000Z</time>
      </trkpt>
      <trkpt lat="45.83329" lon="4.70395">
        <ele>302.57449</ele>
        <time>2023-07-07T16:53:33.000Z</time>
      </trkpt>
      <trkpt lat="45.83329" lon="4.70402">
        <ele>302.62961</ele>
        <time>2023-07-07T16:53:34.000Z</time>
      </trkpt>
      <trkpt lat="45.8333" lon="4.70408">
        <ele>302.6723</ele>
        <time>2023-07-07T16:53:35.000Z</time>
      </trkpt>
      <trkpt lat="45.83332" lon="4.70416">
        <ele>302.72485</ele>
        <time>2023-07-07T16:53:36.000Z</time>
      </trkpt>
      <trkpt lat="45.83333" lon="4.70423">
        <ele>302.75955</ele>
        <time>2023-07-07T16:53:37.000Z</time>
      </trkpt>
      <trkpt lat="45.83335" lon="4.70433">
        <ele>302.79694</ele>
        <time>2023-07-07T16:53:38.000Z</time>
      </trkpt>
      <trkpt lat="45.83336" lon="4.7044">
        <ele>302.8642</ele>
        <time>2023-07-07T16:53:39.000Z</time>
      </trkpt>
      <trkpt lat="45.83338" lon="4.70449">
        <ele>302.89856</ele>
        <time>2023-07-07T16:53:40.000Z</time>
      </trkpt>
      <trkpt lat="45.83339" lon="4.70456">
        <ele>302.95242</ele>
        <time>2023-07-07T16:53:41.000Z</time>
      </trkpt>
      <trkpt lat="45.8334" lon="4.70462">
        <ele>302.91281</ele>
        <time>2023-07-07T16:53:42.000Z</time>
      </trkpt>
      <trkpt lat="45.8334" lon="4.70466">
        <ele>302.86679</ele>
        <time>2023-07-07T16:53:43.000Z</time>
      </trkpt>
      <trkpt lat="45.83341" lon="4.70472">
        <ele>302.7937</ele>
        <time>2023-07-07T16:53:44.000Z</time>
      </trkpt>
      <trkpt lat="45.83341" lon="4.70481">
        <ele>302.72949</ele>
        <time>2023-07-07T16:53:45.000Z</time>
      </trkpt>
      <trkpt lat="45.83342" lon="4.70485">
        <ele>302.65201</ele>
        <time>2023-07-07T16:53:46.000Z</time>
      </trkpt>
      <trkpt lat="45.83345" lon="4.70494">
        <ele>302.56793</ele>
        <time>2023-07-07T16:53:47.000Z</time>
      </trkpt>
      <trkpt lat="45.83345" lon="4.70501">
        <ele>302.41641</ele>
        <time>2023-07-07T16:53:48.000Z</time>
      </trkpt>
      <trkpt lat="45.83346" lon="4.70511">
        <ele>302.22488</ele>
        <time>2023-07-07T16:53:49.000Z</time>
      </trkpt>
      <trkpt lat="45.83346" lon="4.70517">
        <ele>302.07434</ele>
        <time>2023-07-07T16:53:50.000Z</time>
      </trkpt>
      <trkpt lat="45.83347" lon="4.70524">
        <ele>301.91272</ele>
        <time>2023-07-07T16:53:51.000Z</time>
      </trkpt>
      <trkpt lat="45.83348" lon="4.70532">
        <ele>301.71893</ele>
        <time>2023-07-07T16:53:52.000Z</time>
      </trkpt>
      <trkpt lat="45.83347" lon="4.70541">
        <ele>301.50739</ele>
        <time>2023-07-07T16:53:53.000Z</time>
      </trkpt>
      <trkpt lat="45.83348" lon="4.70549">
        <ele>301.26221</ele>
        <time>2023-07-07T16:53:54.000Z</time>
      </trkpt>
      <trkpt lat="45.83348" lon="4.70557">
        <ele>301.02264</ele>
        <time>2023-07-07T16:53:55.000Z</time>
      </trkpt>
      <trkpt lat="45.83351" lon="4.70571">
        <ele>300.77649</ele>
        <time>2023-07-07T16:53:56.000Z</time>
      </trkpt>
      <trkpt lat="45.83352" lon="4.70579">
        <ele>300.53412</ele>
        <time>2023-07-07T16:53:57.000Z</time>
      </trkpt>
      <trkpt lat="45.83352" lon="4.70585">
        <ele>300.30829</ele>
        <time>2023-07-07T16:53:58.000Z</time>
      </trkpt>
      <trkpt lat="45.83351" lon="4.70592">
        <ele>300.05948</ele>
        <time>2023-07-07T16:53:59.000Z</time>
      </trkpt>
      <trkpt lat="45.83352" lon="4.706">
        <ele>299.83585</ele>
        <time>2023-07-07T16:54:00.000Z</time>
      </trkpt>
      <trkpt lat="45.83351" lon="4.70609">
        <ele>299.63461</ele>
        <time>2023-07-07T16:54:01.000Z</time>
      </trkpt>
      <trkpt lat="45.83351" lon="4.70617">
        <ele>299.44223</ele>
        <time>2023-07-07T16:54:02.000Z</time>
      </trkpt>
      <trkpt lat="45.83352" lon="4.70624">
        <ele>299.26215</ele>
        <time>2023-07-07T16:54:03.000Z</time>
      </trkpt>
      <trkpt lat="45.83351" lon="4.70632">
        <ele>299.19073</ele>
        <time>2023-07-07T16:54:04.000Z</time>
      </trkpt>
      <trkpt lat="45.83352" lon="4.70642">
        <ele>299.09567</ele>
        <time>2023-07-07T16:54:05.000Z</time>
      </trkpt>
      <trkpt lat="45.83351" lon="4.70648">
        <ele>299.07422</ele>
        <time>2023-07-07T16:54:06.000Z</time>
      </trkpt>
      <trkpt lat="45.8335" lon="4.70657">
        <ele>299.10211</ele>
        <time>2023-07-07T16:54:07.000Z</time>
      </trkpt>
      <trkpt lat="45.8335" lon="4.70667">
        <ele>299.10666</ele>
        <time>2023-07-07T16:54:08.000Z</time>
      </trkpt>
      <trkpt lat="45.83349" lon="4.70674">
        <ele>299.13885</ele>
        <time>2023-07-07T16:54:09.000Z</time>
      </trkpt>
      <trkpt lat="45.83348" lon="4.70681">
        <ele>299.15225</ele>
        <time>2023-07-07T16:54:10.000Z</time>
      </trkpt>
      <trkpt lat="45.83348" lon="4.70688">
        <ele>299.21088</ele>
        <time>2023-07-07T16:54:11.000Z</time>
      </trkpt>
      <trkpt lat="45.83346" lon="4.70695">
        <ele>299.23865</ele>
        <time>2023-07-07T16:54:12.000Z</time>
      </trkpt>
      <trkpt lat="45.83346" lon="4.70703">
        <ele>299.30969</ele>
        <time>2023-07-07T16:54:13.000Z</time>
      </trkpt>
      <trkpt lat="45.83345" lon="4.7071">
        <ele>299.41074</ele>
        <time>2023-07-07T16:54:14.000Z</time>
      </trkpt>
      <trkpt lat="45.83345" lon="4.70718">
        <ele>299.56918</ele>
        <time>2023-07-07T16:54:15.000Z</time>
      </trkpt>
      <trkpt lat="45.83344" lon="4.70725">
        <ele>299.72089</ele>
        <time>2023-07-07T16:54:16.000Z</time>
      </trkpt>
      <trkpt lat="45.83344" lon="4.70734">
        <ele>299.95508</ele>
        <time>2023-07-07T16:54:17.000Z</time>
      </trkpt>
      <trkpt lat="45.83343" lon="4.70742">
        <ele>300.1972</ele>
        <time>2023-07-07T16:54:18.000Z</time>
      </trkpt>
      <trkpt lat="45.83342" lon="4.70749">
        <ele>300.45721</ele>
        <time>2023-07-07T16:54:19.000Z</time>
      </trkpt>
      <trkpt lat="45.83341" lon="4.70757">
        <ele>300.70532</ele>
        <time>2023-07-07T16:54:20.000Z</time>
      </trkpt>
      <trkpt lat="45.8334" lon="4.70765">
        <ele>300.93549</ele>
        <time>2023-07-07T16:54:21.000Z</time>
      </trkpt>
      <trkpt lat="45.83339" lon="4.70773">
        <ele>301.19452</ele>
        <time>2023-07-07T16:54:22.000Z</time>
      </trkpt>
      <trkpt lat="45.83338" lon="4.70782">
        <ele>301.40521</ele>
        <time>2023-07-07T16:54:23.000Z</time>
      </trkpt>
      <trkpt lat="45.83337" lon="4.7079">
        <ele>301.57928</ele>
        <time>2023-07-07T16:54:24.000Z</time>
      </trkpt>
      <trkpt lat="45.83338" lon="4.70798">
        <ele>301.77667</ele>
        <time>2023-07-07T16:54:25.000Z</time>
      </trkpt>
      <trkpt lat="45.83338" lon="4.70806">
        <ele>301.94299</ele>
        <time>2023-07-07T16:54:26.000Z</time>
      </trkpt>
      <trkpt lat="45.83337" lon="4.70814">
        <ele>302.14517</ele>
        <time>2023-07-07T16:54:27.000Z</time>
      </trkpt>
      <trkpt lat="45.83337" lon="4.70823">
        <ele>302.33578</ele>
        <time>2023-07-07T16:54:28.000Z</time>
      </trkpt>
      <trkpt lat="45.83335" lon="4.70832">
        <ele>302.49405</ele>
        <time>2023-07-07T16:54:29.000Z</time>
      </trkpt>
      <trkpt lat="45.83336" lon="4.70839">
        <ele>302.64847</ele>
        <time>2023-07-07T16:54:30.000Z</time>
      </trkpt>
      <trkpt lat="45.83335" lon="4.70845">
        <ele>302.8035</ele>
        <time>2023-07-07T16:54:31.000Z</time>
      </trkpt>
      <trkpt lat="45.83334" lon="4.70851">
        <ele>302.98602</ele>
        <time>2023-07-07T16:54:32.000Z</time>
      </trkpt>
      <trkpt lat="45.83334" lon="4.70857">
        <ele>303.11078</ele>
        <time>2023-07-07T16:54:33.000Z</time>
      </trkpt>
      <trkpt lat="45.83333" lon="4.70861">
        <ele>303.75931</ele>
        <time>2023-07-07T16:54:34.000Z</time>
      </trkpt>
      <trkpt lat="45.83333" lon="4.70865">
        <ele>304.34381</ele>
        <time>2023-07-07T16:54:35.000Z</time>
      </trkpt>
    </trkseg>
  </trk>
</gpx>